<?xml version="1.0" encoding="UTF-8" standalone="no" ?>
<gpx xmlns="http://www.topografix.com/GPX/1/1" xmlns:xsi="http://www.w3.org/2001/XMLSchema-instance" xsi:schemaLocation="http://www.topografix.com/GPX/1/1 http://www.topografix.com/GPX/1/1/gpx.xsd" version="1.1" creator="VisuGPX - https://www.visugpx.com">
  <metadata>
    <name>J8 Voie Bleue : Retour à la gare de Thionville</name>
    <desc><![CDATA[Voie Bleue réalisée dans le sens Sud (Lyon) Nord (Apach)

Pour l'itinéraire complet, suivre le [url=https://www.visugpx.com/membres/33867/voie-bleue/]dossier suivant[/url].]]></desc>
  </metadata>
  <trk>
    <name><![CDATA[Vélo sur route, 2026-05-20]]></name>
    <trkseg>
      <trkpt lat="49.44517" lon="6.349">
        <ele>149.2002</ele>
        <time>2026-05-20T08:24:09+02:00</time>
      </trkpt>
      <trkpt lat="49.44515" lon="6.34903">
        <ele>149.2002</ele>
        <time>2026-05-20T08:24:10+02:00</time>
      </trkpt>
      <trkpt lat="49.44513" lon="6.34906">
        <ele>149.40039</ele>
        <time>2026-05-20T08:24:11+02:00</time>
      </trkpt>
      <trkpt lat="49.44512" lon="6.34909">
        <ele>149</ele>
        <time>2026-05-20T08:24:12+02:00</time>
      </trkpt>
      <trkpt lat="49.4451" lon="6.34912">
        <ele>149</ele>
        <time>2026-05-20T08:24:13+02:00</time>
      </trkpt>
      <trkpt lat="49.44509" lon="6.34915">
        <ele>149</ele>
        <time>2026-05-20T08:24:14+02:00</time>
      </trkpt>
      <trkpt lat="49.44507" lon="6.34919">
        <ele>148.7998</ele>
        <time>2026-05-20T08:24:15+02:00</time>
      </trkpt>
      <trkpt lat="49.44505" lon="6.34923">
        <ele>148.7998</ele>
        <time>2026-05-20T08:24:16+02:00</time>
      </trkpt>
      <trkpt lat="49.44503" lon="6.34927">
        <ele>148.40039</ele>
        <time>2026-05-20T08:24:17+02:00</time>
      </trkpt>
      <trkpt lat="49.445" lon="6.34932">
        <ele>148.7002</ele>
        <time>2026-05-20T08:24:18+02:00</time>
      </trkpt>
      <trkpt lat="49.44497" lon="6.34936">
        <ele>148.7002</ele>
        <time>2026-05-20T08:24:19+02:00</time>
      </trkpt>
      <trkpt lat="49.44495" lon="6.34941">
        <ele>148.7002</ele>
        <time>2026-05-20T08:24:20+02:00</time>
      </trkpt>
      <trkpt lat="49.44492" lon="6.34946">
        <ele>148.5</ele>
        <time>2026-05-20T08:24:21+02:00</time>
      </trkpt>
      <trkpt lat="49.4449" lon="6.34951">
        <ele>148.5</ele>
        <time>2026-05-20T08:24:22+02:00</time>
      </trkpt>
      <trkpt lat="49.44488" lon="6.34956">
        <ele>148.5</ele>
        <time>2026-05-20T08:24:23+02:00</time>
      </trkpt>
      <trkpt lat="49.44486" lon="6.34961">
        <ele>148.40039</ele>
        <time>2026-05-20T08:24:24+02:00</time>
      </trkpt>
      <trkpt lat="49.44483" lon="6.34966">
        <ele>148.40039</ele>
        <time>2026-05-20T08:24:25+02:00</time>
      </trkpt>
      <trkpt lat="49.44481" lon="6.34971">
        <ele>148.10059</ele>
        <time>2026-05-20T08:24:26+02:00</time>
      </trkpt>
      <trkpt lat="49.44479" lon="6.34976">
        <ele>148.40039</ele>
        <time>2026-05-20T08:24:27+02:00</time>
      </trkpt>
      <trkpt lat="49.44477" lon="6.34981">
        <ele>148.40039</ele>
        <time>2026-05-20T08:24:28+02:00</time>
      </trkpt>
      <trkpt lat="49.44475" lon="6.34986">
        <ele>148.10059</ele>
        <time>2026-05-20T08:24:29+02:00</time>
      </trkpt>
      <trkpt lat="49.44472" lon="6.3499">
        <ele>148.7002</ele>
        <time>2026-05-20T08:24:30+02:00</time>
      </trkpt>
      <trkpt lat="49.4447" lon="6.34995">
        <ele>148.10059</ele>
        <time>2026-05-20T08:24:31+02:00</time>
      </trkpt>
      <trkpt lat="49.44468" lon="6.35">
        <ele>148.5</ele>
        <time>2026-05-20T08:24:32+02:00</time>
      </trkpt>
      <trkpt lat="49.44466" lon="6.35005">
        <ele>147.7998</ele>
        <time>2026-05-20T08:24:33+02:00</time>
      </trkpt>
      <trkpt lat="49.44463" lon="6.35011">
        <ele>147.2002</ele>
        <time>2026-05-20T08:24:34+02:00</time>
      </trkpt>
      <trkpt lat="49.44461" lon="6.35016">
        <ele>147.2002</ele>
        <time>2026-05-20T08:24:35+02:00</time>
      </trkpt>
      <trkpt lat="49.44459" lon="6.35021">
        <ele>146.40039</ele>
        <time>2026-05-20T08:24:36+02:00</time>
      </trkpt>
      <trkpt lat="49.44456" lon="6.35026">
        <ele>146.7998</ele>
        <time>2026-05-20T08:24:37+02:00</time>
      </trkpt>
      <trkpt lat="49.44454" lon="6.35031">
        <ele>146</ele>
        <time>2026-05-20T08:24:38+02:00</time>
      </trkpt>
      <trkpt lat="49.44452" lon="6.35036">
        <ele>145.7002</ele>
        <time>2026-05-20T08:24:39+02:00</time>
      </trkpt>
      <trkpt lat="49.4445" lon="6.3504">
        <ele>145.7002</ele>
        <time>2026-05-20T08:24:40+02:00</time>
      </trkpt>
      <trkpt lat="49.44448" lon="6.35045">
        <ele>145</ele>
        <time>2026-05-20T08:24:41+02:00</time>
      </trkpt>
      <trkpt lat="49.44445" lon="6.3505">
        <ele>145.60059</ele>
        <time>2026-05-20T08:24:42+02:00</time>
      </trkpt>
      <trkpt lat="49.44442" lon="6.35055">
        <ele>144.7998</ele>
        <time>2026-05-20T08:24:43+02:00</time>
      </trkpt>
      <trkpt lat="49.4444" lon="6.35061">
        <ele>145.2998</ele>
        <time>2026-05-20T08:24:44+02:00</time>
      </trkpt>
      <trkpt lat="49.44438" lon="6.35066">
        <ele>144.5</ele>
        <time>2026-05-20T08:24:45+02:00</time>
      </trkpt>
      <trkpt lat="49.44435" lon="6.35072">
        <ele>143.7002</ele>
        <time>2026-05-20T08:24:46+02:00</time>
      </trkpt>
      <trkpt lat="49.44432" lon="6.35077">
        <ele>143.7002</ele>
        <time>2026-05-20T08:24:47+02:00</time>
      </trkpt>
      <trkpt lat="49.4443" lon="6.35082">
        <ele>142.7002</ele>
        <time>2026-05-20T08:24:48+02:00</time>
      </trkpt>
      <trkpt lat="49.44426" lon="6.35087">
        <ele>142.2002</ele>
        <time>2026-05-20T08:24:49+02:00</time>
      </trkpt>
      <trkpt lat="49.44423" lon="6.35093">
        <ele>142.5</ele>
        <time>2026-05-20T08:24:50+02:00</time>
      </trkpt>
      <trkpt lat="49.4442" lon="6.35098">
        <ele>142.10059</ele>
        <time>2026-05-20T08:24:51+02:00</time>
      </trkpt>
      <trkpt lat="49.44417" lon="6.35103">
        <ele>142.7002</ele>
        <time>2026-05-20T08:24:52+02:00</time>
      </trkpt>
      <trkpt lat="49.44414" lon="6.35108">
        <ele>142.2998</ele>
        <time>2026-05-20T08:24:53+02:00</time>
      </trkpt>
      <trkpt lat="49.4441" lon="6.35112">
        <ele>142.7998</ele>
        <time>2026-05-20T08:24:54+02:00</time>
      </trkpt>
      <trkpt lat="49.44407" lon="6.35117">
        <ele>142.7002</ele>
        <time>2026-05-20T08:24:55+02:00</time>
      </trkpt>
      <trkpt lat="49.44403" lon="6.35122">
        <ele>142.10059</ele>
        <time>2026-05-20T08:24:56+02:00</time>
      </trkpt>
      <trkpt lat="49.44399" lon="6.35127">
        <ele>142.60059</ele>
        <time>2026-05-20T08:24:57+02:00</time>
      </trkpt>
      <trkpt lat="49.44396" lon="6.35131">
        <ele>142.7998</ele>
        <time>2026-05-20T08:24:58+02:00</time>
      </trkpt>
      <trkpt lat="49.44393" lon="6.35136">
        <ele>142.7998</ele>
        <time>2026-05-20T08:24:59+02:00</time>
      </trkpt>
      <trkpt lat="49.4439" lon="6.35141">
        <ele>143</ele>
        <time>2026-05-20T08:25:00+02:00</time>
      </trkpt>
      <trkpt lat="49.44387" lon="6.35145">
        <ele>143</ele>
        <time>2026-05-20T08:25:01+02:00</time>
      </trkpt>
      <trkpt lat="49.44384" lon="6.35149">
        <ele>143</ele>
        <time>2026-05-20T08:25:02+02:00</time>
      </trkpt>
      <trkpt lat="49.44381" lon="6.35153">
        <ele>143</ele>
        <time>2026-05-20T08:25:03+02:00</time>
      </trkpt>
      <trkpt lat="49.44378" lon="6.35157">
        <ele>142.90039</ele>
        <time>2026-05-20T08:25:04+02:00</time>
      </trkpt>
      <trkpt lat="49.44374" lon="6.35162">
        <ele>143.60059</ele>
        <time>2026-05-20T08:25:05+02:00</time>
      </trkpt>
      <trkpt lat="49.44371" lon="6.35166">
        <ele>143.10059</ele>
        <time>2026-05-20T08:25:06+02:00</time>
      </trkpt>
      <trkpt lat="49.44368" lon="6.3517">
        <ele>143.7998</ele>
        <time>2026-05-20T08:25:07+02:00</time>
      </trkpt>
      <trkpt lat="49.44364" lon="6.35174">
        <ele>143.2998</ele>
        <time>2026-05-20T08:25:08+02:00</time>
      </trkpt>
      <trkpt lat="49.44361" lon="6.35178">
        <ele>143.90039</ele>
        <time>2026-05-20T08:25:09+02:00</time>
      </trkpt>
      <trkpt lat="49.44357" lon="6.35183">
        <ele>143.7998</ele>
        <time>2026-05-20T08:25:10+02:00</time>
      </trkpt>
      <trkpt lat="49.44353" lon="6.35187">
        <ele>143.7998</ele>
        <time>2026-05-20T08:25:11+02:00</time>
      </trkpt>
      <trkpt lat="49.4435" lon="6.35192">
        <ele>143.7998</ele>
        <time>2026-05-20T08:25:12+02:00</time>
      </trkpt>
      <trkpt lat="49.44347" lon="6.35197">
        <ele>143.7998</ele>
        <time>2026-05-20T08:25:13+02:00</time>
      </trkpt>
      <trkpt lat="49.44343" lon="6.35202">
        <ele>144.10059</ele>
        <time>2026-05-20T08:25:14+02:00</time>
      </trkpt>
      <trkpt lat="49.4434" lon="6.35207">
        <ele>144.90039</ele>
        <time>2026-05-20T08:25:15+02:00</time>
      </trkpt>
      <trkpt lat="49.44336" lon="6.35212">
        <ele>144.2998</ele>
        <time>2026-05-20T08:25:16+02:00</time>
      </trkpt>
      <trkpt lat="49.44333" lon="6.35216">
        <ele>144.2998</ele>
        <time>2026-05-20T08:25:17+02:00</time>
      </trkpt>
      <trkpt lat="49.4433" lon="6.3522">
        <ele>144.2998</ele>
        <time>2026-05-20T08:25:18+02:00</time>
      </trkpt>
      <trkpt lat="49.44326" lon="6.35225">
        <ele>144.2002</ele>
        <time>2026-05-20T08:25:19+02:00</time>
      </trkpt>
      <trkpt lat="49.44323" lon="6.35229">
        <ele>145</ele>
        <time>2026-05-20T08:25:20+02:00</time>
      </trkpt>
      <trkpt lat="49.4432" lon="6.35234">
        <ele>144.2998</ele>
        <time>2026-05-20T08:25:21+02:00</time>
      </trkpt>
      <trkpt lat="49.44316" lon="6.35238">
        <ele>145.10059</ele>
        <time>2026-05-20T08:25:22+02:00</time>
      </trkpt>
      <trkpt lat="49.44313" lon="6.35243">
        <ele>144.2998</ele>
        <time>2026-05-20T08:25:23+02:00</time>
      </trkpt>
      <trkpt lat="49.4431" lon="6.35247">
        <ele>144.90039</ele>
        <time>2026-05-20T08:25:24+02:00</time>
      </trkpt>
      <trkpt lat="49.44307" lon="6.35252">
        <ele>144.5</ele>
        <time>2026-05-20T08:25:25+02:00</time>
      </trkpt>
      <trkpt lat="49.44304" lon="6.35256">
        <ele>144.5</ele>
        <time>2026-05-20T08:25:26+02:00</time>
      </trkpt>
      <trkpt lat="49.44301" lon="6.35261">
        <ele>143.7002</ele>
        <time>2026-05-20T08:25:27+02:00</time>
      </trkpt>
      <trkpt lat="49.44297" lon="6.35266">
        <ele>143.7002</ele>
        <time>2026-05-20T08:25:28+02:00</time>
      </trkpt>
      <trkpt lat="49.44294" lon="6.3527">
        <ele>143</ele>
        <time>2026-05-20T08:25:29+02:00</time>
      </trkpt>
      <trkpt lat="49.44291" lon="6.35275">
        <ele>143</ele>
        <time>2026-05-20T08:25:30+02:00</time>
      </trkpt>
      <trkpt lat="49.44288" lon="6.35279">
        <ele>143.2998</ele>
        <time>2026-05-20T08:25:31+02:00</time>
      </trkpt>
      <trkpt lat="49.44285" lon="6.35284">
        <ele>144.40039</ele>
        <time>2026-05-20T08:25:32+02:00</time>
      </trkpt>
      <trkpt lat="49.44282" lon="6.35288">
        <ele>143.60059</ele>
        <time>2026-05-20T08:25:33+02:00</time>
      </trkpt>
      <trkpt lat="49.44278" lon="6.35293">
        <ele>144.60059</ele>
        <time>2026-05-20T08:25:34+02:00</time>
      </trkpt>
      <trkpt lat="49.44275" lon="6.35298">
        <ele>143.40039</ele>
        <time>2026-05-20T08:25:35+02:00</time>
      </trkpt>
      <trkpt lat="49.44272" lon="6.35303">
        <ele>143.10059</ele>
        <time>2026-05-20T08:25:36+02:00</time>
      </trkpt>
      <trkpt lat="49.44269" lon="6.35307">
        <ele>143.10059</ele>
        <time>2026-05-20T08:25:37+02:00</time>
      </trkpt>
      <trkpt lat="49.44266" lon="6.35312">
        <ele>143.2002</ele>
        <time>2026-05-20T08:25:38+02:00</time>
      </trkpt>
      <trkpt lat="49.44264" lon="6.35317">
        <ele>143.2002</ele>
        <time>2026-05-20T08:25:39+02:00</time>
      </trkpt>
      <trkpt lat="49.44261" lon="6.35321">
        <ele>143.5</ele>
        <time>2026-05-20T08:25:40+02:00</time>
      </trkpt>
      <trkpt lat="49.44257" lon="6.35326">
        <ele>144.2998</ele>
        <time>2026-05-20T08:25:41+02:00</time>
      </trkpt>
      <trkpt lat="49.44254" lon="6.3533">
        <ele>143.40039</ele>
        <time>2026-05-20T08:25:42+02:00</time>
      </trkpt>
      <trkpt lat="49.44251" lon="6.35335">
        <ele>144.10059</ele>
        <time>2026-05-20T08:25:43+02:00</time>
      </trkpt>
      <trkpt lat="49.44248" lon="6.3534">
        <ele>143.2002</ele>
        <time>2026-05-20T08:25:44+02:00</time>
      </trkpt>
      <trkpt lat="49.44245" lon="6.35346">
        <ele>143.2002</ele>
        <time>2026-05-20T08:25:45+02:00</time>
      </trkpt>
      <trkpt lat="49.44243" lon="6.35351">
        <ele>143.2002</ele>
        <time>2026-05-20T08:25:46+02:00</time>
      </trkpt>
      <trkpt lat="49.4424" lon="6.35356">
        <ele>143.5</ele>
        <time>2026-05-20T08:25:47+02:00</time>
      </trkpt>
      <trkpt lat="49.44237" lon="6.35362">
        <ele>142.7002</ele>
        <time>2026-05-20T08:25:48+02:00</time>
      </trkpt>
      <trkpt lat="49.44235" lon="6.35368">
        <ele>142.7002</ele>
        <time>2026-05-20T08:25:49+02:00</time>
      </trkpt>
      <trkpt lat="49.44233" lon="6.35374">
        <ele>142.7002</ele>
        <time>2026-05-20T08:25:50+02:00</time>
      </trkpt>
      <trkpt lat="49.44231" lon="6.3538">
        <ele>142.10059</ele>
        <time>2026-05-20T08:25:51+02:00</time>
      </trkpt>
      <trkpt lat="49.44229" lon="6.35386">
        <ele>142.7998</ele>
        <time>2026-05-20T08:25:52+02:00</time>
      </trkpt>
      <trkpt lat="49.44227" lon="6.35392">
        <ele>142.40039</ele>
        <time>2026-05-20T08:25:53+02:00</time>
      </trkpt>
      <trkpt lat="49.44225" lon="6.35397">
        <ele>142.10059</ele>
        <time>2026-05-20T08:25:54+02:00</time>
      </trkpt>
      <trkpt lat="49.44223" lon="6.35404">
        <ele>142.60059</ele>
        <time>2026-05-20T08:25:55+02:00</time>
      </trkpt>
      <trkpt lat="49.44222" lon="6.3541">
        <ele>142.10059</ele>
        <time>2026-05-20T08:25:56+02:00</time>
      </trkpt>
      <trkpt lat="49.4422" lon="6.35416">
        <ele>141.90039</ele>
        <time>2026-05-20T08:25:57+02:00</time>
      </trkpt>
      <trkpt lat="49.44219" lon="6.35422">
        <ele>141.90039</ele>
        <time>2026-05-20T08:25:58+02:00</time>
      </trkpt>
      <trkpt lat="49.44217" lon="6.35428">
        <ele>141.90039</ele>
        <time>2026-05-20T08:25:59+02:00</time>
      </trkpt>
      <trkpt lat="49.44216" lon="6.35435">
        <ele>141.7002</ele>
        <time>2026-05-20T08:26:00+02:00</time>
      </trkpt>
      <trkpt lat="49.44214" lon="6.35441">
        <ele>141.7998</ele>
        <time>2026-05-20T08:26:01+02:00</time>
      </trkpt>
      <trkpt lat="49.44213" lon="6.35447">
        <ele>141.7998</ele>
        <time>2026-05-20T08:26:02+02:00</time>
      </trkpt>
      <trkpt lat="49.44212" lon="6.35454">
        <ele>142</ele>
        <time>2026-05-20T08:26:03+02:00</time>
      </trkpt>
      <trkpt lat="49.4421" lon="6.3546">
        <ele>142.10059</ele>
        <time>2026-05-20T08:26:04+02:00</time>
      </trkpt>
      <trkpt lat="49.44208" lon="6.35466">
        <ele>142.10059</ele>
        <time>2026-05-20T08:26:05+02:00</time>
      </trkpt>
      <trkpt lat="49.44207" lon="6.35472">
        <ele>142.10059</ele>
        <time>2026-05-20T08:26:06+02:00</time>
      </trkpt>
      <trkpt lat="49.44206" lon="6.35479">
        <ele>142.40039</ele>
        <time>2026-05-20T08:26:07+02:00</time>
      </trkpt>
      <trkpt lat="49.44204" lon="6.35485">
        <ele>142.40039</ele>
        <time>2026-05-20T08:26:08+02:00</time>
      </trkpt>
      <trkpt lat="49.44203" lon="6.35491">
        <ele>142.40039</ele>
        <time>2026-05-20T08:26:09+02:00</time>
      </trkpt>
      <trkpt lat="49.44201" lon="6.35498">
        <ele>142.90039</ele>
        <time>2026-05-20T08:26:10+02:00</time>
      </trkpt>
      <trkpt lat="49.442" lon="6.35505">
        <ele>142.90039</ele>
        <time>2026-05-20T08:26:11+02:00</time>
      </trkpt>
      <trkpt lat="49.44198" lon="6.35512">
        <ele>142.90039</ele>
        <time>2026-05-20T08:26:12+02:00</time>
      </trkpt>
      <trkpt lat="49.44197" lon="6.35518">
        <ele>142.90039</ele>
        <time>2026-05-20T08:26:13+02:00</time>
      </trkpt>
      <trkpt lat="49.44196" lon="6.35525">
        <ele>142.90039</ele>
        <time>2026-05-20T08:26:14+02:00</time>
      </trkpt>
      <trkpt lat="49.44195" lon="6.35532">
        <ele>143.60059</ele>
        <time>2026-05-20T08:26:15+02:00</time>
      </trkpt>
      <trkpt lat="49.44194" lon="6.35539">
        <ele>143.7002</ele>
        <time>2026-05-20T08:26:16+02:00</time>
      </trkpt>
      <trkpt lat="49.44194" lon="6.35546">
        <ele>143.7002</ele>
        <time>2026-05-20T08:26:17+02:00</time>
      </trkpt>
      <trkpt lat="49.44193" lon="6.35553">
        <ele>143.7002</ele>
        <time>2026-05-20T08:26:18+02:00</time>
      </trkpt>
      <trkpt lat="49.44193" lon="6.35559">
        <ele>143.7002</ele>
        <time>2026-05-20T08:26:19+02:00</time>
      </trkpt>
      <trkpt lat="49.44193" lon="6.35566">
        <ele>143.7002</ele>
        <time>2026-05-20T08:26:20+02:00</time>
      </trkpt>
      <trkpt lat="49.44192" lon="6.35573">
        <ele>143.7998</ele>
        <time>2026-05-20T08:26:21+02:00</time>
      </trkpt>
      <trkpt lat="49.44192" lon="6.3558">
        <ele>143.7998</ele>
        <time>2026-05-20T08:26:22+02:00</time>
      </trkpt>
      <trkpt lat="49.44192" lon="6.35586">
        <ele>143.7998</ele>
        <time>2026-05-20T08:26:23+02:00</time>
      </trkpt>
      <trkpt lat="49.44192" lon="6.35593">
        <ele>143.7998</ele>
        <time>2026-05-20T08:26:24+02:00</time>
      </trkpt>
      <trkpt lat="49.44192" lon="6.35601">
        <ele>143.90039</ele>
        <time>2026-05-20T08:26:25+02:00</time>
      </trkpt>
      <trkpt lat="49.44192" lon="6.35608">
        <ele>143.90039</ele>
        <time>2026-05-20T08:26:26+02:00</time>
      </trkpt>
      <trkpt lat="49.44192" lon="6.35614">
        <ele>143.90039</ele>
        <time>2026-05-20T08:26:27+02:00</time>
      </trkpt>
      <trkpt lat="49.44192" lon="6.35622">
        <ele>143.90039</ele>
        <time>2026-05-20T08:26:28+02:00</time>
      </trkpt>
      <trkpt lat="49.44192" lon="6.35629">
        <ele>144</ele>
        <time>2026-05-20T08:26:29+02:00</time>
      </trkpt>
      <trkpt lat="49.44192" lon="6.35635">
        <ele>144</ele>
        <time>2026-05-20T08:26:30+02:00</time>
      </trkpt>
      <trkpt lat="49.44192" lon="6.35642">
        <ele>144</ele>
        <time>2026-05-20T08:26:31+02:00</time>
      </trkpt>
      <trkpt lat="49.44193" lon="6.35649">
        <ele>144</ele>
        <time>2026-05-20T08:26:32+02:00</time>
      </trkpt>
      <trkpt lat="49.44193" lon="6.35656">
        <ele>144</ele>
        <time>2026-05-20T08:26:33+02:00</time>
      </trkpt>
      <trkpt lat="49.44194" lon="6.35663">
        <ele>144</ele>
        <time>2026-05-20T08:26:34+02:00</time>
      </trkpt>
      <trkpt lat="49.44195" lon="6.3567">
        <ele>144</ele>
        <time>2026-05-20T08:26:35+02:00</time>
      </trkpt>
      <trkpt lat="49.44195" lon="6.35677">
        <ele>144.10059</ele>
        <time>2026-05-20T08:26:36+02:00</time>
      </trkpt>
      <trkpt lat="49.44196" lon="6.35683">
        <ele>143.2998</ele>
        <time>2026-05-20T08:26:37+02:00</time>
      </trkpt>
      <trkpt lat="49.44196" lon="6.3569">
        <ele>143.2998</ele>
        <time>2026-05-20T08:26:38+02:00</time>
      </trkpt>
      <trkpt lat="49.44197" lon="6.35697">
        <ele>143.40039</ele>
        <time>2026-05-20T08:26:39+02:00</time>
      </trkpt>
      <trkpt lat="49.44198" lon="6.35703">
        <ele>143.40039</ele>
        <time>2026-05-20T08:26:40+02:00</time>
      </trkpt>
      <trkpt lat="49.44198" lon="6.3571">
        <ele>143.40039</ele>
        <time>2026-05-20T08:26:41+02:00</time>
      </trkpt>
      <trkpt lat="49.44199" lon="6.35716">
        <ele>143.40039</ele>
        <time>2026-05-20T08:26:42+02:00</time>
      </trkpt>
      <trkpt lat="49.442" lon="6.35723">
        <ele>143.5</ele>
        <time>2026-05-20T08:26:43+02:00</time>
      </trkpt>
      <trkpt lat="49.44201" lon="6.35729">
        <ele>143.5</ele>
        <time>2026-05-20T08:26:44+02:00</time>
      </trkpt>
      <trkpt lat="49.44202" lon="6.35736">
        <ele>143</ele>
        <time>2026-05-20T08:26:45+02:00</time>
      </trkpt>
      <trkpt lat="49.44203" lon="6.35742">
        <ele>143.2002</ele>
        <time>2026-05-20T08:26:46+02:00</time>
      </trkpt>
      <trkpt lat="49.44204" lon="6.35748">
        <ele>143.5</ele>
        <time>2026-05-20T08:26:47+02:00</time>
      </trkpt>
      <trkpt lat="49.44206" lon="6.35752">
        <ele>143.5</ele>
        <time>2026-05-20T08:26:48+02:00</time>
      </trkpt>
      <trkpt lat="49.44206" lon="6.35756">
        <ele>143.5</ele>
        <time>2026-05-20T08:26:49+02:00</time>
      </trkpt>
      <trkpt lat="49.44205" lon="6.35759">
        <ele>143.90039</ele>
        <time>2026-05-20T08:26:50+02:00</time>
      </trkpt>
      <trkpt lat="49.44204" lon="6.35761">
        <ele>143.90039</ele>
        <time>2026-05-20T08:26:51+02:00</time>
      </trkpt>
      <trkpt lat="49.44203" lon="6.35762">
        <ele>143.90039</ele>
        <time>2026-05-20T08:26:52+02:00</time>
      </trkpt>
      <trkpt lat="49.44201" lon="6.35764">
        <ele>144.5</ele>
        <time>2026-05-20T08:26:53+02:00</time>
      </trkpt>
      <trkpt lat="49.442" lon="6.35766">
        <ele>144.90039</ele>
        <time>2026-05-20T08:26:54+02:00</time>
      </trkpt>
      <trkpt lat="49.44198" lon="6.35767">
        <ele>144.90039</ele>
        <time>2026-05-20T08:26:55+02:00</time>
      </trkpt>
      <trkpt lat="49.44197" lon="6.35768">
        <ele>144.90039</ele>
        <time>2026-05-20T08:26:56+02:00</time>
      </trkpt>
      <trkpt lat="49.44195" lon="6.35769">
        <ele>145.5</ele>
        <time>2026-05-20T08:26:57+02:00</time>
      </trkpt>
      <trkpt lat="49.44192" lon="6.35769">
        <ele>145.5</ele>
        <time>2026-05-20T08:26:58+02:00</time>
      </trkpt>
      <trkpt lat="49.4419" lon="6.35771">
        <ele>146.10059</ele>
        <time>2026-05-20T08:26:59+02:00</time>
      </trkpt>
      <trkpt lat="49.44187" lon="6.35772">
        <ele>146.10059</ele>
        <time>2026-05-20T08:27:00+02:00</time>
      </trkpt>
      <trkpt lat="49.44185" lon="6.35773">
        <ele>146.10059</ele>
        <time>2026-05-20T08:27:01+02:00</time>
      </trkpt>
      <trkpt lat="49.44182" lon="6.35774">
        <ele>147.5</ele>
        <time>2026-05-20T08:27:02+02:00</time>
      </trkpt>
      <trkpt lat="49.44179" lon="6.35775">
        <ele>147.5</ele>
        <time>2026-05-20T08:27:03+02:00</time>
      </trkpt>
      <trkpt lat="49.44175" lon="6.35776">
        <ele>148.40039</ele>
        <time>2026-05-20T08:27:04+02:00</time>
      </trkpt>
      <trkpt lat="49.44173" lon="6.35777">
        <ele>151.10059</ele>
        <time>2026-05-20T08:27:05+02:00</time>
      </trkpt>
      <trkpt lat="49.44171" lon="6.35778">
        <ele>151.10059</ele>
        <time>2026-05-20T08:27:06+02:00</time>
      </trkpt>
      <trkpt lat="49.4417" lon="6.3578">
        <ele>151.10059</ele>
        <time>2026-05-20T08:27:07+02:00</time>
      </trkpt>
      <trkpt lat="49.44169" lon="6.35782">
        <ele>151.10059</ele>
        <time>2026-05-20T08:27:08+02:00</time>
      </trkpt>
      <trkpt lat="49.44167" lon="6.35784">
        <ele>155.40039</ele>
        <time>2026-05-20T08:27:09+02:00</time>
      </trkpt>
      <trkpt lat="49.44165" lon="6.35787">
        <ele>155.40039</ele>
        <time>2026-05-20T08:27:10+02:00</time>
      </trkpt>
      <trkpt lat="49.44165" lon="6.35791">
        <ele>156.2998</ele>
        <time>2026-05-20T08:27:11+02:00</time>
      </trkpt>
      <trkpt lat="49.44166" lon="6.35796">
        <ele>156.2998</ele>
        <time>2026-05-20T08:27:12+02:00</time>
      </trkpt>
      <trkpt lat="49.44167" lon="6.35801">
        <ele>156.90039</ele>
        <time>2026-05-20T08:27:13+02:00</time>
      </trkpt>
      <trkpt lat="49.44169" lon="6.35806">
        <ele>155.7998</ele>
        <time>2026-05-20T08:27:14+02:00</time>
      </trkpt>
      <trkpt lat="49.44171" lon="6.35811">
        <ele>156.10059</ele>
        <time>2026-05-20T08:27:15+02:00</time>
      </trkpt>
      <trkpt lat="49.44172" lon="6.35816">
        <ele>156.10059</ele>
        <time>2026-05-20T08:27:16+02:00</time>
      </trkpt>
      <trkpt lat="49.44174" lon="6.35821">
        <ele>154.90039</ele>
        <time>2026-05-20T08:27:17+02:00</time>
      </trkpt>
      <trkpt lat="49.44177" lon="6.35826">
        <ele>154.2002</ele>
        <time>2026-05-20T08:27:18+02:00</time>
      </trkpt>
      <trkpt lat="49.44179" lon="6.35831">
        <ele>152.90039</ele>
        <time>2026-05-20T08:27:19+02:00</time>
      </trkpt>
      <trkpt lat="49.44181" lon="6.35836">
        <ele>152.2998</ele>
        <time>2026-05-20T08:27:20+02:00</time>
      </trkpt>
      <trkpt lat="49.44182" lon="6.35841">
        <ele>152.2998</ele>
        <time>2026-05-20T08:27:21+02:00</time>
      </trkpt>
      <trkpt lat="49.44184" lon="6.35847">
        <ele>152.2002</ele>
        <time>2026-05-20T08:27:22+02:00</time>
      </trkpt>
      <trkpt lat="49.44186" lon="6.35852">
        <ele>151</ele>
        <time>2026-05-20T08:27:23+02:00</time>
      </trkpt>
      <trkpt lat="49.44187" lon="6.35856">
        <ele>151</ele>
        <time>2026-05-20T08:27:24+02:00</time>
      </trkpt>
      <trkpt lat="49.44188" lon="6.3586">
        <ele>151.10059</ele>
        <time>2026-05-20T08:27:25+02:00</time>
      </trkpt>
      <trkpt lat="49.4419" lon="6.35863">
        <ele>151.10059</ele>
        <time>2026-05-20T08:27:26+02:00</time>
      </trkpt>
      <trkpt lat="49.44192" lon="6.35866">
        <ele>150.10059</ele>
        <time>2026-05-20T08:27:27+02:00</time>
      </trkpt>
      <trkpt lat="49.44194" lon="6.35869">
        <ele>150.2998</ele>
        <time>2026-05-20T08:27:28+02:00</time>
      </trkpt>
      <trkpt lat="49.44196" lon="6.35873">
        <ele>149.2998</ele>
        <time>2026-05-20T08:27:29+02:00</time>
      </trkpt>
      <trkpt lat="49.44198" lon="6.35877">
        <ele>149.60059</ele>
        <time>2026-05-20T08:27:30+02:00</time>
      </trkpt>
      <trkpt lat="49.44201" lon="6.35882">
        <ele>149.60059</ele>
        <time>2026-05-20T08:27:31+02:00</time>
      </trkpt>
      <trkpt lat="49.44203" lon="6.35887">
        <ele>149</ele>
        <time>2026-05-20T08:27:32+02:00</time>
      </trkpt>
      <trkpt lat="49.44206" lon="6.35891">
        <ele>149</ele>
        <time>2026-05-20T08:27:33+02:00</time>
      </trkpt>
      <trkpt lat="49.44208" lon="6.35896">
        <ele>148.2998</ele>
        <time>2026-05-20T08:27:34+02:00</time>
      </trkpt>
      <trkpt lat="49.44211" lon="6.35901">
        <ele>148.2998</ele>
        <time>2026-05-20T08:27:35+02:00</time>
      </trkpt>
      <trkpt lat="49.44213" lon="6.35906">
        <ele>147.7002</ele>
        <time>2026-05-20T08:27:36+02:00</time>
      </trkpt>
      <trkpt lat="49.44216" lon="6.3591">
        <ele>147.7002</ele>
        <time>2026-05-20T08:27:37+02:00</time>
      </trkpt>
      <trkpt lat="49.44218" lon="6.35915">
        <ele>147.2002</ele>
        <time>2026-05-20T08:27:38+02:00</time>
      </trkpt>
      <trkpt lat="49.44221" lon="6.3592">
        <ele>147.7002</ele>
        <time>2026-05-20T08:27:39+02:00</time>
      </trkpt>
      <trkpt lat="49.44224" lon="6.35925">
        <ele>146.7998</ele>
        <time>2026-05-20T08:27:40+02:00</time>
      </trkpt>
      <trkpt lat="49.44227" lon="6.3593">
        <ele>147.2998</ele>
        <time>2026-05-20T08:27:41+02:00</time>
      </trkpt>
      <trkpt lat="49.4423" lon="6.35935">
        <ele>146.10059</ele>
        <time>2026-05-20T08:27:42+02:00</time>
      </trkpt>
      <trkpt lat="49.44233" lon="6.35939">
        <ele>146.60059</ele>
        <time>2026-05-20T08:27:43+02:00</time>
      </trkpt>
      <trkpt lat="49.44235" lon="6.35943">
        <ele>145.10059</ele>
        <time>2026-05-20T08:27:44+02:00</time>
      </trkpt>
      <trkpt lat="49.44237" lon="6.35947">
        <ele>145.90039</ele>
        <time>2026-05-20T08:27:45+02:00</time>
      </trkpt>
      <trkpt lat="49.44239" lon="6.35951">
        <ele>145.90039</ele>
        <time>2026-05-20T08:27:46+02:00</time>
      </trkpt>
      <trkpt lat="49.4424" lon="6.35955">
        <ele>147.10059</ele>
        <time>2026-05-20T08:27:47+02:00</time>
      </trkpt>
      <trkpt lat="49.44239" lon="6.35959">
        <ele>147.10059</ele>
        <time>2026-05-20T08:27:48+02:00</time>
      </trkpt>
      <trkpt lat="49.44238" lon="6.35963">
        <ele>148.2002</ele>
        <time>2026-05-20T08:27:49+02:00</time>
      </trkpt>
      <trkpt lat="49.44235" lon="6.35967">
        <ele>148.2002</ele>
        <time>2026-05-20T08:27:50+02:00</time>
      </trkpt>
      <trkpt lat="49.44233" lon="6.3597">
        <ele>149</ele>
        <time>2026-05-20T08:27:51+02:00</time>
      </trkpt>
      <trkpt lat="49.44231" lon="6.35975">
        <ele>149.60059</ele>
        <time>2026-05-20T08:27:52+02:00</time>
      </trkpt>
      <trkpt lat="49.44232" lon="6.35979">
        <ele>149.60059</ele>
        <time>2026-05-20T08:27:53+02:00</time>
      </trkpt>
      <trkpt lat="49.44233" lon="6.35983">
        <ele>150.2002</ele>
        <time>2026-05-20T08:27:54+02:00</time>
      </trkpt>
      <trkpt lat="49.44234" lon="6.35987">
        <ele>150.2002</ele>
        <time>2026-05-20T08:27:55+02:00</time>
      </trkpt>
      <trkpt lat="49.44235" lon="6.35991">
        <ele>150.10059</ele>
        <time>2026-05-20T08:27:56+02:00</time>
      </trkpt>
      <trkpt lat="49.44236" lon="6.35994">
        <ele>150.10059</ele>
        <time>2026-05-20T08:27:57+02:00</time>
      </trkpt>
      <trkpt lat="49.44237" lon="6.35997">
        <ele>150.5</ele>
        <time>2026-05-20T08:27:58+02:00</time>
      </trkpt>
      <trkpt lat="49.44238" lon="6.36">
        <ele>150.5</ele>
        <time>2026-05-20T08:27:59+02:00</time>
      </trkpt>
      <trkpt lat="49.44238" lon="6.36004">
        <ele>150.5</ele>
        <time>2026-05-20T08:28:00+02:00</time>
      </trkpt>
      <trkpt lat="49.44239" lon="6.36007">
        <ele>150.7998</ele>
        <time>2026-05-20T08:28:01+02:00</time>
      </trkpt>
      <trkpt lat="49.4424" lon="6.36011">
        <ele>150.7998</ele>
        <time>2026-05-20T08:28:02+02:00</time>
      </trkpt>
      <trkpt lat="49.4424" lon="6.36015">
        <ele>151.10059</ele>
        <time>2026-05-20T08:28:03+02:00</time>
      </trkpt>
      <trkpt lat="49.4424" lon="6.36019">
        <ele>151.10059</ele>
        <time>2026-05-20T08:28:04+02:00</time>
      </trkpt>
      <trkpt lat="49.4424" lon="6.36022">
        <ele>151.10059</ele>
        <time>2026-05-20T08:28:05+02:00</time>
      </trkpt>
      <trkpt lat="49.44239" lon="6.36024">
        <ele>151.40039</ele>
        <time>2026-05-20T08:28:06+02:00</time>
      </trkpt>
      <trkpt lat="49.44238" lon="6.36025">
        <ele>151.40039</ele>
        <time>2026-05-20T08:28:07+02:00</time>
      </trkpt>
      <trkpt lat="49.44236" lon="6.36025">
        <ele>151.40039</ele>
        <time>2026-05-20T08:28:08+02:00</time>
      </trkpt>
      <trkpt lat="49.44234" lon="6.36026">
        <ele>151.7998</ele>
        <time>2026-05-20T08:28:09+02:00</time>
      </trkpt>
      <trkpt lat="49.44233" lon="6.36026">
        <ele>151.7998</ele>
        <time>2026-05-20T08:28:10+02:00</time>
      </trkpt>
      <trkpt lat="49.44231" lon="6.36027">
        <ele>151.7998</ele>
        <time>2026-05-20T08:28:11+02:00</time>
      </trkpt>
      <trkpt lat="49.44229" lon="6.36028">
        <ele>152.2998</ele>
        <time>2026-05-20T08:28:12+02:00</time>
      </trkpt>
      <trkpt lat="49.44228" lon="6.36028">
        <ele>152.2998</ele>
        <time>2026-05-20T08:28:13+02:00</time>
      </trkpt>
      <trkpt lat="49.44226" lon="6.36029">
        <ele>152.2998</ele>
        <time>2026-05-20T08:28:14+02:00</time>
      </trkpt>
      <trkpt lat="49.44225" lon="6.36029">
        <ele>152.2998</ele>
        <time>2026-05-20T08:28:15+02:00</time>
      </trkpt>
      <trkpt lat="49.44223" lon="6.36029">
        <ele>152.7002</ele>
        <time>2026-05-20T08:28:16+02:00</time>
      </trkpt>
      <trkpt lat="49.44222" lon="6.3603">
        <ele>152.7002</ele>
        <time>2026-05-20T08:28:17+02:00</time>
      </trkpt>
      <trkpt lat="49.44221" lon="6.36031">
        <ele>152.7002</ele>
        <time>2026-05-20T08:28:18+02:00</time>
      </trkpt>
      <trkpt lat="49.44221" lon="6.36032">
        <ele>152.90039</ele>
        <time>2026-05-20T08:28:19+02:00</time>
      </trkpt>
      <trkpt lat="49.44223" lon="6.36032">
        <ele>152.90039</ele>
        <time>2026-05-20T08:28:20+02:00</time>
      </trkpt>
      <trkpt lat="49.44225" lon="6.36031">
        <ele>152.2998</ele>
        <time>2026-05-20T08:28:21+02:00</time>
      </trkpt>
      <trkpt lat="49.44227" lon="6.36031">
        <ele>152.2998</ele>
        <time>2026-05-20T08:28:22+02:00</time>
      </trkpt>
      <trkpt lat="49.4423" lon="6.36031">
        <ele>151.7998</ele>
        <time>2026-05-20T08:28:23+02:00</time>
      </trkpt>
      <trkpt lat="49.44232" lon="6.3603">
        <ele>151.7998</ele>
        <time>2026-05-20T08:28:24+02:00</time>
      </trkpt>
      <trkpt lat="49.44235" lon="6.36029">
        <ele>151.40039</ele>
        <time>2026-05-20T08:28:25+02:00</time>
      </trkpt>
      <trkpt lat="49.44237" lon="6.36029">
        <ele>151.40039</ele>
        <time>2026-05-20T08:28:26+02:00</time>
      </trkpt>
      <trkpt lat="49.44239" lon="6.36032">
        <ele>151.7998</ele>
        <time>2026-05-20T08:28:27+02:00</time>
      </trkpt>
      <trkpt lat="49.44241" lon="6.36035">
        <ele>151.40039</ele>
        <time>2026-05-20T08:28:28+02:00</time>
      </trkpt>
      <trkpt lat="49.44243" lon="6.36039">
        <ele>151.40039</ele>
        <time>2026-05-20T08:28:29+02:00</time>
      </trkpt>
      <trkpt lat="49.44245" lon="6.36042">
        <ele>151.7002</ele>
        <time>2026-05-20T08:28:30+02:00</time>
      </trkpt>
      <trkpt lat="49.44248" lon="6.36045">
        <ele>151.40039</ele>
        <time>2026-05-20T08:28:31+02:00</time>
      </trkpt>
      <trkpt lat="49.4425" lon="6.36049">
        <ele>151.7002</ele>
        <time>2026-05-20T08:28:32+02:00</time>
      </trkpt>
      <trkpt lat="49.44252" lon="6.36052">
        <ele>151.40039</ele>
        <time>2026-05-20T08:28:33+02:00</time>
      </trkpt>
      <trkpt lat="49.44254" lon="6.36056">
        <ele>151.40039</ele>
        <time>2026-05-20T08:28:34+02:00</time>
      </trkpt>
      <trkpt lat="49.44256" lon="6.36059">
        <ele>151.7998</ele>
        <time>2026-05-20T08:28:35+02:00</time>
      </trkpt>
      <trkpt lat="49.44257" lon="6.36063">
        <ele>151.7998</ele>
        <time>2026-05-20T08:28:36+02:00</time>
      </trkpt>
      <trkpt lat="49.44258" lon="6.36067">
        <ele>151.90039</ele>
        <time>2026-05-20T08:28:37+02:00</time>
      </trkpt>
      <trkpt lat="49.44259" lon="6.36071">
        <ele>151.90039</ele>
        <time>2026-05-20T08:28:38+02:00</time>
      </trkpt>
      <trkpt lat="49.4426" lon="6.36074">
        <ele>151.90039</ele>
        <time>2026-05-20T08:28:39+02:00</time>
      </trkpt>
      <trkpt lat="49.44261" lon="6.36078">
        <ele>152.40039</ele>
        <time>2026-05-20T08:28:40+02:00</time>
      </trkpt>
      <trkpt lat="49.44261" lon="6.36082">
        <ele>152.40039</ele>
        <time>2026-05-20T08:28:41+02:00</time>
      </trkpt>
      <trkpt lat="49.44262" lon="6.36086">
        <ele>153</ele>
        <time>2026-05-20T08:28:42+02:00</time>
      </trkpt>
      <trkpt lat="49.44262" lon="6.36091">
        <ele>153</ele>
        <time>2026-05-20T08:28:43+02:00</time>
      </trkpt>
      <trkpt lat="49.44263" lon="6.36095">
        <ele>153.2998</ele>
        <time>2026-05-20T08:28:44+02:00</time>
      </trkpt>
      <trkpt lat="49.44264" lon="6.36099">
        <ele>153.2998</ele>
        <time>2026-05-20T08:28:45+02:00</time>
      </trkpt>
      <trkpt lat="49.44264" lon="6.36104">
        <ele>153.90039</ele>
        <time>2026-05-20T08:28:46+02:00</time>
      </trkpt>
      <trkpt lat="49.44265" lon="6.36109">
        <ele>154.60059</ele>
        <time>2026-05-20T08:28:47+02:00</time>
      </trkpt>
      <trkpt lat="49.44266" lon="6.36113">
        <ele>154.60059</ele>
        <time>2026-05-20T08:28:48+02:00</time>
      </trkpt>
      <trkpt lat="49.44267" lon="6.36118">
        <ele>155.2998</ele>
        <time>2026-05-20T08:28:49+02:00</time>
      </trkpt>
      <trkpt lat="49.44269" lon="6.36122">
        <ele>154.90039</ele>
        <time>2026-05-20T08:28:50+02:00</time>
      </trkpt>
      <trkpt lat="49.4427" lon="6.36127">
        <ele>155.5</ele>
        <time>2026-05-20T08:28:51+02:00</time>
      </trkpt>
      <trkpt lat="49.44271" lon="6.36132">
        <ele>155.5</ele>
        <time>2026-05-20T08:28:52+02:00</time>
      </trkpt>
      <trkpt lat="49.44272" lon="6.36137">
        <ele>156.2002</ele>
        <time>2026-05-20T08:28:53+02:00</time>
      </trkpt>
      <trkpt lat="49.44272" lon="6.36141">
        <ele>156.2002</ele>
        <time>2026-05-20T08:28:54+02:00</time>
      </trkpt>
      <trkpt lat="49.44273" lon="6.36146">
        <ele>156.7998</ele>
        <time>2026-05-20T08:28:55+02:00</time>
      </trkpt>
      <trkpt lat="49.44274" lon="6.36151">
        <ele>156.40039</ele>
        <time>2026-05-20T08:28:56+02:00</time>
      </trkpt>
      <trkpt lat="49.44275" lon="6.36156">
        <ele>157</ele>
        <time>2026-05-20T08:28:57+02:00</time>
      </trkpt>
      <trkpt lat="49.44277" lon="6.3616">
        <ele>157.60059</ele>
        <time>2026-05-20T08:28:58+02:00</time>
      </trkpt>
      <trkpt lat="49.44278" lon="6.36164">
        <ele>157.60059</ele>
        <time>2026-05-20T08:28:59+02:00</time>
      </trkpt>
      <trkpt lat="49.4428" lon="6.36168">
        <ele>157.2002</ele>
        <time>2026-05-20T08:29:00+02:00</time>
      </trkpt>
      <trkpt lat="49.44282" lon="6.36172">
        <ele>157.7998</ele>
        <time>2026-05-20T08:29:01+02:00</time>
      </trkpt>
      <trkpt lat="49.44283" lon="6.36176">
        <ele>157.7998</ele>
        <time>2026-05-20T08:29:02+02:00</time>
      </trkpt>
      <trkpt lat="49.44285" lon="6.3618">
        <ele>158.2998</ele>
        <time>2026-05-20T08:29:03+02:00</time>
      </trkpt>
      <trkpt lat="49.44286" lon="6.36184">
        <ele>157.90039</ele>
        <time>2026-05-20T08:29:04+02:00</time>
      </trkpt>
      <trkpt lat="49.44289" lon="6.36189">
        <ele>158.5</ele>
        <time>2026-05-20T08:29:05+02:00</time>
      </trkpt>
      <trkpt lat="49.4429" lon="6.36194">
        <ele>158.5</ele>
        <time>2026-05-20T08:29:06+02:00</time>
      </trkpt>
      <trkpt lat="49.44292" lon="6.36198">
        <ele>158.60059</ele>
        <time>2026-05-20T08:29:07+02:00</time>
      </trkpt>
      <trkpt lat="49.44294" lon="6.36203">
        <ele>159.10059</ele>
        <time>2026-05-20T08:29:08+02:00</time>
      </trkpt>
      <trkpt lat="49.44295" lon="6.36207">
        <ele>159.10059</ele>
        <time>2026-05-20T08:29:09+02:00</time>
      </trkpt>
      <trkpt lat="49.44297" lon="6.36211">
        <ele>158.7002</ele>
        <time>2026-05-20T08:29:10+02:00</time>
      </trkpt>
      <trkpt lat="49.44299" lon="6.36214">
        <ele>159.10059</ele>
        <time>2026-05-20T08:29:11+02:00</time>
      </trkpt>
      <trkpt lat="49.443" lon="6.36218">
        <ele>159.10059</ele>
        <time>2026-05-20T08:29:12+02:00</time>
      </trkpt>
      <trkpt lat="49.44302" lon="6.36222">
        <ele>158.7998</ele>
        <time>2026-05-20T08:29:13+02:00</time>
      </trkpt>
      <trkpt lat="49.44305" lon="6.36226">
        <ele>158.7998</ele>
        <time>2026-05-20T08:29:14+02:00</time>
      </trkpt>
      <trkpt lat="49.44307" lon="6.36229">
        <ele>158.7998</ele>
        <time>2026-05-20T08:29:15+02:00</time>
      </trkpt>
      <trkpt lat="49.4431" lon="6.36232">
        <ele>158.2998</ele>
        <time>2026-05-20T08:29:16+02:00</time>
      </trkpt>
      <trkpt lat="49.44312" lon="6.36236">
        <ele>158.2998</ele>
        <time>2026-05-20T08:29:17+02:00</time>
      </trkpt>
      <trkpt lat="49.44314" lon="6.3624">
        <ele>157.90039</ele>
        <time>2026-05-20T08:29:18+02:00</time>
      </trkpt>
      <trkpt lat="49.44317" lon="6.36242">
        <ele>157.90039</ele>
        <time>2026-05-20T08:29:19+02:00</time>
      </trkpt>
      <trkpt lat="49.4432" lon="6.36244">
        <ele>157.5</ele>
        <time>2026-05-20T08:29:20+02:00</time>
      </trkpt>
      <trkpt lat="49.44323" lon="6.36246">
        <ele>157.7998</ele>
        <time>2026-05-20T08:29:21+02:00</time>
      </trkpt>
      <trkpt lat="49.44326" lon="6.36248">
        <ele>157.40039</ele>
        <time>2026-05-20T08:29:22+02:00</time>
      </trkpt>
      <trkpt lat="49.44329" lon="6.3625">
        <ele>157.40039</ele>
        <time>2026-05-20T08:29:23+02:00</time>
      </trkpt>
      <trkpt lat="49.44331" lon="6.36252">
        <ele>156.90039</ele>
        <time>2026-05-20T08:29:24+02:00</time>
      </trkpt>
      <trkpt lat="49.44334" lon="6.36253">
        <ele>156.90039</ele>
        <time>2026-05-20T08:29:25+02:00</time>
      </trkpt>
      <trkpt lat="49.44337" lon="6.36255">
        <ele>156.90039</ele>
        <time>2026-05-20T08:29:26+02:00</time>
      </trkpt>
      <trkpt lat="49.44339" lon="6.36256">
        <ele>156.90039</ele>
        <time>2026-05-20T08:29:27+02:00</time>
      </trkpt>
      <trkpt lat="49.4434" lon="6.36256">
        <ele>156.90039</ele>
        <time>2026-05-20T08:29:28+02:00</time>
      </trkpt>
      <trkpt lat="49.44341" lon="6.36256">
        <ele>156.40039</ele>
        <time>2026-05-20T08:29:29+02:00</time>
      </trkpt>
      <trkpt lat="49.44342" lon="6.36256">
        <ele>156.40039</ele>
        <time>2026-05-20T08:29:30+02:00</time>
      </trkpt>
      <trkpt lat="49.44342" lon="6.36256">
        <ele>156.40039</ele>
        <time>2026-05-20T08:29:31+02:00</time>
      </trkpt>
      <trkpt lat="49.44342" lon="6.36256">
        <ele>156.40039</ele>
        <time>2026-05-20T08:29:32+02:00</time>
      </trkpt>
      <trkpt lat="49.44333" lon="6.36254">
        <ele>156.90039</ele>
        <time>2026-05-20T08:31:18+02:00</time>
      </trkpt>
      <trkpt lat="49.4433" lon="6.36251">
        <ele>156.90039</ele>
        <time>2026-05-20T08:31:19+02:00</time>
      </trkpt>
      <trkpt lat="49.44328" lon="6.36249">
        <ele>157.40039</ele>
        <time>2026-05-20T08:31:20+02:00</time>
      </trkpt>
      <trkpt lat="49.44325" lon="6.36246">
        <ele>157.40039</ele>
        <time>2026-05-20T08:31:21+02:00</time>
      </trkpt>
      <trkpt lat="49.44322" lon="6.36244">
        <ele>157.5</ele>
        <time>2026-05-20T08:31:22+02:00</time>
      </trkpt>
      <trkpt lat="49.44319" lon="6.36241">
        <ele>157.5</ele>
        <time>2026-05-20T08:31:23+02:00</time>
      </trkpt>
      <trkpt lat="49.44317" lon="6.36238">
        <ele>157.90039</ele>
        <time>2026-05-20T08:31:24+02:00</time>
      </trkpt>
      <trkpt lat="49.44314" lon="6.36235">
        <ele>157.7002</ele>
        <time>2026-05-20T08:31:25+02:00</time>
      </trkpt>
      <trkpt lat="49.44311" lon="6.36232">
        <ele>158.2998</ele>
        <time>2026-05-20T08:31:26+02:00</time>
      </trkpt>
      <trkpt lat="49.44308" lon="6.36229">
        <ele>158.2998</ele>
        <time>2026-05-20T08:31:27+02:00</time>
      </trkpt>
      <trkpt lat="49.44306" lon="6.36226">
        <ele>158.7998</ele>
        <time>2026-05-20T08:31:28+02:00</time>
      </trkpt>
      <trkpt lat="49.44303" lon="6.36223">
        <ele>158.7998</ele>
        <time>2026-05-20T08:31:29+02:00</time>
      </trkpt>
      <trkpt lat="49.44301" lon="6.3622">
        <ele>159.2998</ele>
        <time>2026-05-20T08:31:30+02:00</time>
      </trkpt>
      <trkpt lat="49.44299" lon="6.36216">
        <ele>159.10059</ele>
        <time>2026-05-20T08:31:31+02:00</time>
      </trkpt>
      <trkpt lat="49.44297" lon="6.36213">
        <ele>159.10059</ele>
        <time>2026-05-20T08:31:32+02:00</time>
      </trkpt>
      <trkpt lat="49.44295" lon="6.36208">
        <ele>159.10059</ele>
        <time>2026-05-20T08:31:33+02:00</time>
      </trkpt>
      <trkpt lat="49.44293" lon="6.36203">
        <ele>159.10059</ele>
        <time>2026-05-20T08:31:34+02:00</time>
      </trkpt>
      <trkpt lat="49.44291" lon="6.36199">
        <ele>158.60059</ele>
        <time>2026-05-20T08:31:35+02:00</time>
      </trkpt>
      <trkpt lat="49.44289" lon="6.36194">
        <ele>158.5</ele>
        <time>2026-05-20T08:31:36+02:00</time>
      </trkpt>
      <trkpt lat="49.44287" lon="6.3619">
        <ele>158.5</ele>
        <time>2026-05-20T08:31:37+02:00</time>
      </trkpt>
      <trkpt lat="49.44285" lon="6.36185">
        <ele>158.2998</ele>
        <time>2026-05-20T08:31:38+02:00</time>
      </trkpt>
      <trkpt lat="49.44283" lon="6.36181">
        <ele>158.2998</ele>
        <time>2026-05-20T08:31:39+02:00</time>
      </trkpt>
      <trkpt lat="49.44281" lon="6.36175">
        <ele>157.7998</ele>
        <time>2026-05-20T08:31:40+02:00</time>
      </trkpt>
      <trkpt lat="49.44278" lon="6.3617">
        <ele>158.2002</ele>
        <time>2026-05-20T08:31:41+02:00</time>
      </trkpt>
      <trkpt lat="49.44276" lon="6.36165">
        <ele>157.60059</ele>
        <time>2026-05-20T08:31:42+02:00</time>
      </trkpt>
      <trkpt lat="49.44275" lon="6.36157">
        <ele>157</ele>
        <time>2026-05-20T08:31:43+02:00</time>
      </trkpt>
      <trkpt lat="49.44274" lon="6.3615">
        <ele>156.40039</ele>
        <time>2026-05-20T08:31:44+02:00</time>
      </trkpt>
      <trkpt lat="49.44272" lon="6.36143">
        <ele>156.7998</ele>
        <time>2026-05-20T08:31:45+02:00</time>
      </trkpt>
      <trkpt lat="49.4427" lon="6.36137">
        <ele>156.2002</ele>
        <time>2026-05-20T08:31:46+02:00</time>
      </trkpt>
      <trkpt lat="49.44269" lon="6.36131">
        <ele>155.5</ele>
        <time>2026-05-20T08:31:47+02:00</time>
      </trkpt>
      <trkpt lat="49.44267" lon="6.36124">
        <ele>155.2998</ele>
        <time>2026-05-20T08:31:48+02:00</time>
      </trkpt>
      <trkpt lat="49.44267" lon="6.36118">
        <ele>155.2998</ele>
        <time>2026-05-20T08:31:49+02:00</time>
      </trkpt>
      <trkpt lat="49.44266" lon="6.36112">
        <ele>154.60059</ele>
        <time>2026-05-20T08:31:50+02:00</time>
      </trkpt>
      <trkpt lat="49.44265" lon="6.36106">
        <ele>153.90039</ele>
        <time>2026-05-20T08:31:51+02:00</time>
      </trkpt>
      <trkpt lat="49.44264" lon="6.36101">
        <ele>153.90039</ele>
        <time>2026-05-20T08:31:52+02:00</time>
      </trkpt>
      <trkpt lat="49.44264" lon="6.36097">
        <ele>153.2998</ele>
        <time>2026-05-20T08:31:53+02:00</time>
      </trkpt>
      <trkpt lat="49.44262" lon="6.36092">
        <ele>153.60059</ele>
        <time>2026-05-20T08:31:54+02:00</time>
      </trkpt>
      <trkpt lat="49.44262" lon="6.36087">
        <ele>153</ele>
        <time>2026-05-20T08:31:55+02:00</time>
      </trkpt>
      <trkpt lat="49.44261" lon="6.36082">
        <ele>152.40039</ele>
        <time>2026-05-20T08:31:56+02:00</time>
      </trkpt>
      <trkpt lat="49.4426" lon="6.36077">
        <ele>152.40039</ele>
        <time>2026-05-20T08:31:57+02:00</time>
      </trkpt>
      <trkpt lat="49.44258" lon="6.36072">
        <ele>151.90039</ele>
        <time>2026-05-20T08:31:58+02:00</time>
      </trkpt>
      <trkpt lat="49.44256" lon="6.36067">
        <ele>152.2002</ele>
        <time>2026-05-20T08:31:59+02:00</time>
      </trkpt>
      <trkpt lat="49.44254" lon="6.36063">
        <ele>151.7998</ele>
        <time>2026-05-20T08:32:00+02:00</time>
      </trkpt>
      <trkpt lat="49.44252" lon="6.36058">
        <ele>151.7998</ele>
        <time>2026-05-20T08:32:01+02:00</time>
      </trkpt>
      <trkpt lat="49.4425" lon="6.36054">
        <ele>151.7002</ele>
        <time>2026-05-20T08:32:02+02:00</time>
      </trkpt>
      <trkpt lat="49.44249" lon="6.36049">
        <ele>151.7002</ele>
        <time>2026-05-20T08:32:03+02:00</time>
      </trkpt>
      <trkpt lat="49.44247" lon="6.36045">
        <ele>151.40039</ele>
        <time>2026-05-20T08:32:04+02:00</time>
      </trkpt>
      <trkpt lat="49.44246" lon="6.36041">
        <ele>151.40039</ele>
        <time>2026-05-20T08:32:05+02:00</time>
      </trkpt>
      <trkpt lat="49.44244" lon="6.36038">
        <ele>151.40039</ele>
        <time>2026-05-20T08:32:06+02:00</time>
      </trkpt>
      <trkpt lat="49.44243" lon="6.36035">
        <ele>151.40039</ele>
        <time>2026-05-20T08:32:07+02:00</time>
      </trkpt>
      <trkpt lat="49.44241" lon="6.36031">
        <ele>151.10059</ele>
        <time>2026-05-20T08:32:08+02:00</time>
      </trkpt>
      <trkpt lat="49.4424" lon="6.36028">
        <ele>151.40039</ele>
        <time>2026-05-20T08:32:09+02:00</time>
      </trkpt>
      <trkpt lat="49.4424" lon="6.36025">
        <ele>151.40039</ele>
        <time>2026-05-20T08:32:10+02:00</time>
      </trkpt>
      <trkpt lat="49.4424" lon="6.36022">
        <ele>151.10059</ele>
        <time>2026-05-20T08:32:11+02:00</time>
      </trkpt>
      <trkpt lat="49.4424" lon="6.3602">
        <ele>151.10059</ele>
        <time>2026-05-20T08:32:12+02:00</time>
      </trkpt>
      <trkpt lat="49.44241" lon="6.36018">
        <ele>150.7002</ele>
        <time>2026-05-20T08:32:13+02:00</time>
      </trkpt>
      <trkpt lat="49.44241" lon="6.36017">
        <ele>150.7002</ele>
        <time>2026-05-20T08:32:14+02:00</time>
      </trkpt>
      <trkpt lat="49.44243" lon="6.36016">
        <ele>150.7002</ele>
        <time>2026-05-20T08:32:15+02:00</time>
      </trkpt>
      <trkpt lat="49.44243" lon="6.36016">
        <ele>150.7002</ele>
        <time>2026-05-20T08:32:16+02:00</time>
      </trkpt>
      <trkpt lat="49.44247" lon="6.3599">
        <ele>149.10059</ele>
        <time>2026-05-20T09:03:04+02:00</time>
      </trkpt>
      <trkpt lat="49.44248" lon="6.35988">
        <ele>148.60059</ele>
        <time>2026-05-20T09:03:05+02:00</time>
      </trkpt>
      <trkpt lat="49.4425" lon="6.35986">
        <ele>148.60059</ele>
        <time>2026-05-20T09:03:06+02:00</time>
      </trkpt>
      <trkpt lat="49.44251" lon="6.35984">
        <ele>148.60059</ele>
        <time>2026-05-20T09:03:07+02:00</time>
      </trkpt>
      <trkpt lat="49.44252" lon="6.35983">
        <ele>147.90039</ele>
        <time>2026-05-20T09:03:08+02:00</time>
      </trkpt>
      <trkpt lat="49.44253" lon="6.35983">
        <ele>147.90039</ele>
        <time>2026-05-20T09:03:09+02:00</time>
      </trkpt>
      <trkpt lat="49.44254" lon="6.35982">
        <ele>147.90039</ele>
        <time>2026-05-20T09:03:10+02:00</time>
      </trkpt>
      <trkpt lat="49.44254" lon="6.35982">
        <ele>147.90039</ele>
        <time>2026-05-20T09:03:11+02:00</time>
      </trkpt>
      <trkpt lat="49.4427" lon="6.35989">
        <ele>147</ele>
        <time>2026-05-20T09:03:27+02:00</time>
      </trkpt>
      <trkpt lat="49.44271" lon="6.35991">
        <ele>147</ele>
        <time>2026-05-20T09:03:28+02:00</time>
      </trkpt>
      <trkpt lat="49.44273" lon="6.35993">
        <ele>147</ele>
        <time>2026-05-20T09:03:29+02:00</time>
      </trkpt>
      <trkpt lat="49.44273" lon="6.35995">
        <ele>147</ele>
        <time>2026-05-20T09:03:30+02:00</time>
      </trkpt>
      <trkpt lat="49.44275" lon="6.35997">
        <ele>147.60059</ele>
        <time>2026-05-20T09:03:31+02:00</time>
      </trkpt>
      <trkpt lat="49.44276" lon="6.35997">
        <ele>147.60059</ele>
        <time>2026-05-20T09:03:32+02:00</time>
      </trkpt>
      <trkpt lat="49.44277" lon="6.35996">
        <ele>146.40039</ele>
        <time>2026-05-20T09:03:33+02:00</time>
      </trkpt>
      <trkpt lat="49.44277" lon="6.35995">
        <ele>146.40039</ele>
        <time>2026-05-20T09:03:34+02:00</time>
      </trkpt>
      <trkpt lat="49.44278" lon="6.35993">
        <ele>146.40039</ele>
        <time>2026-05-20T09:03:35+02:00</time>
      </trkpt>
      <trkpt lat="49.44271" lon="6.35982">
        <ele>145.7002</ele>
        <time>2026-05-20T09:03:38+02:00</time>
      </trkpt>
      <trkpt lat="49.44268" lon="6.35979">
        <ele>145.2998</ele>
        <time>2026-05-20T09:03:39+02:00</time>
      </trkpt>
      <trkpt lat="49.44265" lon="6.35975">
        <ele>145.2998</ele>
        <time>2026-05-20T09:03:40+02:00</time>
      </trkpt>
      <trkpt lat="49.44263" lon="6.35972">
        <ele>145.2998</ele>
        <time>2026-05-20T09:03:41+02:00</time>
      </trkpt>
      <trkpt lat="49.4426" lon="6.35967">
        <ele>145.2002</ele>
        <time>2026-05-20T09:03:42+02:00</time>
      </trkpt>
      <trkpt lat="49.44257" lon="6.35963">
        <ele>145.90039</ele>
        <time>2026-05-20T09:03:43+02:00</time>
      </trkpt>
      <trkpt lat="49.44254" lon="6.35959">
        <ele>144.40039</ele>
        <time>2026-05-20T09:03:44+02:00</time>
      </trkpt>
      <trkpt lat="49.4425" lon="6.35954">
        <ele>145</ele>
        <time>2026-05-20T09:03:45+02:00</time>
      </trkpt>
      <trkpt lat="49.44248" lon="6.35949">
        <ele>143.2998</ele>
        <time>2026-05-20T09:03:46+02:00</time>
      </trkpt>
      <trkpt lat="49.44244" lon="6.35944">
        <ele>143.40039</ele>
        <time>2026-05-20T09:03:47+02:00</time>
      </trkpt>
      <trkpt lat="49.44232" lon="6.35924">
        <ele>145.7002</ele>
        <time>2026-05-20T09:03:48+02:00</time>
      </trkpt>
      <trkpt lat="49.44228" lon="6.35919">
        <ele>146.2998</ele>
        <time>2026-05-20T09:03:49+02:00</time>
      </trkpt>
      <trkpt lat="49.44225" lon="6.35913">
        <ele>146.2998</ele>
        <time>2026-05-20T09:03:50+02:00</time>
      </trkpt>
      <trkpt lat="49.44222" lon="6.35908">
        <ele>146.7002</ele>
        <time>2026-05-20T09:03:51+02:00</time>
      </trkpt>
      <trkpt lat="49.44218" lon="6.35903">
        <ele>146.7002</ele>
        <time>2026-05-20T09:03:52+02:00</time>
      </trkpt>
      <trkpt lat="49.44215" lon="6.35898">
        <ele>147.2002</ele>
        <time>2026-05-20T09:03:53+02:00</time>
      </trkpt>
      <trkpt lat="49.44211" lon="6.35892">
        <ele>147.90039</ele>
        <time>2026-05-20T09:03:54+02:00</time>
      </trkpt>
      <trkpt lat="49.44208" lon="6.35887">
        <ele>147.90039</ele>
        <time>2026-05-20T09:03:55+02:00</time>
      </trkpt>
      <trkpt lat="49.44205" lon="6.3588">
        <ele>148.7002</ele>
        <time>2026-05-20T09:03:56+02:00</time>
      </trkpt>
      <trkpt lat="49.44202" lon="6.35875">
        <ele>148.2998</ele>
        <time>2026-05-20T09:03:57+02:00</time>
      </trkpt>
      <trkpt lat="49.44199" lon="6.35869">
        <ele>149.2998</ele>
        <time>2026-05-20T09:03:58+02:00</time>
      </trkpt>
      <trkpt lat="49.44196" lon="6.35863">
        <ele>149</ele>
        <time>2026-05-20T09:03:59+02:00</time>
      </trkpt>
      <trkpt lat="49.44193" lon="6.35857">
        <ele>149.7998</ele>
        <time>2026-05-20T09:04:00+02:00</time>
      </trkpt>
      <trkpt lat="49.4419" lon="6.35851">
        <ele>151</ele>
        <time>2026-05-20T09:04:01+02:00</time>
      </trkpt>
      <trkpt lat="49.44187" lon="6.35845">
        <ele>150.90039</ele>
        <time>2026-05-20T09:04:02+02:00</time>
      </trkpt>
      <trkpt lat="49.44184" lon="6.35839">
        <ele>152.2998</ele>
        <time>2026-05-20T09:04:03+02:00</time>
      </trkpt>
      <trkpt lat="49.44182" lon="6.35833">
        <ele>152.90039</ele>
        <time>2026-05-20T09:04:04+02:00</time>
      </trkpt>
      <trkpt lat="49.44179" lon="6.35827">
        <ele>152.90039</ele>
        <time>2026-05-20T09:04:05+02:00</time>
      </trkpt>
      <trkpt lat="49.44176" lon="6.35821">
        <ele>154.90039</ele>
        <time>2026-05-20T09:04:06+02:00</time>
      </trkpt>
      <trkpt lat="49.44174" lon="6.35816">
        <ele>155.10059</ele>
        <time>2026-05-20T09:04:07+02:00</time>
      </trkpt>
      <trkpt lat="49.44172" lon="6.3581">
        <ele>156.10059</ele>
        <time>2026-05-20T09:04:08+02:00</time>
      </trkpt>
      <trkpt lat="49.4417" lon="6.35805">
        <ele>155.7998</ele>
        <time>2026-05-20T09:04:09+02:00</time>
      </trkpt>
      <trkpt lat="49.44169" lon="6.358">
        <ele>155.7998</ele>
        <time>2026-05-20T09:04:10+02:00</time>
      </trkpt>
      <trkpt lat="49.44167" lon="6.35795">
        <ele>156.2998</ele>
        <time>2026-05-20T09:04:11+02:00</time>
      </trkpt>
      <trkpt lat="49.44166" lon="6.3579">
        <ele>155.40039</ele>
        <time>2026-05-20T09:04:12+02:00</time>
      </trkpt>
      <trkpt lat="49.44166" lon="6.35784">
        <ele>155.40039</ele>
        <time>2026-05-20T09:04:13+02:00</time>
      </trkpt>
      <trkpt lat="49.44167" lon="6.3578">
        <ele>154.40039</ele>
        <time>2026-05-20T09:04:14+02:00</time>
      </trkpt>
      <trkpt lat="49.4417" lon="6.35778">
        <ele>151.10059</ele>
        <time>2026-05-20T09:04:15+02:00</time>
      </trkpt>
      <trkpt lat="49.44173" lon="6.35777">
        <ele>151.10059</ele>
        <time>2026-05-20T09:04:16+02:00</time>
      </trkpt>
      <trkpt lat="49.44177" lon="6.35775">
        <ele>148.40039</ele>
        <time>2026-05-20T09:04:17+02:00</time>
      </trkpt>
      <trkpt lat="49.4418" lon="6.35774">
        <ele>147.5</ele>
        <time>2026-05-20T09:04:18+02:00</time>
      </trkpt>
      <trkpt lat="49.44183" lon="6.35772">
        <ele>146.7002</ele>
        <time>2026-05-20T09:04:19+02:00</time>
      </trkpt>
      <trkpt lat="49.44187" lon="6.35769">
        <ele>146.10059</ele>
        <time>2026-05-20T09:04:20+02:00</time>
      </trkpt>
      <trkpt lat="49.4419" lon="6.35767">
        <ele>146.10059</ele>
        <time>2026-05-20T09:04:21+02:00</time>
      </trkpt>
      <trkpt lat="49.44193" lon="6.35765">
        <ele>145.10059</ele>
        <time>2026-05-20T09:04:22+02:00</time>
      </trkpt>
      <trkpt lat="49.44195" lon="6.35763">
        <ele>145.10059</ele>
        <time>2026-05-20T09:04:23+02:00</time>
      </trkpt>
      <trkpt lat="49.44197" lon="6.35761">
        <ele>144.5</ele>
        <time>2026-05-20T09:04:24+02:00</time>
      </trkpt>
      <trkpt lat="49.442" lon="6.35761">
        <ele>144.5</ele>
        <time>2026-05-20T09:04:25+02:00</time>
      </trkpt>
      <trkpt lat="49.44202" lon="6.3576">
        <ele>143.90039</ele>
        <time>2026-05-20T09:04:26+02:00</time>
      </trkpt>
      <trkpt lat="49.44203" lon="6.35757">
        <ele>143.90039</ele>
        <time>2026-05-20T09:04:27+02:00</time>
      </trkpt>
      <trkpt lat="49.44203" lon="6.35753">
        <ele>143.5</ele>
        <time>2026-05-20T09:04:28+02:00</time>
      </trkpt>
      <trkpt lat="49.44203" lon="6.35748">
        <ele>143.5</ele>
        <time>2026-05-20T09:04:29+02:00</time>
      </trkpt>
      <trkpt lat="49.44202" lon="6.35743">
        <ele>143.2002</ele>
        <time>2026-05-20T09:04:30+02:00</time>
      </trkpt>
      <trkpt lat="49.44202" lon="6.35738">
        <ele>143</ele>
        <time>2026-05-20T09:04:31+02:00</time>
      </trkpt>
      <trkpt lat="49.44201" lon="6.35732">
        <ele>143.5</ele>
        <time>2026-05-20T09:04:32+02:00</time>
      </trkpt>
      <trkpt lat="49.44201" lon="6.35726">
        <ele>143.5</ele>
        <time>2026-05-20T09:04:33+02:00</time>
      </trkpt>
      <trkpt lat="49.442" lon="6.35719">
        <ele>143.40039</ele>
        <time>2026-05-20T09:04:34+02:00</time>
      </trkpt>
      <trkpt lat="49.44199" lon="6.35713">
        <ele>143.40039</ele>
        <time>2026-05-20T09:04:35+02:00</time>
      </trkpt>
      <trkpt lat="49.44199" lon="6.35707">
        <ele>143.40039</ele>
        <time>2026-05-20T09:04:36+02:00</time>
      </trkpt>
      <trkpt lat="49.44198" lon="6.357">
        <ele>143.40039</ele>
        <time>2026-05-20T09:04:37+02:00</time>
      </trkpt>
      <trkpt lat="49.44198" lon="6.35694">
        <ele>143.2998</ele>
        <time>2026-05-20T09:04:38+02:00</time>
      </trkpt>
      <trkpt lat="49.44197" lon="6.35688">
        <ele>143.2998</ele>
        <time>2026-05-20T09:04:39+02:00</time>
      </trkpt>
      <trkpt lat="49.44197" lon="6.35682">
        <ele>143.2998</ele>
        <time>2026-05-20T09:04:40+02:00</time>
      </trkpt>
      <trkpt lat="49.44196" lon="6.35676">
        <ele>143.2998</ele>
        <time>2026-05-20T09:04:41+02:00</time>
      </trkpt>
      <trkpt lat="49.44196" lon="6.3567">
        <ele>143.2998</ele>
        <time>2026-05-20T09:04:42+02:00</time>
      </trkpt>
      <trkpt lat="49.44195" lon="6.35664">
        <ele>144</ele>
        <time>2026-05-20T09:04:43+02:00</time>
      </trkpt>
      <trkpt lat="49.44195" lon="6.35657">
        <ele>144</ele>
        <time>2026-05-20T09:04:44+02:00</time>
      </trkpt>
      <trkpt lat="49.44194" lon="6.35651">
        <ele>144</ele>
        <time>2026-05-20T09:04:45+02:00</time>
      </trkpt>
      <trkpt lat="49.44194" lon="6.35644">
        <ele>144</ele>
        <time>2026-05-20T09:04:46+02:00</time>
      </trkpt>
      <trkpt lat="49.44193" lon="6.35638">
        <ele>144</ele>
        <time>2026-05-20T09:04:47+02:00</time>
      </trkpt>
      <trkpt lat="49.44193" lon="6.35631">
        <ele>144</ele>
        <time>2026-05-20T09:04:48+02:00</time>
      </trkpt>
      <trkpt lat="49.44193" lon="6.35624">
        <ele>143.90039</ele>
        <time>2026-05-20T09:04:49+02:00</time>
      </trkpt>
      <trkpt lat="49.44193" lon="6.35618">
        <ele>143.90039</ele>
        <time>2026-05-20T09:04:50+02:00</time>
      </trkpt>
      <trkpt lat="49.44193" lon="6.35611">
        <ele>143.90039</ele>
        <time>2026-05-20T09:04:51+02:00</time>
      </trkpt>
      <trkpt lat="49.44193" lon="6.35604">
        <ele>143.90039</ele>
        <time>2026-05-20T09:04:52+02:00</time>
      </trkpt>
      <trkpt lat="49.44193" lon="6.35597">
        <ele>143.90039</ele>
        <time>2026-05-20T09:04:53+02:00</time>
      </trkpt>
      <trkpt lat="49.44193" lon="6.35591">
        <ele>143.7998</ele>
        <time>2026-05-20T09:04:54+02:00</time>
      </trkpt>
      <trkpt lat="49.44193" lon="6.35584">
        <ele>143.7998</ele>
        <time>2026-05-20T09:04:55+02:00</time>
      </trkpt>
      <trkpt lat="49.44194" lon="6.35577">
        <ele>143.7998</ele>
        <time>2026-05-20T09:04:56+02:00</time>
      </trkpt>
      <trkpt lat="49.44194" lon="6.3557">
        <ele>143.7998</ele>
        <time>2026-05-20T09:04:57+02:00</time>
      </trkpt>
      <trkpt lat="49.44194" lon="6.35564">
        <ele>143.7002</ele>
        <time>2026-05-20T09:04:58+02:00</time>
      </trkpt>
      <trkpt lat="49.44195" lon="6.35557">
        <ele>143.7002</ele>
        <time>2026-05-20T09:04:59+02:00</time>
      </trkpt>
      <trkpt lat="49.44195" lon="6.3555">
        <ele>143.7002</ele>
        <time>2026-05-20T09:05:00+02:00</time>
      </trkpt>
      <trkpt lat="49.44196" lon="6.35543">
        <ele>142.7998</ele>
        <time>2026-05-20T09:05:01+02:00</time>
      </trkpt>
      <trkpt lat="49.44196" lon="6.35537">
        <ele>142.7998</ele>
        <time>2026-05-20T09:05:02+02:00</time>
      </trkpt>
      <trkpt lat="49.44197" lon="6.3553">
        <ele>142.90039</ele>
        <time>2026-05-20T09:05:03+02:00</time>
      </trkpt>
      <trkpt lat="49.44197" lon="6.35524">
        <ele>142.90039</ele>
        <time>2026-05-20T09:05:04+02:00</time>
      </trkpt>
      <trkpt lat="49.44198" lon="6.35518">
        <ele>142.90039</ele>
        <time>2026-05-20T09:05:05+02:00</time>
      </trkpt>
      <trkpt lat="49.44198" lon="6.35513">
        <ele>142.90039</ele>
        <time>2026-05-20T09:05:06+02:00</time>
      </trkpt>
      <trkpt lat="49.44198" lon="6.35507">
        <ele>142.90039</ele>
        <time>2026-05-20T09:05:07+02:00</time>
      </trkpt>
      <trkpt lat="49.44199" lon="6.35502">
        <ele>142.90039</ele>
        <time>2026-05-20T09:05:08+02:00</time>
      </trkpt>
      <trkpt lat="49.442" lon="6.35498">
        <ele>142.90039</ele>
        <time>2026-05-20T09:05:09+02:00</time>
      </trkpt>
      <trkpt lat="49.44202" lon="6.35494">
        <ele>142.40039</ele>
        <time>2026-05-20T09:05:10+02:00</time>
      </trkpt>
      <trkpt lat="49.44204" lon="6.3549">
        <ele>142.40039</ele>
        <time>2026-05-20T09:05:11+02:00</time>
      </trkpt>
      <trkpt lat="49.44205" lon="6.35485">
        <ele>142.40039</ele>
        <time>2026-05-20T09:05:12+02:00</time>
      </trkpt>
      <trkpt lat="49.44206" lon="6.3548">
        <ele>142.40039</ele>
        <time>2026-05-20T09:05:13+02:00</time>
      </trkpt>
      <trkpt lat="49.44208" lon="6.35474">
        <ele>142.10059</ele>
        <time>2026-05-20T09:05:14+02:00</time>
      </trkpt>
      <trkpt lat="49.44209" lon="6.35468">
        <ele>142.10059</ele>
        <time>2026-05-20T09:05:15+02:00</time>
      </trkpt>
      <trkpt lat="49.4421" lon="6.35462">
        <ele>142.10059</ele>
        <time>2026-05-20T09:05:16+02:00</time>
      </trkpt>
      <trkpt lat="49.44212" lon="6.35456">
        <ele>142</ele>
        <time>2026-05-20T09:05:17+02:00</time>
      </trkpt>
      <trkpt lat="49.44213" lon="6.35449">
        <ele>141.90039</ele>
        <time>2026-05-20T09:05:18+02:00</time>
      </trkpt>
      <trkpt lat="49.44214" lon="6.35443">
        <ele>141.7998</ele>
        <time>2026-05-20T09:05:19+02:00</time>
      </trkpt>
      <trkpt lat="49.44215" lon="6.35436">
        <ele>141.7002</ele>
        <time>2026-05-20T09:05:20+02:00</time>
      </trkpt>
      <trkpt lat="49.44216" lon="6.3543">
        <ele>141.90039</ele>
        <time>2026-05-20T09:05:21+02:00</time>
      </trkpt>
      <trkpt lat="49.44217" lon="6.35423">
        <ele>141.90039</ele>
        <time>2026-05-20T09:05:22+02:00</time>
      </trkpt>
      <trkpt lat="49.44219" lon="6.35416">
        <ele>141.90039</ele>
        <time>2026-05-20T09:05:23+02:00</time>
      </trkpt>
      <trkpt lat="49.4422" lon="6.3541">
        <ele>142.10059</ele>
        <time>2026-05-20T09:05:24+02:00</time>
      </trkpt>
      <trkpt lat="49.44222" lon="6.35403">
        <ele>142.60059</ele>
        <time>2026-05-20T09:05:25+02:00</time>
      </trkpt>
      <trkpt lat="49.44224" lon="6.35396">
        <ele>142.40039</ele>
        <time>2026-05-20T09:05:26+02:00</time>
      </trkpt>
      <trkpt lat="49.44226" lon="6.3539">
        <ele>142.40039</ele>
        <time>2026-05-20T09:05:27+02:00</time>
      </trkpt>
      <trkpt lat="49.44228" lon="6.35384">
        <ele>142.7998</ele>
        <time>2026-05-20T09:05:28+02:00</time>
      </trkpt>
      <trkpt lat="49.4423" lon="6.35377">
        <ele>142.7002</ele>
        <time>2026-05-20T09:05:29+02:00</time>
      </trkpt>
      <trkpt lat="49.44232" lon="6.35371">
        <ele>142.7002</ele>
        <time>2026-05-20T09:05:30+02:00</time>
      </trkpt>
      <trkpt lat="49.44235" lon="6.35365">
        <ele>142.7002</ele>
        <time>2026-05-20T09:05:31+02:00</time>
      </trkpt>
      <trkpt lat="49.44237" lon="6.35359">
        <ele>143.5</ele>
        <time>2026-05-20T09:05:32+02:00</time>
      </trkpt>
      <trkpt lat="49.4424" lon="6.35353">
        <ele>144.10059</ele>
        <time>2026-05-20T09:05:33+02:00</time>
      </trkpt>
      <trkpt lat="49.44243" lon="6.35348">
        <ele>143.2002</ele>
        <time>2026-05-20T09:05:34+02:00</time>
      </trkpt>
      <trkpt lat="49.44246" lon="6.35342">
        <ele>143.2002</ele>
        <time>2026-05-20T09:05:35+02:00</time>
      </trkpt>
      <trkpt lat="49.44249" lon="6.35337">
        <ele>143.2002</ele>
        <time>2026-05-20T09:05:36+02:00</time>
      </trkpt>
      <trkpt lat="49.44252" lon="6.35332">
        <ele>143.40039</ele>
        <time>2026-05-20T09:05:37+02:00</time>
      </trkpt>
      <trkpt lat="49.44255" lon="6.35328">
        <ele>143.40039</ele>
        <time>2026-05-20T09:05:38+02:00</time>
      </trkpt>
      <trkpt lat="49.44258" lon="6.35323">
        <ele>143.5</ele>
        <time>2026-05-20T09:05:39+02:00</time>
      </trkpt>
      <trkpt lat="49.44261" lon="6.35317">
        <ele>144.10059</ele>
        <time>2026-05-20T09:05:40+02:00</time>
      </trkpt>
      <trkpt lat="49.44264" lon="6.35313">
        <ele>143.2002</ele>
        <time>2026-05-20T09:05:41+02:00</time>
      </trkpt>
      <trkpt lat="49.44267" lon="6.35308">
        <ele>143.90039</ele>
        <time>2026-05-20T09:05:42+02:00</time>
      </trkpt>
      <trkpt lat="49.4427" lon="6.35303">
        <ele>143.10059</ele>
        <time>2026-05-20T09:05:43+02:00</time>
      </trkpt>
      <trkpt lat="49.44274" lon="6.35298">
        <ele>143.40039</ele>
        <time>2026-05-20T09:05:44+02:00</time>
      </trkpt>
      <trkpt lat="49.44277" lon="6.35293">
        <ele>144.60059</ele>
        <time>2026-05-20T09:05:45+02:00</time>
      </trkpt>
      <trkpt lat="49.4428" lon="6.35288">
        <ele>143.60059</ele>
        <time>2026-05-20T09:05:46+02:00</time>
      </trkpt>
      <trkpt lat="49.44283" lon="6.35284">
        <ele>144.40039</ele>
        <time>2026-05-20T09:05:47+02:00</time>
      </trkpt>
      <trkpt lat="49.44287" lon="6.35279">
        <ele>143.2998</ele>
        <time>2026-05-20T09:05:48+02:00</time>
      </trkpt>
      <trkpt lat="49.4429" lon="6.35274">
        <ele>144</ele>
        <time>2026-05-20T09:05:49+02:00</time>
      </trkpt>
      <trkpt lat="49.44293" lon="6.35269">
        <ele>143</ele>
        <time>2026-05-20T09:05:50+02:00</time>
      </trkpt>
      <trkpt lat="49.44296" lon="6.35263">
        <ele>144.2002</ele>
        <time>2026-05-20T09:05:51+02:00</time>
      </trkpt>
      <trkpt lat="49.443" lon="6.35259">
        <ele>143.7002</ele>
        <time>2026-05-20T09:05:52+02:00</time>
      </trkpt>
      <trkpt lat="49.44303" lon="6.35254">
        <ele>144.5</ele>
        <time>2026-05-20T09:05:53+02:00</time>
      </trkpt>
      <trkpt lat="49.44307" lon="6.35249">
        <ele>145.60059</ele>
        <time>2026-05-20T09:05:54+02:00</time>
      </trkpt>
      <trkpt lat="49.4431" lon="6.35244">
        <ele>144.90039</ele>
        <time>2026-05-20T09:05:55+02:00</time>
      </trkpt>
      <trkpt lat="49.44314" lon="6.3524">
        <ele>145.10059</ele>
        <time>2026-05-20T09:05:56+02:00</time>
      </trkpt>
      <trkpt lat="49.44317" lon="6.35235">
        <ele>145.10059</ele>
        <time>2026-05-20T09:05:57+02:00</time>
      </trkpt>
      <trkpt lat="49.4432" lon="6.35231">
        <ele>145</ele>
        <time>2026-05-20T09:05:58+02:00</time>
      </trkpt>
      <trkpt lat="49.44323" lon="6.35227">
        <ele>145</ele>
        <time>2026-05-20T09:05:59+02:00</time>
      </trkpt>
      <trkpt lat="49.44327" lon="6.35222">
        <ele>145</ele>
        <time>2026-05-20T09:06:00+02:00</time>
      </trkpt>
      <trkpt lat="49.4433" lon="6.35218">
        <ele>144.2998</ele>
        <time>2026-05-20T09:06:01+02:00</time>
      </trkpt>
      <trkpt lat="49.44333" lon="6.35214">
        <ele>145</ele>
        <time>2026-05-20T09:06:02+02:00</time>
      </trkpt>
      <trkpt lat="49.44337" lon="6.35209">
        <ele>144.2998</ele>
        <time>2026-05-20T09:06:03+02:00</time>
      </trkpt>
      <trkpt lat="49.4434" lon="6.35205">
        <ele>144.90039</ele>
        <time>2026-05-20T09:06:04+02:00</time>
      </trkpt>
      <trkpt lat="49.44344" lon="6.352">
        <ele>144.10059</ele>
        <time>2026-05-20T09:06:05+02:00</time>
      </trkpt>
      <trkpt lat="49.44347" lon="6.35196">
        <ele>143.7998</ele>
        <time>2026-05-20T09:06:06+02:00</time>
      </trkpt>
      <trkpt lat="49.44351" lon="6.35191">
        <ele>143.7998</ele>
        <time>2026-05-20T09:06:07+02:00</time>
      </trkpt>
      <trkpt lat="49.44354" lon="6.35187">
        <ele>143.7998</ele>
        <time>2026-05-20T09:06:08+02:00</time>
      </trkpt>
      <trkpt lat="49.44358" lon="6.35183">
        <ele>143.2002</ele>
        <time>2026-05-20T09:06:09+02:00</time>
      </trkpt>
      <trkpt lat="49.44361" lon="6.35178">
        <ele>143.90039</ele>
        <time>2026-05-20T09:06:10+02:00</time>
      </trkpt>
      <trkpt lat="49.44365" lon="6.35173">
        <ele>143.2998</ele>
        <time>2026-05-20T09:06:11+02:00</time>
      </trkpt>
      <trkpt lat="49.44368" lon="6.35169">
        <ele>143.7998</ele>
        <time>2026-05-20T09:06:12+02:00</time>
      </trkpt>
      <trkpt lat="49.44372" lon="6.35164">
        <ele>143.60059</ele>
        <time>2026-05-20T09:06:13+02:00</time>
      </trkpt>
      <trkpt lat="49.44375" lon="6.35159">
        <ele>142.90039</ele>
        <time>2026-05-20T09:06:14+02:00</time>
      </trkpt>
      <trkpt lat="49.44379" lon="6.35154">
        <ele>143.5</ele>
        <time>2026-05-20T09:06:15+02:00</time>
      </trkpt>
      <trkpt lat="49.44383" lon="6.3515">
        <ele>143</ele>
        <time>2026-05-20T09:06:16+02:00</time>
      </trkpt>
      <trkpt lat="49.44386" lon="6.35145">
        <ele>143</ele>
        <time>2026-05-20T09:06:17+02:00</time>
      </trkpt>
      <trkpt lat="49.44389" lon="6.3514">
        <ele>143</ele>
        <time>2026-05-20T09:06:18+02:00</time>
      </trkpt>
      <trkpt lat="49.44392" lon="6.35135">
        <ele>142.7998</ele>
        <time>2026-05-20T09:06:19+02:00</time>
      </trkpt>
      <trkpt lat="49.44396" lon="6.3513">
        <ele>142.7998</ele>
        <time>2026-05-20T09:06:20+02:00</time>
      </trkpt>
      <trkpt lat="49.44399" lon="6.35125">
        <ele>142.60059</ele>
        <time>2026-05-20T09:06:21+02:00</time>
      </trkpt>
      <trkpt lat="49.44403" lon="6.3512">
        <ele>142.7002</ele>
        <time>2026-05-20T09:06:22+02:00</time>
      </trkpt>
      <trkpt lat="49.44407" lon="6.35115">
        <ele>142.7002</ele>
        <time>2026-05-20T09:06:23+02:00</time>
      </trkpt>
      <trkpt lat="49.4441" lon="6.35109">
        <ele>142.7998</ele>
        <time>2026-05-20T09:06:24+02:00</time>
      </trkpt>
      <trkpt lat="49.44413" lon="6.35104">
        <ele>143.40039</ele>
        <time>2026-05-20T09:06:25+02:00</time>
      </trkpt>
      <trkpt lat="49.44417" lon="6.35099">
        <ele>142.7002</ele>
        <time>2026-05-20T09:06:26+02:00</time>
      </trkpt>
      <trkpt lat="49.4442" lon="6.35093">
        <ele>142.5</ele>
        <time>2026-05-20T09:06:27+02:00</time>
      </trkpt>
      <trkpt lat="49.44423" lon="6.35087">
        <ele>142.5</ele>
        <time>2026-05-20T09:06:28+02:00</time>
      </trkpt>
      <trkpt lat="49.44427" lon="6.35082">
        <ele>142.90039</ele>
        <time>2026-05-20T09:06:29+02:00</time>
      </trkpt>
      <trkpt lat="49.4443" lon="6.35076">
        <ele>143.7002</ele>
        <time>2026-05-20T09:06:30+02:00</time>
      </trkpt>
      <trkpt lat="49.44433" lon="6.3507">
        <ele>143.7002</ele>
        <time>2026-05-20T09:06:31+02:00</time>
      </trkpt>
      <trkpt lat="49.44436" lon="6.35064">
        <ele>144.5</ele>
        <time>2026-05-20T09:06:32+02:00</time>
      </trkpt>
      <trkpt lat="49.44439" lon="6.35058">
        <ele>145.2998</ele>
        <time>2026-05-20T09:06:33+02:00</time>
      </trkpt>
      <trkpt lat="49.44442" lon="6.35052">
        <ele>145.60059</ele>
        <time>2026-05-20T09:06:34+02:00</time>
      </trkpt>
      <trkpt lat="49.44444" lon="6.35046">
        <ele>145.60059</ele>
        <time>2026-05-20T09:06:35+02:00</time>
      </trkpt>
      <trkpt lat="49.44447" lon="6.35039">
        <ele>145.7002</ele>
        <time>2026-05-20T09:06:36+02:00</time>
      </trkpt>
      <trkpt lat="49.44451" lon="6.35033">
        <ele>146.5</ele>
        <time>2026-05-20T09:06:37+02:00</time>
      </trkpt>
      <trkpt lat="49.44454" lon="6.35027">
        <ele>146</ele>
        <time>2026-05-20T09:06:38+02:00</time>
      </trkpt>
      <trkpt lat="49.44457" lon="6.35021">
        <ele>146.7998</ele>
        <time>2026-05-20T09:06:39+02:00</time>
      </trkpt>
      <trkpt lat="49.4446" lon="6.35016">
        <ele>147.2002</ele>
        <time>2026-05-20T09:06:40+02:00</time>
      </trkpt>
      <trkpt lat="49.44463" lon="6.3501">
        <ele>147.2002</ele>
        <time>2026-05-20T09:06:41+02:00</time>
      </trkpt>
      <trkpt lat="49.44465" lon="6.35004">
        <ele>147.7998</ele>
        <time>2026-05-20T09:06:42+02:00</time>
      </trkpt>
      <trkpt lat="49.44468" lon="6.34999">
        <ele>148.5</ele>
        <time>2026-05-20T09:06:43+02:00</time>
      </trkpt>
      <trkpt lat="49.4447" lon="6.34992">
        <ele>148.7002</ele>
        <time>2026-05-20T09:06:44+02:00</time>
      </trkpt>
      <trkpt lat="49.44473" lon="6.34986">
        <ele>148.7002</ele>
        <time>2026-05-20T09:06:45+02:00</time>
      </trkpt>
      <trkpt lat="49.44476" lon="6.34981">
        <ele>148.40039</ele>
        <time>2026-05-20T09:06:46+02:00</time>
      </trkpt>
      <trkpt lat="49.44478" lon="6.34974">
        <ele>148.60059</ele>
        <time>2026-05-20T09:06:47+02:00</time>
      </trkpt>
      <trkpt lat="49.44481" lon="6.34968">
        <ele>148.10059</ele>
        <time>2026-05-20T09:06:48+02:00</time>
      </trkpt>
      <trkpt lat="49.44484" lon="6.34962">
        <ele>148.40039</ele>
        <time>2026-05-20T09:06:49+02:00</time>
      </trkpt>
      <trkpt lat="49.44487" lon="6.34956">
        <ele>148.5</ele>
        <time>2026-05-20T09:06:50+02:00</time>
      </trkpt>
      <trkpt lat="49.44489" lon="6.3495">
        <ele>148.5</ele>
        <time>2026-05-20T09:06:51+02:00</time>
      </trkpt>
      <trkpt lat="49.44492" lon="6.34945">
        <ele>148.5</ele>
        <time>2026-05-20T09:06:52+02:00</time>
      </trkpt>
      <trkpt lat="49.44495" lon="6.34939">
        <ele>148.7002</ele>
        <time>2026-05-20T09:06:53+02:00</time>
      </trkpt>
      <trkpt lat="49.44497" lon="6.34933">
        <ele>148.7002</ele>
        <time>2026-05-20T09:06:54+02:00</time>
      </trkpt>
      <trkpt lat="49.445" lon="6.34928">
        <ele>148.7002</ele>
        <time>2026-05-20T09:06:55+02:00</time>
      </trkpt>
      <trkpt lat="49.44503" lon="6.34923">
        <ele>148.7998</ele>
        <time>2026-05-20T09:06:56+02:00</time>
      </trkpt>
      <trkpt lat="49.44505" lon="6.34917">
        <ele>148.7998</ele>
        <time>2026-05-20T09:06:57+02:00</time>
      </trkpt>
      <trkpt lat="49.44508" lon="6.34912">
        <ele>149.2002</ele>
        <time>2026-05-20T09:06:58+02:00</time>
      </trkpt>
      <trkpt lat="49.4451" lon="6.34906">
        <ele>149.40039</ele>
        <time>2026-05-20T09:06:59+02:00</time>
      </trkpt>
      <trkpt lat="49.44513" lon="6.34901">
        <ele>149.40039</ele>
        <time>2026-05-20T09:07:00+02:00</time>
      </trkpt>
      <trkpt lat="49.44516" lon="6.34895">
        <ele>149.60059</ele>
        <time>2026-05-20T09:07:01+02:00</time>
      </trkpt>
      <trkpt lat="49.44518" lon="6.3489">
        <ele>149.60059</ele>
        <time>2026-05-20T09:07:02+02:00</time>
      </trkpt>
      <trkpt lat="49.44521" lon="6.34884">
        <ele>149.7002</ele>
        <time>2026-05-20T09:07:03+02:00</time>
      </trkpt>
      <trkpt lat="49.44523" lon="6.34879">
        <ele>150.10059</ele>
        <time>2026-05-20T09:07:04+02:00</time>
      </trkpt>
      <trkpt lat="49.44526" lon="6.34873">
        <ele>149.90039</ele>
        <time>2026-05-20T09:07:05+02:00</time>
      </trkpt>
      <trkpt lat="49.44528" lon="6.34868">
        <ele>150.2998</ele>
        <time>2026-05-20T09:07:06+02:00</time>
      </trkpt>
      <trkpt lat="49.44531" lon="6.34863">
        <ele>150.60059</ele>
        <time>2026-05-20T09:07:07+02:00</time>
      </trkpt>
      <trkpt lat="49.44534" lon="6.34858">
        <ele>150.60059</ele>
        <time>2026-05-20T09:07:08+02:00</time>
      </trkpt>
      <trkpt lat="49.44536" lon="6.34852">
        <ele>151</ele>
        <time>2026-05-20T09:07:09+02:00</time>
      </trkpt>
      <trkpt lat="49.44539" lon="6.34848">
        <ele>150.7998</ele>
        <time>2026-05-20T09:07:10+02:00</time>
      </trkpt>
      <trkpt lat="49.44542" lon="6.34843">
        <ele>151</ele>
        <time>2026-05-20T09:07:11+02:00</time>
      </trkpt>
      <trkpt lat="49.44544" lon="6.34838">
        <ele>151.40039</ele>
        <time>2026-05-20T09:07:12+02:00</time>
      </trkpt>
      <trkpt lat="49.44547" lon="6.34834">
        <ele>151.40039</ele>
        <time>2026-05-20T09:07:13+02:00</time>
      </trkpt>
      <trkpt lat="49.4455" lon="6.34829">
        <ele>151.60059</ele>
        <time>2026-05-20T09:07:14+02:00</time>
      </trkpt>
      <trkpt lat="49.44553" lon="6.34823">
        <ele>151.40039</ele>
        <time>2026-05-20T09:07:15+02:00</time>
      </trkpt>
      <trkpt lat="49.44555" lon="6.34818">
        <ele>151.7002</ele>
        <time>2026-05-20T09:07:16+02:00</time>
      </trkpt>
      <trkpt lat="49.44558" lon="6.34813">
        <ele>151.7002</ele>
        <time>2026-05-20T09:07:17+02:00</time>
      </trkpt>
      <trkpt lat="49.44561" lon="6.34807">
        <ele>151.7998</ele>
        <time>2026-05-20T09:07:18+02:00</time>
      </trkpt>
      <trkpt lat="49.44564" lon="6.34802">
        <ele>151.90039</ele>
        <time>2026-05-20T09:07:19+02:00</time>
      </trkpt>
      <trkpt lat="49.44567" lon="6.34797">
        <ele>151.90039</ele>
        <time>2026-05-20T09:07:20+02:00</time>
      </trkpt>
      <trkpt lat="49.44569" lon="6.34792">
        <ele>152.10059</ele>
        <time>2026-05-20T09:07:21+02:00</time>
      </trkpt>
      <trkpt lat="49.44572" lon="6.34786">
        <ele>152.2002</ele>
        <time>2026-05-20T09:07:22+02:00</time>
      </trkpt>
      <trkpt lat="49.44574" lon="6.34781">
        <ele>152.2002</ele>
        <time>2026-05-20T09:07:23+02:00</time>
      </trkpt>
      <trkpt lat="49.44577" lon="6.34776">
        <ele>152.2002</ele>
        <time>2026-05-20T09:07:24+02:00</time>
      </trkpt>
      <trkpt lat="49.4458" lon="6.34771">
        <ele>152.2002</ele>
        <time>2026-05-20T09:07:25+02:00</time>
      </trkpt>
      <trkpt lat="49.44583" lon="6.34765">
        <ele>152.10059</ele>
        <time>2026-05-20T09:07:26+02:00</time>
      </trkpt>
      <trkpt lat="49.44586" lon="6.3476">
        <ele>152.40039</ele>
        <time>2026-05-20T09:07:27+02:00</time>
      </trkpt>
      <trkpt lat="49.44588" lon="6.34755">
        <ele>152.10059</ele>
        <time>2026-05-20T09:07:28+02:00</time>
      </trkpt>
      <trkpt lat="49.44591" lon="6.3475">
        <ele>152.2998</ele>
        <time>2026-05-20T09:07:29+02:00</time>
      </trkpt>
      <trkpt lat="49.44595" lon="6.34744">
        <ele>152.10059</ele>
        <time>2026-05-20T09:07:30+02:00</time>
      </trkpt>
      <trkpt lat="49.44598" lon="6.34739">
        <ele>152</ele>
        <time>2026-05-20T09:07:31+02:00</time>
      </trkpt>
      <trkpt lat="49.44602" lon="6.34733">
        <ele>152.2002</ele>
        <time>2026-05-20T09:07:32+02:00</time>
      </trkpt>
      <trkpt lat="49.44604" lon="6.34727">
        <ele>152</ele>
        <time>2026-05-20T09:07:33+02:00</time>
      </trkpt>
      <trkpt lat="49.44607" lon="6.34721">
        <ele>152.2002</ele>
        <time>2026-05-20T09:07:34+02:00</time>
      </trkpt>
      <trkpt lat="49.44611" lon="6.34716">
        <ele>152.10059</ele>
        <time>2026-05-20T09:07:35+02:00</time>
      </trkpt>
      <trkpt lat="49.44615" lon="6.3471">
        <ele>151.90039</ele>
        <time>2026-05-20T09:07:36+02:00</time>
      </trkpt>
      <trkpt lat="49.44618" lon="6.34705">
        <ele>152.10059</ele>
        <time>2026-05-20T09:07:37+02:00</time>
      </trkpt>
      <trkpt lat="49.44621" lon="6.347">
        <ele>152</ele>
        <time>2026-05-20T09:07:38+02:00</time>
      </trkpt>
      <trkpt lat="49.44624" lon="6.34694">
        <ele>152</ele>
        <time>2026-05-20T09:07:39+02:00</time>
      </trkpt>
      <trkpt lat="49.44627" lon="6.34689">
        <ele>151.7998</ele>
        <time>2026-05-20T09:07:40+02:00</time>
      </trkpt>
      <trkpt lat="49.44631" lon="6.34683">
        <ele>152.10059</ele>
        <time>2026-05-20T09:07:41+02:00</time>
      </trkpt>
      <trkpt lat="49.44634" lon="6.34677">
        <ele>151.7002</ele>
        <time>2026-05-20T09:07:42+02:00</time>
      </trkpt>
      <trkpt lat="49.44637" lon="6.34671">
        <ele>151.40039</ele>
        <time>2026-05-20T09:07:43+02:00</time>
      </trkpt>
      <trkpt lat="49.4464" lon="6.34665">
        <ele>151.60059</ele>
        <time>2026-05-20T09:07:44+02:00</time>
      </trkpt>
      <trkpt lat="49.44644" lon="6.3466">
        <ele>151.10059</ele>
        <time>2026-05-20T09:07:45+02:00</time>
      </trkpt>
      <trkpt lat="49.44647" lon="6.34654">
        <ele>151.2002</ele>
        <time>2026-05-20T09:07:46+02:00</time>
      </trkpt>
      <trkpt lat="49.4465" lon="6.34648">
        <ele>150.90039</ele>
        <time>2026-05-20T09:07:47+02:00</time>
      </trkpt>
      <trkpt lat="49.44654" lon="6.34643">
        <ele>150.5</ele>
        <time>2026-05-20T09:07:48+02:00</time>
      </trkpt>
      <trkpt lat="49.44657" lon="6.34638">
        <ele>150.60059</ele>
        <time>2026-05-20T09:07:49+02:00</time>
      </trkpt>
      <trkpt lat="49.4466" lon="6.34632">
        <ele>150.40039</ele>
        <time>2026-05-20T09:07:50+02:00</time>
      </trkpt>
      <trkpt lat="49.44663" lon="6.34627">
        <ele>150.40039</ele>
        <time>2026-05-20T09:07:51+02:00</time>
      </trkpt>
      <trkpt lat="49.44666" lon="6.34623">
        <ele>150.2998</ele>
        <time>2026-05-20T09:07:52+02:00</time>
      </trkpt>
      <trkpt lat="49.4467" lon="6.3462">
        <ele>150.10059</ele>
        <time>2026-05-20T09:07:53+02:00</time>
      </trkpt>
      <trkpt lat="49.44674" lon="6.3462">
        <ele>150.10059</ele>
        <time>2026-05-20T09:07:54+02:00</time>
      </trkpt>
      <trkpt lat="49.44678" lon="6.34622">
        <ele>150</ele>
        <time>2026-05-20T09:07:55+02:00</time>
      </trkpt>
      <trkpt lat="49.44681" lon="6.34625">
        <ele>149.90039</ele>
        <time>2026-05-20T09:07:56+02:00</time>
      </trkpt>
      <trkpt lat="49.44684" lon="6.34629">
        <ele>149.90039</ele>
        <time>2026-05-20T09:07:57+02:00</time>
      </trkpt>
      <trkpt lat="49.44685" lon="6.34634">
        <ele>149.7998</ele>
        <time>2026-05-20T09:07:58+02:00</time>
      </trkpt>
      <trkpt lat="49.44688" lon="6.34639">
        <ele>149.7998</ele>
        <time>2026-05-20T09:07:59+02:00</time>
      </trkpt>
      <trkpt lat="49.4469" lon="6.34644">
        <ele>149.7998</ele>
        <time>2026-05-20T09:08:00+02:00</time>
      </trkpt>
      <trkpt lat="49.44693" lon="6.34649">
        <ele>149.90039</ele>
        <time>2026-05-20T09:08:01+02:00</time>
      </trkpt>
      <trkpt lat="49.44697" lon="6.34652">
        <ele>149.90039</ele>
        <time>2026-05-20T09:08:02+02:00</time>
      </trkpt>
      <trkpt lat="49.447" lon="6.34655">
        <ele>149.90039</ele>
        <time>2026-05-20T09:08:03+02:00</time>
      </trkpt>
      <trkpt lat="49.44705" lon="6.34658">
        <ele>149.7998</ele>
        <time>2026-05-20T09:08:04+02:00</time>
      </trkpt>
      <trkpt lat="49.44709" lon="6.3466">
        <ele>149.7998</ele>
        <time>2026-05-20T09:08:05+02:00</time>
      </trkpt>
      <trkpt lat="49.44713" lon="6.3466">
        <ele>149.40039</ele>
        <time>2026-05-20T09:08:06+02:00</time>
      </trkpt>
      <trkpt lat="49.44718" lon="6.3466">
        <ele>148.90039</ele>
        <time>2026-05-20T09:08:07+02:00</time>
      </trkpt>
      <trkpt lat="49.44723" lon="6.34658">
        <ele>148.40039</ele>
        <time>2026-05-20T09:08:08+02:00</time>
      </trkpt>
      <trkpt lat="49.44727" lon="6.34656">
        <ele>148.60059</ele>
        <time>2026-05-20T09:08:09+02:00</time>
      </trkpt>
      <trkpt lat="49.44731" lon="6.34652">
        <ele>148.60059</ele>
        <time>2026-05-20T09:08:10+02:00</time>
      </trkpt>
      <trkpt lat="49.44735" lon="6.34648">
        <ele>148.7998</ele>
        <time>2026-05-20T09:08:11+02:00</time>
      </trkpt>
      <trkpt lat="49.44739" lon="6.34644">
        <ele>148.2002</ele>
        <time>2026-05-20T09:08:12+02:00</time>
      </trkpt>
      <trkpt lat="49.44743" lon="6.3464">
        <ele>148.2002</ele>
        <time>2026-05-20T09:08:13+02:00</time>
      </trkpt>
      <trkpt lat="49.44747" lon="6.34635">
        <ele>148.2002</ele>
        <time>2026-05-20T09:08:14+02:00</time>
      </trkpt>
      <trkpt lat="49.4475" lon="6.34631">
        <ele>148.2002</ele>
        <time>2026-05-20T09:08:15+02:00</time>
      </trkpt>
      <trkpt lat="49.44755" lon="6.34627">
        <ele>147.7002</ele>
        <time>2026-05-20T09:08:16+02:00</time>
      </trkpt>
      <trkpt lat="49.44758" lon="6.34623">
        <ele>148.5</ele>
        <time>2026-05-20T09:08:17+02:00</time>
      </trkpt>
      <trkpt lat="49.44762" lon="6.34619">
        <ele>148.10059</ele>
        <time>2026-05-20T09:08:18+02:00</time>
      </trkpt>
      <trkpt lat="49.44766" lon="6.34614">
        <ele>148.60059</ele>
        <time>2026-05-20T09:08:19+02:00</time>
      </trkpt>
      <trkpt lat="49.44769" lon="6.3461">
        <ele>148.60059</ele>
        <time>2026-05-20T09:08:20+02:00</time>
      </trkpt>
      <trkpt lat="49.44774" lon="6.34605">
        <ele>149.10059</ele>
        <time>2026-05-20T09:08:21+02:00</time>
      </trkpt>
      <trkpt lat="49.44777" lon="6.34601">
        <ele>148.5</ele>
        <time>2026-05-20T09:08:22+02:00</time>
      </trkpt>
      <trkpt lat="49.44781" lon="6.34597">
        <ele>149.2002</ele>
        <time>2026-05-20T09:08:23+02:00</time>
      </trkpt>
      <trkpt lat="49.44785" lon="6.34592">
        <ele>148.5</ele>
        <time>2026-05-20T09:08:24+02:00</time>
      </trkpt>
      <trkpt lat="49.44789" lon="6.34588">
        <ele>148.5</ele>
        <time>2026-05-20T09:08:25+02:00</time>
      </trkpt>
      <trkpt lat="49.44793" lon="6.34584">
        <ele>148.10059</ele>
        <time>2026-05-20T09:08:26+02:00</time>
      </trkpt>
      <trkpt lat="49.44797" lon="6.3458">
        <ele>148.7998</ele>
        <time>2026-05-20T09:08:27+02:00</time>
      </trkpt>
      <trkpt lat="49.448" lon="6.34575">
        <ele>148.5</ele>
        <time>2026-05-20T09:08:28+02:00</time>
      </trkpt>
      <trkpt lat="49.44804" lon="6.34572">
        <ele>149.10059</ele>
        <time>2026-05-20T09:08:29+02:00</time>
      </trkpt>
      <trkpt lat="49.44808" lon="6.34567">
        <ele>149.10059</ele>
        <time>2026-05-20T09:08:30+02:00</time>
      </trkpt>
      <trkpt lat="49.44811" lon="6.34563">
        <ele>149.7002</ele>
        <time>2026-05-20T09:08:31+02:00</time>
      </trkpt>
      <trkpt lat="49.44815" lon="6.3456">
        <ele>149.7002</ele>
        <time>2026-05-20T09:08:32+02:00</time>
      </trkpt>
      <trkpt lat="49.44819" lon="6.34558">
        <ele>149.2002</ele>
        <time>2026-05-20T09:08:33+02:00</time>
      </trkpt>
      <trkpt lat="49.44822" lon="6.34557">
        <ele>148.5</ele>
        <time>2026-05-20T09:08:34+02:00</time>
      </trkpt>
      <trkpt lat="49.44825" lon="6.34557">
        <ele>148.5</ele>
        <time>2026-05-20T09:08:35+02:00</time>
      </trkpt>
      <trkpt lat="49.44829" lon="6.34557">
        <ele>147.5</ele>
        <time>2026-05-20T09:08:36+02:00</time>
      </trkpt>
      <trkpt lat="49.44832" lon="6.34556">
        <ele>147.5</ele>
        <time>2026-05-20T09:08:37+02:00</time>
      </trkpt>
      <trkpt lat="49.44835" lon="6.34556">
        <ele>146.60059</ele>
        <time>2026-05-20T09:08:38+02:00</time>
      </trkpt>
      <trkpt lat="49.44839" lon="6.34558">
        <ele>145.90039</ele>
        <time>2026-05-20T09:08:39+02:00</time>
      </trkpt>
      <trkpt lat="49.44842" lon="6.34563">
        <ele>145.90039</ele>
        <time>2026-05-20T09:08:40+02:00</time>
      </trkpt>
      <trkpt lat="49.44845" lon="6.34568">
        <ele>144.2998</ele>
        <time>2026-05-20T09:08:41+02:00</time>
      </trkpt>
      <trkpt lat="49.44847" lon="6.34573">
        <ele>143.60059</ele>
        <time>2026-05-20T09:08:42+02:00</time>
      </trkpt>
      <trkpt lat="49.44849" lon="6.34579">
        <ele>142.90039</ele>
        <time>2026-05-20T09:08:43+02:00</time>
      </trkpt>
      <trkpt lat="49.44852" lon="6.34585">
        <ele>142.5</ele>
        <time>2026-05-20T09:08:44+02:00</time>
      </trkpt>
      <trkpt lat="49.44854" lon="6.34591">
        <ele>142.2002</ele>
        <time>2026-05-20T09:08:45+02:00</time>
      </trkpt>
      <trkpt lat="49.44857" lon="6.34596">
        <ele>141.7998</ele>
        <time>2026-05-20T09:08:46+02:00</time>
      </trkpt>
      <trkpt lat="49.44859" lon="6.34602">
        <ele>141.7998</ele>
        <time>2026-05-20T09:08:47+02:00</time>
      </trkpt>
      <trkpt lat="49.44862" lon="6.34608">
        <ele>141.90039</ele>
        <time>2026-05-20T09:08:48+02:00</time>
      </trkpt>
      <trkpt lat="49.44864" lon="6.34615">
        <ele>141.90039</ele>
        <time>2026-05-20T09:08:49+02:00</time>
      </trkpt>
      <trkpt lat="49.44867" lon="6.34621">
        <ele>141.90039</ele>
        <time>2026-05-20T09:08:50+02:00</time>
      </trkpt>
      <trkpt lat="49.4487" lon="6.34628">
        <ele>141.90039</ele>
        <time>2026-05-20T09:08:51+02:00</time>
      </trkpt>
      <trkpt lat="49.44872" lon="6.34634">
        <ele>141.90039</ele>
        <time>2026-05-20T09:08:52+02:00</time>
      </trkpt>
      <trkpt lat="49.44875" lon="6.34641">
        <ele>141.90039</ele>
        <time>2026-05-20T09:08:53+02:00</time>
      </trkpt>
      <trkpt lat="49.44878" lon="6.34647">
        <ele>141.90039</ele>
        <time>2026-05-20T09:08:54+02:00</time>
      </trkpt>
      <trkpt lat="49.44881" lon="6.34653">
        <ele>141.90039</ele>
        <time>2026-05-20T09:08:55+02:00</time>
      </trkpt>
      <trkpt lat="49.44883" lon="6.3466">
        <ele>141.90039</ele>
        <time>2026-05-20T09:08:56+02:00</time>
      </trkpt>
      <trkpt lat="49.44886" lon="6.34666">
        <ele>141.90039</ele>
        <time>2026-05-20T09:08:57+02:00</time>
      </trkpt>
      <trkpt lat="49.44888" lon="6.34672">
        <ele>141.90039</ele>
        <time>2026-05-20T09:08:58+02:00</time>
      </trkpt>
      <trkpt lat="49.44891" lon="6.34679">
        <ele>141.90039</ele>
        <time>2026-05-20T09:08:59+02:00</time>
      </trkpt>
      <trkpt lat="49.44893" lon="6.34686">
        <ele>141.90039</ele>
        <time>2026-05-20T09:09:00+02:00</time>
      </trkpt>
      <trkpt lat="49.44896" lon="6.34692">
        <ele>141.90039</ele>
        <time>2026-05-20T09:09:01+02:00</time>
      </trkpt>
      <trkpt lat="49.44899" lon="6.34699">
        <ele>141.90039</ele>
        <time>2026-05-20T09:09:02+02:00</time>
      </trkpt>
      <trkpt lat="49.44901" lon="6.34706">
        <ele>141.90039</ele>
        <time>2026-05-20T09:09:03+02:00</time>
      </trkpt>
      <trkpt lat="49.44904" lon="6.34713">
        <ele>141.7998</ele>
        <time>2026-05-20T09:09:04+02:00</time>
      </trkpt>
      <trkpt lat="49.44907" lon="6.34719">
        <ele>142.10059</ele>
        <time>2026-05-20T09:09:05+02:00</time>
      </trkpt>
      <trkpt lat="49.44909" lon="6.34726">
        <ele>142.10059</ele>
        <time>2026-05-20T09:09:06+02:00</time>
      </trkpt>
      <trkpt lat="49.44912" lon="6.34733">
        <ele>143</ele>
        <time>2026-05-20T09:09:07+02:00</time>
      </trkpt>
      <trkpt lat="49.44915" lon="6.3474">
        <ele>143.90039</ele>
        <time>2026-05-20T09:09:08+02:00</time>
      </trkpt>
      <trkpt lat="49.44918" lon="6.34746">
        <ele>145.5</ele>
        <time>2026-05-20T09:09:09+02:00</time>
      </trkpt>
      <trkpt lat="49.4492" lon="6.34752">
        <ele>145.5</ele>
        <time>2026-05-20T09:09:10+02:00</time>
      </trkpt>
      <trkpt lat="49.44923" lon="6.34759">
        <ele>147.5</ele>
        <time>2026-05-20T09:09:11+02:00</time>
      </trkpt>
      <trkpt lat="49.44925" lon="6.34765">
        <ele>149</ele>
        <time>2026-05-20T09:09:12+02:00</time>
      </trkpt>
      <trkpt lat="49.44928" lon="6.34771">
        <ele>151.7002</ele>
        <time>2026-05-20T09:09:13+02:00</time>
      </trkpt>
      <trkpt lat="49.4493" lon="6.34778">
        <ele>151.7002</ele>
        <time>2026-05-20T09:09:14+02:00</time>
      </trkpt>
      <trkpt lat="49.4493" lon="6.34784">
        <ele>153.10059</ele>
        <time>2026-05-20T09:09:15+02:00</time>
      </trkpt>
      <trkpt lat="49.4493" lon="6.34791">
        <ele>154.2002</ele>
        <time>2026-05-20T09:09:16+02:00</time>
      </trkpt>
      <trkpt lat="49.4493" lon="6.34798">
        <ele>155</ele>
        <time>2026-05-20T09:09:17+02:00</time>
      </trkpt>
      <trkpt lat="49.44928" lon="6.34804">
        <ele>155.7998</ele>
        <time>2026-05-20T09:09:18+02:00</time>
      </trkpt>
      <trkpt lat="49.44925" lon="6.34809">
        <ele>155.10059</ele>
        <time>2026-05-20T09:09:19+02:00</time>
      </trkpt>
      <trkpt lat="49.44921" lon="6.34814">
        <ele>155.5</ele>
        <time>2026-05-20T09:09:20+02:00</time>
      </trkpt>
      <trkpt lat="49.44917" lon="6.34818">
        <ele>155.5</ele>
        <time>2026-05-20T09:09:21+02:00</time>
      </trkpt>
      <trkpt lat="49.44912" lon="6.34823">
        <ele>155.7998</ele>
        <time>2026-05-20T09:09:22+02:00</time>
      </trkpt>
      <trkpt lat="49.44907" lon="6.34828">
        <ele>154.90039</ele>
        <time>2026-05-20T09:09:23+02:00</time>
      </trkpt>
      <trkpt lat="49.44902" lon="6.34833">
        <ele>155.10059</ele>
        <time>2026-05-20T09:09:24+02:00</time>
      </trkpt>
      <trkpt lat="49.44897" lon="6.34838">
        <ele>154</ele>
        <time>2026-05-20T09:09:25+02:00</time>
      </trkpt>
      <trkpt lat="49.44892" lon="6.34843">
        <ele>154.40039</ele>
        <time>2026-05-20T09:09:26+02:00</time>
      </trkpt>
      <trkpt lat="49.44887" lon="6.34848">
        <ele>154.7002</ele>
        <time>2026-05-20T09:09:27+02:00</time>
      </trkpt>
      <trkpt lat="49.44883" lon="6.34852">
        <ele>154.7002</ele>
        <time>2026-05-20T09:09:28+02:00</time>
      </trkpt>
      <trkpt lat="49.44879" lon="6.34853">
        <ele>153.2998</ele>
        <time>2026-05-20T09:09:29+02:00</time>
      </trkpt>
      <trkpt lat="49.44875" lon="6.34852">
        <ele>151.7998</ele>
        <time>2026-05-20T09:09:30+02:00</time>
      </trkpt>
      <trkpt lat="49.44871" lon="6.34847">
        <ele>151.7998</ele>
        <time>2026-05-20T09:09:31+02:00</time>
      </trkpt>
      <trkpt lat="49.44867" lon="6.3484">
        <ele>149.2002</ele>
        <time>2026-05-20T09:09:32+02:00</time>
      </trkpt>
      <trkpt lat="49.44866" lon="6.34833">
        <ele>147.90039</ele>
        <time>2026-05-20T09:09:33+02:00</time>
      </trkpt>
      <trkpt lat="49.44868" lon="6.34828">
        <ele>146.7002</ele>
        <time>2026-05-20T09:09:34+02:00</time>
      </trkpt>
      <trkpt lat="49.44871" lon="6.34822">
        <ele>147.90039</ele>
        <time>2026-05-20T09:09:35+02:00</time>
      </trkpt>
      <trkpt lat="49.44874" lon="6.34818">
        <ele>146.60059</ele>
        <time>2026-05-20T09:09:36+02:00</time>
      </trkpt>
      <trkpt lat="49.44877" lon="6.34813">
        <ele>147.7002</ele>
        <time>2026-05-20T09:09:37+02:00</time>
      </trkpt>
      <trkpt lat="49.4488" lon="6.34807">
        <ele>146.5</ele>
        <time>2026-05-20T09:09:38+02:00</time>
      </trkpt>
      <trkpt lat="49.44884" lon="6.34802">
        <ele>146.40039</ele>
        <time>2026-05-20T09:09:39+02:00</time>
      </trkpt>
      <trkpt lat="49.44888" lon="6.34797">
        <ele>147.5</ele>
        <time>2026-05-20T09:09:40+02:00</time>
      </trkpt>
      <trkpt lat="49.44892" lon="6.34792">
        <ele>146.2998</ele>
        <time>2026-05-20T09:09:41+02:00</time>
      </trkpt>
      <trkpt lat="49.44896" lon="6.34788">
        <ele>147.2998</ele>
        <time>2026-05-20T09:09:42+02:00</time>
      </trkpt>
      <trkpt lat="49.449" lon="6.34782">
        <ele>147.2002</ele>
        <time>2026-05-20T09:09:43+02:00</time>
      </trkpt>
      <trkpt lat="49.44905" lon="6.34777">
        <ele>147.10059</ele>
        <time>2026-05-20T09:09:44+02:00</time>
      </trkpt>
      <trkpt lat="49.44909" lon="6.34772">
        <ele>147.10059</ele>
        <time>2026-05-20T09:09:45+02:00</time>
      </trkpt>
      <trkpt lat="49.44913" lon="6.34767">
        <ele>147</ele>
        <time>2026-05-20T09:09:46+02:00</time>
      </trkpt>
      <trkpt lat="49.44918" lon="6.34762">
        <ele>148</ele>
        <time>2026-05-20T09:09:47+02:00</time>
      </trkpt>
      <trkpt lat="49.44923" lon="6.34758">
        <ele>147.5</ele>
        <time>2026-05-20T09:09:48+02:00</time>
      </trkpt>
      <trkpt lat="49.44927" lon="6.34753">
        <ele>148.40039</ele>
        <time>2026-05-20T09:09:49+02:00</time>
      </trkpt>
      <trkpt lat="49.44932" lon="6.34748">
        <ele>147</ele>
        <time>2026-05-20T09:09:50+02:00</time>
      </trkpt>
      <trkpt lat="49.44937" lon="6.34744">
        <ele>148</ele>
        <time>2026-05-20T09:09:51+02:00</time>
      </trkpt>
      <trkpt lat="49.44943" lon="6.34739">
        <ele>148.10059</ele>
        <time>2026-05-20T09:09:52+02:00</time>
      </trkpt>
      <trkpt lat="49.44948" lon="6.34735">
        <ele>147.7998</ele>
        <time>2026-05-20T09:09:53+02:00</time>
      </trkpt>
      <trkpt lat="49.44953" lon="6.3473">
        <ele>148.7998</ele>
        <time>2026-05-20T09:09:54+02:00</time>
      </trkpt>
      <trkpt lat="49.44959" lon="6.34725">
        <ele>147.7002</ele>
        <time>2026-05-20T09:09:55+02:00</time>
      </trkpt>
      <trkpt lat="49.44964" lon="6.34721">
        <ele>148.2002</ele>
        <time>2026-05-20T09:09:56+02:00</time>
      </trkpt>
      <trkpt lat="49.44969" lon="6.34716">
        <ele>147.2998</ele>
        <time>2026-05-20T09:09:57+02:00</time>
      </trkpt>
      <trkpt lat="49.44975" lon="6.34711">
        <ele>148</ele>
        <time>2026-05-20T09:09:58+02:00</time>
      </trkpt>
      <trkpt lat="49.4498" lon="6.34706">
        <ele>147.7998</ele>
        <time>2026-05-20T09:09:59+02:00</time>
      </trkpt>
      <trkpt lat="49.44985" lon="6.34701">
        <ele>148.90039</ele>
        <time>2026-05-20T09:10:00+02:00</time>
      </trkpt>
      <trkpt lat="49.44991" lon="6.34697">
        <ele>148.60059</ele>
        <time>2026-05-20T09:10:01+02:00</time>
      </trkpt>
      <trkpt lat="49.44996" lon="6.34692">
        <ele>147.60059</ele>
        <time>2026-05-20T09:10:02+02:00</time>
      </trkpt>
      <trkpt lat="49.45002" lon="6.34687">
        <ele>148.10059</ele>
        <time>2026-05-20T09:10:03+02:00</time>
      </trkpt>
      <trkpt lat="49.45007" lon="6.34682">
        <ele>146.90039</ele>
        <time>2026-05-20T09:10:04+02:00</time>
      </trkpt>
      <trkpt lat="49.45012" lon="6.34677">
        <ele>147.2998</ele>
        <time>2026-05-20T09:10:05+02:00</time>
      </trkpt>
      <trkpt lat="49.45018" lon="6.34672">
        <ele>146.40039</ele>
        <time>2026-05-20T09:10:06+02:00</time>
      </trkpt>
      <trkpt lat="49.45023" lon="6.34668">
        <ele>146.90039</ele>
        <time>2026-05-20T09:10:07+02:00</time>
      </trkpt>
      <trkpt lat="49.45028" lon="6.34663">
        <ele>146</ele>
        <time>2026-05-20T09:10:08+02:00</time>
      </trkpt>
      <trkpt lat="49.45034" lon="6.34658">
        <ele>146.7002</ele>
        <time>2026-05-20T09:10:09+02:00</time>
      </trkpt>
      <trkpt lat="49.45039" lon="6.34653">
        <ele>146.40039</ele>
        <time>2026-05-20T09:10:10+02:00</time>
      </trkpt>
      <trkpt lat="49.45044" lon="6.34649">
        <ele>145.90039</ele>
        <time>2026-05-20T09:10:11+02:00</time>
      </trkpt>
      <trkpt lat="49.4505" lon="6.34644">
        <ele>146.60059</ele>
        <time>2026-05-20T09:10:12+02:00</time>
      </trkpt>
      <trkpt lat="49.45055" lon="6.34639">
        <ele>145.2998</ele>
        <time>2026-05-20T09:10:13+02:00</time>
      </trkpt>
      <trkpt lat="49.45061" lon="6.34635">
        <ele>146.40039</ele>
        <time>2026-05-20T09:10:14+02:00</time>
      </trkpt>
      <trkpt lat="49.45066" lon="6.3463">
        <ele>145</ele>
        <time>2026-05-20T09:10:15+02:00</time>
      </trkpt>
      <trkpt lat="49.45072" lon="6.34626">
        <ele>146.40039</ele>
        <time>2026-05-20T09:10:16+02:00</time>
      </trkpt>
      <trkpt lat="49.45077" lon="6.34621">
        <ele>145.10059</ele>
        <time>2026-05-20T09:10:17+02:00</time>
      </trkpt>
      <trkpt lat="49.45083" lon="6.34617">
        <ele>146</ele>
        <time>2026-05-20T09:10:18+02:00</time>
      </trkpt>
      <trkpt lat="49.45088" lon="6.34613">
        <ele>145.90039</ele>
        <time>2026-05-20T09:10:19+02:00</time>
      </trkpt>
      <trkpt lat="49.45093" lon="6.34609">
        <ele>146.7998</ele>
        <time>2026-05-20T09:10:20+02:00</time>
      </trkpt>
      <trkpt lat="49.45099" lon="6.34605">
        <ele>146.40039</ele>
        <time>2026-05-20T09:10:21+02:00</time>
      </trkpt>
      <trkpt lat="49.45104" lon="6.346">
        <ele>147.10059</ele>
        <time>2026-05-20T09:10:22+02:00</time>
      </trkpt>
      <trkpt lat="49.45109" lon="6.34596">
        <ele>146.40039</ele>
        <time>2026-05-20T09:10:23+02:00</time>
      </trkpt>
      <trkpt lat="49.45114" lon="6.34591">
        <ele>147.10059</ele>
        <time>2026-05-20T09:10:24+02:00</time>
      </trkpt>
      <trkpt lat="49.45119" lon="6.34586">
        <ele>146.60059</ele>
        <time>2026-05-20T09:10:25+02:00</time>
      </trkpt>
      <trkpt lat="49.45123" lon="6.3458">
        <ele>146.40039</ele>
        <time>2026-05-20T09:10:26+02:00</time>
      </trkpt>
      <trkpt lat="49.45128" lon="6.34575">
        <ele>147.40039</ele>
        <time>2026-05-20T09:10:27+02:00</time>
      </trkpt>
      <trkpt lat="49.45133" lon="6.34569">
        <ele>146.2998</ele>
        <time>2026-05-20T09:10:28+02:00</time>
      </trkpt>
      <trkpt lat="49.45137" lon="6.34564">
        <ele>147</ele>
        <time>2026-05-20T09:10:29+02:00</time>
      </trkpt>
      <trkpt lat="49.45141" lon="6.34558">
        <ele>146.40039</ele>
        <time>2026-05-20T09:10:30+02:00</time>
      </trkpt>
      <trkpt lat="49.45146" lon="6.34551">
        <ele>146.10059</ele>
        <time>2026-05-20T09:10:31+02:00</time>
      </trkpt>
      <trkpt lat="49.45151" lon="6.34545">
        <ele>145.90039</ele>
        <time>2026-05-20T09:10:32+02:00</time>
      </trkpt>
      <trkpt lat="49.45155" lon="6.34539">
        <ele>145.90039</ele>
        <time>2026-05-20T09:10:33+02:00</time>
      </trkpt>
      <trkpt lat="49.4516" lon="6.34533">
        <ele>145.90039</ele>
        <time>2026-05-20T09:10:34+02:00</time>
      </trkpt>
      <trkpt lat="49.45165" lon="6.34527">
        <ele>145.40039</ele>
        <time>2026-05-20T09:10:35+02:00</time>
      </trkpt>
      <trkpt lat="49.45169" lon="6.34521">
        <ele>146.2002</ele>
        <time>2026-05-20T09:10:36+02:00</time>
      </trkpt>
      <trkpt lat="49.45174" lon="6.34515">
        <ele>145.60059</ele>
        <time>2026-05-20T09:10:37+02:00</time>
      </trkpt>
      <trkpt lat="49.45178" lon="6.34509">
        <ele>145.2002</ele>
        <time>2026-05-20T09:10:38+02:00</time>
      </trkpt>
      <trkpt lat="49.45183" lon="6.34503">
        <ele>144</ele>
        <time>2026-05-20T09:10:39+02:00</time>
      </trkpt>
      <trkpt lat="49.45187" lon="6.34497">
        <ele>145.10059</ele>
        <time>2026-05-20T09:10:40+02:00</time>
      </trkpt>
      <trkpt lat="49.45191" lon="6.34491">
        <ele>145.2002</ele>
        <time>2026-05-20T09:10:41+02:00</time>
      </trkpt>
      <trkpt lat="49.45195" lon="6.34485">
        <ele>145.10059</ele>
        <time>2026-05-20T09:10:42+02:00</time>
      </trkpt>
      <trkpt lat="49.45199" lon="6.34479">
        <ele>145.10059</ele>
        <time>2026-05-20T09:10:43+02:00</time>
      </trkpt>
      <trkpt lat="49.45204" lon="6.34473">
        <ele>145</ele>
        <time>2026-05-20T09:10:44+02:00</time>
      </trkpt>
      <trkpt lat="49.45208" lon="6.34467">
        <ele>145</ele>
        <time>2026-05-20T09:10:45+02:00</time>
      </trkpt>
      <trkpt lat="49.45212" lon="6.34461">
        <ele>145.90039</ele>
        <time>2026-05-20T09:10:46+02:00</time>
      </trkpt>
      <trkpt lat="49.45216" lon="6.34456">
        <ele>145.10059</ele>
        <time>2026-05-20T09:10:47+02:00</time>
      </trkpt>
      <trkpt lat="49.4522" lon="6.3445">
        <ele>145</ele>
        <time>2026-05-20T09:10:48+02:00</time>
      </trkpt>
      <trkpt lat="49.45224" lon="6.34444">
        <ele>145.60059</ele>
        <time>2026-05-20T09:10:49+02:00</time>
      </trkpt>
      <trkpt lat="49.45228" lon="6.34438">
        <ele>144.7998</ele>
        <time>2026-05-20T09:10:50+02:00</time>
      </trkpt>
      <trkpt lat="49.45231" lon="6.34432">
        <ele>144.7002</ele>
        <time>2026-05-20T09:10:51+02:00</time>
      </trkpt>
      <trkpt lat="49.45235" lon="6.34425">
        <ele>144.7002</ele>
        <time>2026-05-20T09:10:52+02:00</time>
      </trkpt>
      <trkpt lat="49.45239" lon="6.34419">
        <ele>144.7002</ele>
        <time>2026-05-20T09:10:53+02:00</time>
      </trkpt>
      <trkpt lat="49.45242" lon="6.34412">
        <ele>144.60059</ele>
        <time>2026-05-20T09:10:54+02:00</time>
      </trkpt>
      <trkpt lat="49.45245" lon="6.34405">
        <ele>144.7002</ele>
        <time>2026-05-20T09:10:55+02:00</time>
      </trkpt>
      <trkpt lat="49.45248" lon="6.34398">
        <ele>144.10059</ele>
        <time>2026-05-20T09:10:56+02:00</time>
      </trkpt>
      <trkpt lat="49.45251" lon="6.3439">
        <ele>144.2998</ele>
        <time>2026-05-20T09:10:57+02:00</time>
      </trkpt>
      <trkpt lat="49.45254" lon="6.34382">
        <ele>143.7998</ele>
        <time>2026-05-20T09:10:58+02:00</time>
      </trkpt>
      <trkpt lat="49.45256" lon="6.34374">
        <ele>143.7998</ele>
        <time>2026-05-20T09:10:59+02:00</time>
      </trkpt>
      <trkpt lat="49.45258" lon="6.34366">
        <ele>143.10059</ele>
        <time>2026-05-20T09:11:00+02:00</time>
      </trkpt>
      <trkpt lat="49.4526" lon="6.34358">
        <ele>143.10059</ele>
        <time>2026-05-20T09:11:01+02:00</time>
      </trkpt>
      <trkpt lat="49.45262" lon="6.3435">
        <ele>143.2002</ele>
        <time>2026-05-20T09:11:02+02:00</time>
      </trkpt>
      <trkpt lat="49.45264" lon="6.34342">
        <ele>142.7002</ele>
        <time>2026-05-20T09:11:03+02:00</time>
      </trkpt>
      <trkpt lat="49.45266" lon="6.34333">
        <ele>142.7002</ele>
        <time>2026-05-20T09:11:04+02:00</time>
      </trkpt>
      <trkpt lat="49.45268" lon="6.34325">
        <ele>143.60059</ele>
        <time>2026-05-20T09:11:05+02:00</time>
      </trkpt>
      <trkpt lat="49.4527" lon="6.34316">
        <ele>143.40039</ele>
        <time>2026-05-20T09:11:06+02:00</time>
      </trkpt>
      <trkpt lat="49.45271" lon="6.34307">
        <ele>143.2002</ele>
        <time>2026-05-20T09:11:07+02:00</time>
      </trkpt>
      <trkpt lat="49.45273" lon="6.34299">
        <ele>143.60059</ele>
        <time>2026-05-20T09:11:08+02:00</time>
      </trkpt>
      <trkpt lat="49.45274" lon="6.3429">
        <ele>142.90039</ele>
        <time>2026-05-20T09:11:09+02:00</time>
      </trkpt>
      <trkpt lat="49.45276" lon="6.34282">
        <ele>142.2998</ele>
        <time>2026-05-20T09:11:10+02:00</time>
      </trkpt>
      <trkpt lat="49.45278" lon="6.34274">
        <ele>141.7998</ele>
        <time>2026-05-20T09:11:11+02:00</time>
      </trkpt>
      <trkpt lat="49.4528" lon="6.34265">
        <ele>142.2002</ele>
        <time>2026-05-20T09:11:12+02:00</time>
      </trkpt>
      <trkpt lat="49.45282" lon="6.34257">
        <ele>142.2002</ele>
        <time>2026-05-20T09:11:13+02:00</time>
      </trkpt>
      <trkpt lat="49.45283" lon="6.34249">
        <ele>142.2002</ele>
        <time>2026-05-20T09:11:14+02:00</time>
      </trkpt>
      <trkpt lat="49.45285" lon="6.3424">
        <ele>143</ele>
        <time>2026-05-20T09:11:15+02:00</time>
      </trkpt>
      <trkpt lat="49.45287" lon="6.34232">
        <ele>143</ele>
        <time>2026-05-20T09:11:16+02:00</time>
      </trkpt>
      <trkpt lat="49.45288" lon="6.34224">
        <ele>142.90039</ele>
        <time>2026-05-20T09:11:17+02:00</time>
      </trkpt>
      <trkpt lat="49.4529" lon="6.34217">
        <ele>143.7002</ele>
        <time>2026-05-20T09:11:18+02:00</time>
      </trkpt>
      <trkpt lat="49.45291" lon="6.34209">
        <ele>143.5</ele>
        <time>2026-05-20T09:11:19+02:00</time>
      </trkpt>
      <trkpt lat="49.45293" lon="6.34201">
        <ele>143.2002</ele>
        <time>2026-05-20T09:11:20+02:00</time>
      </trkpt>
      <trkpt lat="49.45294" lon="6.34193">
        <ele>142.7998</ele>
        <time>2026-05-20T09:11:21+02:00</time>
      </trkpt>
      <trkpt lat="49.45296" lon="6.34184">
        <ele>142.60059</ele>
        <time>2026-05-20T09:11:22+02:00</time>
      </trkpt>
      <trkpt lat="49.45298" lon="6.34176">
        <ele>142.10059</ele>
        <time>2026-05-20T09:11:23+02:00</time>
      </trkpt>
      <trkpt lat="49.45299" lon="6.34168">
        <ele>142</ele>
        <time>2026-05-20T09:11:24+02:00</time>
      </trkpt>
      <trkpt lat="49.45301" lon="6.34159">
        <ele>142.5</ele>
        <time>2026-05-20T09:11:25+02:00</time>
      </trkpt>
      <trkpt lat="49.45302" lon="6.34151">
        <ele>142.40039</ele>
        <time>2026-05-20T09:11:26+02:00</time>
      </trkpt>
      <trkpt lat="49.45304" lon="6.34143">
        <ele>142.40039</ele>
        <time>2026-05-20T09:11:27+02:00</time>
      </trkpt>
      <trkpt lat="49.45306" lon="6.34135">
        <ele>142.40039</ele>
        <time>2026-05-20T09:11:28+02:00</time>
      </trkpt>
      <trkpt lat="49.45307" lon="6.34127">
        <ele>143</ele>
        <time>2026-05-20T09:11:29+02:00</time>
      </trkpt>
      <trkpt lat="49.45309" lon="6.34119">
        <ele>143</ele>
        <time>2026-05-20T09:11:30+02:00</time>
      </trkpt>
      <trkpt lat="49.4531" lon="6.34112">
        <ele>143</ele>
        <time>2026-05-20T09:11:31+02:00</time>
      </trkpt>
      <trkpt lat="49.45311" lon="6.34104">
        <ele>143</ele>
        <time>2026-05-20T09:11:32+02:00</time>
      </trkpt>
      <trkpt lat="49.45313" lon="6.34097">
        <ele>143.60059</ele>
        <time>2026-05-20T09:11:33+02:00</time>
      </trkpt>
      <trkpt lat="49.45316" lon="6.34091">
        <ele>143.60059</ele>
        <time>2026-05-20T09:11:34+02:00</time>
      </trkpt>
      <trkpt lat="49.45319" lon="6.34085">
        <ele>144.2998</ele>
        <time>2026-05-20T09:11:35+02:00</time>
      </trkpt>
      <trkpt lat="49.45321" lon="6.34078">
        <ele>144.2002</ele>
        <time>2026-05-20T09:11:36+02:00</time>
      </trkpt>
      <trkpt lat="49.45323" lon="6.34071">
        <ele>144.60059</ele>
        <time>2026-05-20T09:11:37+02:00</time>
      </trkpt>
      <trkpt lat="49.45324" lon="6.34064">
        <ele>144.40039</ele>
        <time>2026-05-20T09:11:38+02:00</time>
      </trkpt>
      <trkpt lat="49.45323" lon="6.34056">
        <ele>144.2002</ele>
        <time>2026-05-20T09:11:39+02:00</time>
      </trkpt>
      <trkpt lat="49.45323" lon="6.34048">
        <ele>143.7998</ele>
        <time>2026-05-20T09:11:40+02:00</time>
      </trkpt>
      <trkpt lat="49.45322" lon="6.34041">
        <ele>143.10059</ele>
        <time>2026-05-20T09:11:41+02:00</time>
      </trkpt>
      <trkpt lat="49.45322" lon="6.34032">
        <ele>142.60059</ele>
        <time>2026-05-20T09:11:42+02:00</time>
      </trkpt>
      <trkpt lat="49.45322" lon="6.34024">
        <ele>142.40039</ele>
        <time>2026-05-20T09:11:43+02:00</time>
      </trkpt>
      <trkpt lat="49.45323" lon="6.34015">
        <ele>143.2002</ele>
        <time>2026-05-20T09:11:44+02:00</time>
      </trkpt>
      <trkpt lat="49.45323" lon="6.34007">
        <ele>143.2002</ele>
        <time>2026-05-20T09:11:45+02:00</time>
      </trkpt>
      <trkpt lat="49.45323" lon="6.33998">
        <ele>143.2002</ele>
        <time>2026-05-20T09:11:46+02:00</time>
      </trkpt>
      <trkpt lat="49.45323" lon="6.3399">
        <ele>143.2998</ele>
        <time>2026-05-20T09:11:47+02:00</time>
      </trkpt>
      <trkpt lat="49.45323" lon="6.33981">
        <ele>143.2998</ele>
        <time>2026-05-20T09:11:48+02:00</time>
      </trkpt>
      <trkpt lat="49.45323" lon="6.33972">
        <ele>143.40039</ele>
        <time>2026-05-20T09:11:49+02:00</time>
      </trkpt>
      <trkpt lat="49.45323" lon="6.33964">
        <ele>143.5</ele>
        <time>2026-05-20T09:11:50+02:00</time>
      </trkpt>
      <trkpt lat="49.45323" lon="6.33955">
        <ele>143.5</ele>
        <time>2026-05-20T09:11:51+02:00</time>
      </trkpt>
      <trkpt lat="49.45322" lon="6.33946">
        <ele>142.7002</ele>
        <time>2026-05-20T09:11:52+02:00</time>
      </trkpt>
      <trkpt lat="49.45322" lon="6.33937">
        <ele>142.7002</ele>
        <time>2026-05-20T09:11:53+02:00</time>
      </trkpt>
      <trkpt lat="49.45322" lon="6.33929">
        <ele>142.7998</ele>
        <time>2026-05-20T09:11:54+02:00</time>
      </trkpt>
      <trkpt lat="49.45322" lon="6.3392">
        <ele>142.7998</ele>
        <time>2026-05-20T09:11:55+02:00</time>
      </trkpt>
      <trkpt lat="49.45321" lon="6.33911">
        <ele>143</ele>
        <time>2026-05-20T09:11:56+02:00</time>
      </trkpt>
      <trkpt lat="49.45321" lon="6.33902">
        <ele>143</ele>
        <time>2026-05-20T09:11:57+02:00</time>
      </trkpt>
      <trkpt lat="49.45321" lon="6.33894">
        <ele>143</ele>
        <time>2026-05-20T09:11:58+02:00</time>
      </trkpt>
      <trkpt lat="49.45321" lon="6.33885">
        <ele>143.10059</ele>
        <time>2026-05-20T09:11:59+02:00</time>
      </trkpt>
      <trkpt lat="49.45321" lon="6.33876">
        <ele>143.10059</ele>
        <time>2026-05-20T09:12:00+02:00</time>
      </trkpt>
      <trkpt lat="49.45321" lon="6.33868">
        <ele>143</ele>
        <time>2026-05-20T09:12:01+02:00</time>
      </trkpt>
      <trkpt lat="49.45321" lon="6.33859">
        <ele>142.90039</ele>
        <time>2026-05-20T09:12:02+02:00</time>
      </trkpt>
      <trkpt lat="49.45321" lon="6.33851">
        <ele>142.60059</ele>
        <time>2026-05-20T09:12:03+02:00</time>
      </trkpt>
      <trkpt lat="49.45321" lon="6.33843">
        <ele>142.60059</ele>
        <time>2026-05-20T09:12:04+02:00</time>
      </trkpt>
      <trkpt lat="49.4532" lon="6.33835">
        <ele>142.2002</ele>
        <time>2026-05-20T09:12:05+02:00</time>
      </trkpt>
      <trkpt lat="49.4532" lon="6.33827">
        <ele>141.7998</ele>
        <time>2026-05-20T09:12:06+02:00</time>
      </trkpt>
      <trkpt lat="49.4532" lon="6.33819">
        <ele>141.5</ele>
        <time>2026-05-20T09:12:07+02:00</time>
      </trkpt>
      <trkpt lat="49.4532" lon="6.33812">
        <ele>141.2998</ele>
        <time>2026-05-20T09:12:08+02:00</time>
      </trkpt>
      <trkpt lat="49.4532" lon="6.33805">
        <ele>141.2998</ele>
        <time>2026-05-20T09:12:09+02:00</time>
      </trkpt>
      <trkpt lat="49.45321" lon="6.338">
        <ele>141.2998</ele>
        <time>2026-05-20T09:12:10+02:00</time>
      </trkpt>
      <trkpt lat="49.45322" lon="6.33795">
        <ele>141.40039</ele>
        <time>2026-05-20T09:12:11+02:00</time>
      </trkpt>
      <trkpt lat="49.45323" lon="6.33791">
        <ele>141.40039</ele>
        <time>2026-05-20T09:12:12+02:00</time>
      </trkpt>
      <trkpt lat="49.45325" lon="6.33788">
        <ele>141.7998</ele>
        <time>2026-05-20T09:12:13+02:00</time>
      </trkpt>
      <trkpt lat="49.45327" lon="6.33786">
        <ele>141.7998</ele>
        <time>2026-05-20T09:12:14+02:00</time>
      </trkpt>
      <trkpt lat="49.45329" lon="6.33783">
        <ele>142.2998</ele>
        <time>2026-05-20T09:12:15+02:00</time>
      </trkpt>
      <trkpt lat="49.45331" lon="6.3378">
        <ele>143.2998</ele>
        <time>2026-05-20T09:12:16+02:00</time>
      </trkpt>
      <trkpt lat="49.45332" lon="6.33775">
        <ele>143.2998</ele>
        <time>2026-05-20T09:12:17+02:00</time>
      </trkpt>
      <trkpt lat="49.45331" lon="6.33771">
        <ele>144.2998</ele>
        <time>2026-05-20T09:12:18+02:00</time>
      </trkpt>
      <trkpt lat="49.45329" lon="6.33767">
        <ele>144.2998</ele>
        <time>2026-05-20T09:12:19+02:00</time>
      </trkpt>
      <trkpt lat="49.45328" lon="6.33762">
        <ele>144.10059</ele>
        <time>2026-05-20T09:12:20+02:00</time>
      </trkpt>
      <trkpt lat="49.45326" lon="6.33756">
        <ele>144.7002</ele>
        <time>2026-05-20T09:12:21+02:00</time>
      </trkpt>
      <trkpt lat="49.45324" lon="6.3375">
        <ele>144.7002</ele>
        <time>2026-05-20T09:12:22+02:00</time>
      </trkpt>
      <trkpt lat="49.45323" lon="6.33744">
        <ele>145</ele>
        <time>2026-05-20T09:12:23+02:00</time>
      </trkpt>
      <trkpt lat="49.4532" lon="6.33738">
        <ele>144.2002</ele>
        <time>2026-05-20T09:12:24+02:00</time>
      </trkpt>
      <trkpt lat="49.45319" lon="6.33732">
        <ele>144.2002</ele>
        <time>2026-05-20T09:12:25+02:00</time>
      </trkpt>
      <trkpt lat="49.45318" lon="6.33725">
        <ele>144.40039</ele>
        <time>2026-05-20T09:12:26+02:00</time>
      </trkpt>
      <trkpt lat="49.45317" lon="6.33718">
        <ele>143.2002</ele>
        <time>2026-05-20T09:12:27+02:00</time>
      </trkpt>
      <trkpt lat="49.45317" lon="6.33711">
        <ele>143.2998</ele>
        <time>2026-05-20T09:12:28+02:00</time>
      </trkpt>
      <trkpt lat="49.45316" lon="6.33703">
        <ele>143.40039</ele>
        <time>2026-05-20T09:12:29+02:00</time>
      </trkpt>
      <trkpt lat="49.45316" lon="6.33695">
        <ele>143.5</ele>
        <time>2026-05-20T09:12:30+02:00</time>
      </trkpt>
      <trkpt lat="49.45315" lon="6.33687">
        <ele>143.60059</ele>
        <time>2026-05-20T09:12:31+02:00</time>
      </trkpt>
      <trkpt lat="49.45315" lon="6.3368">
        <ele>143.60059</ele>
        <time>2026-05-20T09:12:32+02:00</time>
      </trkpt>
      <trkpt lat="49.45314" lon="6.33672">
        <ele>143.60059</ele>
        <time>2026-05-20T09:12:33+02:00</time>
      </trkpt>
      <trkpt lat="49.45313" lon="6.33665">
        <ele>143.7002</ele>
        <time>2026-05-20T09:12:34+02:00</time>
      </trkpt>
      <trkpt lat="49.45313" lon="6.33657">
        <ele>143.7998</ele>
        <time>2026-05-20T09:12:35+02:00</time>
      </trkpt>
      <trkpt lat="49.45312" lon="6.3365">
        <ele>143.90039</ele>
        <time>2026-05-20T09:12:36+02:00</time>
      </trkpt>
      <trkpt lat="49.45312" lon="6.33642">
        <ele>143.90039</ele>
        <time>2026-05-20T09:12:37+02:00</time>
      </trkpt>
      <trkpt lat="49.45311" lon="6.33634">
        <ele>142.7998</ele>
        <time>2026-05-20T09:12:38+02:00</time>
      </trkpt>
      <trkpt lat="49.4531" lon="6.33627">
        <ele>142.7998</ele>
        <time>2026-05-20T09:12:39+02:00</time>
      </trkpt>
      <trkpt lat="49.4531" lon="6.3362">
        <ele>142.7998</ele>
        <time>2026-05-20T09:12:40+02:00</time>
      </trkpt>
      <trkpt lat="49.45308" lon="6.33612">
        <ele>142.90039</ele>
        <time>2026-05-20T09:12:41+02:00</time>
      </trkpt>
      <trkpt lat="49.45308" lon="6.33605">
        <ele>143</ele>
        <time>2026-05-20T09:12:42+02:00</time>
      </trkpt>
      <trkpt lat="49.45307" lon="6.33597">
        <ele>143</ele>
        <time>2026-05-20T09:12:43+02:00</time>
      </trkpt>
      <trkpt lat="49.45305" lon="6.3359">
        <ele>142.2002</ele>
        <time>2026-05-20T09:12:44+02:00</time>
      </trkpt>
      <trkpt lat="49.45304" lon="6.33582">
        <ele>142.2002</ele>
        <time>2026-05-20T09:12:45+02:00</time>
      </trkpt>
      <trkpt lat="49.45303" lon="6.33574">
        <ele>142.2002</ele>
        <time>2026-05-20T09:12:46+02:00</time>
      </trkpt>
      <trkpt lat="49.45302" lon="6.33567">
        <ele>142.2998</ele>
        <time>2026-05-20T09:12:47+02:00</time>
      </trkpt>
      <trkpt lat="49.453" lon="6.3356">
        <ele>141.7998</ele>
        <time>2026-05-20T09:12:48+02:00</time>
      </trkpt>
      <trkpt lat="49.45299" lon="6.33552">
        <ele>141.90039</ele>
        <time>2026-05-20T09:12:49+02:00</time>
      </trkpt>
      <trkpt lat="49.45298" lon="6.33545">
        <ele>141.90039</ele>
        <time>2026-05-20T09:12:50+02:00</time>
      </trkpt>
      <trkpt lat="49.45297" lon="6.33538">
        <ele>141.90039</ele>
        <time>2026-05-20T09:12:51+02:00</time>
      </trkpt>
      <trkpt lat="49.45296" lon="6.3353">
        <ele>141.90039</ele>
        <time>2026-05-20T09:12:52+02:00</time>
      </trkpt>
      <trkpt lat="49.45294" lon="6.33522">
        <ele>141.5</ele>
        <time>2026-05-20T09:12:53+02:00</time>
      </trkpt>
      <trkpt lat="49.45293" lon="6.33514">
        <ele>141.5</ele>
        <time>2026-05-20T09:12:54+02:00</time>
      </trkpt>
      <trkpt lat="49.45291" lon="6.33506">
        <ele>141.40039</ele>
        <time>2026-05-20T09:12:55+02:00</time>
      </trkpt>
      <trkpt lat="49.4529" lon="6.33498">
        <ele>141.2002</ele>
        <time>2026-05-20T09:12:56+02:00</time>
      </trkpt>
      <trkpt lat="49.45289" lon="6.3349">
        <ele>141.2002</ele>
        <time>2026-05-20T09:12:57+02:00</time>
      </trkpt>
      <trkpt lat="49.45287" lon="6.33483">
        <ele>141.2002</ele>
        <time>2026-05-20T09:12:58+02:00</time>
      </trkpt>
      <trkpt lat="49.45286" lon="6.33475">
        <ele>141.40039</ele>
        <time>2026-05-20T09:12:59+02:00</time>
      </trkpt>
      <trkpt lat="49.45284" lon="6.33467">
        <ele>141.90039</ele>
        <time>2026-05-20T09:13:00+02:00</time>
      </trkpt>
      <trkpt lat="49.45283" lon="6.33459">
        <ele>142.2002</ele>
        <time>2026-05-20T09:13:01+02:00</time>
      </trkpt>
      <trkpt lat="49.45281" lon="6.33451">
        <ele>142.60059</ele>
        <time>2026-05-20T09:13:02+02:00</time>
      </trkpt>
      <trkpt lat="49.4528" lon="6.33443">
        <ele>142.7998</ele>
        <time>2026-05-20T09:13:03+02:00</time>
      </trkpt>
      <trkpt lat="49.45279" lon="6.33435">
        <ele>143</ele>
        <time>2026-05-20T09:13:04+02:00</time>
      </trkpt>
      <trkpt lat="49.45278" lon="6.33427">
        <ele>142.10059</ele>
        <time>2026-05-20T09:13:05+02:00</time>
      </trkpt>
      <trkpt lat="49.45276" lon="6.33419">
        <ele>142.2002</ele>
        <time>2026-05-20T09:13:06+02:00</time>
      </trkpt>
      <trkpt lat="49.45275" lon="6.33411">
        <ele>142.2002</ele>
        <time>2026-05-20T09:13:07+02:00</time>
      </trkpt>
      <trkpt lat="49.45274" lon="6.33403">
        <ele>142.2998</ele>
        <time>2026-05-20T09:13:08+02:00</time>
      </trkpt>
      <trkpt lat="49.45273" lon="6.33395">
        <ele>142.2998</ele>
        <time>2026-05-20T09:13:09+02:00</time>
      </trkpt>
      <trkpt lat="49.45272" lon="6.33388">
        <ele>141.90039</ele>
        <time>2026-05-20T09:13:10+02:00</time>
      </trkpt>
      <trkpt lat="49.45271" lon="6.3338">
        <ele>141.90039</ele>
        <time>2026-05-20T09:13:11+02:00</time>
      </trkpt>
      <trkpt lat="49.4527" lon="6.33372">
        <ele>141.90039</ele>
        <time>2026-05-20T09:13:12+02:00</time>
      </trkpt>
      <trkpt lat="49.45269" lon="6.33365">
        <ele>141.90039</ele>
        <time>2026-05-20T09:13:13+02:00</time>
      </trkpt>
      <trkpt lat="49.45268" lon="6.33357">
        <ele>141.90039</ele>
        <time>2026-05-20T09:13:14+02:00</time>
      </trkpt>
      <trkpt lat="49.45266" lon="6.3335">
        <ele>141.60059</ele>
        <time>2026-05-20T09:13:15+02:00</time>
      </trkpt>
      <trkpt lat="49.45265" lon="6.33342">
        <ele>141.60059</ele>
        <time>2026-05-20T09:13:16+02:00</time>
      </trkpt>
      <trkpt lat="49.45265" lon="6.33334">
        <ele>141.60059</ele>
        <time>2026-05-20T09:13:17+02:00</time>
      </trkpt>
      <trkpt lat="49.45263" lon="6.33326">
        <ele>141.60059</ele>
        <time>2026-05-20T09:13:18+02:00</time>
      </trkpt>
      <trkpt lat="49.45262" lon="6.33318">
        <ele>141.60059</ele>
        <time>2026-05-20T09:13:19+02:00</time>
      </trkpt>
      <trkpt lat="49.45261" lon="6.33311">
        <ele>141.5</ele>
        <time>2026-05-20T09:13:20+02:00</time>
      </trkpt>
      <trkpt lat="49.4526" lon="6.33303">
        <ele>141.5</ele>
        <time>2026-05-20T09:13:21+02:00</time>
      </trkpt>
      <trkpt lat="49.45259" lon="6.33295">
        <ele>141.5</ele>
        <time>2026-05-20T09:13:22+02:00</time>
      </trkpt>
      <trkpt lat="49.45258" lon="6.33288">
        <ele>141.5</ele>
        <time>2026-05-20T09:13:23+02:00</time>
      </trkpt>
      <trkpt lat="49.45257" lon="6.3328">
        <ele>141.5</ele>
        <time>2026-05-20T09:13:24+02:00</time>
      </trkpt>
      <trkpt lat="49.45256" lon="6.33272">
        <ele>141.5</ele>
        <time>2026-05-20T09:13:25+02:00</time>
      </trkpt>
      <trkpt lat="49.45255" lon="6.33264">
        <ele>141.60059</ele>
        <time>2026-05-20T09:13:26+02:00</time>
      </trkpt>
      <trkpt lat="49.45254" lon="6.33256">
        <ele>141.5</ele>
        <time>2026-05-20T09:13:27+02:00</time>
      </trkpt>
      <trkpt lat="49.45253" lon="6.33248">
        <ele>141.5</ele>
        <time>2026-05-20T09:13:28+02:00</time>
      </trkpt>
      <trkpt lat="49.45251" lon="6.3324">
        <ele>141.60059</ele>
        <time>2026-05-20T09:13:29+02:00</time>
      </trkpt>
      <trkpt lat="49.4525" lon="6.33232">
        <ele>141.90039</ele>
        <time>2026-05-20T09:13:30+02:00</time>
      </trkpt>
      <trkpt lat="49.45249" lon="6.33224">
        <ele>142</ele>
        <time>2026-05-20T09:13:31+02:00</time>
      </trkpt>
      <trkpt lat="49.45247" lon="6.33216">
        <ele>142</ele>
        <time>2026-05-20T09:13:32+02:00</time>
      </trkpt>
      <trkpt lat="49.45245" lon="6.33208">
        <ele>142.2002</ele>
        <time>2026-05-20T09:13:33+02:00</time>
      </trkpt>
      <trkpt lat="49.45244" lon="6.332">
        <ele>141.90039</ele>
        <time>2026-05-20T09:13:34+02:00</time>
      </trkpt>
      <trkpt lat="49.45242" lon="6.33192">
        <ele>141.90039</ele>
        <time>2026-05-20T09:13:35+02:00</time>
      </trkpt>
      <trkpt lat="49.4524" lon="6.33184">
        <ele>141.90039</ele>
        <time>2026-05-20T09:13:36+02:00</time>
      </trkpt>
      <trkpt lat="49.45238" lon="6.33177">
        <ele>141.7002</ele>
        <time>2026-05-20T09:13:37+02:00</time>
      </trkpt>
      <trkpt lat="49.45236" lon="6.33169">
        <ele>141.60059</ele>
        <time>2026-05-20T09:13:38+02:00</time>
      </trkpt>
      <trkpt lat="49.45234" lon="6.33161">
        <ele>141.5</ele>
        <time>2026-05-20T09:13:39+02:00</time>
      </trkpt>
      <trkpt lat="49.45232" lon="6.33153">
        <ele>141.5</ele>
        <time>2026-05-20T09:13:40+02:00</time>
      </trkpt>
      <trkpt lat="49.4523" lon="6.33145">
        <ele>141.5</ele>
        <time>2026-05-20T09:13:41+02:00</time>
      </trkpt>
      <trkpt lat="49.45228" lon="6.33138">
        <ele>141.7002</ele>
        <time>2026-05-20T09:13:42+02:00</time>
      </trkpt>
      <trkpt lat="49.45226" lon="6.3313">
        <ele>141.90039</ele>
        <time>2026-05-20T09:13:43+02:00</time>
      </trkpt>
      <trkpt lat="49.45223" lon="6.33122">
        <ele>141.90039</ele>
        <time>2026-05-20T09:13:44+02:00</time>
      </trkpt>
      <trkpt lat="49.45221" lon="6.33115">
        <ele>142</ele>
        <time>2026-05-20T09:13:45+02:00</time>
      </trkpt>
      <trkpt lat="49.45218" lon="6.33108">
        <ele>142</ele>
        <time>2026-05-20T09:13:46+02:00</time>
      </trkpt>
      <trkpt lat="49.45215" lon="6.331">
        <ele>141.7998</ele>
        <time>2026-05-20T09:13:47+02:00</time>
      </trkpt>
      <trkpt lat="49.45212" lon="6.33093">
        <ele>141.7002</ele>
        <time>2026-05-20T09:13:48+02:00</time>
      </trkpt>
      <trkpt lat="49.45209" lon="6.33086">
        <ele>141.60059</ele>
        <time>2026-05-20T09:13:49+02:00</time>
      </trkpt>
      <trkpt lat="49.45206" lon="6.33078">
        <ele>141.60059</ele>
        <time>2026-05-20T09:13:50+02:00</time>
      </trkpt>
      <trkpt lat="49.45203" lon="6.33071">
        <ele>141.7002</ele>
        <time>2026-05-20T09:13:51+02:00</time>
      </trkpt>
      <trkpt lat="49.452" lon="6.33064">
        <ele>141.90039</ele>
        <time>2026-05-20T09:13:52+02:00</time>
      </trkpt>
      <trkpt lat="49.45197" lon="6.33056">
        <ele>141.90039</ele>
        <time>2026-05-20T09:13:53+02:00</time>
      </trkpt>
      <trkpt lat="49.45194" lon="6.33049">
        <ele>141.90039</ele>
        <time>2026-05-20T09:13:54+02:00</time>
      </trkpt>
      <trkpt lat="49.45191" lon="6.33041">
        <ele>141.90039</ele>
        <time>2026-05-20T09:13:55+02:00</time>
      </trkpt>
      <trkpt lat="49.45188" lon="6.33034">
        <ele>141.7002</ele>
        <time>2026-05-20T09:13:56+02:00</time>
      </trkpt>
      <trkpt lat="49.45184" lon="6.33027">
        <ele>141.60059</ele>
        <time>2026-05-20T09:13:57+02:00</time>
      </trkpt>
      <trkpt lat="49.45181" lon="6.33019">
        <ele>141.7002</ele>
        <time>2026-05-20T09:13:58+02:00</time>
      </trkpt>
      <trkpt lat="49.45179" lon="6.33012">
        <ele>141.60059</ele>
        <time>2026-05-20T09:13:59+02:00</time>
      </trkpt>
      <trkpt lat="49.45175" lon="6.33005">
        <ele>141.7998</ele>
        <time>2026-05-20T09:14:00+02:00</time>
      </trkpt>
      <trkpt lat="49.45172" lon="6.32998">
        <ele>141.90039</ele>
        <time>2026-05-20T09:14:01+02:00</time>
      </trkpt>
      <trkpt lat="49.4517" lon="6.32991">
        <ele>141.7998</ele>
        <time>2026-05-20T09:14:02+02:00</time>
      </trkpt>
      <trkpt lat="49.45167" lon="6.32984">
        <ele>141.7998</ele>
        <time>2026-05-20T09:14:03+02:00</time>
      </trkpt>
      <trkpt lat="49.45164" lon="6.32978">
        <ele>141.7002</ele>
        <time>2026-05-20T09:14:04+02:00</time>
      </trkpt>
      <trkpt lat="49.45161" lon="6.32971">
        <ele>141.7002</ele>
        <time>2026-05-20T09:14:05+02:00</time>
      </trkpt>
      <trkpt lat="49.45158" lon="6.32964">
        <ele>141.90039</ele>
        <time>2026-05-20T09:14:06+02:00</time>
      </trkpt>
      <trkpt lat="49.45155" lon="6.32958">
        <ele>142</ele>
        <time>2026-05-20T09:14:07+02:00</time>
      </trkpt>
      <trkpt lat="49.45152" lon="6.32951">
        <ele>142</ele>
        <time>2026-05-20T09:14:08+02:00</time>
      </trkpt>
      <trkpt lat="49.4515" lon="6.32944">
        <ele>142.2998</ele>
        <time>2026-05-20T09:14:09+02:00</time>
      </trkpt>
      <trkpt lat="49.45147" lon="6.32938">
        <ele>142.10059</ele>
        <time>2026-05-20T09:14:10+02:00</time>
      </trkpt>
      <trkpt lat="49.45144" lon="6.32931">
        <ele>142.40039</ele>
        <time>2026-05-20T09:14:11+02:00</time>
      </trkpt>
      <trkpt lat="49.45142" lon="6.32925">
        <ele>142.40039</ele>
        <time>2026-05-20T09:14:12+02:00</time>
      </trkpt>
      <trkpt lat="49.45139" lon="6.32918">
        <ele>143.2998</ele>
        <time>2026-05-20T09:14:13+02:00</time>
      </trkpt>
      <trkpt lat="49.45136" lon="6.32911">
        <ele>144.10059</ele>
        <time>2026-05-20T09:14:14+02:00</time>
      </trkpt>
      <trkpt lat="49.45133" lon="6.32904">
        <ele>144.5</ele>
        <time>2026-05-20T09:14:15+02:00</time>
      </trkpt>
      <trkpt lat="49.4513" lon="6.32897">
        <ele>145.10059</ele>
        <time>2026-05-20T09:14:16+02:00</time>
      </trkpt>
      <trkpt lat="49.45127" lon="6.32891">
        <ele>144.7998</ele>
        <time>2026-05-20T09:14:17+02:00</time>
      </trkpt>
      <trkpt lat="49.45125" lon="6.32884">
        <ele>145.40039</ele>
        <time>2026-05-20T09:14:18+02:00</time>
      </trkpt>
      <trkpt lat="49.45122" lon="6.32877">
        <ele>145.90039</ele>
        <time>2026-05-20T09:14:19+02:00</time>
      </trkpt>
      <trkpt lat="49.45119" lon="6.3287">
        <ele>146.10059</ele>
        <time>2026-05-20T09:14:20+02:00</time>
      </trkpt>
      <trkpt lat="49.45116" lon="6.32863">
        <ele>146.2002</ele>
        <time>2026-05-20T09:14:21+02:00</time>
      </trkpt>
      <trkpt lat="49.45113" lon="6.32856">
        <ele>146.2002</ele>
        <time>2026-05-20T09:14:22+02:00</time>
      </trkpt>
      <trkpt lat="49.4511" lon="6.32849">
        <ele>146.2998</ele>
        <time>2026-05-20T09:14:23+02:00</time>
      </trkpt>
      <trkpt lat="49.45107" lon="6.32842">
        <ele>146.60059</ele>
        <time>2026-05-20T09:14:24+02:00</time>
      </trkpt>
      <trkpt lat="49.45104" lon="6.32835">
        <ele>146.60059</ele>
        <time>2026-05-20T09:14:25+02:00</time>
      </trkpt>
      <trkpt lat="49.45101" lon="6.32828">
        <ele>146.90039</ele>
        <time>2026-05-20T09:14:26+02:00</time>
      </trkpt>
      <trkpt lat="49.45098" lon="6.32821">
        <ele>146.90039</ele>
        <time>2026-05-20T09:14:27+02:00</time>
      </trkpt>
      <trkpt lat="49.45095" lon="6.32814">
        <ele>146.90039</ele>
        <time>2026-05-20T09:14:28+02:00</time>
      </trkpt>
      <trkpt lat="49.45092" lon="6.32806">
        <ele>147</ele>
        <time>2026-05-20T09:14:29+02:00</time>
      </trkpt>
      <trkpt lat="49.45089" lon="6.32799">
        <ele>147.2998</ele>
        <time>2026-05-20T09:14:30+02:00</time>
      </trkpt>
      <trkpt lat="49.45086" lon="6.32792">
        <ele>147.40039</ele>
        <time>2026-05-20T09:14:31+02:00</time>
      </trkpt>
      <trkpt lat="49.45083" lon="6.32785">
        <ele>147.40039</ele>
        <time>2026-05-20T09:14:32+02:00</time>
      </trkpt>
      <trkpt lat="49.4508" lon="6.32777">
        <ele>147.7002</ele>
        <time>2026-05-20T09:14:33+02:00</time>
      </trkpt>
      <trkpt lat="49.45077" lon="6.3277">
        <ele>147.5</ele>
        <time>2026-05-20T09:14:34+02:00</time>
      </trkpt>
      <trkpt lat="49.45073" lon="6.32763">
        <ele>147.7002</ele>
        <time>2026-05-20T09:14:35+02:00</time>
      </trkpt>
      <trkpt lat="49.4507" lon="6.32755">
        <ele>147.60059</ele>
        <time>2026-05-20T09:14:36+02:00</time>
      </trkpt>
      <trkpt lat="49.45067" lon="6.32748">
        <ele>147.7002</ele>
        <time>2026-05-20T09:14:37+02:00</time>
      </trkpt>
      <trkpt lat="49.45064" lon="6.32741">
        <ele>147.60059</ele>
        <time>2026-05-20T09:14:38+02:00</time>
      </trkpt>
      <trkpt lat="49.45061" lon="6.32733">
        <ele>147.7998</ele>
        <time>2026-05-20T09:14:39+02:00</time>
      </trkpt>
      <trkpt lat="49.45058" lon="6.32726">
        <ele>147.7002</ele>
        <time>2026-05-20T09:14:40+02:00</time>
      </trkpt>
      <trkpt lat="49.45055" lon="6.32719">
        <ele>147.5</ele>
        <time>2026-05-20T09:14:41+02:00</time>
      </trkpt>
      <trkpt lat="49.45051" lon="6.32711">
        <ele>147.60059</ele>
        <time>2026-05-20T09:14:42+02:00</time>
      </trkpt>
      <trkpt lat="49.45048" lon="6.32704">
        <ele>147.5</ele>
        <time>2026-05-20T09:14:43+02:00</time>
      </trkpt>
      <trkpt lat="49.45045" lon="6.32698">
        <ele>147.7002</ele>
        <time>2026-05-20T09:14:44+02:00</time>
      </trkpt>
      <trkpt lat="49.45041" lon="6.32691">
        <ele>147.60059</ele>
        <time>2026-05-20T09:14:45+02:00</time>
      </trkpt>
      <trkpt lat="49.45038" lon="6.32684">
        <ele>147.2002</ele>
        <time>2026-05-20T09:14:46+02:00</time>
      </trkpt>
      <trkpt lat="49.45035" lon="6.32678">
        <ele>147.2998</ele>
        <time>2026-05-20T09:14:47+02:00</time>
      </trkpt>
      <trkpt lat="49.45031" lon="6.32671">
        <ele>147.10059</ele>
        <time>2026-05-20T09:14:48+02:00</time>
      </trkpt>
      <trkpt lat="49.45028" lon="6.32665">
        <ele>147.40039</ele>
        <time>2026-05-20T09:14:49+02:00</time>
      </trkpt>
      <trkpt lat="49.45025" lon="6.32659">
        <ele>147</ele>
        <time>2026-05-20T09:14:50+02:00</time>
      </trkpt>
      <trkpt lat="49.45022" lon="6.32653">
        <ele>147.2998</ele>
        <time>2026-05-20T09:14:51+02:00</time>
      </trkpt>
      <trkpt lat="49.45019" lon="6.32647">
        <ele>147.2002</ele>
        <time>2026-05-20T09:14:52+02:00</time>
      </trkpt>
      <trkpt lat="49.45016" lon="6.32642">
        <ele>147.2002</ele>
        <time>2026-05-20T09:14:53+02:00</time>
      </trkpt>
      <trkpt lat="49.45012" lon="6.32637">
        <ele>147.10059</ele>
        <time>2026-05-20T09:14:54+02:00</time>
      </trkpt>
      <trkpt lat="49.45008" lon="6.32636">
        <ele>146.7998</ele>
        <time>2026-05-20T09:14:55+02:00</time>
      </trkpt>
      <trkpt lat="49.45003" lon="6.32637">
        <ele>146.5</ele>
        <time>2026-05-20T09:14:56+02:00</time>
      </trkpt>
      <trkpt lat="49.44999" lon="6.3264">
        <ele>146.2002</ele>
        <time>2026-05-20T09:14:57+02:00</time>
      </trkpt>
      <trkpt lat="49.44994" lon="6.32643">
        <ele>146</ele>
        <time>2026-05-20T09:14:58+02:00</time>
      </trkpt>
      <trkpt lat="49.44989" lon="6.32647">
        <ele>145.7002</ele>
        <time>2026-05-20T09:14:59+02:00</time>
      </trkpt>
      <trkpt lat="49.44983" lon="6.3265">
        <ele>145.2002</ele>
        <time>2026-05-20T09:15:00+02:00</time>
      </trkpt>
      <trkpt lat="49.44978" lon="6.32654">
        <ele>145</ele>
        <time>2026-05-20T09:15:01+02:00</time>
      </trkpt>
      <trkpt lat="49.44973" lon="6.32658">
        <ele>144.7998</ele>
        <time>2026-05-20T09:15:02+02:00</time>
      </trkpt>
      <trkpt lat="49.44968" lon="6.32662">
        <ele>144.60059</ele>
        <time>2026-05-20T09:15:03+02:00</time>
      </trkpt>
      <trkpt lat="49.44963" lon="6.32665">
        <ele>144.5</ele>
        <time>2026-05-20T09:15:04+02:00</time>
      </trkpt>
      <trkpt lat="49.44958" lon="6.32669">
        <ele>144.10059</ele>
        <time>2026-05-20T09:15:05+02:00</time>
      </trkpt>
      <trkpt lat="49.44953" lon="6.32672">
        <ele>144</ele>
        <time>2026-05-20T09:15:06+02:00</time>
      </trkpt>
      <trkpt lat="49.44949" lon="6.32675">
        <ele>143.90039</ele>
        <time>2026-05-20T09:15:07+02:00</time>
      </trkpt>
      <trkpt lat="49.44945" lon="6.32678">
        <ele>143.5</ele>
        <time>2026-05-20T09:15:08+02:00</time>
      </trkpt>
      <trkpt lat="49.4494" lon="6.32681">
        <ele>143.40039</ele>
        <time>2026-05-20T09:15:09+02:00</time>
      </trkpt>
      <trkpt lat="49.44936" lon="6.32685">
        <ele>142.7998</ele>
        <time>2026-05-20T09:15:10+02:00</time>
      </trkpt>
      <trkpt lat="49.44932" lon="6.32689">
        <ele>142.7002</ele>
        <time>2026-05-20T09:15:11+02:00</time>
      </trkpt>
      <trkpt lat="49.44928" lon="6.32691">
        <ele>142.7002</ele>
        <time>2026-05-20T09:15:12+02:00</time>
      </trkpt>
      <trkpt lat="49.44923" lon="6.32692">
        <ele>142.40039</ele>
        <time>2026-05-20T09:15:13+02:00</time>
      </trkpt>
      <trkpt lat="49.44918" lon="6.32691">
        <ele>142</ele>
        <time>2026-05-20T09:15:14+02:00</time>
      </trkpt>
      <trkpt lat="49.44914" lon="6.32689">
        <ele>141.7998</ele>
        <time>2026-05-20T09:15:15+02:00</time>
      </trkpt>
      <trkpt lat="49.44909" lon="6.32685">
        <ele>141.7002</ele>
        <time>2026-05-20T09:15:16+02:00</time>
      </trkpt>
      <trkpt lat="49.44906" lon="6.3268">
        <ele>141.90039</ele>
        <time>2026-05-20T09:15:17+02:00</time>
      </trkpt>
      <trkpt lat="49.44902" lon="6.32674">
        <ele>142.2998</ele>
        <time>2026-05-20T09:15:18+02:00</time>
      </trkpt>
      <trkpt lat="49.44898" lon="6.32669">
        <ele>142.2998</ele>
        <time>2026-05-20T09:15:19+02:00</time>
      </trkpt>
      <trkpt lat="49.44895" lon="6.32663">
        <ele>143</ele>
        <time>2026-05-20T09:15:20+02:00</time>
      </trkpt>
      <trkpt lat="49.44891" lon="6.32657">
        <ele>143.7002</ele>
        <time>2026-05-20T09:15:21+02:00</time>
      </trkpt>
      <trkpt lat="49.44887" lon="6.3265">
        <ele>143.5</ele>
        <time>2026-05-20T09:15:22+02:00</time>
      </trkpt>
      <trkpt lat="49.44883" lon="6.32644">
        <ele>144.10059</ele>
        <time>2026-05-20T09:15:23+02:00</time>
      </trkpt>
      <trkpt lat="49.4488" lon="6.32638">
        <ele>144.2998</ele>
        <time>2026-05-20T09:15:24+02:00</time>
      </trkpt>
      <trkpt lat="49.44876" lon="6.32634">
        <ele>144</ele>
        <time>2026-05-20T09:15:25+02:00</time>
      </trkpt>
      <trkpt lat="49.44873" lon="6.32634">
        <ele>144</ele>
        <time>2026-05-20T09:15:26+02:00</time>
      </trkpt>
      <trkpt lat="49.4487" lon="6.32634">
        <ele>143.7002</ele>
        <time>2026-05-20T09:15:27+02:00</time>
      </trkpt>
      <trkpt lat="49.44867" lon="6.32635">
        <ele>143.7002</ele>
        <time>2026-05-20T09:15:28+02:00</time>
      </trkpt>
      <trkpt lat="49.44866" lon="6.32636">
        <ele>143.7002</ele>
        <time>2026-05-20T09:15:29+02:00</time>
      </trkpt>
      <trkpt lat="49.44863" lon="6.32638">
        <ele>143.5</ele>
        <time>2026-05-20T09:15:30+02:00</time>
      </trkpt>
      <trkpt lat="49.4486" lon="6.3264">
        <ele>143.5</ele>
        <time>2026-05-20T09:15:31+02:00</time>
      </trkpt>
      <trkpt lat="49.44856" lon="6.32641">
        <ele>142</ele>
        <time>2026-05-20T09:15:32+02:00</time>
      </trkpt>
      <trkpt lat="49.44853" lon="6.32642">
        <ele>142.10059</ele>
        <time>2026-05-20T09:15:33+02:00</time>
      </trkpt>
      <trkpt lat="49.44849" lon="6.32644">
        <ele>142.10059</ele>
        <time>2026-05-20T09:15:34+02:00</time>
      </trkpt>
      <trkpt lat="49.44845" lon="6.32646">
        <ele>142.10059</ele>
        <time>2026-05-20T09:15:35+02:00</time>
      </trkpt>
      <trkpt lat="49.4484" lon="6.32647">
        <ele>142.10059</ele>
        <time>2026-05-20T09:15:36+02:00</time>
      </trkpt>
      <trkpt lat="49.44835" lon="6.32649">
        <ele>142.10059</ele>
        <time>2026-05-20T09:15:37+02:00</time>
      </trkpt>
      <trkpt lat="49.4483" lon="6.32649">
        <ele>142.10059</ele>
        <time>2026-05-20T09:15:38+02:00</time>
      </trkpt>
      <trkpt lat="49.44825" lon="6.3265">
        <ele>141.90039</ele>
        <time>2026-05-20T09:15:39+02:00</time>
      </trkpt>
      <trkpt lat="49.44819" lon="6.32649">
        <ele>142.10059</ele>
        <time>2026-05-20T09:15:40+02:00</time>
      </trkpt>
      <trkpt lat="49.44814" lon="6.32648">
        <ele>142</ele>
        <time>2026-05-20T09:15:41+02:00</time>
      </trkpt>
      <trkpt lat="49.44809" lon="6.32647">
        <ele>142</ele>
        <time>2026-05-20T09:15:42+02:00</time>
      </trkpt>
      <trkpt lat="49.44803" lon="6.32645">
        <ele>141.90039</ele>
        <time>2026-05-20T09:15:43+02:00</time>
      </trkpt>
      <trkpt lat="49.44798" lon="6.32643">
        <ele>141.7998</ele>
        <time>2026-05-20T09:15:44+02:00</time>
      </trkpt>
      <trkpt lat="49.44792" lon="6.3264">
        <ele>141.7002</ele>
        <time>2026-05-20T09:15:45+02:00</time>
      </trkpt>
      <trkpt lat="49.44787" lon="6.32638">
        <ele>141.7002</ele>
        <time>2026-05-20T09:15:46+02:00</time>
      </trkpt>
      <trkpt lat="49.44781" lon="6.32635">
        <ele>141.7998</ele>
        <time>2026-05-20T09:15:47+02:00</time>
      </trkpt>
      <trkpt lat="49.44776" lon="6.32633">
        <ele>141.7998</ele>
        <time>2026-05-20T09:15:48+02:00</time>
      </trkpt>
      <trkpt lat="49.4477" lon="6.3263">
        <ele>141.7998</ele>
        <time>2026-05-20T09:15:49+02:00</time>
      </trkpt>
      <trkpt lat="49.44764" lon="6.32628">
        <ele>141.7998</ele>
        <time>2026-05-20T09:15:50+02:00</time>
      </trkpt>
      <trkpt lat="49.44759" lon="6.32625">
        <ele>141.90039</ele>
        <time>2026-05-20T09:15:51+02:00</time>
      </trkpt>
      <trkpt lat="49.44753" lon="6.32623">
        <ele>142</ele>
        <time>2026-05-20T09:15:52+02:00</time>
      </trkpt>
      <trkpt lat="49.44748" lon="6.3262">
        <ele>142</ele>
        <time>2026-05-20T09:15:53+02:00</time>
      </trkpt>
      <trkpt lat="49.44743" lon="6.32617">
        <ele>142</ele>
        <time>2026-05-20T09:15:54+02:00</time>
      </trkpt>
      <trkpt lat="49.44737" lon="6.32615">
        <ele>141.90039</ele>
        <time>2026-05-20T09:15:55+02:00</time>
      </trkpt>
      <trkpt lat="49.44732" lon="6.32612">
        <ele>141.90039</ele>
        <time>2026-05-20T09:15:56+02:00</time>
      </trkpt>
      <trkpt lat="49.44727" lon="6.3261">
        <ele>141.7998</ele>
        <time>2026-05-20T09:15:57+02:00</time>
      </trkpt>
      <trkpt lat="49.44722" lon="6.32608">
        <ele>141.7998</ele>
        <time>2026-05-20T09:15:58+02:00</time>
      </trkpt>
      <trkpt lat="49.44717" lon="6.32605">
        <ele>141.7002</ele>
        <time>2026-05-20T09:15:59+02:00</time>
      </trkpt>
      <trkpt lat="49.44712" lon="6.32603">
        <ele>141.7998</ele>
        <time>2026-05-20T09:16:00+02:00</time>
      </trkpt>
      <trkpt lat="49.44707" lon="6.326">
        <ele>141.7998</ele>
        <time>2026-05-20T09:16:01+02:00</time>
      </trkpt>
      <trkpt lat="49.44702" lon="6.32598">
        <ele>141.90039</ele>
        <time>2026-05-20T09:16:02+02:00</time>
      </trkpt>
      <trkpt lat="49.44697" lon="6.32596">
        <ele>141.90039</ele>
        <time>2026-05-20T09:16:03+02:00</time>
      </trkpt>
      <trkpt lat="49.44692" lon="6.32594">
        <ele>141.90039</ele>
        <time>2026-05-20T09:16:04+02:00</time>
      </trkpt>
      <trkpt lat="49.44687" lon="6.32591">
        <ele>141.90039</ele>
        <time>2026-05-20T09:16:05+02:00</time>
      </trkpt>
      <trkpt lat="49.44682" lon="6.32589">
        <ele>141.90039</ele>
        <time>2026-05-20T09:16:06+02:00</time>
      </trkpt>
      <trkpt lat="49.44677" lon="6.32586">
        <ele>141.90039</ele>
        <time>2026-05-20T09:16:07+02:00</time>
      </trkpt>
      <trkpt lat="49.44672" lon="6.32583">
        <ele>141.90039</ele>
        <time>2026-05-20T09:16:08+02:00</time>
      </trkpt>
      <trkpt lat="49.44668" lon="6.32581">
        <ele>141.90039</ele>
        <time>2026-05-20T09:16:09+02:00</time>
      </trkpt>
      <trkpt lat="49.44663" lon="6.32578">
        <ele>141.7998</ele>
        <time>2026-05-20T09:16:10+02:00</time>
      </trkpt>
      <trkpt lat="49.44658" lon="6.32575">
        <ele>141.90039</ele>
        <time>2026-05-20T09:16:11+02:00</time>
      </trkpt>
      <trkpt lat="49.44653" lon="6.32572">
        <ele>141.90039</ele>
        <time>2026-05-20T09:16:12+02:00</time>
      </trkpt>
      <trkpt lat="49.44649" lon="6.32569">
        <ele>141.90039</ele>
        <time>2026-05-20T09:16:13+02:00</time>
      </trkpt>
      <trkpt lat="49.44644" lon="6.32566">
        <ele>141.90039</ele>
        <time>2026-05-20T09:16:14+02:00</time>
      </trkpt>
      <trkpt lat="49.44639" lon="6.32562">
        <ele>141.90039</ele>
        <time>2026-05-20T09:16:15+02:00</time>
      </trkpt>
      <trkpt lat="49.44634" lon="6.32559">
        <ele>141.90039</ele>
        <time>2026-05-20T09:16:16+02:00</time>
      </trkpt>
      <trkpt lat="49.44629" lon="6.32556">
        <ele>141.90039</ele>
        <time>2026-05-20T09:16:17+02:00</time>
      </trkpt>
      <trkpt lat="49.44624" lon="6.32552">
        <ele>141.7998</ele>
        <time>2026-05-20T09:16:18+02:00</time>
      </trkpt>
      <trkpt lat="49.4462" lon="6.32549">
        <ele>141.7998</ele>
        <time>2026-05-20T09:16:19+02:00</time>
      </trkpt>
      <trkpt lat="49.44615" lon="6.32546">
        <ele>141.7998</ele>
        <time>2026-05-20T09:16:20+02:00</time>
      </trkpt>
      <trkpt lat="49.4461" lon="6.32542">
        <ele>141.7998</ele>
        <time>2026-05-20T09:16:21+02:00</time>
      </trkpt>
      <trkpt lat="49.44605" lon="6.32539">
        <ele>141.90039</ele>
        <time>2026-05-20T09:16:22+02:00</time>
      </trkpt>
      <trkpt lat="49.446" lon="6.32536">
        <ele>141.90039</ele>
        <time>2026-05-20T09:16:23+02:00</time>
      </trkpt>
      <trkpt lat="49.44595" lon="6.32532">
        <ele>141.90039</ele>
        <time>2026-05-20T09:16:24+02:00</time>
      </trkpt>
      <trkpt lat="49.4459" lon="6.32529">
        <ele>141.90039</ele>
        <time>2026-05-20T09:16:25+02:00</time>
      </trkpt>
      <trkpt lat="49.44586" lon="6.32526">
        <ele>141.90039</ele>
        <time>2026-05-20T09:16:26+02:00</time>
      </trkpt>
      <trkpt lat="49.44581" lon="6.32522">
        <ele>141.90039</ele>
        <time>2026-05-20T09:16:27+02:00</time>
      </trkpt>
      <trkpt lat="49.44576" lon="6.32519">
        <ele>141.7998</ele>
        <time>2026-05-20T09:16:28+02:00</time>
      </trkpt>
      <trkpt lat="49.44571" lon="6.32516">
        <ele>141.7998</ele>
        <time>2026-05-20T09:16:29+02:00</time>
      </trkpt>
      <trkpt lat="49.44566" lon="6.32513">
        <ele>141.7998</ele>
        <time>2026-05-20T09:16:30+02:00</time>
      </trkpt>
      <trkpt lat="49.44562" lon="6.3251">
        <ele>141.7998</ele>
        <time>2026-05-20T09:16:31+02:00</time>
      </trkpt>
      <trkpt lat="49.44557" lon="6.32507">
        <ele>141.90039</ele>
        <time>2026-05-20T09:16:32+02:00</time>
      </trkpt>
      <trkpt lat="49.44553" lon="6.32504">
        <ele>141.90039</ele>
        <time>2026-05-20T09:16:33+02:00</time>
      </trkpt>
      <trkpt lat="49.44549" lon="6.32501">
        <ele>141.90039</ele>
        <time>2026-05-20T09:16:34+02:00</time>
      </trkpt>
      <trkpt lat="49.44544" lon="6.32498">
        <ele>141.90039</ele>
        <time>2026-05-20T09:16:35+02:00</time>
      </trkpt>
      <trkpt lat="49.44539" lon="6.32494">
        <ele>141.7998</ele>
        <time>2026-05-20T09:16:36+02:00</time>
      </trkpt>
      <trkpt lat="49.44534" lon="6.32491">
        <ele>141.7998</ele>
        <time>2026-05-20T09:16:37+02:00</time>
      </trkpt>
      <trkpt lat="49.44529" lon="6.32487">
        <ele>141.7998</ele>
        <time>2026-05-20T09:16:38+02:00</time>
      </trkpt>
      <trkpt lat="49.44525" lon="6.32484">
        <ele>141.7998</ele>
        <time>2026-05-20T09:16:39+02:00</time>
      </trkpt>
      <trkpt lat="49.4452" lon="6.3248">
        <ele>141.7998</ele>
        <time>2026-05-20T09:16:40+02:00</time>
      </trkpt>
      <trkpt lat="49.44515" lon="6.32477">
        <ele>141.90039</ele>
        <time>2026-05-20T09:16:41+02:00</time>
      </trkpt>
      <trkpt lat="49.4451" lon="6.32473">
        <ele>141.90039</ele>
        <time>2026-05-20T09:16:42+02:00</time>
      </trkpt>
      <trkpt lat="49.44505" lon="6.32468">
        <ele>141.90039</ele>
        <time>2026-05-20T09:16:43+02:00</time>
      </trkpt>
      <trkpt lat="49.445" lon="6.32465">
        <ele>141.90039</ele>
        <time>2026-05-20T09:16:44+02:00</time>
      </trkpt>
      <trkpt lat="49.44496" lon="6.32461">
        <ele>141.90039</ele>
        <time>2026-05-20T09:16:45+02:00</time>
      </trkpt>
      <trkpt lat="49.44491" lon="6.32457">
        <ele>141.7998</ele>
        <time>2026-05-20T09:16:46+02:00</time>
      </trkpt>
      <trkpt lat="49.44486" lon="6.32453">
        <ele>141.90039</ele>
        <time>2026-05-20T09:16:47+02:00</time>
      </trkpt>
      <trkpt lat="49.44481" lon="6.32448">
        <ele>141.7998</ele>
        <time>2026-05-20T09:16:48+02:00</time>
      </trkpt>
      <trkpt lat="49.44476" lon="6.32444">
        <ele>141.90039</ele>
        <time>2026-05-20T09:16:49+02:00</time>
      </trkpt>
      <trkpt lat="49.44471" lon="6.32439">
        <ele>141.90039</ele>
        <time>2026-05-20T09:16:50+02:00</time>
      </trkpt>
      <trkpt lat="49.44467" lon="6.32435">
        <ele>141.90039</ele>
        <time>2026-05-20T09:16:51+02:00</time>
      </trkpt>
      <trkpt lat="49.44462" lon="6.32431">
        <ele>141.90039</ele>
        <time>2026-05-20T09:16:52+02:00</time>
      </trkpt>
      <trkpt lat="49.44457" lon="6.32426">
        <ele>141.90039</ele>
        <time>2026-05-20T09:16:53+02:00</time>
      </trkpt>
      <trkpt lat="49.44452" lon="6.32422">
        <ele>141.90039</ele>
        <time>2026-05-20T09:16:54+02:00</time>
      </trkpt>
      <trkpt lat="49.44448" lon="6.32417">
        <ele>141.90039</ele>
        <time>2026-05-20T09:16:55+02:00</time>
      </trkpt>
      <trkpt lat="49.44443" lon="6.32413">
        <ele>141.90039</ele>
        <time>2026-05-20T09:16:56+02:00</time>
      </trkpt>
      <trkpt lat="49.44438" lon="6.32408">
        <ele>141.90039</ele>
        <time>2026-05-20T09:16:57+02:00</time>
      </trkpt>
      <trkpt lat="49.44434" lon="6.32404">
        <ele>141.90039</ele>
        <time>2026-05-20T09:16:58+02:00</time>
      </trkpt>
      <trkpt lat="49.44429" lon="6.32399">
        <ele>141.90039</ele>
        <time>2026-05-20T09:16:59+02:00</time>
      </trkpt>
      <trkpt lat="49.44425" lon="6.32394">
        <ele>141.90039</ele>
        <time>2026-05-20T09:17:00+02:00</time>
      </trkpt>
      <trkpt lat="49.4442" lon="6.32388">
        <ele>141.90039</ele>
        <time>2026-05-20T09:17:01+02:00</time>
      </trkpt>
      <trkpt lat="49.44416" lon="6.32383">
        <ele>141.90039</ele>
        <time>2026-05-20T09:17:02+02:00</time>
      </trkpt>
      <trkpt lat="49.44412" lon="6.32378">
        <ele>141.90039</ele>
        <time>2026-05-20T09:17:03+02:00</time>
      </trkpt>
      <trkpt lat="49.44407" lon="6.32373">
        <ele>141.90039</ele>
        <time>2026-05-20T09:17:04+02:00</time>
      </trkpt>
      <trkpt lat="49.44403" lon="6.32367">
        <ele>141.90039</ele>
        <time>2026-05-20T09:17:05+02:00</time>
      </trkpt>
      <trkpt lat="49.44399" lon="6.32362">
        <ele>141.7998</ele>
        <time>2026-05-20T09:17:06+02:00</time>
      </trkpt>
      <trkpt lat="49.44396" lon="6.32357">
        <ele>141.7002</ele>
        <time>2026-05-20T09:17:07+02:00</time>
      </trkpt>
      <trkpt lat="49.44392" lon="6.32352">
        <ele>141.7002</ele>
        <time>2026-05-20T09:17:08+02:00</time>
      </trkpt>
      <trkpt lat="49.44388" lon="6.32348">
        <ele>141.7998</ele>
        <time>2026-05-20T09:17:09+02:00</time>
      </trkpt>
      <trkpt lat="49.44384" lon="6.32343">
        <ele>141.90039</ele>
        <time>2026-05-20T09:17:10+02:00</time>
      </trkpt>
      <trkpt lat="49.4438" lon="6.32338">
        <ele>142</ele>
        <time>2026-05-20T09:17:11+02:00</time>
      </trkpt>
      <trkpt lat="49.44376" lon="6.32333">
        <ele>142</ele>
        <time>2026-05-20T09:17:12+02:00</time>
      </trkpt>
      <trkpt lat="49.44372" lon="6.32328">
        <ele>142.10059</ele>
        <time>2026-05-20T09:17:13+02:00</time>
      </trkpt>
      <trkpt lat="49.44356" lon="6.32308">
        <ele>141.7998</ele>
        <time>2026-05-20T09:17:14+02:00</time>
      </trkpt>
      <trkpt lat="49.44352" lon="6.32303">
        <ele>142</ele>
        <time>2026-05-20T09:17:15+02:00</time>
      </trkpt>
      <trkpt lat="49.44348" lon="6.32298">
        <ele>141.90039</ele>
        <time>2026-05-20T09:17:16+02:00</time>
      </trkpt>
      <trkpt lat="49.44344" lon="6.32293">
        <ele>142</ele>
        <time>2026-05-20T09:17:17+02:00</time>
      </trkpt>
      <trkpt lat="49.4434" lon="6.32288">
        <ele>141.7998</ele>
        <time>2026-05-20T09:17:18+02:00</time>
      </trkpt>
      <trkpt lat="49.44336" lon="6.32282">
        <ele>141.7998</ele>
        <time>2026-05-20T09:17:19+02:00</time>
      </trkpt>
      <trkpt lat="49.44332" lon="6.32277">
        <ele>141.7998</ele>
        <time>2026-05-20T09:17:20+02:00</time>
      </trkpt>
      <trkpt lat="49.44328" lon="6.32272">
        <ele>141.7998</ele>
        <time>2026-05-20T09:17:21+02:00</time>
      </trkpt>
      <trkpt lat="49.44324" lon="6.32266">
        <ele>141.90039</ele>
        <time>2026-05-20T09:17:22+02:00</time>
      </trkpt>
      <trkpt lat="49.4432" lon="6.32261">
        <ele>142.10059</ele>
        <time>2026-05-20T09:17:23+02:00</time>
      </trkpt>
      <trkpt lat="49.44316" lon="6.32256">
        <ele>141.7998</ele>
        <time>2026-05-20T09:17:24+02:00</time>
      </trkpt>
      <trkpt lat="49.44312" lon="6.3225">
        <ele>141.60059</ele>
        <time>2026-05-20T09:17:25+02:00</time>
      </trkpt>
      <trkpt lat="49.44308" lon="6.32245">
        <ele>141.90039</ele>
        <time>2026-05-20T09:17:26+02:00</time>
      </trkpt>
      <trkpt lat="49.44304" lon="6.3224">
        <ele>141.7002</ele>
        <time>2026-05-20T09:17:27+02:00</time>
      </trkpt>
      <trkpt lat="49.443" lon="6.32234">
        <ele>141.90039</ele>
        <time>2026-05-20T09:17:28+02:00</time>
      </trkpt>
      <trkpt lat="49.44296" lon="6.32229">
        <ele>141.7998</ele>
        <time>2026-05-20T09:17:29+02:00</time>
      </trkpt>
      <trkpt lat="49.44292" lon="6.32223">
        <ele>141.90039</ele>
        <time>2026-05-20T09:17:30+02:00</time>
      </trkpt>
      <trkpt lat="49.44288" lon="6.32218">
        <ele>141.7002</ele>
        <time>2026-05-20T09:17:31+02:00</time>
      </trkpt>
      <trkpt lat="49.44283" lon="6.32212">
        <ele>141.5</ele>
        <time>2026-05-20T09:17:32+02:00</time>
      </trkpt>
      <trkpt lat="49.44279" lon="6.32206">
        <ele>141.7002</ele>
        <time>2026-05-20T09:17:33+02:00</time>
      </trkpt>
      <trkpt lat="49.44275" lon="6.322">
        <ele>142</ele>
        <time>2026-05-20T09:17:34+02:00</time>
      </trkpt>
      <trkpt lat="49.44271" lon="6.32194">
        <ele>142.2002</ele>
        <time>2026-05-20T09:17:35+02:00</time>
      </trkpt>
      <trkpt lat="49.44267" lon="6.32188">
        <ele>141.60059</ele>
        <time>2026-05-20T09:17:36+02:00</time>
      </trkpt>
      <trkpt lat="49.44263" lon="6.32183">
        <ele>141.7002</ele>
        <time>2026-05-20T09:17:37+02:00</time>
      </trkpt>
      <trkpt lat="49.44259" lon="6.32177">
        <ele>141.7998</ele>
        <time>2026-05-20T09:17:38+02:00</time>
      </trkpt>
      <trkpt lat="49.44256" lon="6.32172">
        <ele>141.60059</ele>
        <time>2026-05-20T09:17:39+02:00</time>
      </trkpt>
      <trkpt lat="49.44251" lon="6.32166">
        <ele>141.90039</ele>
        <time>2026-05-20T09:17:40+02:00</time>
      </trkpt>
      <trkpt lat="49.44248" lon="6.32161">
        <ele>141.90039</ele>
        <time>2026-05-20T09:17:41+02:00</time>
      </trkpt>
      <trkpt lat="49.44243" lon="6.32155">
        <ele>141.90039</ele>
        <time>2026-05-20T09:17:42+02:00</time>
      </trkpt>
      <trkpt lat="49.44239" lon="6.3215">
        <ele>141.5</ele>
        <time>2026-05-20T09:17:43+02:00</time>
      </trkpt>
      <trkpt lat="49.44235" lon="6.32145">
        <ele>141.5</ele>
        <time>2026-05-20T09:17:44+02:00</time>
      </trkpt>
      <trkpt lat="49.4423" lon="6.32141">
        <ele>141.7002</ele>
        <time>2026-05-20T09:17:45+02:00</time>
      </trkpt>
      <trkpt lat="49.44225" lon="6.32138">
        <ele>141.60059</ele>
        <time>2026-05-20T09:17:46+02:00</time>
      </trkpt>
      <trkpt lat="49.4422" lon="6.32134">
        <ele>141.5</ele>
        <time>2026-05-20T09:17:47+02:00</time>
      </trkpt>
      <trkpt lat="49.44215" lon="6.32131">
        <ele>141.2002</ele>
        <time>2026-05-20T09:17:48+02:00</time>
      </trkpt>
      <trkpt lat="49.44209" lon="6.32129">
        <ele>141.10059</ele>
        <time>2026-05-20T09:17:49+02:00</time>
      </trkpt>
      <trkpt lat="49.44204" lon="6.32128">
        <ele>141.2002</ele>
        <time>2026-05-20T09:17:50+02:00</time>
      </trkpt>
      <trkpt lat="49.44198" lon="6.32126">
        <ele>141.40039</ele>
        <time>2026-05-20T09:17:51+02:00</time>
      </trkpt>
      <trkpt lat="49.44192" lon="6.32125">
        <ele>141.5</ele>
        <time>2026-05-20T09:17:52+02:00</time>
      </trkpt>
      <trkpt lat="49.44186" lon="6.32124">
        <ele>141.60059</ele>
        <time>2026-05-20T09:17:53+02:00</time>
      </trkpt>
      <trkpt lat="49.4418" lon="6.32123">
        <ele>141.7002</ele>
        <time>2026-05-20T09:17:54+02:00</time>
      </trkpt>
      <trkpt lat="49.44174" lon="6.32122">
        <ele>141.7998</ele>
        <time>2026-05-20T09:17:55+02:00</time>
      </trkpt>
      <trkpt lat="49.44168" lon="6.3212">
        <ele>141.90039</ele>
        <time>2026-05-20T09:17:56+02:00</time>
      </trkpt>
      <trkpt lat="49.44162" lon="6.32118">
        <ele>142.10059</ele>
        <time>2026-05-20T09:17:57+02:00</time>
      </trkpt>
      <trkpt lat="49.44156" lon="6.32116">
        <ele>142.10059</ele>
        <time>2026-05-20T09:17:58+02:00</time>
      </trkpt>
      <trkpt lat="49.4415" lon="6.32113">
        <ele>142.10059</ele>
        <time>2026-05-20T09:17:59+02:00</time>
      </trkpt>
      <trkpt lat="49.44145" lon="6.32111">
        <ele>142.10059</ele>
        <time>2026-05-20T09:18:00+02:00</time>
      </trkpt>
      <trkpt lat="49.44138" lon="6.32109">
        <ele>142.10059</ele>
        <time>2026-05-20T09:18:01+02:00</time>
      </trkpt>
      <trkpt lat="49.44133" lon="6.32107">
        <ele>141.90039</ele>
        <time>2026-05-20T09:18:02+02:00</time>
      </trkpt>
      <trkpt lat="49.44127" lon="6.32105">
        <ele>141.90039</ele>
        <time>2026-05-20T09:18:03+02:00</time>
      </trkpt>
      <trkpt lat="49.44121" lon="6.32102">
        <ele>142</ele>
        <time>2026-05-20T09:18:04+02:00</time>
      </trkpt>
      <trkpt lat="49.44116" lon="6.321">
        <ele>142</ele>
        <time>2026-05-20T09:18:05+02:00</time>
      </trkpt>
      <trkpt lat="49.44111" lon="6.32098">
        <ele>142.2002</ele>
        <time>2026-05-20T09:18:06+02:00</time>
      </trkpt>
      <trkpt lat="49.44106" lon="6.32096">
        <ele>142.2002</ele>
        <time>2026-05-20T09:18:07+02:00</time>
      </trkpt>
      <trkpt lat="49.441" lon="6.32094">
        <ele>142.2998</ele>
        <time>2026-05-20T09:18:08+02:00</time>
      </trkpt>
      <trkpt lat="49.44095" lon="6.32092">
        <ele>142.2998</ele>
        <time>2026-05-20T09:18:09+02:00</time>
      </trkpt>
      <trkpt lat="49.4409" lon="6.32089">
        <ele>142.2002</ele>
        <time>2026-05-20T09:18:10+02:00</time>
      </trkpt>
      <trkpt lat="49.44085" lon="6.32086">
        <ele>142.2002</ele>
        <time>2026-05-20T09:18:11+02:00</time>
      </trkpt>
      <trkpt lat="49.4408" lon="6.32082">
        <ele>142</ele>
        <time>2026-05-20T09:18:12+02:00</time>
      </trkpt>
      <trkpt lat="49.44075" lon="6.32078">
        <ele>142</ele>
        <time>2026-05-20T09:18:13+02:00</time>
      </trkpt>
      <trkpt lat="49.4407" lon="6.32075">
        <ele>142</ele>
        <time>2026-05-20T09:18:14+02:00</time>
      </trkpt>
      <trkpt lat="49.44064" lon="6.32071">
        <ele>141.7998</ele>
        <time>2026-05-20T09:18:15+02:00</time>
      </trkpt>
      <trkpt lat="49.44059" lon="6.32067">
        <ele>141.7998</ele>
        <time>2026-05-20T09:18:16+02:00</time>
      </trkpt>
      <trkpt lat="49.44053" lon="6.32063">
        <ele>141.90039</ele>
        <time>2026-05-20T09:18:17+02:00</time>
      </trkpt>
      <trkpt lat="49.44048" lon="6.3206">
        <ele>142.10059</ele>
        <time>2026-05-20T09:18:18+02:00</time>
      </trkpt>
      <trkpt lat="49.44043" lon="6.32056">
        <ele>142.2998</ele>
        <time>2026-05-20T09:18:19+02:00</time>
      </trkpt>
      <trkpt lat="49.44037" lon="6.32052">
        <ele>142.2002</ele>
        <time>2026-05-20T09:18:20+02:00</time>
      </trkpt>
      <trkpt lat="49.44032" lon="6.32049">
        <ele>142.2002</ele>
        <time>2026-05-20T09:18:21+02:00</time>
      </trkpt>
      <trkpt lat="49.44026" lon="6.32045">
        <ele>141.7002</ele>
        <time>2026-05-20T09:18:22+02:00</time>
      </trkpt>
      <trkpt lat="49.44021" lon="6.32042">
        <ele>141.7998</ele>
        <time>2026-05-20T09:18:23+02:00</time>
      </trkpt>
      <trkpt lat="49.44015" lon="6.32038">
        <ele>141.60059</ele>
        <time>2026-05-20T09:18:24+02:00</time>
      </trkpt>
      <trkpt lat="49.4401" lon="6.32034">
        <ele>141.7998</ele>
        <time>2026-05-20T09:18:25+02:00</time>
      </trkpt>
      <trkpt lat="49.44005" lon="6.3203">
        <ele>142.2002</ele>
        <time>2026-05-20T09:18:26+02:00</time>
      </trkpt>
      <trkpt lat="49.44" lon="6.32026">
        <ele>142.2998</ele>
        <time>2026-05-20T09:18:27+02:00</time>
      </trkpt>
      <trkpt lat="49.43994" lon="6.32022">
        <ele>142.2002</ele>
        <time>2026-05-20T09:18:28+02:00</time>
      </trkpt>
      <trkpt lat="49.43989" lon="6.32018">
        <ele>142.10059</ele>
        <time>2026-05-20T09:18:29+02:00</time>
      </trkpt>
      <trkpt lat="49.43984" lon="6.32014">
        <ele>141.7002</ele>
        <time>2026-05-20T09:18:30+02:00</time>
      </trkpt>
      <trkpt lat="49.43978" lon="6.3201">
        <ele>141.7002</ele>
        <time>2026-05-20T09:18:31+02:00</time>
      </trkpt>
      <trkpt lat="49.43973" lon="6.32005">
        <ele>141.7002</ele>
        <time>2026-05-20T09:18:32+02:00</time>
      </trkpt>
      <trkpt lat="49.43967" lon="6.32002">
        <ele>142.2002</ele>
        <time>2026-05-20T09:18:33+02:00</time>
      </trkpt>
      <trkpt lat="49.43962" lon="6.31998">
        <ele>142.40039</ele>
        <time>2026-05-20T09:18:34+02:00</time>
      </trkpt>
      <trkpt lat="49.43956" lon="6.31994">
        <ele>142.2998</ele>
        <time>2026-05-20T09:18:35+02:00</time>
      </trkpt>
      <trkpt lat="49.43951" lon="6.3199">
        <ele>142.2998</ele>
        <time>2026-05-20T09:18:36+02:00</time>
      </trkpt>
      <trkpt lat="49.43945" lon="6.31986">
        <ele>142</ele>
        <time>2026-05-20T09:18:37+02:00</time>
      </trkpt>
      <trkpt lat="49.4394" lon="6.31982">
        <ele>142.10059</ele>
        <time>2026-05-20T09:18:38+02:00</time>
      </trkpt>
      <trkpt lat="49.43934" lon="6.31978">
        <ele>141.90039</ele>
        <time>2026-05-20T09:18:39+02:00</time>
      </trkpt>
      <trkpt lat="49.43929" lon="6.31975">
        <ele>142.10059</ele>
        <time>2026-05-20T09:18:40+02:00</time>
      </trkpt>
      <trkpt lat="49.43923" lon="6.31971">
        <ele>142.2998</ele>
        <time>2026-05-20T09:18:41+02:00</time>
      </trkpt>
      <trkpt lat="49.43917" lon="6.31968">
        <ele>142.40039</ele>
        <time>2026-05-20T09:18:42+02:00</time>
      </trkpt>
      <trkpt lat="49.43912" lon="6.31965">
        <ele>142.40039</ele>
        <time>2026-05-20T09:18:43+02:00</time>
      </trkpt>
      <trkpt lat="49.43907" lon="6.31962">
        <ele>142.2998</ele>
        <time>2026-05-20T09:18:44+02:00</time>
      </trkpt>
      <trkpt lat="49.43901" lon="6.31958">
        <ele>142.2998</ele>
        <time>2026-05-20T09:18:45+02:00</time>
      </trkpt>
      <trkpt lat="49.43895" lon="6.31955">
        <ele>142.2998</ele>
        <time>2026-05-20T09:18:46+02:00</time>
      </trkpt>
      <trkpt lat="49.43889" lon="6.31952">
        <ele>141.90039</ele>
        <time>2026-05-20T09:18:47+02:00</time>
      </trkpt>
      <trkpt lat="49.43884" lon="6.31949">
        <ele>141.90039</ele>
        <time>2026-05-20T09:18:48+02:00</time>
      </trkpt>
      <trkpt lat="49.43878" lon="6.31946">
        <ele>142</ele>
        <time>2026-05-20T09:18:49+02:00</time>
      </trkpt>
      <trkpt lat="49.43872" lon="6.31944">
        <ele>141.7998</ele>
        <time>2026-05-20T09:18:50+02:00</time>
      </trkpt>
      <trkpt lat="49.43866" lon="6.31941">
        <ele>142.10059</ele>
        <time>2026-05-20T09:18:51+02:00</time>
      </trkpt>
      <trkpt lat="49.43861" lon="6.31939">
        <ele>142.10059</ele>
        <time>2026-05-20T09:18:52+02:00</time>
      </trkpt>
      <trkpt lat="49.43855" lon="6.31937">
        <ele>142.5</ele>
        <time>2026-05-20T09:18:53+02:00</time>
      </trkpt>
      <trkpt lat="49.4385" lon="6.31935">
        <ele>142.5</ele>
        <time>2026-05-20T09:18:54+02:00</time>
      </trkpt>
      <trkpt lat="49.43844" lon="6.31933">
        <ele>142.5</ele>
        <time>2026-05-20T09:18:55+02:00</time>
      </trkpt>
      <trkpt lat="49.43837" lon="6.3193">
        <ele>142.5</ele>
        <time>2026-05-20T09:18:56+02:00</time>
      </trkpt>
      <trkpt lat="49.43831" lon="6.31928">
        <ele>142.2002</ele>
        <time>2026-05-20T09:18:57+02:00</time>
      </trkpt>
      <trkpt lat="49.43826" lon="6.31925">
        <ele>142.2002</ele>
        <time>2026-05-20T09:18:58+02:00</time>
      </trkpt>
      <trkpt lat="49.4382" lon="6.31923">
        <ele>142.2002</ele>
        <time>2026-05-20T09:18:59+02:00</time>
      </trkpt>
      <trkpt lat="49.43814" lon="6.31921">
        <ele>142.10059</ele>
        <time>2026-05-20T09:19:00+02:00</time>
      </trkpt>
      <trkpt lat="49.43808" lon="6.31919">
        <ele>141.7998</ele>
        <time>2026-05-20T09:19:01+02:00</time>
      </trkpt>
      <trkpt lat="49.43802" lon="6.31917">
        <ele>141.7998</ele>
        <time>2026-05-20T09:19:02+02:00</time>
      </trkpt>
      <trkpt lat="49.43797" lon="6.31916">
        <ele>141.7998</ele>
        <time>2026-05-20T09:19:03+02:00</time>
      </trkpt>
      <trkpt lat="49.43791" lon="6.31914">
        <ele>141.7998</ele>
        <time>2026-05-20T09:19:04+02:00</time>
      </trkpt>
      <trkpt lat="49.43786" lon="6.31913">
        <ele>141.7998</ele>
        <time>2026-05-20T09:19:05+02:00</time>
      </trkpt>
      <trkpt lat="49.43781" lon="6.31911">
        <ele>142.10059</ele>
        <time>2026-05-20T09:19:06+02:00</time>
      </trkpt>
      <trkpt lat="49.43776" lon="6.3191">
        <ele>142.2002</ele>
        <time>2026-05-20T09:19:07+02:00</time>
      </trkpt>
      <trkpt lat="49.4377" lon="6.31909">
        <ele>142.2002</ele>
        <time>2026-05-20T09:19:08+02:00</time>
      </trkpt>
      <trkpt lat="49.43765" lon="6.31908">
        <ele>142.2998</ele>
        <time>2026-05-20T09:19:09+02:00</time>
      </trkpt>
      <trkpt lat="49.4376" lon="6.31907">
        <ele>142.2998</ele>
        <time>2026-05-20T09:19:10+02:00</time>
      </trkpt>
      <trkpt lat="49.43754" lon="6.31905">
        <ele>142.40039</ele>
        <time>2026-05-20T09:19:11+02:00</time>
      </trkpt>
      <trkpt lat="49.43749" lon="6.31904">
        <ele>142.40039</ele>
        <time>2026-05-20T09:19:12+02:00</time>
      </trkpt>
      <trkpt lat="49.43744" lon="6.31903">
        <ele>142.40039</ele>
        <time>2026-05-20T09:19:13+02:00</time>
      </trkpt>
      <trkpt lat="49.43738" lon="6.31902">
        <ele>143.10059</ele>
        <time>2026-05-20T09:19:14+02:00</time>
      </trkpt>
      <trkpt lat="49.43733" lon="6.319">
        <ele>143.2002</ele>
        <time>2026-05-20T09:19:15+02:00</time>
      </trkpt>
      <trkpt lat="49.43727" lon="6.31899">
        <ele>143.2002</ele>
        <time>2026-05-20T09:19:16+02:00</time>
      </trkpt>
      <trkpt lat="49.43722" lon="6.31898">
        <ele>143.2998</ele>
        <time>2026-05-20T09:19:17+02:00</time>
      </trkpt>
      <trkpt lat="49.43716" lon="6.31896">
        <ele>143.2998</ele>
        <time>2026-05-20T09:19:18+02:00</time>
      </trkpt>
      <trkpt lat="49.43711" lon="6.31895">
        <ele>143.40039</ele>
        <time>2026-05-20T09:19:19+02:00</time>
      </trkpt>
      <trkpt lat="49.43705" lon="6.31893">
        <ele>145.2998</ele>
        <time>2026-05-20T09:19:20+02:00</time>
      </trkpt>
      <trkpt lat="49.437" lon="6.31892">
        <ele>145.5</ele>
        <time>2026-05-20T09:19:21+02:00</time>
      </trkpt>
      <trkpt lat="49.43694" lon="6.31891">
        <ele>145.7002</ele>
        <time>2026-05-20T09:19:22+02:00</time>
      </trkpt>
      <trkpt lat="49.43689" lon="6.3189">
        <ele>145.90039</ele>
        <time>2026-05-20T09:19:23+02:00</time>
      </trkpt>
      <trkpt lat="49.43683" lon="6.31889">
        <ele>146.10059</ele>
        <time>2026-05-20T09:19:24+02:00</time>
      </trkpt>
      <trkpt lat="49.43677" lon="6.31888">
        <ele>146.2998</ele>
        <time>2026-05-20T09:19:25+02:00</time>
      </trkpt>
      <trkpt lat="49.43672" lon="6.31887">
        <ele>146.5</ele>
        <time>2026-05-20T09:19:26+02:00</time>
      </trkpt>
      <trkpt lat="49.43666" lon="6.31886">
        <ele>146.7002</ele>
        <time>2026-05-20T09:19:27+02:00</time>
      </trkpt>
      <trkpt lat="49.4366" lon="6.31886">
        <ele>146.7998</ele>
        <time>2026-05-20T09:19:28+02:00</time>
      </trkpt>
      <trkpt lat="49.43655" lon="6.31886">
        <ele>146.90039</ele>
        <time>2026-05-20T09:19:29+02:00</time>
      </trkpt>
      <trkpt lat="49.43649" lon="6.31887">
        <ele>147</ele>
        <time>2026-05-20T09:19:30+02:00</time>
      </trkpt>
      <trkpt lat="49.43643" lon="6.31887">
        <ele>147.10059</ele>
        <time>2026-05-20T09:19:31+02:00</time>
      </trkpt>
      <trkpt lat="49.43638" lon="6.31888">
        <ele>147.10059</ele>
        <time>2026-05-20T09:19:32+02:00</time>
      </trkpt>
      <trkpt lat="49.43632" lon="6.31889">
        <ele>147.2002</ele>
        <time>2026-05-20T09:19:33+02:00</time>
      </trkpt>
      <trkpt lat="49.43627" lon="6.3189">
        <ele>147.2998</ele>
        <time>2026-05-20T09:19:34+02:00</time>
      </trkpt>
      <trkpt lat="49.43621" lon="6.31892">
        <ele>147.2998</ele>
        <time>2026-05-20T09:19:35+02:00</time>
      </trkpt>
      <trkpt lat="49.43615" lon="6.31894">
        <ele>147.40039</ele>
        <time>2026-05-20T09:19:36+02:00</time>
      </trkpt>
      <trkpt lat="49.4361" lon="6.31896">
        <ele>145.2002</ele>
        <time>2026-05-20T09:19:37+02:00</time>
      </trkpt>
      <trkpt lat="49.43604" lon="6.31898">
        <ele>145.2998</ele>
        <time>2026-05-20T09:19:38+02:00</time>
      </trkpt>
      <trkpt lat="49.43599" lon="6.31901">
        <ele>145.2998</ele>
        <time>2026-05-20T09:19:39+02:00</time>
      </trkpt>
      <trkpt lat="49.43594" lon="6.31903">
        <ele>143.60059</ele>
        <time>2026-05-20T09:19:40+02:00</time>
      </trkpt>
      <trkpt lat="49.43589" lon="6.31906">
        <ele>143.7002</ele>
        <time>2026-05-20T09:19:41+02:00</time>
      </trkpt>
      <trkpt lat="49.43583" lon="6.31908">
        <ele>143.7002</ele>
        <time>2026-05-20T09:19:42+02:00</time>
      </trkpt>
      <trkpt lat="49.43578" lon="6.31911">
        <ele>143.7998</ele>
        <time>2026-05-20T09:19:43+02:00</time>
      </trkpt>
      <trkpt lat="49.43573" lon="6.31913">
        <ele>142.7998</ele>
        <time>2026-05-20T09:19:44+02:00</time>
      </trkpt>
      <trkpt lat="49.43568" lon="6.31915">
        <ele>142.7998</ele>
        <time>2026-05-20T09:19:45+02:00</time>
      </trkpt>
      <trkpt lat="49.43563" lon="6.31918">
        <ele>142.90039</ele>
        <time>2026-05-20T09:19:46+02:00</time>
      </trkpt>
      <trkpt lat="49.43557" lon="6.3192">
        <ele>142.40039</ele>
        <time>2026-05-20T09:19:47+02:00</time>
      </trkpt>
      <trkpt lat="49.43553" lon="6.31922">
        <ele>142.5</ele>
        <time>2026-05-20T09:19:48+02:00</time>
      </trkpt>
      <trkpt lat="49.43547" lon="6.31924">
        <ele>142.5</ele>
        <time>2026-05-20T09:19:49+02:00</time>
      </trkpt>
      <trkpt lat="49.43541" lon="6.31927">
        <ele>142.5</ele>
        <time>2026-05-20T09:19:50+02:00</time>
      </trkpt>
      <trkpt lat="49.43536" lon="6.31929">
        <ele>142.2998</ele>
        <time>2026-05-20T09:19:51+02:00</time>
      </trkpt>
      <trkpt lat="49.43531" lon="6.31931">
        <ele>142.2998</ele>
        <time>2026-05-20T09:19:52+02:00</time>
      </trkpt>
      <trkpt lat="49.43525" lon="6.31934">
        <ele>142.2998</ele>
        <time>2026-05-20T09:19:53+02:00</time>
      </trkpt>
      <trkpt lat="49.4352" lon="6.31936">
        <ele>142.2998</ele>
        <time>2026-05-20T09:19:54+02:00</time>
      </trkpt>
      <trkpt lat="49.43514" lon="6.31939">
        <ele>142.2998</ele>
        <time>2026-05-20T09:19:55+02:00</time>
      </trkpt>
      <trkpt lat="49.43508" lon="6.31941">
        <ele>142.2998</ele>
        <time>2026-05-20T09:19:56+02:00</time>
      </trkpt>
      <trkpt lat="49.43503" lon="6.31943">
        <ele>142.2998</ele>
        <time>2026-05-20T09:19:57+02:00</time>
      </trkpt>
      <trkpt lat="49.43498" lon="6.31945">
        <ele>142.2002</ele>
        <time>2026-05-20T09:19:58+02:00</time>
      </trkpt>
      <trkpt lat="49.43492" lon="6.31947">
        <ele>142.60059</ele>
        <time>2026-05-20T09:19:59+02:00</time>
      </trkpt>
      <trkpt lat="49.43486" lon="6.3195">
        <ele>142.7002</ele>
        <time>2026-05-20T09:20:00+02:00</time>
      </trkpt>
      <trkpt lat="49.43481" lon="6.31952">
        <ele>143</ele>
        <time>2026-05-20T09:20:01+02:00</time>
      </trkpt>
      <trkpt lat="49.43475" lon="6.31954">
        <ele>143.2998</ele>
        <time>2026-05-20T09:20:02+02:00</time>
      </trkpt>
      <trkpt lat="49.4347" lon="6.31957">
        <ele>142.7998</ele>
        <time>2026-05-20T09:20:03+02:00</time>
      </trkpt>
      <trkpt lat="49.43464" lon="6.31959">
        <ele>142.90039</ele>
        <time>2026-05-20T09:20:04+02:00</time>
      </trkpt>
      <trkpt lat="49.43459" lon="6.31961">
        <ele>142.90039</ele>
        <time>2026-05-20T09:20:05+02:00</time>
      </trkpt>
      <trkpt lat="49.43454" lon="6.31964">
        <ele>142.5</ele>
        <time>2026-05-20T09:20:06+02:00</time>
      </trkpt>
      <trkpt lat="49.43449" lon="6.31965">
        <ele>142.5</ele>
        <time>2026-05-20T09:20:07+02:00</time>
      </trkpt>
      <trkpt lat="49.43444" lon="6.31967">
        <ele>142.5</ele>
        <time>2026-05-20T09:20:08+02:00</time>
      </trkpt>
      <trkpt lat="49.43438" lon="6.31969">
        <ele>142.5</ele>
        <time>2026-05-20T09:20:09+02:00</time>
      </trkpt>
      <trkpt lat="49.43433" lon="6.31971">
        <ele>142.60059</ele>
        <time>2026-05-20T09:20:10+02:00</time>
      </trkpt>
      <trkpt lat="49.43427" lon="6.31973">
        <ele>142.2998</ele>
        <time>2026-05-20T09:20:11+02:00</time>
      </trkpt>
      <trkpt lat="49.43422" lon="6.31975">
        <ele>142.2998</ele>
        <time>2026-05-20T09:20:12+02:00</time>
      </trkpt>
      <trkpt lat="49.43416" lon="6.31977">
        <ele>142.2998</ele>
        <time>2026-05-20T09:20:13+02:00</time>
      </trkpt>
      <trkpt lat="49.4341" lon="6.31978">
        <ele>142.2998</ele>
        <time>2026-05-20T09:20:14+02:00</time>
      </trkpt>
      <trkpt lat="49.43405" lon="6.31979">
        <ele>142.2998</ele>
        <time>2026-05-20T09:20:15+02:00</time>
      </trkpt>
      <trkpt lat="49.43399" lon="6.31981">
        <ele>142.40039</ele>
        <time>2026-05-20T09:20:16+02:00</time>
      </trkpt>
      <trkpt lat="49.43393" lon="6.31982">
        <ele>142.2998</ele>
        <time>2026-05-20T09:20:17+02:00</time>
      </trkpt>
      <trkpt lat="49.43388" lon="6.31984">
        <ele>142.2998</ele>
        <time>2026-05-20T09:20:18+02:00</time>
      </trkpt>
      <trkpt lat="49.43382" lon="6.31986">
        <ele>142.2998</ele>
        <time>2026-05-20T09:20:19+02:00</time>
      </trkpt>
      <trkpt lat="49.43376" lon="6.31988">
        <ele>142.2998</ele>
        <time>2026-05-20T09:20:20+02:00</time>
      </trkpt>
      <trkpt lat="49.4337" lon="6.31989">
        <ele>142.60059</ele>
        <time>2026-05-20T09:20:21+02:00</time>
      </trkpt>
      <trkpt lat="49.43365" lon="6.3199">
        <ele>142.60059</ele>
        <time>2026-05-20T09:20:22+02:00</time>
      </trkpt>
      <trkpt lat="49.4336" lon="6.31991">
        <ele>142.60059</ele>
        <time>2026-05-20T09:20:23+02:00</time>
      </trkpt>
      <trkpt lat="49.43354" lon="6.31993">
        <ele>142.60059</ele>
        <time>2026-05-20T09:20:24+02:00</time>
      </trkpt>
      <trkpt lat="49.43349" lon="6.31994">
        <ele>142.7998</ele>
        <time>2026-05-20T09:20:25+02:00</time>
      </trkpt>
      <trkpt lat="49.43344" lon="6.31995">
        <ele>143.2002</ele>
        <time>2026-05-20T09:20:26+02:00</time>
      </trkpt>
      <trkpt lat="49.43339" lon="6.31996">
        <ele>143.60059</ele>
        <time>2026-05-20T09:20:27+02:00</time>
      </trkpt>
      <trkpt lat="49.43334" lon="6.31998">
        <ele>143</ele>
        <time>2026-05-20T09:20:28+02:00</time>
      </trkpt>
      <trkpt lat="49.43329" lon="6.31999">
        <ele>143.10059</ele>
        <time>2026-05-20T09:20:29+02:00</time>
      </trkpt>
      <trkpt lat="49.43323" lon="6.31999">
        <ele>143.10059</ele>
        <time>2026-05-20T09:20:30+02:00</time>
      </trkpt>
      <trkpt lat="49.43317" lon="6.32001">
        <ele>143.10059</ele>
        <time>2026-05-20T09:20:31+02:00</time>
      </trkpt>
      <trkpt lat="49.43311" lon="6.32001">
        <ele>143.2002</ele>
        <time>2026-05-20T09:20:32+02:00</time>
      </trkpt>
      <trkpt lat="49.43306" lon="6.32003">
        <ele>143.2002</ele>
        <time>2026-05-20T09:20:33+02:00</time>
      </trkpt>
      <trkpt lat="49.433" lon="6.32004">
        <ele>143.2998</ele>
        <time>2026-05-20T09:20:34+02:00</time>
      </trkpt>
      <trkpt lat="49.43294" lon="6.32005">
        <ele>143.2998</ele>
        <time>2026-05-20T09:20:35+02:00</time>
      </trkpt>
      <trkpt lat="49.43289" lon="6.32006">
        <ele>142.7998</ele>
        <time>2026-05-20T09:20:36+02:00</time>
      </trkpt>
      <trkpt lat="49.43283" lon="6.32007">
        <ele>142.90039</ele>
        <time>2026-05-20T09:20:37+02:00</time>
      </trkpt>
      <trkpt lat="49.43277" lon="6.32008">
        <ele>142.90039</ele>
        <time>2026-05-20T09:20:38+02:00</time>
      </trkpt>
      <trkpt lat="49.43271" lon="6.3201">
        <ele>142.90039</ele>
        <time>2026-05-20T09:20:39+02:00</time>
      </trkpt>
      <trkpt lat="49.43266" lon="6.32011">
        <ele>142.90039</ele>
        <time>2026-05-20T09:20:40+02:00</time>
      </trkpt>
      <trkpt lat="49.4326" lon="6.32012">
        <ele>142.90039</ele>
        <time>2026-05-20T09:20:41+02:00</time>
      </trkpt>
      <trkpt lat="49.43255" lon="6.32013">
        <ele>142.90039</ele>
        <time>2026-05-20T09:20:42+02:00</time>
      </trkpt>
      <trkpt lat="49.4325" lon="6.32014">
        <ele>143</ele>
        <time>2026-05-20T09:20:43+02:00</time>
      </trkpt>
      <trkpt lat="49.43244" lon="6.32014">
        <ele>143</ele>
        <time>2026-05-20T09:20:44+02:00</time>
      </trkpt>
      <trkpt lat="49.43239" lon="6.32015">
        <ele>142.60059</ele>
        <time>2026-05-20T09:20:45+02:00</time>
      </trkpt>
      <trkpt lat="49.43233" lon="6.32015">
        <ele>142.60059</ele>
        <time>2026-05-20T09:20:46+02:00</time>
      </trkpt>
      <trkpt lat="49.43228" lon="6.32016">
        <ele>142.7002</ele>
        <time>2026-05-20T09:20:47+02:00</time>
      </trkpt>
      <trkpt lat="49.43223" lon="6.32017">
        <ele>142.7002</ele>
        <time>2026-05-20T09:20:48+02:00</time>
      </trkpt>
      <trkpt lat="49.43217" lon="6.32018">
        <ele>142.7002</ele>
        <time>2026-05-20T09:20:49+02:00</time>
      </trkpt>
      <trkpt lat="49.43211" lon="6.32019">
        <ele>142.7002</ele>
        <time>2026-05-20T09:20:50+02:00</time>
      </trkpt>
      <trkpt lat="49.43206" lon="6.32019">
        <ele>142.7998</ele>
        <time>2026-05-20T09:20:51+02:00</time>
      </trkpt>
      <trkpt lat="49.43201" lon="6.3202">
        <ele>142.7998</ele>
        <time>2026-05-20T09:20:52+02:00</time>
      </trkpt>
      <trkpt lat="49.43197" lon="6.32021">
        <ele>142.7998</ele>
        <time>2026-05-20T09:20:53+02:00</time>
      </trkpt>
      <trkpt lat="49.43192" lon="6.32022">
        <ele>142.7998</ele>
        <time>2026-05-20T09:20:54+02:00</time>
      </trkpt>
      <trkpt lat="49.43186" lon="6.32023">
        <ele>142.7002</ele>
        <time>2026-05-20T09:20:55+02:00</time>
      </trkpt>
      <trkpt lat="49.43181" lon="6.32024">
        <ele>142.7002</ele>
        <time>2026-05-20T09:20:56+02:00</time>
      </trkpt>
      <trkpt lat="49.43176" lon="6.32024">
        <ele>142.7002</ele>
        <time>2026-05-20T09:20:57+02:00</time>
      </trkpt>
      <trkpt lat="49.4317" lon="6.32025">
        <ele>142.7002</ele>
        <time>2026-05-20T09:20:58+02:00</time>
      </trkpt>
      <trkpt lat="49.43165" lon="6.32026">
        <ele>142.7002</ele>
        <time>2026-05-20T09:20:59+02:00</time>
      </trkpt>
      <trkpt lat="49.43159" lon="6.32027">
        <ele>142.7002</ele>
        <time>2026-05-20T09:21:00+02:00</time>
      </trkpt>
      <trkpt lat="49.43154" lon="6.32028">
        <ele>142.7002</ele>
        <time>2026-05-20T09:21:01+02:00</time>
      </trkpt>
      <trkpt lat="49.43149" lon="6.3203">
        <ele>142.7002</ele>
        <time>2026-05-20T09:21:02+02:00</time>
      </trkpt>
      <trkpt lat="49.43144" lon="6.32031">
        <ele>142.7002</ele>
        <time>2026-05-20T09:21:03+02:00</time>
      </trkpt>
      <trkpt lat="49.43138" lon="6.32032">
        <ele>142.7002</ele>
        <time>2026-05-20T09:21:04+02:00</time>
      </trkpt>
      <trkpt lat="49.43133" lon="6.32033">
        <ele>142.7002</ele>
        <time>2026-05-20T09:21:05+02:00</time>
      </trkpt>
      <trkpt lat="49.43127" lon="6.32034">
        <ele>142.7002</ele>
        <time>2026-05-20T09:21:06+02:00</time>
      </trkpt>
      <trkpt lat="49.43122" lon="6.32035">
        <ele>142.7002</ele>
        <time>2026-05-20T09:21:07+02:00</time>
      </trkpt>
      <trkpt lat="49.43116" lon="6.32036">
        <ele>142.60059</ele>
        <time>2026-05-20T09:21:08+02:00</time>
      </trkpt>
      <trkpt lat="49.43111" lon="6.32037">
        <ele>142.60059</ele>
        <time>2026-05-20T09:21:09+02:00</time>
      </trkpt>
      <trkpt lat="49.43105" lon="6.32038">
        <ele>142.60059</ele>
        <time>2026-05-20T09:21:10+02:00</time>
      </trkpt>
      <trkpt lat="49.431" lon="6.32039">
        <ele>142.60059</ele>
        <time>2026-05-20T09:21:11+02:00</time>
      </trkpt>
      <trkpt lat="49.43095" lon="6.3204">
        <ele>142.7002</ele>
        <time>2026-05-20T09:21:12+02:00</time>
      </trkpt>
      <trkpt lat="49.43089" lon="6.32041">
        <ele>142.7002</ele>
        <time>2026-05-20T09:21:13+02:00</time>
      </trkpt>
      <trkpt lat="49.43084" lon="6.32042">
        <ele>142.7002</ele>
        <time>2026-05-20T09:21:14+02:00</time>
      </trkpt>
      <trkpt lat="49.43079" lon="6.32043">
        <ele>142.7002</ele>
        <time>2026-05-20T09:21:15+02:00</time>
      </trkpt>
      <trkpt lat="49.43073" lon="6.32043">
        <ele>142.7002</ele>
        <time>2026-05-20T09:21:16+02:00</time>
      </trkpt>
      <trkpt lat="49.43068" lon="6.32044">
        <ele>142.7002</ele>
        <time>2026-05-20T09:21:17+02:00</time>
      </trkpt>
      <trkpt lat="49.43063" lon="6.32045">
        <ele>142.7002</ele>
        <time>2026-05-20T09:21:18+02:00</time>
      </trkpt>
      <trkpt lat="49.43058" lon="6.32045">
        <ele>142.7002</ele>
        <time>2026-05-20T09:21:19+02:00</time>
      </trkpt>
      <trkpt lat="49.43053" lon="6.32046">
        <ele>142.7002</ele>
        <time>2026-05-20T09:21:20+02:00</time>
      </trkpt>
      <trkpt lat="49.43048" lon="6.32047">
        <ele>142.60059</ele>
        <time>2026-05-20T09:21:21+02:00</time>
      </trkpt>
      <trkpt lat="49.43043" lon="6.32049">
        <ele>142.7998</ele>
        <time>2026-05-20T09:21:22+02:00</time>
      </trkpt>
      <trkpt lat="49.43038" lon="6.3205">
        <ele>142.7998</ele>
        <time>2026-05-20T09:21:23+02:00</time>
      </trkpt>
      <trkpt lat="49.43033" lon="6.32051">
        <ele>142.7998</ele>
        <time>2026-05-20T09:21:24+02:00</time>
      </trkpt>
      <trkpt lat="49.43029" lon="6.32051">
        <ele>142.7998</ele>
        <time>2026-05-20T09:21:25+02:00</time>
      </trkpt>
      <trkpt lat="49.43023" lon="6.32052">
        <ele>142.7998</ele>
        <time>2026-05-20T09:21:26+02:00</time>
      </trkpt>
      <trkpt lat="49.43018" lon="6.32053">
        <ele>142.7998</ele>
        <time>2026-05-20T09:21:27+02:00</time>
      </trkpt>
      <trkpt lat="49.43014" lon="6.32054">
        <ele>142.7998</ele>
        <time>2026-05-20T09:21:28+02:00</time>
      </trkpt>
      <trkpt lat="49.43008" lon="6.32055">
        <ele>142.7998</ele>
        <time>2026-05-20T09:21:29+02:00</time>
      </trkpt>
      <trkpt lat="49.43003" lon="6.32056">
        <ele>142.7998</ele>
        <time>2026-05-20T09:21:30+02:00</time>
      </trkpt>
      <trkpt lat="49.42998" lon="6.32057">
        <ele>142.7998</ele>
        <time>2026-05-20T09:21:31+02:00</time>
      </trkpt>
      <trkpt lat="49.42993" lon="6.32057">
        <ele>142.7002</ele>
        <time>2026-05-20T09:21:32+02:00</time>
      </trkpt>
      <trkpt lat="49.42988" lon="6.32058">
        <ele>142.90039</ele>
        <time>2026-05-20T09:21:33+02:00</time>
      </trkpt>
      <trkpt lat="49.42983" lon="6.32059">
        <ele>142.90039</ele>
        <time>2026-05-20T09:21:34+02:00</time>
      </trkpt>
      <trkpt lat="49.42978" lon="6.32059">
        <ele>142.90039</ele>
        <time>2026-05-20T09:21:35+02:00</time>
      </trkpt>
      <trkpt lat="49.42973" lon="6.32059">
        <ele>142.90039</ele>
        <time>2026-05-20T09:21:36+02:00</time>
      </trkpt>
      <trkpt lat="49.42968" lon="6.3206">
        <ele>142.90039</ele>
        <time>2026-05-20T09:21:37+02:00</time>
      </trkpt>
      <trkpt lat="49.42964" lon="6.3206">
        <ele>142.90039</ele>
        <time>2026-05-20T09:21:38+02:00</time>
      </trkpt>
      <trkpt lat="49.42959" lon="6.32061">
        <ele>142.7998</ele>
        <time>2026-05-20T09:21:39+02:00</time>
      </trkpt>
      <trkpt lat="49.42953" lon="6.32061">
        <ele>142.7998</ele>
        <time>2026-05-20T09:21:40+02:00</time>
      </trkpt>
      <trkpt lat="49.42948" lon="6.32062">
        <ele>142.90039</ele>
        <time>2026-05-20T09:21:41+02:00</time>
      </trkpt>
      <trkpt lat="49.42943" lon="6.32062">
        <ele>143.10059</ele>
        <time>2026-05-20T09:21:42+02:00</time>
      </trkpt>
      <trkpt lat="49.42938" lon="6.32063">
        <ele>143.2998</ele>
        <time>2026-05-20T09:21:43+02:00</time>
      </trkpt>
      <trkpt lat="49.42933" lon="6.32063">
        <ele>143.2998</ele>
        <time>2026-05-20T09:21:44+02:00</time>
      </trkpt>
      <trkpt lat="49.42928" lon="6.32063">
        <ele>143.40039</ele>
        <time>2026-05-20T09:21:45+02:00</time>
      </trkpt>
      <trkpt lat="49.42923" lon="6.32064">
        <ele>143.40039</ele>
        <time>2026-05-20T09:21:46+02:00</time>
      </trkpt>
      <trkpt lat="49.42918" lon="6.32064">
        <ele>143.40039</ele>
        <time>2026-05-20T09:21:47+02:00</time>
      </trkpt>
      <trkpt lat="49.42913" lon="6.32064">
        <ele>143.2998</ele>
        <time>2026-05-20T09:21:48+02:00</time>
      </trkpt>
      <trkpt lat="49.42908" lon="6.32065">
        <ele>143.2998</ele>
        <time>2026-05-20T09:21:49+02:00</time>
      </trkpt>
      <trkpt lat="49.42903" lon="6.32065">
        <ele>143.2998</ele>
        <time>2026-05-20T09:21:50+02:00</time>
      </trkpt>
      <trkpt lat="49.42898" lon="6.32066">
        <ele>142.90039</ele>
        <time>2026-05-20T09:21:51+02:00</time>
      </trkpt>
      <trkpt lat="49.42893" lon="6.32066">
        <ele>142.90039</ele>
        <time>2026-05-20T09:21:52+02:00</time>
      </trkpt>
      <trkpt lat="49.42888" lon="6.32067">
        <ele>143</ele>
        <time>2026-05-20T09:21:53+02:00</time>
      </trkpt>
      <trkpt lat="49.42883" lon="6.32068">
        <ele>143</ele>
        <time>2026-05-20T09:21:54+02:00</time>
      </trkpt>
      <trkpt lat="49.42878" lon="6.32069">
        <ele>143</ele>
        <time>2026-05-20T09:21:55+02:00</time>
      </trkpt>
      <trkpt lat="49.42874" lon="6.3207">
        <ele>143</ele>
        <time>2026-05-20T09:21:56+02:00</time>
      </trkpt>
      <trkpt lat="49.42869" lon="6.32071">
        <ele>143</ele>
        <time>2026-05-20T09:21:57+02:00</time>
      </trkpt>
      <trkpt lat="49.42864" lon="6.32073">
        <ele>143</ele>
        <time>2026-05-20T09:21:58+02:00</time>
      </trkpt>
      <trkpt lat="49.42859" lon="6.32075">
        <ele>142.90039</ele>
        <time>2026-05-20T09:21:59+02:00</time>
      </trkpt>
      <trkpt lat="49.42854" lon="6.32077">
        <ele>142.90039</ele>
        <time>2026-05-20T09:22:00+02:00</time>
      </trkpt>
      <trkpt lat="49.42849" lon="6.32078">
        <ele>142.90039</ele>
        <time>2026-05-20T09:22:01+02:00</time>
      </trkpt>
      <trkpt lat="49.42844" lon="6.3208">
        <ele>142.90039</ele>
        <time>2026-05-20T09:22:02+02:00</time>
      </trkpt>
      <trkpt lat="49.42838" lon="6.3208">
        <ele>142.90039</ele>
        <time>2026-05-20T09:22:03+02:00</time>
      </trkpt>
      <trkpt lat="49.42833" lon="6.32081">
        <ele>142.90039</ele>
        <time>2026-05-20T09:22:04+02:00</time>
      </trkpt>
      <trkpt lat="49.42828" lon="6.32082">
        <ele>142.90039</ele>
        <time>2026-05-20T09:22:05+02:00</time>
      </trkpt>
      <trkpt lat="49.42823" lon="6.32082">
        <ele>142.90039</ele>
        <time>2026-05-20T09:22:06+02:00</time>
      </trkpt>
      <trkpt lat="49.42818" lon="6.32082">
        <ele>142.90039</ele>
        <time>2026-05-20T09:22:07+02:00</time>
      </trkpt>
      <trkpt lat="49.42812" lon="6.32083">
        <ele>142.7998</ele>
        <time>2026-05-20T09:22:08+02:00</time>
      </trkpt>
      <trkpt lat="49.42807" lon="6.32083">
        <ele>142.7998</ele>
        <time>2026-05-20T09:22:09+02:00</time>
      </trkpt>
      <trkpt lat="49.42802" lon="6.32084">
        <ele>142.7998</ele>
        <time>2026-05-20T09:22:10+02:00</time>
      </trkpt>
      <trkpt lat="49.42796" lon="6.32084">
        <ele>142.7998</ele>
        <time>2026-05-20T09:22:11+02:00</time>
      </trkpt>
      <trkpt lat="49.42791" lon="6.32084">
        <ele>142.7998</ele>
        <time>2026-05-20T09:22:12+02:00</time>
      </trkpt>
      <trkpt lat="49.42786" lon="6.32085">
        <ele>142.7998</ele>
        <time>2026-05-20T09:22:13+02:00</time>
      </trkpt>
      <trkpt lat="49.4278" lon="6.32086">
        <ele>142.7998</ele>
        <time>2026-05-20T09:22:14+02:00</time>
      </trkpt>
      <trkpt lat="49.42775" lon="6.32086">
        <ele>142.7998</ele>
        <time>2026-05-20T09:22:15+02:00</time>
      </trkpt>
      <trkpt lat="49.4277" lon="6.32086">
        <ele>142.90039</ele>
        <time>2026-05-20T09:22:16+02:00</time>
      </trkpt>
      <trkpt lat="49.42764" lon="6.32087">
        <ele>142.90039</ele>
        <time>2026-05-20T09:22:17+02:00</time>
      </trkpt>
      <trkpt lat="49.42759" lon="6.32087">
        <ele>142.90039</ele>
        <time>2026-05-20T09:22:18+02:00</time>
      </trkpt>
      <trkpt lat="49.42753" lon="6.32088">
        <ele>142.90039</ele>
        <time>2026-05-20T09:22:19+02:00</time>
      </trkpt>
      <trkpt lat="49.42748" lon="6.32088">
        <ele>142.90039</ele>
        <time>2026-05-20T09:22:20+02:00</time>
      </trkpt>
      <trkpt lat="49.42742" lon="6.32088">
        <ele>142.90039</ele>
        <time>2026-05-20T09:22:21+02:00</time>
      </trkpt>
      <trkpt lat="49.42736" lon="6.32088">
        <ele>142.90039</ele>
        <time>2026-05-20T09:22:22+02:00</time>
      </trkpt>
      <trkpt lat="49.4273" lon="6.32089">
        <ele>142.90039</ele>
        <time>2026-05-20T09:22:23+02:00</time>
      </trkpt>
      <trkpt lat="49.42725" lon="6.32089">
        <ele>142.90039</ele>
        <time>2026-05-20T09:22:24+02:00</time>
      </trkpt>
      <trkpt lat="49.42719" lon="6.32089">
        <ele>142.90039</ele>
        <time>2026-05-20T09:22:25+02:00</time>
      </trkpt>
      <trkpt lat="49.42714" lon="6.32089">
        <ele>142.90039</ele>
        <time>2026-05-20T09:22:26+02:00</time>
      </trkpt>
      <trkpt lat="49.42708" lon="6.32089">
        <ele>142.90039</ele>
        <time>2026-05-20T09:22:27+02:00</time>
      </trkpt>
      <trkpt lat="49.42703" lon="6.3209">
        <ele>142.90039</ele>
        <time>2026-05-20T09:22:28+02:00</time>
      </trkpt>
      <trkpt lat="49.42697" lon="6.3209">
        <ele>142.90039</ele>
        <time>2026-05-20T09:22:29+02:00</time>
      </trkpt>
      <trkpt lat="49.42692" lon="6.3209">
        <ele>142.90039</ele>
        <time>2026-05-20T09:22:30+02:00</time>
      </trkpt>
      <trkpt lat="49.42686" lon="6.3209">
        <ele>142.90039</ele>
        <time>2026-05-20T09:22:31+02:00</time>
      </trkpt>
      <trkpt lat="49.4268" lon="6.3209">
        <ele>142.90039</ele>
        <time>2026-05-20T09:22:32+02:00</time>
      </trkpt>
      <trkpt lat="49.42675" lon="6.3209">
        <ele>142.90039</ele>
        <time>2026-05-20T09:22:33+02:00</time>
      </trkpt>
      <trkpt lat="49.42669" lon="6.3209">
        <ele>142.90039</ele>
        <time>2026-05-20T09:22:34+02:00</time>
      </trkpt>
      <trkpt lat="49.42664" lon="6.3209">
        <ele>142.90039</ele>
        <time>2026-05-20T09:22:35+02:00</time>
      </trkpt>
      <trkpt lat="49.42658" lon="6.32089">
        <ele>142.90039</ele>
        <time>2026-05-20T09:22:36+02:00</time>
      </trkpt>
      <trkpt lat="49.42653" lon="6.32089">
        <ele>142.90039</ele>
        <time>2026-05-20T09:22:37+02:00</time>
      </trkpt>
      <trkpt lat="49.42647" lon="6.32087">
        <ele>142.90039</ele>
        <time>2026-05-20T09:22:38+02:00</time>
      </trkpt>
      <trkpt lat="49.42642" lon="6.32086">
        <ele>142.90039</ele>
        <time>2026-05-20T09:22:39+02:00</time>
      </trkpt>
      <trkpt lat="49.42637" lon="6.32085">
        <ele>142.90039</ele>
        <time>2026-05-20T09:22:40+02:00</time>
      </trkpt>
      <trkpt lat="49.42631" lon="6.32084">
        <ele>142.90039</ele>
        <time>2026-05-20T09:22:41+02:00</time>
      </trkpt>
      <trkpt lat="49.42626" lon="6.32083">
        <ele>142.90039</ele>
        <time>2026-05-20T09:22:42+02:00</time>
      </trkpt>
      <trkpt lat="49.4262" lon="6.32081">
        <ele>142.7998</ele>
        <time>2026-05-20T09:22:43+02:00</time>
      </trkpt>
      <trkpt lat="49.42614" lon="6.3208">
        <ele>142.7998</ele>
        <time>2026-05-20T09:22:44+02:00</time>
      </trkpt>
      <trkpt lat="49.42609" lon="6.32078">
        <ele>142.7998</ele>
        <time>2026-05-20T09:22:45+02:00</time>
      </trkpt>
      <trkpt lat="49.42603" lon="6.32076">
        <ele>142.7998</ele>
        <time>2026-05-20T09:22:46+02:00</time>
      </trkpt>
      <trkpt lat="49.42598" lon="6.32074">
        <ele>142.7998</ele>
        <time>2026-05-20T09:22:47+02:00</time>
      </trkpt>
      <trkpt lat="49.42592" lon="6.32072">
        <ele>142.7998</ele>
        <time>2026-05-20T09:22:48+02:00</time>
      </trkpt>
      <trkpt lat="49.42587" lon="6.32071">
        <ele>142.7998</ele>
        <time>2026-05-20T09:22:49+02:00</time>
      </trkpt>
      <trkpt lat="49.42582" lon="6.32069">
        <ele>142.7998</ele>
        <time>2026-05-20T09:22:50+02:00</time>
      </trkpt>
      <trkpt lat="49.42576" lon="6.32067">
        <ele>142.7998</ele>
        <time>2026-05-20T09:22:51+02:00</time>
      </trkpt>
      <trkpt lat="49.42571" lon="6.32065">
        <ele>143</ele>
        <time>2026-05-20T09:22:52+02:00</time>
      </trkpt>
      <trkpt lat="49.42566" lon="6.32063">
        <ele>143</ele>
        <time>2026-05-20T09:22:53+02:00</time>
      </trkpt>
      <trkpt lat="49.4256" lon="6.32061">
        <ele>143</ele>
        <time>2026-05-20T09:22:54+02:00</time>
      </trkpt>
      <trkpt lat="49.42555" lon="6.32059">
        <ele>143</ele>
        <time>2026-05-20T09:22:55+02:00</time>
      </trkpt>
      <trkpt lat="49.42549" lon="6.32056">
        <ele>143.2998</ele>
        <time>2026-05-20T09:22:56+02:00</time>
      </trkpt>
      <trkpt lat="49.42544" lon="6.32054">
        <ele>143.2002</ele>
        <time>2026-05-20T09:22:57+02:00</time>
      </trkpt>
      <trkpt lat="49.42539" lon="6.32052">
        <ele>143.10059</ele>
        <time>2026-05-20T09:22:58+02:00</time>
      </trkpt>
      <trkpt lat="49.42533" lon="6.32049">
        <ele>143</ele>
        <time>2026-05-20T09:22:59+02:00</time>
      </trkpt>
      <trkpt lat="49.42528" lon="6.32047">
        <ele>142.7998</ele>
        <time>2026-05-20T09:23:00+02:00</time>
      </trkpt>
      <trkpt lat="49.42523" lon="6.32045">
        <ele>142.7002</ele>
        <time>2026-05-20T09:23:01+02:00</time>
      </trkpt>
      <trkpt lat="49.42518" lon="6.32042">
        <ele>142.7002</ele>
        <time>2026-05-20T09:23:02+02:00</time>
      </trkpt>
      <trkpt lat="49.42513" lon="6.32039">
        <ele>142.7998</ele>
        <time>2026-05-20T09:23:03+02:00</time>
      </trkpt>
      <trkpt lat="49.42508" lon="6.32035">
        <ele>142.90039</ele>
        <time>2026-05-20T09:23:04+02:00</time>
      </trkpt>
      <trkpt lat="49.42503" lon="6.32031">
        <ele>143</ele>
        <time>2026-05-20T09:23:05+02:00</time>
      </trkpt>
      <trkpt lat="49.42499" lon="6.32027">
        <ele>143</ele>
        <time>2026-05-20T09:23:06+02:00</time>
      </trkpt>
      <trkpt lat="49.42494" lon="6.32023">
        <ele>143</ele>
        <time>2026-05-20T09:23:07+02:00</time>
      </trkpt>
      <trkpt lat="49.42489" lon="6.32018">
        <ele>143</ele>
        <time>2026-05-20T09:23:08+02:00</time>
      </trkpt>
      <trkpt lat="49.42484" lon="6.32014">
        <ele>142.90039</ele>
        <time>2026-05-20T09:23:09+02:00</time>
      </trkpt>
      <trkpt lat="49.42479" lon="6.32008">
        <ele>142.7998</ele>
        <time>2026-05-20T09:23:10+02:00</time>
      </trkpt>
      <trkpt lat="49.42474" lon="6.32003">
        <ele>142.7998</ele>
        <time>2026-05-20T09:23:11+02:00</time>
      </trkpt>
      <trkpt lat="49.42469" lon="6.31997">
        <ele>142.90039</ele>
        <time>2026-05-20T09:23:12+02:00</time>
      </trkpt>
      <trkpt lat="49.42465" lon="6.31992">
        <ele>142.90039</ele>
        <time>2026-05-20T09:23:13+02:00</time>
      </trkpt>
      <trkpt lat="49.4246" lon="6.31986">
        <ele>142.90039</ele>
        <time>2026-05-20T09:23:14+02:00</time>
      </trkpt>
      <trkpt lat="49.42455" lon="6.31981">
        <ele>142.7998</ele>
        <time>2026-05-20T09:23:15+02:00</time>
      </trkpt>
      <trkpt lat="49.42451" lon="6.31975">
        <ele>142.7002</ele>
        <time>2026-05-20T09:23:16+02:00</time>
      </trkpt>
      <trkpt lat="49.42447" lon="6.31969">
        <ele>142.7998</ele>
        <time>2026-05-20T09:23:17+02:00</time>
      </trkpt>
      <trkpt lat="49.42443" lon="6.31963">
        <ele>142.7998</ele>
        <time>2026-05-20T09:23:18+02:00</time>
      </trkpt>
      <trkpt lat="49.42439" lon="6.31957">
        <ele>142.90039</ele>
        <time>2026-05-20T09:23:19+02:00</time>
      </trkpt>
      <trkpt lat="49.42435" lon="6.3195">
        <ele>142.7998</ele>
        <time>2026-05-20T09:23:20+02:00</time>
      </trkpt>
      <trkpt lat="49.42431" lon="6.31944">
        <ele>142.7002</ele>
        <time>2026-05-20T09:23:21+02:00</time>
      </trkpt>
      <trkpt lat="49.42427" lon="6.31937">
        <ele>142.90039</ele>
        <time>2026-05-20T09:23:22+02:00</time>
      </trkpt>
      <trkpt lat="49.42423" lon="6.31931">
        <ele>142.7998</ele>
        <time>2026-05-20T09:23:23+02:00</time>
      </trkpt>
      <trkpt lat="49.4242" lon="6.31925">
        <ele>142.90039</ele>
        <time>2026-05-20T09:23:24+02:00</time>
      </trkpt>
      <trkpt lat="49.42416" lon="6.31919">
        <ele>143.2002</ele>
        <time>2026-05-20T09:23:25+02:00</time>
      </trkpt>
      <trkpt lat="49.42412" lon="6.31913">
        <ele>142.90039</ele>
        <time>2026-05-20T09:23:26+02:00</time>
      </trkpt>
      <trkpt lat="49.42409" lon="6.31907">
        <ele>142.7002</ele>
        <time>2026-05-20T09:23:27+02:00</time>
      </trkpt>
      <trkpt lat="49.42405" lon="6.31901">
        <ele>143</ele>
        <time>2026-05-20T09:23:28+02:00</time>
      </trkpt>
      <trkpt lat="49.42401" lon="6.31895">
        <ele>142.7998</ele>
        <time>2026-05-20T09:23:29+02:00</time>
      </trkpt>
      <trkpt lat="49.42397" lon="6.31889">
        <ele>143</ele>
        <time>2026-05-20T09:23:30+02:00</time>
      </trkpt>
      <trkpt lat="49.42394" lon="6.31882">
        <ele>143.60059</ele>
        <time>2026-05-20T09:23:31+02:00</time>
      </trkpt>
      <trkpt lat="49.4239" lon="6.31875">
        <ele>143.10059</ele>
        <time>2026-05-20T09:23:32+02:00</time>
      </trkpt>
      <trkpt lat="49.42386" lon="6.31869">
        <ele>142.7998</ele>
        <time>2026-05-20T09:23:33+02:00</time>
      </trkpt>
      <trkpt lat="49.42382" lon="6.31861">
        <ele>143.10059</ele>
        <time>2026-05-20T09:23:34+02:00</time>
      </trkpt>
      <trkpt lat="49.42379" lon="6.31854">
        <ele>143.2998</ele>
        <time>2026-05-20T09:23:35+02:00</time>
      </trkpt>
      <trkpt lat="49.42375" lon="6.31847">
        <ele>143.5</ele>
        <time>2026-05-20T09:23:36+02:00</time>
      </trkpt>
      <trkpt lat="49.42371" lon="6.3184">
        <ele>143.90039</ele>
        <time>2026-05-20T09:23:37+02:00</time>
      </trkpt>
      <trkpt lat="49.42368" lon="6.31832">
        <ele>143.40039</ele>
        <time>2026-05-20T09:23:38+02:00</time>
      </trkpt>
      <trkpt lat="49.42364" lon="6.31825">
        <ele>142.7998</ele>
        <time>2026-05-20T09:23:39+02:00</time>
      </trkpt>
      <trkpt lat="49.42361" lon="6.31817">
        <ele>142.7998</ele>
        <time>2026-05-20T09:23:40+02:00</time>
      </trkpt>
      <trkpt lat="49.42358" lon="6.31809">
        <ele>142.5</ele>
        <time>2026-05-20T09:23:41+02:00</time>
      </trkpt>
      <trkpt lat="49.42355" lon="6.31802">
        <ele>142.7002</ele>
        <time>2026-05-20T09:23:42+02:00</time>
      </trkpt>
      <trkpt lat="49.42351" lon="6.31794">
        <ele>142.7998</ele>
        <time>2026-05-20T09:23:43+02:00</time>
      </trkpt>
      <trkpt lat="49.42348" lon="6.31786">
        <ele>143.2998</ele>
        <time>2026-05-20T09:23:44+02:00</time>
      </trkpt>
      <trkpt lat="49.42344" lon="6.31778">
        <ele>143.5</ele>
        <time>2026-05-20T09:23:45+02:00</time>
      </trkpt>
      <trkpt lat="49.42342" lon="6.3177">
        <ele>143</ele>
        <time>2026-05-20T09:23:46+02:00</time>
      </trkpt>
      <trkpt lat="49.42339" lon="6.31761">
        <ele>143.40039</ele>
        <time>2026-05-20T09:23:47+02:00</time>
      </trkpt>
      <trkpt lat="49.42336" lon="6.31753">
        <ele>143.7002</ele>
        <time>2026-05-20T09:23:48+02:00</time>
      </trkpt>
      <trkpt lat="49.42333" lon="6.31744">
        <ele>144.40039</ele>
        <time>2026-05-20T09:23:49+02:00</time>
      </trkpt>
      <trkpt lat="49.42331" lon="6.31736">
        <ele>144.2002</ele>
        <time>2026-05-20T09:23:50+02:00</time>
      </trkpt>
      <trkpt lat="49.4233" lon="6.31727">
        <ele>144.2998</ele>
        <time>2026-05-20T09:23:51+02:00</time>
      </trkpt>
      <trkpt lat="49.42328" lon="6.31718">
        <ele>144.40039</ele>
        <time>2026-05-20T09:23:52+02:00</time>
      </trkpt>
      <trkpt lat="49.42326" lon="6.31709">
        <ele>144.5</ele>
        <time>2026-05-20T09:23:53+02:00</time>
      </trkpt>
      <trkpt lat="49.42325" lon="6.317">
        <ele>143.7998</ele>
        <time>2026-05-20T09:23:54+02:00</time>
      </trkpt>
      <trkpt lat="49.42323" lon="6.31692">
        <ele>143.90039</ele>
        <time>2026-05-20T09:23:55+02:00</time>
      </trkpt>
      <trkpt lat="49.42321" lon="6.31684">
        <ele>144</ele>
        <time>2026-05-20T09:23:56+02:00</time>
      </trkpt>
      <trkpt lat="49.42318" lon="6.31675">
        <ele>143.2998</ele>
        <time>2026-05-20T09:23:57+02:00</time>
      </trkpt>
      <trkpt lat="49.42316" lon="6.31667">
        <ele>143.40039</ele>
        <time>2026-05-20T09:23:58+02:00</time>
      </trkpt>
      <trkpt lat="49.42314" lon="6.31659">
        <ele>143.2998</ele>
        <time>2026-05-20T09:23:59+02:00</time>
      </trkpt>
      <trkpt lat="49.42312" lon="6.3165">
        <ele>143.90039</ele>
        <time>2026-05-20T09:24:00+02:00</time>
      </trkpt>
      <trkpt lat="49.42309" lon="6.31642">
        <ele>144.40039</ele>
        <time>2026-05-20T09:24:01+02:00</time>
      </trkpt>
      <trkpt lat="49.42307" lon="6.31634">
        <ele>144.2998</ele>
        <time>2026-05-20T09:24:02+02:00</time>
      </trkpt>
      <trkpt lat="49.42305" lon="6.31626">
        <ele>144.40039</ele>
        <time>2026-05-20T09:24:03+02:00</time>
      </trkpt>
      <trkpt lat="49.42303" lon="6.31617">
        <ele>143.90039</ele>
        <time>2026-05-20T09:24:04+02:00</time>
      </trkpt>
      <trkpt lat="49.42301" lon="6.31609">
        <ele>144</ele>
        <time>2026-05-20T09:24:05+02:00</time>
      </trkpt>
      <trkpt lat="49.423" lon="6.316">
        <ele>144.10059</ele>
        <time>2026-05-20T09:24:06+02:00</time>
      </trkpt>
      <trkpt lat="49.42299" lon="6.31591">
        <ele>144.10059</ele>
        <time>2026-05-20T09:24:07+02:00</time>
      </trkpt>
      <trkpt lat="49.42299" lon="6.31582">
        <ele>144.10059</ele>
        <time>2026-05-20T09:24:08+02:00</time>
      </trkpt>
      <trkpt lat="49.42299" lon="6.31573">
        <ele>144.10059</ele>
        <time>2026-05-20T09:24:09+02:00</time>
      </trkpt>
      <trkpt lat="49.423" lon="6.31564">
        <ele>144.10059</ele>
        <time>2026-05-20T09:24:10+02:00</time>
      </trkpt>
      <trkpt lat="49.42302" lon="6.31555">
        <ele>144.10059</ele>
        <time>2026-05-20T09:24:11+02:00</time>
      </trkpt>
      <trkpt lat="49.42304" lon="6.31547">
        <ele>144.7002</ele>
        <time>2026-05-20T09:24:12+02:00</time>
      </trkpt>
      <trkpt lat="49.42307" lon="6.31538">
        <ele>144.7002</ele>
        <time>2026-05-20T09:24:13+02:00</time>
      </trkpt>
      <trkpt lat="49.4231" lon="6.31529">
        <ele>145.2002</ele>
        <time>2026-05-20T09:24:14+02:00</time>
      </trkpt>
      <trkpt lat="49.42312" lon="6.3152">
        <ele>145.2002</ele>
        <time>2026-05-20T09:24:15+02:00</time>
      </trkpt>
      <trkpt lat="49.42313" lon="6.31512">
        <ele>145.2002</ele>
        <time>2026-05-20T09:24:16+02:00</time>
      </trkpt>
      <trkpt lat="49.42314" lon="6.31503">
        <ele>145.10059</ele>
        <time>2026-05-20T09:24:17+02:00</time>
      </trkpt>
      <trkpt lat="49.42314" lon="6.31494">
        <ele>145.10059</ele>
        <time>2026-05-20T09:24:18+02:00</time>
      </trkpt>
      <trkpt lat="49.42315" lon="6.31484">
        <ele>145.60059</ele>
        <time>2026-05-20T09:24:19+02:00</time>
      </trkpt>
      <trkpt lat="49.42316" lon="6.31475">
        <ele>145.60059</ele>
        <time>2026-05-20T09:24:20+02:00</time>
      </trkpt>
      <trkpt lat="49.42317" lon="6.31466">
        <ele>145.60059</ele>
        <time>2026-05-20T09:24:21+02:00</time>
      </trkpt>
      <trkpt lat="49.42318" lon="6.31457">
        <ele>145.60059</ele>
        <time>2026-05-20T09:24:22+02:00</time>
      </trkpt>
      <trkpt lat="49.4232" lon="6.31448">
        <ele>145.60059</ele>
        <time>2026-05-20T09:24:23+02:00</time>
      </trkpt>
      <trkpt lat="49.42322" lon="6.31439">
        <ele>146</ele>
        <time>2026-05-20T09:24:24+02:00</time>
      </trkpt>
      <trkpt lat="49.42323" lon="6.3143">
        <ele>146</ele>
        <time>2026-05-20T09:24:25+02:00</time>
      </trkpt>
      <trkpt lat="49.42326" lon="6.31421">
        <ele>146.2998</ele>
        <time>2026-05-20T09:24:26+02:00</time>
      </trkpt>
      <trkpt lat="49.42328" lon="6.31412">
        <ele>146.40039</ele>
        <time>2026-05-20T09:24:27+02:00</time>
      </trkpt>
      <trkpt lat="49.42331" lon="6.31404">
        <ele>146.40039</ele>
        <time>2026-05-20T09:24:28+02:00</time>
      </trkpt>
      <trkpt lat="49.42334" lon="6.31396">
        <ele>146.40039</ele>
        <time>2026-05-20T09:24:29+02:00</time>
      </trkpt>
      <trkpt lat="49.42338" lon="6.31388">
        <ele>146.5</ele>
        <time>2026-05-20T09:24:30+02:00</time>
      </trkpt>
      <trkpt lat="49.42342" lon="6.3138">
        <ele>146.5</ele>
        <time>2026-05-20T09:24:31+02:00</time>
      </trkpt>
      <trkpt lat="49.42346" lon="6.31373">
        <ele>146.7002</ele>
        <time>2026-05-20T09:24:32+02:00</time>
      </trkpt>
      <trkpt lat="49.4235" lon="6.31366">
        <ele>146.7998</ele>
        <time>2026-05-20T09:24:33+02:00</time>
      </trkpt>
      <trkpt lat="49.42354" lon="6.31358">
        <ele>147</ele>
        <time>2026-05-20T09:24:34+02:00</time>
      </trkpt>
      <trkpt lat="49.42358" lon="6.31351">
        <ele>147</ele>
        <time>2026-05-20T09:24:35+02:00</time>
      </trkpt>
      <trkpt lat="49.42362" lon="6.31344">
        <ele>147</ele>
        <time>2026-05-20T09:24:36+02:00</time>
      </trkpt>
      <trkpt lat="49.42366" lon="6.31336">
        <ele>147</ele>
        <time>2026-05-20T09:24:37+02:00</time>
      </trkpt>
      <trkpt lat="49.4237" lon="6.31329">
        <ele>147</ele>
        <time>2026-05-20T09:24:38+02:00</time>
      </trkpt>
      <trkpt lat="49.42374" lon="6.31321">
        <ele>147</ele>
        <time>2026-05-20T09:24:39+02:00</time>
      </trkpt>
      <trkpt lat="49.42378" lon="6.31313">
        <ele>147</ele>
        <time>2026-05-20T09:24:40+02:00</time>
      </trkpt>
      <trkpt lat="49.42382" lon="6.31305">
        <ele>147</ele>
        <time>2026-05-20T09:24:41+02:00</time>
      </trkpt>
      <trkpt lat="49.42385" lon="6.31297">
        <ele>147</ele>
        <time>2026-05-20T09:24:42+02:00</time>
      </trkpt>
      <trkpt lat="49.42388" lon="6.31289">
        <ele>147</ele>
        <time>2026-05-20T09:24:43+02:00</time>
      </trkpt>
      <trkpt lat="49.4239" lon="6.3128">
        <ele>147</ele>
        <time>2026-05-20T09:24:44+02:00</time>
      </trkpt>
      <trkpt lat="49.42392" lon="6.31271">
        <ele>147</ele>
        <time>2026-05-20T09:24:45+02:00</time>
      </trkpt>
      <trkpt lat="49.42394" lon="6.31263">
        <ele>147</ele>
        <time>2026-05-20T09:24:46+02:00</time>
      </trkpt>
      <trkpt lat="49.42396" lon="6.31254">
        <ele>147.10059</ele>
        <time>2026-05-20T09:24:47+02:00</time>
      </trkpt>
      <trkpt lat="49.42397" lon="6.31246">
        <ele>147.10059</ele>
        <time>2026-05-20T09:24:48+02:00</time>
      </trkpt>
      <trkpt lat="49.42399" lon="6.31237">
        <ele>147.10059</ele>
        <time>2026-05-20T09:24:49+02:00</time>
      </trkpt>
      <trkpt lat="49.424" lon="6.31229">
        <ele>147.10059</ele>
        <time>2026-05-20T09:24:50+02:00</time>
      </trkpt>
      <trkpt lat="49.42401" lon="6.31221">
        <ele>147.10059</ele>
        <time>2026-05-20T09:24:51+02:00</time>
      </trkpt>
      <trkpt lat="49.42403" lon="6.31212">
        <ele>147.2002</ele>
        <time>2026-05-20T09:24:52+02:00</time>
      </trkpt>
      <trkpt lat="49.42404" lon="6.31204">
        <ele>147.2002</ele>
        <time>2026-05-20T09:24:53+02:00</time>
      </trkpt>
      <trkpt lat="49.42405" lon="6.31195">
        <ele>147.2002</ele>
        <time>2026-05-20T09:24:54+02:00</time>
      </trkpt>
      <trkpt lat="49.42405" lon="6.31187">
        <ele>147.2002</ele>
        <time>2026-05-20T09:24:55+02:00</time>
      </trkpt>
      <trkpt lat="49.42407" lon="6.31179">
        <ele>147.2002</ele>
        <time>2026-05-20T09:24:56+02:00</time>
      </trkpt>
      <trkpt lat="49.42408" lon="6.31171">
        <ele>147.2998</ele>
        <time>2026-05-20T09:24:57+02:00</time>
      </trkpt>
      <trkpt lat="49.42409" lon="6.31162">
        <ele>147.40039</ele>
        <time>2026-05-20T09:24:58+02:00</time>
      </trkpt>
      <trkpt lat="49.42409" lon="6.31154">
        <ele>147.40039</ele>
        <time>2026-05-20T09:24:59+02:00</time>
      </trkpt>
      <trkpt lat="49.4241" lon="6.31146">
        <ele>147.60059</ele>
        <time>2026-05-20T09:25:00+02:00</time>
      </trkpt>
      <trkpt lat="49.4241" lon="6.31137">
        <ele>147.5</ele>
        <time>2026-05-20T09:25:01+02:00</time>
      </trkpt>
      <trkpt lat="49.42411" lon="6.31128">
        <ele>147.2998</ele>
        <time>2026-05-20T09:25:02+02:00</time>
      </trkpt>
      <trkpt lat="49.42412" lon="6.3112">
        <ele>147</ele>
        <time>2026-05-20T09:25:03+02:00</time>
      </trkpt>
      <trkpt lat="49.42413" lon="6.31111">
        <ele>146.7002</ele>
        <time>2026-05-20T09:25:04+02:00</time>
      </trkpt>
      <trkpt lat="49.42416" lon="6.31104">
        <ele>146.90039</ele>
        <time>2026-05-20T09:25:05+02:00</time>
      </trkpt>
      <trkpt lat="49.42418" lon="6.31096">
        <ele>146.90039</ele>
        <time>2026-05-20T09:25:06+02:00</time>
      </trkpt>
      <trkpt lat="49.42422" lon="6.3109">
        <ele>147</ele>
        <time>2026-05-20T09:25:07+02:00</time>
      </trkpt>
      <trkpt lat="49.42427" lon="6.31084">
        <ele>147</ele>
        <time>2026-05-20T09:25:08+02:00</time>
      </trkpt>
      <trkpt lat="49.42432" lon="6.31078">
        <ele>147.2002</ele>
        <time>2026-05-20T09:25:09+02:00</time>
      </trkpt>
      <trkpt lat="49.42436" lon="6.31073">
        <ele>147.2002</ele>
        <time>2026-05-20T09:25:10+02:00</time>
      </trkpt>
      <trkpt lat="49.42441" lon="6.31067">
        <ele>147.40039</ele>
        <time>2026-05-20T09:25:11+02:00</time>
      </trkpt>
      <trkpt lat="49.42445" lon="6.31061">
        <ele>147.2998</ele>
        <time>2026-05-20T09:25:12+02:00</time>
      </trkpt>
      <trkpt lat="49.4245" lon="6.31055">
        <ele>147.7002</ele>
        <time>2026-05-20T09:25:13+02:00</time>
      </trkpt>
      <trkpt lat="49.42454" lon="6.3105">
        <ele>147.2998</ele>
        <time>2026-05-20T09:25:14+02:00</time>
      </trkpt>
      <trkpt lat="49.42458" lon="6.31044">
        <ele>146.5</ele>
        <time>2026-05-20T09:25:15+02:00</time>
      </trkpt>
      <trkpt lat="49.42463" lon="6.31039">
        <ele>146.90039</ele>
        <time>2026-05-20T09:25:16+02:00</time>
      </trkpt>
      <trkpt lat="49.42467" lon="6.31034">
        <ele>146.90039</ele>
        <time>2026-05-20T09:25:17+02:00</time>
      </trkpt>
      <trkpt lat="49.42472" lon="6.31029">
        <ele>147.60059</ele>
        <time>2026-05-20T09:25:18+02:00</time>
      </trkpt>
      <trkpt lat="49.42476" lon="6.31024">
        <ele>147.10059</ele>
        <time>2026-05-20T09:25:19+02:00</time>
      </trkpt>
      <trkpt lat="49.42481" lon="6.31019">
        <ele>147.90039</ele>
        <time>2026-05-20T09:25:20+02:00</time>
      </trkpt>
      <trkpt lat="49.42485" lon="6.31014">
        <ele>148.10059</ele>
        <time>2026-05-20T09:25:21+02:00</time>
      </trkpt>
      <trkpt lat="49.4249" lon="6.31009">
        <ele>147.90039</ele>
        <time>2026-05-20T09:25:22+02:00</time>
      </trkpt>
      <trkpt lat="49.42495" lon="6.31004">
        <ele>148.60059</ele>
        <time>2026-05-20T09:25:23+02:00</time>
      </trkpt>
      <trkpt lat="49.42499" lon="6.30999">
        <ele>148.40039</ele>
        <time>2026-05-20T09:25:24+02:00</time>
      </trkpt>
      <trkpt lat="49.42504" lon="6.30996">
        <ele>148.40039</ele>
        <time>2026-05-20T09:25:25+02:00</time>
      </trkpt>
      <trkpt lat="49.42509" lon="6.30991">
        <ele>148.2998</ele>
        <time>2026-05-20T09:25:26+02:00</time>
      </trkpt>
      <trkpt lat="49.42513" lon="6.30987">
        <ele>149.2998</ele>
        <time>2026-05-20T09:25:27+02:00</time>
      </trkpt>
      <trkpt lat="49.42518" lon="6.30983">
        <ele>149.5</ele>
        <time>2026-05-20T09:25:28+02:00</time>
      </trkpt>
      <trkpt lat="49.42523" lon="6.30978">
        <ele>150.60059</ele>
        <time>2026-05-20T09:25:29+02:00</time>
      </trkpt>
      <trkpt lat="49.42528" lon="6.30974">
        <ele>150.2998</ele>
        <time>2026-05-20T09:25:30+02:00</time>
      </trkpt>
      <trkpt lat="49.42532" lon="6.30969">
        <ele>150.2998</ele>
        <time>2026-05-20T09:25:31+02:00</time>
      </trkpt>
      <trkpt lat="49.42537" lon="6.30964">
        <ele>150</ele>
        <time>2026-05-20T09:25:32+02:00</time>
      </trkpt>
      <trkpt lat="49.42542" lon="6.3096">
        <ele>151.10059</ele>
        <time>2026-05-20T09:25:33+02:00</time>
      </trkpt>
      <trkpt lat="49.42547" lon="6.30955">
        <ele>151.2002</ele>
        <time>2026-05-20T09:25:34+02:00</time>
      </trkpt>
      <trkpt lat="49.42552" lon="6.30951">
        <ele>152.60059</ele>
        <time>2026-05-20T09:25:35+02:00</time>
      </trkpt>
      <trkpt lat="49.42557" lon="6.30947">
        <ele>151.7002</ele>
        <time>2026-05-20T09:25:36+02:00</time>
      </trkpt>
      <trkpt lat="49.42562" lon="6.30943">
        <ele>152.40039</ele>
        <time>2026-05-20T09:25:37+02:00</time>
      </trkpt>
      <trkpt lat="49.42567" lon="6.30939">
        <ele>150.2998</ele>
        <time>2026-05-20T09:25:38+02:00</time>
      </trkpt>
      <trkpt lat="49.42573" lon="6.30935">
        <ele>150.60059</ele>
        <time>2026-05-20T09:25:39+02:00</time>
      </trkpt>
      <trkpt lat="49.42579" lon="6.30931">
        <ele>148.10059</ele>
        <time>2026-05-20T09:25:40+02:00</time>
      </trkpt>
      <trkpt lat="49.42584" lon="6.30928">
        <ele>148.2002</ele>
        <time>2026-05-20T09:25:41+02:00</time>
      </trkpt>
      <trkpt lat="49.4259" lon="6.30926">
        <ele>148.2998</ele>
        <time>2026-05-20T09:25:42+02:00</time>
      </trkpt>
      <trkpt lat="49.42596" lon="6.30923">
        <ele>146.5</ele>
        <time>2026-05-20T09:25:43+02:00</time>
      </trkpt>
      <trkpt lat="49.42602" lon="6.3092">
        <ele>146.5</ele>
        <time>2026-05-20T09:25:44+02:00</time>
      </trkpt>
      <trkpt lat="49.42607" lon="6.30917">
        <ele>146.60059</ele>
        <time>2026-05-20T09:25:45+02:00</time>
      </trkpt>
      <trkpt lat="49.42613" lon="6.30915">
        <ele>145.2998</ele>
        <time>2026-05-20T09:25:46+02:00</time>
      </trkpt>
      <trkpt lat="49.42618" lon="6.30913">
        <ele>145.40039</ele>
        <time>2026-05-20T09:25:47+02:00</time>
      </trkpt>
      <trkpt lat="49.42624" lon="6.30911">
        <ele>145.5</ele>
        <time>2026-05-20T09:25:48+02:00</time>
      </trkpt>
      <trkpt lat="49.4263" lon="6.30909">
        <ele>145.60059</ele>
        <time>2026-05-20T09:25:49+02:00</time>
      </trkpt>
      <trkpt lat="49.42636" lon="6.30908">
        <ele>145.90039</ele>
        <time>2026-05-20T09:25:50+02:00</time>
      </trkpt>
      <trkpt lat="49.42642" lon="6.30907">
        <ele>144.90039</ele>
        <time>2026-05-20T09:25:51+02:00</time>
      </trkpt>
      <trkpt lat="49.42648" lon="6.30905">
        <ele>145</ele>
        <time>2026-05-20T09:25:52+02:00</time>
      </trkpt>
      <trkpt lat="49.42654" lon="6.30904">
        <ele>144.7998</ele>
        <time>2026-05-20T09:25:53+02:00</time>
      </trkpt>
      <trkpt lat="49.4266" lon="6.30902">
        <ele>144.40039</ele>
        <time>2026-05-20T09:25:54+02:00</time>
      </trkpt>
      <trkpt lat="49.42665" lon="6.30901">
        <ele>144.10059</ele>
        <time>2026-05-20T09:25:55+02:00</time>
      </trkpt>
      <trkpt lat="49.42671" lon="6.309">
        <ele>144.2998</ele>
        <time>2026-05-20T09:25:56+02:00</time>
      </trkpt>
      <trkpt lat="49.42677" lon="6.30899">
        <ele>145.2998</ele>
        <time>2026-05-20T09:25:57+02:00</time>
      </trkpt>
      <trkpt lat="49.42683" lon="6.30899">
        <ele>147.10059</ele>
        <time>2026-05-20T09:25:58+02:00</time>
      </trkpt>
      <trkpt lat="49.42689" lon="6.30898">
        <ele>148.10059</ele>
        <time>2026-05-20T09:25:59+02:00</time>
      </trkpt>
      <trkpt lat="49.42695" lon="6.30897">
        <ele>148.5</ele>
        <time>2026-05-20T09:26:00+02:00</time>
      </trkpt>
      <trkpt lat="49.42701" lon="6.30897">
        <ele>148.90039</ele>
        <time>2026-05-20T09:26:01+02:00</time>
      </trkpt>
      <trkpt lat="49.42706" lon="6.30897">
        <ele>149.2002</ele>
        <time>2026-05-20T09:26:02+02:00</time>
      </trkpt>
      <trkpt lat="49.42712" lon="6.30897">
        <ele>149.60059</ele>
        <time>2026-05-20T09:26:03+02:00</time>
      </trkpt>
      <trkpt lat="49.42717" lon="6.30896">
        <ele>150.10059</ele>
        <time>2026-05-20T09:26:04+02:00</time>
      </trkpt>
      <trkpt lat="49.42723" lon="6.30896">
        <ele>150.5</ele>
        <time>2026-05-20T09:26:05+02:00</time>
      </trkpt>
      <trkpt lat="49.42729" lon="6.30896">
        <ele>151</ele>
        <time>2026-05-20T09:26:06+02:00</time>
      </trkpt>
      <trkpt lat="49.42734" lon="6.30895">
        <ele>151.5</ele>
        <time>2026-05-20T09:26:07+02:00</time>
      </trkpt>
      <trkpt lat="49.4274" lon="6.30895">
        <ele>152.10059</ele>
        <time>2026-05-20T09:26:08+02:00</time>
      </trkpt>
      <trkpt lat="49.42745" lon="6.30895">
        <ele>152.7998</ele>
        <time>2026-05-20T09:26:09+02:00</time>
      </trkpt>
      <trkpt lat="49.42751" lon="6.30895">
        <ele>153.60059</ele>
        <time>2026-05-20T09:26:10+02:00</time>
      </trkpt>
      <trkpt lat="49.42756" lon="6.30895">
        <ele>154.2002</ele>
        <time>2026-05-20T09:26:11+02:00</time>
      </trkpt>
      <trkpt lat="49.42762" lon="6.30895">
        <ele>154.7002</ele>
        <time>2026-05-20T09:26:12+02:00</time>
      </trkpt>
      <trkpt lat="49.42767" lon="6.30895">
        <ele>155.2002</ele>
        <time>2026-05-20T09:26:13+02:00</time>
      </trkpt>
      <trkpt lat="49.42773" lon="6.30895">
        <ele>155.5</ele>
        <time>2026-05-20T09:26:14+02:00</time>
      </trkpt>
      <trkpt lat="49.42779" lon="6.30895">
        <ele>155.7002</ele>
        <time>2026-05-20T09:26:15+02:00</time>
      </trkpt>
      <trkpt lat="49.42784" lon="6.30895">
        <ele>155.7002</ele>
        <time>2026-05-20T09:26:16+02:00</time>
      </trkpt>
      <trkpt lat="49.4279" lon="6.30895">
        <ele>155.60059</ele>
        <time>2026-05-20T09:26:17+02:00</time>
      </trkpt>
      <trkpt lat="49.42796" lon="6.30894">
        <ele>155.5</ele>
        <time>2026-05-20T09:26:18+02:00</time>
      </trkpt>
      <trkpt lat="49.42801" lon="6.30895">
        <ele>155.40039</ele>
        <time>2026-05-20T09:26:19+02:00</time>
      </trkpt>
      <trkpt lat="49.42807" lon="6.30895">
        <ele>155.10059</ele>
        <time>2026-05-20T09:26:20+02:00</time>
      </trkpt>
      <trkpt lat="49.42813" lon="6.30895">
        <ele>154.7002</ele>
        <time>2026-05-20T09:26:21+02:00</time>
      </trkpt>
      <trkpt lat="49.42819" lon="6.30895">
        <ele>154.40039</ele>
        <time>2026-05-20T09:26:22+02:00</time>
      </trkpt>
      <trkpt lat="49.42824" lon="6.30895">
        <ele>154.2998</ele>
        <time>2026-05-20T09:26:23+02:00</time>
      </trkpt>
      <trkpt lat="49.4283" lon="6.30895">
        <ele>154.60059</ele>
        <time>2026-05-20T09:26:24+02:00</time>
      </trkpt>
      <trkpt lat="49.42835" lon="6.30895">
        <ele>155.2998</ele>
        <time>2026-05-20T09:26:25+02:00</time>
      </trkpt>
      <trkpt lat="49.42841" lon="6.30895">
        <ele>156.2002</ele>
        <time>2026-05-20T09:26:26+02:00</time>
      </trkpt>
      <trkpt lat="49.42846" lon="6.30895">
        <ele>156.90039</ele>
        <time>2026-05-20T09:26:27+02:00</time>
      </trkpt>
      <trkpt lat="49.42851" lon="6.30895">
        <ele>157.5</ele>
        <time>2026-05-20T09:26:28+02:00</time>
      </trkpt>
      <trkpt lat="49.42857" lon="6.30895">
        <ele>158</ele>
        <time>2026-05-20T09:26:29+02:00</time>
      </trkpt>
      <trkpt lat="49.42862" lon="6.30895">
        <ele>158.40039</ele>
        <time>2026-05-20T09:26:30+02:00</time>
      </trkpt>
      <trkpt lat="49.42867" lon="6.30895">
        <ele>158.40039</ele>
        <time>2026-05-20T09:26:31+02:00</time>
      </trkpt>
      <trkpt lat="49.42873" lon="6.30895">
        <ele>158.7002</ele>
        <time>2026-05-20T09:26:32+02:00</time>
      </trkpt>
      <trkpt lat="49.42878" lon="6.30895">
        <ele>158.7002</ele>
        <time>2026-05-20T09:26:33+02:00</time>
      </trkpt>
      <trkpt lat="49.42883" lon="6.30895">
        <ele>158.7002</ele>
        <time>2026-05-20T09:26:34+02:00</time>
      </trkpt>
      <trkpt lat="49.42888" lon="6.30894">
        <ele>158.7002</ele>
        <time>2026-05-20T09:26:35+02:00</time>
      </trkpt>
      <trkpt lat="49.42894" lon="6.30894">
        <ele>158.7002</ele>
        <time>2026-05-20T09:26:36+02:00</time>
      </trkpt>
      <trkpt lat="49.42899" lon="6.30894">
        <ele>158.60059</ele>
        <time>2026-05-20T09:26:37+02:00</time>
      </trkpt>
      <trkpt lat="49.42906" lon="6.30893">
        <ele>158.60059</ele>
        <time>2026-05-20T09:26:38+02:00</time>
      </trkpt>
      <trkpt lat="49.42911" lon="6.30893">
        <ele>158.60059</ele>
        <time>2026-05-20T09:26:39+02:00</time>
      </trkpt>
      <trkpt lat="49.42917" lon="6.30892">
        <ele>158.60059</ele>
        <time>2026-05-20T09:26:40+02:00</time>
      </trkpt>
      <trkpt lat="49.42923" lon="6.30891">
        <ele>158.5</ele>
        <time>2026-05-20T09:26:41+02:00</time>
      </trkpt>
      <trkpt lat="49.42929" lon="6.3089">
        <ele>158.2998</ele>
        <time>2026-05-20T09:26:42+02:00</time>
      </trkpt>
      <trkpt lat="49.42935" lon="6.30888">
        <ele>155.60059</ele>
        <time>2026-05-20T09:26:43+02:00</time>
      </trkpt>
      <trkpt lat="49.42941" lon="6.30887">
        <ele>155.40039</ele>
        <time>2026-05-20T09:26:44+02:00</time>
      </trkpt>
      <trkpt lat="49.42946" lon="6.30886">
        <ele>155.2002</ele>
        <time>2026-05-20T09:26:45+02:00</time>
      </trkpt>
      <trkpt lat="49.42952" lon="6.30884">
        <ele>154.90039</ele>
        <time>2026-05-20T09:26:46+02:00</time>
      </trkpt>
      <trkpt lat="49.42957" lon="6.30882">
        <ele>154.7002</ele>
        <time>2026-05-20T09:26:47+02:00</time>
      </trkpt>
      <trkpt lat="49.42963" lon="6.30881">
        <ele>151.90039</ele>
        <time>2026-05-20T09:26:48+02:00</time>
      </trkpt>
      <trkpt lat="49.42969" lon="6.30879">
        <ele>152</ele>
        <time>2026-05-20T09:26:49+02:00</time>
      </trkpt>
      <trkpt lat="49.42975" lon="6.30876">
        <ele>152.10059</ele>
        <time>2026-05-20T09:26:50+02:00</time>
      </trkpt>
      <trkpt lat="49.42981" lon="6.30874">
        <ele>152.2002</ele>
        <time>2026-05-20T09:26:51+02:00</time>
      </trkpt>
      <trkpt lat="49.42986" lon="6.30872">
        <ele>149.7002</ele>
        <time>2026-05-20T09:26:52+02:00</time>
      </trkpt>
      <trkpt lat="49.42992" lon="6.30869">
        <ele>149.90039</ele>
        <time>2026-05-20T09:26:53+02:00</time>
      </trkpt>
      <trkpt lat="49.42998" lon="6.30866">
        <ele>150.2002</ele>
        <time>2026-05-20T09:26:54+02:00</time>
      </trkpt>
      <trkpt lat="49.43004" lon="6.30863">
        <ele>148.5</ele>
        <time>2026-05-20T09:26:55+02:00</time>
      </trkpt>
      <trkpt lat="49.43009" lon="6.3086">
        <ele>149</ele>
        <time>2026-05-20T09:26:56+02:00</time>
      </trkpt>
      <trkpt lat="49.43015" lon="6.30857">
        <ele>149.60059</ele>
        <time>2026-05-20T09:26:57+02:00</time>
      </trkpt>
      <trkpt lat="49.43021" lon="6.30855">
        <ele>148.5</ele>
        <time>2026-05-20T09:26:58+02:00</time>
      </trkpt>
      <trkpt lat="49.43026" lon="6.30852">
        <ele>149.2002</ele>
        <time>2026-05-20T09:26:59+02:00</time>
      </trkpt>
      <trkpt lat="49.43033" lon="6.3085">
        <ele>150</ele>
        <time>2026-05-20T09:27:00+02:00</time>
      </trkpt>
      <trkpt lat="49.43038" lon="6.30847">
        <ele>150.7998</ele>
        <time>2026-05-20T09:27:01+02:00</time>
      </trkpt>
      <trkpt lat="49.43044" lon="6.30845">
        <ele>150.40039</ele>
        <time>2026-05-20T09:27:02+02:00</time>
      </trkpt>
      <trkpt lat="49.43049" lon="6.30842">
        <ele>151.40039</ele>
        <time>2026-05-20T09:27:03+02:00</time>
      </trkpt>
      <trkpt lat="49.43055" lon="6.30839">
        <ele>152.40039</ele>
        <time>2026-05-20T09:27:04+02:00</time>
      </trkpt>
      <trkpt lat="49.4306" lon="6.30837">
        <ele>152.10059</ele>
        <time>2026-05-20T09:27:05+02:00</time>
      </trkpt>
      <trkpt lat="49.43065" lon="6.30834">
        <ele>153.10059</ele>
        <time>2026-05-20T09:27:06+02:00</time>
      </trkpt>
      <trkpt lat="49.4307" lon="6.30831">
        <ele>153.90039</ele>
        <time>2026-05-20T09:27:07+02:00</time>
      </trkpt>
      <trkpt lat="49.43075" lon="6.30828">
        <ele>153.10059</ele>
        <time>2026-05-20T09:27:08+02:00</time>
      </trkpt>
      <trkpt lat="49.43079" lon="6.30825">
        <ele>153.10059</ele>
        <time>2026-05-20T09:27:09+02:00</time>
      </trkpt>
      <trkpt lat="49.43083" lon="6.30821">
        <ele>152.7002</ele>
        <time>2026-05-20T09:27:10+02:00</time>
      </trkpt>
      <trkpt lat="49.43085" lon="6.30817">
        <ele>153.40039</ele>
        <time>2026-05-20T09:27:11+02:00</time>
      </trkpt>
      <trkpt lat="49.43088" lon="6.30812">
        <ele>152.2998</ele>
        <time>2026-05-20T09:27:12+02:00</time>
      </trkpt>
      <trkpt lat="49.43092" lon="6.30807">
        <ele>152.90039</ele>
        <time>2026-05-20T09:27:13+02:00</time>
      </trkpt>
      <trkpt lat="49.43095" lon="6.30801">
        <ele>151.7998</ele>
        <time>2026-05-20T09:27:14+02:00</time>
      </trkpt>
      <trkpt lat="49.43097" lon="6.30794">
        <ele>151.2002</ele>
        <time>2026-05-20T09:27:15+02:00</time>
      </trkpt>
      <trkpt lat="49.431" lon="6.30788">
        <ele>151.2002</ele>
        <time>2026-05-20T09:27:16+02:00</time>
      </trkpt>
      <trkpt lat="49.43103" lon="6.30781">
        <ele>150.90039</ele>
        <time>2026-05-20T09:27:17+02:00</time>
      </trkpt>
      <trkpt lat="49.43106" lon="6.30774">
        <ele>150.10059</ele>
        <time>2026-05-20T09:27:18+02:00</time>
      </trkpt>
      <trkpt lat="49.43108" lon="6.30767">
        <ele>149.90039</ele>
        <time>2026-05-20T09:27:19+02:00</time>
      </trkpt>
      <trkpt lat="49.43111" lon="6.30759">
        <ele>149.10059</ele>
        <time>2026-05-20T09:27:20+02:00</time>
      </trkpt>
      <trkpt lat="49.43113" lon="6.30752">
        <ele>148.90039</ele>
        <time>2026-05-20T09:27:21+02:00</time>
      </trkpt>
      <trkpt lat="49.43116" lon="6.30744">
        <ele>148.2002</ele>
        <time>2026-05-20T09:27:22+02:00</time>
      </trkpt>
      <trkpt lat="49.43118" lon="6.30736">
        <ele>148.2002</ele>
        <time>2026-05-20T09:27:23+02:00</time>
      </trkpt>
      <trkpt lat="49.4312" lon="6.30728">
        <ele>148.40039</ele>
        <time>2026-05-20T09:27:24+02:00</time>
      </trkpt>
      <trkpt lat="49.43122" lon="6.30721">
        <ele>148</ele>
        <time>2026-05-20T09:27:25+02:00</time>
      </trkpt>
      <trkpt lat="49.43124" lon="6.30713">
        <ele>147.60059</ele>
        <time>2026-05-20T09:27:26+02:00</time>
      </trkpt>
      <trkpt lat="49.43126" lon="6.30706">
        <ele>148</ele>
        <time>2026-05-20T09:27:27+02:00</time>
      </trkpt>
      <trkpt lat="49.43128" lon="6.30699">
        <ele>147.60059</ele>
        <time>2026-05-20T09:27:28+02:00</time>
      </trkpt>
      <trkpt lat="49.43131" lon="6.30691">
        <ele>147.60059</ele>
        <time>2026-05-20T09:27:29+02:00</time>
      </trkpt>
      <trkpt lat="49.43134" lon="6.30684">
        <ele>147.60059</ele>
        <time>2026-05-20T09:27:30+02:00</time>
      </trkpt>
      <trkpt lat="49.43137" lon="6.30678">
        <ele>147.7002</ele>
        <time>2026-05-20T09:27:31+02:00</time>
      </trkpt>
      <trkpt lat="49.4314" lon="6.30671">
        <ele>147.40039</ele>
        <time>2026-05-20T09:27:32+02:00</time>
      </trkpt>
      <trkpt lat="49.43144" lon="6.30665">
        <ele>147.7002</ele>
        <time>2026-05-20T09:27:33+02:00</time>
      </trkpt>
      <trkpt lat="49.43147" lon="6.30657">
        <ele>148.10059</ele>
        <time>2026-05-20T09:27:34+02:00</time>
      </trkpt>
      <trkpt lat="49.4315" lon="6.30649">
        <ele>147.90039</ele>
        <time>2026-05-20T09:27:35+02:00</time>
      </trkpt>
      <trkpt lat="49.43153" lon="6.3064">
        <ele>148.10059</ele>
        <time>2026-05-20T09:27:36+02:00</time>
      </trkpt>
      <trkpt lat="49.43155" lon="6.30631">
        <ele>147.90039</ele>
        <time>2026-05-20T09:27:37+02:00</time>
      </trkpt>
      <trkpt lat="49.43157" lon="6.30622">
        <ele>147.7002</ele>
        <time>2026-05-20T09:27:38+02:00</time>
      </trkpt>
      <trkpt lat="49.43157" lon="6.30613">
        <ele>147.40039</ele>
        <time>2026-05-20T09:27:39+02:00</time>
      </trkpt>
      <trkpt lat="49.43156" lon="6.30604">
        <ele>147.2002</ele>
        <time>2026-05-20T09:27:40+02:00</time>
      </trkpt>
      <trkpt lat="49.43156" lon="6.30594">
        <ele>147.10059</ele>
        <time>2026-05-20T09:27:41+02:00</time>
      </trkpt>
      <trkpt lat="49.43155" lon="6.30585">
        <ele>146.90039</ele>
        <time>2026-05-20T09:27:42+02:00</time>
      </trkpt>
      <trkpt lat="49.43155" lon="6.30576">
        <ele>146.7998</ele>
        <time>2026-05-20T09:27:43+02:00</time>
      </trkpt>
      <trkpt lat="49.43155" lon="6.30567">
        <ele>146.7998</ele>
        <time>2026-05-20T09:27:44+02:00</time>
      </trkpt>
      <trkpt lat="49.43155" lon="6.30558">
        <ele>146.7002</ele>
        <time>2026-05-20T09:27:45+02:00</time>
      </trkpt>
      <trkpt lat="49.43155" lon="6.30549">
        <ele>146.7002</ele>
        <time>2026-05-20T09:27:46+02:00</time>
      </trkpt>
      <trkpt lat="49.43156" lon="6.3054">
        <ele>146.7002</ele>
        <time>2026-05-20T09:27:47+02:00</time>
      </trkpt>
      <trkpt lat="49.43157" lon="6.30531">
        <ele>146.7002</ele>
        <time>2026-05-20T09:27:48+02:00</time>
      </trkpt>
      <trkpt lat="49.43156" lon="6.30522">
        <ele>146.7002</ele>
        <time>2026-05-20T09:27:49+02:00</time>
      </trkpt>
      <trkpt lat="49.43155" lon="6.30513">
        <ele>146.60059</ele>
        <time>2026-05-20T09:27:50+02:00</time>
      </trkpt>
      <trkpt lat="49.43153" lon="6.30505">
        <ele>146.60059</ele>
        <time>2026-05-20T09:27:51+02:00</time>
      </trkpt>
      <trkpt lat="49.4315" lon="6.30497">
        <ele>146.5</ele>
        <time>2026-05-20T09:27:52+02:00</time>
      </trkpt>
      <trkpt lat="49.43147" lon="6.3049">
        <ele>146.5</ele>
        <time>2026-05-20T09:27:53+02:00</time>
      </trkpt>
      <trkpt lat="49.43144" lon="6.30483">
        <ele>146.2002</ele>
        <time>2026-05-20T09:27:54+02:00</time>
      </trkpt>
      <trkpt lat="49.43141" lon="6.30476">
        <ele>146.2002</ele>
        <time>2026-05-20T09:27:55+02:00</time>
      </trkpt>
      <trkpt lat="49.43139" lon="6.3047">
        <ele>145.90039</ele>
        <time>2026-05-20T09:27:56+02:00</time>
      </trkpt>
      <trkpt lat="49.43136" lon="6.30464">
        <ele>145.7998</ele>
        <time>2026-05-20T09:27:57+02:00</time>
      </trkpt>
      <trkpt lat="49.43134" lon="6.30457">
        <ele>145.40039</ele>
        <time>2026-05-20T09:27:58+02:00</time>
      </trkpt>
      <trkpt lat="49.43132" lon="6.30451">
        <ele>145.40039</ele>
        <time>2026-05-20T09:27:59+02:00</time>
      </trkpt>
      <trkpt lat="49.4313" lon="6.30443">
        <ele>145.40039</ele>
        <time>2026-05-20T09:28:00+02:00</time>
      </trkpt>
      <trkpt lat="49.43129" lon="6.30436">
        <ele>145.10059</ele>
        <time>2026-05-20T09:28:01+02:00</time>
      </trkpt>
      <trkpt lat="49.43128" lon="6.30428">
        <ele>145.10059</ele>
        <time>2026-05-20T09:28:02+02:00</time>
      </trkpt>
      <trkpt lat="49.43126" lon="6.3042">
        <ele>145.10059</ele>
        <time>2026-05-20T09:28:03+02:00</time>
      </trkpt>
      <trkpt lat="49.43125" lon="6.30413">
        <ele>145.10059</ele>
        <time>2026-05-20T09:28:04+02:00</time>
      </trkpt>
      <trkpt lat="49.43125" lon="6.30405">
        <ele>145.2002</ele>
        <time>2026-05-20T09:28:05+02:00</time>
      </trkpt>
      <trkpt lat="49.43124" lon="6.30397">
        <ele>144.90039</ele>
        <time>2026-05-20T09:28:06+02:00</time>
      </trkpt>
      <trkpt lat="49.43122" lon="6.30389">
        <ele>145</ele>
        <time>2026-05-20T09:28:07+02:00</time>
      </trkpt>
      <trkpt lat="49.43121" lon="6.30382">
        <ele>145</ele>
        <time>2026-05-20T09:28:08+02:00</time>
      </trkpt>
      <trkpt lat="49.43119" lon="6.30374">
        <ele>145.10059</ele>
        <time>2026-05-20T09:28:09+02:00</time>
      </trkpt>
      <trkpt lat="49.43117" lon="6.30366">
        <ele>144.7002</ele>
        <time>2026-05-20T09:28:10+02:00</time>
      </trkpt>
      <trkpt lat="49.43115" lon="6.30359">
        <ele>144.7002</ele>
        <time>2026-05-20T09:28:11+02:00</time>
      </trkpt>
      <trkpt lat="49.43113" lon="6.30351">
        <ele>144.7002</ele>
        <time>2026-05-20T09:28:12+02:00</time>
      </trkpt>
      <trkpt lat="49.4311" lon="6.30344">
        <ele>144.40039</ele>
        <time>2026-05-20T09:28:13+02:00</time>
      </trkpt>
      <trkpt lat="49.43108" lon="6.30336">
        <ele>144.40039</ele>
        <time>2026-05-20T09:28:14+02:00</time>
      </trkpt>
      <trkpt lat="49.43105" lon="6.30329">
        <ele>144.10059</ele>
        <time>2026-05-20T09:28:15+02:00</time>
      </trkpt>
      <trkpt lat="49.43103" lon="6.30321">
        <ele>144</ele>
        <time>2026-05-20T09:28:16+02:00</time>
      </trkpt>
      <trkpt lat="49.431" lon="6.30314">
        <ele>143.7998</ele>
        <time>2026-05-20T09:28:17+02:00</time>
      </trkpt>
      <trkpt lat="49.43098" lon="6.30306">
        <ele>143.90039</ele>
        <time>2026-05-20T09:28:18+02:00</time>
      </trkpt>
      <trkpt lat="49.43096" lon="6.30298">
        <ele>143.90039</ele>
        <time>2026-05-20T09:28:19+02:00</time>
      </trkpt>
      <trkpt lat="49.43093" lon="6.3029">
        <ele>143.7998</ele>
        <time>2026-05-20T09:28:20+02:00</time>
      </trkpt>
      <trkpt lat="49.43091" lon="6.30282">
        <ele>144</ele>
        <time>2026-05-20T09:28:21+02:00</time>
      </trkpt>
      <trkpt lat="49.43089" lon="6.30275">
        <ele>144.10059</ele>
        <time>2026-05-20T09:28:22+02:00</time>
      </trkpt>
      <trkpt lat="49.43087" lon="6.30267">
        <ele>144.2002</ele>
        <time>2026-05-20T09:28:23+02:00</time>
      </trkpt>
      <trkpt lat="49.43084" lon="6.30259">
        <ele>144</ele>
        <time>2026-05-20T09:28:24+02:00</time>
      </trkpt>
      <trkpt lat="49.43082" lon="6.30251">
        <ele>144.10059</ele>
        <time>2026-05-20T09:28:25+02:00</time>
      </trkpt>
      <trkpt lat="49.4308" lon="6.30243">
        <ele>144.10059</ele>
        <time>2026-05-20T09:28:26+02:00</time>
      </trkpt>
      <trkpt lat="49.43078" lon="6.30235">
        <ele>143.90039</ele>
        <time>2026-05-20T09:28:27+02:00</time>
      </trkpt>
      <trkpt lat="49.43075" lon="6.30227">
        <ele>143.90039</ele>
        <time>2026-05-20T09:28:28+02:00</time>
      </trkpt>
      <trkpt lat="49.43073" lon="6.30219">
        <ele>143.7998</ele>
        <time>2026-05-20T09:28:29+02:00</time>
      </trkpt>
      <trkpt lat="49.43071" lon="6.30212">
        <ele>143.7998</ele>
        <time>2026-05-20T09:28:30+02:00</time>
      </trkpt>
      <trkpt lat="49.43069" lon="6.30204">
        <ele>143.7998</ele>
        <time>2026-05-20T09:28:31+02:00</time>
      </trkpt>
      <trkpt lat="49.43067" lon="6.30196">
        <ele>143.7998</ele>
        <time>2026-05-20T09:28:32+02:00</time>
      </trkpt>
      <trkpt lat="49.43064" lon="6.30188">
        <ele>143.90039</ele>
        <time>2026-05-20T09:28:33+02:00</time>
      </trkpt>
      <trkpt lat="49.43062" lon="6.30181">
        <ele>144</ele>
        <time>2026-05-20T09:28:34+02:00</time>
      </trkpt>
      <trkpt lat="49.4306" lon="6.30173">
        <ele>144.10059</ele>
        <time>2026-05-20T09:28:35+02:00</time>
      </trkpt>
      <trkpt lat="49.43057" lon="6.30165">
        <ele>144</ele>
        <time>2026-05-20T09:28:36+02:00</time>
      </trkpt>
      <trkpt lat="49.43055" lon="6.30157">
        <ele>144</ele>
        <time>2026-05-20T09:28:37+02:00</time>
      </trkpt>
      <trkpt lat="49.43053" lon="6.30149">
        <ele>144</ele>
        <time>2026-05-20T09:28:38+02:00</time>
      </trkpt>
      <trkpt lat="49.43051" lon="6.30141">
        <ele>143.7998</ele>
        <time>2026-05-20T09:28:39+02:00</time>
      </trkpt>
      <trkpt lat="49.43048" lon="6.30133">
        <ele>143.90039</ele>
        <time>2026-05-20T09:28:40+02:00</time>
      </trkpt>
      <trkpt lat="49.43046" lon="6.30125">
        <ele>144.10059</ele>
        <time>2026-05-20T09:28:41+02:00</time>
      </trkpt>
      <trkpt lat="49.43044" lon="6.30117">
        <ele>144.2998</ele>
        <time>2026-05-20T09:28:42+02:00</time>
      </trkpt>
      <trkpt lat="49.43041" lon="6.30109">
        <ele>144.2998</ele>
        <time>2026-05-20T09:28:43+02:00</time>
      </trkpt>
      <trkpt lat="49.43039" lon="6.30102">
        <ele>144.2998</ele>
        <time>2026-05-20T09:28:44+02:00</time>
      </trkpt>
      <trkpt lat="49.43036" lon="6.30094">
        <ele>144.60059</ele>
        <time>2026-05-20T09:28:45+02:00</time>
      </trkpt>
      <trkpt lat="49.43034" lon="6.30087">
        <ele>144.2002</ele>
        <time>2026-05-20T09:28:46+02:00</time>
      </trkpt>
      <trkpt lat="49.43031" lon="6.30079">
        <ele>144.2002</ele>
        <time>2026-05-20T09:28:47+02:00</time>
      </trkpt>
      <trkpt lat="49.43029" lon="6.30072">
        <ele>144</ele>
        <time>2026-05-20T09:28:48+02:00</time>
      </trkpt>
      <trkpt lat="49.43026" lon="6.30064">
        <ele>144</ele>
        <time>2026-05-20T09:28:49+02:00</time>
      </trkpt>
      <trkpt lat="49.43023" lon="6.30057">
        <ele>143.7998</ele>
        <time>2026-05-20T09:28:50+02:00</time>
      </trkpt>
      <trkpt lat="49.43021" lon="6.3005">
        <ele>143.7998</ele>
        <time>2026-05-20T09:28:51+02:00</time>
      </trkpt>
      <trkpt lat="49.43018" lon="6.30042">
        <ele>143.60059</ele>
        <time>2026-05-20T09:28:52+02:00</time>
      </trkpt>
      <trkpt lat="49.43016" lon="6.30034">
        <ele>143.60059</ele>
        <time>2026-05-20T09:28:53+02:00</time>
      </trkpt>
      <trkpt lat="49.43014" lon="6.30027">
        <ele>143.7002</ele>
        <time>2026-05-20T09:28:54+02:00</time>
      </trkpt>
      <trkpt lat="49.43011" lon="6.30019">
        <ele>143.90039</ele>
        <time>2026-05-20T09:28:55+02:00</time>
      </trkpt>
      <trkpt lat="49.43009" lon="6.30012">
        <ele>144.10059</ele>
        <time>2026-05-20T09:28:56+02:00</time>
      </trkpt>
      <trkpt lat="49.43006" lon="6.30004">
        <ele>144</ele>
        <time>2026-05-20T09:28:57+02:00</time>
      </trkpt>
      <trkpt lat="49.43004" lon="6.29997">
        <ele>144.2002</ele>
        <time>2026-05-20T09:28:58+02:00</time>
      </trkpt>
      <trkpt lat="49.43002" lon="6.29989">
        <ele>144.2002</ele>
        <time>2026-05-20T09:28:59+02:00</time>
      </trkpt>
      <trkpt lat="49.42999" lon="6.29982">
        <ele>144.2998</ele>
        <time>2026-05-20T09:29:00+02:00</time>
      </trkpt>
      <trkpt lat="49.42997" lon="6.29974">
        <ele>144.90039</ele>
        <time>2026-05-20T09:29:01+02:00</time>
      </trkpt>
      <trkpt lat="49.42994" lon="6.29967">
        <ele>145.10059</ele>
        <time>2026-05-20T09:29:02+02:00</time>
      </trkpt>
      <trkpt lat="49.42992" lon="6.2996">
        <ele>145.5</ele>
        <time>2026-05-20T09:29:03+02:00</time>
      </trkpt>
      <trkpt lat="49.42989" lon="6.29953">
        <ele>145</ele>
        <time>2026-05-20T09:29:04+02:00</time>
      </trkpt>
      <trkpt lat="49.42986" lon="6.29945">
        <ele>145.2002</ele>
        <time>2026-05-20T09:29:05+02:00</time>
      </trkpt>
      <trkpt lat="49.42984" lon="6.29938">
        <ele>144.2998</ele>
        <time>2026-05-20T09:29:06+02:00</time>
      </trkpt>
      <trkpt lat="49.42982" lon="6.29931">
        <ele>144.5</ele>
        <time>2026-05-20T09:29:07+02:00</time>
      </trkpt>
      <trkpt lat="49.42979" lon="6.29924">
        <ele>144.60059</ele>
        <time>2026-05-20T09:29:08+02:00</time>
      </trkpt>
      <trkpt lat="49.42977" lon="6.29918">
        <ele>144.5</ele>
        <time>2026-05-20T09:29:09+02:00</time>
      </trkpt>
      <trkpt lat="49.42974" lon="6.29911">
        <ele>145.10059</ele>
        <time>2026-05-20T09:29:10+02:00</time>
      </trkpt>
      <trkpt lat="49.42971" lon="6.29904">
        <ele>144.7002</ele>
        <time>2026-05-20T09:29:11+02:00</time>
      </trkpt>
      <trkpt lat="49.42969" lon="6.29898">
        <ele>145.2002</ele>
        <time>2026-05-20T09:29:12+02:00</time>
      </trkpt>
      <trkpt lat="49.42965" lon="6.29891">
        <ele>144.90039</ele>
        <time>2026-05-20T09:29:13+02:00</time>
      </trkpt>
      <trkpt lat="49.42962" lon="6.29885">
        <ele>144.60059</ele>
        <time>2026-05-20T09:29:14+02:00</time>
      </trkpt>
      <trkpt lat="49.42959" lon="6.29879">
        <ele>144.60059</ele>
        <time>2026-05-20T09:29:15+02:00</time>
      </trkpt>
      <trkpt lat="49.42956" lon="6.29872">
        <ele>144</ele>
        <time>2026-05-20T09:29:16+02:00</time>
      </trkpt>
      <trkpt lat="49.42953" lon="6.29866">
        <ele>144.10059</ele>
        <time>2026-05-20T09:29:17+02:00</time>
      </trkpt>
      <trkpt lat="49.42949" lon="6.2986">
        <ele>143.7998</ele>
        <time>2026-05-20T09:29:18+02:00</time>
      </trkpt>
      <trkpt lat="49.42946" lon="6.29854">
        <ele>143.90039</ele>
        <time>2026-05-20T09:29:19+02:00</time>
      </trkpt>
      <trkpt lat="49.42943" lon="6.29847">
        <ele>144.10059</ele>
        <time>2026-05-20T09:29:20+02:00</time>
      </trkpt>
      <trkpt lat="49.42939" lon="6.29842">
        <ele>144.2002</ele>
        <time>2026-05-20T09:29:21+02:00</time>
      </trkpt>
      <trkpt lat="49.42936" lon="6.29836">
        <ele>144.2002</ele>
        <time>2026-05-20T09:29:22+02:00</time>
      </trkpt>
      <trkpt lat="49.42932" lon="6.2983">
        <ele>144.10059</ele>
        <time>2026-05-20T09:29:23+02:00</time>
      </trkpt>
      <trkpt lat="49.42928" lon="6.29824">
        <ele>144</ele>
        <time>2026-05-20T09:29:24+02:00</time>
      </trkpt>
      <trkpt lat="49.42925" lon="6.29819">
        <ele>144</ele>
        <time>2026-05-20T09:29:25+02:00</time>
      </trkpt>
      <trkpt lat="49.42921" lon="6.29813">
        <ele>144.10059</ele>
        <time>2026-05-20T09:29:26+02:00</time>
      </trkpt>
      <trkpt lat="49.42917" lon="6.29808">
        <ele>144.2002</ele>
        <time>2026-05-20T09:29:27+02:00</time>
      </trkpt>
      <trkpt lat="49.42914" lon="6.29802">
        <ele>144.2002</ele>
        <time>2026-05-20T09:29:28+02:00</time>
      </trkpt>
      <trkpt lat="49.4291" lon="6.29796">
        <ele>144.10059</ele>
        <time>2026-05-20T09:29:29+02:00</time>
      </trkpt>
      <trkpt lat="49.42906" lon="6.29791">
        <ele>144.10059</ele>
        <time>2026-05-20T09:29:30+02:00</time>
      </trkpt>
      <trkpt lat="49.42903" lon="6.29785">
        <ele>144.10059</ele>
        <time>2026-05-20T09:29:31+02:00</time>
      </trkpt>
      <trkpt lat="49.42899" lon="6.2978">
        <ele>144.2002</ele>
        <time>2026-05-20T09:29:32+02:00</time>
      </trkpt>
      <trkpt lat="49.42895" lon="6.29774">
        <ele>144.2998</ele>
        <time>2026-05-20T09:29:33+02:00</time>
      </trkpt>
      <trkpt lat="49.42892" lon="6.29769">
        <ele>144.2998</ele>
        <time>2026-05-20T09:29:34+02:00</time>
      </trkpt>
      <trkpt lat="49.42888" lon="6.29764">
        <ele>144.2002</ele>
        <time>2026-05-20T09:29:35+02:00</time>
      </trkpt>
      <trkpt lat="49.42885" lon="6.29759">
        <ele>144.2002</ele>
        <time>2026-05-20T09:29:36+02:00</time>
      </trkpt>
      <trkpt lat="49.42881" lon="6.29753">
        <ele>144.10059</ele>
        <time>2026-05-20T09:29:37+02:00</time>
      </trkpt>
      <trkpt lat="49.42878" lon="6.29747">
        <ele>144.2998</ele>
        <time>2026-05-20T09:29:38+02:00</time>
      </trkpt>
      <trkpt lat="49.42874" lon="6.29742">
        <ele>144.2998</ele>
        <time>2026-05-20T09:29:39+02:00</time>
      </trkpt>
      <trkpt lat="49.4287" lon="6.29736">
        <ele>144.40039</ele>
        <time>2026-05-20T09:29:40+02:00</time>
      </trkpt>
      <trkpt lat="49.42867" lon="6.2973">
        <ele>144.2998</ele>
        <time>2026-05-20T09:29:41+02:00</time>
      </trkpt>
      <trkpt lat="49.42863" lon="6.29724">
        <ele>144.2998</ele>
        <time>2026-05-20T09:29:42+02:00</time>
      </trkpt>
      <trkpt lat="49.42859" lon="6.29719">
        <ele>144.2998</ele>
        <time>2026-05-20T09:29:43+02:00</time>
      </trkpt>
      <trkpt lat="49.42855" lon="6.29713">
        <ele>144.5</ele>
        <time>2026-05-20T09:29:44+02:00</time>
      </trkpt>
      <trkpt lat="49.42851" lon="6.29707">
        <ele>144.5</ele>
        <time>2026-05-20T09:29:45+02:00</time>
      </trkpt>
      <trkpt lat="49.42847" lon="6.29701">
        <ele>144.7002</ele>
        <time>2026-05-20T09:29:46+02:00</time>
      </trkpt>
      <trkpt lat="49.42843" lon="6.29696">
        <ele>144.5</ele>
        <time>2026-05-20T09:29:47+02:00</time>
      </trkpt>
      <trkpt lat="49.4284" lon="6.29691">
        <ele>144.5</ele>
        <time>2026-05-20T09:29:48+02:00</time>
      </trkpt>
      <trkpt lat="49.42835" lon="6.29685">
        <ele>144.5</ele>
        <time>2026-05-20T09:29:49+02:00</time>
      </trkpt>
      <trkpt lat="49.42832" lon="6.29679">
        <ele>144.7002</ele>
        <time>2026-05-20T09:29:50+02:00</time>
      </trkpt>
      <trkpt lat="49.42828" lon="6.29673">
        <ele>144.5</ele>
        <time>2026-05-20T09:29:51+02:00</time>
      </trkpt>
      <trkpt lat="49.42824" lon="6.29668">
        <ele>144.90039</ele>
        <time>2026-05-20T09:29:52+02:00</time>
      </trkpt>
      <trkpt lat="49.4282" lon="6.29662">
        <ele>144.60059</ele>
        <time>2026-05-20T09:29:53+02:00</time>
      </trkpt>
      <trkpt lat="49.42817" lon="6.29656">
        <ele>144.10059</ele>
        <time>2026-05-20T09:29:54+02:00</time>
      </trkpt>
      <trkpt lat="49.42813" lon="6.29651">
        <ele>144.2002</ele>
        <time>2026-05-20T09:29:55+02:00</time>
      </trkpt>
      <trkpt lat="49.42809" lon="6.29645">
        <ele>143.7998</ele>
        <time>2026-05-20T09:29:56+02:00</time>
      </trkpt>
      <trkpt lat="49.42806" lon="6.2964">
        <ele>143.7998</ele>
        <time>2026-05-20T09:29:57+02:00</time>
      </trkpt>
      <trkpt lat="49.42802" lon="6.29634">
        <ele>143.7002</ele>
        <time>2026-05-20T09:29:58+02:00</time>
      </trkpt>
      <trkpt lat="49.42799" lon="6.29629">
        <ele>143.7002</ele>
        <time>2026-05-20T09:29:59+02:00</time>
      </trkpt>
      <trkpt lat="49.42795" lon="6.29624">
        <ele>143.7998</ele>
        <time>2026-05-20T09:30:00+02:00</time>
      </trkpt>
      <trkpt lat="49.42791" lon="6.29618">
        <ele>143.90039</ele>
        <time>2026-05-20T09:30:01+02:00</time>
      </trkpt>
      <trkpt lat="49.42787" lon="6.29613">
        <ele>143.7002</ele>
        <time>2026-05-20T09:30:02+02:00</time>
      </trkpt>
      <trkpt lat="49.42783" lon="6.29607">
        <ele>143.60059</ele>
        <time>2026-05-20T09:30:03+02:00</time>
      </trkpt>
      <trkpt lat="49.42779" lon="6.29602">
        <ele>143.7998</ele>
        <time>2026-05-20T09:30:04+02:00</time>
      </trkpt>
      <trkpt lat="49.42775" lon="6.29596">
        <ele>143.7002</ele>
        <time>2026-05-20T09:30:05+02:00</time>
      </trkpt>
      <trkpt lat="49.42772" lon="6.2959">
        <ele>144.10059</ele>
        <time>2026-05-20T09:30:06+02:00</time>
      </trkpt>
      <trkpt lat="49.42768" lon="6.29584">
        <ele>144.7002</ele>
        <time>2026-05-20T09:30:07+02:00</time>
      </trkpt>
      <trkpt lat="49.42764" lon="6.29579">
        <ele>144.60059</ele>
        <time>2026-05-20T09:30:08+02:00</time>
      </trkpt>
      <trkpt lat="49.42761" lon="6.29573">
        <ele>145</ele>
        <time>2026-05-20T09:30:09+02:00</time>
      </trkpt>
      <trkpt lat="49.42757" lon="6.29568">
        <ele>145.40039</ele>
        <time>2026-05-20T09:30:10+02:00</time>
      </trkpt>
      <trkpt lat="49.42753" lon="6.29563">
        <ele>145</ele>
        <time>2026-05-20T09:30:11+02:00</time>
      </trkpt>
      <trkpt lat="49.4275" lon="6.29557">
        <ele>145.40039</ele>
        <time>2026-05-20T09:30:12+02:00</time>
      </trkpt>
      <trkpt lat="49.42746" lon="6.29552">
        <ele>144.90039</ele>
        <time>2026-05-20T09:30:13+02:00</time>
      </trkpt>
      <trkpt lat="49.42742" lon="6.29546">
        <ele>145</ele>
        <time>2026-05-20T09:30:14+02:00</time>
      </trkpt>
      <trkpt lat="49.42738" lon="6.2954">
        <ele>145</ele>
        <time>2026-05-20T09:30:15+02:00</time>
      </trkpt>
      <trkpt lat="49.42734" lon="6.29535">
        <ele>145</ele>
        <time>2026-05-20T09:30:16+02:00</time>
      </trkpt>
      <trkpt lat="49.4273" lon="6.29529">
        <ele>144.90039</ele>
        <time>2026-05-20T09:30:17+02:00</time>
      </trkpt>
      <trkpt lat="49.42726" lon="6.29523">
        <ele>144.60059</ele>
        <time>2026-05-20T09:30:18+02:00</time>
      </trkpt>
      <trkpt lat="49.42722" lon="6.29518">
        <ele>144.2002</ele>
        <time>2026-05-20T09:30:19+02:00</time>
      </trkpt>
      <trkpt lat="49.42719" lon="6.29512">
        <ele>144.2998</ele>
        <time>2026-05-20T09:30:20+02:00</time>
      </trkpt>
      <trkpt lat="49.42715" lon="6.29506">
        <ele>143.90039</ele>
        <time>2026-05-20T09:30:21+02:00</time>
      </trkpt>
      <trkpt lat="49.42711" lon="6.29501">
        <ele>143.7002</ele>
        <time>2026-05-20T09:30:22+02:00</time>
      </trkpt>
      <trkpt lat="49.42708" lon="6.29495">
        <ele>143.7998</ele>
        <time>2026-05-20T09:30:23+02:00</time>
      </trkpt>
      <trkpt lat="49.42704" lon="6.2949">
        <ele>144</ele>
        <time>2026-05-20T09:30:24+02:00</time>
      </trkpt>
      <trkpt lat="49.427" lon="6.29484">
        <ele>144</ele>
        <time>2026-05-20T09:30:25+02:00</time>
      </trkpt>
      <trkpt lat="49.42696" lon="6.29478">
        <ele>144</ele>
        <time>2026-05-20T09:30:26+02:00</time>
      </trkpt>
      <trkpt lat="49.42692" lon="6.29473">
        <ele>143.90039</ele>
        <time>2026-05-20T09:30:27+02:00</time>
      </trkpt>
      <trkpt lat="49.42688" lon="6.29468">
        <ele>143.7998</ele>
        <time>2026-05-20T09:30:28+02:00</time>
      </trkpt>
      <trkpt lat="49.42684" lon="6.29462">
        <ele>143.90039</ele>
        <time>2026-05-20T09:30:29+02:00</time>
      </trkpt>
      <trkpt lat="49.42681" lon="6.29457">
        <ele>143.90039</ele>
        <time>2026-05-20T09:30:30+02:00</time>
      </trkpt>
      <trkpt lat="49.42677" lon="6.29451">
        <ele>143.90039</ele>
        <time>2026-05-20T09:30:31+02:00</time>
      </trkpt>
      <trkpt lat="49.42673" lon="6.29446">
        <ele>144.10059</ele>
        <time>2026-05-20T09:30:32+02:00</time>
      </trkpt>
      <trkpt lat="49.42669" lon="6.2944">
        <ele>143.90039</ele>
        <time>2026-05-20T09:30:33+02:00</time>
      </trkpt>
      <trkpt lat="49.42666" lon="6.29435">
        <ele>143.90039</ele>
        <time>2026-05-20T09:30:34+02:00</time>
      </trkpt>
      <trkpt lat="49.42662" lon="6.29429">
        <ele>144</ele>
        <time>2026-05-20T09:30:35+02:00</time>
      </trkpt>
      <trkpt lat="49.42658" lon="6.29424">
        <ele>143.90039</ele>
        <time>2026-05-20T09:30:36+02:00</time>
      </trkpt>
      <trkpt lat="49.42654" lon="6.29418">
        <ele>144</ele>
        <time>2026-05-20T09:30:37+02:00</time>
      </trkpt>
      <trkpt lat="49.4265" lon="6.29412">
        <ele>144.2002</ele>
        <time>2026-05-20T09:30:38+02:00</time>
      </trkpt>
      <trkpt lat="49.42645" lon="6.29407">
        <ele>144</ele>
        <time>2026-05-20T09:30:39+02:00</time>
      </trkpt>
      <trkpt lat="49.42622" lon="6.29394">
        <ele>144.5</ele>
        <time>2026-05-20T09:30:40+02:00</time>
      </trkpt>
      <trkpt lat="49.42616" lon="6.29392">
        <ele>144.40039</ele>
        <time>2026-05-20T09:30:41+02:00</time>
      </trkpt>
      <trkpt lat="49.42611" lon="6.29389">
        <ele>144.40039</ele>
        <time>2026-05-20T09:30:42+02:00</time>
      </trkpt>
      <trkpt lat="49.42606" lon="6.29387">
        <ele>144.60059</ele>
        <time>2026-05-20T09:30:43+02:00</time>
      </trkpt>
      <trkpt lat="49.42602" lon="6.29385">
        <ele>144</ele>
        <time>2026-05-20T09:30:44+02:00</time>
      </trkpt>
      <trkpt lat="49.42598" lon="6.29383">
        <ele>143.7002</ele>
        <time>2026-05-20T09:30:45+02:00</time>
      </trkpt>
      <trkpt lat="49.42593" lon="6.2938">
        <ele>143.7002</ele>
        <time>2026-05-20T09:30:46+02:00</time>
      </trkpt>
      <trkpt lat="49.42589" lon="6.29378">
        <ele>143.7002</ele>
        <time>2026-05-20T09:30:47+02:00</time>
      </trkpt>
      <trkpt lat="49.42584" lon="6.29376">
        <ele>143.90039</ele>
        <time>2026-05-20T09:30:48+02:00</time>
      </trkpt>
      <trkpt lat="49.42579" lon="6.29374">
        <ele>144.10059</ele>
        <time>2026-05-20T09:30:49+02:00</time>
      </trkpt>
      <trkpt lat="49.42574" lon="6.29373">
        <ele>144.2998</ele>
        <time>2026-05-20T09:30:50+02:00</time>
      </trkpt>
      <trkpt lat="49.42569" lon="6.29371">
        <ele>144.2998</ele>
        <time>2026-05-20T09:30:51+02:00</time>
      </trkpt>
      <trkpt lat="49.42565" lon="6.2937">
        <ele>144.5</ele>
        <time>2026-05-20T09:30:52+02:00</time>
      </trkpt>
      <trkpt lat="49.42559" lon="6.29369">
        <ele>144.5</ele>
        <time>2026-05-20T09:30:53+02:00</time>
      </trkpt>
      <trkpt lat="49.42554" lon="6.29368">
        <ele>144.5</ele>
        <time>2026-05-20T09:30:54+02:00</time>
      </trkpt>
      <trkpt lat="49.42549" lon="6.29367">
        <ele>144.5</ele>
        <time>2026-05-20T09:30:55+02:00</time>
      </trkpt>
      <trkpt lat="49.42544" lon="6.29367">
        <ele>144.5</ele>
        <time>2026-05-20T09:30:56+02:00</time>
      </trkpt>
      <trkpt lat="49.42539" lon="6.29366">
        <ele>144.5</ele>
        <time>2026-05-20T09:30:57+02:00</time>
      </trkpt>
      <trkpt lat="49.42533" lon="6.29365">
        <ele>144.5</ele>
        <time>2026-05-20T09:30:58+02:00</time>
      </trkpt>
      <trkpt lat="49.42528" lon="6.29365">
        <ele>144.5</ele>
        <time>2026-05-20T09:30:59+02:00</time>
      </trkpt>
      <trkpt lat="49.42522" lon="6.29364">
        <ele>144.5</ele>
        <time>2026-05-20T09:31:00+02:00</time>
      </trkpt>
      <trkpt lat="49.42517" lon="6.29363">
        <ele>144.60059</ele>
        <time>2026-05-20T09:31:01+02:00</time>
      </trkpt>
      <trkpt lat="49.42511" lon="6.29362">
        <ele>145</ele>
        <time>2026-05-20T09:31:02+02:00</time>
      </trkpt>
      <trkpt lat="49.42505" lon="6.29361">
        <ele>144.90039</ele>
        <time>2026-05-20T09:31:03+02:00</time>
      </trkpt>
      <trkpt lat="49.425" lon="6.29361">
        <ele>144.7998</ele>
        <time>2026-05-20T09:31:04+02:00</time>
      </trkpt>
      <trkpt lat="49.42494" lon="6.2936">
        <ele>144.60059</ele>
        <time>2026-05-20T09:31:05+02:00</time>
      </trkpt>
      <trkpt lat="49.42489" lon="6.29359">
        <ele>144.40039</ele>
        <time>2026-05-20T09:31:06+02:00</time>
      </trkpt>
      <trkpt lat="49.42483" lon="6.29358">
        <ele>144.2002</ele>
        <time>2026-05-20T09:31:07+02:00</time>
      </trkpt>
      <trkpt lat="49.42478" lon="6.29357">
        <ele>144.2002</ele>
        <time>2026-05-20T09:31:08+02:00</time>
      </trkpt>
      <trkpt lat="49.42473" lon="6.29356">
        <ele>144.2002</ele>
        <time>2026-05-20T09:31:09+02:00</time>
      </trkpt>
      <trkpt lat="49.42467" lon="6.29355">
        <ele>144.2002</ele>
        <time>2026-05-20T09:31:10+02:00</time>
      </trkpt>
      <trkpt lat="49.42462" lon="6.29351">
        <ele>144.2998</ele>
        <time>2026-05-20T09:31:11+02:00</time>
      </trkpt>
      <trkpt lat="49.42458" lon="6.29347">
        <ele>144.2998</ele>
        <time>2026-05-20T09:31:12+02:00</time>
      </trkpt>
      <trkpt lat="49.42455" lon="6.29341">
        <ele>144.5</ele>
        <time>2026-05-20T09:31:13+02:00</time>
      </trkpt>
      <trkpt lat="49.42454" lon="6.29333">
        <ele>145</ele>
        <time>2026-05-20T09:31:14+02:00</time>
      </trkpt>
      <trkpt lat="49.42454" lon="6.29325">
        <ele>145.7002</ele>
        <time>2026-05-20T09:31:15+02:00</time>
      </trkpt>
      <trkpt lat="49.42455" lon="6.29317">
        <ele>146.40039</ele>
        <time>2026-05-20T09:31:16+02:00</time>
      </trkpt>
      <trkpt lat="49.42457" lon="6.29309">
        <ele>146.90039</ele>
        <time>2026-05-20T09:31:17+02:00</time>
      </trkpt>
      <trkpt lat="49.42461" lon="6.29303">
        <ele>146.90039</ele>
        <time>2026-05-20T09:31:18+02:00</time>
      </trkpt>
      <trkpt lat="49.42465" lon="6.29298">
        <ele>147.40039</ele>
        <time>2026-05-20T09:31:19+02:00</time>
      </trkpt>
      <trkpt lat="49.4247" lon="6.29295">
        <ele>147.40039</ele>
        <time>2026-05-20T09:31:20+02:00</time>
      </trkpt>
      <trkpt lat="49.42475" lon="6.29292">
        <ele>147.7998</ele>
        <time>2026-05-20T09:31:21+02:00</time>
      </trkpt>
      <trkpt lat="49.4248" lon="6.29288">
        <ele>147.7998</ele>
        <time>2026-05-20T09:31:22+02:00</time>
      </trkpt>
      <trkpt lat="49.42484" lon="6.29283">
        <ele>148.10059</ele>
        <time>2026-05-20T09:31:23+02:00</time>
      </trkpt>
      <trkpt lat="49.42489" lon="6.29279">
        <ele>148</ele>
        <time>2026-05-20T09:31:24+02:00</time>
      </trkpt>
      <trkpt lat="49.42493" lon="6.29274">
        <ele>148.10059</ele>
        <time>2026-05-20T09:31:25+02:00</time>
      </trkpt>
      <trkpt lat="49.42497" lon="6.29269">
        <ele>148.10059</ele>
        <time>2026-05-20T09:31:26+02:00</time>
      </trkpt>
      <trkpt lat="49.42501" lon="6.29265">
        <ele>148.10059</ele>
        <time>2026-05-20T09:31:27+02:00</time>
      </trkpt>
      <trkpt lat="49.42504" lon="6.29261">
        <ele>148.10059</ele>
        <time>2026-05-20T09:31:28+02:00</time>
      </trkpt>
      <trkpt lat="49.42507" lon="6.29257">
        <ele>148.10059</ele>
        <time>2026-05-20T09:31:29+02:00</time>
      </trkpt>
      <trkpt lat="49.42509" lon="6.29253">
        <ele>148.10059</ele>
        <time>2026-05-20T09:31:30+02:00</time>
      </trkpt>
      <trkpt lat="49.42511" lon="6.29251">
        <ele>148.2002</ele>
        <time>2026-05-20T09:31:31+02:00</time>
      </trkpt>
      <trkpt lat="49.42511" lon="6.29249">
        <ele>148.10059</ele>
        <time>2026-05-20T09:31:32+02:00</time>
      </trkpt>
      <trkpt lat="49.42512" lon="6.29247">
        <ele>148.10059</ele>
        <time>2026-05-20T09:31:33+02:00</time>
      </trkpt>
      <trkpt lat="49.42513" lon="6.29246">
        <ele>148.10059</ele>
        <time>2026-05-20T09:31:34+02:00</time>
      </trkpt>
      <trkpt lat="49.42513" lon="6.29245">
        <ele>148.10059</ele>
        <time>2026-05-20T09:31:35+02:00</time>
      </trkpt>
      <trkpt lat="49.42513" lon="6.29245">
        <ele>148.10059</ele>
        <time>2026-05-20T09:31:36+02:00</time>
      </trkpt>
      <trkpt lat="49.42513" lon="6.29245">
        <ele>148.10059</ele>
        <time>2026-05-20T09:31:37+02:00</time>
      </trkpt>
      <trkpt lat="49.425" lon="6.29242">
        <ele>148</ele>
        <time>2026-05-20T09:31:46+02:00</time>
      </trkpt>
      <trkpt lat="49.42496" lon="6.29242">
        <ele>148</ele>
        <time>2026-05-20T09:31:47+02:00</time>
      </trkpt>
      <trkpt lat="49.42492" lon="6.29242">
        <ele>147.90039</ele>
        <time>2026-05-20T09:31:48+02:00</time>
      </trkpt>
      <trkpt lat="49.42488" lon="6.29242">
        <ele>147.90039</ele>
        <time>2026-05-20T09:31:49+02:00</time>
      </trkpt>
      <trkpt lat="49.42484" lon="6.29242">
        <ele>147.7998</ele>
        <time>2026-05-20T09:31:50+02:00</time>
      </trkpt>
      <trkpt lat="49.42479" lon="6.29242">
        <ele>147.7998</ele>
        <time>2026-05-20T09:31:51+02:00</time>
      </trkpt>
      <trkpt lat="49.42474" lon="6.29241">
        <ele>147.60059</ele>
        <time>2026-05-20T09:31:52+02:00</time>
      </trkpt>
      <trkpt lat="49.42469" lon="6.2924">
        <ele>147.5</ele>
        <time>2026-05-20T09:31:53+02:00</time>
      </trkpt>
      <trkpt lat="49.42464" lon="6.29238">
        <ele>147.40039</ele>
        <time>2026-05-20T09:31:54+02:00</time>
      </trkpt>
      <trkpt lat="49.42459" lon="6.29235">
        <ele>147.2998</ele>
        <time>2026-05-20T09:31:55+02:00</time>
      </trkpt>
      <trkpt lat="49.42454" lon="6.29232">
        <ele>147.2002</ele>
        <time>2026-05-20T09:31:56+02:00</time>
      </trkpt>
      <trkpt lat="49.42449" lon="6.29228">
        <ele>147.10059</ele>
        <time>2026-05-20T09:31:57+02:00</time>
      </trkpt>
      <trkpt lat="49.42444" lon="6.29224">
        <ele>146.7998</ele>
        <time>2026-05-20T09:31:58+02:00</time>
      </trkpt>
      <trkpt lat="49.42439" lon="6.29219">
        <ele>146.7002</ele>
        <time>2026-05-20T09:31:59+02:00</time>
      </trkpt>
      <trkpt lat="49.42434" lon="6.29215">
        <ele>146.5</ele>
        <time>2026-05-20T09:32:00+02:00</time>
      </trkpt>
      <trkpt lat="49.42429" lon="6.2921">
        <ele>146.40039</ele>
        <time>2026-05-20T09:32:01+02:00</time>
      </trkpt>
      <trkpt lat="49.42423" lon="6.29206">
        <ele>146.2998</ele>
        <time>2026-05-20T09:32:02+02:00</time>
      </trkpt>
      <trkpt lat="49.42418" lon="6.29202">
        <ele>146.2998</ele>
        <time>2026-05-20T09:32:03+02:00</time>
      </trkpt>
      <trkpt lat="49.42413" lon="6.29197">
        <ele>146.2002</ele>
        <time>2026-05-20T09:32:04+02:00</time>
      </trkpt>
      <trkpt lat="49.42408" lon="6.29193">
        <ele>146.2002</ele>
        <time>2026-05-20T09:32:05+02:00</time>
      </trkpt>
      <trkpt lat="49.42403" lon="6.29189">
        <ele>146.10059</ele>
        <time>2026-05-20T09:32:06+02:00</time>
      </trkpt>
      <trkpt lat="49.42398" lon="6.29184">
        <ele>146.10059</ele>
        <time>2026-05-20T09:32:07+02:00</time>
      </trkpt>
      <trkpt lat="49.42393" lon="6.2918">
        <ele>146</ele>
        <time>2026-05-20T09:32:08+02:00</time>
      </trkpt>
      <trkpt lat="49.42388" lon="6.29175">
        <ele>146</ele>
        <time>2026-05-20T09:32:09+02:00</time>
      </trkpt>
      <trkpt lat="49.42383" lon="6.29171">
        <ele>146.10059</ele>
        <time>2026-05-20T09:32:10+02:00</time>
      </trkpt>
      <trkpt lat="49.42377" lon="6.29167">
        <ele>146.2002</ele>
        <time>2026-05-20T09:32:11+02:00</time>
      </trkpt>
      <trkpt lat="49.42372" lon="6.29163">
        <ele>146.2998</ele>
        <time>2026-05-20T09:32:12+02:00</time>
      </trkpt>
      <trkpt lat="49.42367" lon="6.29158">
        <ele>146.40039</ele>
        <time>2026-05-20T09:32:13+02:00</time>
      </trkpt>
      <trkpt lat="49.42362" lon="6.29155">
        <ele>146.5</ele>
        <time>2026-05-20T09:32:14+02:00</time>
      </trkpt>
      <trkpt lat="49.42356" lon="6.29151">
        <ele>146.60059</ele>
        <time>2026-05-20T09:32:15+02:00</time>
      </trkpt>
      <trkpt lat="49.42351" lon="6.29149">
        <ele>146.7002</ele>
        <time>2026-05-20T09:32:16+02:00</time>
      </trkpt>
      <trkpt lat="49.42346" lon="6.29147">
        <ele>146.7998</ele>
        <time>2026-05-20T09:32:17+02:00</time>
      </trkpt>
      <trkpt lat="49.4234" lon="6.29145">
        <ele>146.90039</ele>
        <time>2026-05-20T09:32:18+02:00</time>
      </trkpt>
      <trkpt lat="49.42335" lon="6.29144">
        <ele>146.90039</ele>
        <time>2026-05-20T09:32:19+02:00</time>
      </trkpt>
      <trkpt lat="49.4233" lon="6.29144">
        <ele>147</ele>
        <time>2026-05-20T09:32:20+02:00</time>
      </trkpt>
      <trkpt lat="49.42325" lon="6.29145">
        <ele>147.10059</ele>
        <time>2026-05-20T09:32:21+02:00</time>
      </trkpt>
      <trkpt lat="49.4232" lon="6.29145">
        <ele>147.10059</ele>
        <time>2026-05-20T09:32:22+02:00</time>
      </trkpt>
      <trkpt lat="49.42315" lon="6.29146">
        <ele>147.10059</ele>
        <time>2026-05-20T09:32:23+02:00</time>
      </trkpt>
      <trkpt lat="49.42311" lon="6.29147">
        <ele>147.2002</ele>
        <time>2026-05-20T09:32:24+02:00</time>
      </trkpt>
      <trkpt lat="49.42307" lon="6.29149">
        <ele>147.2002</ele>
        <time>2026-05-20T09:32:25+02:00</time>
      </trkpt>
      <trkpt lat="49.42303" lon="6.29151">
        <ele>147.2998</ele>
        <time>2026-05-20T09:32:26+02:00</time>
      </trkpt>
      <trkpt lat="49.42299" lon="6.29153">
        <ele>147.2998</ele>
        <time>2026-05-20T09:32:27+02:00</time>
      </trkpt>
      <trkpt lat="49.42294" lon="6.29156">
        <ele>147.40039</ele>
        <time>2026-05-20T09:32:28+02:00</time>
      </trkpt>
      <trkpt lat="49.42291" lon="6.29159">
        <ele>147.40039</ele>
        <time>2026-05-20T09:32:29+02:00</time>
      </trkpt>
      <trkpt lat="49.42287" lon="6.29163">
        <ele>147.40039</ele>
        <time>2026-05-20T09:32:30+02:00</time>
      </trkpt>
      <trkpt lat="49.42283" lon="6.29166">
        <ele>147.40039</ele>
        <time>2026-05-20T09:32:31+02:00</time>
      </trkpt>
      <trkpt lat="49.4228" lon="6.29171">
        <ele>147.40039</ele>
        <time>2026-05-20T09:32:32+02:00</time>
      </trkpt>
      <trkpt lat="49.42276" lon="6.29175">
        <ele>147.40039</ele>
        <time>2026-05-20T09:32:33+02:00</time>
      </trkpt>
      <trkpt lat="49.42272" lon="6.2918">
        <ele>147.40039</ele>
        <time>2026-05-20T09:32:34+02:00</time>
      </trkpt>
      <trkpt lat="49.42269" lon="6.29185">
        <ele>147.2998</ele>
        <time>2026-05-20T09:32:35+02:00</time>
      </trkpt>
      <trkpt lat="49.42266" lon="6.2919">
        <ele>147.2998</ele>
        <time>2026-05-20T09:32:36+02:00</time>
      </trkpt>
      <trkpt lat="49.42263" lon="6.29195">
        <ele>147.2002</ele>
        <time>2026-05-20T09:32:37+02:00</time>
      </trkpt>
      <trkpt lat="49.42261" lon="6.292">
        <ele>147.10059</ele>
        <time>2026-05-20T09:32:38+02:00</time>
      </trkpt>
      <trkpt lat="49.42258" lon="6.29206">
        <ele>147.10059</ele>
        <time>2026-05-20T09:32:39+02:00</time>
      </trkpt>
      <trkpt lat="49.42256" lon="6.29212">
        <ele>146.90039</ele>
        <time>2026-05-20T09:32:40+02:00</time>
      </trkpt>
      <trkpt lat="49.42253" lon="6.29218">
        <ele>146.7002</ele>
        <time>2026-05-20T09:32:41+02:00</time>
      </trkpt>
      <trkpt lat="49.42252" lon="6.29224">
        <ele>146.7002</ele>
        <time>2026-05-20T09:32:42+02:00</time>
      </trkpt>
      <trkpt lat="49.4225" lon="6.29231">
        <ele>146.40039</ele>
        <time>2026-05-20T09:32:43+02:00</time>
      </trkpt>
      <trkpt lat="49.42249" lon="6.29238">
        <ele>146.2002</ele>
        <time>2026-05-20T09:32:44+02:00</time>
      </trkpt>
      <trkpt lat="49.42248" lon="6.29245">
        <ele>145.7998</ele>
        <time>2026-05-20T09:32:45+02:00</time>
      </trkpt>
      <trkpt lat="49.42247" lon="6.29252">
        <ele>145.5</ele>
        <time>2026-05-20T09:32:46+02:00</time>
      </trkpt>
      <trkpt lat="49.42246" lon="6.29259">
        <ele>145.5</ele>
        <time>2026-05-20T09:32:47+02:00</time>
      </trkpt>
      <trkpt lat="49.42246" lon="6.29265">
        <ele>145.2998</ele>
        <time>2026-05-20T09:32:48+02:00</time>
      </trkpt>
      <trkpt lat="49.42245" lon="6.29272">
        <ele>145</ele>
        <time>2026-05-20T09:32:49+02:00</time>
      </trkpt>
      <trkpt lat="49.42244" lon="6.29279">
        <ele>144.7998</ele>
        <time>2026-05-20T09:32:50+02:00</time>
      </trkpt>
      <trkpt lat="49.42243" lon="6.29286">
        <ele>144.7002</ele>
        <time>2026-05-20T09:32:51+02:00</time>
      </trkpt>
      <trkpt lat="49.42242" lon="6.29293">
        <ele>144.7002</ele>
        <time>2026-05-20T09:32:52+02:00</time>
      </trkpt>
      <trkpt lat="49.42241" lon="6.293">
        <ele>144.60059</ele>
        <time>2026-05-20T09:32:53+02:00</time>
      </trkpt>
      <trkpt lat="49.42241" lon="6.29306">
        <ele>144.60059</ele>
        <time>2026-05-20T09:32:54+02:00</time>
      </trkpt>
      <trkpt lat="49.4224" lon="6.29313">
        <ele>144.60059</ele>
        <time>2026-05-20T09:32:55+02:00</time>
      </trkpt>
      <trkpt lat="49.42239" lon="6.2932">
        <ele>144.7002</ele>
        <time>2026-05-20T09:32:56+02:00</time>
      </trkpt>
      <trkpt lat="49.42238" lon="6.29327">
        <ele>144.7002</ele>
        <time>2026-05-20T09:32:57+02:00</time>
      </trkpt>
      <trkpt lat="49.42238" lon="6.29333">
        <ele>144.7002</ele>
        <time>2026-05-20T09:32:58+02:00</time>
      </trkpt>
      <trkpt lat="49.42237" lon="6.29339">
        <ele>144.7002</ele>
        <time>2026-05-20T09:32:59+02:00</time>
      </trkpt>
      <trkpt lat="49.42236" lon="6.29346">
        <ele>144.7002</ele>
        <time>2026-05-20T09:33:00+02:00</time>
      </trkpt>
      <trkpt lat="49.42235" lon="6.29352">
        <ele>144.7002</ele>
        <time>2026-05-20T09:33:01+02:00</time>
      </trkpt>
      <trkpt lat="49.42234" lon="6.29359">
        <ele>144.7002</ele>
        <time>2026-05-20T09:33:02+02:00</time>
      </trkpt>
      <trkpt lat="49.42233" lon="6.29365">
        <ele>144.7002</ele>
        <time>2026-05-20T09:33:03+02:00</time>
      </trkpt>
      <trkpt lat="49.42233" lon="6.29372">
        <ele>145</ele>
        <time>2026-05-20T09:33:04+02:00</time>
      </trkpt>
      <trkpt lat="49.42232" lon="6.2938">
        <ele>145.2998</ele>
        <time>2026-05-20T09:33:05+02:00</time>
      </trkpt>
      <trkpt lat="49.42231" lon="6.29387">
        <ele>145.2998</ele>
        <time>2026-05-20T09:33:06+02:00</time>
      </trkpt>
      <trkpt lat="49.4223" lon="6.29394">
        <ele>145.7998</ele>
        <time>2026-05-20T09:33:07+02:00</time>
      </trkpt>
      <trkpt lat="49.42229" lon="6.29402">
        <ele>146.5</ele>
        <time>2026-05-20T09:33:08+02:00</time>
      </trkpt>
      <trkpt lat="49.42228" lon="6.29409">
        <ele>147.5</ele>
        <time>2026-05-20T09:33:09+02:00</time>
      </trkpt>
      <trkpt lat="49.42227" lon="6.29417">
        <ele>148.5</ele>
        <time>2026-05-20T09:33:10+02:00</time>
      </trkpt>
      <trkpt lat="49.42226" lon="6.29424">
        <ele>149.90039</ele>
        <time>2026-05-20T09:33:11+02:00</time>
      </trkpt>
      <trkpt lat="49.42225" lon="6.29432">
        <ele>151.60059</ele>
        <time>2026-05-20T09:33:12+02:00</time>
      </trkpt>
      <trkpt lat="49.42224" lon="6.2944">
        <ele>152.7998</ele>
        <time>2026-05-20T09:33:13+02:00</time>
      </trkpt>
      <trkpt lat="49.42223" lon="6.29448">
        <ele>154.10059</ele>
        <time>2026-05-20T09:33:14+02:00</time>
      </trkpt>
      <trkpt lat="49.42222" lon="6.29456">
        <ele>154.10059</ele>
        <time>2026-05-20T09:33:15+02:00</time>
      </trkpt>
      <trkpt lat="49.42221" lon="6.29465">
        <ele>155.2002</ele>
        <time>2026-05-20T09:33:16+02:00</time>
      </trkpt>
      <trkpt lat="49.4222" lon="6.29474">
        <ele>156.7998</ele>
        <time>2026-05-20T09:33:17+02:00</time>
      </trkpt>
      <trkpt lat="49.42219" lon="6.29483">
        <ele>157.2998</ele>
        <time>2026-05-20T09:33:18+02:00</time>
      </trkpt>
      <trkpt lat="49.42218" lon="6.29492">
        <ele>157.7998</ele>
        <time>2026-05-20T09:33:19+02:00</time>
      </trkpt>
      <trkpt lat="49.42217" lon="6.295">
        <ele>158.2002</ele>
        <time>2026-05-20T09:33:20+02:00</time>
      </trkpt>
      <trkpt lat="49.42216" lon="6.29508">
        <ele>158.2002</ele>
        <time>2026-05-20T09:33:21+02:00</time>
      </trkpt>
      <trkpt lat="49.42215" lon="6.29516">
        <ele>158.40039</ele>
        <time>2026-05-20T09:33:22+02:00</time>
      </trkpt>
      <trkpt lat="49.42214" lon="6.29524">
        <ele>158.60059</ele>
        <time>2026-05-20T09:33:23+02:00</time>
      </trkpt>
      <trkpt lat="49.42213" lon="6.29531">
        <ele>158.7002</ele>
        <time>2026-05-20T09:33:24+02:00</time>
      </trkpt>
      <trkpt lat="49.42212" lon="6.29539">
        <ele>158.7002</ele>
        <time>2026-05-20T09:33:25+02:00</time>
      </trkpt>
      <trkpt lat="49.42211" lon="6.29545">
        <ele>158.7998</ele>
        <time>2026-05-20T09:33:26+02:00</time>
      </trkpt>
      <trkpt lat="49.4221" lon="6.29552">
        <ele>158.7998</ele>
        <time>2026-05-20T09:33:27+02:00</time>
      </trkpt>
      <trkpt lat="49.42209" lon="6.29558">
        <ele>158.7998</ele>
        <time>2026-05-20T09:33:28+02:00</time>
      </trkpt>
      <trkpt lat="49.42207" lon="6.29564">
        <ele>159.10059</ele>
        <time>2026-05-20T09:33:29+02:00</time>
      </trkpt>
      <trkpt lat="49.42206" lon="6.29569">
        <ele>159.2002</ele>
        <time>2026-05-20T09:33:30+02:00</time>
      </trkpt>
      <trkpt lat="49.42204" lon="6.29574">
        <ele>159.2002</ele>
        <time>2026-05-20T09:33:31+02:00</time>
      </trkpt>
      <trkpt lat="49.42202" lon="6.29579">
        <ele>159.60059</ele>
        <time>2026-05-20T09:33:32+02:00</time>
      </trkpt>
      <trkpt lat="49.422" lon="6.29584">
        <ele>159.60059</ele>
        <time>2026-05-20T09:33:33+02:00</time>
      </trkpt>
      <trkpt lat="49.42198" lon="6.29588">
        <ele>159.90039</ele>
        <time>2026-05-20T09:33:34+02:00</time>
      </trkpt>
      <trkpt lat="49.42195" lon="6.29591">
        <ele>160</ele>
        <time>2026-05-20T09:33:35+02:00</time>
      </trkpt>
      <trkpt lat="49.42192" lon="6.29595">
        <ele>160.2998</ele>
        <time>2026-05-20T09:33:36+02:00</time>
      </trkpt>
      <trkpt lat="49.4219" lon="6.296">
        <ele>160.2998</ele>
        <time>2026-05-20T09:33:37+02:00</time>
      </trkpt>
      <trkpt lat="49.42189" lon="6.29605">
        <ele>160.5</ele>
        <time>2026-05-20T09:33:38+02:00</time>
      </trkpt>
      <trkpt lat="49.42188" lon="6.2961">
        <ele>160.5</ele>
        <time>2026-05-20T09:33:39+02:00</time>
      </trkpt>
      <trkpt lat="49.42189" lon="6.29614">
        <ele>160.7002</ele>
        <time>2026-05-20T09:33:40+02:00</time>
      </trkpt>
      <trkpt lat="49.42191" lon="6.29618">
        <ele>160.7002</ele>
        <time>2026-05-20T09:33:41+02:00</time>
      </trkpt>
      <trkpt lat="49.42194" lon="6.29622">
        <ele>160.7002</ele>
        <time>2026-05-20T09:33:42+02:00</time>
      </trkpt>
      <trkpt lat="49.42198" lon="6.29625">
        <ele>160.60059</ele>
        <time>2026-05-20T09:33:43+02:00</time>
      </trkpt>
      <trkpt lat="49.42201" lon="6.29628">
        <ele>160.60059</ele>
        <time>2026-05-20T09:33:44+02:00</time>
      </trkpt>
      <trkpt lat="49.42206" lon="6.29631">
        <ele>160.60059</ele>
        <time>2026-05-20T09:33:45+02:00</time>
      </trkpt>
      <trkpt lat="49.4221" lon="6.29635">
        <ele>160.5</ele>
        <time>2026-05-20T09:33:46+02:00</time>
      </trkpt>
      <trkpt lat="49.42214" lon="6.29639">
        <ele>160.7002</ele>
        <time>2026-05-20T09:33:47+02:00</time>
      </trkpt>
      <trkpt lat="49.42219" lon="6.29642">
        <ele>160.60059</ele>
        <time>2026-05-20T09:33:48+02:00</time>
      </trkpt>
      <trkpt lat="49.42223" lon="6.29646">
        <ele>160.7002</ele>
        <time>2026-05-20T09:33:49+02:00</time>
      </trkpt>
      <trkpt lat="49.42227" lon="6.29651">
        <ele>160.7002</ele>
        <time>2026-05-20T09:33:50+02:00</time>
      </trkpt>
      <trkpt lat="49.42232" lon="6.29655">
        <ele>160.7002</ele>
        <time>2026-05-20T09:33:51+02:00</time>
      </trkpt>
      <trkpt lat="49.42236" lon="6.29659">
        <ele>160.7002</ele>
        <time>2026-05-20T09:33:52+02:00</time>
      </trkpt>
      <trkpt lat="49.4224" lon="6.29664">
        <ele>160.60059</ele>
        <time>2026-05-20T09:33:53+02:00</time>
      </trkpt>
      <trkpt lat="49.42244" lon="6.29668">
        <ele>160.60059</ele>
        <time>2026-05-20T09:33:54+02:00</time>
      </trkpt>
      <trkpt lat="49.42249" lon="6.29673">
        <ele>160.5</ele>
        <time>2026-05-20T09:33:55+02:00</time>
      </trkpt>
      <trkpt lat="49.42253" lon="6.29678">
        <ele>160.5</ele>
        <time>2026-05-20T09:33:56+02:00</time>
      </trkpt>
      <trkpt lat="49.42257" lon="6.29683">
        <ele>160.40039</ele>
        <time>2026-05-20T09:33:57+02:00</time>
      </trkpt>
      <trkpt lat="49.42262" lon="6.29687">
        <ele>160.40039</ele>
        <time>2026-05-20T09:33:58+02:00</time>
      </trkpt>
      <trkpt lat="49.42267" lon="6.29692">
        <ele>160.2002</ele>
        <time>2026-05-20T09:33:59+02:00</time>
      </trkpt>
      <trkpt lat="49.42272" lon="6.29697">
        <ele>160.10059</ele>
        <time>2026-05-20T09:34:00+02:00</time>
      </trkpt>
      <trkpt lat="49.42276" lon="6.29702">
        <ele>160.10059</ele>
        <time>2026-05-20T09:34:01+02:00</time>
      </trkpt>
      <trkpt lat="49.42281" lon="6.29707">
        <ele>159.90039</ele>
        <time>2026-05-20T09:34:02+02:00</time>
      </trkpt>
      <trkpt lat="49.42286" lon="6.29712">
        <ele>160</ele>
        <time>2026-05-20T09:34:03+02:00</time>
      </trkpt>
      <trkpt lat="49.42291" lon="6.29717">
        <ele>159.90039</ele>
        <time>2026-05-20T09:34:04+02:00</time>
      </trkpt>
      <trkpt lat="49.42296" lon="6.29722">
        <ele>159.90039</ele>
        <time>2026-05-20T09:34:05+02:00</time>
      </trkpt>
      <trkpt lat="49.423" lon="6.29727">
        <ele>159.7998</ele>
        <time>2026-05-20T09:34:06+02:00</time>
      </trkpt>
      <trkpt lat="49.42305" lon="6.29732">
        <ele>159.7998</ele>
        <time>2026-05-20T09:34:07+02:00</time>
      </trkpt>
      <trkpt lat="49.4231" lon="6.29737">
        <ele>159.7998</ele>
        <time>2026-05-20T09:34:08+02:00</time>
      </trkpt>
      <trkpt lat="49.42315" lon="6.29742">
        <ele>159.7998</ele>
        <time>2026-05-20T09:34:09+02:00</time>
      </trkpt>
      <trkpt lat="49.42319" lon="6.29747">
        <ele>159.7998</ele>
        <time>2026-05-20T09:34:10+02:00</time>
      </trkpt>
      <trkpt lat="49.42324" lon="6.29752">
        <ele>159.7002</ele>
        <time>2026-05-20T09:34:11+02:00</time>
      </trkpt>
      <trkpt lat="49.42329" lon="6.29757">
        <ele>159.60059</ele>
        <time>2026-05-20T09:34:12+02:00</time>
      </trkpt>
      <trkpt lat="49.42334" lon="6.29762">
        <ele>159.60059</ele>
        <time>2026-05-20T09:34:13+02:00</time>
      </trkpt>
      <trkpt lat="49.42339" lon="6.29766">
        <ele>159.5</ele>
        <time>2026-05-20T09:34:14+02:00</time>
      </trkpt>
      <trkpt lat="49.42345" lon="6.2977">
        <ele>159.60059</ele>
        <time>2026-05-20T09:34:15+02:00</time>
      </trkpt>
      <trkpt lat="49.4235" lon="6.29774">
        <ele>159.60059</ele>
        <time>2026-05-20T09:34:16+02:00</time>
      </trkpt>
      <trkpt lat="49.42356" lon="6.29778">
        <ele>159.5</ele>
        <time>2026-05-20T09:34:17+02:00</time>
      </trkpt>
      <trkpt lat="49.42361" lon="6.29782">
        <ele>159.60059</ele>
        <time>2026-05-20T09:34:18+02:00</time>
      </trkpt>
      <trkpt lat="49.42367" lon="6.29786">
        <ele>159.40039</ele>
        <time>2026-05-20T09:34:19+02:00</time>
      </trkpt>
      <trkpt lat="49.42372" lon="6.2979">
        <ele>159.5</ele>
        <time>2026-05-20T09:34:20+02:00</time>
      </trkpt>
      <trkpt lat="49.42376" lon="6.29793">
        <ele>159.2002</ele>
        <time>2026-05-20T09:34:21+02:00</time>
      </trkpt>
      <trkpt lat="49.4238" lon="6.29796">
        <ele>159.2998</ele>
        <time>2026-05-20T09:34:22+02:00</time>
      </trkpt>
      <trkpt lat="49.42384" lon="6.29797">
        <ele>159.2998</ele>
        <time>2026-05-20T09:34:23+02:00</time>
      </trkpt>
      <trkpt lat="49.42388" lon="6.29799">
        <ele>159.2998</ele>
        <time>2026-05-20T09:34:24+02:00</time>
      </trkpt>
      <trkpt lat="49.42391" lon="6.29802">
        <ele>159.10059</ele>
        <time>2026-05-20T09:34:25+02:00</time>
      </trkpt>
      <trkpt lat="49.42396" lon="6.29805">
        <ele>159.10059</ele>
        <time>2026-05-20T09:34:26+02:00</time>
      </trkpt>
      <trkpt lat="49.424" lon="6.29809">
        <ele>158.7998</ele>
        <time>2026-05-20T09:34:27+02:00</time>
      </trkpt>
      <trkpt lat="49.42404" lon="6.29815">
        <ele>158.7998</ele>
        <time>2026-05-20T09:34:28+02:00</time>
      </trkpt>
      <trkpt lat="49.42409" lon="6.2982">
        <ele>158.5</ele>
        <time>2026-05-20T09:34:29+02:00</time>
      </trkpt>
      <trkpt lat="49.42414" lon="6.29824">
        <ele>158.5</ele>
        <time>2026-05-20T09:34:30+02:00</time>
      </trkpt>
      <trkpt lat="49.4242" lon="6.29829">
        <ele>158.10059</ele>
        <time>2026-05-20T09:34:31+02:00</time>
      </trkpt>
      <trkpt lat="49.42426" lon="6.29833">
        <ele>157.90039</ele>
        <time>2026-05-20T09:34:32+02:00</time>
      </trkpt>
      <trkpt lat="49.42433" lon="6.29836">
        <ele>157.2998</ele>
        <time>2026-05-20T09:34:33+02:00</time>
      </trkpt>
      <trkpt lat="49.42439" lon="6.29839">
        <ele>157</ele>
        <time>2026-05-20T09:34:34+02:00</time>
      </trkpt>
      <trkpt lat="49.42446" lon="6.29843">
        <ele>156.60059</ele>
        <time>2026-05-20T09:34:35+02:00</time>
      </trkpt>
      <trkpt lat="49.42453" lon="6.29848">
        <ele>156.2998</ele>
        <time>2026-05-20T09:34:36+02:00</time>
      </trkpt>
      <trkpt lat="49.42459" lon="6.29853">
        <ele>155.90039</ele>
        <time>2026-05-20T09:34:37+02:00</time>
      </trkpt>
      <trkpt lat="49.42466" lon="6.29858">
        <ele>155.40039</ele>
        <time>2026-05-20T09:34:38+02:00</time>
      </trkpt>
      <trkpt lat="49.42471" lon="6.29864">
        <ele>155</ele>
        <time>2026-05-20T09:34:39+02:00</time>
      </trkpt>
      <trkpt lat="49.42477" lon="6.29869">
        <ele>154.7002</ele>
        <time>2026-05-20T09:34:40+02:00</time>
      </trkpt>
      <trkpt lat="49.42483" lon="6.29873">
        <ele>154.5</ele>
        <time>2026-05-20T09:34:41+02:00</time>
      </trkpt>
      <trkpt lat="49.42487" lon="6.29877">
        <ele>154.5</ele>
        <time>2026-05-20T09:34:42+02:00</time>
      </trkpt>
      <trkpt lat="49.42493" lon="6.29879">
        <ele>154.2002</ele>
        <time>2026-05-20T09:34:43+02:00</time>
      </trkpt>
      <trkpt lat="49.42499" lon="6.29878">
        <ele>153.7998</ele>
        <time>2026-05-20T09:34:44+02:00</time>
      </trkpt>
      <trkpt lat="49.42504" lon="6.29875">
        <ele>153.90039</ele>
        <time>2026-05-20T09:34:45+02:00</time>
      </trkpt>
      <trkpt lat="49.42509" lon="6.2987">
        <ele>153.7002</ele>
        <time>2026-05-20T09:34:46+02:00</time>
      </trkpt>
      <trkpt lat="49.42512" lon="6.29863">
        <ele>153.60059</ele>
        <time>2026-05-20T09:34:47+02:00</time>
      </trkpt>
      <trkpt lat="49.42516" lon="6.29856">
        <ele>153.60059</ele>
        <time>2026-05-20T09:34:48+02:00</time>
      </trkpt>
      <trkpt lat="49.42519" lon="6.29848">
        <ele>153.7998</ele>
        <time>2026-05-20T09:34:49+02:00</time>
      </trkpt>
      <trkpt lat="49.42522" lon="6.2984">
        <ele>153.90039</ele>
        <time>2026-05-20T09:34:50+02:00</time>
      </trkpt>
      <trkpt lat="49.42525" lon="6.29831">
        <ele>154.2002</ele>
        <time>2026-05-20T09:34:51+02:00</time>
      </trkpt>
      <trkpt lat="49.42528" lon="6.29823">
        <ele>154.2998</ele>
        <time>2026-05-20T09:34:52+02:00</time>
      </trkpt>
      <trkpt lat="49.42531" lon="6.29814">
        <ele>154.60059</ele>
        <time>2026-05-20T09:34:53+02:00</time>
      </trkpt>
      <trkpt lat="49.42533" lon="6.29806">
        <ele>154.5</ele>
        <time>2026-05-20T09:34:54+02:00</time>
      </trkpt>
      <trkpt lat="49.42536" lon="6.29797">
        <ele>154.7998</ele>
        <time>2026-05-20T09:34:55+02:00</time>
      </trkpt>
      <trkpt lat="49.42539" lon="6.29789">
        <ele>154.7002</ele>
        <time>2026-05-20T09:34:56+02:00</time>
      </trkpt>
      <trkpt lat="49.42541" lon="6.29781">
        <ele>154.90039</ele>
        <time>2026-05-20T09:34:57+02:00</time>
      </trkpt>
      <trkpt lat="49.42544" lon="6.29772">
        <ele>154.7002</ele>
        <time>2026-05-20T09:34:58+02:00</time>
      </trkpt>
      <trkpt lat="49.42546" lon="6.29762">
        <ele>154.90039</ele>
        <time>2026-05-20T09:34:59+02:00</time>
      </trkpt>
      <trkpt lat="49.42548" lon="6.29753">
        <ele>155</ele>
        <time>2026-05-20T09:35:00+02:00</time>
      </trkpt>
      <trkpt lat="49.4255" lon="6.29744">
        <ele>154.5</ele>
        <time>2026-05-20T09:35:01+02:00</time>
      </trkpt>
      <trkpt lat="49.42553" lon="6.29736">
        <ele>154.60059</ele>
        <time>2026-05-20T09:35:02+02:00</time>
      </trkpt>
      <trkpt lat="49.42555" lon="6.29728">
        <ele>154</ele>
        <time>2026-05-20T09:35:03+02:00</time>
      </trkpt>
      <trkpt lat="49.42557" lon="6.2972">
        <ele>153.90039</ele>
        <time>2026-05-20T09:35:04+02:00</time>
      </trkpt>
      <trkpt lat="49.42558" lon="6.29711">
        <ele>153.7998</ele>
        <time>2026-05-20T09:35:05+02:00</time>
      </trkpt>
      <trkpt lat="49.42556" lon="6.29704">
        <ele>153.7002</ele>
        <time>2026-05-20T09:35:06+02:00</time>
      </trkpt>
      <trkpt lat="49.42553" lon="6.29696">
        <ele>153.7998</ele>
        <time>2026-05-20T09:35:07+02:00</time>
      </trkpt>
      <trkpt lat="49.4255" lon="6.29688">
        <ele>153.5</ele>
        <time>2026-05-20T09:35:08+02:00</time>
      </trkpt>
      <trkpt lat="49.42546" lon="6.29681">
        <ele>153.7998</ele>
        <time>2026-05-20T09:35:09+02:00</time>
      </trkpt>
      <trkpt lat="49.42542" lon="6.29673">
        <ele>154.2002</ele>
        <time>2026-05-20T09:35:10+02:00</time>
      </trkpt>
      <trkpt lat="49.42538" lon="6.29666">
        <ele>154.2998</ele>
        <time>2026-05-20T09:35:11+02:00</time>
      </trkpt>
      <trkpt lat="49.42534" lon="6.29658">
        <ele>154.60059</ele>
        <time>2026-05-20T09:35:12+02:00</time>
      </trkpt>
      <trkpt lat="49.4253" lon="6.2965">
        <ele>154.2998</ele>
        <time>2026-05-20T09:35:13+02:00</time>
      </trkpt>
      <trkpt lat="49.42525" lon="6.29643">
        <ele>153.40039</ele>
        <time>2026-05-20T09:35:14+02:00</time>
      </trkpt>
      <trkpt lat="49.42521" lon="6.29635">
        <ele>152</ele>
        <time>2026-05-20T09:35:15+02:00</time>
      </trkpt>
      <trkpt lat="49.42516" lon="6.29628">
        <ele>150.10059</ele>
        <time>2026-05-20T09:35:16+02:00</time>
      </trkpt>
      <trkpt lat="49.42511" lon="6.29621">
        <ele>151.10059</ele>
        <time>2026-05-20T09:35:17+02:00</time>
      </trkpt>
      <trkpt lat="49.42506" lon="6.29615">
        <ele>151.5</ele>
        <time>2026-05-20T09:35:18+02:00</time>
      </trkpt>
      <trkpt lat="49.42501" lon="6.29609">
        <ele>151.2002</ele>
        <time>2026-05-20T09:35:19+02:00</time>
      </trkpt>
      <trkpt lat="49.42496" lon="6.29603">
        <ele>152.40039</ele>
        <time>2026-05-20T09:35:20+02:00</time>
      </trkpt>
      <trkpt lat="49.42491" lon="6.29598">
        <ele>150.10059</ele>
        <time>2026-05-20T09:35:21+02:00</time>
      </trkpt>
      <trkpt lat="49.42486" lon="6.29593">
        <ele>149.2002</ele>
        <time>2026-05-20T09:35:22+02:00</time>
      </trkpt>
      <trkpt lat="49.42481" lon="6.29588">
        <ele>152.2002</ele>
        <time>2026-05-20T09:35:23+02:00</time>
      </trkpt>
      <trkpt lat="49.42476" lon="6.29582">
        <ele>154</ele>
        <time>2026-05-20T09:35:24+02:00</time>
      </trkpt>
      <trkpt lat="49.42471" lon="6.29577">
        <ele>154</ele>
        <time>2026-05-20T09:35:25+02:00</time>
      </trkpt>
      <trkpt lat="49.42466" lon="6.29573">
        <ele>153.2002</ele>
        <time>2026-05-20T09:35:26+02:00</time>
      </trkpt>
      <trkpt lat="49.4246" lon="6.29568">
        <ele>151.7002</ele>
        <time>2026-05-20T09:35:27+02:00</time>
      </trkpt>
      <trkpt lat="49.42455" lon="6.29564">
        <ele>153</ele>
        <time>2026-05-20T09:35:28+02:00</time>
      </trkpt>
      <trkpt lat="49.4245" lon="6.29561">
        <ele>154.2998</ele>
        <time>2026-05-20T09:35:29+02:00</time>
      </trkpt>
      <trkpt lat="49.42444" lon="6.29558">
        <ele>154.60059</ele>
        <time>2026-05-20T09:35:30+02:00</time>
      </trkpt>
      <trkpt lat="49.42438" lon="6.29555">
        <ele>155.2002</ele>
        <time>2026-05-20T09:35:31+02:00</time>
      </trkpt>
      <trkpt lat="49.42433" lon="6.29551">
        <ele>155.5</ele>
        <time>2026-05-20T09:35:32+02:00</time>
      </trkpt>
      <trkpt lat="49.42427" lon="6.29547">
        <ele>154.2002</ele>
        <time>2026-05-20T09:35:33+02:00</time>
      </trkpt>
      <trkpt lat="49.42421" lon="6.29543">
        <ele>154.2002</ele>
        <time>2026-05-20T09:35:34+02:00</time>
      </trkpt>
      <trkpt lat="49.42416" lon="6.29539">
        <ele>152.2998</ele>
        <time>2026-05-20T09:35:35+02:00</time>
      </trkpt>
      <trkpt lat="49.4241" lon="6.29536">
        <ele>152.40039</ele>
        <time>2026-05-20T09:35:36+02:00</time>
      </trkpt>
      <trkpt lat="49.42404" lon="6.29532">
        <ele>150.60059</ele>
        <time>2026-05-20T09:35:37+02:00</time>
      </trkpt>
      <trkpt lat="49.42399" lon="6.29529">
        <ele>150.90039</ele>
        <time>2026-05-20T09:35:38+02:00</time>
      </trkpt>
      <trkpt lat="49.42393" lon="6.29527">
        <ele>151.60059</ele>
        <time>2026-05-20T09:35:39+02:00</time>
      </trkpt>
      <trkpt lat="49.42388" lon="6.29524">
        <ele>151.90039</ele>
        <time>2026-05-20T09:35:40+02:00</time>
      </trkpt>
      <trkpt lat="49.42382" lon="6.29522">
        <ele>153.7002</ele>
        <time>2026-05-20T09:35:41+02:00</time>
      </trkpt>
      <trkpt lat="49.42377" lon="6.29519">
        <ele>155</ele>
        <time>2026-05-20T09:35:42+02:00</time>
      </trkpt>
      <trkpt lat="49.42371" lon="6.29517">
        <ele>155.60059</ele>
        <time>2026-05-20T09:35:43+02:00</time>
      </trkpt>
      <trkpt lat="49.42366" lon="6.29516">
        <ele>154.5</ele>
        <time>2026-05-20T09:35:44+02:00</time>
      </trkpt>
      <trkpt lat="49.4236" lon="6.29514">
        <ele>154.90039</ele>
        <time>2026-05-20T09:35:45+02:00</time>
      </trkpt>
      <trkpt lat="49.42355" lon="6.29512">
        <ele>155.2002</ele>
        <time>2026-05-20T09:35:46+02:00</time>
      </trkpt>
      <trkpt lat="49.42351" lon="6.29511">
        <ele>155.40039</ele>
        <time>2026-05-20T09:35:47+02:00</time>
      </trkpt>
      <trkpt lat="49.42347" lon="6.29509">
        <ele>155.40039</ele>
        <time>2026-05-20T09:35:48+02:00</time>
      </trkpt>
      <trkpt lat="49.42342" lon="6.29507">
        <ele>154.90039</ele>
        <time>2026-05-20T09:35:49+02:00</time>
      </trkpt>
      <trkpt lat="49.42337" lon="6.29504">
        <ele>154.90039</ele>
        <time>2026-05-20T09:35:50+02:00</time>
      </trkpt>
      <trkpt lat="49.42332" lon="6.29502">
        <ele>154.90039</ele>
        <time>2026-05-20T09:35:51+02:00</time>
      </trkpt>
      <trkpt lat="49.42326" lon="6.29499">
        <ele>154.2998</ele>
        <time>2026-05-20T09:35:52+02:00</time>
      </trkpt>
      <trkpt lat="49.42321" lon="6.29496">
        <ele>154.5</ele>
        <time>2026-05-20T09:35:53+02:00</time>
      </trkpt>
      <trkpt lat="49.42315" lon="6.29494">
        <ele>154.7998</ele>
        <time>2026-05-20T09:35:54+02:00</time>
      </trkpt>
      <trkpt lat="49.4231" lon="6.29491">
        <ele>155.2002</ele>
        <time>2026-05-20T09:35:55+02:00</time>
      </trkpt>
      <trkpt lat="49.42305" lon="6.29488">
        <ele>154.40039</ele>
        <time>2026-05-20T09:35:56+02:00</time>
      </trkpt>
      <trkpt lat="49.42299" lon="6.29485">
        <ele>154.90039</ele>
        <time>2026-05-20T09:35:57+02:00</time>
      </trkpt>
      <trkpt lat="49.42293" lon="6.29482">
        <ele>154.7002</ele>
        <time>2026-05-20T09:35:58+02:00</time>
      </trkpt>
      <trkpt lat="49.42288" lon="6.2948">
        <ele>155.7002</ele>
        <time>2026-05-20T09:35:59+02:00</time>
      </trkpt>
      <trkpt lat="49.42282" lon="6.29477">
        <ele>156.40039</ele>
        <time>2026-05-20T09:36:00+02:00</time>
      </trkpt>
      <trkpt lat="49.42277" lon="6.29474">
        <ele>156.90039</ele>
        <time>2026-05-20T09:36:01+02:00</time>
      </trkpt>
      <trkpt lat="49.42271" lon="6.29472">
        <ele>156.60059</ele>
        <time>2026-05-20T09:36:02+02:00</time>
      </trkpt>
      <trkpt lat="49.42265" lon="6.29469">
        <ele>156.7002</ele>
        <time>2026-05-20T09:36:03+02:00</time>
      </trkpt>
      <trkpt lat="49.4226" lon="6.29467">
        <ele>156.7998</ele>
        <time>2026-05-20T09:36:04+02:00</time>
      </trkpt>
      <trkpt lat="49.42255" lon="6.29465">
        <ele>155.7998</ele>
        <time>2026-05-20T09:36:05+02:00</time>
      </trkpt>
      <trkpt lat="49.42249" lon="6.29462">
        <ele>155.90039</ele>
        <time>2026-05-20T09:36:06+02:00</time>
      </trkpt>
      <trkpt lat="49.42243" lon="6.29459">
        <ele>155.90039</ele>
        <time>2026-05-20T09:36:07+02:00</time>
      </trkpt>
      <trkpt lat="49.42238" lon="6.29457">
        <ele>155.7998</ele>
        <time>2026-05-20T09:36:08+02:00</time>
      </trkpt>
      <trkpt lat="49.42232" lon="6.29454">
        <ele>154.10059</ele>
        <time>2026-05-20T09:36:09+02:00</time>
      </trkpt>
      <trkpt lat="49.42226" lon="6.29452">
        <ele>154.10059</ele>
        <time>2026-05-20T09:36:10+02:00</time>
      </trkpt>
      <trkpt lat="49.4222" lon="6.2945">
        <ele>154.10059</ele>
        <time>2026-05-20T09:36:11+02:00</time>
      </trkpt>
      <trkpt lat="49.42215" lon="6.29447">
        <ele>153</ele>
        <time>2026-05-20T09:36:12+02:00</time>
      </trkpt>
      <trkpt lat="49.4221" lon="6.29445">
        <ele>153</ele>
        <time>2026-05-20T09:36:13+02:00</time>
      </trkpt>
      <trkpt lat="49.42204" lon="6.29442">
        <ele>153</ele>
        <time>2026-05-20T09:36:14+02:00</time>
      </trkpt>
      <trkpt lat="49.42199" lon="6.2944">
        <ele>152.90039</ele>
        <time>2026-05-20T09:36:15+02:00</time>
      </trkpt>
      <trkpt lat="49.42194" lon="6.29439">
        <ele>151.7002</ele>
        <time>2026-05-20T09:36:16+02:00</time>
      </trkpt>
      <trkpt lat="49.42188" lon="6.29437">
        <ele>151.60059</ele>
        <time>2026-05-20T09:36:17+02:00</time>
      </trkpt>
      <trkpt lat="49.42183" lon="6.29435">
        <ele>151.5</ele>
        <time>2026-05-20T09:36:18+02:00</time>
      </trkpt>
      <trkpt lat="49.42178" lon="6.29433">
        <ele>151.5</ele>
        <time>2026-05-20T09:36:19+02:00</time>
      </trkpt>
      <trkpt lat="49.42173" lon="6.29431">
        <ele>151.40039</ele>
        <time>2026-05-20T09:36:20+02:00</time>
      </trkpt>
      <trkpt lat="49.42167" lon="6.29428">
        <ele>150.2002</ele>
        <time>2026-05-20T09:36:21+02:00</time>
      </trkpt>
      <trkpt lat="49.42162" lon="6.29426">
        <ele>150.2002</ele>
        <time>2026-05-20T09:36:22+02:00</time>
      </trkpt>
      <trkpt lat="49.42157" lon="6.29424">
        <ele>150.2002</ele>
        <time>2026-05-20T09:36:23+02:00</time>
      </trkpt>
      <trkpt lat="49.42151" lon="6.29422">
        <ele>149.10059</ele>
        <time>2026-05-20T09:36:24+02:00</time>
      </trkpt>
      <trkpt lat="49.42146" lon="6.2942">
        <ele>149.10059</ele>
        <time>2026-05-20T09:36:25+02:00</time>
      </trkpt>
      <trkpt lat="49.42141" lon="6.29418">
        <ele>149</ele>
        <time>2026-05-20T09:36:26+02:00</time>
      </trkpt>
      <trkpt lat="49.42136" lon="6.29416">
        <ele>149</ele>
        <time>2026-05-20T09:36:27+02:00</time>
      </trkpt>
      <trkpt lat="49.42131" lon="6.29414">
        <ele>148.90039</ele>
        <time>2026-05-20T09:36:28+02:00</time>
      </trkpt>
      <trkpt lat="49.42125" lon="6.29412">
        <ele>147.7998</ele>
        <time>2026-05-20T09:36:29+02:00</time>
      </trkpt>
      <trkpt lat="49.4212" lon="6.2941">
        <ele>147.7998</ele>
        <time>2026-05-20T09:36:30+02:00</time>
      </trkpt>
      <trkpt lat="49.42114" lon="6.29407">
        <ele>147.90039</ele>
        <time>2026-05-20T09:36:31+02:00</time>
      </trkpt>
      <trkpt lat="49.42109" lon="6.29405">
        <ele>148</ele>
        <time>2026-05-20T09:36:32+02:00</time>
      </trkpt>
      <trkpt lat="49.42103" lon="6.29403">
        <ele>147.40039</ele>
        <time>2026-05-20T09:36:33+02:00</time>
      </trkpt>
      <trkpt lat="49.42098" lon="6.294">
        <ele>147.60059</ele>
        <time>2026-05-20T09:36:34+02:00</time>
      </trkpt>
      <trkpt lat="49.42092" lon="6.29398">
        <ele>147.7998</ele>
        <time>2026-05-20T09:36:35+02:00</time>
      </trkpt>
      <trkpt lat="49.42086" lon="6.29396">
        <ele>147.40039</ele>
        <time>2026-05-20T09:36:36+02:00</time>
      </trkpt>
      <trkpt lat="49.4208" lon="6.29393">
        <ele>147.7998</ele>
        <time>2026-05-20T09:36:37+02:00</time>
      </trkpt>
      <trkpt lat="49.42075" lon="6.29391">
        <ele>147.7998</ele>
        <time>2026-05-20T09:36:38+02:00</time>
      </trkpt>
      <trkpt lat="49.4207" lon="6.29388">
        <ele>148</ele>
        <time>2026-05-20T09:36:39+02:00</time>
      </trkpt>
      <trkpt lat="49.42064" lon="6.29386">
        <ele>147.40039</ele>
        <time>2026-05-20T09:36:40+02:00</time>
      </trkpt>
      <trkpt lat="49.42059" lon="6.29384">
        <ele>147.60059</ele>
        <time>2026-05-20T09:36:41+02:00</time>
      </trkpt>
      <trkpt lat="49.42054" lon="6.29382">
        <ele>147.7998</ele>
        <time>2026-05-20T09:36:42+02:00</time>
      </trkpt>
      <trkpt lat="49.42049" lon="6.29379">
        <ele>147.40039</ele>
        <time>2026-05-20T09:36:43+02:00</time>
      </trkpt>
      <trkpt lat="49.42043" lon="6.29377">
        <ele>147.90039</ele>
        <time>2026-05-20T09:36:44+02:00</time>
      </trkpt>
      <trkpt lat="49.42038" lon="6.29375">
        <ele>148.2998</ele>
        <time>2026-05-20T09:36:45+02:00</time>
      </trkpt>
      <trkpt lat="49.42032" lon="6.29372">
        <ele>148.5</ele>
        <time>2026-05-20T09:36:46+02:00</time>
      </trkpt>
      <trkpt lat="49.42027" lon="6.2937">
        <ele>147.7998</ele>
        <time>2026-05-20T09:36:47+02:00</time>
      </trkpt>
      <trkpt lat="49.42022" lon="6.29367">
        <ele>147.90039</ele>
        <time>2026-05-20T09:36:48+02:00</time>
      </trkpt>
      <trkpt lat="49.42016" lon="6.29364">
        <ele>147.90039</ele>
        <time>2026-05-20T09:36:49+02:00</time>
      </trkpt>
      <trkpt lat="49.42011" lon="6.29361">
        <ele>147.2002</ele>
        <time>2026-05-20T09:36:50+02:00</time>
      </trkpt>
      <trkpt lat="49.42006" lon="6.29357">
        <ele>147.10059</ele>
        <time>2026-05-20T09:36:51+02:00</time>
      </trkpt>
      <trkpt lat="49.42001" lon="6.29355">
        <ele>147</ele>
        <time>2026-05-20T09:36:52+02:00</time>
      </trkpt>
      <trkpt lat="49.41996" lon="6.29351">
        <ele>146.2002</ele>
        <time>2026-05-20T09:36:53+02:00</time>
      </trkpt>
      <trkpt lat="49.4199" lon="6.29348">
        <ele>146</ele>
        <time>2026-05-20T09:36:54+02:00</time>
      </trkpt>
      <trkpt lat="49.41985" lon="6.29345">
        <ele>146</ele>
        <time>2026-05-20T09:36:55+02:00</time>
      </trkpt>
      <trkpt lat="49.4198" lon="6.29342">
        <ele>145.7002</ele>
        <time>2026-05-20T09:36:56+02:00</time>
      </trkpt>
      <trkpt lat="49.41975" lon="6.29339">
        <ele>145.60059</ele>
        <time>2026-05-20T09:36:57+02:00</time>
      </trkpt>
      <trkpt lat="49.41969" lon="6.29336">
        <ele>145.40039</ele>
        <time>2026-05-20T09:36:58+02:00</time>
      </trkpt>
      <trkpt lat="49.41964" lon="6.29332">
        <ele>145.40039</ele>
        <time>2026-05-20T09:36:59+02:00</time>
      </trkpt>
      <trkpt lat="49.41959" lon="6.29329">
        <ele>145.5</ele>
        <time>2026-05-20T09:37:00+02:00</time>
      </trkpt>
      <trkpt lat="49.41955" lon="6.29326">
        <ele>145.60059</ele>
        <time>2026-05-20T09:37:01+02:00</time>
      </trkpt>
      <trkpt lat="49.4195" lon="6.29323">
        <ele>146</ele>
        <time>2026-05-20T09:37:02+02:00</time>
      </trkpt>
      <trkpt lat="49.41945" lon="6.2932">
        <ele>146.2998</ele>
        <time>2026-05-20T09:37:03+02:00</time>
      </trkpt>
      <trkpt lat="49.41941" lon="6.29316">
        <ele>146.2002</ele>
        <time>2026-05-20T09:37:04+02:00</time>
      </trkpt>
      <trkpt lat="49.41936" lon="6.29312">
        <ele>146.5</ele>
        <time>2026-05-20T09:37:05+02:00</time>
      </trkpt>
      <trkpt lat="49.41932" lon="6.29308">
        <ele>146.60059</ele>
        <time>2026-05-20T09:37:06+02:00</time>
      </trkpt>
      <trkpt lat="49.41927" lon="6.29303">
        <ele>146.7998</ele>
        <time>2026-05-20T09:37:07+02:00</time>
      </trkpt>
      <trkpt lat="49.41923" lon="6.29298">
        <ele>146.90039</ele>
        <time>2026-05-20T09:37:08+02:00</time>
      </trkpt>
      <trkpt lat="49.41919" lon="6.29294">
        <ele>146.90039</ele>
        <time>2026-05-20T09:37:09+02:00</time>
      </trkpt>
      <trkpt lat="49.41914" lon="6.29289">
        <ele>146.90039</ele>
        <time>2026-05-20T09:37:10+02:00</time>
      </trkpt>
      <trkpt lat="49.4191" lon="6.29283">
        <ele>147.10059</ele>
        <time>2026-05-20T09:37:11+02:00</time>
      </trkpt>
      <trkpt lat="49.41906" lon="6.29277">
        <ele>147.5</ele>
        <time>2026-05-20T09:37:12+02:00</time>
      </trkpt>
      <trkpt lat="49.41902" lon="6.29271">
        <ele>147.40039</ele>
        <time>2026-05-20T09:37:13+02:00</time>
      </trkpt>
      <trkpt lat="49.41898" lon="6.29265">
        <ele>147.60059</ele>
        <time>2026-05-20T09:37:14+02:00</time>
      </trkpt>
      <trkpt lat="49.41895" lon="6.29258">
        <ele>147.7998</ele>
        <time>2026-05-20T09:37:15+02:00</time>
      </trkpt>
      <trkpt lat="49.41892" lon="6.29251">
        <ele>147.7998</ele>
        <time>2026-05-20T09:37:16+02:00</time>
      </trkpt>
      <trkpt lat="49.41889" lon="6.29244">
        <ele>147.90039</ele>
        <time>2026-05-20T09:37:17+02:00</time>
      </trkpt>
      <trkpt lat="49.41885" lon="6.29237">
        <ele>147.7998</ele>
        <time>2026-05-20T09:37:18+02:00</time>
      </trkpt>
      <trkpt lat="49.41882" lon="6.2923">
        <ele>148.10059</ele>
        <time>2026-05-20T09:37:19+02:00</time>
      </trkpt>
      <trkpt lat="49.41879" lon="6.29223">
        <ele>148.40039</ele>
        <time>2026-05-20T09:37:20+02:00</time>
      </trkpt>
      <trkpt lat="49.41876" lon="6.29216">
        <ele>148.2002</ele>
        <time>2026-05-20T09:37:21+02:00</time>
      </trkpt>
      <trkpt lat="49.41873" lon="6.29209">
        <ele>148.5</ele>
        <time>2026-05-20T09:37:22+02:00</time>
      </trkpt>
      <trkpt lat="49.4187" lon="6.29201">
        <ele>148.2002</ele>
        <time>2026-05-20T09:37:23+02:00</time>
      </trkpt>
      <trkpt lat="49.41867" lon="6.29194">
        <ele>148.2002</ele>
        <time>2026-05-20T09:37:24+02:00</time>
      </trkpt>
      <trkpt lat="49.41865" lon="6.29187">
        <ele>147.90039</ele>
        <time>2026-05-20T09:37:25+02:00</time>
      </trkpt>
      <trkpt lat="49.41862" lon="6.29179">
        <ele>148.40039</ele>
        <time>2026-05-20T09:37:26+02:00</time>
      </trkpt>
      <trkpt lat="49.4186" lon="6.29172">
        <ele>148.2998</ele>
        <time>2026-05-20T09:37:27+02:00</time>
      </trkpt>
      <trkpt lat="49.41857" lon="6.29164">
        <ele>148.2002</ele>
        <time>2026-05-20T09:37:28+02:00</time>
      </trkpt>
      <trkpt lat="49.41855" lon="6.29157">
        <ele>148.7002</ele>
        <time>2026-05-20T09:37:29+02:00</time>
      </trkpt>
      <trkpt lat="49.41852" lon="6.29149">
        <ele>148.60059</ele>
        <time>2026-05-20T09:37:30+02:00</time>
      </trkpt>
      <trkpt lat="49.4185" lon="6.29142">
        <ele>148.90039</ele>
        <time>2026-05-20T09:37:31+02:00</time>
      </trkpt>
      <trkpt lat="49.41848" lon="6.29134">
        <ele>148.90039</ele>
        <time>2026-05-20T09:37:32+02:00</time>
      </trkpt>
      <trkpt lat="49.41846" lon="6.29126">
        <ele>148.7998</ele>
        <time>2026-05-20T09:37:33+02:00</time>
      </trkpt>
      <trkpt lat="49.41844" lon="6.29118">
        <ele>149</ele>
        <time>2026-05-20T09:37:34+02:00</time>
      </trkpt>
      <trkpt lat="49.41842" lon="6.2911">
        <ele>148.7002</ele>
        <time>2026-05-20T09:37:35+02:00</time>
      </trkpt>
      <trkpt lat="49.41841" lon="6.29102">
        <ele>148.2002</ele>
        <time>2026-05-20T09:37:36+02:00</time>
      </trkpt>
      <trkpt lat="49.41839" lon="6.29093">
        <ele>148.2002</ele>
        <time>2026-05-20T09:37:37+02:00</time>
      </trkpt>
      <trkpt lat="49.41838" lon="6.29085">
        <ele>147.90039</ele>
        <time>2026-05-20T09:37:38+02:00</time>
      </trkpt>
      <trkpt lat="49.41837" lon="6.29076">
        <ele>147.7998</ele>
        <time>2026-05-20T09:37:39+02:00</time>
      </trkpt>
      <trkpt lat="49.41836" lon="6.29067">
        <ele>147.7998</ele>
        <time>2026-05-20T09:37:40+02:00</time>
      </trkpt>
      <trkpt lat="49.41834" lon="6.29059">
        <ele>148.2998</ele>
        <time>2026-05-20T09:37:41+02:00</time>
      </trkpt>
      <trkpt lat="49.41833" lon="6.2905">
        <ele>148.2002</ele>
        <time>2026-05-20T09:37:42+02:00</time>
      </trkpt>
      <trkpt lat="49.41832" lon="6.29042">
        <ele>148</ele>
        <time>2026-05-20T09:37:43+02:00</time>
      </trkpt>
      <trkpt lat="49.41832" lon="6.29034">
        <ele>147.7998</ele>
        <time>2026-05-20T09:37:44+02:00</time>
      </trkpt>
      <trkpt lat="49.41831" lon="6.29025">
        <ele>147.60059</ele>
        <time>2026-05-20T09:37:45+02:00</time>
      </trkpt>
      <trkpt lat="49.4183" lon="6.29017">
        <ele>147.5</ele>
        <time>2026-05-20T09:37:46+02:00</time>
      </trkpt>
      <trkpt lat="49.41829" lon="6.29009">
        <ele>147.2998</ele>
        <time>2026-05-20T09:37:47+02:00</time>
      </trkpt>
      <trkpt lat="49.41829" lon="6.29">
        <ele>147.10059</ele>
        <time>2026-05-20T09:37:48+02:00</time>
      </trkpt>
      <trkpt lat="49.41828" lon="6.28992">
        <ele>147.10059</ele>
        <time>2026-05-20T09:37:49+02:00</time>
      </trkpt>
      <trkpt lat="49.41828" lon="6.28983">
        <ele>146.90039</ele>
        <time>2026-05-20T09:37:50+02:00</time>
      </trkpt>
      <trkpt lat="49.41827" lon="6.28975">
        <ele>146.7002</ele>
        <time>2026-05-20T09:37:51+02:00</time>
      </trkpt>
      <trkpt lat="49.41826" lon="6.28966">
        <ele>146.5</ele>
        <time>2026-05-20T09:37:52+02:00</time>
      </trkpt>
      <trkpt lat="49.41826" lon="6.28958">
        <ele>146.2998</ele>
        <time>2026-05-20T09:37:53+02:00</time>
      </trkpt>
      <trkpt lat="49.41825" lon="6.28949">
        <ele>146.2002</ele>
        <time>2026-05-20T09:37:54+02:00</time>
      </trkpt>
      <trkpt lat="49.41824" lon="6.28941">
        <ele>146.2002</ele>
        <time>2026-05-20T09:37:55+02:00</time>
      </trkpt>
      <trkpt lat="49.41824" lon="6.28933">
        <ele>146.2002</ele>
        <time>2026-05-20T09:37:56+02:00</time>
      </trkpt>
      <trkpt lat="49.41823" lon="6.28924">
        <ele>146.2002</ele>
        <time>2026-05-20T09:37:57+02:00</time>
      </trkpt>
      <trkpt lat="49.41822" lon="6.28916">
        <ele>146.2002</ele>
        <time>2026-05-20T09:37:58+02:00</time>
      </trkpt>
      <trkpt lat="49.41821" lon="6.28907">
        <ele>146.2002</ele>
        <time>2026-05-20T09:37:59+02:00</time>
      </trkpt>
      <trkpt lat="49.41821" lon="6.28899">
        <ele>146.2002</ele>
        <time>2026-05-20T09:38:00+02:00</time>
      </trkpt>
      <trkpt lat="49.4182" lon="6.2889">
        <ele>146.2002</ele>
        <time>2026-05-20T09:38:01+02:00</time>
      </trkpt>
      <trkpt lat="49.41819" lon="6.28882">
        <ele>146.2002</ele>
        <time>2026-05-20T09:38:02+02:00</time>
      </trkpt>
      <trkpt lat="49.41818" lon="6.28874">
        <ele>146.2002</ele>
        <time>2026-05-20T09:38:03+02:00</time>
      </trkpt>
      <trkpt lat="49.41817" lon="6.28866">
        <ele>146.2002</ele>
        <time>2026-05-20T09:38:04+02:00</time>
      </trkpt>
      <trkpt lat="49.41816" lon="6.28858">
        <ele>146.2002</ele>
        <time>2026-05-20T09:38:05+02:00</time>
      </trkpt>
      <trkpt lat="49.41815" lon="6.2885">
        <ele>146.10059</ele>
        <time>2026-05-20T09:38:06+02:00</time>
      </trkpt>
      <trkpt lat="49.41813" lon="6.28841">
        <ele>146</ele>
        <time>2026-05-20T09:38:07+02:00</time>
      </trkpt>
      <trkpt lat="49.41812" lon="6.28833">
        <ele>146</ele>
        <time>2026-05-20T09:38:08+02:00</time>
      </trkpt>
      <trkpt lat="49.4181" lon="6.28825">
        <ele>146.10059</ele>
        <time>2026-05-20T09:38:09+02:00</time>
      </trkpt>
      <trkpt lat="49.41809" lon="6.28817">
        <ele>146</ele>
        <time>2026-05-20T09:38:10+02:00</time>
      </trkpt>
      <trkpt lat="49.41807" lon="6.28809">
        <ele>146</ele>
        <time>2026-05-20T09:38:11+02:00</time>
      </trkpt>
      <trkpt lat="49.41805" lon="6.28801">
        <ele>146.10059</ele>
        <time>2026-05-20T09:38:12+02:00</time>
      </trkpt>
      <trkpt lat="49.41804" lon="6.28794">
        <ele>146.10059</ele>
        <time>2026-05-20T09:38:13+02:00</time>
      </trkpt>
      <trkpt lat="49.41802" lon="6.28786">
        <ele>146.10059</ele>
        <time>2026-05-20T09:38:14+02:00</time>
      </trkpt>
      <trkpt lat="49.418" lon="6.28778">
        <ele>146.10059</ele>
        <time>2026-05-20T09:38:15+02:00</time>
      </trkpt>
      <trkpt lat="49.41799" lon="6.28771">
        <ele>146.10059</ele>
        <time>2026-05-20T09:38:16+02:00</time>
      </trkpt>
      <trkpt lat="49.41797" lon="6.28763">
        <ele>146.10059</ele>
        <time>2026-05-20T09:38:17+02:00</time>
      </trkpt>
      <trkpt lat="49.41795" lon="6.28755">
        <ele>146.2002</ele>
        <time>2026-05-20T09:38:18+02:00</time>
      </trkpt>
      <trkpt lat="49.41793" lon="6.28748">
        <ele>146.10059</ele>
        <time>2026-05-20T09:38:19+02:00</time>
      </trkpt>
      <trkpt lat="49.41791" lon="6.2874">
        <ele>146.10059</ele>
        <time>2026-05-20T09:38:20+02:00</time>
      </trkpt>
      <trkpt lat="49.41788" lon="6.28733">
        <ele>146.2002</ele>
        <time>2026-05-20T09:38:21+02:00</time>
      </trkpt>
      <trkpt lat="49.41786" lon="6.28725">
        <ele>146.2002</ele>
        <time>2026-05-20T09:38:22+02:00</time>
      </trkpt>
      <trkpt lat="49.41784" lon="6.28718">
        <ele>146.2998</ele>
        <time>2026-05-20T09:38:23+02:00</time>
      </trkpt>
      <trkpt lat="49.41782" lon="6.2871">
        <ele>146.2998</ele>
        <time>2026-05-20T09:38:24+02:00</time>
      </trkpt>
      <trkpt lat="49.41779" lon="6.28703">
        <ele>146.2998</ele>
        <time>2026-05-20T09:38:25+02:00</time>
      </trkpt>
      <trkpt lat="49.41777" lon="6.28696">
        <ele>146.60059</ele>
        <time>2026-05-20T09:38:26+02:00</time>
      </trkpt>
      <trkpt lat="49.41775" lon="6.28688">
        <ele>146.7002</ele>
        <time>2026-05-20T09:38:27+02:00</time>
      </trkpt>
      <trkpt lat="49.41773" lon="6.28681">
        <ele>147</ele>
        <time>2026-05-20T09:38:28+02:00</time>
      </trkpt>
      <trkpt lat="49.4177" lon="6.28674">
        <ele>147</ele>
        <time>2026-05-20T09:38:29+02:00</time>
      </trkpt>
      <trkpt lat="49.41768" lon="6.28667">
        <ele>147</ele>
        <time>2026-05-20T09:38:30+02:00</time>
      </trkpt>
      <trkpt lat="49.41766" lon="6.28659">
        <ele>147.10059</ele>
        <time>2026-05-20T09:38:31+02:00</time>
      </trkpt>
      <trkpt lat="49.41763" lon="6.28652">
        <ele>146.90039</ele>
        <time>2026-05-20T09:38:32+02:00</time>
      </trkpt>
      <trkpt lat="49.41761" lon="6.28645">
        <ele>146.90039</ele>
        <time>2026-05-20T09:38:33+02:00</time>
      </trkpt>
      <trkpt lat="49.41759" lon="6.28638">
        <ele>146.7998</ele>
        <time>2026-05-20T09:38:34+02:00</time>
      </trkpt>
      <trkpt lat="49.41757" lon="6.28631">
        <ele>146.90039</ele>
        <time>2026-05-20T09:38:35+02:00</time>
      </trkpt>
      <trkpt lat="49.41754" lon="6.28624">
        <ele>147.2998</ele>
        <time>2026-05-20T09:38:36+02:00</time>
      </trkpt>
      <trkpt lat="49.41752" lon="6.28617">
        <ele>147.2998</ele>
        <time>2026-05-20T09:38:37+02:00</time>
      </trkpt>
      <trkpt lat="49.4175" lon="6.2861">
        <ele>147.60059</ele>
        <time>2026-05-20T09:38:38+02:00</time>
      </trkpt>
      <trkpt lat="49.41747" lon="6.28603">
        <ele>147.5</ele>
        <time>2026-05-20T09:38:39+02:00</time>
      </trkpt>
      <trkpt lat="49.41745" lon="6.28595">
        <ele>147.40039</ele>
        <time>2026-05-20T09:38:40+02:00</time>
      </trkpt>
      <trkpt lat="49.41742" lon="6.28589">
        <ele>146.90039</ele>
        <time>2026-05-20T09:38:41+02:00</time>
      </trkpt>
      <trkpt lat="49.4174" lon="6.28582">
        <ele>146.90039</ele>
        <time>2026-05-20T09:38:42+02:00</time>
      </trkpt>
      <trkpt lat="49.41737" lon="6.28575">
        <ele>146.5</ele>
        <time>2026-05-20T09:38:43+02:00</time>
      </trkpt>
      <trkpt lat="49.41735" lon="6.28568">
        <ele>146.40039</ele>
        <time>2026-05-20T09:38:44+02:00</time>
      </trkpt>
      <trkpt lat="49.41733" lon="6.28561">
        <ele>146.7002</ele>
        <time>2026-05-20T09:38:45+02:00</time>
      </trkpt>
      <trkpt lat="49.4173" lon="6.28554">
        <ele>146.7002</ele>
        <time>2026-05-20T09:38:46+02:00</time>
      </trkpt>
      <trkpt lat="49.41727" lon="6.28547">
        <ele>147.10059</ele>
        <time>2026-05-20T09:38:47+02:00</time>
      </trkpt>
      <trkpt lat="49.41725" lon="6.2854">
        <ele>147.10059</ele>
        <time>2026-05-20T09:38:48+02:00</time>
      </trkpt>
      <trkpt lat="49.41721" lon="6.28533">
        <ele>147.2998</ele>
        <time>2026-05-20T09:38:49+02:00</time>
      </trkpt>
      <trkpt lat="49.41718" lon="6.28526">
        <ele>146.90039</ele>
        <time>2026-05-20T09:38:50+02:00</time>
      </trkpt>
      <trkpt lat="49.41715" lon="6.28519">
        <ele>146.7002</ele>
        <time>2026-05-20T09:38:51+02:00</time>
      </trkpt>
      <trkpt lat="49.41712" lon="6.28512">
        <ele>146.40039</ele>
        <time>2026-05-20T09:38:52+02:00</time>
      </trkpt>
      <trkpt lat="49.41709" lon="6.28506">
        <ele>146.5</ele>
        <time>2026-05-20T09:38:53+02:00</time>
      </trkpt>
      <trkpt lat="49.41705" lon="6.28499">
        <ele>146.7002</ele>
        <time>2026-05-20T09:38:54+02:00</time>
      </trkpt>
      <trkpt lat="49.41702" lon="6.28492">
        <ele>146.60059</ele>
        <time>2026-05-20T09:38:55+02:00</time>
      </trkpt>
      <trkpt lat="49.41699" lon="6.28485">
        <ele>146.90039</ele>
        <time>2026-05-20T09:38:56+02:00</time>
      </trkpt>
      <trkpt lat="49.41696" lon="6.28478">
        <ele>146.90039</ele>
        <time>2026-05-20T09:38:57+02:00</time>
      </trkpt>
      <trkpt lat="49.41693" lon="6.28471">
        <ele>147.2002</ele>
        <time>2026-05-20T09:38:58+02:00</time>
      </trkpt>
      <trkpt lat="49.41689" lon="6.28465">
        <ele>147.40039</ele>
        <time>2026-05-20T09:38:59+02:00</time>
      </trkpt>
      <trkpt lat="49.41686" lon="6.28458">
        <ele>147.60059</ele>
        <time>2026-05-20T09:39:00+02:00</time>
      </trkpt>
      <trkpt lat="49.41682" lon="6.28451">
        <ele>147.7998</ele>
        <time>2026-05-20T09:39:01+02:00</time>
      </trkpt>
      <trkpt lat="49.41679" lon="6.28445">
        <ele>147.7998</ele>
        <time>2026-05-20T09:39:02+02:00</time>
      </trkpt>
      <trkpt lat="49.41675" lon="6.28439">
        <ele>147.7998</ele>
        <time>2026-05-20T09:39:03+02:00</time>
      </trkpt>
      <trkpt lat="49.41671" lon="6.28432">
        <ele>147.7998</ele>
        <time>2026-05-20T09:39:04+02:00</time>
      </trkpt>
      <trkpt lat="49.41667" lon="6.28426">
        <ele>147.7002</ele>
        <time>2026-05-20T09:39:05+02:00</time>
      </trkpt>
      <trkpt lat="49.41663" lon="6.2842">
        <ele>147.7998</ele>
        <time>2026-05-20T09:39:06+02:00</time>
      </trkpt>
      <trkpt lat="49.41659" lon="6.28413">
        <ele>148</ele>
        <time>2026-05-20T09:39:07+02:00</time>
      </trkpt>
      <trkpt lat="49.41655" lon="6.28407">
        <ele>148</ele>
        <time>2026-05-20T09:39:08+02:00</time>
      </trkpt>
      <trkpt lat="49.41651" lon="6.28402">
        <ele>148</ele>
        <time>2026-05-20T09:39:09+02:00</time>
      </trkpt>
      <trkpt lat="49.41646" lon="6.28396">
        <ele>147.90039</ele>
        <time>2026-05-20T09:39:10+02:00</time>
      </trkpt>
      <trkpt lat="49.41642" lon="6.2839">
        <ele>147.90039</ele>
        <time>2026-05-20T09:39:11+02:00</time>
      </trkpt>
      <trkpt lat="49.41638" lon="6.28384">
        <ele>148</ele>
        <time>2026-05-20T09:39:12+02:00</time>
      </trkpt>
      <trkpt lat="49.41634" lon="6.28379">
        <ele>147.90039</ele>
        <time>2026-05-20T09:39:13+02:00</time>
      </trkpt>
      <trkpt lat="49.41629" lon="6.28373">
        <ele>147.90039</ele>
        <time>2026-05-20T09:39:14+02:00</time>
      </trkpt>
      <trkpt lat="49.41625" lon="6.28368">
        <ele>148</ele>
        <time>2026-05-20T09:39:15+02:00</time>
      </trkpt>
      <trkpt lat="49.4162" lon="6.28363">
        <ele>148</ele>
        <time>2026-05-20T09:39:16+02:00</time>
      </trkpt>
      <trkpt lat="49.41616" lon="6.28357">
        <ele>148.10059</ele>
        <time>2026-05-20T09:39:17+02:00</time>
      </trkpt>
      <trkpt lat="49.41612" lon="6.28352">
        <ele>148.10059</ele>
        <time>2026-05-20T09:39:18+02:00</time>
      </trkpt>
      <trkpt lat="49.41607" lon="6.28347">
        <ele>148.2002</ele>
        <time>2026-05-20T09:39:19+02:00</time>
      </trkpt>
      <trkpt lat="49.41602" lon="6.28342">
        <ele>148.40039</ele>
        <time>2026-05-20T09:39:20+02:00</time>
      </trkpt>
      <trkpt lat="49.41598" lon="6.28337">
        <ele>148.5</ele>
        <time>2026-05-20T09:39:21+02:00</time>
      </trkpt>
      <trkpt lat="49.41594" lon="6.28332">
        <ele>148.40039</ele>
        <time>2026-05-20T09:39:22+02:00</time>
      </trkpt>
      <trkpt lat="49.41589" lon="6.28327">
        <ele>148.40039</ele>
        <time>2026-05-20T09:39:23+02:00</time>
      </trkpt>
      <trkpt lat="49.41585" lon="6.28322">
        <ele>148.40039</ele>
        <time>2026-05-20T09:39:24+02:00</time>
      </trkpt>
      <trkpt lat="49.4158" lon="6.28318">
        <ele>148.7002</ele>
        <time>2026-05-20T09:39:25+02:00</time>
      </trkpt>
      <trkpt lat="49.41575" lon="6.28313">
        <ele>149.10059</ele>
        <time>2026-05-20T09:39:26+02:00</time>
      </trkpt>
      <trkpt lat="49.4157" lon="6.28309">
        <ele>149.2998</ele>
        <time>2026-05-20T09:39:27+02:00</time>
      </trkpt>
      <trkpt lat="49.41565" lon="6.28305">
        <ele>149.40039</ele>
        <time>2026-05-20T09:39:28+02:00</time>
      </trkpt>
      <trkpt lat="49.41561" lon="6.28301">
        <ele>149.40039</ele>
        <time>2026-05-20T09:39:29+02:00</time>
      </trkpt>
      <trkpt lat="49.41556" lon="6.28297">
        <ele>149.40039</ele>
        <time>2026-05-20T09:39:30+02:00</time>
      </trkpt>
      <trkpt lat="49.41551" lon="6.28293">
        <ele>149.90039</ele>
        <time>2026-05-20T09:39:31+02:00</time>
      </trkpt>
      <trkpt lat="49.41546" lon="6.28289">
        <ele>150.5</ele>
        <time>2026-05-20T09:39:32+02:00</time>
      </trkpt>
      <trkpt lat="49.41541" lon="6.28285">
        <ele>150.7998</ele>
        <time>2026-05-20T09:39:33+02:00</time>
      </trkpt>
      <trkpt lat="49.41536" lon="6.28282">
        <ele>150.90039</ele>
        <time>2026-05-20T09:39:34+02:00</time>
      </trkpt>
      <trkpt lat="49.41532" lon="6.28278">
        <ele>150.7998</ele>
        <time>2026-05-20T09:39:35+02:00</time>
      </trkpt>
      <trkpt lat="49.41527" lon="6.28275">
        <ele>150.7002</ele>
        <time>2026-05-20T09:39:36+02:00</time>
      </trkpt>
      <trkpt lat="49.41522" lon="6.28271">
        <ele>150.2002</ele>
        <time>2026-05-20T09:39:37+02:00</time>
      </trkpt>
      <trkpt lat="49.41517" lon="6.28268">
        <ele>150.2998</ele>
        <time>2026-05-20T09:39:38+02:00</time>
      </trkpt>
      <trkpt lat="49.41512" lon="6.28265">
        <ele>150.5</ele>
        <time>2026-05-20T09:39:39+02:00</time>
      </trkpt>
      <trkpt lat="49.41507" lon="6.28262">
        <ele>150.60059</ele>
        <time>2026-05-20T09:39:40+02:00</time>
      </trkpt>
      <trkpt lat="49.41502" lon="6.2826">
        <ele>150.90039</ele>
        <time>2026-05-20T09:39:41+02:00</time>
      </trkpt>
      <trkpt lat="49.41497" lon="6.28257">
        <ele>151.10059</ele>
        <time>2026-05-20T09:39:42+02:00</time>
      </trkpt>
      <trkpt lat="49.41491" lon="6.28255">
        <ele>151.2002</ele>
        <time>2026-05-20T09:39:43+02:00</time>
      </trkpt>
      <trkpt lat="49.41486" lon="6.28253">
        <ele>151.10059</ele>
        <time>2026-05-20T09:39:44+02:00</time>
      </trkpt>
      <trkpt lat="49.41481" lon="6.28251">
        <ele>151</ele>
        <time>2026-05-20T09:39:45+02:00</time>
      </trkpt>
      <trkpt lat="49.41475" lon="6.28249">
        <ele>151</ele>
        <time>2026-05-20T09:39:46+02:00</time>
      </trkpt>
      <trkpt lat="49.4147" lon="6.28247">
        <ele>150.7998</ele>
        <time>2026-05-20T09:39:47+02:00</time>
      </trkpt>
      <trkpt lat="49.41465" lon="6.28245">
        <ele>150.7998</ele>
        <time>2026-05-20T09:39:48+02:00</time>
      </trkpt>
      <trkpt lat="49.41459" lon="6.28243">
        <ele>150.7998</ele>
        <time>2026-05-20T09:39:49+02:00</time>
      </trkpt>
      <trkpt lat="49.41454" lon="6.28241">
        <ele>150.7002</ele>
        <time>2026-05-20T09:39:50+02:00</time>
      </trkpt>
      <trkpt lat="49.41449" lon="6.2824">
        <ele>150.60059</ele>
        <time>2026-05-20T09:39:51+02:00</time>
      </trkpt>
      <trkpt lat="49.41443" lon="6.28238">
        <ele>150.5</ele>
        <time>2026-05-20T09:39:52+02:00</time>
      </trkpt>
      <trkpt lat="49.41438" lon="6.28237">
        <ele>150.60059</ele>
        <time>2026-05-20T09:39:53+02:00</time>
      </trkpt>
      <trkpt lat="49.41432" lon="6.28236">
        <ele>150.60059</ele>
        <time>2026-05-20T09:39:54+02:00</time>
      </trkpt>
      <trkpt lat="49.41427" lon="6.28235">
        <ele>150.60059</ele>
        <time>2026-05-20T09:39:55+02:00</time>
      </trkpt>
      <trkpt lat="49.41421" lon="6.28235">
        <ele>150.7002</ele>
        <time>2026-05-20T09:39:56+02:00</time>
      </trkpt>
      <trkpt lat="49.41415" lon="6.28234">
        <ele>150.60059</ele>
        <time>2026-05-20T09:39:57+02:00</time>
      </trkpt>
      <trkpt lat="49.41409" lon="6.28234">
        <ele>150.5</ele>
        <time>2026-05-20T09:39:58+02:00</time>
      </trkpt>
      <trkpt lat="49.41404" lon="6.28234">
        <ele>150.40039</ele>
        <time>2026-05-20T09:39:59+02:00</time>
      </trkpt>
      <trkpt lat="49.41398" lon="6.28234">
        <ele>150.2002</ele>
        <time>2026-05-20T09:40:00+02:00</time>
      </trkpt>
      <trkpt lat="49.41393" lon="6.28234">
        <ele>150</ele>
        <time>2026-05-20T09:40:01+02:00</time>
      </trkpt>
      <trkpt lat="49.41387" lon="6.28234">
        <ele>149.90039</ele>
        <time>2026-05-20T09:40:02+02:00</time>
      </trkpt>
      <trkpt lat="49.41381" lon="6.28235">
        <ele>149.7002</ele>
        <time>2026-05-20T09:40:03+02:00</time>
      </trkpt>
      <trkpt lat="49.41375" lon="6.28236">
        <ele>149.5</ele>
        <time>2026-05-20T09:40:04+02:00</time>
      </trkpt>
      <trkpt lat="49.4137" lon="6.28237">
        <ele>149.40039</ele>
        <time>2026-05-20T09:40:05+02:00</time>
      </trkpt>
      <trkpt lat="49.41364" lon="6.28238">
        <ele>149.2002</ele>
        <time>2026-05-20T09:40:06+02:00</time>
      </trkpt>
      <trkpt lat="49.41359" lon="6.28239">
        <ele>149.2998</ele>
        <time>2026-05-20T09:40:07+02:00</time>
      </trkpt>
      <trkpt lat="49.41353" lon="6.2824">
        <ele>149.2998</ele>
        <time>2026-05-20T09:40:08+02:00</time>
      </trkpt>
      <trkpt lat="49.41348" lon="6.28242">
        <ele>149.40039</ele>
        <time>2026-05-20T09:40:09+02:00</time>
      </trkpt>
      <trkpt lat="49.41343" lon="6.28243">
        <ele>149.5</ele>
        <time>2026-05-20T09:40:10+02:00</time>
      </trkpt>
      <trkpt lat="49.41338" lon="6.28245">
        <ele>149.5</ele>
        <time>2026-05-20T09:40:11+02:00</time>
      </trkpt>
      <trkpt lat="49.41333" lon="6.28246">
        <ele>149.60059</ele>
        <time>2026-05-20T09:40:12+02:00</time>
      </trkpt>
      <trkpt lat="49.41327" lon="6.28248">
        <ele>149.7002</ele>
        <time>2026-05-20T09:40:13+02:00</time>
      </trkpt>
      <trkpt lat="49.41322" lon="6.28249">
        <ele>149.90039</ele>
        <time>2026-05-20T09:40:14+02:00</time>
      </trkpt>
      <trkpt lat="49.41317" lon="6.28251">
        <ele>150.10059</ele>
        <time>2026-05-20T09:40:15+02:00</time>
      </trkpt>
      <trkpt lat="49.41312" lon="6.28253">
        <ele>150.2998</ele>
        <time>2026-05-20T09:40:16+02:00</time>
      </trkpt>
      <trkpt lat="49.41307" lon="6.28255">
        <ele>150.2998</ele>
        <time>2026-05-20T09:40:17+02:00</time>
      </trkpt>
      <trkpt lat="49.41302" lon="6.28257">
        <ele>150.5</ele>
        <time>2026-05-20T09:40:18+02:00</time>
      </trkpt>
      <trkpt lat="49.41297" lon="6.28259">
        <ele>150.40039</ele>
        <time>2026-05-20T09:40:19+02:00</time>
      </trkpt>
      <trkpt lat="49.41291" lon="6.28261">
        <ele>150</ele>
        <time>2026-05-20T09:40:20+02:00</time>
      </trkpt>
      <trkpt lat="49.41285" lon="6.28264">
        <ele>149.40039</ele>
        <time>2026-05-20T09:40:21+02:00</time>
      </trkpt>
      <trkpt lat="49.4128" lon="6.28266">
        <ele>149</ele>
        <time>2026-05-20T09:40:22+02:00</time>
      </trkpt>
      <trkpt lat="49.41275" lon="6.28269">
        <ele>148.60059</ele>
        <time>2026-05-20T09:40:23+02:00</time>
      </trkpt>
      <trkpt lat="49.41269" lon="6.28271">
        <ele>148.2002</ele>
        <time>2026-05-20T09:40:24+02:00</time>
      </trkpt>
      <trkpt lat="49.41264" lon="6.28274">
        <ele>148.2002</ele>
        <time>2026-05-20T09:40:25+02:00</time>
      </trkpt>
      <trkpt lat="49.41259" lon="6.28276">
        <ele>147.90039</ele>
        <time>2026-05-20T09:40:26+02:00</time>
      </trkpt>
      <trkpt lat="49.41253" lon="6.28279">
        <ele>147.7002</ele>
        <time>2026-05-20T09:40:27+02:00</time>
      </trkpt>
      <trkpt lat="49.41248" lon="6.28281">
        <ele>147.7002</ele>
        <time>2026-05-20T09:40:28+02:00</time>
      </trkpt>
      <trkpt lat="49.41243" lon="6.28283">
        <ele>147.7002</ele>
        <time>2026-05-20T09:40:29+02:00</time>
      </trkpt>
      <trkpt lat="49.41237" lon="6.28286">
        <ele>147.7002</ele>
        <time>2026-05-20T09:40:30+02:00</time>
      </trkpt>
      <trkpt lat="49.41232" lon="6.28288">
        <ele>147.7002</ele>
        <time>2026-05-20T09:40:31+02:00</time>
      </trkpt>
      <trkpt lat="49.41226" lon="6.28291">
        <ele>147.7002</ele>
        <time>2026-05-20T09:40:32+02:00</time>
      </trkpt>
      <trkpt lat="49.41221" lon="6.28293">
        <ele>147.7002</ele>
        <time>2026-05-20T09:40:33+02:00</time>
      </trkpt>
      <trkpt lat="49.41216" lon="6.28296">
        <ele>147.7002</ele>
        <time>2026-05-20T09:40:34+02:00</time>
      </trkpt>
      <trkpt lat="49.4121" lon="6.28298">
        <ele>147.60059</ele>
        <time>2026-05-20T09:40:35+02:00</time>
      </trkpt>
      <trkpt lat="49.41205" lon="6.283">
        <ele>147.5</ele>
        <time>2026-05-20T09:40:36+02:00</time>
      </trkpt>
      <trkpt lat="49.412" lon="6.28303">
        <ele>147.40039</ele>
        <time>2026-05-20T09:40:37+02:00</time>
      </trkpt>
      <trkpt lat="49.41195" lon="6.28305">
        <ele>147.2998</ele>
        <time>2026-05-20T09:40:38+02:00</time>
      </trkpt>
      <trkpt lat="49.4119" lon="6.28307">
        <ele>147.10059</ele>
        <time>2026-05-20T09:40:39+02:00</time>
      </trkpt>
      <trkpt lat="49.41185" lon="6.28309">
        <ele>147</ele>
        <time>2026-05-20T09:40:40+02:00</time>
      </trkpt>
      <trkpt lat="49.4118" lon="6.28312">
        <ele>146.90039</ele>
        <time>2026-05-20T09:40:41+02:00</time>
      </trkpt>
      <trkpt lat="49.41175" lon="6.28314">
        <ele>146.7998</ele>
        <time>2026-05-20T09:40:42+02:00</time>
      </trkpt>
      <trkpt lat="49.4117" lon="6.28317">
        <ele>146.7002</ele>
        <time>2026-05-20T09:40:43+02:00</time>
      </trkpt>
      <trkpt lat="49.41165" lon="6.28319">
        <ele>146.7002</ele>
        <time>2026-05-20T09:40:44+02:00</time>
      </trkpt>
      <trkpt lat="49.41159" lon="6.28321">
        <ele>146.60059</ele>
        <time>2026-05-20T09:40:45+02:00</time>
      </trkpt>
      <trkpt lat="49.41154" lon="6.28324">
        <ele>146.5</ele>
        <time>2026-05-20T09:40:46+02:00</time>
      </trkpt>
      <trkpt lat="49.41149" lon="6.28326">
        <ele>146.40039</ele>
        <time>2026-05-20T09:40:47+02:00</time>
      </trkpt>
      <trkpt lat="49.41144" lon="6.28328">
        <ele>146.2998</ele>
        <time>2026-05-20T09:40:48+02:00</time>
      </trkpt>
      <trkpt lat="49.41139" lon="6.28331">
        <ele>146.2998</ele>
        <time>2026-05-20T09:40:49+02:00</time>
      </trkpt>
      <trkpt lat="49.41133" lon="6.28333">
        <ele>146.10059</ele>
        <time>2026-05-20T09:40:50+02:00</time>
      </trkpt>
      <trkpt lat="49.41128" lon="6.28335">
        <ele>146.10059</ele>
        <time>2026-05-20T09:40:51+02:00</time>
      </trkpt>
      <trkpt lat="49.41123" lon="6.28337">
        <ele>146.10059</ele>
        <time>2026-05-20T09:40:52+02:00</time>
      </trkpt>
      <trkpt lat="49.41117" lon="6.2834">
        <ele>146</ele>
        <time>2026-05-20T09:40:53+02:00</time>
      </trkpt>
      <trkpt lat="49.41112" lon="6.28342">
        <ele>146</ele>
        <time>2026-05-20T09:40:54+02:00</time>
      </trkpt>
      <trkpt lat="49.41106" lon="6.28345">
        <ele>146</ele>
        <time>2026-05-20T09:40:55+02:00</time>
      </trkpt>
      <trkpt lat="49.41101" lon="6.28347">
        <ele>146</ele>
        <time>2026-05-20T09:40:56+02:00</time>
      </trkpt>
      <trkpt lat="49.41095" lon="6.28349">
        <ele>146</ele>
        <time>2026-05-20T09:40:57+02:00</time>
      </trkpt>
      <trkpt lat="49.4109" lon="6.28352">
        <ele>145.90039</ele>
        <time>2026-05-20T09:40:58+02:00</time>
      </trkpt>
      <trkpt lat="49.41085" lon="6.28354">
        <ele>146</ele>
        <time>2026-05-20T09:40:59+02:00</time>
      </trkpt>
      <trkpt lat="49.41079" lon="6.28357">
        <ele>146</ele>
        <time>2026-05-20T09:41:00+02:00</time>
      </trkpt>
      <trkpt lat="49.41075" lon="6.28359">
        <ele>145.90039</ele>
        <time>2026-05-20T09:41:01+02:00</time>
      </trkpt>
      <trkpt lat="49.4107" lon="6.28361">
        <ele>145.90039</ele>
        <time>2026-05-20T09:41:02+02:00</time>
      </trkpt>
      <trkpt lat="49.41065" lon="6.28364">
        <ele>145.90039</ele>
        <time>2026-05-20T09:41:03+02:00</time>
      </trkpt>
      <trkpt lat="49.4106" lon="6.28366">
        <ele>145.90039</ele>
        <time>2026-05-20T09:41:04+02:00</time>
      </trkpt>
      <trkpt lat="49.41056" lon="6.28368">
        <ele>145.90039</ele>
        <time>2026-05-20T09:41:05+02:00</time>
      </trkpt>
      <trkpt lat="49.41052" lon="6.2837">
        <ele>146</ele>
        <time>2026-05-20T09:41:06+02:00</time>
      </trkpt>
      <trkpt lat="49.41048" lon="6.28372">
        <ele>146</ele>
        <time>2026-05-20T09:41:07+02:00</time>
      </trkpt>
      <trkpt lat="49.41044" lon="6.28374">
        <ele>146.10059</ele>
        <time>2026-05-20T09:41:08+02:00</time>
      </trkpt>
      <trkpt lat="49.4104" lon="6.28376">
        <ele>146.2998</ele>
        <time>2026-05-20T09:41:09+02:00</time>
      </trkpt>
      <trkpt lat="49.41036" lon="6.28378">
        <ele>146.40039</ele>
        <time>2026-05-20T09:41:10+02:00</time>
      </trkpt>
      <trkpt lat="49.41031" lon="6.28381">
        <ele>146.40039</ele>
        <time>2026-05-20T09:41:11+02:00</time>
      </trkpt>
      <trkpt lat="49.41027" lon="6.28383">
        <ele>146.5</ele>
        <time>2026-05-20T09:41:12+02:00</time>
      </trkpt>
      <trkpt lat="49.41023" lon="6.28385">
        <ele>146.7002</ele>
        <time>2026-05-20T09:41:13+02:00</time>
      </trkpt>
      <trkpt lat="49.41018" lon="6.28387">
        <ele>146.90039</ele>
        <time>2026-05-20T09:41:14+02:00</time>
      </trkpt>
      <trkpt lat="49.41013" lon="6.28389">
        <ele>146.90039</ele>
        <time>2026-05-20T09:41:15+02:00</time>
      </trkpt>
      <trkpt lat="49.41009" lon="6.28391">
        <ele>146.90039</ele>
        <time>2026-05-20T09:41:16+02:00</time>
      </trkpt>
      <trkpt lat="49.41004" lon="6.28394">
        <ele>147</ele>
        <time>2026-05-20T09:41:17+02:00</time>
      </trkpt>
      <trkpt lat="49.40999" lon="6.28396">
        <ele>146.90039</ele>
        <time>2026-05-20T09:41:18+02:00</time>
      </trkpt>
      <trkpt lat="49.40994" lon="6.28398">
        <ele>146.7998</ele>
        <time>2026-05-20T09:41:19+02:00</time>
      </trkpt>
      <trkpt lat="49.40989" lon="6.28401">
        <ele>146.90039</ele>
        <time>2026-05-20T09:41:20+02:00</time>
      </trkpt>
      <trkpt lat="49.40984" lon="6.28403">
        <ele>146.90039</ele>
        <time>2026-05-20T09:41:21+02:00</time>
      </trkpt>
      <trkpt lat="49.40979" lon="6.28406">
        <ele>146.7998</ele>
        <time>2026-05-20T09:41:22+02:00</time>
      </trkpt>
      <trkpt lat="49.40973" lon="6.28409">
        <ele>146.7002</ele>
        <time>2026-05-20T09:41:23+02:00</time>
      </trkpt>
      <trkpt lat="49.40968" lon="6.28411">
        <ele>146.7998</ele>
        <time>2026-05-20T09:41:24+02:00</time>
      </trkpt>
      <trkpt lat="49.40963" lon="6.28414">
        <ele>146.60059</ele>
        <time>2026-05-20T09:41:25+02:00</time>
      </trkpt>
      <trkpt lat="49.40958" lon="6.28417">
        <ele>146.60059</ele>
        <time>2026-05-20T09:41:26+02:00</time>
      </trkpt>
      <trkpt lat="49.40953" lon="6.28419">
        <ele>146.5</ele>
        <time>2026-05-20T09:41:27+02:00</time>
      </trkpt>
      <trkpt lat="49.40948" lon="6.28422">
        <ele>146.2998</ele>
        <time>2026-05-20T09:41:28+02:00</time>
      </trkpt>
      <trkpt lat="49.40943" lon="6.28426">
        <ele>146.2002</ele>
        <time>2026-05-20T09:41:29+02:00</time>
      </trkpt>
      <trkpt lat="49.40938" lon="6.2843">
        <ele>146.2002</ele>
        <time>2026-05-20T09:41:30+02:00</time>
      </trkpt>
      <trkpt lat="49.40933" lon="6.28433">
        <ele>146.10059</ele>
        <time>2026-05-20T09:41:31+02:00</time>
      </trkpt>
      <trkpt lat="49.40929" lon="6.28436">
        <ele>146.2002</ele>
        <time>2026-05-20T09:41:32+02:00</time>
      </trkpt>
      <trkpt lat="49.40924" lon="6.28439">
        <ele>146.10059</ele>
        <time>2026-05-20T09:41:33+02:00</time>
      </trkpt>
      <trkpt lat="49.4092" lon="6.28442">
        <ele>146.10059</ele>
        <time>2026-05-20T09:41:34+02:00</time>
      </trkpt>
      <trkpt lat="49.40916" lon="6.28446">
        <ele>146.10059</ele>
        <time>2026-05-20T09:41:35+02:00</time>
      </trkpt>
      <trkpt lat="49.40912" lon="6.2845">
        <ele>146</ele>
        <time>2026-05-20T09:41:36+02:00</time>
      </trkpt>
      <trkpt lat="49.40909" lon="6.28454">
        <ele>146.10059</ele>
        <time>2026-05-20T09:41:37+02:00</time>
      </trkpt>
      <trkpt lat="49.40906" lon="6.28456">
        <ele>146</ele>
        <time>2026-05-20T09:41:38+02:00</time>
      </trkpt>
      <trkpt lat="49.40902" lon="6.28459">
        <ele>146</ele>
        <time>2026-05-20T09:41:39+02:00</time>
      </trkpt>
      <trkpt lat="49.40899" lon="6.28462">
        <ele>146</ele>
        <time>2026-05-20T09:41:40+02:00</time>
      </trkpt>
      <trkpt lat="49.40895" lon="6.28465">
        <ele>146</ele>
        <time>2026-05-20T09:41:41+02:00</time>
      </trkpt>
      <trkpt lat="49.40891" lon="6.28468">
        <ele>146</ele>
        <time>2026-05-20T09:41:42+02:00</time>
      </trkpt>
      <trkpt lat="49.40887" lon="6.28471">
        <ele>146.10059</ele>
        <time>2026-05-20T09:41:43+02:00</time>
      </trkpt>
      <trkpt lat="49.40882" lon="6.28475">
        <ele>146.10059</ele>
        <time>2026-05-20T09:41:44+02:00</time>
      </trkpt>
      <trkpt lat="49.40878" lon="6.28478">
        <ele>146.10059</ele>
        <time>2026-05-20T09:41:45+02:00</time>
      </trkpt>
      <trkpt lat="49.40873" lon="6.28481">
        <ele>146.2002</ele>
        <time>2026-05-20T09:41:46+02:00</time>
      </trkpt>
      <trkpt lat="49.40868" lon="6.28483">
        <ele>146.2002</ele>
        <time>2026-05-20T09:41:47+02:00</time>
      </trkpt>
      <trkpt lat="49.40863" lon="6.28486">
        <ele>146.2002</ele>
        <time>2026-05-20T09:41:48+02:00</time>
      </trkpt>
      <trkpt lat="49.40858" lon="6.28489">
        <ele>146.2002</ele>
        <time>2026-05-20T09:41:49+02:00</time>
      </trkpt>
      <trkpt lat="49.40853" lon="6.28491">
        <ele>146.2002</ele>
        <time>2026-05-20T09:41:50+02:00</time>
      </trkpt>
      <trkpt lat="49.40848" lon="6.28494">
        <ele>146.2002</ele>
        <time>2026-05-20T09:41:51+02:00</time>
      </trkpt>
      <trkpt lat="49.40843" lon="6.28496">
        <ele>146.2002</ele>
        <time>2026-05-20T09:41:52+02:00</time>
      </trkpt>
      <trkpt lat="49.40838" lon="6.28498">
        <ele>146.2002</ele>
        <time>2026-05-20T09:41:53+02:00</time>
      </trkpt>
      <trkpt lat="49.40832" lon="6.285">
        <ele>146.10059</ele>
        <time>2026-05-20T09:41:54+02:00</time>
      </trkpt>
      <trkpt lat="49.40827" lon="6.28502">
        <ele>146.10059</ele>
        <time>2026-05-20T09:41:55+02:00</time>
      </trkpt>
      <trkpt lat="49.40822" lon="6.28504">
        <ele>146.2002</ele>
        <time>2026-05-20T09:41:56+02:00</time>
      </trkpt>
      <trkpt lat="49.40816" lon="6.28505">
        <ele>146.2002</ele>
        <time>2026-05-20T09:41:57+02:00</time>
      </trkpt>
      <trkpt lat="49.40811" lon="6.28507">
        <ele>146.2002</ele>
        <time>2026-05-20T09:41:58+02:00</time>
      </trkpt>
      <trkpt lat="49.40805" lon="6.28508">
        <ele>146.10059</ele>
        <time>2026-05-20T09:41:59+02:00</time>
      </trkpt>
      <trkpt lat="49.40799" lon="6.28508">
        <ele>146.10059</ele>
        <time>2026-05-20T09:42:00+02:00</time>
      </trkpt>
      <trkpt lat="49.40794" lon="6.28509">
        <ele>146.10059</ele>
        <time>2026-05-20T09:42:01+02:00</time>
      </trkpt>
      <trkpt lat="49.40788" lon="6.28509">
        <ele>146.10059</ele>
        <time>2026-05-20T09:42:02+02:00</time>
      </trkpt>
      <trkpt lat="49.40783" lon="6.28509">
        <ele>146.10059</ele>
        <time>2026-05-20T09:42:03+02:00</time>
      </trkpt>
      <trkpt lat="49.40777" lon="6.28509">
        <ele>146</ele>
        <time>2026-05-20T09:42:04+02:00</time>
      </trkpt>
      <trkpt lat="49.40771" lon="6.28509">
        <ele>146</ele>
        <time>2026-05-20T09:42:05+02:00</time>
      </trkpt>
      <trkpt lat="49.40766" lon="6.28509">
        <ele>146</ele>
        <time>2026-05-20T09:42:06+02:00</time>
      </trkpt>
      <trkpt lat="49.4076" lon="6.28509">
        <ele>146</ele>
        <time>2026-05-20T09:42:07+02:00</time>
      </trkpt>
      <trkpt lat="49.40755" lon="6.28508">
        <ele>146</ele>
        <time>2026-05-20T09:42:08+02:00</time>
      </trkpt>
      <trkpt lat="49.40749" lon="6.28508">
        <ele>146</ele>
        <time>2026-05-20T09:42:09+02:00</time>
      </trkpt>
      <trkpt lat="49.40743" lon="6.28508">
        <ele>146</ele>
        <time>2026-05-20T09:42:10+02:00</time>
      </trkpt>
      <trkpt lat="49.40738" lon="6.28508">
        <ele>146</ele>
        <time>2026-05-20T09:42:11+02:00</time>
      </trkpt>
      <trkpt lat="49.40733" lon="6.28508">
        <ele>146.10059</ele>
        <time>2026-05-20T09:42:12+02:00</time>
      </trkpt>
      <trkpt lat="49.40727" lon="6.28508">
        <ele>146.10059</ele>
        <time>2026-05-20T09:42:13+02:00</time>
      </trkpt>
      <trkpt lat="49.40722" lon="6.28508">
        <ele>146.2002</ele>
        <time>2026-05-20T09:42:14+02:00</time>
      </trkpt>
      <trkpt lat="49.40716" lon="6.28508">
        <ele>146.40039</ele>
        <time>2026-05-20T09:42:15+02:00</time>
      </trkpt>
      <trkpt lat="49.40711" lon="6.28508">
        <ele>146.60059</ele>
        <time>2026-05-20T09:42:16+02:00</time>
      </trkpt>
      <trkpt lat="49.40705" lon="6.28508">
        <ele>146.7002</ele>
        <time>2026-05-20T09:42:17+02:00</time>
      </trkpt>
      <trkpt lat="49.407" lon="6.28507">
        <ele>146.90039</ele>
        <time>2026-05-20T09:42:18+02:00</time>
      </trkpt>
      <trkpt lat="49.40694" lon="6.28507">
        <ele>147</ele>
        <time>2026-05-20T09:42:19+02:00</time>
      </trkpt>
      <trkpt lat="49.40689" lon="6.28507">
        <ele>147.10059</ele>
        <time>2026-05-20T09:42:20+02:00</time>
      </trkpt>
      <trkpt lat="49.40683" lon="6.28506">
        <ele>147.2002</ele>
        <time>2026-05-20T09:42:21+02:00</time>
      </trkpt>
      <trkpt lat="49.40678" lon="6.28505">
        <ele>147.2998</ele>
        <time>2026-05-20T09:42:22+02:00</time>
      </trkpt>
      <trkpt lat="49.40672" lon="6.28504">
        <ele>147.40039</ele>
        <time>2026-05-20T09:42:23+02:00</time>
      </trkpt>
      <trkpt lat="49.40667" lon="6.28503">
        <ele>147.2998</ele>
        <time>2026-05-20T09:42:24+02:00</time>
      </trkpt>
      <trkpt lat="49.40661" lon="6.28502">
        <ele>147.5</ele>
        <time>2026-05-20T09:42:25+02:00</time>
      </trkpt>
      <trkpt lat="49.40656" lon="6.285">
        <ele>147.60059</ele>
        <time>2026-05-20T09:42:26+02:00</time>
      </trkpt>
      <trkpt lat="49.4065" lon="6.28499">
        <ele>147.7002</ele>
        <time>2026-05-20T09:42:27+02:00</time>
      </trkpt>
      <trkpt lat="49.40645" lon="6.28497">
        <ele>147.7998</ele>
        <time>2026-05-20T09:42:28+02:00</time>
      </trkpt>
      <trkpt lat="49.40639" lon="6.28495">
        <ele>147.7998</ele>
        <time>2026-05-20T09:42:29+02:00</time>
      </trkpt>
      <trkpt lat="49.40634" lon="6.28493">
        <ele>147.7998</ele>
        <time>2026-05-20T09:42:30+02:00</time>
      </trkpt>
      <trkpt lat="49.40629" lon="6.28491">
        <ele>147.90039</ele>
        <time>2026-05-20T09:42:31+02:00</time>
      </trkpt>
      <trkpt lat="49.40623" lon="6.28488">
        <ele>148</ele>
        <time>2026-05-20T09:42:32+02:00</time>
      </trkpt>
      <trkpt lat="49.40618" lon="6.28486">
        <ele>148</ele>
        <time>2026-05-20T09:42:33+02:00</time>
      </trkpt>
      <trkpt lat="49.40613" lon="6.28483">
        <ele>148.10059</ele>
        <time>2026-05-20T09:42:34+02:00</time>
      </trkpt>
      <trkpt lat="49.40608" lon="6.2848">
        <ele>148.2002</ele>
        <time>2026-05-20T09:42:35+02:00</time>
      </trkpt>
      <trkpt lat="49.40602" lon="6.28476">
        <ele>148.10059</ele>
        <time>2026-05-20T09:42:36+02:00</time>
      </trkpt>
      <trkpt lat="49.40597" lon="6.28473">
        <ele>148.2998</ele>
        <time>2026-05-20T09:42:37+02:00</time>
      </trkpt>
      <trkpt lat="49.40592" lon="6.2847">
        <ele>148.5</ele>
        <time>2026-05-20T09:42:38+02:00</time>
      </trkpt>
      <trkpt lat="49.40587" lon="6.28467">
        <ele>148.7002</ele>
        <time>2026-05-20T09:42:39+02:00</time>
      </trkpt>
      <trkpt lat="49.40581" lon="6.28464">
        <ele>148.7998</ele>
        <time>2026-05-20T09:42:40+02:00</time>
      </trkpt>
      <trkpt lat="49.40576" lon="6.28461">
        <ele>148.90039</ele>
        <time>2026-05-20T09:42:41+02:00</time>
      </trkpt>
      <trkpt lat="49.40571" lon="6.28458">
        <ele>148.7998</ele>
        <time>2026-05-20T09:42:42+02:00</time>
      </trkpt>
      <trkpt lat="49.40566" lon="6.28454">
        <ele>148.7998</ele>
        <time>2026-05-20T09:42:43+02:00</time>
      </trkpt>
      <trkpt lat="49.40561" lon="6.28451">
        <ele>148.5</ele>
        <time>2026-05-20T09:42:44+02:00</time>
      </trkpt>
      <trkpt lat="49.40556" lon="6.28448">
        <ele>148.5</ele>
        <time>2026-05-20T09:42:45+02:00</time>
      </trkpt>
      <trkpt lat="49.40551" lon="6.28444">
        <ele>148.5</ele>
        <time>2026-05-20T09:42:46+02:00</time>
      </trkpt>
      <trkpt lat="49.40547" lon="6.28441">
        <ele>148</ele>
        <time>2026-05-20T09:42:47+02:00</time>
      </trkpt>
      <trkpt lat="49.40542" lon="6.28438">
        <ele>148.10059</ele>
        <time>2026-05-20T09:42:48+02:00</time>
      </trkpt>
      <trkpt lat="49.40537" lon="6.28434">
        <ele>147.7002</ele>
        <time>2026-05-20T09:42:49+02:00</time>
      </trkpt>
      <trkpt lat="49.40532" lon="6.2843">
        <ele>147.7002</ele>
        <time>2026-05-20T09:42:50+02:00</time>
      </trkpt>
      <trkpt lat="49.40527" lon="6.28426">
        <ele>147.40039</ele>
        <time>2026-05-20T09:42:51+02:00</time>
      </trkpt>
      <trkpt lat="49.40522" lon="6.28422">
        <ele>147.2998</ele>
        <time>2026-05-20T09:42:52+02:00</time>
      </trkpt>
      <trkpt lat="49.40518" lon="6.28418">
        <ele>147.2998</ele>
        <time>2026-05-20T09:42:53+02:00</time>
      </trkpt>
      <trkpt lat="49.40513" lon="6.28414">
        <ele>147.10059</ele>
        <time>2026-05-20T09:42:54+02:00</time>
      </trkpt>
      <trkpt lat="49.40508" lon="6.2841">
        <ele>146.90039</ele>
        <time>2026-05-20T09:42:55+02:00</time>
      </trkpt>
      <trkpt lat="49.40504" lon="6.28405">
        <ele>146.7998</ele>
        <time>2026-05-20T09:42:56+02:00</time>
      </trkpt>
      <trkpt lat="49.40499" lon="6.28401">
        <ele>146.60059</ele>
        <time>2026-05-20T09:42:57+02:00</time>
      </trkpt>
      <trkpt lat="49.40495" lon="6.28396">
        <ele>146.90039</ele>
        <time>2026-05-20T09:42:58+02:00</time>
      </trkpt>
      <trkpt lat="49.4049" lon="6.28391">
        <ele>146.90039</ele>
        <time>2026-05-20T09:42:59+02:00</time>
      </trkpt>
      <trkpt lat="49.40486" lon="6.28386">
        <ele>146.60059</ele>
        <time>2026-05-20T09:43:00+02:00</time>
      </trkpt>
      <trkpt lat="49.40481" lon="6.28381">
        <ele>146.60059</ele>
        <time>2026-05-20T09:43:01+02:00</time>
      </trkpt>
      <trkpt lat="49.40476" lon="6.28376">
        <ele>146.40039</ele>
        <time>2026-05-20T09:43:02+02:00</time>
      </trkpt>
      <trkpt lat="49.40472" lon="6.28371">
        <ele>146.7002</ele>
        <time>2026-05-20T09:43:03+02:00</time>
      </trkpt>
      <trkpt lat="49.40468" lon="6.28366">
        <ele>146.7998</ele>
        <time>2026-05-20T09:43:04+02:00</time>
      </trkpt>
      <trkpt lat="49.40463" lon="6.2836">
        <ele>146.60059</ele>
        <time>2026-05-20T09:43:05+02:00</time>
      </trkpt>
      <trkpt lat="49.40458" lon="6.28355">
        <ele>146.40039</ele>
        <time>2026-05-20T09:43:06+02:00</time>
      </trkpt>
      <trkpt lat="49.40454" lon="6.28349">
        <ele>146.5</ele>
        <time>2026-05-20T09:43:07+02:00</time>
      </trkpt>
      <trkpt lat="49.4045" lon="6.28344">
        <ele>146.5</ele>
        <time>2026-05-20T09:43:08+02:00</time>
      </trkpt>
      <trkpt lat="49.40445" lon="6.28339">
        <ele>146.60059</ele>
        <time>2026-05-20T09:43:09+02:00</time>
      </trkpt>
      <trkpt lat="49.40441" lon="6.28333">
        <ele>146.5</ele>
        <time>2026-05-20T09:43:10+02:00</time>
      </trkpt>
      <trkpt lat="49.40436" lon="6.28328">
        <ele>146.40039</ele>
        <time>2026-05-20T09:43:11+02:00</time>
      </trkpt>
      <trkpt lat="49.40432" lon="6.28323">
        <ele>146.2998</ele>
        <time>2026-05-20T09:43:12+02:00</time>
      </trkpt>
      <trkpt lat="49.40427" lon="6.28317">
        <ele>146.10059</ele>
        <time>2026-05-20T09:43:13+02:00</time>
      </trkpt>
      <trkpt lat="49.40423" lon="6.28312">
        <ele>146.40039</ele>
        <time>2026-05-20T09:43:14+02:00</time>
      </trkpt>
      <trkpt lat="49.40418" lon="6.28307">
        <ele>146.2998</ele>
        <time>2026-05-20T09:43:15+02:00</time>
      </trkpt>
      <trkpt lat="49.40413" lon="6.28301">
        <ele>146.2998</ele>
        <time>2026-05-20T09:43:16+02:00</time>
      </trkpt>
      <trkpt lat="49.40409" lon="6.28296">
        <ele>146.2002</ele>
        <time>2026-05-20T09:43:17+02:00</time>
      </trkpt>
      <trkpt lat="49.40404" lon="6.28291">
        <ele>146</ele>
        <time>2026-05-20T09:43:18+02:00</time>
      </trkpt>
      <trkpt lat="49.404" lon="6.28286">
        <ele>146.10059</ele>
        <time>2026-05-20T09:43:19+02:00</time>
      </trkpt>
      <trkpt lat="49.40395" lon="6.28281">
        <ele>146</ele>
        <time>2026-05-20T09:43:20+02:00</time>
      </trkpt>
      <trkpt lat="49.40391" lon="6.28275">
        <ele>146.2002</ele>
        <time>2026-05-20T09:43:21+02:00</time>
      </trkpt>
      <trkpt lat="49.40386" lon="6.2827">
        <ele>146.10059</ele>
        <time>2026-05-20T09:43:22+02:00</time>
      </trkpt>
      <trkpt lat="49.40382" lon="6.28265">
        <ele>145.90039</ele>
        <time>2026-05-20T09:43:23+02:00</time>
      </trkpt>
      <trkpt lat="49.40377" lon="6.28259">
        <ele>146</ele>
        <time>2026-05-20T09:43:24+02:00</time>
      </trkpt>
      <trkpt lat="49.40373" lon="6.28254">
        <ele>146.10059</ele>
        <time>2026-05-20T09:43:25+02:00</time>
      </trkpt>
      <trkpt lat="49.40368" lon="6.28249">
        <ele>146</ele>
        <time>2026-05-20T09:43:26+02:00</time>
      </trkpt>
      <trkpt lat="49.40364" lon="6.28243">
        <ele>146.10059</ele>
        <time>2026-05-20T09:43:27+02:00</time>
      </trkpt>
      <trkpt lat="49.4036" lon="6.28238">
        <ele>145.90039</ele>
        <time>2026-05-20T09:43:28+02:00</time>
      </trkpt>
      <trkpt lat="49.40355" lon="6.28232">
        <ele>146</ele>
        <time>2026-05-20T09:43:29+02:00</time>
      </trkpt>
      <trkpt lat="49.40351" lon="6.28226">
        <ele>146</ele>
        <time>2026-05-20T09:43:30+02:00</time>
      </trkpt>
      <trkpt lat="49.40346" lon="6.28221">
        <ele>145.90039</ele>
        <time>2026-05-20T09:43:31+02:00</time>
      </trkpt>
      <trkpt lat="49.40342" lon="6.28215">
        <ele>146</ele>
        <time>2026-05-20T09:43:32+02:00</time>
      </trkpt>
      <trkpt lat="49.40338" lon="6.28209">
        <ele>146.2002</ele>
        <time>2026-05-20T09:43:33+02:00</time>
      </trkpt>
      <trkpt lat="49.40333" lon="6.28203">
        <ele>146.10059</ele>
        <time>2026-05-20T09:43:34+02:00</time>
      </trkpt>
      <trkpt lat="49.40329" lon="6.28198">
        <ele>145.90039</ele>
        <time>2026-05-20T09:43:35+02:00</time>
      </trkpt>
      <trkpt lat="49.40325" lon="6.28192">
        <ele>146</ele>
        <time>2026-05-20T09:43:36+02:00</time>
      </trkpt>
      <trkpt lat="49.40321" lon="6.28186">
        <ele>146.2002</ele>
        <time>2026-05-20T09:43:37+02:00</time>
      </trkpt>
      <trkpt lat="49.40317" lon="6.2818">
        <ele>146.2002</ele>
        <time>2026-05-20T09:43:38+02:00</time>
      </trkpt>
      <trkpt lat="49.40313" lon="6.28174">
        <ele>146.10059</ele>
        <time>2026-05-20T09:43:39+02:00</time>
      </trkpt>
      <trkpt lat="49.40309" lon="6.28168">
        <ele>146</ele>
        <time>2026-05-20T09:43:40+02:00</time>
      </trkpt>
      <trkpt lat="49.40305" lon="6.28162">
        <ele>146</ele>
        <time>2026-05-20T09:43:41+02:00</time>
      </trkpt>
      <trkpt lat="49.40302" lon="6.28156">
        <ele>146.10059</ele>
        <time>2026-05-20T09:43:42+02:00</time>
      </trkpt>
      <trkpt lat="49.40297" lon="6.2815">
        <ele>146.2998</ele>
        <time>2026-05-20T09:43:43+02:00</time>
      </trkpt>
      <trkpt lat="49.40294" lon="6.28144">
        <ele>146.2998</ele>
        <time>2026-05-20T09:43:44+02:00</time>
      </trkpt>
      <trkpt lat="49.4029" lon="6.28138">
        <ele>146.2998</ele>
        <time>2026-05-20T09:43:45+02:00</time>
      </trkpt>
      <trkpt lat="49.40286" lon="6.28131">
        <ele>146.10059</ele>
        <time>2026-05-20T09:43:46+02:00</time>
      </trkpt>
      <trkpt lat="49.40282" lon="6.28125">
        <ele>146.40039</ele>
        <time>2026-05-20T09:43:47+02:00</time>
      </trkpt>
      <trkpt lat="49.40278" lon="6.28119">
        <ele>146.2998</ele>
        <time>2026-05-20T09:43:48+02:00</time>
      </trkpt>
      <trkpt lat="49.40275" lon="6.28113">
        <ele>147.10059</ele>
        <time>2026-05-20T09:43:49+02:00</time>
      </trkpt>
      <trkpt lat="49.40271" lon="6.28107">
        <ele>147.7998</ele>
        <time>2026-05-20T09:43:50+02:00</time>
      </trkpt>
      <trkpt lat="49.40267" lon="6.28101">
        <ele>148</ele>
        <time>2026-05-20T09:43:51+02:00</time>
      </trkpt>
      <trkpt lat="49.40263" lon="6.28094">
        <ele>148.7002</ele>
        <time>2026-05-20T09:43:52+02:00</time>
      </trkpt>
      <trkpt lat="49.4026" lon="6.28088">
        <ele>148.90039</ele>
        <time>2026-05-20T09:43:53+02:00</time>
      </trkpt>
      <trkpt lat="49.40256" lon="6.28082">
        <ele>149.2998</ele>
        <time>2026-05-20T09:43:54+02:00</time>
      </trkpt>
      <trkpt lat="49.40253" lon="6.28075">
        <ele>149.60059</ele>
        <time>2026-05-20T09:43:55+02:00</time>
      </trkpt>
      <trkpt lat="49.40249" lon="6.28069">
        <ele>149.60059</ele>
        <time>2026-05-20T09:43:56+02:00</time>
      </trkpt>
      <trkpt lat="49.40246" lon="6.28062">
        <ele>149.5</ele>
        <time>2026-05-20T09:43:57+02:00</time>
      </trkpt>
      <trkpt lat="49.40242" lon="6.28055">
        <ele>149</ele>
        <time>2026-05-20T09:43:58+02:00</time>
      </trkpt>
      <trkpt lat="49.40239" lon="6.28049">
        <ele>149</ele>
        <time>2026-05-20T09:43:59+02:00</time>
      </trkpt>
      <trkpt lat="49.40236" lon="6.28042">
        <ele>148.40039</ele>
        <time>2026-05-20T09:44:00+02:00</time>
      </trkpt>
      <trkpt lat="49.40233" lon="6.28035">
        <ele>147.90039</ele>
        <time>2026-05-20T09:44:01+02:00</time>
      </trkpt>
      <trkpt lat="49.4023" lon="6.28029">
        <ele>148</ele>
        <time>2026-05-20T09:44:02+02:00</time>
      </trkpt>
      <trkpt lat="49.40226" lon="6.28022">
        <ele>148.2998</ele>
        <time>2026-05-20T09:44:03+02:00</time>
      </trkpt>
      <trkpt lat="49.40223" lon="6.28015">
        <ele>148.2998</ele>
        <time>2026-05-20T09:44:04+02:00</time>
      </trkpt>
      <trkpt lat="49.40221" lon="6.28007">
        <ele>148.2002</ele>
        <time>2026-05-20T09:44:05+02:00</time>
      </trkpt>
      <trkpt lat="49.40218" lon="6.28">
        <ele>148.60059</ele>
        <time>2026-05-20T09:44:06+02:00</time>
      </trkpt>
      <trkpt lat="49.40216" lon="6.27993">
        <ele>148.5</ele>
        <time>2026-05-20T09:44:07+02:00</time>
      </trkpt>
      <trkpt lat="49.40214" lon="6.27985">
        <ele>148.90039</ele>
        <time>2026-05-20T09:44:08+02:00</time>
      </trkpt>
      <trkpt lat="49.40212" lon="6.27978">
        <ele>148.7998</ele>
        <time>2026-05-20T09:44:09+02:00</time>
      </trkpt>
      <trkpt lat="49.40209" lon="6.2797">
        <ele>148.90039</ele>
        <time>2026-05-20T09:44:10+02:00</time>
      </trkpt>
      <trkpt lat="49.40207" lon="6.27963">
        <ele>148.7002</ele>
        <time>2026-05-20T09:44:11+02:00</time>
      </trkpt>
      <trkpt lat="49.40205" lon="6.27956">
        <ele>148.7002</ele>
        <time>2026-05-20T09:44:12+02:00</time>
      </trkpt>
      <trkpt lat="49.40202" lon="6.27948">
        <ele>148.40039</ele>
        <time>2026-05-20T09:44:13+02:00</time>
      </trkpt>
      <trkpt lat="49.40193" lon="6.27918">
        <ele>147.90039</ele>
        <time>2026-05-20T09:44:14+02:00</time>
      </trkpt>
      <trkpt lat="49.40191" lon="6.27911">
        <ele>147.90039</ele>
        <time>2026-05-20T09:44:15+02:00</time>
      </trkpt>
      <trkpt lat="49.40189" lon="6.27903">
        <ele>147.90039</ele>
        <time>2026-05-20T09:44:16+02:00</time>
      </trkpt>
      <trkpt lat="49.40186" lon="6.27896">
        <ele>147.7002</ele>
        <time>2026-05-20T09:44:17+02:00</time>
      </trkpt>
      <trkpt lat="49.40184" lon="6.27888">
        <ele>147.2998</ele>
        <time>2026-05-20T09:44:18+02:00</time>
      </trkpt>
      <trkpt lat="49.40181" lon="6.27881">
        <ele>147.10059</ele>
        <time>2026-05-20T09:44:19+02:00</time>
      </trkpt>
      <trkpt lat="49.40179" lon="6.27873">
        <ele>146.7998</ele>
        <time>2026-05-20T09:44:20+02:00</time>
      </trkpt>
      <trkpt lat="49.40176" lon="6.27865">
        <ele>146.60059</ele>
        <time>2026-05-20T09:44:21+02:00</time>
      </trkpt>
      <trkpt lat="49.40174" lon="6.27857">
        <ele>146.7998</ele>
        <time>2026-05-20T09:44:22+02:00</time>
      </trkpt>
      <trkpt lat="49.40171" lon="6.2785">
        <ele>146.7998</ele>
        <time>2026-05-20T09:44:23+02:00</time>
      </trkpt>
      <trkpt lat="49.40169" lon="6.27842">
        <ele>147.10059</ele>
        <time>2026-05-20T09:44:24+02:00</time>
      </trkpt>
      <trkpt lat="49.40166" lon="6.27835">
        <ele>147.10059</ele>
        <time>2026-05-20T09:44:25+02:00</time>
      </trkpt>
      <trkpt lat="49.40163" lon="6.27828">
        <ele>147.2002</ele>
        <time>2026-05-20T09:44:26+02:00</time>
      </trkpt>
      <trkpt lat="49.40161" lon="6.2782">
        <ele>147.2002</ele>
        <time>2026-05-20T09:44:27+02:00</time>
      </trkpt>
      <trkpt lat="49.40159" lon="6.27813">
        <ele>147.40039</ele>
        <time>2026-05-20T09:44:28+02:00</time>
      </trkpt>
      <trkpt lat="49.40157" lon="6.27805">
        <ele>147.5</ele>
        <time>2026-05-20T09:44:29+02:00</time>
      </trkpt>
      <trkpt lat="49.40154" lon="6.27797">
        <ele>147.40039</ele>
        <time>2026-05-20T09:44:30+02:00</time>
      </trkpt>
      <trkpt lat="49.40152" lon="6.2779">
        <ele>147.40039</ele>
        <time>2026-05-20T09:44:31+02:00</time>
      </trkpt>
      <trkpt lat="49.4015" lon="6.27782">
        <ele>147.2002</ele>
        <time>2026-05-20T09:44:32+02:00</time>
      </trkpt>
      <trkpt lat="49.40148" lon="6.27774">
        <ele>147.10059</ele>
        <time>2026-05-20T09:44:33+02:00</time>
      </trkpt>
      <trkpt lat="49.40145" lon="6.27766">
        <ele>147.40039</ele>
        <time>2026-05-20T09:44:34+02:00</time>
      </trkpt>
      <trkpt lat="49.40143" lon="6.27759">
        <ele>147.2998</ele>
        <time>2026-05-20T09:44:35+02:00</time>
      </trkpt>
      <trkpt lat="49.40141" lon="6.27751">
        <ele>147.40039</ele>
        <time>2026-05-20T09:44:36+02:00</time>
      </trkpt>
      <trkpt lat="49.40139" lon="6.27743">
        <ele>147</ele>
        <time>2026-05-20T09:44:37+02:00</time>
      </trkpt>
      <trkpt lat="49.40136" lon="6.27735">
        <ele>146.90039</ele>
        <time>2026-05-20T09:44:38+02:00</time>
      </trkpt>
      <trkpt lat="49.40133" lon="6.27728">
        <ele>146.60059</ele>
        <time>2026-05-20T09:44:39+02:00</time>
      </trkpt>
      <trkpt lat="49.40131" lon="6.2772">
        <ele>146.7002</ele>
        <time>2026-05-20T09:44:40+02:00</time>
      </trkpt>
      <trkpt lat="49.40129" lon="6.27712">
        <ele>146.5</ele>
        <time>2026-05-20T09:44:41+02:00</time>
      </trkpt>
      <trkpt lat="49.40127" lon="6.27704">
        <ele>146.40039</ele>
        <time>2026-05-20T09:44:42+02:00</time>
      </trkpt>
      <trkpt lat="49.40124" lon="6.27696">
        <ele>147.2998</ele>
        <time>2026-05-20T09:44:43+02:00</time>
      </trkpt>
      <trkpt lat="49.40122" lon="6.27688">
        <ele>147.40039</ele>
        <time>2026-05-20T09:44:44+02:00</time>
      </trkpt>
      <trkpt lat="49.40119" lon="6.2768">
        <ele>148.40039</ele>
        <time>2026-05-20T09:44:45+02:00</time>
      </trkpt>
      <trkpt lat="49.40117" lon="6.27673">
        <ele>148.5</ele>
        <time>2026-05-20T09:44:46+02:00</time>
      </trkpt>
      <trkpt lat="49.40114" lon="6.27665">
        <ele>149.2002</ele>
        <time>2026-05-20T09:44:47+02:00</time>
      </trkpt>
      <trkpt lat="49.40112" lon="6.27657">
        <ele>149.2002</ele>
        <time>2026-05-20T09:44:48+02:00</time>
      </trkpt>
      <trkpt lat="49.4011" lon="6.2765">
        <ele>149.2002</ele>
        <time>2026-05-20T09:44:49+02:00</time>
      </trkpt>
      <trkpt lat="49.40107" lon="6.27642">
        <ele>149.2998</ele>
        <time>2026-05-20T09:44:50+02:00</time>
      </trkpt>
      <trkpt lat="49.40105" lon="6.27635">
        <ele>149</ele>
        <time>2026-05-20T09:44:51+02:00</time>
      </trkpt>
      <trkpt lat="49.40103" lon="6.27627">
        <ele>148.7998</ele>
        <time>2026-05-20T09:44:52+02:00</time>
      </trkpt>
      <trkpt lat="49.401" lon="6.2762">
        <ele>148.7998</ele>
        <time>2026-05-20T09:44:53+02:00</time>
      </trkpt>
      <trkpt lat="49.40098" lon="6.27612">
        <ele>148.10059</ele>
        <time>2026-05-20T09:44:54+02:00</time>
      </trkpt>
      <trkpt lat="49.40096" lon="6.27604">
        <ele>147.7998</ele>
        <time>2026-05-20T09:44:55+02:00</time>
      </trkpt>
      <trkpt lat="49.40093" lon="6.27596">
        <ele>147.2998</ele>
        <time>2026-05-20T09:44:56+02:00</time>
      </trkpt>
      <trkpt lat="49.40091" lon="6.27588">
        <ele>147.7002</ele>
        <time>2026-05-20T09:44:57+02:00</time>
      </trkpt>
      <trkpt lat="49.40088" lon="6.2758">
        <ele>147.5</ele>
        <time>2026-05-20T09:44:58+02:00</time>
      </trkpt>
      <trkpt lat="49.40086" lon="6.27572">
        <ele>147.60059</ele>
        <time>2026-05-20T09:44:59+02:00</time>
      </trkpt>
      <trkpt lat="49.40083" lon="6.27564">
        <ele>147.40039</ele>
        <time>2026-05-20T09:45:00+02:00</time>
      </trkpt>
      <trkpt lat="49.40079" lon="6.27557">
        <ele>147.2998</ele>
        <time>2026-05-20T09:45:01+02:00</time>
      </trkpt>
      <trkpt lat="49.40075" lon="6.27552">
        <ele>147.2998</ele>
        <time>2026-05-20T09:45:02+02:00</time>
      </trkpt>
      <trkpt lat="49.4007" lon="6.27547">
        <ele>147</ele>
        <time>2026-05-20T09:45:03+02:00</time>
      </trkpt>
      <trkpt lat="49.40065" lon="6.27542">
        <ele>146.7998</ele>
        <time>2026-05-20T09:45:04+02:00</time>
      </trkpt>
      <trkpt lat="49.40059" lon="6.27538">
        <ele>146.7998</ele>
        <time>2026-05-20T09:45:05+02:00</time>
      </trkpt>
      <trkpt lat="49.40054" lon="6.27534">
        <ele>146.7998</ele>
        <time>2026-05-20T09:45:06+02:00</time>
      </trkpt>
      <trkpt lat="49.4005" lon="6.27528">
        <ele>146.60059</ele>
        <time>2026-05-20T09:45:07+02:00</time>
      </trkpt>
      <trkpt lat="49.40046" lon="6.27522">
        <ele>146.5</ele>
        <time>2026-05-20T09:45:08+02:00</time>
      </trkpt>
      <trkpt lat="49.40043" lon="6.27516">
        <ele>146.2998</ele>
        <time>2026-05-20T09:45:09+02:00</time>
      </trkpt>
      <trkpt lat="49.4004" lon="6.2751">
        <ele>146.40039</ele>
        <time>2026-05-20T09:45:10+02:00</time>
      </trkpt>
      <trkpt lat="49.40039" lon="6.27505">
        <ele>146.2998</ele>
        <time>2026-05-20T09:45:11+02:00</time>
      </trkpt>
      <trkpt lat="49.40039" lon="6.27499">
        <ele>146.2998</ele>
        <time>2026-05-20T09:45:12+02:00</time>
      </trkpt>
      <trkpt lat="49.40041" lon="6.27495">
        <ele>146.2998</ele>
        <time>2026-05-20T09:45:13+02:00</time>
      </trkpt>
      <trkpt lat="49.40044" lon="6.27491">
        <ele>146.2002</ele>
        <time>2026-05-20T09:45:14+02:00</time>
      </trkpt>
      <trkpt lat="49.40048" lon="6.27488">
        <ele>146.2002</ele>
        <time>2026-05-20T09:45:15+02:00</time>
      </trkpt>
      <trkpt lat="49.40051" lon="6.27486">
        <ele>146.2002</ele>
        <time>2026-05-20T09:45:16+02:00</time>
      </trkpt>
      <trkpt lat="49.40055" lon="6.27482">
        <ele>146.2998</ele>
        <time>2026-05-20T09:45:17+02:00</time>
      </trkpt>
      <trkpt lat="49.40059" lon="6.27479">
        <ele>146.2002</ele>
        <time>2026-05-20T09:45:18+02:00</time>
      </trkpt>
      <trkpt lat="49.40063" lon="6.27474">
        <ele>146.2002</ele>
        <time>2026-05-20T09:45:19+02:00</time>
      </trkpt>
      <trkpt lat="49.40066" lon="6.27469">
        <ele>146.2998</ele>
        <time>2026-05-20T09:45:20+02:00</time>
      </trkpt>
      <trkpt lat="49.40068" lon="6.27463">
        <ele>146.40039</ele>
        <time>2026-05-20T09:45:21+02:00</time>
      </trkpt>
      <trkpt lat="49.40069" lon="6.27456">
        <ele>146.5</ele>
        <time>2026-05-20T09:45:22+02:00</time>
      </trkpt>
      <trkpt lat="49.40069" lon="6.27448">
        <ele>146.60059</ele>
        <time>2026-05-20T09:45:23+02:00</time>
      </trkpt>
      <trkpt lat="49.40068" lon="6.2744">
        <ele>146.60059</ele>
        <time>2026-05-20T09:45:24+02:00</time>
      </trkpt>
      <trkpt lat="49.40067" lon="6.27432">
        <ele>146.60059</ele>
        <time>2026-05-20T09:45:25+02:00</time>
      </trkpt>
      <trkpt lat="49.40065" lon="6.27424">
        <ele>146.7002</ele>
        <time>2026-05-20T09:45:26+02:00</time>
      </trkpt>
      <trkpt lat="49.40064" lon="6.27416">
        <ele>146.90039</ele>
        <time>2026-05-20T09:45:27+02:00</time>
      </trkpt>
      <trkpt lat="49.40062" lon="6.27409">
        <ele>147.10059</ele>
        <time>2026-05-20T09:45:28+02:00</time>
      </trkpt>
      <trkpt lat="49.4006" lon="6.27401">
        <ele>147.2002</ele>
        <time>2026-05-20T09:45:29+02:00</time>
      </trkpt>
      <trkpt lat="49.40058" lon="6.27393">
        <ele>147.5</ele>
        <time>2026-05-20T09:45:30+02:00</time>
      </trkpt>
      <trkpt lat="49.40056" lon="6.27386">
        <ele>147.7002</ele>
        <time>2026-05-20T09:45:31+02:00</time>
      </trkpt>
      <trkpt lat="49.40054" lon="6.27379">
        <ele>147.7998</ele>
        <time>2026-05-20T09:45:32+02:00</time>
      </trkpt>
      <trkpt lat="49.40052" lon="6.27371">
        <ele>148</ele>
        <time>2026-05-20T09:45:33+02:00</time>
      </trkpt>
      <trkpt lat="49.40049" lon="6.27364">
        <ele>148.10059</ele>
        <time>2026-05-20T09:45:34+02:00</time>
      </trkpt>
      <trkpt lat="49.40048" lon="6.27356">
        <ele>148</ele>
        <time>2026-05-20T09:45:35+02:00</time>
      </trkpt>
      <trkpt lat="49.40045" lon="6.27349">
        <ele>147.90039</ele>
        <time>2026-05-20T09:45:36+02:00</time>
      </trkpt>
      <trkpt lat="49.40043" lon="6.27342">
        <ele>147.5</ele>
        <time>2026-05-20T09:45:37+02:00</time>
      </trkpt>
      <trkpt lat="49.40041" lon="6.27334">
        <ele>147.40039</ele>
        <time>2026-05-20T09:45:38+02:00</time>
      </trkpt>
      <trkpt lat="49.40039" lon="6.27327">
        <ele>147.2002</ele>
        <time>2026-05-20T09:45:39+02:00</time>
      </trkpt>
      <trkpt lat="49.40037" lon="6.2732">
        <ele>147.2002</ele>
        <time>2026-05-20T09:45:40+02:00</time>
      </trkpt>
      <trkpt lat="49.40034" lon="6.27312">
        <ele>147.7998</ele>
        <time>2026-05-20T09:45:41+02:00</time>
      </trkpt>
      <trkpt lat="49.40032" lon="6.27305">
        <ele>147.7002</ele>
        <time>2026-05-20T09:45:42+02:00</time>
      </trkpt>
      <trkpt lat="49.4003" lon="6.27297">
        <ele>148.2002</ele>
        <time>2026-05-20T09:45:43+02:00</time>
      </trkpt>
      <trkpt lat="49.40028" lon="6.2729">
        <ele>148.10059</ele>
        <time>2026-05-20T09:45:44+02:00</time>
      </trkpt>
      <trkpt lat="49.40026" lon="6.27283">
        <ele>148.2002</ele>
        <time>2026-05-20T09:45:45+02:00</time>
      </trkpt>
      <trkpt lat="49.40024" lon="6.27275">
        <ele>148.60059</ele>
        <time>2026-05-20T09:45:46+02:00</time>
      </trkpt>
      <trkpt lat="49.40022" lon="6.27268">
        <ele>148.60059</ele>
        <time>2026-05-20T09:45:47+02:00</time>
      </trkpt>
      <trkpt lat="49.4002" lon="6.27261">
        <ele>148.60059</ele>
        <time>2026-05-20T09:45:48+02:00</time>
      </trkpt>
      <trkpt lat="49.40018" lon="6.27253">
        <ele>148.7002</ele>
        <time>2026-05-20T09:45:49+02:00</time>
      </trkpt>
      <trkpt lat="49.40016" lon="6.27246">
        <ele>148.40039</ele>
        <time>2026-05-20T09:45:50+02:00</time>
      </trkpt>
      <trkpt lat="49.40013" lon="6.27238">
        <ele>148.2998</ele>
        <time>2026-05-20T09:45:51+02:00</time>
      </trkpt>
      <trkpt lat="49.40011" lon="6.27231">
        <ele>147.90039</ele>
        <time>2026-05-20T09:45:52+02:00</time>
      </trkpt>
      <trkpt lat="49.40009" lon="6.27224">
        <ele>147.60059</ele>
        <time>2026-05-20T09:45:53+02:00</time>
      </trkpt>
      <trkpt lat="49.40007" lon="6.27216">
        <ele>148.10059</ele>
        <time>2026-05-20T09:45:54+02:00</time>
      </trkpt>
      <trkpt lat="49.40005" lon="6.27209">
        <ele>148.10059</ele>
        <time>2026-05-20T09:45:55+02:00</time>
      </trkpt>
      <trkpt lat="49.40003" lon="6.27202">
        <ele>148</ele>
        <time>2026-05-20T09:45:56+02:00</time>
      </trkpt>
      <trkpt lat="49.40001" lon="6.27195">
        <ele>148.2002</ele>
        <time>2026-05-20T09:45:57+02:00</time>
      </trkpt>
      <trkpt lat="49.39998" lon="6.27187">
        <ele>148.2002</ele>
        <time>2026-05-20T09:45:58+02:00</time>
      </trkpt>
      <trkpt lat="49.39996" lon="6.2718">
        <ele>148.2998</ele>
        <time>2026-05-20T09:45:59+02:00</time>
      </trkpt>
      <trkpt lat="49.39994" lon="6.27173">
        <ele>148.2002</ele>
        <time>2026-05-20T09:46:00+02:00</time>
      </trkpt>
      <trkpt lat="49.39992" lon="6.27165">
        <ele>148.2002</ele>
        <time>2026-05-20T09:46:01+02:00</time>
      </trkpt>
      <trkpt lat="49.3999" lon="6.27158">
        <ele>148.10059</ele>
        <time>2026-05-20T09:46:02+02:00</time>
      </trkpt>
      <trkpt lat="49.39988" lon="6.27151">
        <ele>147.90039</ele>
        <time>2026-05-20T09:46:03+02:00</time>
      </trkpt>
      <trkpt lat="49.39986" lon="6.27144">
        <ele>147.7002</ele>
        <time>2026-05-20T09:46:04+02:00</time>
      </trkpt>
      <trkpt lat="49.39984" lon="6.27136">
        <ele>147.5</ele>
        <time>2026-05-20T09:46:05+02:00</time>
      </trkpt>
      <trkpt lat="49.39982" lon="6.27129">
        <ele>147.2998</ele>
        <time>2026-05-20T09:46:06+02:00</time>
      </trkpt>
      <trkpt lat="49.3998" lon="6.27122">
        <ele>147.40039</ele>
        <time>2026-05-20T09:46:07+02:00</time>
      </trkpt>
      <trkpt lat="49.39977" lon="6.27114">
        <ele>147.2998</ele>
        <time>2026-05-20T09:46:08+02:00</time>
      </trkpt>
      <trkpt lat="49.39975" lon="6.27107">
        <ele>147.10059</ele>
        <time>2026-05-20T09:46:09+02:00</time>
      </trkpt>
      <trkpt lat="49.39974" lon="6.27099">
        <ele>147.2002</ele>
        <time>2026-05-20T09:46:10+02:00</time>
      </trkpt>
      <trkpt lat="49.39971" lon="6.27092">
        <ele>147.10059</ele>
        <time>2026-05-20T09:46:11+02:00</time>
      </trkpt>
      <trkpt lat="49.39969" lon="6.27084">
        <ele>147.2002</ele>
        <time>2026-05-20T09:46:12+02:00</time>
      </trkpt>
      <trkpt lat="49.39967" lon="6.27076">
        <ele>147.2002</ele>
        <time>2026-05-20T09:46:13+02:00</time>
      </trkpt>
      <trkpt lat="49.39964" lon="6.27069">
        <ele>147.2002</ele>
        <time>2026-05-20T09:46:14+02:00</time>
      </trkpt>
      <trkpt lat="49.39963" lon="6.27061">
        <ele>147.2998</ele>
        <time>2026-05-20T09:46:15+02:00</time>
      </trkpt>
      <trkpt lat="49.3996" lon="6.27053">
        <ele>147.2002</ele>
        <time>2026-05-20T09:46:16+02:00</time>
      </trkpt>
      <trkpt lat="49.39958" lon="6.27046">
        <ele>147.2998</ele>
        <time>2026-05-20T09:46:17+02:00</time>
      </trkpt>
      <trkpt lat="49.39956" lon="6.27038">
        <ele>147.10059</ele>
        <time>2026-05-20T09:46:18+02:00</time>
      </trkpt>
      <trkpt lat="49.39954" lon="6.27031">
        <ele>146.90039</ele>
        <time>2026-05-20T09:46:19+02:00</time>
      </trkpt>
      <trkpt lat="49.39951" lon="6.27023">
        <ele>146.7998</ele>
        <time>2026-05-20T09:46:20+02:00</time>
      </trkpt>
      <trkpt lat="49.39949" lon="6.27016">
        <ele>146.7998</ele>
        <time>2026-05-20T09:46:21+02:00</time>
      </trkpt>
      <trkpt lat="49.39947" lon="6.27008">
        <ele>146.7998</ele>
        <time>2026-05-20T09:46:22+02:00</time>
      </trkpt>
      <trkpt lat="49.39945" lon="6.27">
        <ele>147.10059</ele>
        <time>2026-05-20T09:46:23+02:00</time>
      </trkpt>
      <trkpt lat="49.39942" lon="6.26993">
        <ele>147.10059</ele>
        <time>2026-05-20T09:46:24+02:00</time>
      </trkpt>
      <trkpt lat="49.3994" lon="6.26985">
        <ele>147.40039</ele>
        <time>2026-05-20T09:46:25+02:00</time>
      </trkpt>
      <trkpt lat="49.39938" lon="6.26977">
        <ele>147.2998</ele>
        <time>2026-05-20T09:46:26+02:00</time>
      </trkpt>
      <trkpt lat="49.39935" lon="6.26969">
        <ele>147.40039</ele>
        <time>2026-05-20T09:46:27+02:00</time>
      </trkpt>
      <trkpt lat="49.39933" lon="6.26961">
        <ele>147.2002</ele>
        <time>2026-05-20T09:46:28+02:00</time>
      </trkpt>
      <trkpt lat="49.39931" lon="6.26953">
        <ele>147</ele>
        <time>2026-05-20T09:46:29+02:00</time>
      </trkpt>
      <trkpt lat="49.39929" lon="6.26946">
        <ele>147.10059</ele>
        <time>2026-05-20T09:46:30+02:00</time>
      </trkpt>
      <trkpt lat="49.39926" lon="6.26938">
        <ele>147</ele>
        <time>2026-05-20T09:46:31+02:00</time>
      </trkpt>
      <trkpt lat="49.39924" lon="6.26929">
        <ele>147.2002</ele>
        <time>2026-05-20T09:46:32+02:00</time>
      </trkpt>
      <trkpt lat="49.39921" lon="6.26921">
        <ele>147.2002</ele>
        <time>2026-05-20T09:46:33+02:00</time>
      </trkpt>
      <trkpt lat="49.39919" lon="6.26913">
        <ele>147.2002</ele>
        <time>2026-05-20T09:46:34+02:00</time>
      </trkpt>
      <trkpt lat="49.39917" lon="6.26905">
        <ele>147.60059</ele>
        <time>2026-05-20T09:46:35+02:00</time>
      </trkpt>
      <trkpt lat="49.39914" lon="6.26897">
        <ele>147.60059</ele>
        <time>2026-05-20T09:46:36+02:00</time>
      </trkpt>
      <trkpt lat="49.39912" lon="6.26889">
        <ele>148</ele>
        <time>2026-05-20T09:46:37+02:00</time>
      </trkpt>
      <trkpt lat="49.39909" lon="6.26882">
        <ele>148</ele>
        <time>2026-05-20T09:46:38+02:00</time>
      </trkpt>
      <trkpt lat="49.39905" lon="6.26875">
        <ele>148.40039</ele>
        <time>2026-05-20T09:46:39+02:00</time>
      </trkpt>
      <trkpt lat="49.39901" lon="6.26868">
        <ele>148.60059</ele>
        <time>2026-05-20T09:46:40+02:00</time>
      </trkpt>
      <trkpt lat="49.39898" lon="6.26862">
        <ele>148.60059</ele>
        <time>2026-05-20T09:46:41+02:00</time>
      </trkpt>
      <trkpt lat="49.39894" lon="6.26856">
        <ele>148.7002</ele>
        <time>2026-05-20T09:46:42+02:00</time>
      </trkpt>
      <trkpt lat="49.3989" lon="6.26851">
        <ele>148.7998</ele>
        <time>2026-05-20T09:46:43+02:00</time>
      </trkpt>
      <trkpt lat="49.39887" lon="6.26846">
        <ele>148.90039</ele>
        <time>2026-05-20T09:46:44+02:00</time>
      </trkpt>
      <trkpt lat="49.39883" lon="6.26841">
        <ele>148.90039</ele>
        <time>2026-05-20T09:46:45+02:00</time>
      </trkpt>
      <trkpt lat="49.3988" lon="6.26836">
        <ele>149</ele>
        <time>2026-05-20T09:46:46+02:00</time>
      </trkpt>
      <trkpt lat="49.39877" lon="6.2683">
        <ele>149.2002</ele>
        <time>2026-05-20T09:46:47+02:00</time>
      </trkpt>
      <trkpt lat="49.39874" lon="6.26825">
        <ele>149.40039</ele>
        <time>2026-05-20T09:46:48+02:00</time>
      </trkpt>
      <trkpt lat="49.39872" lon="6.2682">
        <ele>149.5</ele>
        <time>2026-05-20T09:46:49+02:00</time>
      </trkpt>
      <trkpt lat="49.39869" lon="6.26814">
        <ele>149.5</ele>
        <time>2026-05-20T09:46:50+02:00</time>
      </trkpt>
      <trkpt lat="49.39868" lon="6.26808">
        <ele>149.7998</ele>
        <time>2026-05-20T09:46:51+02:00</time>
      </trkpt>
      <trkpt lat="49.39866" lon="6.26802">
        <ele>149.90039</ele>
        <time>2026-05-20T09:46:52+02:00</time>
      </trkpt>
      <trkpt lat="49.39864" lon="6.26796">
        <ele>149.90039</ele>
        <time>2026-05-20T09:46:53+02:00</time>
      </trkpt>
      <trkpt lat="49.39863" lon="6.26791">
        <ele>150.2002</ele>
        <time>2026-05-20T09:46:54+02:00</time>
      </trkpt>
      <trkpt lat="49.39861" lon="6.26785">
        <ele>150.2998</ele>
        <time>2026-05-20T09:46:55+02:00</time>
      </trkpt>
      <trkpt lat="49.3986" lon="6.26779">
        <ele>150.2998</ele>
        <time>2026-05-20T09:46:56+02:00</time>
      </trkpt>
      <trkpt lat="49.39859" lon="6.26775">
        <ele>150.40039</ele>
        <time>2026-05-20T09:46:57+02:00</time>
      </trkpt>
      <trkpt lat="49.39859" lon="6.2677">
        <ele>150.40039</ele>
        <time>2026-05-20T09:46:58+02:00</time>
      </trkpt>
      <trkpt lat="49.3986" lon="6.26765">
        <ele>150.5</ele>
        <time>2026-05-20T09:46:59+02:00</time>
      </trkpt>
      <trkpt lat="49.39861" lon="6.26761">
        <ele>150.60059</ele>
        <time>2026-05-20T09:47:00+02:00</time>
      </trkpt>
      <trkpt lat="49.39863" lon="6.26758">
        <ele>150.60059</ele>
        <time>2026-05-20T09:47:01+02:00</time>
      </trkpt>
      <trkpt lat="49.39865" lon="6.26755">
        <ele>150.40039</ele>
        <time>2026-05-20T09:47:02+02:00</time>
      </trkpt>
      <trkpt lat="49.39868" lon="6.26753">
        <ele>150.40039</ele>
        <time>2026-05-20T09:47:03+02:00</time>
      </trkpt>
      <trkpt lat="49.39871" lon="6.2675">
        <ele>150.2998</ele>
        <time>2026-05-20T09:47:04+02:00</time>
      </trkpt>
      <trkpt lat="49.39874" lon="6.26748">
        <ele>150.2998</ele>
        <time>2026-05-20T09:47:05+02:00</time>
      </trkpt>
      <trkpt lat="49.39878" lon="6.26745">
        <ele>150.10059</ele>
        <time>2026-05-20T09:47:06+02:00</time>
      </trkpt>
      <trkpt lat="49.39882" lon="6.26742">
        <ele>150.10059</ele>
        <time>2026-05-20T09:47:07+02:00</time>
      </trkpt>
      <trkpt lat="49.39886" lon="6.26738">
        <ele>149.90039</ele>
        <time>2026-05-20T09:47:08+02:00</time>
      </trkpt>
      <trkpt lat="49.39891" lon="6.26735">
        <ele>149.7998</ele>
        <time>2026-05-20T09:47:09+02:00</time>
      </trkpt>
      <trkpt lat="49.39895" lon="6.26732">
        <ele>149.7998</ele>
        <time>2026-05-20T09:47:10+02:00</time>
      </trkpt>
      <trkpt lat="49.399" lon="6.26728">
        <ele>149.60059</ele>
        <time>2026-05-20T09:47:11+02:00</time>
      </trkpt>
      <trkpt lat="49.39905" lon="6.26725">
        <ele>149.5</ele>
        <time>2026-05-20T09:47:12+02:00</time>
      </trkpt>
      <trkpt lat="49.39909" lon="6.26722">
        <ele>149.2998</ele>
        <time>2026-05-20T09:47:13+02:00</time>
      </trkpt>
      <trkpt lat="49.39914" lon="6.26718">
        <ele>149.2002</ele>
        <time>2026-05-20T09:47:14+02:00</time>
      </trkpt>
      <trkpt lat="49.39919" lon="6.26715">
        <ele>148.90039</ele>
        <time>2026-05-20T09:47:15+02:00</time>
      </trkpt>
      <trkpt lat="49.39924" lon="6.26712">
        <ele>148.90039</ele>
        <time>2026-05-20T09:47:16+02:00</time>
      </trkpt>
      <trkpt lat="49.39929" lon="6.26708">
        <ele>148.7002</ele>
        <time>2026-05-20T09:47:17+02:00</time>
      </trkpt>
      <trkpt lat="49.39933" lon="6.26705">
        <ele>148</ele>
        <time>2026-05-20T09:47:18+02:00</time>
      </trkpt>
      <trkpt lat="49.39937" lon="6.26702">
        <ele>147.2998</ele>
        <time>2026-05-20T09:47:19+02:00</time>
      </trkpt>
      <trkpt lat="49.39942" lon="6.26699">
        <ele>147.5</ele>
        <time>2026-05-20T09:47:20+02:00</time>
      </trkpt>
      <trkpt lat="49.39946" lon="6.26695">
        <ele>147.5</ele>
        <time>2026-05-20T09:47:21+02:00</time>
      </trkpt>
      <trkpt lat="49.39951" lon="6.26692">
        <ele>148.10059</ele>
        <time>2026-05-20T09:47:22+02:00</time>
      </trkpt>
      <trkpt lat="49.39956" lon="6.26687">
        <ele>148.10059</ele>
        <time>2026-05-20T09:47:23+02:00</time>
      </trkpt>
      <trkpt lat="49.39958" lon="6.2668">
        <ele>148.90039</ele>
        <time>2026-05-20T09:47:24+02:00</time>
      </trkpt>
      <trkpt lat="49.3996" lon="6.26672">
        <ele>149.7002</ele>
        <time>2026-05-20T09:47:25+02:00</time>
      </trkpt>
      <trkpt lat="49.3996" lon="6.26665">
        <ele>150.2002</ele>
        <time>2026-05-20T09:47:26+02:00</time>
      </trkpt>
      <trkpt lat="49.39959" lon="6.26657">
        <ele>150.60059</ele>
        <time>2026-05-20T09:47:27+02:00</time>
      </trkpt>
      <trkpt lat="49.39957" lon="6.2665">
        <ele>150.5</ele>
        <time>2026-05-20T09:47:28+02:00</time>
      </trkpt>
      <trkpt lat="49.39955" lon="6.26643">
        <ele>150.90039</ele>
        <time>2026-05-20T09:47:29+02:00</time>
      </trkpt>
      <trkpt lat="49.39953" lon="6.26636">
        <ele>151.10059</ele>
        <time>2026-05-20T09:47:30+02:00</time>
      </trkpt>
      <trkpt lat="49.3995" lon="6.26628">
        <ele>150.90039</ele>
        <time>2026-05-20T09:47:31+02:00</time>
      </trkpt>
      <trkpt lat="49.39948" lon="6.2662">
        <ele>150.90039</ele>
        <time>2026-05-20T09:47:32+02:00</time>
      </trkpt>
      <trkpt lat="49.39946" lon="6.26613">
        <ele>150.7002</ele>
        <time>2026-05-20T09:47:33+02:00</time>
      </trkpt>
      <trkpt lat="49.39943" lon="6.26605">
        <ele>150.7002</ele>
        <time>2026-05-20T09:47:34+02:00</time>
      </trkpt>
      <trkpt lat="49.39941" lon="6.26598">
        <ele>150.40039</ele>
        <time>2026-05-20T09:47:35+02:00</time>
      </trkpt>
      <trkpt lat="49.39938" lon="6.26591">
        <ele>150.40039</ele>
        <time>2026-05-20T09:47:36+02:00</time>
      </trkpt>
      <trkpt lat="49.39937" lon="6.26584">
        <ele>150.40039</ele>
        <time>2026-05-20T09:47:37+02:00</time>
      </trkpt>
      <trkpt lat="49.39934" lon="6.26577">
        <ele>150.2002</ele>
        <time>2026-05-20T09:47:38+02:00</time>
      </trkpt>
      <trkpt lat="49.39932" lon="6.2657">
        <ele>150.2998</ele>
        <time>2026-05-20T09:47:39+02:00</time>
      </trkpt>
      <trkpt lat="49.39929" lon="6.26563">
        <ele>150.2998</ele>
        <time>2026-05-20T09:47:40+02:00</time>
      </trkpt>
      <trkpt lat="49.39927" lon="6.26556">
        <ele>150.2998</ele>
        <time>2026-05-20T09:47:41+02:00</time>
      </trkpt>
      <trkpt lat="49.39925" lon="6.26549">
        <ele>150.2998</ele>
        <time>2026-05-20T09:47:42+02:00</time>
      </trkpt>
      <trkpt lat="49.39922" lon="6.26542">
        <ele>150.2998</ele>
        <time>2026-05-20T09:47:43+02:00</time>
      </trkpt>
      <trkpt lat="49.3992" lon="6.26534">
        <ele>150.40039</ele>
        <time>2026-05-20T09:47:44+02:00</time>
      </trkpt>
      <trkpt lat="49.39918" lon="6.26526">
        <ele>150.5</ele>
        <time>2026-05-20T09:47:45+02:00</time>
      </trkpt>
      <trkpt lat="49.39915" lon="6.26518">
        <ele>150.60059</ele>
        <time>2026-05-20T09:47:46+02:00</time>
      </trkpt>
      <trkpt lat="49.39913" lon="6.26511">
        <ele>150.7002</ele>
        <time>2026-05-20T09:47:47+02:00</time>
      </trkpt>
      <trkpt lat="49.3991" lon="6.26504">
        <ele>150.7002</ele>
        <time>2026-05-20T09:47:48+02:00</time>
      </trkpt>
      <trkpt lat="49.39908" lon="6.26497">
        <ele>150.7998</ele>
        <time>2026-05-20T09:47:49+02:00</time>
      </trkpt>
      <trkpt lat="49.39905" lon="6.26489">
        <ele>150.90039</ele>
        <time>2026-05-20T09:47:50+02:00</time>
      </trkpt>
      <trkpt lat="49.39903" lon="6.26481">
        <ele>151</ele>
        <time>2026-05-20T09:47:51+02:00</time>
      </trkpt>
      <trkpt lat="49.39901" lon="6.26473">
        <ele>151.10059</ele>
        <time>2026-05-20T09:47:52+02:00</time>
      </trkpt>
      <trkpt lat="49.39898" lon="6.26465">
        <ele>151.2002</ele>
        <time>2026-05-20T09:47:53+02:00</time>
      </trkpt>
      <trkpt lat="49.39896" lon="6.26457">
        <ele>151.2998</ele>
        <time>2026-05-20T09:47:54+02:00</time>
      </trkpt>
      <trkpt lat="49.39894" lon="6.26449">
        <ele>151.40039</ele>
        <time>2026-05-20T09:47:55+02:00</time>
      </trkpt>
      <trkpt lat="49.39892" lon="6.26441">
        <ele>151.40039</ele>
        <time>2026-05-20T09:47:56+02:00</time>
      </trkpt>
      <trkpt lat="49.3989" lon="6.26434">
        <ele>151.5</ele>
        <time>2026-05-20T09:47:57+02:00</time>
      </trkpt>
      <trkpt lat="49.39887" lon="6.26426">
        <ele>151.60059</ele>
        <time>2026-05-20T09:47:58+02:00</time>
      </trkpt>
      <trkpt lat="49.39885" lon="6.26419">
        <ele>151.40039</ele>
        <time>2026-05-20T09:47:59+02:00</time>
      </trkpt>
      <trkpt lat="49.39882" lon="6.26412">
        <ele>151.40039</ele>
        <time>2026-05-20T09:48:00+02:00</time>
      </trkpt>
      <trkpt lat="49.39879" lon="6.26406">
        <ele>151</ele>
        <time>2026-05-20T09:48:01+02:00</time>
      </trkpt>
      <trkpt lat="49.39877" lon="6.264">
        <ele>150.90039</ele>
        <time>2026-05-20T09:48:02+02:00</time>
      </trkpt>
      <trkpt lat="49.39874" lon="6.26393">
        <ele>150.40039</ele>
        <time>2026-05-20T09:48:03+02:00</time>
      </trkpt>
      <trkpt lat="49.39872" lon="6.26387">
        <ele>150.2998</ele>
        <time>2026-05-20T09:48:04+02:00</time>
      </trkpt>
      <trkpt lat="49.3987" lon="6.2638">
        <ele>150.2002</ele>
        <time>2026-05-20T09:48:05+02:00</time>
      </trkpt>
      <trkpt lat="49.39868" lon="6.26374">
        <ele>149.2998</ele>
        <time>2026-05-20T09:48:06+02:00</time>
      </trkpt>
      <trkpt lat="49.39865" lon="6.26368">
        <ele>149.2998</ele>
        <time>2026-05-20T09:48:07+02:00</time>
      </trkpt>
      <trkpt lat="49.39863" lon="6.26361">
        <ele>148.5</ele>
        <time>2026-05-20T09:48:08+02:00</time>
      </trkpt>
      <trkpt lat="49.39861" lon="6.26354">
        <ele>148.40039</ele>
        <time>2026-05-20T09:48:09+02:00</time>
      </trkpt>
      <trkpt lat="49.39859" lon="6.26348">
        <ele>148.2998</ele>
        <time>2026-05-20T09:48:10+02:00</time>
      </trkpt>
      <trkpt lat="49.39856" lon="6.26341">
        <ele>147.5</ele>
        <time>2026-05-20T09:48:11+02:00</time>
      </trkpt>
      <trkpt lat="49.39854" lon="6.26334">
        <ele>147.40039</ele>
        <time>2026-05-20T09:48:12+02:00</time>
      </trkpt>
      <trkpt lat="49.39852" lon="6.26328">
        <ele>147.40039</ele>
        <time>2026-05-20T09:48:13+02:00</time>
      </trkpt>
      <trkpt lat="49.3985" lon="6.26321">
        <ele>146.7002</ele>
        <time>2026-05-20T09:48:14+02:00</time>
      </trkpt>
      <trkpt lat="49.39848" lon="6.26314">
        <ele>146.7002</ele>
        <time>2026-05-20T09:48:15+02:00</time>
      </trkpt>
      <trkpt lat="49.39845" lon="6.26308">
        <ele>146.10059</ele>
        <time>2026-05-20T09:48:16+02:00</time>
      </trkpt>
      <trkpt lat="49.39843" lon="6.26301">
        <ele>146.10059</ele>
        <time>2026-05-20T09:48:17+02:00</time>
      </trkpt>
      <trkpt lat="49.39841" lon="6.26294">
        <ele>146.10059</ele>
        <time>2026-05-20T09:48:18+02:00</time>
      </trkpt>
      <trkpt lat="49.39839" lon="6.26287">
        <ele>145.90039</ele>
        <time>2026-05-20T09:48:19+02:00</time>
      </trkpt>
      <trkpt lat="49.39837" lon="6.2628">
        <ele>145.90039</ele>
        <time>2026-05-20T09:48:20+02:00</time>
      </trkpt>
      <trkpt lat="49.39835" lon="6.26273">
        <ele>145.7998</ele>
        <time>2026-05-20T09:48:21+02:00</time>
      </trkpt>
      <trkpt lat="49.39833" lon="6.26266">
        <ele>145.7998</ele>
        <time>2026-05-20T09:48:22+02:00</time>
      </trkpt>
      <trkpt lat="49.39831" lon="6.26259">
        <ele>145.7998</ele>
        <time>2026-05-20T09:48:23+02:00</time>
      </trkpt>
      <trkpt lat="49.39829" lon="6.26252">
        <ele>145.7002</ele>
        <time>2026-05-20T09:48:24+02:00</time>
      </trkpt>
      <trkpt lat="49.39827" lon="6.26245">
        <ele>145.7002</ele>
        <time>2026-05-20T09:48:25+02:00</time>
      </trkpt>
      <trkpt lat="49.39825" lon="6.26238">
        <ele>145.7002</ele>
        <time>2026-05-20T09:48:26+02:00</time>
      </trkpt>
      <trkpt lat="49.39823" lon="6.26231">
        <ele>145.7998</ele>
        <time>2026-05-20T09:48:27+02:00</time>
      </trkpt>
      <trkpt lat="49.39821" lon="6.26224">
        <ele>145.90039</ele>
        <time>2026-05-20T09:48:28+02:00</time>
      </trkpt>
      <trkpt lat="49.39819" lon="6.26217">
        <ele>146</ele>
        <time>2026-05-20T09:48:29+02:00</time>
      </trkpt>
      <trkpt lat="49.39817" lon="6.2621">
        <ele>146</ele>
        <time>2026-05-20T09:48:30+02:00</time>
      </trkpt>
      <trkpt lat="49.39815" lon="6.26203">
        <ele>146</ele>
        <time>2026-05-20T09:48:31+02:00</time>
      </trkpt>
      <trkpt lat="49.39813" lon="6.26196">
        <ele>146</ele>
        <time>2026-05-20T09:48:32+02:00</time>
      </trkpt>
      <trkpt lat="49.39811" lon="6.26189">
        <ele>145.7998</ele>
        <time>2026-05-20T09:48:33+02:00</time>
      </trkpt>
      <trkpt lat="49.39808" lon="6.26182">
        <ele>145.7998</ele>
        <time>2026-05-20T09:48:34+02:00</time>
      </trkpt>
      <trkpt lat="49.39806" lon="6.26175">
        <ele>145.7002</ele>
        <time>2026-05-20T09:48:35+02:00</time>
      </trkpt>
      <trkpt lat="49.39805" lon="6.26168">
        <ele>145.7998</ele>
        <time>2026-05-20T09:48:36+02:00</time>
      </trkpt>
      <trkpt lat="49.39802" lon="6.26161">
        <ele>145.7998</ele>
        <time>2026-05-20T09:48:37+02:00</time>
      </trkpt>
      <trkpt lat="49.398" lon="6.26154">
        <ele>145.90039</ele>
        <time>2026-05-20T09:48:38+02:00</time>
      </trkpt>
      <trkpt lat="49.39798" lon="6.26148">
        <ele>146.10059</ele>
        <time>2026-05-20T09:48:39+02:00</time>
      </trkpt>
      <trkpt lat="49.39796" lon="6.26141">
        <ele>146.2998</ele>
        <time>2026-05-20T09:48:40+02:00</time>
      </trkpt>
      <trkpt lat="49.39794" lon="6.26134">
        <ele>146.10059</ele>
        <time>2026-05-20T09:48:41+02:00</time>
      </trkpt>
      <trkpt lat="49.39792" lon="6.26127">
        <ele>146.10059</ele>
        <time>2026-05-20T09:48:42+02:00</time>
      </trkpt>
      <trkpt lat="49.3979" lon="6.26121">
        <ele>145.90039</ele>
        <time>2026-05-20T09:48:43+02:00</time>
      </trkpt>
      <trkpt lat="49.39789" lon="6.26114">
        <ele>145.7998</ele>
        <time>2026-05-20T09:48:44+02:00</time>
      </trkpt>
      <trkpt lat="49.39787" lon="6.26107">
        <ele>145.90039</ele>
        <time>2026-05-20T09:48:45+02:00</time>
      </trkpt>
      <trkpt lat="49.39785" lon="6.261">
        <ele>146</ele>
        <time>2026-05-20T09:48:46+02:00</time>
      </trkpt>
      <trkpt lat="49.39782" lon="6.26093">
        <ele>145.7998</ele>
        <time>2026-05-20T09:48:47+02:00</time>
      </trkpt>
      <trkpt lat="49.39781" lon="6.26086">
        <ele>146.10059</ele>
        <time>2026-05-20T09:48:48+02:00</time>
      </trkpt>
      <trkpt lat="49.39779" lon="6.26079">
        <ele>146.2002</ele>
        <time>2026-05-20T09:48:49+02:00</time>
      </trkpt>
      <trkpt lat="49.39777" lon="6.26072">
        <ele>146.5</ele>
        <time>2026-05-20T09:48:50+02:00</time>
      </trkpt>
      <trkpt lat="49.39775" lon="6.26065">
        <ele>146.60059</ele>
        <time>2026-05-20T09:48:51+02:00</time>
      </trkpt>
      <trkpt lat="49.39773" lon="6.26058">
        <ele>146.2002</ele>
        <time>2026-05-20T09:48:52+02:00</time>
      </trkpt>
      <trkpt lat="49.39771" lon="6.26051">
        <ele>146.2002</ele>
        <time>2026-05-20T09:48:53+02:00</time>
      </trkpt>
      <trkpt lat="49.39768" lon="6.26044">
        <ele>146</ele>
        <time>2026-05-20T09:48:54+02:00</time>
      </trkpt>
      <trkpt lat="49.39766" lon="6.26037">
        <ele>146</ele>
        <time>2026-05-20T09:48:55+02:00</time>
      </trkpt>
      <trkpt lat="49.39764" lon="6.26029">
        <ele>146</ele>
        <time>2026-05-20T09:48:56+02:00</time>
      </trkpt>
      <trkpt lat="49.39762" lon="6.26022">
        <ele>145.7998</ele>
        <time>2026-05-20T09:48:57+02:00</time>
      </trkpt>
      <trkpt lat="49.3976" lon="6.26015">
        <ele>145.7998</ele>
        <time>2026-05-20T09:48:58+02:00</time>
      </trkpt>
      <trkpt lat="49.39758" lon="6.26008">
        <ele>145.7998</ele>
        <time>2026-05-20T09:48:59+02:00</time>
      </trkpt>
      <trkpt lat="49.39756" lon="6.26001">
        <ele>145.7998</ele>
        <time>2026-05-20T09:49:00+02:00</time>
      </trkpt>
      <trkpt lat="49.39754" lon="6.25994">
        <ele>145.7998</ele>
        <time>2026-05-20T09:49:01+02:00</time>
      </trkpt>
      <trkpt lat="49.39752" lon="6.25987">
        <ele>146.10059</ele>
        <time>2026-05-20T09:49:02+02:00</time>
      </trkpt>
      <trkpt lat="49.3975" lon="6.25981">
        <ele>146</ele>
        <time>2026-05-20T09:49:03+02:00</time>
      </trkpt>
      <trkpt lat="49.39748" lon="6.25974">
        <ele>146.2002</ele>
        <time>2026-05-20T09:49:04+02:00</time>
      </trkpt>
      <trkpt lat="49.39746" lon="6.25967">
        <ele>146.2998</ele>
        <time>2026-05-20T09:49:05+02:00</time>
      </trkpt>
      <trkpt lat="49.39744" lon="6.2596">
        <ele>146.10059</ele>
        <time>2026-05-20T09:49:06+02:00</time>
      </trkpt>
      <trkpt lat="49.39742" lon="6.25953">
        <ele>146.10059</ele>
        <time>2026-05-20T09:49:07+02:00</time>
      </trkpt>
      <trkpt lat="49.3974" lon="6.25946">
        <ele>145.90039</ele>
        <time>2026-05-20T09:49:08+02:00</time>
      </trkpt>
      <trkpt lat="49.39738" lon="6.25939">
        <ele>145.90039</ele>
        <time>2026-05-20T09:49:09+02:00</time>
      </trkpt>
      <trkpt lat="49.39736" lon="6.25932">
        <ele>145.90039</ele>
        <time>2026-05-20T09:49:10+02:00</time>
      </trkpt>
      <trkpt lat="49.39734" lon="6.25925">
        <ele>145.7998</ele>
        <time>2026-05-20T09:49:11+02:00</time>
      </trkpt>
      <trkpt lat="49.39732" lon="6.25918">
        <ele>145.7998</ele>
        <time>2026-05-20T09:49:12+02:00</time>
      </trkpt>
      <trkpt lat="49.3973" lon="6.25911">
        <ele>145.7998</ele>
        <time>2026-05-20T09:49:13+02:00</time>
      </trkpt>
      <trkpt lat="49.39728" lon="6.25904">
        <ele>145.7998</ele>
        <time>2026-05-20T09:49:14+02:00</time>
      </trkpt>
      <trkpt lat="49.39726" lon="6.25897">
        <ele>145.7998</ele>
        <time>2026-05-20T09:49:15+02:00</time>
      </trkpt>
      <trkpt lat="49.39724" lon="6.2589">
        <ele>145.90039</ele>
        <time>2026-05-20T09:49:16+02:00</time>
      </trkpt>
      <trkpt lat="49.39722" lon="6.25883">
        <ele>146</ele>
        <time>2026-05-20T09:49:17+02:00</time>
      </trkpt>
      <trkpt lat="49.3972" lon="6.25876">
        <ele>146.10059</ele>
        <time>2026-05-20T09:49:18+02:00</time>
      </trkpt>
      <trkpt lat="49.39719" lon="6.25869">
        <ele>146.10059</ele>
        <time>2026-05-20T09:49:19+02:00</time>
      </trkpt>
      <trkpt lat="49.39718" lon="6.25862">
        <ele>146.10059</ele>
        <time>2026-05-20T09:49:20+02:00</time>
      </trkpt>
      <trkpt lat="49.39718" lon="6.25855">
        <ele>146.2002</ele>
        <time>2026-05-20T09:49:21+02:00</time>
      </trkpt>
      <trkpt lat="49.3972" lon="6.25849">
        <ele>146.2002</ele>
        <time>2026-05-20T09:49:22+02:00</time>
      </trkpt>
      <trkpt lat="49.39723" lon="6.25843">
        <ele>146.2002</ele>
        <time>2026-05-20T09:49:23+02:00</time>
      </trkpt>
      <trkpt lat="49.39726" lon="6.25838">
        <ele>146.60059</ele>
        <time>2026-05-20T09:49:24+02:00</time>
      </trkpt>
      <trkpt lat="49.3973" lon="6.25834">
        <ele>147</ele>
        <time>2026-05-20T09:49:25+02:00</time>
      </trkpt>
      <trkpt lat="49.39735" lon="6.25832">
        <ele>147.2998</ele>
        <time>2026-05-20T09:49:26+02:00</time>
      </trkpt>
      <trkpt lat="49.3974" lon="6.25831">
        <ele>147.2998</ele>
        <time>2026-05-20T09:49:27+02:00</time>
      </trkpt>
      <trkpt lat="49.39745" lon="6.25831">
        <ele>147.7002</ele>
        <time>2026-05-20T09:49:28+02:00</time>
      </trkpt>
      <trkpt lat="49.3975" lon="6.25833">
        <ele>148.10059</ele>
        <time>2026-05-20T09:49:29+02:00</time>
      </trkpt>
      <trkpt lat="49.39755" lon="6.25835">
        <ele>148.2998</ele>
        <time>2026-05-20T09:49:30+02:00</time>
      </trkpt>
      <trkpt lat="49.3976" lon="6.25838">
        <ele>148.40039</ele>
        <time>2026-05-20T09:49:31+02:00</time>
      </trkpt>
      <trkpt lat="49.39765" lon="6.25841">
        <ele>148.2998</ele>
        <time>2026-05-20T09:49:32+02:00</time>
      </trkpt>
      <trkpt lat="49.3977" lon="6.25844">
        <ele>148.40039</ele>
        <time>2026-05-20T09:49:33+02:00</time>
      </trkpt>
      <trkpt lat="49.39775" lon="6.25847">
        <ele>148.5</ele>
        <time>2026-05-20T09:49:34+02:00</time>
      </trkpt>
      <trkpt lat="49.3978" lon="6.25849">
        <ele>148.7002</ele>
        <time>2026-05-20T09:49:35+02:00</time>
      </trkpt>
      <trkpt lat="49.39785" lon="6.25852">
        <ele>149.2998</ele>
        <time>2026-05-20T09:49:36+02:00</time>
      </trkpt>
      <trkpt lat="49.3979" lon="6.25855">
        <ele>149.2998</ele>
        <time>2026-05-20T09:49:37+02:00</time>
      </trkpt>
      <trkpt lat="49.39795" lon="6.25858">
        <ele>149.5</ele>
        <time>2026-05-20T09:49:38+02:00</time>
      </trkpt>
      <trkpt lat="49.39801" lon="6.2586">
        <ele>149.7998</ele>
        <time>2026-05-20T09:49:39+02:00</time>
      </trkpt>
      <trkpt lat="49.39806" lon="6.25863">
        <ele>150.2002</ele>
        <time>2026-05-20T09:49:40+02:00</time>
      </trkpt>
      <trkpt lat="49.39811" lon="6.25866">
        <ele>150.60059</ele>
        <time>2026-05-20T09:49:41+02:00</time>
      </trkpt>
      <trkpt lat="49.39817" lon="6.25868">
        <ele>150.90039</ele>
        <time>2026-05-20T09:49:42+02:00</time>
      </trkpt>
      <trkpt lat="49.39822" lon="6.25871">
        <ele>150.7998</ele>
        <time>2026-05-20T09:49:43+02:00</time>
      </trkpt>
      <trkpt lat="49.39827" lon="6.25873">
        <ele>150.7002</ele>
        <time>2026-05-20T09:49:44+02:00</time>
      </trkpt>
      <trkpt lat="49.39832" lon="6.25875">
        <ele>150.40039</ele>
        <time>2026-05-20T09:49:45+02:00</time>
      </trkpt>
      <trkpt lat="49.39838" lon="6.25878">
        <ele>150.2002</ele>
        <time>2026-05-20T09:49:46+02:00</time>
      </trkpt>
      <trkpt lat="49.39844" lon="6.2588">
        <ele>150.2002</ele>
        <time>2026-05-20T09:49:47+02:00</time>
      </trkpt>
      <trkpt lat="49.39849" lon="6.25882">
        <ele>150.2002</ele>
        <time>2026-05-20T09:49:48+02:00</time>
      </trkpt>
      <trkpt lat="49.39855" lon="6.25884">
        <ele>150.40039</ele>
        <time>2026-05-20T09:49:49+02:00</time>
      </trkpt>
      <trkpt lat="49.3986" lon="6.25886">
        <ele>150.7998</ele>
        <time>2026-05-20T09:49:50+02:00</time>
      </trkpt>
      <trkpt lat="49.39865" lon="6.25887">
        <ele>150.7998</ele>
        <time>2026-05-20T09:49:51+02:00</time>
      </trkpt>
      <trkpt lat="49.39871" lon="6.25889">
        <ele>150.90039</ele>
        <time>2026-05-20T09:49:52+02:00</time>
      </trkpt>
      <trkpt lat="49.39876" lon="6.25891">
        <ele>151</ele>
        <time>2026-05-20T09:49:53+02:00</time>
      </trkpt>
      <trkpt lat="49.39882" lon="6.25892">
        <ele>151.10059</ele>
        <time>2026-05-20T09:49:54+02:00</time>
      </trkpt>
      <trkpt lat="49.39887" lon="6.25893">
        <ele>151.2002</ele>
        <time>2026-05-20T09:49:55+02:00</time>
      </trkpt>
      <trkpt lat="49.39893" lon="6.25894">
        <ele>151.2002</ele>
        <time>2026-05-20T09:49:56+02:00</time>
      </trkpt>
      <trkpt lat="49.39898" lon="6.25895">
        <ele>151.2998</ele>
        <time>2026-05-20T09:49:57+02:00</time>
      </trkpt>
      <trkpt lat="49.39904" lon="6.25896">
        <ele>151.40039</ele>
        <time>2026-05-20T09:49:58+02:00</time>
      </trkpt>
      <trkpt lat="49.39909" lon="6.25897">
        <ele>151.40039</ele>
        <time>2026-05-20T09:49:59+02:00</time>
      </trkpt>
      <trkpt lat="49.39915" lon="6.25898">
        <ele>151.5</ele>
        <time>2026-05-20T09:50:00+02:00</time>
      </trkpt>
      <trkpt lat="49.39921" lon="6.25899">
        <ele>151.60059</ele>
        <time>2026-05-20T09:50:01+02:00</time>
      </trkpt>
      <trkpt lat="49.39926" lon="6.25899">
        <ele>151.60059</ele>
        <time>2026-05-20T09:50:02+02:00</time>
      </trkpt>
      <trkpt lat="49.39932" lon="6.259">
        <ele>151.7002</ele>
        <time>2026-05-20T09:50:03+02:00</time>
      </trkpt>
      <trkpt lat="49.39938" lon="6.259">
        <ele>151.7002</ele>
        <time>2026-05-20T09:50:04+02:00</time>
      </trkpt>
      <trkpt lat="49.39943" lon="6.25901">
        <ele>151.7998</ele>
        <time>2026-05-20T09:50:05+02:00</time>
      </trkpt>
      <trkpt lat="49.39948" lon="6.259">
        <ele>151.7998</ele>
        <time>2026-05-20T09:50:06+02:00</time>
      </trkpt>
      <trkpt lat="49.39954" lon="6.259">
        <ele>151.90039</ele>
        <time>2026-05-20T09:50:07+02:00</time>
      </trkpt>
      <trkpt lat="49.39959" lon="6.259">
        <ele>151.90039</ele>
        <time>2026-05-20T09:50:08+02:00</time>
      </trkpt>
      <trkpt lat="49.39965" lon="6.25901">
        <ele>152</ele>
        <time>2026-05-20T09:50:09+02:00</time>
      </trkpt>
      <trkpt lat="49.3997" lon="6.25902">
        <ele>152.10059</ele>
        <time>2026-05-20T09:50:10+02:00</time>
      </trkpt>
      <trkpt lat="49.39975" lon="6.25904">
        <ele>151.90039</ele>
        <time>2026-05-20T09:50:11+02:00</time>
      </trkpt>
      <trkpt lat="49.3998" lon="6.25907">
        <ele>151.90039</ele>
        <time>2026-05-20T09:50:12+02:00</time>
      </trkpt>
      <trkpt lat="49.39985" lon="6.25911">
        <ele>151.7998</ele>
        <time>2026-05-20T09:50:13+02:00</time>
      </trkpt>
      <trkpt lat="49.3999" lon="6.25916">
        <ele>151.40039</ele>
        <time>2026-05-20T09:50:14+02:00</time>
      </trkpt>
      <trkpt lat="49.39994" lon="6.2592">
        <ele>151.10059</ele>
        <time>2026-05-20T09:50:15+02:00</time>
      </trkpt>
      <trkpt lat="49.39999" lon="6.25925">
        <ele>150.60059</ele>
        <time>2026-05-20T09:50:16+02:00</time>
      </trkpt>
      <trkpt lat="49.40004" lon="6.2593">
        <ele>150.10059</ele>
        <time>2026-05-20T09:50:17+02:00</time>
      </trkpt>
      <trkpt lat="49.40009" lon="6.25934">
        <ele>149.7002</ele>
        <time>2026-05-20T09:50:18+02:00</time>
      </trkpt>
      <trkpt lat="49.40014" lon="6.25938">
        <ele>148.7998</ele>
        <time>2026-05-20T09:50:19+02:00</time>
      </trkpt>
      <trkpt lat="49.40019" lon="6.25943">
        <ele>148.7998</ele>
        <time>2026-05-20T09:50:20+02:00</time>
      </trkpt>
      <trkpt lat="49.40024" lon="6.25946">
        <ele>148.10059</ele>
        <time>2026-05-20T09:50:21+02:00</time>
      </trkpt>
      <trkpt lat="49.40029" lon="6.25949">
        <ele>147.5</ele>
        <time>2026-05-20T09:50:22+02:00</time>
      </trkpt>
      <trkpt lat="49.40033" lon="6.25952">
        <ele>147.40039</ele>
        <time>2026-05-20T09:50:23+02:00</time>
      </trkpt>
      <trkpt lat="49.40038" lon="6.25953">
        <ele>147.40039</ele>
        <time>2026-05-20T09:50:24+02:00</time>
      </trkpt>
      <trkpt lat="49.40043" lon="6.25954">
        <ele>147.40039</ele>
        <time>2026-05-20T09:50:25+02:00</time>
      </trkpt>
      <trkpt lat="49.40049" lon="6.25954">
        <ele>147.5</ele>
        <time>2026-05-20T09:50:26+02:00</time>
      </trkpt>
      <trkpt lat="49.40054" lon="6.25954">
        <ele>147.5</ele>
        <time>2026-05-20T09:50:27+02:00</time>
      </trkpt>
      <trkpt lat="49.40059" lon="6.25954">
        <ele>147.5</ele>
        <time>2026-05-20T09:50:28+02:00</time>
      </trkpt>
      <trkpt lat="49.40064" lon="6.25954">
        <ele>147.5</ele>
        <time>2026-05-20T09:50:29+02:00</time>
      </trkpt>
      <trkpt lat="49.40069" lon="6.25954">
        <ele>147.5</ele>
        <time>2026-05-20T09:50:30+02:00</time>
      </trkpt>
      <trkpt lat="49.40075" lon="6.25955">
        <ele>147.5</ele>
        <time>2026-05-20T09:50:31+02:00</time>
      </trkpt>
      <trkpt lat="49.4008" lon="6.25955">
        <ele>147.5</ele>
        <time>2026-05-20T09:50:32+02:00</time>
      </trkpt>
      <trkpt lat="49.40085" lon="6.25955">
        <ele>147.5</ele>
        <time>2026-05-20T09:50:33+02:00</time>
      </trkpt>
      <trkpt lat="49.40091" lon="6.25956">
        <ele>147.5</ele>
        <time>2026-05-20T09:50:34+02:00</time>
      </trkpt>
      <trkpt lat="49.40096" lon="6.25956">
        <ele>147.5</ele>
        <time>2026-05-20T09:50:35+02:00</time>
      </trkpt>
      <trkpt lat="49.40102" lon="6.25956">
        <ele>147.5</ele>
        <time>2026-05-20T09:50:36+02:00</time>
      </trkpt>
      <trkpt lat="49.40107" lon="6.25955">
        <ele>147.5</ele>
        <time>2026-05-20T09:50:37+02:00</time>
      </trkpt>
      <trkpt lat="49.40113" lon="6.25956">
        <ele>147.5</ele>
        <time>2026-05-20T09:50:38+02:00</time>
      </trkpt>
      <trkpt lat="49.40119" lon="6.25956">
        <ele>147.5</ele>
        <time>2026-05-20T09:50:39+02:00</time>
      </trkpt>
      <trkpt lat="49.40125" lon="6.25957">
        <ele>147.5</ele>
        <time>2026-05-20T09:50:40+02:00</time>
      </trkpt>
      <trkpt lat="49.40131" lon="6.25957">
        <ele>147.60059</ele>
        <time>2026-05-20T09:50:41+02:00</time>
      </trkpt>
      <trkpt lat="49.40137" lon="6.25958">
        <ele>147.60059</ele>
        <time>2026-05-20T09:50:42+02:00</time>
      </trkpt>
      <trkpt lat="49.40144" lon="6.25958">
        <ele>147.60059</ele>
        <time>2026-05-20T09:50:43+02:00</time>
      </trkpt>
      <trkpt lat="49.40151" lon="6.25959">
        <ele>147.60059</ele>
        <time>2026-05-20T09:50:44+02:00</time>
      </trkpt>
      <trkpt lat="49.40157" lon="6.2596">
        <ele>147.7002</ele>
        <time>2026-05-20T09:50:45+02:00</time>
      </trkpt>
      <trkpt lat="49.40164" lon="6.25961">
        <ele>147.7002</ele>
        <time>2026-05-20T09:50:46+02:00</time>
      </trkpt>
      <trkpt lat="49.4017" lon="6.25962">
        <ele>147.7002</ele>
        <time>2026-05-20T09:50:47+02:00</time>
      </trkpt>
      <trkpt lat="49.40176" lon="6.25962">
        <ele>147.7002</ele>
        <time>2026-05-20T09:50:48+02:00</time>
      </trkpt>
      <trkpt lat="49.40181" lon="6.25963">
        <ele>147.7002</ele>
        <time>2026-05-20T09:50:49+02:00</time>
      </trkpt>
      <trkpt lat="49.40187" lon="6.25964">
        <ele>147.5</ele>
        <time>2026-05-20T09:50:50+02:00</time>
      </trkpt>
      <trkpt lat="49.40193" lon="6.25966">
        <ele>147.40039</ele>
        <time>2026-05-20T09:50:51+02:00</time>
      </trkpt>
      <trkpt lat="49.40198" lon="6.25968">
        <ele>147.40039</ele>
        <time>2026-05-20T09:50:52+02:00</time>
      </trkpt>
      <trkpt lat="49.40204" lon="6.2597">
        <ele>147.2998</ele>
        <time>2026-05-20T09:50:53+02:00</time>
      </trkpt>
      <trkpt lat="49.40209" lon="6.25972">
        <ele>147.2998</ele>
        <time>2026-05-20T09:50:54+02:00</time>
      </trkpt>
      <trkpt lat="49.40214" lon="6.25974">
        <ele>147.5</ele>
        <time>2026-05-20T09:50:55+02:00</time>
      </trkpt>
      <trkpt lat="49.40219" lon="6.25977">
        <ele>147.7002</ele>
        <time>2026-05-20T09:50:56+02:00</time>
      </trkpt>
      <trkpt lat="49.40225" lon="6.2598">
        <ele>148.10059</ele>
        <time>2026-05-20T09:50:57+02:00</time>
      </trkpt>
      <trkpt lat="49.4023" lon="6.25984">
        <ele>147.90039</ele>
        <time>2026-05-20T09:50:58+02:00</time>
      </trkpt>
      <trkpt lat="49.40235" lon="6.25988">
        <ele>148.2002</ele>
        <time>2026-05-20T09:50:59+02:00</time>
      </trkpt>
      <trkpt lat="49.40239" lon="6.25992">
        <ele>148.10059</ele>
        <time>2026-05-20T09:51:00+02:00</time>
      </trkpt>
      <trkpt lat="49.40243" lon="6.25997">
        <ele>149.10059</ele>
        <time>2026-05-20T09:51:01+02:00</time>
      </trkpt>
      <trkpt lat="49.40246" lon="6.26002">
        <ele>149.10059</ele>
        <time>2026-05-20T09:51:02+02:00</time>
      </trkpt>
      <trkpt lat="49.4025" lon="6.26008">
        <ele>150.2002</ele>
        <time>2026-05-20T09:51:03+02:00</time>
      </trkpt>
      <trkpt lat="49.40252" lon="6.26014">
        <ele>150.2002</ele>
        <time>2026-05-20T09:51:04+02:00</time>
      </trkpt>
      <trkpt lat="49.40255" lon="6.2602">
        <ele>150.60059</ele>
        <time>2026-05-20T09:51:05+02:00</time>
      </trkpt>
      <trkpt lat="49.40259" lon="6.26024">
        <ele>150.5</ele>
        <time>2026-05-20T09:51:06+02:00</time>
      </trkpt>
      <trkpt lat="49.40262" lon="6.26025">
        <ele>150.40039</ele>
        <time>2026-05-20T09:51:07+02:00</time>
      </trkpt>
      <trkpt lat="49.40266" lon="6.26024">
        <ele>150.40039</ele>
        <time>2026-05-20T09:51:08+02:00</time>
      </trkpt>
      <trkpt lat="49.40269" lon="6.26021">
        <ele>150.7002</ele>
        <time>2026-05-20T09:51:09+02:00</time>
      </trkpt>
      <trkpt lat="49.40271" lon="6.26016">
        <ele>150.60059</ele>
        <time>2026-05-20T09:51:10+02:00</time>
      </trkpt>
      <trkpt lat="49.40273" lon="6.26012">
        <ele>151.10059</ele>
        <time>2026-05-20T09:51:11+02:00</time>
      </trkpt>
      <trkpt lat="49.40274" lon="6.26006">
        <ele>151.40039</ele>
        <time>2026-05-20T09:51:12+02:00</time>
      </trkpt>
      <trkpt lat="49.40276" lon="6.26001">
        <ele>151.40039</ele>
        <time>2026-05-20T09:51:13+02:00</time>
      </trkpt>
      <trkpt lat="49.40277" lon="6.25995">
        <ele>151.5</ele>
        <time>2026-05-20T09:51:14+02:00</time>
      </trkpt>
      <trkpt lat="49.40279" lon="6.25988">
        <ele>151.60059</ele>
        <time>2026-05-20T09:51:15+02:00</time>
      </trkpt>
      <trkpt lat="49.4028" lon="6.25982">
        <ele>151.60059</ele>
        <time>2026-05-20T09:51:16+02:00</time>
      </trkpt>
      <trkpt lat="49.40282" lon="6.25976">
        <ele>151.2002</ele>
        <time>2026-05-20T09:51:17+02:00</time>
      </trkpt>
      <trkpt lat="49.40283" lon="6.25969">
        <ele>151.10059</ele>
        <time>2026-05-20T09:51:18+02:00</time>
      </trkpt>
      <trkpt lat="49.40284" lon="6.25962">
        <ele>151</ele>
        <time>2026-05-20T09:51:19+02:00</time>
      </trkpt>
      <trkpt lat="49.40286" lon="6.25955">
        <ele>151</ele>
        <time>2026-05-20T09:51:20+02:00</time>
      </trkpt>
      <trkpt lat="49.40287" lon="6.25949">
        <ele>151</ele>
        <time>2026-05-20T09:51:21+02:00</time>
      </trkpt>
      <trkpt lat="49.40288" lon="6.25942">
        <ele>150.7998</ele>
        <time>2026-05-20T09:51:22+02:00</time>
      </trkpt>
      <trkpt lat="49.40288" lon="6.25935">
        <ele>150.90039</ele>
        <time>2026-05-20T09:51:23+02:00</time>
      </trkpt>
      <trkpt lat="49.40289" lon="6.25927">
        <ele>150.90039</ele>
        <time>2026-05-20T09:51:24+02:00</time>
      </trkpt>
      <trkpt lat="49.4029" lon="6.25921">
        <ele>150.90039</ele>
        <time>2026-05-20T09:51:25+02:00</time>
      </trkpt>
      <trkpt lat="49.40291" lon="6.25914">
        <ele>150.90039</ele>
        <time>2026-05-20T09:51:26+02:00</time>
      </trkpt>
      <trkpt lat="49.40291" lon="6.25907">
        <ele>150.90039</ele>
        <time>2026-05-20T09:51:27+02:00</time>
      </trkpt>
      <trkpt lat="49.40291" lon="6.259">
        <ele>150.90039</ele>
        <time>2026-05-20T09:51:28+02:00</time>
      </trkpt>
      <trkpt lat="49.40292" lon="6.25893">
        <ele>150.90039</ele>
        <time>2026-05-20T09:51:29+02:00</time>
      </trkpt>
      <trkpt lat="49.40292" lon="6.25886">
        <ele>150.90039</ele>
        <time>2026-05-20T09:51:30+02:00</time>
      </trkpt>
      <trkpt lat="49.40292" lon="6.25879">
        <ele>150.90039</ele>
        <time>2026-05-20T09:51:31+02:00</time>
      </trkpt>
      <trkpt lat="49.40292" lon="6.25872">
        <ele>151</ele>
        <time>2026-05-20T09:51:32+02:00</time>
      </trkpt>
      <trkpt lat="49.40291" lon="6.25866">
        <ele>151.10059</ele>
        <time>2026-05-20T09:51:33+02:00</time>
      </trkpt>
      <trkpt lat="49.40291" lon="6.25859">
        <ele>151.10059</ele>
        <time>2026-05-20T09:51:34+02:00</time>
      </trkpt>
      <trkpt lat="49.40291" lon="6.25852">
        <ele>151.10059</ele>
        <time>2026-05-20T09:51:35+02:00</time>
      </trkpt>
      <trkpt lat="49.40291" lon="6.25845">
        <ele>151.10059</ele>
        <time>2026-05-20T09:51:36+02:00</time>
      </trkpt>
      <trkpt lat="49.4029" lon="6.25839">
        <ele>151.10059</ele>
        <time>2026-05-20T09:51:37+02:00</time>
      </trkpt>
      <trkpt lat="49.40289" lon="6.25832">
        <ele>151</ele>
        <time>2026-05-20T09:51:38+02:00</time>
      </trkpt>
      <trkpt lat="49.40288" lon="6.25826">
        <ele>151</ele>
        <time>2026-05-20T09:51:39+02:00</time>
      </trkpt>
      <trkpt lat="49.40288" lon="6.25819">
        <ele>150.7002</ele>
        <time>2026-05-20T09:51:40+02:00</time>
      </trkpt>
      <trkpt lat="49.40287" lon="6.25813">
        <ele>149.7002</ele>
        <time>2026-05-20T09:51:41+02:00</time>
      </trkpt>
      <trkpt lat="49.40286" lon="6.25807">
        <ele>149</ele>
        <time>2026-05-20T09:51:42+02:00</time>
      </trkpt>
      <trkpt lat="49.40286" lon="6.25801">
        <ele>149</ele>
        <time>2026-05-20T09:51:43+02:00</time>
      </trkpt>
      <trkpt lat="49.40285" lon="6.25794">
        <ele>148.2998</ele>
        <time>2026-05-20T09:51:44+02:00</time>
      </trkpt>
      <trkpt lat="49.40284" lon="6.25788">
        <ele>147.60059</ele>
        <time>2026-05-20T09:51:45+02:00</time>
      </trkpt>
      <trkpt lat="49.40283" lon="6.25781">
        <ele>147.2002</ele>
        <time>2026-05-20T09:51:46+02:00</time>
      </trkpt>
      <trkpt lat="49.40283" lon="6.25774">
        <ele>146.7998</ele>
        <time>2026-05-20T09:51:47+02:00</time>
      </trkpt>
      <trkpt lat="49.40282" lon="6.25768">
        <ele>146.7998</ele>
        <time>2026-05-20T09:51:48+02:00</time>
      </trkpt>
      <trkpt lat="49.40281" lon="6.25761">
        <ele>146.2998</ele>
        <time>2026-05-20T09:51:49+02:00</time>
      </trkpt>
      <trkpt lat="49.40281" lon="6.25754">
        <ele>146.10059</ele>
        <time>2026-05-20T09:51:50+02:00</time>
      </trkpt>
      <trkpt lat="49.4028" lon="6.25747">
        <ele>146</ele>
        <time>2026-05-20T09:51:51+02:00</time>
      </trkpt>
      <trkpt lat="49.40279" lon="6.2574">
        <ele>146</ele>
        <time>2026-05-20T09:51:52+02:00</time>
      </trkpt>
      <trkpt lat="49.40279" lon="6.25732">
        <ele>146</ele>
        <time>2026-05-20T09:51:53+02:00</time>
      </trkpt>
      <trkpt lat="49.40278" lon="6.25725">
        <ele>145.90039</ele>
        <time>2026-05-20T09:51:54+02:00</time>
      </trkpt>
      <trkpt lat="49.40277" lon="6.25718">
        <ele>145.90039</ele>
        <time>2026-05-20T09:51:55+02:00</time>
      </trkpt>
      <trkpt lat="49.40276" lon="6.2571">
        <ele>145.90039</ele>
        <time>2026-05-20T09:51:56+02:00</time>
      </trkpt>
      <trkpt lat="49.40276" lon="6.25703">
        <ele>145.90039</ele>
        <time>2026-05-20T09:51:57+02:00</time>
      </trkpt>
      <trkpt lat="49.40275" lon="6.25696">
        <ele>145.90039</ele>
        <time>2026-05-20T09:51:58+02:00</time>
      </trkpt>
      <trkpt lat="49.40275" lon="6.25688">
        <ele>145.90039</ele>
        <time>2026-05-20T09:51:59+02:00</time>
      </trkpt>
      <trkpt lat="49.40274" lon="6.25681">
        <ele>145.90039</ele>
        <time>2026-05-20T09:52:00+02:00</time>
      </trkpt>
      <trkpt lat="49.40273" lon="6.25673">
        <ele>145.90039</ele>
        <time>2026-05-20T09:52:01+02:00</time>
      </trkpt>
      <trkpt lat="49.40272" lon="6.25666">
        <ele>145.90039</ele>
        <time>2026-05-20T09:52:02+02:00</time>
      </trkpt>
      <trkpt lat="49.40272" lon="6.25659">
        <ele>145.90039</ele>
        <time>2026-05-20T09:52:03+02:00</time>
      </trkpt>
      <trkpt lat="49.40271" lon="6.25652">
        <ele>145.90039</ele>
        <time>2026-05-20T09:52:04+02:00</time>
      </trkpt>
      <trkpt lat="49.4027" lon="6.25644">
        <ele>145.90039</ele>
        <time>2026-05-20T09:52:05+02:00</time>
      </trkpt>
      <trkpt lat="49.40269" lon="6.25637">
        <ele>145.7998</ele>
        <time>2026-05-20T09:52:06+02:00</time>
      </trkpt>
      <trkpt lat="49.40268" lon="6.2563">
        <ele>145.7998</ele>
        <time>2026-05-20T09:52:07+02:00</time>
      </trkpt>
      <trkpt lat="49.40268" lon="6.25624">
        <ele>145.7002</ele>
        <time>2026-05-20T09:52:08+02:00</time>
      </trkpt>
      <trkpt lat="49.40267" lon="6.25617">
        <ele>145.90039</ele>
        <time>2026-05-20T09:52:09+02:00</time>
      </trkpt>
      <trkpt lat="49.40267" lon="6.2561">
        <ele>146.2002</ele>
        <time>2026-05-20T09:52:10+02:00</time>
      </trkpt>
      <trkpt lat="49.40266" lon="6.25603">
        <ele>146.2002</ele>
        <time>2026-05-20T09:52:11+02:00</time>
      </trkpt>
      <trkpt lat="49.40265" lon="6.25595">
        <ele>146.90039</ele>
        <time>2026-05-20T09:52:12+02:00</time>
      </trkpt>
      <trkpt lat="49.40264" lon="6.25588">
        <ele>147.7998</ele>
        <time>2026-05-20T09:52:13+02:00</time>
      </trkpt>
      <trkpt lat="49.40263" lon="6.2558">
        <ele>148.60059</ele>
        <time>2026-05-20T09:52:14+02:00</time>
      </trkpt>
      <trkpt lat="49.40262" lon="6.25572">
        <ele>149.5</ele>
        <time>2026-05-20T09:52:15+02:00</time>
      </trkpt>
      <trkpt lat="49.40261" lon="6.25564">
        <ele>150.40039</ele>
        <time>2026-05-20T09:52:16+02:00</time>
      </trkpt>
      <trkpt lat="49.4026" lon="6.25555">
        <ele>151.2998</ele>
        <time>2026-05-20T09:52:17+02:00</time>
      </trkpt>
      <trkpt lat="49.40259" lon="6.25547">
        <ele>152.10059</ele>
        <time>2026-05-20T09:52:18+02:00</time>
      </trkpt>
      <trkpt lat="49.40258" lon="6.25539">
        <ele>152.60059</ele>
        <time>2026-05-20T09:52:19+02:00</time>
      </trkpt>
      <trkpt lat="49.40257" lon="6.25531">
        <ele>153</ele>
        <time>2026-05-20T09:52:20+02:00</time>
      </trkpt>
      <trkpt lat="49.40255" lon="6.25524">
        <ele>153.2002</ele>
        <time>2026-05-20T09:52:21+02:00</time>
      </trkpt>
      <trkpt lat="49.40252" lon="6.25519">
        <ele>153.2998</ele>
        <time>2026-05-20T09:52:22+02:00</time>
      </trkpt>
      <trkpt lat="49.40248" lon="6.25516">
        <ele>153.5</ele>
        <time>2026-05-20T09:52:23+02:00</time>
      </trkpt>
      <trkpt lat="49.40243" lon="6.25515">
        <ele>153.5</ele>
        <time>2026-05-20T09:52:24+02:00</time>
      </trkpt>
      <trkpt lat="49.40238" lon="6.25516">
        <ele>153.40039</ele>
        <time>2026-05-20T09:52:25+02:00</time>
      </trkpt>
      <trkpt lat="49.40234" lon="6.25517">
        <ele>153.2002</ele>
        <time>2026-05-20T09:52:26+02:00</time>
      </trkpt>
      <trkpt lat="49.4023" lon="6.25519">
        <ele>153</ele>
        <time>2026-05-20T09:52:27+02:00</time>
      </trkpt>
      <trkpt lat="49.40227" lon="6.2552">
        <ele>153</ele>
        <time>2026-05-20T09:52:28+02:00</time>
      </trkpt>
      <trkpt lat="49.40225" lon="6.25523">
        <ele>152.90039</ele>
        <time>2026-05-20T09:52:29+02:00</time>
      </trkpt>
      <trkpt lat="49.40225" lon="6.25526">
        <ele>152.7002</ele>
        <time>2026-05-20T09:52:30+02:00</time>
      </trkpt>
      <trkpt lat="49.40224" lon="6.25527">
        <ele>152.7002</ele>
        <time>2026-05-20T09:52:31+02:00</time>
      </trkpt>
      <trkpt lat="49.40224" lon="6.25527">
        <ele>152.7002</ele>
        <time>2026-05-20T09:52:32+02:00</time>
      </trkpt>
      <trkpt lat="49.40224" lon="6.25527">
        <ele>152.7002</ele>
        <time>2026-05-20T09:52:33+02:00</time>
      </trkpt>
      <trkpt lat="49.40224" lon="6.25527">
        <ele>152.7002</ele>
        <time>2026-05-20T09:52:34+02:00</time>
      </trkpt>
      <trkpt lat="49.40224" lon="6.25527">
        <ele>152.7002</ele>
        <time>2026-05-20T09:52:35+02:00</time>
      </trkpt>
      <trkpt lat="49.40218" lon="6.25526">
        <ele>152.60059</ele>
        <time>2026-05-20T09:52:36+02:00</time>
      </trkpt>
      <trkpt lat="49.40205" lon="6.25531">
        <ele>152.40039</ele>
        <time>2026-05-20T09:52:40+02:00</time>
      </trkpt>
      <trkpt lat="49.40201" lon="6.25532">
        <ele>152.2002</ele>
        <time>2026-05-20T09:52:41+02:00</time>
      </trkpt>
      <trkpt lat="49.40198" lon="6.25534">
        <ele>152.10059</ele>
        <time>2026-05-20T09:52:42+02:00</time>
      </trkpt>
      <trkpt lat="49.40194" lon="6.25535">
        <ele>151.90039</ele>
        <time>2026-05-20T09:52:43+02:00</time>
      </trkpt>
      <trkpt lat="49.4019" lon="6.25537">
        <ele>151.7998</ele>
        <time>2026-05-20T09:52:44+02:00</time>
      </trkpt>
      <trkpt lat="49.40185" lon="6.25539">
        <ele>151.7002</ele>
        <time>2026-05-20T09:52:45+02:00</time>
      </trkpt>
      <trkpt lat="49.4018" lon="6.2554">
        <ele>151.60059</ele>
        <time>2026-05-20T09:52:46+02:00</time>
      </trkpt>
      <trkpt lat="49.40176" lon="6.25541">
        <ele>151.60059</ele>
        <time>2026-05-20T09:52:47+02:00</time>
      </trkpt>
      <trkpt lat="49.40171" lon="6.25541">
        <ele>151.5</ele>
        <time>2026-05-20T09:52:48+02:00</time>
      </trkpt>
      <trkpt lat="49.40165" lon="6.2554">
        <ele>151.40039</ele>
        <time>2026-05-20T09:52:49+02:00</time>
      </trkpt>
      <trkpt lat="49.40161" lon="6.2554">
        <ele>151.2998</ele>
        <time>2026-05-20T09:52:50+02:00</time>
      </trkpt>
      <trkpt lat="49.40155" lon="6.25539">
        <ele>151.10059</ele>
        <time>2026-05-20T09:52:51+02:00</time>
      </trkpt>
      <trkpt lat="49.4015" lon="6.25539">
        <ele>151</ele>
        <time>2026-05-20T09:52:52+02:00</time>
      </trkpt>
      <trkpt lat="49.40144" lon="6.25538">
        <ele>150.90039</ele>
        <time>2026-05-20T09:52:53+02:00</time>
      </trkpt>
      <trkpt lat="49.40139" lon="6.25537">
        <ele>150.7002</ele>
        <time>2026-05-20T09:52:54+02:00</time>
      </trkpt>
      <trkpt lat="49.40133" lon="6.25536">
        <ele>150.5</ele>
        <time>2026-05-20T09:52:55+02:00</time>
      </trkpt>
      <trkpt lat="49.40128" lon="6.25536">
        <ele>150.2998</ele>
        <time>2026-05-20T09:52:56+02:00</time>
      </trkpt>
      <trkpt lat="49.40122" lon="6.25536">
        <ele>150.2002</ele>
        <time>2026-05-20T09:52:57+02:00</time>
      </trkpt>
      <trkpt lat="49.40117" lon="6.25537">
        <ele>150.10059</ele>
        <time>2026-05-20T09:52:58+02:00</time>
      </trkpt>
      <trkpt lat="49.40111" lon="6.25538">
        <ele>150</ele>
        <time>2026-05-20T09:52:59+02:00</time>
      </trkpt>
      <trkpt lat="49.40106" lon="6.25541">
        <ele>149.90039</ele>
        <time>2026-05-20T09:53:00+02:00</time>
      </trkpt>
      <trkpt lat="49.40101" lon="6.25544">
        <ele>150.2998</ele>
        <time>2026-05-20T09:53:01+02:00</time>
      </trkpt>
      <trkpt lat="49.40096" lon="6.25546">
        <ele>150.2002</ele>
        <time>2026-05-20T09:53:02+02:00</time>
      </trkpt>
      <trkpt lat="49.40091" lon="6.25549">
        <ele>150.10059</ele>
        <time>2026-05-20T09:53:03+02:00</time>
      </trkpt>
      <trkpt lat="49.40087" lon="6.25551">
        <ele>150.10059</ele>
        <time>2026-05-20T09:53:04+02:00</time>
      </trkpt>
      <trkpt lat="49.40083" lon="6.25553">
        <ele>150.2002</ele>
        <time>2026-05-20T09:53:05+02:00</time>
      </trkpt>
      <trkpt lat="49.40079" lon="6.25555">
        <ele>149.7998</ele>
        <time>2026-05-20T09:53:06+02:00</time>
      </trkpt>
      <trkpt lat="49.40076" lon="6.25557">
        <ele>149.7998</ele>
        <time>2026-05-20T09:53:07+02:00</time>
      </trkpt>
      <trkpt lat="49.40073" lon="6.25559">
        <ele>149.2998</ele>
        <time>2026-05-20T09:53:08+02:00</time>
      </trkpt>
      <trkpt lat="49.40071" lon="6.25563">
        <ele>149.10059</ele>
        <time>2026-05-20T09:53:09+02:00</time>
      </trkpt>
      <trkpt lat="49.40071" lon="6.25568">
        <ele>149.10059</ele>
        <time>2026-05-20T09:53:10+02:00</time>
      </trkpt>
      <trkpt lat="49.40071" lon="6.25573">
        <ele>148.90039</ele>
        <time>2026-05-20T09:53:11+02:00</time>
      </trkpt>
      <trkpt lat="49.40071" lon="6.25578">
        <ele>148.60059</ele>
        <time>2026-05-20T09:53:12+02:00</time>
      </trkpt>
      <trkpt lat="49.40071" lon="6.25584">
        <ele>148.60059</ele>
        <time>2026-05-20T09:53:13+02:00</time>
      </trkpt>
      <trkpt lat="49.40072" lon="6.2559">
        <ele>148.2002</ele>
        <time>2026-05-20T09:53:14+02:00</time>
      </trkpt>
      <trkpt lat="49.40072" lon="6.25597">
        <ele>147.7998</ele>
        <time>2026-05-20T09:53:15+02:00</time>
      </trkpt>
      <trkpt lat="49.40072" lon="6.25604">
        <ele>147.2002</ele>
        <time>2026-05-20T09:53:16+02:00</time>
      </trkpt>
      <trkpt lat="49.40073" lon="6.2561">
        <ele>147.2002</ele>
        <time>2026-05-20T09:53:17+02:00</time>
      </trkpt>
      <trkpt lat="49.40073" lon="6.25616">
        <ele>146.5</ele>
        <time>2026-05-20T09:53:18+02:00</time>
      </trkpt>
      <trkpt lat="49.40072" lon="6.25622">
        <ele>146.10059</ele>
        <time>2026-05-20T09:53:19+02:00</time>
      </trkpt>
      <trkpt lat="49.40072" lon="6.25626">
        <ele>146.10059</ele>
        <time>2026-05-20T09:53:20+02:00</time>
      </trkpt>
      <trkpt lat="49.4007" lon="6.2563">
        <ele>145.90039</ele>
        <time>2026-05-20T09:53:21+02:00</time>
      </trkpt>
      <trkpt lat="49.40069" lon="6.25634">
        <ele>145.90039</ele>
        <time>2026-05-20T09:53:22+02:00</time>
      </trkpt>
      <trkpt lat="49.40066" lon="6.25637">
        <ele>145.90039</ele>
        <time>2026-05-20T09:53:23+02:00</time>
      </trkpt>
      <trkpt lat="49.40063" lon="6.2564">
        <ele>145.7998</ele>
        <time>2026-05-20T09:53:24+02:00</time>
      </trkpt>
      <trkpt lat="49.4006" lon="6.25641">
        <ele>145.7998</ele>
        <time>2026-05-20T09:53:25+02:00</time>
      </trkpt>
      <trkpt lat="49.40056" lon="6.25643">
        <ele>145.7998</ele>
        <time>2026-05-20T09:53:26+02:00</time>
      </trkpt>
      <trkpt lat="49.40052" lon="6.25644">
        <ele>145.7998</ele>
        <time>2026-05-20T09:53:27+02:00</time>
      </trkpt>
      <trkpt lat="49.40048" lon="6.25645">
        <ele>145.7998</ele>
        <time>2026-05-20T09:53:28+02:00</time>
      </trkpt>
      <trkpt lat="49.40043" lon="6.25646">
        <ele>145.7998</ele>
        <time>2026-05-20T09:53:29+02:00</time>
      </trkpt>
      <trkpt lat="49.40037" lon="6.25647">
        <ele>145.7998</ele>
        <time>2026-05-20T09:53:30+02:00</time>
      </trkpt>
      <trkpt lat="49.4003" lon="6.25649">
        <ele>145.7998</ele>
        <time>2026-05-20T09:53:31+02:00</time>
      </trkpt>
      <trkpt lat="49.40024" lon="6.25651">
        <ele>145.7998</ele>
        <time>2026-05-20T09:53:32+02:00</time>
      </trkpt>
      <trkpt lat="49.40018" lon="6.25654">
        <ele>145.90039</ele>
        <time>2026-05-20T09:53:33+02:00</time>
      </trkpt>
      <trkpt lat="49.40012" lon="6.25656">
        <ele>145.90039</ele>
        <time>2026-05-20T09:53:34+02:00</time>
      </trkpt>
      <trkpt lat="49.40005" lon="6.25658">
        <ele>145.90039</ele>
        <time>2026-05-20T09:53:35+02:00</time>
      </trkpt>
      <trkpt lat="49.39999" lon="6.25659">
        <ele>145.90039</ele>
        <time>2026-05-20T09:53:36+02:00</time>
      </trkpt>
      <trkpt lat="49.39993" lon="6.25658">
        <ele>145.90039</ele>
        <time>2026-05-20T09:53:37+02:00</time>
      </trkpt>
      <trkpt lat="49.39988" lon="6.25657">
        <ele>145.90039</ele>
        <time>2026-05-20T09:53:38+02:00</time>
      </trkpt>
      <trkpt lat="49.39983" lon="6.25655">
        <ele>145.90039</ele>
        <time>2026-05-20T09:53:39+02:00</time>
      </trkpt>
      <trkpt lat="49.39977" lon="6.25653">
        <ele>145.90039</ele>
        <time>2026-05-20T09:53:40+02:00</time>
      </trkpt>
      <trkpt lat="49.39972" lon="6.25651">
        <ele>145.90039</ele>
        <time>2026-05-20T09:53:41+02:00</time>
      </trkpt>
      <trkpt lat="49.39967" lon="6.2565">
        <ele>145.90039</ele>
        <time>2026-05-20T09:53:42+02:00</time>
      </trkpt>
      <trkpt lat="49.39962" lon="6.25649">
        <ele>145.90039</ele>
        <time>2026-05-20T09:53:43+02:00</time>
      </trkpt>
      <trkpt lat="49.39956" lon="6.25649">
        <ele>145.90039</ele>
        <time>2026-05-20T09:53:44+02:00</time>
      </trkpt>
      <trkpt lat="49.39951" lon="6.2565">
        <ele>145.90039</ele>
        <time>2026-05-20T09:53:45+02:00</time>
      </trkpt>
      <trkpt lat="49.39946" lon="6.25651">
        <ele>145.90039</ele>
        <time>2026-05-20T09:53:46+02:00</time>
      </trkpt>
      <trkpt lat="49.3994" lon="6.25653">
        <ele>145.90039</ele>
        <time>2026-05-20T09:53:47+02:00</time>
      </trkpt>
      <trkpt lat="49.39936" lon="6.25655">
        <ele>145.90039</ele>
        <time>2026-05-20T09:53:48+02:00</time>
      </trkpt>
      <trkpt lat="49.39931" lon="6.25657">
        <ele>145.90039</ele>
        <time>2026-05-20T09:53:49+02:00</time>
      </trkpt>
      <trkpt lat="49.39926" lon="6.2566">
        <ele>145.90039</ele>
        <time>2026-05-20T09:53:50+02:00</time>
      </trkpt>
      <trkpt lat="49.39921" lon="6.25662">
        <ele>145.90039</ele>
        <time>2026-05-20T09:53:51+02:00</time>
      </trkpt>
      <trkpt lat="49.39916" lon="6.25664">
        <ele>145.90039</ele>
        <time>2026-05-20T09:53:52+02:00</time>
      </trkpt>
      <trkpt lat="49.3991" lon="6.25666">
        <ele>145.90039</ele>
        <time>2026-05-20T09:53:53+02:00</time>
      </trkpt>
      <trkpt lat="49.39905" lon="6.25668">
        <ele>145.90039</ele>
        <time>2026-05-20T09:53:54+02:00</time>
      </trkpt>
      <trkpt lat="49.39899" lon="6.25668">
        <ele>145.90039</ele>
        <time>2026-05-20T09:53:55+02:00</time>
      </trkpt>
      <trkpt lat="49.39893" lon="6.25668">
        <ele>145.90039</ele>
        <time>2026-05-20T09:53:56+02:00</time>
      </trkpt>
      <trkpt lat="49.39888" lon="6.25668">
        <ele>145.90039</ele>
        <time>2026-05-20T09:53:57+02:00</time>
      </trkpt>
      <trkpt lat="49.39882" lon="6.25667">
        <ele>145.90039</ele>
        <time>2026-05-20T09:53:58+02:00</time>
      </trkpt>
      <trkpt lat="49.39877" lon="6.25665">
        <ele>145.90039</ele>
        <time>2026-05-20T09:53:59+02:00</time>
      </trkpt>
      <trkpt lat="49.39871" lon="6.25663">
        <ele>145.90039</ele>
        <time>2026-05-20T09:54:00+02:00</time>
      </trkpt>
      <trkpt lat="49.39866" lon="6.2566">
        <ele>145.90039</ele>
        <time>2026-05-20T09:54:01+02:00</time>
      </trkpt>
      <trkpt lat="49.39861" lon="6.25657">
        <ele>145.90039</ele>
        <time>2026-05-20T09:54:02+02:00</time>
      </trkpt>
      <trkpt lat="49.39855" lon="6.25654">
        <ele>145.90039</ele>
        <time>2026-05-20T09:54:03+02:00</time>
      </trkpt>
      <trkpt lat="49.3985" lon="6.25651">
        <ele>145.90039</ele>
        <time>2026-05-20T09:54:04+02:00</time>
      </trkpt>
      <trkpt lat="49.39845" lon="6.25648">
        <ele>145.90039</ele>
        <time>2026-05-20T09:54:05+02:00</time>
      </trkpt>
      <trkpt lat="49.3984" lon="6.25645">
        <ele>145.90039</ele>
        <time>2026-05-20T09:54:06+02:00</time>
      </trkpt>
      <trkpt lat="49.39835" lon="6.25642">
        <ele>145.90039</ele>
        <time>2026-05-20T09:54:07+02:00</time>
      </trkpt>
      <trkpt lat="49.3983" lon="6.25638">
        <ele>145.90039</ele>
        <time>2026-05-20T09:54:08+02:00</time>
      </trkpt>
      <trkpt lat="49.39824" lon="6.25635">
        <ele>145.7998</ele>
        <time>2026-05-20T09:54:09+02:00</time>
      </trkpt>
      <trkpt lat="49.39819" lon="6.25632">
        <ele>145.7998</ele>
        <time>2026-05-20T09:54:10+02:00</time>
      </trkpt>
      <trkpt lat="49.39814" lon="6.25628">
        <ele>145.90039</ele>
        <time>2026-05-20T09:54:11+02:00</time>
      </trkpt>
      <trkpt lat="49.39809" lon="6.25625">
        <ele>145.90039</ele>
        <time>2026-05-20T09:54:12+02:00</time>
      </trkpt>
      <trkpt lat="49.39804" lon="6.25621">
        <ele>145.90039</ele>
        <time>2026-05-20T09:54:13+02:00</time>
      </trkpt>
      <trkpt lat="49.39799" lon="6.25617">
        <ele>145.90039</ele>
        <time>2026-05-20T09:54:14+02:00</time>
      </trkpt>
      <trkpt lat="49.39794" lon="6.25613">
        <ele>145.90039</ele>
        <time>2026-05-20T09:54:15+02:00</time>
      </trkpt>
      <trkpt lat="49.39789" lon="6.2561">
        <ele>145.7998</ele>
        <time>2026-05-20T09:54:16+02:00</time>
      </trkpt>
      <trkpt lat="49.39784" lon="6.25606">
        <ele>145.7998</ele>
        <time>2026-05-20T09:54:17+02:00</time>
      </trkpt>
      <trkpt lat="49.39779" lon="6.25602">
        <ele>145.7002</ele>
        <time>2026-05-20T09:54:18+02:00</time>
      </trkpt>
      <trkpt lat="49.39774" lon="6.25598">
        <ele>145.7002</ele>
        <time>2026-05-20T09:54:19+02:00</time>
      </trkpt>
      <trkpt lat="49.39769" lon="6.25593">
        <ele>145.7998</ele>
        <time>2026-05-20T09:54:20+02:00</time>
      </trkpt>
      <trkpt lat="49.39764" lon="6.25589">
        <ele>145.7998</ele>
        <time>2026-05-20T09:54:21+02:00</time>
      </trkpt>
      <trkpt lat="49.39759" lon="6.25585">
        <ele>146</ele>
        <time>2026-05-20T09:54:22+02:00</time>
      </trkpt>
      <trkpt lat="49.39754" lon="6.25581">
        <ele>145.90039</ele>
        <time>2026-05-20T09:54:23+02:00</time>
      </trkpt>
      <trkpt lat="49.39749" lon="6.25577">
        <ele>145.90039</ele>
        <time>2026-05-20T09:54:24+02:00</time>
      </trkpt>
      <trkpt lat="49.39744" lon="6.25572">
        <ele>145.7002</ele>
        <time>2026-05-20T09:54:25+02:00</time>
      </trkpt>
      <trkpt lat="49.39739" lon="6.25568">
        <ele>145.60059</ele>
        <time>2026-05-20T09:54:26+02:00</time>
      </trkpt>
      <trkpt lat="49.39734" lon="6.25564">
        <ele>145.60059</ele>
        <time>2026-05-20T09:54:27+02:00</time>
      </trkpt>
      <trkpt lat="49.39729" lon="6.2556">
        <ele>145.7002</ele>
        <time>2026-05-20T09:54:28+02:00</time>
      </trkpt>
      <trkpt lat="49.39724" lon="6.25556">
        <ele>145.90039</ele>
        <time>2026-05-20T09:54:29+02:00</time>
      </trkpt>
      <trkpt lat="49.39719" lon="6.25552">
        <ele>145.90039</ele>
        <time>2026-05-20T09:54:30+02:00</time>
      </trkpt>
      <trkpt lat="49.39715" lon="6.25548">
        <ele>146.10059</ele>
        <time>2026-05-20T09:54:31+02:00</time>
      </trkpt>
      <trkpt lat="49.3971" lon="6.25543">
        <ele>146</ele>
        <time>2026-05-20T09:54:32+02:00</time>
      </trkpt>
      <trkpt lat="49.39705" lon="6.25539">
        <ele>145.7998</ele>
        <time>2026-05-20T09:54:33+02:00</time>
      </trkpt>
      <trkpt lat="49.397" lon="6.25534">
        <ele>145.7002</ele>
        <time>2026-05-20T09:54:34+02:00</time>
      </trkpt>
      <trkpt lat="49.39696" lon="6.2553">
        <ele>145.7002</ele>
        <time>2026-05-20T09:54:35+02:00</time>
      </trkpt>
      <trkpt lat="49.39691" lon="6.25525">
        <ele>145.7002</ele>
        <time>2026-05-20T09:54:36+02:00</time>
      </trkpt>
      <trkpt lat="49.39686" lon="6.2552">
        <ele>145.7998</ele>
        <time>2026-05-20T09:54:37+02:00</time>
      </trkpt>
      <trkpt lat="49.39682" lon="6.25515">
        <ele>145.90039</ele>
        <time>2026-05-20T09:54:38+02:00</time>
      </trkpt>
      <trkpt lat="49.39677" lon="6.2551">
        <ele>145.90039</ele>
        <time>2026-05-20T09:54:39+02:00</time>
      </trkpt>
      <trkpt lat="49.39673" lon="6.25504">
        <ele>145.7002</ele>
        <time>2026-05-20T09:54:40+02:00</time>
      </trkpt>
      <trkpt lat="49.39668" lon="6.25499">
        <ele>145.7002</ele>
        <time>2026-05-20T09:54:41+02:00</time>
      </trkpt>
      <trkpt lat="49.39663" lon="6.25493">
        <ele>145.7002</ele>
        <time>2026-05-20T09:54:42+02:00</time>
      </trkpt>
      <trkpt lat="49.39659" lon="6.25488">
        <ele>145.90039</ele>
        <time>2026-05-20T09:54:43+02:00</time>
      </trkpt>
      <trkpt lat="49.39655" lon="6.25482">
        <ele>145.90039</ele>
        <time>2026-05-20T09:54:44+02:00</time>
      </trkpt>
      <trkpt lat="49.3965" lon="6.25476">
        <ele>145.90039</ele>
        <time>2026-05-20T09:54:45+02:00</time>
      </trkpt>
      <trkpt lat="49.39646" lon="6.2547">
        <ele>145.7998</ele>
        <time>2026-05-20T09:54:46+02:00</time>
      </trkpt>
      <trkpt lat="49.39642" lon="6.25464">
        <ele>145.7998</ele>
        <time>2026-05-20T09:54:47+02:00</time>
      </trkpt>
      <trkpt lat="49.39638" lon="6.25458">
        <ele>145.90039</ele>
        <time>2026-05-20T09:54:48+02:00</time>
      </trkpt>
      <trkpt lat="49.39634" lon="6.25452">
        <ele>145.90039</ele>
        <time>2026-05-20T09:54:49+02:00</time>
      </trkpt>
      <trkpt lat="49.3963" lon="6.25446">
        <ele>145.90039</ele>
        <time>2026-05-20T09:54:50+02:00</time>
      </trkpt>
      <trkpt lat="49.39626" lon="6.2544">
        <ele>145.90039</ele>
        <time>2026-05-20T09:54:51+02:00</time>
      </trkpt>
      <trkpt lat="49.39622" lon="6.25433">
        <ele>145.7998</ele>
        <time>2026-05-20T09:54:52+02:00</time>
      </trkpt>
      <trkpt lat="49.39618" lon="6.25427">
        <ele>145.7998</ele>
        <time>2026-05-20T09:54:53+02:00</time>
      </trkpt>
      <trkpt lat="49.39614" lon="6.2542">
        <ele>145.90039</ele>
        <time>2026-05-20T09:54:54+02:00</time>
      </trkpt>
      <trkpt lat="49.3961" lon="6.25414">
        <ele>145.90039</ele>
        <time>2026-05-20T09:54:55+02:00</time>
      </trkpt>
      <trkpt lat="49.39607" lon="6.25408">
        <ele>145.90039</ele>
        <time>2026-05-20T09:54:56+02:00</time>
      </trkpt>
      <trkpt lat="49.39604" lon="6.25402">
        <ele>145.90039</ele>
        <time>2026-05-20T09:54:57+02:00</time>
      </trkpt>
      <trkpt lat="49.396" lon="6.25396">
        <ele>145.90039</ele>
        <time>2026-05-20T09:54:58+02:00</time>
      </trkpt>
      <trkpt lat="49.39597" lon="6.25389">
        <ele>145.90039</ele>
        <time>2026-05-20T09:54:59+02:00</time>
      </trkpt>
      <trkpt lat="49.39594" lon="6.25383">
        <ele>145.90039</ele>
        <time>2026-05-20T09:55:00+02:00</time>
      </trkpt>
      <trkpt lat="49.39591" lon="6.25377">
        <ele>146</ele>
        <time>2026-05-20T09:55:01+02:00</time>
      </trkpt>
      <trkpt lat="49.39588" lon="6.25371">
        <ele>146</ele>
        <time>2026-05-20T09:55:02+02:00</time>
      </trkpt>
      <trkpt lat="49.39584" lon="6.25364">
        <ele>146</ele>
        <time>2026-05-20T09:55:03+02:00</time>
      </trkpt>
      <trkpt lat="49.39581" lon="6.25358">
        <ele>145.90039</ele>
        <time>2026-05-20T09:55:04+02:00</time>
      </trkpt>
      <trkpt lat="49.39578" lon="6.25351">
        <ele>145.90039</ele>
        <time>2026-05-20T09:55:05+02:00</time>
      </trkpt>
      <trkpt lat="49.39575" lon="6.25345">
        <ele>145.7998</ele>
        <time>2026-05-20T09:55:06+02:00</time>
      </trkpt>
      <trkpt lat="49.39572" lon="6.25339">
        <ele>145.90039</ele>
        <time>2026-05-20T09:55:07+02:00</time>
      </trkpt>
      <trkpt lat="49.39569" lon="6.25333">
        <ele>145.7998</ele>
        <time>2026-05-20T09:55:08+02:00</time>
      </trkpt>
      <trkpt lat="49.39567" lon="6.25327">
        <ele>145.90039</ele>
        <time>2026-05-20T09:55:09+02:00</time>
      </trkpt>
      <trkpt lat="49.39565" lon="6.25321">
        <ele>145.90039</ele>
        <time>2026-05-20T09:55:10+02:00</time>
      </trkpt>
      <trkpt lat="49.39562" lon="6.25315">
        <ele>145.90039</ele>
        <time>2026-05-20T09:55:11+02:00</time>
      </trkpt>
      <trkpt lat="49.3956" lon="6.25309">
        <ele>145.90039</ele>
        <time>2026-05-20T09:55:12+02:00</time>
      </trkpt>
      <trkpt lat="49.39557" lon="6.25303">
        <ele>145.90039</ele>
        <time>2026-05-20T09:55:13+02:00</time>
      </trkpt>
      <trkpt lat="49.39554" lon="6.25297">
        <ele>145.90039</ele>
        <time>2026-05-20T09:55:14+02:00</time>
      </trkpt>
      <trkpt lat="49.39552" lon="6.2529">
        <ele>145.90039</ele>
        <time>2026-05-20T09:55:15+02:00</time>
      </trkpt>
      <trkpt lat="49.39551" lon="6.25283">
        <ele>145.90039</ele>
        <time>2026-05-20T09:55:16+02:00</time>
      </trkpt>
      <trkpt lat="49.39549" lon="6.25277">
        <ele>145.90039</ele>
        <time>2026-05-20T09:55:17+02:00</time>
      </trkpt>
      <trkpt lat="49.39547" lon="6.25271">
        <ele>145.7998</ele>
        <time>2026-05-20T09:55:18+02:00</time>
      </trkpt>
      <trkpt lat="49.39545" lon="6.25265">
        <ele>145.7998</ele>
        <time>2026-05-20T09:55:19+02:00</time>
      </trkpt>
      <trkpt lat="49.39543" lon="6.25258">
        <ele>145.90039</ele>
        <time>2026-05-20T09:55:20+02:00</time>
      </trkpt>
      <trkpt lat="49.39541" lon="6.25252">
        <ele>145.90039</ele>
        <time>2026-05-20T09:55:21+02:00</time>
      </trkpt>
      <trkpt lat="49.39539" lon="6.25245">
        <ele>145.90039</ele>
        <time>2026-05-20T09:55:22+02:00</time>
      </trkpt>
      <trkpt lat="49.39536" lon="6.25237">
        <ele>145.90039</ele>
        <time>2026-05-20T09:55:23+02:00</time>
      </trkpt>
      <trkpt lat="49.39534" lon="6.25231">
        <ele>145.90039</ele>
        <time>2026-05-20T09:55:24+02:00</time>
      </trkpt>
      <trkpt lat="49.39532" lon="6.25225">
        <ele>145.90039</ele>
        <time>2026-05-20T09:55:25+02:00</time>
      </trkpt>
      <trkpt lat="49.3953" lon="6.25218">
        <ele>145.90039</ele>
        <time>2026-05-20T09:55:26+02:00</time>
      </trkpt>
      <trkpt lat="49.39528" lon="6.25212">
        <ele>145.90039</ele>
        <time>2026-05-20T09:55:27+02:00</time>
      </trkpt>
      <trkpt lat="49.39528" lon="6.25206">
        <ele>145.90039</ele>
        <time>2026-05-20T09:55:28+02:00</time>
      </trkpt>
      <trkpt lat="49.39528" lon="6.252">
        <ele>145.90039</ele>
        <time>2026-05-20T09:55:29+02:00</time>
      </trkpt>
      <trkpt lat="49.39529" lon="6.25194">
        <ele>145.90039</ele>
        <time>2026-05-20T09:55:30+02:00</time>
      </trkpt>
      <trkpt lat="49.3953" lon="6.2519">
        <ele>145.90039</ele>
        <time>2026-05-20T09:55:31+02:00</time>
      </trkpt>
      <trkpt lat="49.39531" lon="6.25187">
        <ele>145.90039</ele>
        <time>2026-05-20T09:55:32+02:00</time>
      </trkpt>
      <trkpt lat="49.39532" lon="6.25183">
        <ele>145.90039</ele>
        <time>2026-05-20T09:55:33+02:00</time>
      </trkpt>
      <trkpt lat="49.39531" lon="6.25177">
        <ele>145.90039</ele>
        <time>2026-05-20T09:55:34+02:00</time>
      </trkpt>
      <trkpt lat="49.39531" lon="6.25172">
        <ele>145.90039</ele>
        <time>2026-05-20T09:55:35+02:00</time>
      </trkpt>
      <trkpt lat="49.3953" lon="6.25166">
        <ele>145.90039</ele>
        <time>2026-05-20T09:55:36+02:00</time>
      </trkpt>
      <trkpt lat="49.39528" lon="6.2516">
        <ele>145.90039</ele>
        <time>2026-05-20T09:55:37+02:00</time>
      </trkpt>
      <trkpt lat="49.39527" lon="6.25154">
        <ele>145.7998</ele>
        <time>2026-05-20T09:55:38+02:00</time>
      </trkpt>
      <trkpt lat="49.39525" lon="6.25147">
        <ele>145.7002</ele>
        <time>2026-05-20T09:55:39+02:00</time>
      </trkpt>
      <trkpt lat="49.39524" lon="6.2514">
        <ele>145.7002</ele>
        <time>2026-05-20T09:55:40+02:00</time>
      </trkpt>
      <trkpt lat="49.39523" lon="6.25132">
        <ele>145.7002</ele>
        <time>2026-05-20T09:55:41+02:00</time>
      </trkpt>
      <trkpt lat="49.39522" lon="6.25124">
        <ele>145.7002</ele>
        <time>2026-05-20T09:55:42+02:00</time>
      </trkpt>
      <trkpt lat="49.3952" lon="6.25117">
        <ele>145.7998</ele>
        <time>2026-05-20T09:55:43+02:00</time>
      </trkpt>
      <trkpt lat="49.3952" lon="6.25109">
        <ele>146</ele>
        <time>2026-05-20T09:55:44+02:00</time>
      </trkpt>
      <trkpt lat="49.39519" lon="6.25101">
        <ele>146.2998</ele>
        <time>2026-05-20T09:55:45+02:00</time>
      </trkpt>
      <trkpt lat="49.39518" lon="6.25092">
        <ele>146.60059</ele>
        <time>2026-05-20T09:55:46+02:00</time>
      </trkpt>
      <trkpt lat="49.39518" lon="6.25084">
        <ele>146.7998</ele>
        <time>2026-05-20T09:55:47+02:00</time>
      </trkpt>
      <trkpt lat="49.39518" lon="6.25076">
        <ele>146.90039</ele>
        <time>2026-05-20T09:55:48+02:00</time>
      </trkpt>
      <trkpt lat="49.39517" lon="6.25067">
        <ele>147</ele>
        <time>2026-05-20T09:55:49+02:00</time>
      </trkpt>
      <trkpt lat="49.39517" lon="6.25059">
        <ele>147</ele>
        <time>2026-05-20T09:55:50+02:00</time>
      </trkpt>
      <trkpt lat="49.39516" lon="6.25051">
        <ele>146.5</ele>
        <time>2026-05-20T09:55:51+02:00</time>
      </trkpt>
      <trkpt lat="49.39515" lon="6.25044">
        <ele>146.5</ele>
        <time>2026-05-20T09:55:52+02:00</time>
      </trkpt>
      <trkpt lat="49.39515" lon="6.25036">
        <ele>146.5</ele>
        <time>2026-05-20T09:55:53+02:00</time>
      </trkpt>
      <trkpt lat="49.39515" lon="6.2503">
        <ele>146.5</ele>
        <time>2026-05-20T09:55:54+02:00</time>
      </trkpt>
      <trkpt lat="49.39515" lon="6.25026">
        <ele>146.60059</ele>
        <time>2026-05-20T09:55:55+02:00</time>
      </trkpt>
      <trkpt lat="49.39514" lon="6.25025">
        <ele>146.60059</ele>
        <time>2026-05-20T09:55:56+02:00</time>
      </trkpt>
      <trkpt lat="49.39514" lon="6.25025">
        <ele>146.60059</ele>
        <time>2026-05-20T09:55:57+02:00</time>
      </trkpt>
      <trkpt lat="49.39514" lon="6.25025">
        <ele>146.60059</ele>
        <time>2026-05-20T09:55:58+02:00</time>
      </trkpt>
      <trkpt lat="49.39514" lon="6.25025">
        <ele>146.60059</ele>
        <time>2026-05-20T09:55:59+02:00</time>
      </trkpt>
      <trkpt lat="49.39514" lon="6.25025">
        <ele>146.60059</ele>
        <time>2026-05-20T09:56:00+02:00</time>
      </trkpt>
      <trkpt lat="49.39512" lon="6.25002">
        <ele>146.60059</ele>
        <time>2026-05-20T09:57:32+02:00</time>
      </trkpt>
      <trkpt lat="49.39511" lon="6.24999">
        <ele>146.60059</ele>
        <time>2026-05-20T09:57:33+02:00</time>
      </trkpt>
      <trkpt lat="49.39511" lon="6.24995">
        <ele>146.60059</ele>
        <time>2026-05-20T09:57:34+02:00</time>
      </trkpt>
      <trkpt lat="49.3951" lon="6.2499">
        <ele>146.2002</ele>
        <time>2026-05-20T09:57:35+02:00</time>
      </trkpt>
      <trkpt lat="49.3951" lon="6.24986">
        <ele>146.2002</ele>
        <time>2026-05-20T09:57:36+02:00</time>
      </trkpt>
      <trkpt lat="49.39509" lon="6.24981">
        <ele>146.2002</ele>
        <time>2026-05-20T09:57:37+02:00</time>
      </trkpt>
      <trkpt lat="49.39509" lon="6.24975">
        <ele>146.2002</ele>
        <time>2026-05-20T09:57:38+02:00</time>
      </trkpt>
      <trkpt lat="49.39508" lon="6.2497">
        <ele>146.2002</ele>
        <time>2026-05-20T09:57:39+02:00</time>
      </trkpt>
      <trkpt lat="49.39507" lon="6.24963">
        <ele>146.2002</ele>
        <time>2026-05-20T09:57:40+02:00</time>
      </trkpt>
      <trkpt lat="49.39507" lon="6.24957">
        <ele>146.2998</ele>
        <time>2026-05-20T09:57:41+02:00</time>
      </trkpt>
      <trkpt lat="49.39506" lon="6.2495">
        <ele>146.5</ele>
        <time>2026-05-20T09:57:42+02:00</time>
      </trkpt>
      <trkpt lat="49.39506" lon="6.24944">
        <ele>146.5</ele>
        <time>2026-05-20T09:57:43+02:00</time>
      </trkpt>
      <trkpt lat="49.39505" lon="6.24937">
        <ele>146.40039</ele>
        <time>2026-05-20T09:57:44+02:00</time>
      </trkpt>
      <trkpt lat="49.39504" lon="6.2493">
        <ele>147</ele>
        <time>2026-05-20T09:57:45+02:00</time>
      </trkpt>
      <trkpt lat="49.39504" lon="6.24923">
        <ele>147.5</ele>
        <time>2026-05-20T09:57:46+02:00</time>
      </trkpt>
      <trkpt lat="49.39503" lon="6.24915">
        <ele>147.7998</ele>
        <time>2026-05-20T09:57:47+02:00</time>
      </trkpt>
      <trkpt lat="49.39502" lon="6.24908">
        <ele>147.7998</ele>
        <time>2026-05-20T09:57:48+02:00</time>
      </trkpt>
      <trkpt lat="49.39501" lon="6.249">
        <ele>148.10059</ele>
        <time>2026-05-20T09:57:49+02:00</time>
      </trkpt>
      <trkpt lat="49.39501" lon="6.24893">
        <ele>148.2998</ele>
        <time>2026-05-20T09:57:50+02:00</time>
      </trkpt>
      <trkpt lat="49.39499" lon="6.24885">
        <ele>147.90039</ele>
        <time>2026-05-20T09:57:51+02:00</time>
      </trkpt>
      <trkpt lat="49.39499" lon="6.24877">
        <ele>148</ele>
        <time>2026-05-20T09:57:52+02:00</time>
      </trkpt>
      <trkpt lat="49.39498" lon="6.24869">
        <ele>148</ele>
        <time>2026-05-20T09:57:53+02:00</time>
      </trkpt>
      <trkpt lat="49.39497" lon="6.24861">
        <ele>148.10059</ele>
        <time>2026-05-20T09:57:54+02:00</time>
      </trkpt>
      <trkpt lat="49.39496" lon="6.24852">
        <ele>148.10059</ele>
        <time>2026-05-20T09:57:55+02:00</time>
      </trkpt>
      <trkpt lat="49.39494" lon="6.24844">
        <ele>147.5</ele>
        <time>2026-05-20T09:57:56+02:00</time>
      </trkpt>
      <trkpt lat="49.39493" lon="6.24836">
        <ele>147.5</ele>
        <time>2026-05-20T09:57:57+02:00</time>
      </trkpt>
      <trkpt lat="49.39491" lon="6.24827">
        <ele>147.60059</ele>
        <time>2026-05-20T09:57:58+02:00</time>
      </trkpt>
      <trkpt lat="49.3949" lon="6.24819">
        <ele>147.60059</ele>
        <time>2026-05-20T09:57:59+02:00</time>
      </trkpt>
      <trkpt lat="49.39489" lon="6.24811">
        <ele>147.60059</ele>
        <time>2026-05-20T09:58:00+02:00</time>
      </trkpt>
      <trkpt lat="49.39488" lon="6.24803">
        <ele>146.90039</ele>
        <time>2026-05-20T09:58:01+02:00</time>
      </trkpt>
      <trkpt lat="49.39486" lon="6.24795">
        <ele>147</ele>
        <time>2026-05-20T09:58:02+02:00</time>
      </trkpt>
      <trkpt lat="49.39485" lon="6.24787">
        <ele>147</ele>
        <time>2026-05-20T09:58:03+02:00</time>
      </trkpt>
      <trkpt lat="49.39484" lon="6.24779">
        <ele>147</ele>
        <time>2026-05-20T09:58:04+02:00</time>
      </trkpt>
      <trkpt lat="49.39482" lon="6.24771">
        <ele>146.2998</ele>
        <time>2026-05-20T09:58:05+02:00</time>
      </trkpt>
      <trkpt lat="49.39481" lon="6.24763">
        <ele>146.40039</ele>
        <time>2026-05-20T09:58:06+02:00</time>
      </trkpt>
      <trkpt lat="49.3948" lon="6.24756">
        <ele>146.40039</ele>
        <time>2026-05-20T09:58:07+02:00</time>
      </trkpt>
      <trkpt lat="49.39478" lon="6.24748">
        <ele>146.40039</ele>
        <time>2026-05-20T09:58:08+02:00</time>
      </trkpt>
      <trkpt lat="49.39477" lon="6.2474">
        <ele>146</ele>
        <time>2026-05-20T09:58:09+02:00</time>
      </trkpt>
      <trkpt lat="49.39475" lon="6.24733">
        <ele>146</ele>
        <time>2026-05-20T09:58:10+02:00</time>
      </trkpt>
      <trkpt lat="49.39474" lon="6.24725">
        <ele>146</ele>
        <time>2026-05-20T09:58:11+02:00</time>
      </trkpt>
      <trkpt lat="49.39472" lon="6.24717">
        <ele>145.7998</ele>
        <time>2026-05-20T09:58:12+02:00</time>
      </trkpt>
      <trkpt lat="49.39471" lon="6.24709">
        <ele>145.90039</ele>
        <time>2026-05-20T09:58:13+02:00</time>
      </trkpt>
      <trkpt lat="49.3947" lon="6.24702">
        <ele>145.90039</ele>
        <time>2026-05-20T09:58:14+02:00</time>
      </trkpt>
      <trkpt lat="49.39468" lon="6.24694">
        <ele>146.2998</ele>
        <time>2026-05-20T09:58:15+02:00</time>
      </trkpt>
      <trkpt lat="49.39467" lon="6.24687">
        <ele>146.7002</ele>
        <time>2026-05-20T09:58:16+02:00</time>
      </trkpt>
      <trkpt lat="49.39465" lon="6.24679">
        <ele>146.7998</ele>
        <time>2026-05-20T09:58:17+02:00</time>
      </trkpt>
      <trkpt lat="49.39464" lon="6.24671">
        <ele>147</ele>
        <time>2026-05-20T09:58:18+02:00</time>
      </trkpt>
      <trkpt lat="49.39463" lon="6.24663">
        <ele>147.10059</ele>
        <time>2026-05-20T09:58:19+02:00</time>
      </trkpt>
      <trkpt lat="49.39461" lon="6.24655">
        <ele>147.2002</ele>
        <time>2026-05-20T09:58:20+02:00</time>
      </trkpt>
      <trkpt lat="49.3946" lon="6.24647">
        <ele>146.7002</ele>
        <time>2026-05-20T09:58:21+02:00</time>
      </trkpt>
      <trkpt lat="49.39459" lon="6.24639">
        <ele>146.7998</ele>
        <time>2026-05-20T09:58:22+02:00</time>
      </trkpt>
      <trkpt lat="49.39457" lon="6.24631">
        <ele>146.90039</ele>
        <time>2026-05-20T09:58:23+02:00</time>
      </trkpt>
      <trkpt lat="49.39456" lon="6.24623">
        <ele>146.90039</ele>
        <time>2026-05-20T09:58:24+02:00</time>
      </trkpt>
      <trkpt lat="49.39454" lon="6.24615">
        <ele>146.2998</ele>
        <time>2026-05-20T09:58:25+02:00</time>
      </trkpt>
      <trkpt lat="49.39453" lon="6.24607">
        <ele>146.40039</ele>
        <time>2026-05-20T09:58:26+02:00</time>
      </trkpt>
      <trkpt lat="49.39452" lon="6.24599">
        <ele>146.40039</ele>
        <time>2026-05-20T09:58:27+02:00</time>
      </trkpt>
      <trkpt lat="49.39451" lon="6.24592">
        <ele>146.40039</ele>
        <time>2026-05-20T09:58:28+02:00</time>
      </trkpt>
      <trkpt lat="49.39449" lon="6.24584">
        <ele>146</ele>
        <time>2026-05-20T09:58:29+02:00</time>
      </trkpt>
      <trkpt lat="49.39448" lon="6.24576">
        <ele>146</ele>
        <time>2026-05-20T09:58:30+02:00</time>
      </trkpt>
      <trkpt lat="49.39447" lon="6.24568">
        <ele>146</ele>
        <time>2026-05-20T09:58:31+02:00</time>
      </trkpt>
      <trkpt lat="49.39445" lon="6.2456">
        <ele>146</ele>
        <time>2026-05-20T09:58:32+02:00</time>
      </trkpt>
      <trkpt lat="49.39444" lon="6.24552">
        <ele>145.90039</ele>
        <time>2026-05-20T09:58:33+02:00</time>
      </trkpt>
      <trkpt lat="49.39443" lon="6.24544">
        <ele>145.90039</ele>
        <time>2026-05-20T09:58:34+02:00</time>
      </trkpt>
      <trkpt lat="49.39441" lon="6.24536">
        <ele>145.90039</ele>
        <time>2026-05-20T09:58:35+02:00</time>
      </trkpt>
      <trkpt lat="49.3944" lon="6.24528">
        <ele>145.7998</ele>
        <time>2026-05-20T09:58:36+02:00</time>
      </trkpt>
      <trkpt lat="49.39439" lon="6.2452">
        <ele>145.7998</ele>
        <time>2026-05-20T09:58:37+02:00</time>
      </trkpt>
      <trkpt lat="49.39437" lon="6.24512">
        <ele>145.7002</ele>
        <time>2026-05-20T09:58:38+02:00</time>
      </trkpt>
      <trkpt lat="49.39436" lon="6.24504">
        <ele>145.7998</ele>
        <time>2026-05-20T09:58:39+02:00</time>
      </trkpt>
      <trkpt lat="49.39435" lon="6.24496">
        <ele>145.7998</ele>
        <time>2026-05-20T09:58:40+02:00</time>
      </trkpt>
      <trkpt lat="49.39433" lon="6.24488">
        <ele>146.2002</ele>
        <time>2026-05-20T09:58:41+02:00</time>
      </trkpt>
      <trkpt lat="49.39432" lon="6.2448">
        <ele>146.2998</ele>
        <time>2026-05-20T09:58:42+02:00</time>
      </trkpt>
      <trkpt lat="49.3943" lon="6.24472">
        <ele>146.5</ele>
        <time>2026-05-20T09:58:43+02:00</time>
      </trkpt>
      <trkpt lat="49.39429" lon="6.24464">
        <ele>146.60059</ele>
        <time>2026-05-20T09:58:44+02:00</time>
      </trkpt>
      <trkpt lat="49.39428" lon="6.24456">
        <ele>146.7002</ele>
        <time>2026-05-20T09:58:45+02:00</time>
      </trkpt>
      <trkpt lat="49.39427" lon="6.24449">
        <ele>146.2002</ele>
        <time>2026-05-20T09:58:46+02:00</time>
      </trkpt>
      <trkpt lat="49.39425" lon="6.24441">
        <ele>146.2998</ele>
        <time>2026-05-20T09:58:47+02:00</time>
      </trkpt>
      <trkpt lat="49.39424" lon="6.24433">
        <ele>146.2998</ele>
        <time>2026-05-20T09:58:48+02:00</time>
      </trkpt>
      <trkpt lat="49.39422" lon="6.24425">
        <ele>146.40039</ele>
        <time>2026-05-20T09:58:49+02:00</time>
      </trkpt>
      <trkpt lat="49.39421" lon="6.24417">
        <ele>146</ele>
        <time>2026-05-20T09:58:50+02:00</time>
      </trkpt>
      <trkpt lat="49.3942" lon="6.24409">
        <ele>146</ele>
        <time>2026-05-20T09:58:51+02:00</time>
      </trkpt>
      <trkpt lat="49.39418" lon="6.24402">
        <ele>146</ele>
        <time>2026-05-20T09:58:52+02:00</time>
      </trkpt>
      <trkpt lat="49.39417" lon="6.24394">
        <ele>146</ele>
        <time>2026-05-20T09:58:53+02:00</time>
      </trkpt>
      <trkpt lat="49.39415" lon="6.24386">
        <ele>145.90039</ele>
        <time>2026-05-20T09:58:54+02:00</time>
      </trkpt>
      <trkpt lat="49.39414" lon="6.24378">
        <ele>145.90039</ele>
        <time>2026-05-20T09:58:55+02:00</time>
      </trkpt>
      <trkpt lat="49.39413" lon="6.2437">
        <ele>145.90039</ele>
        <time>2026-05-20T09:58:56+02:00</time>
      </trkpt>
      <trkpt lat="49.39412" lon="6.24362">
        <ele>145.90039</ele>
        <time>2026-05-20T09:58:57+02:00</time>
      </trkpt>
      <trkpt lat="49.39411" lon="6.24354">
        <ele>145.7998</ele>
        <time>2026-05-20T09:58:58+02:00</time>
      </trkpt>
      <trkpt lat="49.39409" lon="6.24346">
        <ele>145.7002</ele>
        <time>2026-05-20T09:58:59+02:00</time>
      </trkpt>
      <trkpt lat="49.39408" lon="6.24338">
        <ele>145.7002</ele>
        <time>2026-05-20T09:59:00+02:00</time>
      </trkpt>
      <trkpt lat="49.39406" lon="6.2433">
        <ele>145.90039</ele>
        <time>2026-05-20T09:59:01+02:00</time>
      </trkpt>
      <trkpt lat="49.39405" lon="6.24322">
        <ele>146.2998</ele>
        <time>2026-05-20T09:59:02+02:00</time>
      </trkpt>
      <trkpt lat="49.39404" lon="6.24313">
        <ele>146.40039</ele>
        <time>2026-05-20T09:59:03+02:00</time>
      </trkpt>
      <trkpt lat="49.39402" lon="6.24305">
        <ele>146.60059</ele>
        <time>2026-05-20T09:59:04+02:00</time>
      </trkpt>
      <trkpt lat="49.39401" lon="6.24296">
        <ele>146.60059</ele>
        <time>2026-05-20T09:59:05+02:00</time>
      </trkpt>
      <trkpt lat="49.39399" lon="6.24288">
        <ele>146.2002</ele>
        <time>2026-05-20T09:59:06+02:00</time>
      </trkpt>
      <trkpt lat="49.39398" lon="6.2428">
        <ele>146.2002</ele>
        <time>2026-05-20T09:59:07+02:00</time>
      </trkpt>
      <trkpt lat="49.39396" lon="6.24272">
        <ele>146.2002</ele>
        <time>2026-05-20T09:59:08+02:00</time>
      </trkpt>
      <trkpt lat="49.39394" lon="6.24264">
        <ele>146.2002</ele>
        <time>2026-05-20T09:59:09+02:00</time>
      </trkpt>
      <trkpt lat="49.39392" lon="6.24256">
        <ele>146</ele>
        <time>2026-05-20T09:59:10+02:00</time>
      </trkpt>
      <trkpt lat="49.3939" lon="6.24249">
        <ele>146</ele>
        <time>2026-05-20T09:59:11+02:00</time>
      </trkpt>
      <trkpt lat="49.39388" lon="6.24241">
        <ele>145.90039</ele>
        <time>2026-05-20T09:59:12+02:00</time>
      </trkpt>
      <trkpt lat="49.39386" lon="6.24234">
        <ele>145.90039</ele>
        <time>2026-05-20T09:59:13+02:00</time>
      </trkpt>
      <trkpt lat="49.39378" lon="6.24204">
        <ele>145.7998</ele>
        <time>2026-05-20T09:59:14+02:00</time>
      </trkpt>
      <trkpt lat="49.39375" lon="6.24196">
        <ele>145.90039</ele>
        <time>2026-05-20T09:59:15+02:00</time>
      </trkpt>
      <trkpt lat="49.39373" lon="6.24189">
        <ele>145.90039</ele>
        <time>2026-05-20T09:59:16+02:00</time>
      </trkpt>
      <trkpt lat="49.39371" lon="6.24181">
        <ele>145.90039</ele>
        <time>2026-05-20T09:59:17+02:00</time>
      </trkpt>
      <trkpt lat="49.39369" lon="6.24174">
        <ele>146</ele>
        <time>2026-05-20T09:59:18+02:00</time>
      </trkpt>
      <trkpt lat="49.39366" lon="6.24166">
        <ele>146</ele>
        <time>2026-05-20T09:59:19+02:00</time>
      </trkpt>
      <trkpt lat="49.39364" lon="6.24159">
        <ele>145.90039</ele>
        <time>2026-05-20T09:59:20+02:00</time>
      </trkpt>
      <trkpt lat="49.39361" lon="6.24151">
        <ele>145.90039</ele>
        <time>2026-05-20T09:59:21+02:00</time>
      </trkpt>
      <trkpt lat="49.39359" lon="6.24144">
        <ele>145.90039</ele>
        <time>2026-05-20T09:59:22+02:00</time>
      </trkpt>
      <trkpt lat="49.39356" lon="6.24136">
        <ele>145.90039</ele>
        <time>2026-05-20T09:59:23+02:00</time>
      </trkpt>
      <trkpt lat="49.39354" lon="6.24129">
        <ele>145.7998</ele>
        <time>2026-05-20T09:59:24+02:00</time>
      </trkpt>
      <trkpt lat="49.39351" lon="6.24122">
        <ele>145.7998</ele>
        <time>2026-05-20T09:59:25+02:00</time>
      </trkpt>
      <trkpt lat="49.39348" lon="6.24115">
        <ele>145.7998</ele>
        <time>2026-05-20T09:59:26+02:00</time>
      </trkpt>
      <trkpt lat="49.39345" lon="6.24108">
        <ele>145.7998</ele>
        <time>2026-05-20T09:59:27+02:00</time>
      </trkpt>
      <trkpt lat="49.39342" lon="6.24101">
        <ele>145.90039</ele>
        <time>2026-05-20T09:59:28+02:00</time>
      </trkpt>
      <trkpt lat="49.39339" lon="6.24095">
        <ele>145.90039</ele>
        <time>2026-05-20T09:59:29+02:00</time>
      </trkpt>
      <trkpt lat="49.39335" lon="6.24088">
        <ele>145.7998</ele>
        <time>2026-05-20T09:59:30+02:00</time>
      </trkpt>
      <trkpt lat="49.39332" lon="6.24081">
        <ele>145.7998</ele>
        <time>2026-05-20T09:59:31+02:00</time>
      </trkpt>
      <trkpt lat="49.39329" lon="6.24075">
        <ele>145.7998</ele>
        <time>2026-05-20T09:59:32+02:00</time>
      </trkpt>
      <trkpt lat="49.39325" lon="6.24069">
        <ele>145.7998</ele>
        <time>2026-05-20T09:59:33+02:00</time>
      </trkpt>
      <trkpt lat="49.39322" lon="6.24062">
        <ele>145.90039</ele>
        <time>2026-05-20T09:59:34+02:00</time>
      </trkpt>
      <trkpt lat="49.39319" lon="6.24056">
        <ele>145.90039</ele>
        <time>2026-05-20T09:59:35+02:00</time>
      </trkpt>
      <trkpt lat="49.39315" lon="6.2405">
        <ele>145.7998</ele>
        <time>2026-05-20T09:59:36+02:00</time>
      </trkpt>
      <trkpt lat="49.39312" lon="6.24043">
        <ele>145.7998</ele>
        <time>2026-05-20T09:59:37+02:00</time>
      </trkpt>
      <trkpt lat="49.39308" lon="6.24037">
        <ele>145.7998</ele>
        <time>2026-05-20T09:59:38+02:00</time>
      </trkpt>
      <trkpt lat="49.39305" lon="6.24031">
        <ele>145.90039</ele>
        <time>2026-05-20T09:59:39+02:00</time>
      </trkpt>
      <trkpt lat="49.39301" lon="6.24025">
        <ele>145.90039</ele>
        <time>2026-05-20T09:59:40+02:00</time>
      </trkpt>
      <trkpt lat="49.39298" lon="6.24019">
        <ele>145.90039</ele>
        <time>2026-05-20T09:59:41+02:00</time>
      </trkpt>
      <trkpt lat="49.39295" lon="6.24012">
        <ele>146.10059</ele>
        <time>2026-05-20T09:59:42+02:00</time>
      </trkpt>
      <trkpt lat="49.39292" lon="6.24006">
        <ele>145.90039</ele>
        <time>2026-05-20T09:59:43+02:00</time>
      </trkpt>
      <trkpt lat="49.39288" lon="6.23999">
        <ele>145.90039</ele>
        <time>2026-05-20T09:59:44+02:00</time>
      </trkpt>
      <trkpt lat="49.39285" lon="6.23993">
        <ele>145.90039</ele>
        <time>2026-05-20T09:59:45+02:00</time>
      </trkpt>
      <trkpt lat="49.39282" lon="6.23987">
        <ele>146.10059</ele>
        <time>2026-05-20T09:59:46+02:00</time>
      </trkpt>
      <trkpt lat="49.39278" lon="6.2398">
        <ele>146.2998</ele>
        <time>2026-05-20T09:59:47+02:00</time>
      </trkpt>
      <trkpt lat="49.39275" lon="6.23974">
        <ele>146.10059</ele>
        <time>2026-05-20T09:59:48+02:00</time>
      </trkpt>
      <trkpt lat="49.39271" lon="6.23968">
        <ele>146.2002</ele>
        <time>2026-05-20T09:59:49+02:00</time>
      </trkpt>
      <trkpt lat="49.39267" lon="6.23961">
        <ele>145.90039</ele>
        <time>2026-05-20T09:59:50+02:00</time>
      </trkpt>
      <trkpt lat="49.39264" lon="6.23955">
        <ele>145.7998</ele>
        <time>2026-05-20T09:59:51+02:00</time>
      </trkpt>
      <trkpt lat="49.3926" lon="6.23948">
        <ele>145.7002</ele>
        <time>2026-05-20T09:59:52+02:00</time>
      </trkpt>
      <trkpt lat="49.39257" lon="6.23942">
        <ele>145.60059</ele>
        <time>2026-05-20T09:59:53+02:00</time>
      </trkpt>
      <trkpt lat="49.39253" lon="6.23936">
        <ele>145.7998</ele>
        <time>2026-05-20T09:59:54+02:00</time>
      </trkpt>
      <trkpt lat="49.3925" lon="6.2393">
        <ele>145.7998</ele>
        <time>2026-05-20T09:59:55+02:00</time>
      </trkpt>
      <trkpt lat="49.39246" lon="6.23924">
        <ele>145.7998</ele>
        <time>2026-05-20T09:59:56+02:00</time>
      </trkpt>
      <trkpt lat="49.39243" lon="6.23917">
        <ele>145.7002</ele>
        <time>2026-05-20T09:59:57+02:00</time>
      </trkpt>
      <trkpt lat="49.39239" lon="6.23911">
        <ele>145.7998</ele>
        <time>2026-05-20T09:59:58+02:00</time>
      </trkpt>
      <trkpt lat="49.39235" lon="6.23905">
        <ele>145.7002</ele>
        <time>2026-05-20T09:59:59+02:00</time>
      </trkpt>
      <trkpt lat="49.39232" lon="6.23899">
        <ele>145.7998</ele>
        <time>2026-05-20T10:00:00+02:00</time>
      </trkpt>
      <trkpt lat="49.39229" lon="6.23892">
        <ele>146</ele>
        <time>2026-05-20T10:00:01+02:00</time>
      </trkpt>
      <trkpt lat="49.39226" lon="6.23886">
        <ele>146</ele>
        <time>2026-05-20T10:00:02+02:00</time>
      </trkpt>
      <trkpt lat="49.39223" lon="6.23879">
        <ele>146</ele>
        <time>2026-05-20T10:00:03+02:00</time>
      </trkpt>
      <trkpt lat="49.39221" lon="6.23872">
        <ele>146.10059</ele>
        <time>2026-05-20T10:00:04+02:00</time>
      </trkpt>
      <trkpt lat="49.39219" lon="6.23865">
        <ele>145.90039</ele>
        <time>2026-05-20T10:00:05+02:00</time>
      </trkpt>
      <trkpt lat="49.39217" lon="6.23857">
        <ele>145.90039</ele>
        <time>2026-05-20T10:00:06+02:00</time>
      </trkpt>
      <trkpt lat="49.39216" lon="6.2385">
        <ele>145.90039</ele>
        <time>2026-05-20T10:00:07+02:00</time>
      </trkpt>
      <trkpt lat="49.39216" lon="6.23841">
        <ele>145.90039</ele>
        <time>2026-05-20T10:00:08+02:00</time>
      </trkpt>
      <trkpt lat="49.39216" lon="6.23833">
        <ele>145.90039</ele>
        <time>2026-05-20T10:00:09+02:00</time>
      </trkpt>
      <trkpt lat="49.39215" lon="6.23824">
        <ele>145.90039</ele>
        <time>2026-05-20T10:00:10+02:00</time>
      </trkpt>
      <trkpt lat="49.39215" lon="6.23816">
        <ele>145.7998</ele>
        <time>2026-05-20T10:00:11+02:00</time>
      </trkpt>
      <trkpt lat="49.39214" lon="6.23807">
        <ele>145.60059</ele>
        <time>2026-05-20T10:00:12+02:00</time>
      </trkpt>
      <trkpt lat="49.39214" lon="6.23798">
        <ele>145.90039</ele>
        <time>2026-05-20T10:00:13+02:00</time>
      </trkpt>
      <trkpt lat="49.39214" lon="6.23789">
        <ele>146.40039</ele>
        <time>2026-05-20T10:00:14+02:00</time>
      </trkpt>
      <trkpt lat="49.39214" lon="6.2378">
        <ele>147.2002</ele>
        <time>2026-05-20T10:00:15+02:00</time>
      </trkpt>
      <trkpt lat="49.39214" lon="6.23771">
        <ele>148.10059</ele>
        <time>2026-05-20T10:00:16+02:00</time>
      </trkpt>
      <trkpt lat="49.39214" lon="6.23762">
        <ele>148.60059</ele>
        <time>2026-05-20T10:00:17+02:00</time>
      </trkpt>
      <trkpt lat="49.39214" lon="6.23752">
        <ele>149</ele>
        <time>2026-05-20T10:00:18+02:00</time>
      </trkpt>
      <trkpt lat="49.39214" lon="6.23743">
        <ele>149.2998</ele>
        <time>2026-05-20T10:00:19+02:00</time>
      </trkpt>
      <trkpt lat="49.39214" lon="6.23734">
        <ele>149.60059</ele>
        <time>2026-05-20T10:00:20+02:00</time>
      </trkpt>
      <trkpt lat="49.39214" lon="6.23726">
        <ele>149.90039</ele>
        <time>2026-05-20T10:00:21+02:00</time>
      </trkpt>
      <trkpt lat="49.39213" lon="6.23717">
        <ele>150.10059</ele>
        <time>2026-05-20T10:00:22+02:00</time>
      </trkpt>
      <trkpt lat="49.39213" lon="6.23708">
        <ele>150.2998</ele>
        <time>2026-05-20T10:00:23+02:00</time>
      </trkpt>
      <trkpt lat="49.39212" lon="6.237">
        <ele>150.5</ele>
        <time>2026-05-20T10:00:24+02:00</time>
      </trkpt>
      <trkpt lat="49.39212" lon="6.23691">
        <ele>150.60059</ele>
        <time>2026-05-20T10:00:25+02:00</time>
      </trkpt>
      <trkpt lat="49.39211" lon="6.23683">
        <ele>150.7002</ele>
        <time>2026-05-20T10:00:26+02:00</time>
      </trkpt>
      <trkpt lat="49.39211" lon="6.23675">
        <ele>150.7002</ele>
        <time>2026-05-20T10:00:27+02:00</time>
      </trkpt>
      <trkpt lat="49.3921" lon="6.23667">
        <ele>150.7002</ele>
        <time>2026-05-20T10:00:28+02:00</time>
      </trkpt>
      <trkpt lat="49.39209" lon="6.23659">
        <ele>150.7002</ele>
        <time>2026-05-20T10:00:29+02:00</time>
      </trkpt>
      <trkpt lat="49.39207" lon="6.23652">
        <ele>150.90039</ele>
        <time>2026-05-20T10:00:30+02:00</time>
      </trkpt>
      <trkpt lat="49.39206" lon="6.23645">
        <ele>151.10059</ele>
        <time>2026-05-20T10:00:31+02:00</time>
      </trkpt>
      <trkpt lat="49.39204" lon="6.23637">
        <ele>151.2998</ele>
        <time>2026-05-20T10:00:32+02:00</time>
      </trkpt>
      <trkpt lat="49.39202" lon="6.2363">
        <ele>151.2998</ele>
        <time>2026-05-20T10:00:33+02:00</time>
      </trkpt>
      <trkpt lat="49.39201" lon="6.23622">
        <ele>151.5</ele>
        <time>2026-05-20T10:00:34+02:00</time>
      </trkpt>
      <trkpt lat="49.39199" lon="6.23615">
        <ele>151.7002</ele>
        <time>2026-05-20T10:00:35+02:00</time>
      </trkpt>
      <trkpt lat="49.39197" lon="6.23609">
        <ele>152</ele>
        <time>2026-05-20T10:00:36+02:00</time>
      </trkpt>
      <trkpt lat="49.39195" lon="6.23601">
        <ele>152.2002</ele>
        <time>2026-05-20T10:00:37+02:00</time>
      </trkpt>
      <trkpt lat="49.39193" lon="6.23594">
        <ele>152.40039</ele>
        <time>2026-05-20T10:00:38+02:00</time>
      </trkpt>
      <trkpt lat="49.3919" lon="6.23586">
        <ele>152.5</ele>
        <time>2026-05-20T10:00:39+02:00</time>
      </trkpt>
      <trkpt lat="49.39188" lon="6.23579">
        <ele>152.60059</ele>
        <time>2026-05-20T10:00:40+02:00</time>
      </trkpt>
      <trkpt lat="49.39185" lon="6.23571">
        <ele>152.7002</ele>
        <time>2026-05-20T10:00:41+02:00</time>
      </trkpt>
      <trkpt lat="49.39183" lon="6.23564">
        <ele>152.7002</ele>
        <time>2026-05-20T10:00:42+02:00</time>
      </trkpt>
      <trkpt lat="49.39181" lon="6.23556">
        <ele>152.7002</ele>
        <time>2026-05-20T10:00:43+02:00</time>
      </trkpt>
      <trkpt lat="49.39178" lon="6.23548">
        <ele>152.5</ele>
        <time>2026-05-20T10:00:44+02:00</time>
      </trkpt>
      <trkpt lat="49.39176" lon="6.23541">
        <ele>152.40039</ele>
        <time>2026-05-20T10:00:45+02:00</time>
      </trkpt>
      <trkpt lat="49.39174" lon="6.23533">
        <ele>152.2998</ele>
        <time>2026-05-20T10:00:46+02:00</time>
      </trkpt>
      <trkpt lat="49.39171" lon="6.23525">
        <ele>152.2002</ele>
        <time>2026-05-20T10:00:47+02:00</time>
      </trkpt>
      <trkpt lat="49.39169" lon="6.23517">
        <ele>152.10059</ele>
        <time>2026-05-20T10:00:48+02:00</time>
      </trkpt>
      <trkpt lat="49.39166" lon="6.2351">
        <ele>152.10059</ele>
        <time>2026-05-20T10:00:49+02:00</time>
      </trkpt>
      <trkpt lat="49.39164" lon="6.23502">
        <ele>152</ele>
        <time>2026-05-20T10:00:50+02:00</time>
      </trkpt>
      <trkpt lat="49.39161" lon="6.23494">
        <ele>151.7998</ele>
        <time>2026-05-20T10:00:51+02:00</time>
      </trkpt>
      <trkpt lat="49.39159" lon="6.23487">
        <ele>151.7002</ele>
        <time>2026-05-20T10:00:52+02:00</time>
      </trkpt>
      <trkpt lat="49.39156" lon="6.23479">
        <ele>151.5</ele>
        <time>2026-05-20T10:00:53+02:00</time>
      </trkpt>
      <trkpt lat="49.39153" lon="6.23472">
        <ele>151.40039</ele>
        <time>2026-05-20T10:00:54+02:00</time>
      </trkpt>
      <trkpt lat="49.39151" lon="6.23465">
        <ele>151.2002</ele>
        <time>2026-05-20T10:00:55+02:00</time>
      </trkpt>
      <trkpt lat="49.39148" lon="6.23458">
        <ele>151.2002</ele>
        <time>2026-05-20T10:00:56+02:00</time>
      </trkpt>
      <trkpt lat="49.39145" lon="6.23451">
        <ele>151.10059</ele>
        <time>2026-05-20T10:00:57+02:00</time>
      </trkpt>
      <trkpt lat="49.39142" lon="6.23445">
        <ele>150.90039</ele>
        <time>2026-05-20T10:00:58+02:00</time>
      </trkpt>
      <trkpt lat="49.39139" lon="6.23439">
        <ele>150.7002</ele>
        <time>2026-05-20T10:00:59+02:00</time>
      </trkpt>
      <trkpt lat="49.39137" lon="6.23433">
        <ele>150.7002</ele>
        <time>2026-05-20T10:01:00+02:00</time>
      </trkpt>
      <trkpt lat="49.39134" lon="6.23428">
        <ele>150.60059</ele>
        <time>2026-05-20T10:01:01+02:00</time>
      </trkpt>
      <trkpt lat="49.39132" lon="6.23423">
        <ele>150.60059</ele>
        <time>2026-05-20T10:01:02+02:00</time>
      </trkpt>
      <trkpt lat="49.3913" lon="6.23419">
        <ele>150.40039</ele>
        <time>2026-05-20T10:01:03+02:00</time>
      </trkpt>
      <trkpt lat="49.39127" lon="6.23416">
        <ele>150.40039</ele>
        <time>2026-05-20T10:01:04+02:00</time>
      </trkpt>
      <trkpt lat="49.39124" lon="6.23412">
        <ele>150.2998</ele>
        <time>2026-05-20T10:01:05+02:00</time>
      </trkpt>
      <trkpt lat="49.39121" lon="6.23408">
        <ele>150.2998</ele>
        <time>2026-05-20T10:01:06+02:00</time>
      </trkpt>
      <trkpt lat="49.39118" lon="6.23404">
        <ele>150.10059</ele>
        <time>2026-05-20T10:01:07+02:00</time>
      </trkpt>
      <trkpt lat="49.39115" lon="6.234">
        <ele>150.10059</ele>
        <time>2026-05-20T10:01:08+02:00</time>
      </trkpt>
      <trkpt lat="49.39112" lon="6.23395">
        <ele>149.90039</ele>
        <time>2026-05-20T10:01:09+02:00</time>
      </trkpt>
      <trkpt lat="49.39108" lon="6.23389">
        <ele>150</ele>
        <time>2026-05-20T10:01:10+02:00</time>
      </trkpt>
      <trkpt lat="49.39105" lon="6.23384">
        <ele>149.7002</ele>
        <time>2026-05-20T10:01:11+02:00</time>
      </trkpt>
      <trkpt lat="49.39101" lon="6.23378">
        <ele>149.5</ele>
        <time>2026-05-20T10:01:12+02:00</time>
      </trkpt>
      <trkpt lat="49.39098" lon="6.23372">
        <ele>149.5</ele>
        <time>2026-05-20T10:01:13+02:00</time>
      </trkpt>
      <trkpt lat="49.39094" lon="6.23366">
        <ele>149.2998</ele>
        <time>2026-05-20T10:01:14+02:00</time>
      </trkpt>
      <trkpt lat="49.3909" lon="6.2336">
        <ele>149.10059</ele>
        <time>2026-05-20T10:01:15+02:00</time>
      </trkpt>
      <trkpt lat="49.39087" lon="6.23354">
        <ele>149.10059</ele>
        <time>2026-05-20T10:01:16+02:00</time>
      </trkpt>
      <trkpt lat="49.39083" lon="6.23348">
        <ele>148.7998</ele>
        <time>2026-05-20T10:01:17+02:00</time>
      </trkpt>
      <trkpt lat="49.39079" lon="6.23342">
        <ele>148.5</ele>
        <time>2026-05-20T10:01:18+02:00</time>
      </trkpt>
      <trkpt lat="49.39074" lon="6.23337">
        <ele>148.5</ele>
        <time>2026-05-20T10:01:19+02:00</time>
      </trkpt>
      <trkpt lat="49.3907" lon="6.23331">
        <ele>148.40039</ele>
        <time>2026-05-20T10:01:20+02:00</time>
      </trkpt>
      <trkpt lat="49.39066" lon="6.23326">
        <ele>148.40039</ele>
        <time>2026-05-20T10:01:21+02:00</time>
      </trkpt>
      <trkpt lat="49.39061" lon="6.23322">
        <ele>148.2998</ele>
        <time>2026-05-20T10:01:22+02:00</time>
      </trkpt>
      <trkpt lat="49.39056" lon="6.23317">
        <ele>148.2002</ele>
        <time>2026-05-20T10:01:23+02:00</time>
      </trkpt>
      <trkpt lat="49.39051" lon="6.23313">
        <ele>148.10059</ele>
        <time>2026-05-20T10:01:24+02:00</time>
      </trkpt>
      <trkpt lat="49.39046" lon="6.23309">
        <ele>148</ele>
        <time>2026-05-20T10:01:25+02:00</time>
      </trkpt>
      <trkpt lat="49.39041" lon="6.23306">
        <ele>147.7998</ele>
        <time>2026-05-20T10:01:26+02:00</time>
      </trkpt>
      <trkpt lat="49.39036" lon="6.23302">
        <ele>147.7998</ele>
        <time>2026-05-20T10:01:27+02:00</time>
      </trkpt>
      <trkpt lat="49.3903" lon="6.23299">
        <ele>147.7002</ele>
        <time>2026-05-20T10:01:28+02:00</time>
      </trkpt>
      <trkpt lat="49.39025" lon="6.23295">
        <ele>147.7002</ele>
        <time>2026-05-20T10:01:29+02:00</time>
      </trkpt>
      <trkpt lat="49.3902" lon="6.23292">
        <ele>147.7002</ele>
        <time>2026-05-20T10:01:30+02:00</time>
      </trkpt>
      <trkpt lat="49.39015" lon="6.23288">
        <ele>147.5</ele>
        <time>2026-05-20T10:01:31+02:00</time>
      </trkpt>
      <trkpt lat="49.39009" lon="6.23285">
        <ele>147.2998</ele>
        <time>2026-05-20T10:01:32+02:00</time>
      </trkpt>
      <trkpt lat="49.39004" lon="6.23282">
        <ele>146.90039</ele>
        <time>2026-05-20T10:01:33+02:00</time>
      </trkpt>
      <trkpt lat="49.38999" lon="6.23279">
        <ele>146.60059</ele>
        <time>2026-05-20T10:01:34+02:00</time>
      </trkpt>
      <trkpt lat="49.38994" lon="6.23276">
        <ele>146.7002</ele>
        <time>2026-05-20T10:01:35+02:00</time>
      </trkpt>
      <trkpt lat="49.38989" lon="6.23272">
        <ele>146.40039</ele>
        <time>2026-05-20T10:01:36+02:00</time>
      </trkpt>
      <trkpt lat="49.38984" lon="6.23269">
        <ele>146.2002</ele>
        <time>2026-05-20T10:01:37+02:00</time>
      </trkpt>
      <trkpt lat="49.38979" lon="6.23265">
        <ele>146</ele>
        <time>2026-05-20T10:01:38+02:00</time>
      </trkpt>
      <trkpt lat="49.38975" lon="6.23261">
        <ele>146</ele>
        <time>2026-05-20T10:01:39+02:00</time>
      </trkpt>
      <trkpt lat="49.3897" lon="6.23258">
        <ele>145.90039</ele>
        <time>2026-05-20T10:01:40+02:00</time>
      </trkpt>
      <trkpt lat="49.38966" lon="6.23254">
        <ele>145.7998</ele>
        <time>2026-05-20T10:01:41+02:00</time>
      </trkpt>
      <trkpt lat="49.38962" lon="6.2325">
        <ele>145.7998</ele>
        <time>2026-05-20T10:01:42+02:00</time>
      </trkpt>
      <trkpt lat="49.38958" lon="6.23245">
        <ele>145.90039</ele>
        <time>2026-05-20T10:01:43+02:00</time>
      </trkpt>
      <trkpt lat="49.38955" lon="6.23239">
        <ele>145.90039</ele>
        <time>2026-05-20T10:01:44+02:00</time>
      </trkpt>
      <trkpt lat="49.38952" lon="6.23233">
        <ele>145.90039</ele>
        <time>2026-05-20T10:01:45+02:00</time>
      </trkpt>
      <trkpt lat="49.38949" lon="6.23226">
        <ele>145.90039</ele>
        <time>2026-05-20T10:01:46+02:00</time>
      </trkpt>
      <trkpt lat="49.38947" lon="6.23219">
        <ele>145.90039</ele>
        <time>2026-05-20T10:01:47+02:00</time>
      </trkpt>
      <trkpt lat="49.38944" lon="6.23212">
        <ele>145.90039</ele>
        <time>2026-05-20T10:01:48+02:00</time>
      </trkpt>
      <trkpt lat="49.38941" lon="6.23205">
        <ele>145.7998</ele>
        <time>2026-05-20T10:01:49+02:00</time>
      </trkpt>
      <trkpt lat="49.38939" lon="6.23198">
        <ele>145.7998</ele>
        <time>2026-05-20T10:01:50+02:00</time>
      </trkpt>
      <trkpt lat="49.38937" lon="6.23191">
        <ele>145.7998</ele>
        <time>2026-05-20T10:01:51+02:00</time>
      </trkpt>
      <trkpt lat="49.38934" lon="6.23184">
        <ele>145.7998</ele>
        <time>2026-05-20T10:01:52+02:00</time>
      </trkpt>
      <trkpt lat="49.38931" lon="6.23176">
        <ele>145.7998</ele>
        <time>2026-05-20T10:01:53+02:00</time>
      </trkpt>
      <trkpt lat="49.38929" lon="6.23169">
        <ele>145.90039</ele>
        <time>2026-05-20T10:01:54+02:00</time>
      </trkpt>
      <trkpt lat="49.38926" lon="6.23162">
        <ele>145.90039</ele>
        <time>2026-05-20T10:01:55+02:00</time>
      </trkpt>
      <trkpt lat="49.38924" lon="6.23155">
        <ele>145.90039</ele>
        <time>2026-05-20T10:01:56+02:00</time>
      </trkpt>
      <trkpt lat="49.38921" lon="6.23148">
        <ele>145.90039</ele>
        <time>2026-05-20T10:01:57+02:00</time>
      </trkpt>
      <trkpt lat="49.38919" lon="6.2314">
        <ele>145.90039</ele>
        <time>2026-05-20T10:01:58+02:00</time>
      </trkpt>
      <trkpt lat="49.38916" lon="6.23133">
        <ele>145.7998</ele>
        <time>2026-05-20T10:01:59+02:00</time>
      </trkpt>
      <trkpt lat="49.38913" lon="6.23126">
        <ele>145.7998</ele>
        <time>2026-05-20T10:02:00+02:00</time>
      </trkpt>
      <trkpt lat="49.38911" lon="6.23118">
        <ele>145.7002</ele>
        <time>2026-05-20T10:02:01+02:00</time>
      </trkpt>
      <trkpt lat="49.38908" lon="6.23111">
        <ele>145.7002</ele>
        <time>2026-05-20T10:02:02+02:00</time>
      </trkpt>
      <trkpt lat="49.38905" lon="6.23103">
        <ele>145.90039</ele>
        <time>2026-05-20T10:02:03+02:00</time>
      </trkpt>
      <trkpt lat="49.38903" lon="6.23096">
        <ele>145.90039</ele>
        <time>2026-05-20T10:02:04+02:00</time>
      </trkpt>
      <trkpt lat="49.38901" lon="6.23088">
        <ele>145.90039</ele>
        <time>2026-05-20T10:02:05+02:00</time>
      </trkpt>
      <trkpt lat="49.38898" lon="6.23081">
        <ele>145.90039</ele>
        <time>2026-05-20T10:02:06+02:00</time>
      </trkpt>
      <trkpt lat="49.38896" lon="6.23073">
        <ele>145.90039</ele>
        <time>2026-05-20T10:02:07+02:00</time>
      </trkpt>
      <trkpt lat="49.38894" lon="6.23066">
        <ele>145.7998</ele>
        <time>2026-05-20T10:02:08+02:00</time>
      </trkpt>
      <trkpt lat="49.38891" lon="6.23059">
        <ele>145.7998</ele>
        <time>2026-05-20T10:02:09+02:00</time>
      </trkpt>
      <trkpt lat="49.38888" lon="6.23052">
        <ele>145.7002</ele>
        <time>2026-05-20T10:02:10+02:00</time>
      </trkpt>
      <trkpt lat="49.38886" lon="6.23044">
        <ele>145.7002</ele>
        <time>2026-05-20T10:02:11+02:00</time>
      </trkpt>
      <trkpt lat="49.38883" lon="6.23037">
        <ele>145.7998</ele>
        <time>2026-05-20T10:02:12+02:00</time>
      </trkpt>
      <trkpt lat="49.38881" lon="6.2303">
        <ele>145.7998</ele>
        <time>2026-05-20T10:02:13+02:00</time>
      </trkpt>
      <trkpt lat="49.38878" lon="6.23023">
        <ele>145.90039</ele>
        <time>2026-05-20T10:02:14+02:00</time>
      </trkpt>
      <trkpt lat="49.38876" lon="6.23015">
        <ele>145.90039</ele>
        <time>2026-05-20T10:02:15+02:00</time>
      </trkpt>
      <trkpt lat="49.38873" lon="6.23008">
        <ele>145.90039</ele>
        <time>2026-05-20T10:02:16+02:00</time>
      </trkpt>
      <trkpt lat="49.38871" lon="6.23001">
        <ele>145.90039</ele>
        <time>2026-05-20T10:02:17+02:00</time>
      </trkpt>
      <trkpt lat="49.38868" lon="6.22994">
        <ele>145.7998</ele>
        <time>2026-05-20T10:02:18+02:00</time>
      </trkpt>
      <trkpt lat="49.38866" lon="6.22986">
        <ele>145.7998</ele>
        <time>2026-05-20T10:02:19+02:00</time>
      </trkpt>
      <trkpt lat="49.38863" lon="6.22979">
        <ele>145.7998</ele>
        <time>2026-05-20T10:02:20+02:00</time>
      </trkpt>
      <trkpt lat="49.38861" lon="6.22972">
        <ele>145.7002</ele>
        <time>2026-05-20T10:02:21+02:00</time>
      </trkpt>
      <trkpt lat="49.38858" lon="6.22965">
        <ele>145.7998</ele>
        <time>2026-05-20T10:02:22+02:00</time>
      </trkpt>
      <trkpt lat="49.38856" lon="6.22957">
        <ele>145.90039</ele>
        <time>2026-05-20T10:02:23+02:00</time>
      </trkpt>
      <trkpt lat="49.38853" lon="6.2295">
        <ele>146</ele>
        <time>2026-05-20T10:02:24+02:00</time>
      </trkpt>
      <trkpt lat="49.38851" lon="6.22943">
        <ele>145.90039</ele>
        <time>2026-05-20T10:02:25+02:00</time>
      </trkpt>
      <trkpt lat="49.38848" lon="6.22936">
        <ele>145.90039</ele>
        <time>2026-05-20T10:02:26+02:00</time>
      </trkpt>
      <trkpt lat="49.38846" lon="6.22928">
        <ele>145.7998</ele>
        <time>2026-05-20T10:02:27+02:00</time>
      </trkpt>
      <trkpt lat="49.38843" lon="6.22921">
        <ele>145.7998</ele>
        <time>2026-05-20T10:02:28+02:00</time>
      </trkpt>
      <trkpt lat="49.38841" lon="6.22913">
        <ele>145.7002</ele>
        <time>2026-05-20T10:02:29+02:00</time>
      </trkpt>
      <trkpt lat="49.38838" lon="6.22905">
        <ele>145.7002</ele>
        <time>2026-05-20T10:02:30+02:00</time>
      </trkpt>
      <trkpt lat="49.38836" lon="6.22897">
        <ele>145.7998</ele>
        <time>2026-05-20T10:02:31+02:00</time>
      </trkpt>
      <trkpt lat="49.38833" lon="6.22889">
        <ele>145.90039</ele>
        <time>2026-05-20T10:02:32+02:00</time>
      </trkpt>
      <trkpt lat="49.38831" lon="6.22881">
        <ele>146.10059</ele>
        <time>2026-05-20T10:02:33+02:00</time>
      </trkpt>
      <trkpt lat="49.38828" lon="6.22873">
        <ele>146</ele>
        <time>2026-05-20T10:02:34+02:00</time>
      </trkpt>
      <trkpt lat="49.38826" lon="6.22865">
        <ele>146</ele>
        <time>2026-05-20T10:02:35+02:00</time>
      </trkpt>
      <trkpt lat="49.38824" lon="6.22857">
        <ele>146</ele>
        <time>2026-05-20T10:02:36+02:00</time>
      </trkpt>
      <trkpt lat="49.38822" lon="6.22849">
        <ele>145.90039</ele>
        <time>2026-05-20T10:02:37+02:00</time>
      </trkpt>
      <trkpt lat="49.38819" lon="6.22841">
        <ele>145.90039</ele>
        <time>2026-05-20T10:02:38+02:00</time>
      </trkpt>
      <trkpt lat="49.38817" lon="6.22833">
        <ele>145.7998</ele>
        <time>2026-05-20T10:02:39+02:00</time>
      </trkpt>
      <trkpt lat="49.38815" lon="6.22825">
        <ele>145.7998</ele>
        <time>2026-05-20T10:02:40+02:00</time>
      </trkpt>
      <trkpt lat="49.38812" lon="6.22817">
        <ele>145.7998</ele>
        <time>2026-05-20T10:02:41+02:00</time>
      </trkpt>
      <trkpt lat="49.3881" lon="6.22809">
        <ele>145.7998</ele>
        <time>2026-05-20T10:02:42+02:00</time>
      </trkpt>
      <trkpt lat="49.38808" lon="6.22801">
        <ele>145.7998</ele>
        <time>2026-05-20T10:02:43+02:00</time>
      </trkpt>
      <trkpt lat="49.38806" lon="6.22793">
        <ele>145.90039</ele>
        <time>2026-05-20T10:02:44+02:00</time>
      </trkpt>
      <trkpt lat="49.38804" lon="6.22785">
        <ele>145.90039</ele>
        <time>2026-05-20T10:02:45+02:00</time>
      </trkpt>
      <trkpt lat="49.38801" lon="6.22777">
        <ele>145.90039</ele>
        <time>2026-05-20T10:02:46+02:00</time>
      </trkpt>
      <trkpt lat="49.38799" lon="6.22769">
        <ele>145.90039</ele>
        <time>2026-05-20T10:02:47+02:00</time>
      </trkpt>
      <trkpt lat="49.38797" lon="6.22761">
        <ele>145.90039</ele>
        <time>2026-05-20T10:02:48+02:00</time>
      </trkpt>
      <trkpt lat="49.38795" lon="6.22753">
        <ele>145.90039</ele>
        <time>2026-05-20T10:02:49+02:00</time>
      </trkpt>
      <trkpt lat="49.38793" lon="6.22745">
        <ele>145.90039</ele>
        <time>2026-05-20T10:02:50+02:00</time>
      </trkpt>
      <trkpt lat="49.38791" lon="6.22738">
        <ele>145.90039</ele>
        <time>2026-05-20T10:02:51+02:00</time>
      </trkpt>
      <trkpt lat="49.38789" lon="6.2273">
        <ele>145.7998</ele>
        <time>2026-05-20T10:02:52+02:00</time>
      </trkpt>
      <trkpt lat="49.38787" lon="6.22722">
        <ele>145.7998</ele>
        <time>2026-05-20T10:02:53+02:00</time>
      </trkpt>
      <trkpt lat="49.38785" lon="6.22714">
        <ele>145.7998</ele>
        <time>2026-05-20T10:02:54+02:00</time>
      </trkpt>
      <trkpt lat="49.38783" lon="6.22706">
        <ele>145.7998</ele>
        <time>2026-05-20T10:02:55+02:00</time>
      </trkpt>
      <trkpt lat="49.38782" lon="6.22698">
        <ele>145.90039</ele>
        <time>2026-05-20T10:02:56+02:00</time>
      </trkpt>
      <trkpt lat="49.3878" lon="6.2269">
        <ele>145.90039</ele>
        <time>2026-05-20T10:02:57+02:00</time>
      </trkpt>
      <trkpt lat="49.38779" lon="6.22681">
        <ele>145.90039</ele>
        <time>2026-05-20T10:02:58+02:00</time>
      </trkpt>
      <trkpt lat="49.38778" lon="6.22673">
        <ele>146</ele>
        <time>2026-05-20T10:02:59+02:00</time>
      </trkpt>
      <trkpt lat="49.38777" lon="6.22665">
        <ele>146</ele>
        <time>2026-05-20T10:03:00+02:00</time>
      </trkpt>
      <trkpt lat="49.38777" lon="6.22657">
        <ele>146</ele>
        <time>2026-05-20T10:03:01+02:00</time>
      </trkpt>
      <trkpt lat="49.38776" lon="6.22649">
        <ele>146</ele>
        <time>2026-05-20T10:03:02+02:00</time>
      </trkpt>
      <trkpt lat="49.38775" lon="6.2264">
        <ele>146.10059</ele>
        <time>2026-05-20T10:03:03+02:00</time>
      </trkpt>
      <trkpt lat="49.38775" lon="6.22632">
        <ele>146.10059</ele>
        <time>2026-05-20T10:03:04+02:00</time>
      </trkpt>
      <trkpt lat="49.38775" lon="6.22624">
        <ele>146.10059</ele>
        <time>2026-05-20T10:03:05+02:00</time>
      </trkpt>
      <trkpt lat="49.38774" lon="6.22615">
        <ele>146.10059</ele>
        <time>2026-05-20T10:03:06+02:00</time>
      </trkpt>
      <trkpt lat="49.38774" lon="6.22607">
        <ele>146.10059</ele>
        <time>2026-05-20T10:03:07+02:00</time>
      </trkpt>
      <trkpt lat="49.38774" lon="6.22598">
        <ele>146.2002</ele>
        <time>2026-05-20T10:03:08+02:00</time>
      </trkpt>
      <trkpt lat="49.38773" lon="6.2259">
        <ele>145.90039</ele>
        <time>2026-05-20T10:03:09+02:00</time>
      </trkpt>
      <trkpt lat="49.38773" lon="6.22582">
        <ele>145.90039</ele>
        <time>2026-05-20T10:03:10+02:00</time>
      </trkpt>
      <trkpt lat="49.38773" lon="6.22573">
        <ele>146</ele>
        <time>2026-05-20T10:03:11+02:00</time>
      </trkpt>
      <trkpt lat="49.38773" lon="6.22565">
        <ele>146</ele>
        <time>2026-05-20T10:03:12+02:00</time>
      </trkpt>
      <trkpt lat="49.38773" lon="6.22556">
        <ele>146</ele>
        <time>2026-05-20T10:03:13+02:00</time>
      </trkpt>
      <trkpt lat="49.38773" lon="6.22548">
        <ele>146</ele>
        <time>2026-05-20T10:03:14+02:00</time>
      </trkpt>
      <trkpt lat="49.38773" lon="6.22539">
        <ele>146</ele>
        <time>2026-05-20T10:03:15+02:00</time>
      </trkpt>
      <trkpt lat="49.38773" lon="6.22531">
        <ele>146</ele>
        <time>2026-05-20T10:03:16+02:00</time>
      </trkpt>
      <trkpt lat="49.38773" lon="6.22522">
        <ele>146</ele>
        <time>2026-05-20T10:03:17+02:00</time>
      </trkpt>
      <trkpt lat="49.38773" lon="6.22514">
        <ele>146</ele>
        <time>2026-05-20T10:03:18+02:00</time>
      </trkpt>
      <trkpt lat="49.38773" lon="6.22506">
        <ele>146</ele>
        <time>2026-05-20T10:03:19+02:00</time>
      </trkpt>
      <trkpt lat="49.38773" lon="6.22498">
        <ele>146</ele>
        <time>2026-05-20T10:03:20+02:00</time>
      </trkpt>
      <trkpt lat="49.38773" lon="6.22489">
        <ele>146</ele>
        <time>2026-05-20T10:03:21+02:00</time>
      </trkpt>
      <trkpt lat="49.38773" lon="6.22481">
        <ele>146.10059</ele>
        <time>2026-05-20T10:03:22+02:00</time>
      </trkpt>
      <trkpt lat="49.38773" lon="6.22473">
        <ele>146.10059</ele>
        <time>2026-05-20T10:03:23+02:00</time>
      </trkpt>
      <trkpt lat="49.38774" lon="6.22465">
        <ele>146.5</ele>
        <time>2026-05-20T10:03:24+02:00</time>
      </trkpt>
      <trkpt lat="49.38774" lon="6.22457">
        <ele>146.5</ele>
        <time>2026-05-20T10:03:25+02:00</time>
      </trkpt>
      <trkpt lat="49.38775" lon="6.22449">
        <ele>146.5</ele>
        <time>2026-05-20T10:03:26+02:00</time>
      </trkpt>
      <trkpt lat="49.38775" lon="6.22441">
        <ele>146.5</ele>
        <time>2026-05-20T10:03:27+02:00</time>
      </trkpt>
      <trkpt lat="49.38776" lon="6.22433">
        <ele>146.60059</ele>
        <time>2026-05-20T10:03:28+02:00</time>
      </trkpt>
      <trkpt lat="49.38776" lon="6.22425">
        <ele>146.60059</ele>
        <time>2026-05-20T10:03:29+02:00</time>
      </trkpt>
      <trkpt lat="49.38776" lon="6.22417">
        <ele>146.60059</ele>
        <time>2026-05-20T10:03:30+02:00</time>
      </trkpt>
      <trkpt lat="49.38776" lon="6.22409">
        <ele>146.60059</ele>
        <time>2026-05-20T10:03:31+02:00</time>
      </trkpt>
      <trkpt lat="49.38777" lon="6.22401">
        <ele>146.7002</ele>
        <time>2026-05-20T10:03:32+02:00</time>
      </trkpt>
      <trkpt lat="49.38777" lon="6.22393">
        <ele>146.7002</ele>
        <time>2026-05-20T10:03:33+02:00</time>
      </trkpt>
      <trkpt lat="49.38778" lon="6.22385">
        <ele>146.7002</ele>
        <time>2026-05-20T10:03:34+02:00</time>
      </trkpt>
      <trkpt lat="49.38778" lon="6.22376">
        <ele>146.7002</ele>
        <time>2026-05-20T10:03:35+02:00</time>
      </trkpt>
      <trkpt lat="49.38778" lon="6.22368">
        <ele>146.7002</ele>
        <time>2026-05-20T10:03:36+02:00</time>
      </trkpt>
      <trkpt lat="49.38779" lon="6.2236">
        <ele>146.7002</ele>
        <time>2026-05-20T10:03:37+02:00</time>
      </trkpt>
      <trkpt lat="49.3878" lon="6.22351">
        <ele>147.2998</ele>
        <time>2026-05-20T10:03:38+02:00</time>
      </trkpt>
      <trkpt lat="49.3878" lon="6.22343">
        <ele>147.2998</ele>
        <time>2026-05-20T10:03:39+02:00</time>
      </trkpt>
      <trkpt lat="49.3878" lon="6.22335">
        <ele>147.40039</ele>
        <time>2026-05-20T10:03:40+02:00</time>
      </trkpt>
      <trkpt lat="49.38781" lon="6.22327">
        <ele>147.40039</ele>
        <time>2026-05-20T10:03:41+02:00</time>
      </trkpt>
      <trkpt lat="49.38781" lon="6.22319">
        <ele>147.2998</ele>
        <time>2026-05-20T10:03:42+02:00</time>
      </trkpt>
      <trkpt lat="49.38781" lon="6.2231">
        <ele>147.2998</ele>
        <time>2026-05-20T10:03:43+02:00</time>
      </trkpt>
      <trkpt lat="49.38782" lon="6.22302">
        <ele>147.10059</ele>
        <time>2026-05-20T10:03:44+02:00</time>
      </trkpt>
      <trkpt lat="49.38782" lon="6.22294">
        <ele>146.90039</ele>
        <time>2026-05-20T10:03:45+02:00</time>
      </trkpt>
      <trkpt lat="49.38783" lon="6.22285">
        <ele>146.7998</ele>
        <time>2026-05-20T10:03:46+02:00</time>
      </trkpt>
      <trkpt lat="49.38783" lon="6.22277">
        <ele>146.7002</ele>
        <time>2026-05-20T10:03:47+02:00</time>
      </trkpt>
      <trkpt lat="49.38784" lon="6.22269">
        <ele>146.7002</ele>
        <time>2026-05-20T10:03:48+02:00</time>
      </trkpt>
      <trkpt lat="49.38784" lon="6.22261">
        <ele>146.60059</ele>
        <time>2026-05-20T10:03:49+02:00</time>
      </trkpt>
      <trkpt lat="49.38785" lon="6.22252">
        <ele>147</ele>
        <time>2026-05-20T10:03:50+02:00</time>
      </trkpt>
      <trkpt lat="49.38785" lon="6.22244">
        <ele>147</ele>
        <time>2026-05-20T10:03:51+02:00</time>
      </trkpt>
      <trkpt lat="49.38785" lon="6.22236">
        <ele>146.90039</ele>
        <time>2026-05-20T10:03:52+02:00</time>
      </trkpt>
      <trkpt lat="49.38786" lon="6.22227">
        <ele>146.90039</ele>
        <time>2026-05-20T10:03:53+02:00</time>
      </trkpt>
      <trkpt lat="49.38786" lon="6.22219">
        <ele>146.90039</ele>
        <time>2026-05-20T10:03:54+02:00</time>
      </trkpt>
      <trkpt lat="49.38786" lon="6.22211">
        <ele>146.7998</ele>
        <time>2026-05-20T10:03:55+02:00</time>
      </trkpt>
      <trkpt lat="49.38787" lon="6.22203">
        <ele>146.7998</ele>
        <time>2026-05-20T10:03:56+02:00</time>
      </trkpt>
      <trkpt lat="49.38788" lon="6.22194">
        <ele>146.7002</ele>
        <time>2026-05-20T10:03:57+02:00</time>
      </trkpt>
      <trkpt lat="49.38788" lon="6.22186">
        <ele>146.60059</ele>
        <time>2026-05-20T10:03:58+02:00</time>
      </trkpt>
      <trkpt lat="49.38789" lon="6.22178">
        <ele>146.5</ele>
        <time>2026-05-20T10:03:59+02:00</time>
      </trkpt>
      <trkpt lat="49.38789" lon="6.22169">
        <ele>146.5</ele>
        <time>2026-05-20T10:04:00+02:00</time>
      </trkpt>
      <trkpt lat="49.3879" lon="6.22161">
        <ele>146.5</ele>
        <time>2026-05-20T10:04:01+02:00</time>
      </trkpt>
      <trkpt lat="49.3879" lon="6.22152">
        <ele>146.60059</ele>
        <time>2026-05-20T10:04:02+02:00</time>
      </trkpt>
      <trkpt lat="49.38791" lon="6.22144">
        <ele>147.2002</ele>
        <time>2026-05-20T10:04:03+02:00</time>
      </trkpt>
      <trkpt lat="49.38791" lon="6.22136">
        <ele>147.2998</ele>
        <time>2026-05-20T10:04:04+02:00</time>
      </trkpt>
      <trkpt lat="49.38792" lon="6.22128">
        <ele>147.2998</ele>
        <time>2026-05-20T10:04:05+02:00</time>
      </trkpt>
      <trkpt lat="49.38793" lon="6.2212">
        <ele>147.2998</ele>
        <time>2026-05-20T10:04:06+02:00</time>
      </trkpt>
      <trkpt lat="49.38793" lon="6.22112">
        <ele>147.40039</ele>
        <time>2026-05-20T10:04:07+02:00</time>
      </trkpt>
      <trkpt lat="49.38793" lon="6.22104">
        <ele>147.40039</ele>
        <time>2026-05-20T10:04:08+02:00</time>
      </trkpt>
      <trkpt lat="49.38794" lon="6.22096">
        <ele>147.40039</ele>
        <time>2026-05-20T10:04:09+02:00</time>
      </trkpt>
      <trkpt lat="49.38794" lon="6.22087">
        <ele>147.5</ele>
        <time>2026-05-20T10:04:10+02:00</time>
      </trkpt>
      <trkpt lat="49.38795" lon="6.22079">
        <ele>147.5</ele>
        <time>2026-05-20T10:04:11+02:00</time>
      </trkpt>
      <trkpt lat="49.38796" lon="6.22071">
        <ele>147.5</ele>
        <time>2026-05-20T10:04:12+02:00</time>
      </trkpt>
      <trkpt lat="49.38796" lon="6.22063">
        <ele>147.5</ele>
        <time>2026-05-20T10:04:13+02:00</time>
      </trkpt>
      <trkpt lat="49.38796" lon="6.22054">
        <ele>147.5</ele>
        <time>2026-05-20T10:04:14+02:00</time>
      </trkpt>
      <trkpt lat="49.38797" lon="6.22046">
        <ele>147.90039</ele>
        <time>2026-05-20T10:04:15+02:00</time>
      </trkpt>
      <trkpt lat="49.38798" lon="6.22038">
        <ele>147.7002</ele>
        <time>2026-05-20T10:04:16+02:00</time>
      </trkpt>
      <trkpt lat="49.38798" lon="6.22029">
        <ele>147.40039</ele>
        <time>2026-05-20T10:04:17+02:00</time>
      </trkpt>
      <trkpt lat="49.38799" lon="6.22021">
        <ele>146.90039</ele>
        <time>2026-05-20T10:04:18+02:00</time>
      </trkpt>
      <trkpt lat="49.38799" lon="6.22013">
        <ele>146.40039</ele>
        <time>2026-05-20T10:04:19+02:00</time>
      </trkpt>
      <trkpt lat="49.388" lon="6.22004">
        <ele>146.10059</ele>
        <time>2026-05-20T10:04:20+02:00</time>
      </trkpt>
      <trkpt lat="49.38801" lon="6.21996">
        <ele>146.10059</ele>
        <time>2026-05-20T10:04:21+02:00</time>
      </trkpt>
      <trkpt lat="49.38801" lon="6.21987">
        <ele>146.10059</ele>
        <time>2026-05-20T10:04:22+02:00</time>
      </trkpt>
      <trkpt lat="49.38801" lon="6.21979">
        <ele>146.10059</ele>
        <time>2026-05-20T10:04:23+02:00</time>
      </trkpt>
      <trkpt lat="49.38802" lon="6.2197">
        <ele>146.7998</ele>
        <time>2026-05-20T10:04:24+02:00</time>
      </trkpt>
      <trkpt lat="49.38802" lon="6.21962">
        <ele>146.7998</ele>
        <time>2026-05-20T10:04:25+02:00</time>
      </trkpt>
      <trkpt lat="49.38803" lon="6.21953">
        <ele>146.90039</ele>
        <time>2026-05-20T10:04:26+02:00</time>
      </trkpt>
      <trkpt lat="49.38803" lon="6.21944">
        <ele>146.90039</ele>
        <time>2026-05-20T10:04:27+02:00</time>
      </trkpt>
      <trkpt lat="49.38803" lon="6.21935">
        <ele>147</ele>
        <time>2026-05-20T10:04:28+02:00</time>
      </trkpt>
      <trkpt lat="49.38804" lon="6.21927">
        <ele>147</ele>
        <time>2026-05-20T10:04:29+02:00</time>
      </trkpt>
      <trkpt lat="49.38805" lon="6.21918">
        <ele>147</ele>
        <time>2026-05-20T10:04:30+02:00</time>
      </trkpt>
      <trkpt lat="49.38805" lon="6.2191">
        <ele>147</ele>
        <time>2026-05-20T10:04:31+02:00</time>
      </trkpt>
      <trkpt lat="49.38806" lon="6.21901">
        <ele>147</ele>
        <time>2026-05-20T10:04:32+02:00</time>
      </trkpt>
      <trkpt lat="49.38806" lon="6.21893">
        <ele>147</ele>
        <time>2026-05-20T10:04:33+02:00</time>
      </trkpt>
      <trkpt lat="49.38806" lon="6.21884">
        <ele>146.90039</ele>
        <time>2026-05-20T10:04:34+02:00</time>
      </trkpt>
      <trkpt lat="49.38806" lon="6.21876">
        <ele>146.90039</ele>
        <time>2026-05-20T10:04:35+02:00</time>
      </trkpt>
      <trkpt lat="49.38807" lon="6.21868">
        <ele>146.90039</ele>
        <time>2026-05-20T10:04:36+02:00</time>
      </trkpt>
      <trkpt lat="49.38807" lon="6.21859">
        <ele>146.7998</ele>
        <time>2026-05-20T10:04:37+02:00</time>
      </trkpt>
      <trkpt lat="49.38808" lon="6.21851">
        <ele>147.2998</ele>
        <time>2026-05-20T10:04:38+02:00</time>
      </trkpt>
      <trkpt lat="49.38809" lon="6.21842">
        <ele>147.2002</ele>
        <time>2026-05-20T10:04:39+02:00</time>
      </trkpt>
      <trkpt lat="49.38809" lon="6.21834">
        <ele>147</ele>
        <time>2026-05-20T10:04:40+02:00</time>
      </trkpt>
      <trkpt lat="49.38809" lon="6.21825">
        <ele>146.7998</ele>
        <time>2026-05-20T10:04:41+02:00</time>
      </trkpt>
      <trkpt lat="49.3881" lon="6.21817">
        <ele>146.40039</ele>
        <time>2026-05-20T10:04:42+02:00</time>
      </trkpt>
      <trkpt lat="49.38811" lon="6.21809">
        <ele>146.10059</ele>
        <time>2026-05-20T10:04:43+02:00</time>
      </trkpt>
      <trkpt lat="49.38812" lon="6.21801">
        <ele>146.10059</ele>
        <time>2026-05-20T10:04:44+02:00</time>
      </trkpt>
      <trkpt lat="49.38813" lon="6.21793">
        <ele>146.10059</ele>
        <time>2026-05-20T10:04:45+02:00</time>
      </trkpt>
      <trkpt lat="49.38815" lon="6.21785">
        <ele>146.10059</ele>
        <time>2026-05-20T10:04:46+02:00</time>
      </trkpt>
      <trkpt lat="49.38816" lon="6.21776">
        <ele>146.10059</ele>
        <time>2026-05-20T10:04:47+02:00</time>
      </trkpt>
      <trkpt lat="49.38818" lon="6.21768">
        <ele>146.10059</ele>
        <time>2026-05-20T10:04:48+02:00</time>
      </trkpt>
      <trkpt lat="49.3882" lon="6.2176">
        <ele>146.40039</ele>
        <time>2026-05-20T10:04:49+02:00</time>
      </trkpt>
      <trkpt lat="49.38822" lon="6.21752">
        <ele>146.2998</ele>
        <time>2026-05-20T10:04:50+02:00</time>
      </trkpt>
      <trkpt lat="49.38824" lon="6.21744">
        <ele>146.2998</ele>
        <time>2026-05-20T10:04:51+02:00</time>
      </trkpt>
      <trkpt lat="49.38826" lon="6.21736">
        <ele>146</ele>
        <time>2026-05-20T10:04:52+02:00</time>
      </trkpt>
      <trkpt lat="49.38828" lon="6.21728">
        <ele>145.7998</ele>
        <time>2026-05-20T10:04:53+02:00</time>
      </trkpt>
      <trkpt lat="49.3883" lon="6.21721">
        <ele>145.90039</ele>
        <time>2026-05-20T10:04:54+02:00</time>
      </trkpt>
      <trkpt lat="49.38832" lon="6.21713">
        <ele>146</ele>
        <time>2026-05-20T10:04:55+02:00</time>
      </trkpt>
      <trkpt lat="49.38834" lon="6.21705">
        <ele>146</ele>
        <time>2026-05-20T10:04:56+02:00</time>
      </trkpt>
      <trkpt lat="49.38836" lon="6.21698">
        <ele>146.2998</ele>
        <time>2026-05-20T10:04:57+02:00</time>
      </trkpt>
      <trkpt lat="49.38838" lon="6.2169">
        <ele>146.2998</ele>
        <time>2026-05-20T10:04:58+02:00</time>
      </trkpt>
      <trkpt lat="49.3884" lon="6.21683">
        <ele>146.2998</ele>
        <time>2026-05-20T10:04:59+02:00</time>
      </trkpt>
      <trkpt lat="49.38843" lon="6.21675">
        <ele>146.90039</ele>
        <time>2026-05-20T10:05:00+02:00</time>
      </trkpt>
      <trkpt lat="49.38844" lon="6.21668">
        <ele>146.90039</ele>
        <time>2026-05-20T10:05:01+02:00</time>
      </trkpt>
      <trkpt lat="49.38846" lon="6.2166">
        <ele>146.7998</ele>
        <time>2026-05-20T10:05:02+02:00</time>
      </trkpt>
      <trkpt lat="49.38848" lon="6.21653">
        <ele>147</ele>
        <time>2026-05-20T10:05:03+02:00</time>
      </trkpt>
      <trkpt lat="49.38851" lon="6.21646">
        <ele>147</ele>
        <time>2026-05-20T10:05:04+02:00</time>
      </trkpt>
      <trkpt lat="49.38852" lon="6.21638">
        <ele>147.10059</ele>
        <time>2026-05-20T10:05:05+02:00</time>
      </trkpt>
      <trkpt lat="49.38854" lon="6.21631">
        <ele>146.7002</ele>
        <time>2026-05-20T10:05:06+02:00</time>
      </trkpt>
      <trkpt lat="49.38857" lon="6.21623">
        <ele>146.2998</ele>
        <time>2026-05-20T10:05:07+02:00</time>
      </trkpt>
      <trkpt lat="49.38859" lon="6.21616">
        <ele>146.7002</ele>
        <time>2026-05-20T10:05:08+02:00</time>
      </trkpt>
      <trkpt lat="49.3886" lon="6.21608">
        <ele>146.60059</ele>
        <time>2026-05-20T10:05:09+02:00</time>
      </trkpt>
      <trkpt lat="49.38862" lon="6.21601">
        <ele>146.60059</ele>
        <time>2026-05-20T10:05:10+02:00</time>
      </trkpt>
      <trkpt lat="49.38864" lon="6.21593">
        <ele>146.90039</ele>
        <time>2026-05-20T10:05:11+02:00</time>
      </trkpt>
      <trkpt lat="49.38867" lon="6.21586">
        <ele>146.90039</ele>
        <time>2026-05-20T10:05:12+02:00</time>
      </trkpt>
      <trkpt lat="49.38868" lon="6.21579">
        <ele>146.7002</ele>
        <time>2026-05-20T10:05:13+02:00</time>
      </trkpt>
      <trkpt lat="49.38871" lon="6.21571">
        <ele>146.7998</ele>
        <time>2026-05-20T10:05:14+02:00</time>
      </trkpt>
      <trkpt lat="49.38873" lon="6.21564">
        <ele>146.40039</ele>
        <time>2026-05-20T10:05:15+02:00</time>
      </trkpt>
      <trkpt lat="49.38875" lon="6.21556">
        <ele>146.5</ele>
        <time>2026-05-20T10:05:16+02:00</time>
      </trkpt>
      <trkpt lat="49.38876" lon="6.21549">
        <ele>146.2998</ele>
        <time>2026-05-20T10:05:17+02:00</time>
      </trkpt>
      <trkpt lat="49.38879" lon="6.21541">
        <ele>146.10059</ele>
        <time>2026-05-20T10:05:18+02:00</time>
      </trkpt>
      <trkpt lat="49.38881" lon="6.21534">
        <ele>146.2002</ele>
        <time>2026-05-20T10:05:19+02:00</time>
      </trkpt>
      <trkpt lat="49.38883" lon="6.21527">
        <ele>146.2002</ele>
        <time>2026-05-20T10:05:20+02:00</time>
      </trkpt>
      <trkpt lat="49.38885" lon="6.21519">
        <ele>145.90039</ele>
        <time>2026-05-20T10:05:21+02:00</time>
      </trkpt>
      <trkpt lat="49.38887" lon="6.21512">
        <ele>145.7998</ele>
        <time>2026-05-20T10:05:22+02:00</time>
      </trkpt>
      <trkpt lat="49.38889" lon="6.21504">
        <ele>145.7998</ele>
        <time>2026-05-20T10:05:23+02:00</time>
      </trkpt>
      <trkpt lat="49.38891" lon="6.21497">
        <ele>145.7998</ele>
        <time>2026-05-20T10:05:24+02:00</time>
      </trkpt>
      <trkpt lat="49.38893" lon="6.21489">
        <ele>146</ele>
        <time>2026-05-20T10:05:25+02:00</time>
      </trkpt>
      <trkpt lat="49.38895" lon="6.21482">
        <ele>146</ele>
        <time>2026-05-20T10:05:26+02:00</time>
      </trkpt>
      <trkpt lat="49.38897" lon="6.21475">
        <ele>146.40039</ele>
        <time>2026-05-20T10:05:27+02:00</time>
      </trkpt>
      <trkpt lat="49.38899" lon="6.21467">
        <ele>146.2002</ele>
        <time>2026-05-20T10:05:28+02:00</time>
      </trkpt>
      <trkpt lat="49.38901" lon="6.2146">
        <ele>146</ele>
        <time>2026-05-20T10:05:29+02:00</time>
      </trkpt>
      <trkpt lat="49.38903" lon="6.21453">
        <ele>145.90039</ele>
        <time>2026-05-20T10:05:30+02:00</time>
      </trkpt>
      <trkpt lat="49.38905" lon="6.21445">
        <ele>145.7002</ele>
        <time>2026-05-20T10:05:31+02:00</time>
      </trkpt>
      <trkpt lat="49.38907" lon="6.21438">
        <ele>145.7002</ele>
        <time>2026-05-20T10:05:32+02:00</time>
      </trkpt>
      <trkpt lat="49.38909" lon="6.21431">
        <ele>145.90039</ele>
        <time>2026-05-20T10:05:33+02:00</time>
      </trkpt>
      <trkpt lat="49.3891" lon="6.21424">
        <ele>145.90039</ele>
        <time>2026-05-20T10:05:34+02:00</time>
      </trkpt>
      <trkpt lat="49.38912" lon="6.21416">
        <ele>145.90039</ele>
        <time>2026-05-20T10:05:35+02:00</time>
      </trkpt>
      <trkpt lat="49.38914" lon="6.21409">
        <ele>146.2002</ele>
        <time>2026-05-20T10:05:36+02:00</time>
      </trkpt>
      <trkpt lat="49.38917" lon="6.21401">
        <ele>146.2002</ele>
        <time>2026-05-20T10:05:37+02:00</time>
      </trkpt>
      <trkpt lat="49.38918" lon="6.21394">
        <ele>146.2002</ele>
        <time>2026-05-20T10:05:38+02:00</time>
      </trkpt>
      <trkpt lat="49.3892" lon="6.21387">
        <ele>146.90039</ele>
        <time>2026-05-20T10:05:39+02:00</time>
      </trkpt>
      <trkpt lat="49.38923" lon="6.21379">
        <ele>146.90039</ele>
        <time>2026-05-20T10:05:40+02:00</time>
      </trkpt>
      <trkpt lat="49.38925" lon="6.21372">
        <ele>147.60059</ele>
        <time>2026-05-20T10:05:41+02:00</time>
      </trkpt>
      <trkpt lat="49.38927" lon="6.21364">
        <ele>147.60059</ele>
        <time>2026-05-20T10:05:42+02:00</time>
      </trkpt>
      <trkpt lat="49.38929" lon="6.21357">
        <ele>147.60059</ele>
        <time>2026-05-20T10:05:43+02:00</time>
      </trkpt>
      <trkpt lat="49.38931" lon="6.21349">
        <ele>148.10059</ele>
        <time>2026-05-20T10:05:44+02:00</time>
      </trkpt>
      <trkpt lat="49.38933" lon="6.21341">
        <ele>147.90039</ele>
        <time>2026-05-20T10:05:45+02:00</time>
      </trkpt>
      <trkpt lat="49.38935" lon="6.21334">
        <ele>147.60059</ele>
        <time>2026-05-20T10:05:46+02:00</time>
      </trkpt>
      <trkpt lat="49.38937" lon="6.21326">
        <ele>147.7002</ele>
        <time>2026-05-20T10:05:47+02:00</time>
      </trkpt>
      <trkpt lat="49.38939" lon="6.21318">
        <ele>147.2998</ele>
        <time>2026-05-20T10:05:48+02:00</time>
      </trkpt>
      <trkpt lat="49.3894" lon="6.2131">
        <ele>146.7998</ele>
        <time>2026-05-20T10:05:49+02:00</time>
      </trkpt>
      <trkpt lat="49.38942" lon="6.21301">
        <ele>147.5</ele>
        <time>2026-05-20T10:05:50+02:00</time>
      </trkpt>
      <trkpt lat="49.38943" lon="6.21293">
        <ele>147.40039</ele>
        <time>2026-05-20T10:05:51+02:00</time>
      </trkpt>
      <trkpt lat="49.38944" lon="6.21285">
        <ele>147.2002</ele>
        <time>2026-05-20T10:05:52+02:00</time>
      </trkpt>
      <trkpt lat="49.38946" lon="6.21277">
        <ele>147.2002</ele>
        <time>2026-05-20T10:05:53+02:00</time>
      </trkpt>
      <trkpt lat="49.38947" lon="6.21269">
        <ele>147.60059</ele>
        <time>2026-05-20T10:05:54+02:00</time>
      </trkpt>
      <trkpt lat="49.38949" lon="6.21261">
        <ele>147.5</ele>
        <time>2026-05-20T10:05:55+02:00</time>
      </trkpt>
      <trkpt lat="49.3895" lon="6.21253">
        <ele>147.40039</ele>
        <time>2026-05-20T10:05:56+02:00</time>
      </trkpt>
      <trkpt lat="49.38952" lon="6.21245">
        <ele>147.40039</ele>
        <time>2026-05-20T10:05:57+02:00</time>
      </trkpt>
      <trkpt lat="49.38953" lon="6.21237">
        <ele>147.90039</ele>
        <time>2026-05-20T10:05:58+02:00</time>
      </trkpt>
      <trkpt lat="49.38954" lon="6.21228">
        <ele>148</ele>
        <time>2026-05-20T10:05:59+02:00</time>
      </trkpt>
      <trkpt lat="49.38954" lon="6.2122">
        <ele>148.2002</ele>
        <time>2026-05-20T10:06:00+02:00</time>
      </trkpt>
      <trkpt lat="49.38955" lon="6.21212">
        <ele>148.40039</ele>
        <time>2026-05-20T10:06:01+02:00</time>
      </trkpt>
      <trkpt lat="49.38955" lon="6.21203">
        <ele>148.60059</ele>
        <time>2026-05-20T10:06:02+02:00</time>
      </trkpt>
      <trkpt lat="49.38955" lon="6.21195">
        <ele>148.7998</ele>
        <time>2026-05-20T10:06:03+02:00</time>
      </trkpt>
      <trkpt lat="49.38955" lon="6.21186">
        <ele>149.10059</ele>
        <time>2026-05-20T10:06:04+02:00</time>
      </trkpt>
      <trkpt lat="49.38955" lon="6.21178">
        <ele>149.2998</ele>
        <time>2026-05-20T10:06:05+02:00</time>
      </trkpt>
      <trkpt lat="49.38955" lon="6.2117">
        <ele>149.5</ele>
        <time>2026-05-20T10:06:06+02:00</time>
      </trkpt>
      <trkpt lat="49.38955" lon="6.21162">
        <ele>149.7002</ele>
        <time>2026-05-20T10:06:07+02:00</time>
      </trkpt>
      <trkpt lat="49.38955" lon="6.21153">
        <ele>149.90039</ele>
        <time>2026-05-20T10:06:08+02:00</time>
      </trkpt>
      <trkpt lat="49.38955" lon="6.21145">
        <ele>150.10059</ele>
        <time>2026-05-20T10:06:09+02:00</time>
      </trkpt>
      <trkpt lat="49.38955" lon="6.21137">
        <ele>150.2002</ele>
        <time>2026-05-20T10:06:10+02:00</time>
      </trkpt>
      <trkpt lat="49.38955" lon="6.21129">
        <ele>150.2998</ele>
        <time>2026-05-20T10:06:11+02:00</time>
      </trkpt>
      <trkpt lat="49.38955" lon="6.2112">
        <ele>150.40039</ele>
        <time>2026-05-20T10:06:12+02:00</time>
      </trkpt>
      <trkpt lat="49.38954" lon="6.21112">
        <ele>150.40039</ele>
        <time>2026-05-20T10:06:13+02:00</time>
      </trkpt>
      <trkpt lat="49.38954" lon="6.21104">
        <ele>150.40039</ele>
        <time>2026-05-20T10:06:14+02:00</time>
      </trkpt>
      <trkpt lat="49.38952" lon="6.21096">
        <ele>149.7002</ele>
        <time>2026-05-20T10:06:15+02:00</time>
      </trkpt>
      <trkpt lat="49.38951" lon="6.21088">
        <ele>149.7002</ele>
        <time>2026-05-20T10:06:16+02:00</time>
      </trkpt>
      <trkpt lat="49.3895" lon="6.2108">
        <ele>149.7002</ele>
        <time>2026-05-20T10:06:17+02:00</time>
      </trkpt>
      <trkpt lat="49.3895" lon="6.21072">
        <ele>149.7998</ele>
        <time>2026-05-20T10:06:18+02:00</time>
      </trkpt>
      <trkpt lat="49.38949" lon="6.21064">
        <ele>149.7998</ele>
        <time>2026-05-20T10:06:19+02:00</time>
      </trkpt>
      <trkpt lat="49.38947" lon="6.21056">
        <ele>149.7998</ele>
        <time>2026-05-20T10:06:20+02:00</time>
      </trkpt>
      <trkpt lat="49.38947" lon="6.21048">
        <ele>149.7998</ele>
        <time>2026-05-20T10:06:21+02:00</time>
      </trkpt>
      <trkpt lat="49.38946" lon="6.2104">
        <ele>149.10059</ele>
        <time>2026-05-20T10:06:22+02:00</time>
      </trkpt>
      <trkpt lat="49.38945" lon="6.21032">
        <ele>149.10059</ele>
        <time>2026-05-20T10:06:23+02:00</time>
      </trkpt>
      <trkpt lat="49.38944" lon="6.21024">
        <ele>149.10059</ele>
        <time>2026-05-20T10:06:24+02:00</time>
      </trkpt>
      <trkpt lat="49.38943" lon="6.21015">
        <ele>149.10059</ele>
        <time>2026-05-20T10:06:25+02:00</time>
      </trkpt>
      <trkpt lat="49.38942" lon="6.21007">
        <ele>149.10059</ele>
        <time>2026-05-20T10:06:26+02:00</time>
      </trkpt>
      <trkpt lat="49.38941" lon="6.20999">
        <ele>148.40039</ele>
        <time>2026-05-20T10:06:27+02:00</time>
      </trkpt>
      <trkpt lat="49.3894" lon="6.20991">
        <ele>148.40039</ele>
        <time>2026-05-20T10:06:28+02:00</time>
      </trkpt>
      <trkpt lat="49.38939" lon="6.20983">
        <ele>148.40039</ele>
        <time>2026-05-20T10:06:29+02:00</time>
      </trkpt>
      <trkpt lat="49.38938" lon="6.20975">
        <ele>148.40039</ele>
        <time>2026-05-20T10:06:30+02:00</time>
      </trkpt>
      <trkpt lat="49.38938" lon="6.20967">
        <ele>148.40039</ele>
        <time>2026-05-20T10:06:31+02:00</time>
      </trkpt>
      <trkpt lat="49.38937" lon="6.2096">
        <ele>148.40039</ele>
        <time>2026-05-20T10:06:32+02:00</time>
      </trkpt>
      <trkpt lat="49.38936" lon="6.20952">
        <ele>148.40039</ele>
        <time>2026-05-20T10:06:33+02:00</time>
      </trkpt>
      <trkpt lat="49.38935" lon="6.20945">
        <ele>147.60059</ele>
        <time>2026-05-20T10:06:34+02:00</time>
      </trkpt>
      <trkpt lat="49.38934" lon="6.20937">
        <ele>147.7002</ele>
        <time>2026-05-20T10:06:35+02:00</time>
      </trkpt>
      <trkpt lat="49.38933" lon="6.2093">
        <ele>147.7002</ele>
        <time>2026-05-20T10:06:36+02:00</time>
      </trkpt>
      <trkpt lat="49.38932" lon="6.20922">
        <ele>147.7002</ele>
        <time>2026-05-20T10:06:37+02:00</time>
      </trkpt>
      <trkpt lat="49.38932" lon="6.20915">
        <ele>147.7002</ele>
        <time>2026-05-20T10:06:38+02:00</time>
      </trkpt>
      <trkpt lat="49.38931" lon="6.20907">
        <ele>147.7998</ele>
        <time>2026-05-20T10:06:39+02:00</time>
      </trkpt>
      <trkpt lat="49.3893" lon="6.20899">
        <ele>147.7998</ele>
        <time>2026-05-20T10:06:40+02:00</time>
      </trkpt>
      <trkpt lat="49.38929" lon="6.20891">
        <ele>147</ele>
        <time>2026-05-20T10:06:41+02:00</time>
      </trkpt>
      <trkpt lat="49.38927" lon="6.20883">
        <ele>147</ele>
        <time>2026-05-20T10:06:42+02:00</time>
      </trkpt>
      <trkpt lat="49.38925" lon="6.20876">
        <ele>147</ele>
        <time>2026-05-20T10:06:43+02:00</time>
      </trkpt>
      <trkpt lat="49.38923" lon="6.20869">
        <ele>146.40039</ele>
        <time>2026-05-20T10:06:44+02:00</time>
      </trkpt>
      <trkpt lat="49.38921" lon="6.20861">
        <ele>146.40039</ele>
        <time>2026-05-20T10:06:45+02:00</time>
      </trkpt>
      <trkpt lat="49.38919" lon="6.20854">
        <ele>146.40039</ele>
        <time>2026-05-20T10:06:46+02:00</time>
      </trkpt>
      <trkpt lat="49.38917" lon="6.20846">
        <ele>146</ele>
        <time>2026-05-20T10:06:47+02:00</time>
      </trkpt>
      <trkpt lat="49.38915" lon="6.20839">
        <ele>146</ele>
        <time>2026-05-20T10:06:48+02:00</time>
      </trkpt>
      <trkpt lat="49.38913" lon="6.20832">
        <ele>145.7998</ele>
        <time>2026-05-20T10:06:49+02:00</time>
      </trkpt>
      <trkpt lat="49.38911" lon="6.20824">
        <ele>145.7998</ele>
        <time>2026-05-20T10:06:50+02:00</time>
      </trkpt>
      <trkpt lat="49.38909" lon="6.20817">
        <ele>145.7998</ele>
        <time>2026-05-20T10:06:51+02:00</time>
      </trkpt>
      <trkpt lat="49.38906" lon="6.2081">
        <ele>145.7002</ele>
        <time>2026-05-20T10:06:52+02:00</time>
      </trkpt>
      <trkpt lat="49.38904" lon="6.20802">
        <ele>145.60059</ele>
        <time>2026-05-20T10:06:53+02:00</time>
      </trkpt>
      <trkpt lat="49.38902" lon="6.20795">
        <ele>145.7002</ele>
        <time>2026-05-20T10:06:54+02:00</time>
      </trkpt>
      <trkpt lat="49.389" lon="6.20788">
        <ele>145.7002</ele>
        <time>2026-05-20T10:06:55+02:00</time>
      </trkpt>
      <trkpt lat="49.38897" lon="6.20781">
        <ele>145.7998</ele>
        <time>2026-05-20T10:06:56+02:00</time>
      </trkpt>
      <trkpt lat="49.38895" lon="6.20773">
        <ele>145.90039</ele>
        <time>2026-05-20T10:06:57+02:00</time>
      </trkpt>
      <trkpt lat="49.38892" lon="6.20766">
        <ele>146</ele>
        <time>2026-05-20T10:06:58+02:00</time>
      </trkpt>
      <trkpt lat="49.3889" lon="6.20759">
        <ele>145.90039</ele>
        <time>2026-05-20T10:06:59+02:00</time>
      </trkpt>
      <trkpt lat="49.38888" lon="6.20752">
        <ele>145.90039</ele>
        <time>2026-05-20T10:07:00+02:00</time>
      </trkpt>
      <trkpt lat="49.38885" lon="6.20745">
        <ele>145.7998</ele>
        <time>2026-05-20T10:07:01+02:00</time>
      </trkpt>
      <trkpt lat="49.38882" lon="6.20738">
        <ele>145.7998</ele>
        <time>2026-05-20T10:07:02+02:00</time>
      </trkpt>
      <trkpt lat="49.3888" lon="6.20731">
        <ele>145.7998</ele>
        <time>2026-05-20T10:07:03+02:00</time>
      </trkpt>
      <trkpt lat="49.38877" lon="6.20723">
        <ele>145.7998</ele>
        <time>2026-05-20T10:07:04+02:00</time>
      </trkpt>
      <trkpt lat="49.38874" lon="6.20717">
        <ele>145.7998</ele>
        <time>2026-05-20T10:07:05+02:00</time>
      </trkpt>
      <trkpt lat="49.38872" lon="6.2071">
        <ele>145.7998</ele>
        <time>2026-05-20T10:07:06+02:00</time>
      </trkpt>
      <trkpt lat="49.38868" lon="6.20703">
        <ele>145.90039</ele>
        <time>2026-05-20T10:07:07+02:00</time>
      </trkpt>
      <trkpt lat="49.38866" lon="6.20695">
        <ele>145.90039</ele>
        <time>2026-05-20T10:07:08+02:00</time>
      </trkpt>
      <trkpt lat="49.38863" lon="6.20688">
        <ele>145.90039</ele>
        <time>2026-05-20T10:07:09+02:00</time>
      </trkpt>
      <trkpt lat="49.3886" lon="6.20681">
        <ele>145.7998</ele>
        <time>2026-05-20T10:07:10+02:00</time>
      </trkpt>
      <trkpt lat="49.38857" lon="6.20674">
        <ele>145.7002</ele>
        <time>2026-05-20T10:07:11+02:00</time>
      </trkpt>
      <trkpt lat="49.38855" lon="6.20667">
        <ele>145.7002</ele>
        <time>2026-05-20T10:07:12+02:00</time>
      </trkpt>
      <trkpt lat="49.38852" lon="6.2066">
        <ele>145.7002</ele>
        <time>2026-05-20T10:07:13+02:00</time>
      </trkpt>
      <trkpt lat="49.38849" lon="6.20653">
        <ele>145.7998</ele>
        <time>2026-05-20T10:07:14+02:00</time>
      </trkpt>
      <trkpt lat="49.38846" lon="6.20647">
        <ele>145.7998</ele>
        <time>2026-05-20T10:07:15+02:00</time>
      </trkpt>
      <trkpt lat="49.38843" lon="6.2064">
        <ele>145.90039</ele>
        <time>2026-05-20T10:07:16+02:00</time>
      </trkpt>
      <trkpt lat="49.38839" lon="6.20633">
        <ele>145.7002</ele>
        <time>2026-05-20T10:07:17+02:00</time>
      </trkpt>
      <trkpt lat="49.38836" lon="6.20627">
        <ele>145.7002</ele>
        <time>2026-05-20T10:07:18+02:00</time>
      </trkpt>
      <trkpt lat="49.38833" lon="6.2062">
        <ele>145.7998</ele>
        <time>2026-05-20T10:07:19+02:00</time>
      </trkpt>
      <trkpt lat="49.3883" lon="6.20614">
        <ele>146.10059</ele>
        <time>2026-05-20T10:07:20+02:00</time>
      </trkpt>
      <trkpt lat="49.38826" lon="6.20608">
        <ele>145.90039</ele>
        <time>2026-05-20T10:07:21+02:00</time>
      </trkpt>
      <trkpt lat="49.38822" lon="6.20601">
        <ele>146</ele>
        <time>2026-05-20T10:07:22+02:00</time>
      </trkpt>
      <trkpt lat="49.38819" lon="6.20595">
        <ele>146.2002</ele>
        <time>2026-05-20T10:07:23+02:00</time>
      </trkpt>
      <trkpt lat="49.38815" lon="6.20589">
        <ele>146</ele>
        <time>2026-05-20T10:07:24+02:00</time>
      </trkpt>
      <trkpt lat="49.38812" lon="6.20583">
        <ele>145.7998</ele>
        <time>2026-05-20T10:07:25+02:00</time>
      </trkpt>
      <trkpt lat="49.38808" lon="6.20577">
        <ele>146.10059</ele>
        <time>2026-05-20T10:07:26+02:00</time>
      </trkpt>
      <trkpt lat="49.38804" lon="6.20572">
        <ele>146.2998</ele>
        <time>2026-05-20T10:07:27+02:00</time>
      </trkpt>
      <trkpt lat="49.38801" lon="6.20566">
        <ele>146.10059</ele>
        <time>2026-05-20T10:07:28+02:00</time>
      </trkpt>
      <trkpt lat="49.38797" lon="6.2056">
        <ele>146.2002</ele>
        <time>2026-05-20T10:07:29+02:00</time>
      </trkpt>
      <trkpt lat="49.38793" lon="6.20554">
        <ele>146</ele>
        <time>2026-05-20T10:07:30+02:00</time>
      </trkpt>
      <trkpt lat="49.38789" lon="6.20549">
        <ele>145.7998</ele>
        <time>2026-05-20T10:07:31+02:00</time>
      </trkpt>
      <trkpt lat="49.38785" lon="6.20543">
        <ele>145.7002</ele>
        <time>2026-05-20T10:07:32+02:00</time>
      </trkpt>
      <trkpt lat="49.38781" lon="6.20537">
        <ele>145.60059</ele>
        <time>2026-05-20T10:07:33+02:00</time>
      </trkpt>
      <trkpt lat="49.38778" lon="6.20532">
        <ele>145.7002</ele>
        <time>2026-05-20T10:07:34+02:00</time>
      </trkpt>
      <trkpt lat="49.38774" lon="6.20526">
        <ele>145.7002</ele>
        <time>2026-05-20T10:07:35+02:00</time>
      </trkpt>
      <trkpt lat="49.3877" lon="6.2052">
        <ele>145.7998</ele>
        <time>2026-05-20T10:07:36+02:00</time>
      </trkpt>
      <trkpt lat="49.38766" lon="6.20514">
        <ele>145.90039</ele>
        <time>2026-05-20T10:07:37+02:00</time>
      </trkpt>
      <trkpt lat="49.38762" lon="6.20509">
        <ele>145.7002</ele>
        <time>2026-05-20T10:07:38+02:00</time>
      </trkpt>
      <trkpt lat="49.38758" lon="6.20503">
        <ele>145.7002</ele>
        <time>2026-05-20T10:07:39+02:00</time>
      </trkpt>
      <trkpt lat="49.38754" lon="6.20498">
        <ele>145.7998</ele>
        <time>2026-05-20T10:07:40+02:00</time>
      </trkpt>
      <trkpt lat="49.38751" lon="6.20492">
        <ele>145.90039</ele>
        <time>2026-05-20T10:07:41+02:00</time>
      </trkpt>
      <trkpt lat="49.38746" lon="6.20487">
        <ele>145.7998</ele>
        <time>2026-05-20T10:07:42+02:00</time>
      </trkpt>
      <trkpt lat="49.38742" lon="6.20482">
        <ele>145.90039</ele>
        <time>2026-05-20T10:07:43+02:00</time>
      </trkpt>
      <trkpt lat="49.38738" lon="6.20477">
        <ele>145.7002</ele>
        <time>2026-05-20T10:07:44+02:00</time>
      </trkpt>
      <trkpt lat="49.38735" lon="6.20472">
        <ele>145.7002</ele>
        <time>2026-05-20T10:07:45+02:00</time>
      </trkpt>
      <trkpt lat="49.3873" lon="6.20467">
        <ele>145.7002</ele>
        <time>2026-05-20T10:07:46+02:00</time>
      </trkpt>
      <trkpt lat="49.38726" lon="6.20462">
        <ele>145.7998</ele>
        <time>2026-05-20T10:07:47+02:00</time>
      </trkpt>
      <trkpt lat="49.38722" lon="6.20457">
        <ele>145.90039</ele>
        <time>2026-05-20T10:07:48+02:00</time>
      </trkpt>
      <trkpt lat="49.38717" lon="6.20452">
        <ele>145.7998</ele>
        <time>2026-05-20T10:07:49+02:00</time>
      </trkpt>
      <trkpt lat="49.38712" lon="6.20447">
        <ele>145.7998</ele>
        <time>2026-05-20T10:07:50+02:00</time>
      </trkpt>
      <trkpt lat="49.38707" lon="6.20443">
        <ele>145.7002</ele>
        <time>2026-05-20T10:07:51+02:00</time>
      </trkpt>
      <trkpt lat="49.38703" lon="6.20438">
        <ele>145.7998</ele>
        <time>2026-05-20T10:07:52+02:00</time>
      </trkpt>
      <trkpt lat="49.38698" lon="6.20434">
        <ele>145.90039</ele>
        <time>2026-05-20T10:07:53+02:00</time>
      </trkpt>
      <trkpt lat="49.38694" lon="6.20429">
        <ele>145.90039</ele>
        <time>2026-05-20T10:07:54+02:00</time>
      </trkpt>
      <trkpt lat="49.38689" lon="6.20425">
        <ele>145.90039</ele>
        <time>2026-05-20T10:07:55+02:00</time>
      </trkpt>
      <trkpt lat="49.38685" lon="6.2042">
        <ele>145.90039</ele>
        <time>2026-05-20T10:07:56+02:00</time>
      </trkpt>
      <trkpt lat="49.3868" lon="6.20416">
        <ele>145.7998</ele>
        <time>2026-05-20T10:07:57+02:00</time>
      </trkpt>
      <trkpt lat="49.38675" lon="6.20411">
        <ele>145.7998</ele>
        <time>2026-05-20T10:07:58+02:00</time>
      </trkpt>
      <trkpt lat="49.38671" lon="6.20406">
        <ele>145.7998</ele>
        <time>2026-05-20T10:07:59+02:00</time>
      </trkpt>
      <trkpt lat="49.38667" lon="6.204">
        <ele>145.90039</ele>
        <time>2026-05-20T10:08:00+02:00</time>
      </trkpt>
      <trkpt lat="49.38662" lon="6.20394">
        <ele>145.90039</ele>
        <time>2026-05-20T10:08:01+02:00</time>
      </trkpt>
      <trkpt lat="49.38659" lon="6.20388">
        <ele>145.90039</ele>
        <time>2026-05-20T10:08:02+02:00</time>
      </trkpt>
      <trkpt lat="49.38655" lon="6.20381">
        <ele>145.7002</ele>
        <time>2026-05-20T10:08:03+02:00</time>
      </trkpt>
      <trkpt lat="49.38651" lon="6.20374">
        <ele>145.60059</ele>
        <time>2026-05-20T10:08:04+02:00</time>
      </trkpt>
      <trkpt lat="49.38648" lon="6.20367">
        <ele>145.7998</ele>
        <time>2026-05-20T10:08:05+02:00</time>
      </trkpt>
      <trkpt lat="49.38644" lon="6.2036">
        <ele>145.7002</ele>
        <time>2026-05-20T10:08:06+02:00</time>
      </trkpt>
      <trkpt lat="49.3864" lon="6.20353">
        <ele>146.2002</ele>
        <time>2026-05-20T10:08:07+02:00</time>
      </trkpt>
      <trkpt lat="49.38637" lon="6.20346">
        <ele>146.60059</ele>
        <time>2026-05-20T10:08:08+02:00</time>
      </trkpt>
      <trkpt lat="49.38633" lon="6.20339">
        <ele>146.2002</ele>
        <time>2026-05-20T10:08:09+02:00</time>
      </trkpt>
      <trkpt lat="49.38629" lon="6.20335">
        <ele>146.2002</ele>
        <time>2026-05-20T10:08:10+02:00</time>
      </trkpt>
      <trkpt lat="49.38623" lon="6.20333">
        <ele>145.60059</ele>
        <time>2026-05-20T10:08:11+02:00</time>
      </trkpt>
      <trkpt lat="49.38618" lon="6.2033">
        <ele>145.5</ele>
        <time>2026-05-20T10:08:12+02:00</time>
      </trkpt>
      <trkpt lat="49.38614" lon="6.20324">
        <ele>146.10059</ele>
        <time>2026-05-20T10:08:13+02:00</time>
      </trkpt>
      <trkpt lat="49.38612" lon="6.20317">
        <ele>146.10059</ele>
        <time>2026-05-20T10:08:14+02:00</time>
      </trkpt>
      <trkpt lat="49.38611" lon="6.2031">
        <ele>147</ele>
        <time>2026-05-20T10:08:15+02:00</time>
      </trkpt>
      <trkpt lat="49.3861" lon="6.20303">
        <ele>147.90039</ele>
        <time>2026-05-20T10:08:16+02:00</time>
      </trkpt>
      <trkpt lat="49.3861" lon="6.20297">
        <ele>148.7002</ele>
        <time>2026-05-20T10:08:17+02:00</time>
      </trkpt>
      <trkpt lat="49.3861" lon="6.20292">
        <ele>148.7002</ele>
        <time>2026-05-20T10:08:18+02:00</time>
      </trkpt>
      <trkpt lat="49.3861" lon="6.20287">
        <ele>149.2998</ele>
        <time>2026-05-20T10:08:19+02:00</time>
      </trkpt>
      <trkpt lat="49.38611" lon="6.20284">
        <ele>149.2998</ele>
        <time>2026-05-20T10:08:20+02:00</time>
      </trkpt>
      <trkpt lat="49.38611" lon="6.20282">
        <ele>149.2998</ele>
        <time>2026-05-20T10:08:21+02:00</time>
      </trkpt>
      <trkpt lat="49.38613" lon="6.20281">
        <ele>150.2998</ele>
        <time>2026-05-20T10:08:22+02:00</time>
      </trkpt>
      <trkpt lat="49.38614" lon="6.20281">
        <ele>150.2998</ele>
        <time>2026-05-20T10:08:23+02:00</time>
      </trkpt>
      <trkpt lat="49.38616" lon="6.20282">
        <ele>149.7998</ele>
        <time>2026-05-20T10:08:24+02:00</time>
      </trkpt>
      <trkpt lat="49.38617" lon="6.20283">
        <ele>149.7998</ele>
        <time>2026-05-20T10:08:25+02:00</time>
      </trkpt>
      <trkpt lat="49.38618" lon="6.20284">
        <ele>150.2002</ele>
        <time>2026-05-20T10:08:26+02:00</time>
      </trkpt>
      <trkpt lat="49.38619" lon="6.20284">
        <ele>150.2002</ele>
        <time>2026-05-20T10:08:27+02:00</time>
      </trkpt>
      <trkpt lat="49.3862" lon="6.20282">
        <ele>150.2002</ele>
        <time>2026-05-20T10:08:28+02:00</time>
      </trkpt>
      <trkpt lat="49.38619" lon="6.20281">
        <ele>150.7002</ele>
        <time>2026-05-20T10:08:29+02:00</time>
      </trkpt>
      <trkpt lat="49.38617" lon="6.2028">
        <ele>150.2998</ele>
        <time>2026-05-20T10:08:30+02:00</time>
      </trkpt>
      <trkpt lat="49.38616" lon="6.2028">
        <ele>150.2998</ele>
        <time>2026-05-20T10:08:31+02:00</time>
      </trkpt>
      <trkpt lat="49.38613" lon="6.2028">
        <ele>150.2998</ele>
        <time>2026-05-20T10:08:32+02:00</time>
      </trkpt>
      <trkpt lat="49.38611" lon="6.2028">
        <ele>149.90039</ele>
        <time>2026-05-20T10:08:33+02:00</time>
      </trkpt>
      <trkpt lat="49.38608" lon="6.20279">
        <ele>149.90039</ele>
        <time>2026-05-20T10:08:34+02:00</time>
      </trkpt>
      <trkpt lat="49.38605" lon="6.20278">
        <ele>149.5</ele>
        <time>2026-05-20T10:08:35+02:00</time>
      </trkpt>
      <trkpt lat="49.38602" lon="6.20276">
        <ele>149.5</ele>
        <time>2026-05-20T10:08:36+02:00</time>
      </trkpt>
      <trkpt lat="49.386" lon="6.20275">
        <ele>149</ele>
        <time>2026-05-20T10:08:37+02:00</time>
      </trkpt>
      <trkpt lat="49.38596" lon="6.20274">
        <ele>149</ele>
        <time>2026-05-20T10:08:38+02:00</time>
      </trkpt>
      <trkpt lat="49.38593" lon="6.20273">
        <ele>148.60059</ele>
        <time>2026-05-20T10:08:39+02:00</time>
      </trkpt>
      <trkpt lat="49.3859" lon="6.20271">
        <ele>149.40039</ele>
        <time>2026-05-20T10:08:40+02:00</time>
      </trkpt>
      <trkpt lat="49.38587" lon="6.2027">
        <ele>149.10059</ele>
        <time>2026-05-20T10:08:41+02:00</time>
      </trkpt>
      <trkpt lat="49.38583" lon="6.20268">
        <ele>148.90039</ele>
        <time>2026-05-20T10:08:42+02:00</time>
      </trkpt>
      <trkpt lat="49.38579" lon="6.20265">
        <ele>148.90039</ele>
        <time>2026-05-20T10:08:43+02:00</time>
      </trkpt>
      <trkpt lat="49.38575" lon="6.20263">
        <ele>149.40039</ele>
        <time>2026-05-20T10:08:44+02:00</time>
      </trkpt>
      <trkpt lat="49.3857" lon="6.20261">
        <ele>149.2002</ele>
        <time>2026-05-20T10:08:45+02:00</time>
      </trkpt>
      <trkpt lat="49.38565" lon="6.20259">
        <ele>149.10059</ele>
        <time>2026-05-20T10:08:46+02:00</time>
      </trkpt>
      <trkpt lat="49.3856" lon="6.20257">
        <ele>149</ele>
        <time>2026-05-20T10:08:47+02:00</time>
      </trkpt>
      <trkpt lat="49.38555" lon="6.20255">
        <ele>149.60059</ele>
        <time>2026-05-20T10:08:48+02:00</time>
      </trkpt>
      <trkpt lat="49.3855" lon="6.20253">
        <ele>149.60059</ele>
        <time>2026-05-20T10:08:49+02:00</time>
      </trkpt>
      <trkpt lat="49.38545" lon="6.20251">
        <ele>149.7002</ele>
        <time>2026-05-20T10:08:50+02:00</time>
      </trkpt>
      <trkpt lat="49.3854" lon="6.20249">
        <ele>149.7002</ele>
        <time>2026-05-20T10:08:51+02:00</time>
      </trkpt>
      <trkpt lat="49.38535" lon="6.20247">
        <ele>149.7998</ele>
        <time>2026-05-20T10:08:52+02:00</time>
      </trkpt>
      <trkpt lat="49.3853" lon="6.20246">
        <ele>150.40039</ele>
        <time>2026-05-20T10:08:53+02:00</time>
      </trkpt>
      <trkpt lat="49.38524" lon="6.20244">
        <ele>150.2002</ele>
        <time>2026-05-20T10:08:54+02:00</time>
      </trkpt>
      <trkpt lat="49.38519" lon="6.20243">
        <ele>150</ele>
        <time>2026-05-20T10:08:55+02:00</time>
      </trkpt>
      <trkpt lat="49.38513" lon="6.20242">
        <ele>149.7002</ele>
        <time>2026-05-20T10:08:56+02:00</time>
      </trkpt>
      <trkpt lat="49.38508" lon="6.20241">
        <ele>149.40039</ele>
        <time>2026-05-20T10:08:57+02:00</time>
      </trkpt>
      <trkpt lat="49.38502" lon="6.2024">
        <ele>149.2002</ele>
        <time>2026-05-20T10:08:58+02:00</time>
      </trkpt>
      <trkpt lat="49.38497" lon="6.20239">
        <ele>148.90039</ele>
        <time>2026-05-20T10:08:59+02:00</time>
      </trkpt>
      <trkpt lat="49.38491" lon="6.20238">
        <ele>149.40039</ele>
        <time>2026-05-20T10:09:00+02:00</time>
      </trkpt>
      <trkpt lat="49.38486" lon="6.20237">
        <ele>149.2002</ele>
        <time>2026-05-20T10:09:01+02:00</time>
      </trkpt>
      <trkpt lat="49.3848" lon="6.20236">
        <ele>149</ele>
        <time>2026-05-20T10:09:02+02:00</time>
      </trkpt>
      <trkpt lat="49.38474" lon="6.20235">
        <ele>148.90039</ele>
        <time>2026-05-20T10:09:03+02:00</time>
      </trkpt>
      <trkpt lat="49.38469" lon="6.20234">
        <ele>148.7002</ele>
        <time>2026-05-20T10:09:04+02:00</time>
      </trkpt>
      <trkpt lat="49.38463" lon="6.20233">
        <ele>148.7002</ele>
        <time>2026-05-20T10:09:05+02:00</time>
      </trkpt>
      <trkpt lat="49.38458" lon="6.20232">
        <ele>148.7002</ele>
        <time>2026-05-20T10:09:06+02:00</time>
      </trkpt>
      <trkpt lat="49.38452" lon="6.20231">
        <ele>148.7998</ele>
        <time>2026-05-20T10:09:07+02:00</time>
      </trkpt>
      <trkpt lat="49.38447" lon="6.20229">
        <ele>149.60059</ele>
        <time>2026-05-20T10:09:08+02:00</time>
      </trkpt>
      <trkpt lat="49.38442" lon="6.20228">
        <ele>149.60059</ele>
        <time>2026-05-20T10:09:09+02:00</time>
      </trkpt>
      <trkpt lat="49.38436" lon="6.20227">
        <ele>149.60059</ele>
        <time>2026-05-20T10:09:10+02:00</time>
      </trkpt>
      <trkpt lat="49.3843" lon="6.20226">
        <ele>149.7002</ele>
        <time>2026-05-20T10:09:11+02:00</time>
      </trkpt>
      <trkpt lat="49.38424" lon="6.20224">
        <ele>149.7002</ele>
        <time>2026-05-20T10:09:12+02:00</time>
      </trkpt>
      <trkpt lat="49.38419" lon="6.20223">
        <ele>149.7998</ele>
        <time>2026-05-20T10:09:13+02:00</time>
      </trkpt>
      <trkpt lat="49.38413" lon="6.20222">
        <ele>149.7998</ele>
        <time>2026-05-20T10:09:14+02:00</time>
      </trkpt>
      <trkpt lat="49.38407" lon="6.20221">
        <ele>150.5</ele>
        <time>2026-05-20T10:09:15+02:00</time>
      </trkpt>
      <trkpt lat="49.38401" lon="6.20219">
        <ele>150.60059</ele>
        <time>2026-05-20T10:09:16+02:00</time>
      </trkpt>
      <trkpt lat="49.38395" lon="6.20218">
        <ele>150.60059</ele>
        <time>2026-05-20T10:09:17+02:00</time>
      </trkpt>
      <trkpt lat="49.38389" lon="6.20216">
        <ele>150.7002</ele>
        <time>2026-05-20T10:09:18+02:00</time>
      </trkpt>
      <trkpt lat="49.38384" lon="6.20215">
        <ele>150.7002</ele>
        <time>2026-05-20T10:09:19+02:00</time>
      </trkpt>
      <trkpt lat="49.38378" lon="6.20214">
        <ele>150.7998</ele>
        <time>2026-05-20T10:09:20+02:00</time>
      </trkpt>
      <trkpt lat="49.38372" lon="6.20212">
        <ele>151.2998</ele>
        <time>2026-05-20T10:09:21+02:00</time>
      </trkpt>
      <trkpt lat="49.38366" lon="6.20211">
        <ele>151.2998</ele>
        <time>2026-05-20T10:09:22+02:00</time>
      </trkpt>
      <trkpt lat="49.3836" lon="6.2021">
        <ele>151.40039</ele>
        <time>2026-05-20T10:09:23+02:00</time>
      </trkpt>
      <trkpt lat="49.38355" lon="6.20208">
        <ele>151.40039</ele>
        <time>2026-05-20T10:09:24+02:00</time>
      </trkpt>
      <trkpt lat="49.38349" lon="6.20207">
        <ele>151.40039</ele>
        <time>2026-05-20T10:09:25+02:00</time>
      </trkpt>
      <trkpt lat="49.38344" lon="6.20206">
        <ele>151.40039</ele>
        <time>2026-05-20T10:09:26+02:00</time>
      </trkpt>
      <trkpt lat="49.38338" lon="6.20204">
        <ele>151.40039</ele>
        <time>2026-05-20T10:09:27+02:00</time>
      </trkpt>
      <trkpt lat="49.38332" lon="6.20203">
        <ele>151.5</ele>
        <time>2026-05-20T10:09:28+02:00</time>
      </trkpt>
      <trkpt lat="49.38328" lon="6.20201">
        <ele>151.5</ele>
        <time>2026-05-20T10:09:29+02:00</time>
      </trkpt>
      <trkpt lat="49.38322" lon="6.202">
        <ele>151.40039</ele>
        <time>2026-05-20T10:09:30+02:00</time>
      </trkpt>
      <trkpt lat="49.38317" lon="6.202">
        <ele>151.2998</ele>
        <time>2026-05-20T10:09:31+02:00</time>
      </trkpt>
      <trkpt lat="49.38312" lon="6.20199">
        <ele>151.2998</ele>
        <time>2026-05-20T10:09:32+02:00</time>
      </trkpt>
      <trkpt lat="49.38306" lon="6.20199">
        <ele>151.2002</ele>
        <time>2026-05-20T10:09:33+02:00</time>
      </trkpt>
      <trkpt lat="49.383" lon="6.20199">
        <ele>151</ele>
        <time>2026-05-20T10:09:34+02:00</time>
      </trkpt>
      <trkpt lat="49.38295" lon="6.20199">
        <ele>150.90039</ele>
        <time>2026-05-20T10:09:35+02:00</time>
      </trkpt>
      <trkpt lat="49.3829" lon="6.202">
        <ele>150.7998</ele>
        <time>2026-05-20T10:09:36+02:00</time>
      </trkpt>
      <trkpt lat="49.38284" lon="6.202">
        <ele>150.7002</ele>
        <time>2026-05-20T10:09:37+02:00</time>
      </trkpt>
      <trkpt lat="49.38279" lon="6.20201">
        <ele>150.60059</ele>
        <time>2026-05-20T10:09:38+02:00</time>
      </trkpt>
      <trkpt lat="49.38273" lon="6.20203">
        <ele>150.5</ele>
        <time>2026-05-20T10:09:39+02:00</time>
      </trkpt>
      <trkpt lat="49.38267" lon="6.20204">
        <ele>150.40039</ele>
        <time>2026-05-20T10:09:40+02:00</time>
      </trkpt>
      <trkpt lat="49.38262" lon="6.20206">
        <ele>150.40039</ele>
        <time>2026-05-20T10:09:41+02:00</time>
      </trkpt>
      <trkpt lat="49.38256" lon="6.20207">
        <ele>150.2998</ele>
        <time>2026-05-20T10:09:42+02:00</time>
      </trkpt>
      <trkpt lat="49.3825" lon="6.20209">
        <ele>150.2998</ele>
        <time>2026-05-20T10:09:43+02:00</time>
      </trkpt>
      <trkpt lat="49.38244" lon="6.20212">
        <ele>150.2998</ele>
        <time>2026-05-20T10:09:44+02:00</time>
      </trkpt>
      <trkpt lat="49.38239" lon="6.20214">
        <ele>150.2002</ele>
        <time>2026-05-20T10:09:45+02:00</time>
      </trkpt>
      <trkpt lat="49.38233" lon="6.20216">
        <ele>150.2002</ele>
        <time>2026-05-20T10:09:46+02:00</time>
      </trkpt>
      <trkpt lat="49.38228" lon="6.20218">
        <ele>150.2002</ele>
        <time>2026-05-20T10:09:47+02:00</time>
      </trkpt>
      <trkpt lat="49.38222" lon="6.2022">
        <ele>150.2998</ele>
        <time>2026-05-20T10:09:48+02:00</time>
      </trkpt>
      <trkpt lat="49.38217" lon="6.20222">
        <ele>150.2002</ele>
        <time>2026-05-20T10:09:49+02:00</time>
      </trkpt>
      <trkpt lat="49.38211" lon="6.20224">
        <ele>150.2002</ele>
        <time>2026-05-20T10:09:50+02:00</time>
      </trkpt>
      <trkpt lat="49.38205" lon="6.20226">
        <ele>150.2998</ele>
        <time>2026-05-20T10:09:51+02:00</time>
      </trkpt>
      <trkpt lat="49.382" lon="6.20228">
        <ele>150.40039</ele>
        <time>2026-05-20T10:09:52+02:00</time>
      </trkpt>
      <trkpt lat="49.38194" lon="6.20231">
        <ele>150</ele>
        <time>2026-05-20T10:09:53+02:00</time>
      </trkpt>
      <trkpt lat="49.38188" lon="6.20233">
        <ele>150</ele>
        <time>2026-05-20T10:09:54+02:00</time>
      </trkpt>
      <trkpt lat="49.38183" lon="6.20235">
        <ele>150.10059</ele>
        <time>2026-05-20T10:09:55+02:00</time>
      </trkpt>
      <trkpt lat="49.38177" lon="6.20237">
        <ele>150.2002</ele>
        <time>2026-05-20T10:09:56+02:00</time>
      </trkpt>
      <trkpt lat="49.38172" lon="6.20239">
        <ele>149.7002</ele>
        <time>2026-05-20T10:09:57+02:00</time>
      </trkpt>
      <trkpt lat="49.38166" lon="6.20241">
        <ele>149.7998</ele>
        <time>2026-05-20T10:09:58+02:00</time>
      </trkpt>
      <trkpt lat="49.3816" lon="6.20243">
        <ele>149.90039</ele>
        <time>2026-05-20T10:09:59+02:00</time>
      </trkpt>
      <trkpt lat="49.38155" lon="6.20245">
        <ele>150</ele>
        <time>2026-05-20T10:10:00+02:00</time>
      </trkpt>
      <trkpt lat="49.38149" lon="6.20246">
        <ele>150.10059</ele>
        <time>2026-05-20T10:10:01+02:00</time>
      </trkpt>
      <trkpt lat="49.38144" lon="6.20248">
        <ele>149.7998</ele>
        <time>2026-05-20T10:10:02+02:00</time>
      </trkpt>
      <trkpt lat="49.38138" lon="6.20249">
        <ele>150</ele>
        <time>2026-05-20T10:10:03+02:00</time>
      </trkpt>
      <trkpt lat="49.38133" lon="6.20251">
        <ele>150.10059</ele>
        <time>2026-05-20T10:10:04+02:00</time>
      </trkpt>
      <trkpt lat="49.38127" lon="6.20252">
        <ele>150.2002</ele>
        <time>2026-05-20T10:10:05+02:00</time>
      </trkpt>
      <trkpt lat="49.38122" lon="6.20253">
        <ele>150.2002</ele>
        <time>2026-05-20T10:10:06+02:00</time>
      </trkpt>
      <trkpt lat="49.38117" lon="6.20253">
        <ele>150</ele>
        <time>2026-05-20T10:10:07+02:00</time>
      </trkpt>
      <trkpt lat="49.38112" lon="6.20254">
        <ele>149.90039</ele>
        <time>2026-05-20T10:10:08+02:00</time>
      </trkpt>
      <trkpt lat="49.38107" lon="6.20254">
        <ele>149.7998</ele>
        <time>2026-05-20T10:10:09+02:00</time>
      </trkpt>
      <trkpt lat="49.38103" lon="6.20254">
        <ele>149.7002</ele>
        <time>2026-05-20T10:10:10+02:00</time>
      </trkpt>
      <trkpt lat="49.38099" lon="6.20254">
        <ele>149.7002</ele>
        <time>2026-05-20T10:10:11+02:00</time>
      </trkpt>
      <trkpt lat="49.38095" lon="6.20254">
        <ele>149.7002</ele>
        <time>2026-05-20T10:10:12+02:00</time>
      </trkpt>
      <trkpt lat="49.38092" lon="6.20254">
        <ele>149.7002</ele>
        <time>2026-05-20T10:10:13+02:00</time>
      </trkpt>
      <trkpt lat="49.3809" lon="6.20255">
        <ele>149.7002</ele>
        <time>2026-05-20T10:10:14+02:00</time>
      </trkpt>
      <trkpt lat="49.38089" lon="6.20255">
        <ele>149.7002</ele>
        <time>2026-05-20T10:10:15+02:00</time>
      </trkpt>
      <trkpt lat="49.38088" lon="6.20255">
        <ele>149.7002</ele>
        <time>2026-05-20T10:10:16+02:00</time>
      </trkpt>
      <trkpt lat="49.38088" lon="6.20255">
        <ele>149.7002</ele>
        <time>2026-05-20T10:10:17+02:00</time>
      </trkpt>
      <trkpt lat="49.38087" lon="6.20255">
        <ele>149.7002</ele>
        <time>2026-05-20T10:10:18+02:00</time>
      </trkpt>
      <trkpt lat="49.38087" lon="6.20255">
        <ele>149.7002</ele>
        <time>2026-05-20T10:10:19+02:00</time>
      </trkpt>
      <trkpt lat="49.3808" lon="6.20267">
        <ele>149.10059</ele>
        <time>2026-05-20T10:10:56+02:00</time>
      </trkpt>
      <trkpt lat="49.38077" lon="6.20269">
        <ele>149.10059</ele>
        <time>2026-05-20T10:10:57+02:00</time>
      </trkpt>
      <trkpt lat="49.38074" lon="6.20272">
        <ele>149.2002</ele>
        <time>2026-05-20T10:10:58+02:00</time>
      </trkpt>
      <trkpt lat="49.38071" lon="6.20274">
        <ele>148.90039</ele>
        <time>2026-05-20T10:10:59+02:00</time>
      </trkpt>
      <trkpt lat="49.38068" lon="6.20275">
        <ele>149</ele>
        <time>2026-05-20T10:11:00+02:00</time>
      </trkpt>
      <trkpt lat="49.38065" lon="6.20278">
        <ele>149</ele>
        <time>2026-05-20T10:11:01+02:00</time>
      </trkpt>
      <trkpt lat="49.38062" lon="6.20281">
        <ele>149.10059</ele>
        <time>2026-05-20T10:11:02+02:00</time>
      </trkpt>
      <trkpt lat="49.38058" lon="6.20284">
        <ele>148.90039</ele>
        <time>2026-05-20T10:11:03+02:00</time>
      </trkpt>
      <trkpt lat="49.38054" lon="6.20286">
        <ele>148.90039</ele>
        <time>2026-05-20T10:11:04+02:00</time>
      </trkpt>
      <trkpt lat="49.3805" lon="6.20289">
        <ele>149.10059</ele>
        <time>2026-05-20T10:11:05+02:00</time>
      </trkpt>
      <trkpt lat="49.38046" lon="6.20291">
        <ele>149</ele>
        <time>2026-05-20T10:11:06+02:00</time>
      </trkpt>
      <trkpt lat="49.38042" lon="6.20294">
        <ele>149</ele>
        <time>2026-05-20T10:11:07+02:00</time>
      </trkpt>
      <trkpt lat="49.38037" lon="6.20297">
        <ele>149.2002</ele>
        <time>2026-05-20T10:11:08+02:00</time>
      </trkpt>
      <trkpt lat="49.38033" lon="6.20301">
        <ele>149.2002</ele>
        <time>2026-05-20T10:11:09+02:00</time>
      </trkpt>
      <trkpt lat="49.38028" lon="6.20304">
        <ele>149.5</ele>
        <time>2026-05-20T10:11:10+02:00</time>
      </trkpt>
      <trkpt lat="49.38024" lon="6.20308">
        <ele>149.60059</ele>
        <time>2026-05-20T10:11:11+02:00</time>
      </trkpt>
      <trkpt lat="49.38019" lon="6.20312">
        <ele>149.90039</ele>
        <time>2026-05-20T10:11:12+02:00</time>
      </trkpt>
      <trkpt lat="49.38015" lon="6.20316">
        <ele>149.7998</ele>
        <time>2026-05-20T10:11:13+02:00</time>
      </trkpt>
      <trkpt lat="49.3801" lon="6.2032">
        <ele>150.10059</ele>
        <time>2026-05-20T10:11:14+02:00</time>
      </trkpt>
      <trkpt lat="49.38006" lon="6.20324">
        <ele>150.2998</ele>
        <time>2026-05-20T10:11:15+02:00</time>
      </trkpt>
      <trkpt lat="49.38001" lon="6.20327">
        <ele>150.40039</ele>
        <time>2026-05-20T10:11:16+02:00</time>
      </trkpt>
      <trkpt lat="49.37997" lon="6.2033">
        <ele>150.40039</ele>
        <time>2026-05-20T10:11:17+02:00</time>
      </trkpt>
      <trkpt lat="49.37993" lon="6.20333">
        <ele>150.5</ele>
        <time>2026-05-20T10:11:18+02:00</time>
      </trkpt>
      <trkpt lat="49.37989" lon="6.20337">
        <ele>150.60059</ele>
        <time>2026-05-20T10:11:19+02:00</time>
      </trkpt>
      <trkpt lat="49.37985" lon="6.2034">
        <ele>150.7002</ele>
        <time>2026-05-20T10:11:20+02:00</time>
      </trkpt>
      <trkpt lat="49.37981" lon="6.20345">
        <ele>150.60059</ele>
        <time>2026-05-20T10:11:21+02:00</time>
      </trkpt>
      <trkpt lat="49.37976" lon="6.20349">
        <ele>150.60059</ele>
        <time>2026-05-20T10:11:22+02:00</time>
      </trkpt>
      <trkpt lat="49.37971" lon="6.20354">
        <ele>150.40039</ele>
        <time>2026-05-20T10:11:23+02:00</time>
      </trkpt>
      <trkpt lat="49.37966" lon="6.20359">
        <ele>150.2002</ele>
        <time>2026-05-20T10:11:24+02:00</time>
      </trkpt>
      <trkpt lat="49.37962" lon="6.20365">
        <ele>150.2998</ele>
        <time>2026-05-20T10:11:25+02:00</time>
      </trkpt>
      <trkpt lat="49.37959" lon="6.20372">
        <ele>150.10059</ele>
        <time>2026-05-20T10:11:26+02:00</time>
      </trkpt>
      <trkpt lat="49.37956" lon="6.20379">
        <ele>150</ele>
        <time>2026-05-20T10:11:27+02:00</time>
      </trkpt>
      <trkpt lat="49.37954" lon="6.20385">
        <ele>149.7002</ele>
        <time>2026-05-20T10:11:28+02:00</time>
      </trkpt>
      <trkpt lat="49.37953" lon="6.20392">
        <ele>149.7002</ele>
        <time>2026-05-20T10:11:29+02:00</time>
      </trkpt>
      <trkpt lat="49.37951" lon="6.20399">
        <ele>149.2002</ele>
        <time>2026-05-20T10:11:30+02:00</time>
      </trkpt>
      <trkpt lat="49.3795" lon="6.20406">
        <ele>148.5</ele>
        <time>2026-05-20T10:11:31+02:00</time>
      </trkpt>
      <trkpt lat="49.37949" lon="6.20413">
        <ele>147.90039</ele>
        <time>2026-05-20T10:11:32+02:00</time>
      </trkpt>
      <trkpt lat="49.37947" lon="6.20421">
        <ele>147.40039</ele>
        <time>2026-05-20T10:11:33+02:00</time>
      </trkpt>
      <trkpt lat="49.37945" lon="6.20428">
        <ele>146.7998</ele>
        <time>2026-05-20T10:11:34+02:00</time>
      </trkpt>
      <trkpt lat="49.37943" lon="6.20434">
        <ele>146.7998</ele>
        <time>2026-05-20T10:11:35+02:00</time>
      </trkpt>
      <trkpt lat="49.37939" lon="6.20439">
        <ele>146.2998</ele>
        <time>2026-05-20T10:11:36+02:00</time>
      </trkpt>
      <trkpt lat="49.37934" lon="6.20442">
        <ele>146.2998</ele>
        <time>2026-05-20T10:11:37+02:00</time>
      </trkpt>
      <trkpt lat="49.3793" lon="6.20445">
        <ele>146.10059</ele>
        <time>2026-05-20T10:11:38+02:00</time>
      </trkpt>
      <trkpt lat="49.37925" lon="6.20447">
        <ele>146.10059</ele>
        <time>2026-05-20T10:11:39+02:00</time>
      </trkpt>
      <trkpt lat="49.37921" lon="6.2045">
        <ele>146.5</ele>
        <time>2026-05-20T10:11:40+02:00</time>
      </trkpt>
      <trkpt lat="49.37916" lon="6.20452">
        <ele>146.7998</ele>
        <time>2026-05-20T10:11:41+02:00</time>
      </trkpt>
      <trkpt lat="49.37911" lon="6.20455">
        <ele>146.7002</ele>
        <time>2026-05-20T10:11:42+02:00</time>
      </trkpt>
      <trkpt lat="49.37906" lon="6.20458">
        <ele>146.90039</ele>
        <time>2026-05-20T10:11:43+02:00</time>
      </trkpt>
      <trkpt lat="49.37901" lon="6.20461">
        <ele>146.90039</ele>
        <time>2026-05-20T10:11:44+02:00</time>
      </trkpt>
      <trkpt lat="49.37896" lon="6.20463">
        <ele>146.60059</ele>
        <time>2026-05-20T10:11:45+02:00</time>
      </trkpt>
      <trkpt lat="49.37891" lon="6.20466">
        <ele>146.60059</ele>
        <time>2026-05-20T10:11:46+02:00</time>
      </trkpt>
      <trkpt lat="49.37885" lon="6.20468">
        <ele>146.60059</ele>
        <time>2026-05-20T10:11:47+02:00</time>
      </trkpt>
      <trkpt lat="49.3788" lon="6.20471">
        <ele>146.2002</ele>
        <time>2026-05-20T10:11:48+02:00</time>
      </trkpt>
      <trkpt lat="49.37875" lon="6.20474">
        <ele>146.2998</ele>
        <time>2026-05-20T10:11:49+02:00</time>
      </trkpt>
      <trkpt lat="49.37871" lon="6.20477">
        <ele>146.2998</ele>
        <time>2026-05-20T10:11:50+02:00</time>
      </trkpt>
      <trkpt lat="49.37866" lon="6.20479">
        <ele>146</ele>
        <time>2026-05-20T10:11:51+02:00</time>
      </trkpt>
      <trkpt lat="49.3786" lon="6.20482">
        <ele>146</ele>
        <time>2026-05-20T10:11:52+02:00</time>
      </trkpt>
      <trkpt lat="49.37855" lon="6.20485">
        <ele>146</ele>
        <time>2026-05-20T10:11:53+02:00</time>
      </trkpt>
      <trkpt lat="49.3785" lon="6.20488">
        <ele>145.90039</ele>
        <time>2026-05-20T10:11:54+02:00</time>
      </trkpt>
      <trkpt lat="49.37845" lon="6.20491">
        <ele>145.90039</ele>
        <time>2026-05-20T10:11:55+02:00</time>
      </trkpt>
      <trkpt lat="49.37839" lon="6.20493">
        <ele>145.90039</ele>
        <time>2026-05-20T10:11:56+02:00</time>
      </trkpt>
      <trkpt lat="49.37834" lon="6.20496">
        <ele>145.7998</ele>
        <time>2026-05-20T10:11:57+02:00</time>
      </trkpt>
      <trkpt lat="49.37829" lon="6.20499">
        <ele>145.7998</ele>
        <time>2026-05-20T10:11:58+02:00</time>
      </trkpt>
      <trkpt lat="49.37824" lon="6.20502">
        <ele>145.7998</ele>
        <time>2026-05-20T10:11:59+02:00</time>
      </trkpt>
      <trkpt lat="49.37819" lon="6.20504">
        <ele>145.7998</ele>
        <time>2026-05-20T10:12:00+02:00</time>
      </trkpt>
      <trkpt lat="49.37814" lon="6.20507">
        <ele>146</ele>
        <time>2026-05-20T10:12:01+02:00</time>
      </trkpt>
      <trkpt lat="49.37808" lon="6.20509">
        <ele>146.2002</ele>
        <time>2026-05-20T10:12:02+02:00</time>
      </trkpt>
      <trkpt lat="49.37803" lon="6.20512">
        <ele>146.5</ele>
        <time>2026-05-20T10:12:03+02:00</time>
      </trkpt>
      <trkpt lat="49.37798" lon="6.20515">
        <ele>146.2998</ele>
        <time>2026-05-20T10:12:04+02:00</time>
      </trkpt>
      <trkpt lat="49.37792" lon="6.20517">
        <ele>146.2998</ele>
        <time>2026-05-20T10:12:05+02:00</time>
      </trkpt>
      <trkpt lat="49.37787" lon="6.2052">
        <ele>146.40039</ele>
        <time>2026-05-20T10:12:06+02:00</time>
      </trkpt>
      <trkpt lat="49.37781" lon="6.20523">
        <ele>146</ele>
        <time>2026-05-20T10:12:07+02:00</time>
      </trkpt>
      <trkpt lat="49.37776" lon="6.20526">
        <ele>146.10059</ele>
        <time>2026-05-20T10:12:08+02:00</time>
      </trkpt>
      <trkpt lat="49.37771" lon="6.20529">
        <ele>146.10059</ele>
        <time>2026-05-20T10:12:09+02:00</time>
      </trkpt>
      <trkpt lat="49.37765" lon="6.20532">
        <ele>145.90039</ele>
        <time>2026-05-20T10:12:10+02:00</time>
      </trkpt>
      <trkpt lat="49.3776" lon="6.20534">
        <ele>145.90039</ele>
        <time>2026-05-20T10:12:11+02:00</time>
      </trkpt>
      <trkpt lat="49.37755" lon="6.20537">
        <ele>146</ele>
        <time>2026-05-20T10:12:12+02:00</time>
      </trkpt>
      <trkpt lat="49.37749" lon="6.2054">
        <ele>146.10059</ele>
        <time>2026-05-20T10:12:13+02:00</time>
      </trkpt>
      <trkpt lat="49.37744" lon="6.20543">
        <ele>146.60059</ele>
        <time>2026-05-20T10:12:14+02:00</time>
      </trkpt>
      <trkpt lat="49.37739" lon="6.20546">
        <ele>147</ele>
        <time>2026-05-20T10:12:15+02:00</time>
      </trkpt>
      <trkpt lat="49.37734" lon="6.20549">
        <ele>146.7002</ele>
        <time>2026-05-20T10:12:16+02:00</time>
      </trkpt>
      <trkpt lat="49.37728" lon="6.20552">
        <ele>146.90039</ele>
        <time>2026-05-20T10:12:17+02:00</time>
      </trkpt>
      <trkpt lat="49.37723" lon="6.20554">
        <ele>147</ele>
        <time>2026-05-20T10:12:18+02:00</time>
      </trkpt>
      <trkpt lat="49.37718" lon="6.20557">
        <ele>146.2998</ele>
        <time>2026-05-20T10:12:19+02:00</time>
      </trkpt>
      <trkpt lat="49.37712" lon="6.2056">
        <ele>146.2998</ele>
        <time>2026-05-20T10:12:20+02:00</time>
      </trkpt>
      <trkpt lat="49.37707" lon="6.20562">
        <ele>146.40039</ele>
        <time>2026-05-20T10:12:21+02:00</time>
      </trkpt>
      <trkpt lat="49.37701" lon="6.20565">
        <ele>146</ele>
        <time>2026-05-20T10:12:22+02:00</time>
      </trkpt>
      <trkpt lat="49.37695" lon="6.20568">
        <ele>146</ele>
        <time>2026-05-20T10:12:23+02:00</time>
      </trkpt>
      <trkpt lat="49.3769" lon="6.20571">
        <ele>146</ele>
        <time>2026-05-20T10:12:24+02:00</time>
      </trkpt>
      <trkpt lat="49.37685" lon="6.20573">
        <ele>146</ele>
        <time>2026-05-20T10:12:25+02:00</time>
      </trkpt>
      <trkpt lat="49.37679" lon="6.20576">
        <ele>145.7998</ele>
        <time>2026-05-20T10:12:26+02:00</time>
      </trkpt>
      <trkpt lat="49.37674" lon="6.20578">
        <ele>145.7998</ele>
        <time>2026-05-20T10:12:27+02:00</time>
      </trkpt>
      <trkpt lat="49.37669" lon="6.20581">
        <ele>145.7998</ele>
        <time>2026-05-20T10:12:28+02:00</time>
      </trkpt>
      <trkpt lat="49.37663" lon="6.20583">
        <ele>145.7002</ele>
        <time>2026-05-20T10:12:29+02:00</time>
      </trkpt>
      <trkpt lat="49.37658" lon="6.20586">
        <ele>146.2002</ele>
        <time>2026-05-20T10:12:30+02:00</time>
      </trkpt>
      <trkpt lat="49.37653" lon="6.20588">
        <ele>146.7002</ele>
        <time>2026-05-20T10:12:31+02:00</time>
      </trkpt>
      <trkpt lat="49.37647" lon="6.20591">
        <ele>146.60059</ele>
        <time>2026-05-20T10:12:32+02:00</time>
      </trkpt>
      <trkpt lat="49.37642" lon="6.20593">
        <ele>146.7998</ele>
        <time>2026-05-20T10:12:33+02:00</time>
      </trkpt>
      <trkpt lat="49.37636" lon="6.20595">
        <ele>147</ele>
        <time>2026-05-20T10:12:34+02:00</time>
      </trkpt>
      <trkpt lat="49.37631" lon="6.20597">
        <ele>147.10059</ele>
        <time>2026-05-20T10:12:35+02:00</time>
      </trkpt>
      <trkpt lat="49.37625" lon="6.206">
        <ele>146.2998</ele>
        <time>2026-05-20T10:12:36+02:00</time>
      </trkpt>
      <trkpt lat="49.3762" lon="6.20601">
        <ele>146.40039</ele>
        <time>2026-05-20T10:12:37+02:00</time>
      </trkpt>
      <trkpt lat="49.37614" lon="6.20603">
        <ele>146.40039</ele>
        <time>2026-05-20T10:12:38+02:00</time>
      </trkpt>
      <trkpt lat="49.37608" lon="6.20605">
        <ele>146.40039</ele>
        <time>2026-05-20T10:12:39+02:00</time>
      </trkpt>
      <trkpt lat="49.37602" lon="6.20607">
        <ele>146.5</ele>
        <time>2026-05-20T10:12:40+02:00</time>
      </trkpt>
      <trkpt lat="49.37597" lon="6.20608">
        <ele>146</ele>
        <time>2026-05-20T10:12:41+02:00</time>
      </trkpt>
      <trkpt lat="49.37591" lon="6.20609">
        <ele>146</ele>
        <time>2026-05-20T10:12:42+02:00</time>
      </trkpt>
      <trkpt lat="49.37586" lon="6.2061">
        <ele>146</ele>
        <time>2026-05-20T10:12:43+02:00</time>
      </trkpt>
      <trkpt lat="49.3758" lon="6.20612">
        <ele>146</ele>
        <time>2026-05-20T10:12:44+02:00</time>
      </trkpt>
      <trkpt lat="49.37574" lon="6.20613">
        <ele>146</ele>
        <time>2026-05-20T10:12:45+02:00</time>
      </trkpt>
      <trkpt lat="49.37568" lon="6.20615">
        <ele>146.10059</ele>
        <time>2026-05-20T10:12:46+02:00</time>
      </trkpt>
      <trkpt lat="49.37563" lon="6.20616">
        <ele>145.7998</ele>
        <time>2026-05-20T10:12:47+02:00</time>
      </trkpt>
      <trkpt lat="49.37557" lon="6.20617">
        <ele>145.7998</ele>
        <time>2026-05-20T10:12:48+02:00</time>
      </trkpt>
      <trkpt lat="49.37551" lon="6.20619">
        <ele>145.90039</ele>
        <time>2026-05-20T10:12:49+02:00</time>
      </trkpt>
      <trkpt lat="49.37546" lon="6.2062">
        <ele>145.90039</ele>
        <time>2026-05-20T10:12:50+02:00</time>
      </trkpt>
      <trkpt lat="49.3754" lon="6.20621">
        <ele>145.90039</ele>
        <time>2026-05-20T10:12:51+02:00</time>
      </trkpt>
      <trkpt lat="49.37534" lon="6.20622">
        <ele>145.90039</ele>
        <time>2026-05-20T10:12:52+02:00</time>
      </trkpt>
      <trkpt lat="49.37528" lon="6.20623">
        <ele>145.90039</ele>
        <time>2026-05-20T10:12:53+02:00</time>
      </trkpt>
      <trkpt lat="49.37522" lon="6.20624">
        <ele>145.90039</ele>
        <time>2026-05-20T10:12:54+02:00</time>
      </trkpt>
      <trkpt lat="49.37517" lon="6.20625">
        <ele>145.7002</ele>
        <time>2026-05-20T10:12:55+02:00</time>
      </trkpt>
      <trkpt lat="49.37511" lon="6.20625">
        <ele>145.7002</ele>
        <time>2026-05-20T10:12:56+02:00</time>
      </trkpt>
      <trkpt lat="49.37505" lon="6.20626">
        <ele>145.7002</ele>
        <time>2026-05-20T10:12:57+02:00</time>
      </trkpt>
      <trkpt lat="49.37499" lon="6.20626">
        <ele>145.7998</ele>
        <time>2026-05-20T10:12:58+02:00</time>
      </trkpt>
      <trkpt lat="49.37494" lon="6.20627">
        <ele>145.7998</ele>
        <time>2026-05-20T10:12:59+02:00</time>
      </trkpt>
      <trkpt lat="49.37488" lon="6.20627">
        <ele>145.7998</ele>
        <time>2026-05-20T10:13:00+02:00</time>
      </trkpt>
      <trkpt lat="49.37483" lon="6.20627">
        <ele>145.7998</ele>
        <time>2026-05-20T10:13:01+02:00</time>
      </trkpt>
      <trkpt lat="49.37477" lon="6.20628">
        <ele>145.7998</ele>
        <time>2026-05-20T10:13:02+02:00</time>
      </trkpt>
      <trkpt lat="49.37472" lon="6.20628">
        <ele>145.7998</ele>
        <time>2026-05-20T10:13:03+02:00</time>
      </trkpt>
      <trkpt lat="49.37466" lon="6.20628">
        <ele>145.7998</ele>
        <time>2026-05-20T10:13:04+02:00</time>
      </trkpt>
      <trkpt lat="49.3746" lon="6.20628">
        <ele>145.7998</ele>
        <time>2026-05-20T10:13:05+02:00</time>
      </trkpt>
      <trkpt lat="49.37455" lon="6.20628">
        <ele>145.7998</ele>
        <time>2026-05-20T10:13:06+02:00</time>
      </trkpt>
      <trkpt lat="49.37449" lon="6.20628">
        <ele>145.90039</ele>
        <time>2026-05-20T10:13:07+02:00</time>
      </trkpt>
      <trkpt lat="49.37444" lon="6.20628">
        <ele>145.90039</ele>
        <time>2026-05-20T10:13:08+02:00</time>
      </trkpt>
      <trkpt lat="49.37438" lon="6.20628">
        <ele>145.90039</ele>
        <time>2026-05-20T10:13:09+02:00</time>
      </trkpt>
      <trkpt lat="49.37433" lon="6.20627">
        <ele>145.90039</ele>
        <time>2026-05-20T10:13:10+02:00</time>
      </trkpt>
      <trkpt lat="49.37427" lon="6.20627">
        <ele>145.90039</ele>
        <time>2026-05-20T10:13:11+02:00</time>
      </trkpt>
      <trkpt lat="49.37422" lon="6.20626">
        <ele>145.90039</ele>
        <time>2026-05-20T10:13:12+02:00</time>
      </trkpt>
      <trkpt lat="49.37417" lon="6.20626">
        <ele>145.90039</ele>
        <time>2026-05-20T10:13:13+02:00</time>
      </trkpt>
      <trkpt lat="49.37411" lon="6.20625">
        <ele>145.90039</ele>
        <time>2026-05-20T10:13:14+02:00</time>
      </trkpt>
      <trkpt lat="49.37406" lon="6.20625">
        <ele>145.90039</ele>
        <time>2026-05-20T10:13:15+02:00</time>
      </trkpt>
      <trkpt lat="49.37384" lon="6.20621">
        <ele>145.7998</ele>
        <time>2026-05-20T10:13:16+02:00</time>
      </trkpt>
      <trkpt lat="49.37379" lon="6.2062">
        <ele>145.7998</ele>
        <time>2026-05-20T10:13:17+02:00</time>
      </trkpt>
      <trkpt lat="49.37373" lon="6.20618">
        <ele>145.7998</ele>
        <time>2026-05-20T10:13:18+02:00</time>
      </trkpt>
      <trkpt lat="49.37368" lon="6.20617">
        <ele>145.7998</ele>
        <time>2026-05-20T10:13:19+02:00</time>
      </trkpt>
      <trkpt lat="49.37362" lon="6.20615">
        <ele>145.7002</ele>
        <time>2026-05-20T10:13:20+02:00</time>
      </trkpt>
      <trkpt lat="49.37357" lon="6.20613">
        <ele>145.7002</ele>
        <time>2026-05-20T10:13:21+02:00</time>
      </trkpt>
      <trkpt lat="49.37352" lon="6.20612">
        <ele>145.7998</ele>
        <time>2026-05-20T10:13:22+02:00</time>
      </trkpt>
      <trkpt lat="49.37346" lon="6.20609">
        <ele>145.7998</ele>
        <time>2026-05-20T10:13:23+02:00</time>
      </trkpt>
      <trkpt lat="49.37341" lon="6.20607">
        <ele>145.90039</ele>
        <time>2026-05-20T10:13:24+02:00</time>
      </trkpt>
      <trkpt lat="49.37336" lon="6.20604">
        <ele>145.90039</ele>
        <time>2026-05-20T10:13:25+02:00</time>
      </trkpt>
      <trkpt lat="49.37331" lon="6.20602">
        <ele>145.90039</ele>
        <time>2026-05-20T10:13:26+02:00</time>
      </trkpt>
      <trkpt lat="49.37325" lon="6.20599">
        <ele>145.90039</ele>
        <time>2026-05-20T10:13:27+02:00</time>
      </trkpt>
      <trkpt lat="49.3732" lon="6.20596">
        <ele>145.7998</ele>
        <time>2026-05-20T10:13:28+02:00</time>
      </trkpt>
      <trkpt lat="49.37315" lon="6.20593">
        <ele>145.7998</ele>
        <time>2026-05-20T10:13:29+02:00</time>
      </trkpt>
      <trkpt lat="49.3731" lon="6.2059">
        <ele>145.7002</ele>
        <time>2026-05-20T10:13:30+02:00</time>
      </trkpt>
      <trkpt lat="49.37304" lon="6.20587">
        <ele>145.7002</ele>
        <time>2026-05-20T10:13:31+02:00</time>
      </trkpt>
      <trkpt lat="49.37299" lon="6.20584">
        <ele>145.7002</ele>
        <time>2026-05-20T10:13:32+02:00</time>
      </trkpt>
      <trkpt lat="49.37294" lon="6.20581">
        <ele>145.7998</ele>
        <time>2026-05-20T10:13:33+02:00</time>
      </trkpt>
      <trkpt lat="49.37289" lon="6.20577">
        <ele>145.7998</ele>
        <time>2026-05-20T10:13:34+02:00</time>
      </trkpt>
      <trkpt lat="49.37284" lon="6.20574">
        <ele>145.7998</ele>
        <time>2026-05-20T10:13:35+02:00</time>
      </trkpt>
      <trkpt lat="49.37279" lon="6.20571">
        <ele>145.90039</ele>
        <time>2026-05-20T10:13:36+02:00</time>
      </trkpt>
      <trkpt lat="49.37274" lon="6.20567">
        <ele>145.90039</ele>
        <time>2026-05-20T10:13:37+02:00</time>
      </trkpt>
      <trkpt lat="49.37269" lon="6.20564">
        <ele>145.90039</ele>
        <time>2026-05-20T10:13:38+02:00</time>
      </trkpt>
      <trkpt lat="49.37264" lon="6.20561">
        <ele>145.7998</ele>
        <time>2026-05-20T10:13:39+02:00</time>
      </trkpt>
      <trkpt lat="49.37259" lon="6.20557">
        <ele>145.7002</ele>
        <time>2026-05-20T10:13:40+02:00</time>
      </trkpt>
      <trkpt lat="49.37254" lon="6.20554">
        <ele>145.60059</ele>
        <time>2026-05-20T10:13:41+02:00</time>
      </trkpt>
      <trkpt lat="49.37249" lon="6.2055">
        <ele>145.60059</ele>
        <time>2026-05-20T10:13:42+02:00</time>
      </trkpt>
      <trkpt lat="49.37244" lon="6.20546">
        <ele>145.7002</ele>
        <time>2026-05-20T10:13:43+02:00</time>
      </trkpt>
      <trkpt lat="49.37239" lon="6.20542">
        <ele>145.7998</ele>
        <time>2026-05-20T10:13:44+02:00</time>
      </trkpt>
      <trkpt lat="49.37234" lon="6.20538">
        <ele>146</ele>
        <time>2026-05-20T10:13:45+02:00</time>
      </trkpt>
      <trkpt lat="49.3723" lon="6.20533">
        <ele>146</ele>
        <time>2026-05-20T10:13:46+02:00</time>
      </trkpt>
      <trkpt lat="49.37225" lon="6.20529">
        <ele>146</ele>
        <time>2026-05-20T10:13:47+02:00</time>
      </trkpt>
      <trkpt lat="49.3722" lon="6.20525">
        <ele>145.7002</ele>
        <time>2026-05-20T10:13:48+02:00</time>
      </trkpt>
      <trkpt lat="49.37216" lon="6.2052">
        <ele>145.7002</ele>
        <time>2026-05-20T10:13:49+02:00</time>
      </trkpt>
      <trkpt lat="49.37211" lon="6.20515">
        <ele>145.60059</ele>
        <time>2026-05-20T10:13:50+02:00</time>
      </trkpt>
      <trkpt lat="49.37206" lon="6.2051">
        <ele>145.7002</ele>
        <time>2026-05-20T10:13:51+02:00</time>
      </trkpt>
      <trkpt lat="49.37202" lon="6.20506">
        <ele>145.7998</ele>
        <time>2026-05-20T10:13:52+02:00</time>
      </trkpt>
      <trkpt lat="49.37197" lon="6.20501">
        <ele>146.2002</ele>
        <time>2026-05-20T10:13:53+02:00</time>
      </trkpt>
      <trkpt lat="49.37192" lon="6.20496">
        <ele>146.2002</ele>
        <time>2026-05-20T10:13:54+02:00</time>
      </trkpt>
      <trkpt lat="49.37188" lon="6.20491">
        <ele>146.7998</ele>
        <time>2026-05-20T10:13:55+02:00</time>
      </trkpt>
      <trkpt lat="49.37183" lon="6.20487">
        <ele>147.10059</ele>
        <time>2026-05-20T10:13:56+02:00</time>
      </trkpt>
      <trkpt lat="49.37178" lon="6.20482">
        <ele>146.5</ele>
        <time>2026-05-20T10:13:57+02:00</time>
      </trkpt>
      <trkpt lat="49.37174" lon="6.20477">
        <ele>146.2002</ele>
        <time>2026-05-20T10:13:58+02:00</time>
      </trkpt>
      <trkpt lat="49.37169" lon="6.20472">
        <ele>145.90039</ele>
        <time>2026-05-20T10:13:59+02:00</time>
      </trkpt>
      <trkpt lat="49.37164" lon="6.20467">
        <ele>146.2002</ele>
        <time>2026-05-20T10:14:00+02:00</time>
      </trkpt>
      <trkpt lat="49.3716" lon="6.20462">
        <ele>146.2002</ele>
        <time>2026-05-20T10:14:01+02:00</time>
      </trkpt>
      <trkpt lat="49.37155" lon="6.20457">
        <ele>146.40039</ele>
        <time>2026-05-20T10:14:02+02:00</time>
      </trkpt>
      <trkpt lat="49.37151" lon="6.20452">
        <ele>146.10059</ele>
        <time>2026-05-20T10:14:03+02:00</time>
      </trkpt>
      <trkpt lat="49.37146" lon="6.20447">
        <ele>145.7002</ele>
        <time>2026-05-20T10:14:04+02:00</time>
      </trkpt>
      <trkpt lat="49.37141" lon="6.20442">
        <ele>145.7998</ele>
        <time>2026-05-20T10:14:05+02:00</time>
      </trkpt>
      <trkpt lat="49.37137" lon="6.20437">
        <ele>145.7998</ele>
        <time>2026-05-20T10:14:06+02:00</time>
      </trkpt>
      <trkpt lat="49.37132" lon="6.20432">
        <ele>146.60059</ele>
        <time>2026-05-20T10:14:07+02:00</time>
      </trkpt>
      <trkpt lat="49.37128" lon="6.20427">
        <ele>147.5</ele>
        <time>2026-05-20T10:14:08+02:00</time>
      </trkpt>
      <trkpt lat="49.37123" lon="6.20422">
        <ele>147.2998</ele>
        <time>2026-05-20T10:14:09+02:00</time>
      </trkpt>
      <trkpt lat="49.37119" lon="6.20417">
        <ele>147.5</ele>
        <time>2026-05-20T10:14:10+02:00</time>
      </trkpt>
      <trkpt lat="49.37114" lon="6.20412">
        <ele>146.90039</ele>
        <time>2026-05-20T10:14:11+02:00</time>
      </trkpt>
      <trkpt lat="49.3711" lon="6.20406">
        <ele>147.40039</ele>
        <time>2026-05-20T10:14:12+02:00</time>
      </trkpt>
      <trkpt lat="49.37105" lon="6.20401">
        <ele>147.40039</ele>
        <time>2026-05-20T10:14:13+02:00</time>
      </trkpt>
      <trkpt lat="49.37101" lon="6.20396">
        <ele>146.7998</ele>
        <time>2026-05-20T10:14:14+02:00</time>
      </trkpt>
      <trkpt lat="49.37097" lon="6.2039">
        <ele>147.10059</ele>
        <time>2026-05-20T10:14:15+02:00</time>
      </trkpt>
      <trkpt lat="49.37093" lon="6.20385">
        <ele>147.10059</ele>
        <time>2026-05-20T10:14:16+02:00</time>
      </trkpt>
      <trkpt lat="49.37089" lon="6.20379">
        <ele>147</ele>
        <time>2026-05-20T10:14:17+02:00</time>
      </trkpt>
      <trkpt lat="49.37084" lon="6.20374">
        <ele>146.60059</ele>
        <time>2026-05-20T10:14:18+02:00</time>
      </trkpt>
      <trkpt lat="49.37081" lon="6.20368">
        <ele>146.60059</ele>
        <time>2026-05-20T10:14:19+02:00</time>
      </trkpt>
      <trkpt lat="49.37077" lon="6.20362">
        <ele>146</ele>
        <time>2026-05-20T10:14:20+02:00</time>
      </trkpt>
      <trkpt lat="49.37073" lon="6.20356">
        <ele>145.7002</ele>
        <time>2026-05-20T10:14:21+02:00</time>
      </trkpt>
      <trkpt lat="49.3707" lon="6.2035">
        <ele>145.7002</ele>
        <time>2026-05-20T10:14:22+02:00</time>
      </trkpt>
      <trkpt lat="49.37066" lon="6.20344">
        <ele>145.7002</ele>
        <time>2026-05-20T10:14:23+02:00</time>
      </trkpt>
      <trkpt lat="49.37063" lon="6.20338">
        <ele>145.7998</ele>
        <time>2026-05-20T10:14:24+02:00</time>
      </trkpt>
      <trkpt lat="49.3706" lon="6.20332">
        <ele>146.10059</ele>
        <time>2026-05-20T10:14:25+02:00</time>
      </trkpt>
      <trkpt lat="49.37056" lon="6.20326">
        <ele>145.90039</ele>
        <time>2026-05-20T10:14:26+02:00</time>
      </trkpt>
      <trkpt lat="49.37053" lon="6.2032">
        <ele>146.10059</ele>
        <time>2026-05-20T10:14:27+02:00</time>
      </trkpt>
      <trkpt lat="49.3705" lon="6.20313">
        <ele>146</ele>
        <time>2026-05-20T10:14:28+02:00</time>
      </trkpt>
      <trkpt lat="49.37047" lon="6.20307">
        <ele>145.7998</ele>
        <time>2026-05-20T10:14:29+02:00</time>
      </trkpt>
      <trkpt lat="49.37043" lon="6.20301">
        <ele>146.10059</ele>
        <time>2026-05-20T10:14:30+02:00</time>
      </trkpt>
      <trkpt lat="49.37039" lon="6.20294">
        <ele>146.2998</ele>
        <time>2026-05-20T10:14:31+02:00</time>
      </trkpt>
      <trkpt lat="49.37036" lon="6.20287">
        <ele>146.7998</ele>
        <time>2026-05-20T10:14:32+02:00</time>
      </trkpt>
      <trkpt lat="49.37031" lon="6.2028">
        <ele>146.60059</ele>
        <time>2026-05-20T10:14:33+02:00</time>
      </trkpt>
      <trkpt lat="49.37027" lon="6.20273">
        <ele>146.10059</ele>
        <time>2026-05-20T10:14:34+02:00</time>
      </trkpt>
      <trkpt lat="49.37023" lon="6.20267">
        <ele>146.2998</ele>
        <time>2026-05-20T10:14:35+02:00</time>
      </trkpt>
      <trkpt lat="49.37019" lon="6.2026">
        <ele>146.60059</ele>
        <time>2026-05-20T10:14:36+02:00</time>
      </trkpt>
      <trkpt lat="49.37015" lon="6.20254">
        <ele>147.10059</ele>
        <time>2026-05-20T10:14:37+02:00</time>
      </trkpt>
      <trkpt lat="49.37011" lon="6.20248">
        <ele>146.40039</ele>
        <time>2026-05-20T10:14:38+02:00</time>
      </trkpt>
      <trkpt lat="49.37008" lon="6.20242">
        <ele>146.7998</ele>
        <time>2026-05-20T10:14:39+02:00</time>
      </trkpt>
      <trkpt lat="49.37004" lon="6.20236">
        <ele>147</ele>
        <time>2026-05-20T10:14:40+02:00</time>
      </trkpt>
      <trkpt lat="49.37" lon="6.2023">
        <ele>146.7002</ele>
        <time>2026-05-20T10:14:41+02:00</time>
      </trkpt>
      <trkpt lat="49.36996" lon="6.20224">
        <ele>147.2002</ele>
        <time>2026-05-20T10:14:42+02:00</time>
      </trkpt>
      <trkpt lat="49.36992" lon="6.20219">
        <ele>148</ele>
        <time>2026-05-20T10:14:43+02:00</time>
      </trkpt>
      <trkpt lat="49.36988" lon="6.20213">
        <ele>147.2002</ele>
        <time>2026-05-20T10:14:44+02:00</time>
      </trkpt>
      <trkpt lat="49.36984" lon="6.20207">
        <ele>147</ele>
        <time>2026-05-20T10:14:45+02:00</time>
      </trkpt>
      <trkpt lat="49.36981" lon="6.20201">
        <ele>147.90039</ele>
        <time>2026-05-20T10:14:46+02:00</time>
      </trkpt>
      <trkpt lat="49.36977" lon="6.20196">
        <ele>147.5</ele>
        <time>2026-05-20T10:14:47+02:00</time>
      </trkpt>
      <trkpt lat="49.36973" lon="6.2019">
        <ele>148.2002</ele>
        <time>2026-05-20T10:14:48+02:00</time>
      </trkpt>
      <trkpt lat="49.36969" lon="6.20184">
        <ele>149</ele>
        <time>2026-05-20T10:14:49+02:00</time>
      </trkpt>
      <trkpt lat="49.36966" lon="6.20178">
        <ele>148.90039</ele>
        <time>2026-05-20T10:14:50+02:00</time>
      </trkpt>
      <trkpt lat="49.36962" lon="6.20172">
        <ele>148.10059</ele>
        <time>2026-05-20T10:14:51+02:00</time>
      </trkpt>
      <trkpt lat="49.36958" lon="6.20166">
        <ele>148.90039</ele>
        <time>2026-05-20T10:14:52+02:00</time>
      </trkpt>
      <trkpt lat="49.36954" lon="6.20161">
        <ele>149</ele>
        <time>2026-05-20T10:14:53+02:00</time>
      </trkpt>
      <trkpt lat="49.3695" lon="6.20155">
        <ele>148.40039</ele>
        <time>2026-05-20T10:14:54+02:00</time>
      </trkpt>
      <trkpt lat="49.36947" lon="6.20149">
        <ele>149</ele>
        <time>2026-05-20T10:14:55+02:00</time>
      </trkpt>
      <trkpt lat="49.36943" lon="6.20143">
        <ele>148.7002</ele>
        <time>2026-05-20T10:14:56+02:00</time>
      </trkpt>
      <trkpt lat="49.36939" lon="6.20138">
        <ele>147.7998</ele>
        <time>2026-05-20T10:14:57+02:00</time>
      </trkpt>
      <trkpt lat="49.36936" lon="6.20132">
        <ele>147.60059</ele>
        <time>2026-05-20T10:14:58+02:00</time>
      </trkpt>
      <trkpt lat="49.36932" lon="6.20126">
        <ele>146.7998</ele>
        <time>2026-05-20T10:14:59+02:00</time>
      </trkpt>
      <trkpt lat="49.36928" lon="6.2012">
        <ele>146.5</ele>
        <time>2026-05-20T10:15:00+02:00</time>
      </trkpt>
      <trkpt lat="49.36924" lon="6.20114">
        <ele>146.60059</ele>
        <time>2026-05-20T10:15:01+02:00</time>
      </trkpt>
      <trkpt lat="49.3692" lon="6.20108">
        <ele>147</ele>
        <time>2026-05-20T10:15:02+02:00</time>
      </trkpt>
      <trkpt lat="49.36916" lon="6.20102">
        <ele>146.90039</ele>
        <time>2026-05-20T10:15:03+02:00</time>
      </trkpt>
      <trkpt lat="49.36912" lon="6.20096">
        <ele>147</ele>
        <time>2026-05-20T10:15:04+02:00</time>
      </trkpt>
      <trkpt lat="49.36908" lon="6.2009">
        <ele>147</ele>
        <time>2026-05-20T10:15:05+02:00</time>
      </trkpt>
      <trkpt lat="49.36904" lon="6.20084">
        <ele>146.7998</ele>
        <time>2026-05-20T10:15:06+02:00</time>
      </trkpt>
      <trkpt lat="49.369" lon="6.20079">
        <ele>146.7002</ele>
        <time>2026-05-20T10:15:07+02:00</time>
      </trkpt>
      <trkpt lat="49.36897" lon="6.20073">
        <ele>146.60059</ele>
        <time>2026-05-20T10:15:08+02:00</time>
      </trkpt>
      <trkpt lat="49.36893" lon="6.20067">
        <ele>146.7002</ele>
        <time>2026-05-20T10:15:09+02:00</time>
      </trkpt>
      <trkpt lat="49.36889" lon="6.20061">
        <ele>146.90039</ele>
        <time>2026-05-20T10:15:10+02:00</time>
      </trkpt>
      <trkpt lat="49.36885" lon="6.20056">
        <ele>146.90039</ele>
        <time>2026-05-20T10:15:11+02:00</time>
      </trkpt>
      <trkpt lat="49.36882" lon="6.2005">
        <ele>146.90039</ele>
        <time>2026-05-20T10:15:12+02:00</time>
      </trkpt>
      <trkpt lat="49.36878" lon="6.20044">
        <ele>146.90039</ele>
        <time>2026-05-20T10:15:13+02:00</time>
      </trkpt>
      <trkpt lat="49.36876" lon="6.20037">
        <ele>146.7998</ele>
        <time>2026-05-20T10:15:14+02:00</time>
      </trkpt>
      <trkpt lat="49.36873" lon="6.2003">
        <ele>146.7998</ele>
        <time>2026-05-20T10:15:15+02:00</time>
      </trkpt>
      <trkpt lat="49.3687" lon="6.20023">
        <ele>146.7998</ele>
        <time>2026-05-20T10:15:16+02:00</time>
      </trkpt>
      <trkpt lat="49.36867" lon="6.20016">
        <ele>146.90039</ele>
        <time>2026-05-20T10:15:17+02:00</time>
      </trkpt>
      <trkpt lat="49.36864" lon="6.20009">
        <ele>146.90039</ele>
        <time>2026-05-20T10:15:18+02:00</time>
      </trkpt>
      <trkpt lat="49.36861" lon="6.20003">
        <ele>146.7998</ele>
        <time>2026-05-20T10:15:19+02:00</time>
      </trkpt>
      <trkpt lat="49.36858" lon="6.19996">
        <ele>146.7998</ele>
        <time>2026-05-20T10:15:20+02:00</time>
      </trkpt>
      <trkpt lat="49.36855" lon="6.19989">
        <ele>146.7998</ele>
        <time>2026-05-20T10:15:21+02:00</time>
      </trkpt>
      <trkpt lat="49.36852" lon="6.19982">
        <ele>146.7998</ele>
        <time>2026-05-20T10:15:22+02:00</time>
      </trkpt>
      <trkpt lat="49.36848" lon="6.19974">
        <ele>146.90039</ele>
        <time>2026-05-20T10:15:23+02:00</time>
      </trkpt>
      <trkpt lat="49.36845" lon="6.19967">
        <ele>146.90039</ele>
        <time>2026-05-20T10:15:24+02:00</time>
      </trkpt>
      <trkpt lat="49.36842" lon="6.19961">
        <ele>147.2002</ele>
        <time>2026-05-20T10:15:25+02:00</time>
      </trkpt>
      <trkpt lat="49.36839" lon="6.19954">
        <ele>147</ele>
        <time>2026-05-20T10:15:26+02:00</time>
      </trkpt>
      <trkpt lat="49.36836" lon="6.19947">
        <ele>147</ele>
        <time>2026-05-20T10:15:27+02:00</time>
      </trkpt>
      <trkpt lat="49.36833" lon="6.1994">
        <ele>147</ele>
        <time>2026-05-20T10:15:28+02:00</time>
      </trkpt>
      <trkpt lat="49.3683" lon="6.19933">
        <ele>147.40039</ele>
        <time>2026-05-20T10:15:29+02:00</time>
      </trkpt>
      <trkpt lat="49.36826" lon="6.19926">
        <ele>147.5</ele>
        <time>2026-05-20T10:15:30+02:00</time>
      </trkpt>
      <trkpt lat="49.36823" lon="6.19919">
        <ele>147.2998</ele>
        <time>2026-05-20T10:15:31+02:00</time>
      </trkpt>
      <trkpt lat="49.3682" lon="6.19913">
        <ele>147.2998</ele>
        <time>2026-05-20T10:15:32+02:00</time>
      </trkpt>
      <trkpt lat="49.36817" lon="6.19906">
        <ele>147</ele>
        <time>2026-05-20T10:15:33+02:00</time>
      </trkpt>
      <trkpt lat="49.36813" lon="6.19899">
        <ele>147</ele>
        <time>2026-05-20T10:15:34+02:00</time>
      </trkpt>
      <trkpt lat="49.3681" lon="6.19891">
        <ele>146.7998</ele>
        <time>2026-05-20T10:15:35+02:00</time>
      </trkpt>
      <trkpt lat="49.36808" lon="6.19884">
        <ele>146.90039</ele>
        <time>2026-05-20T10:15:36+02:00</time>
      </trkpt>
      <trkpt lat="49.36805" lon="6.19877">
        <ele>147</ele>
        <time>2026-05-20T10:15:37+02:00</time>
      </trkpt>
      <trkpt lat="49.36802" lon="6.19869">
        <ele>147.40039</ele>
        <time>2026-05-20T10:15:38+02:00</time>
      </trkpt>
      <trkpt lat="49.368" lon="6.19862">
        <ele>147.2002</ele>
        <time>2026-05-20T10:15:39+02:00</time>
      </trkpt>
      <trkpt lat="49.36797" lon="6.19854">
        <ele>147.5</ele>
        <time>2026-05-20T10:15:40+02:00</time>
      </trkpt>
      <trkpt lat="49.36796" lon="6.19847">
        <ele>147.7002</ele>
        <time>2026-05-20T10:15:41+02:00</time>
      </trkpt>
      <trkpt lat="49.36794" lon="6.1984">
        <ele>147.2002</ele>
        <time>2026-05-20T10:15:42+02:00</time>
      </trkpt>
      <trkpt lat="49.36792" lon="6.19832">
        <ele>147.2998</ele>
        <time>2026-05-20T10:15:43+02:00</time>
      </trkpt>
      <trkpt lat="49.3679" lon="6.19825">
        <ele>147.40039</ele>
        <time>2026-05-20T10:15:44+02:00</time>
      </trkpt>
      <trkpt lat="49.36788" lon="6.19817">
        <ele>147.10059</ele>
        <time>2026-05-20T10:15:45+02:00</time>
      </trkpt>
      <trkpt lat="49.36786" lon="6.1981">
        <ele>147.10059</ele>
        <time>2026-05-20T10:15:46+02:00</time>
      </trkpt>
      <trkpt lat="49.36785" lon="6.19803">
        <ele>147.60059</ele>
        <time>2026-05-20T10:15:47+02:00</time>
      </trkpt>
      <trkpt lat="49.36783" lon="6.19795">
        <ele>147.7998</ele>
        <time>2026-05-20T10:15:48+02:00</time>
      </trkpt>
      <trkpt lat="49.36782" lon="6.19788">
        <ele>148.5</ele>
        <time>2026-05-20T10:15:49+02:00</time>
      </trkpt>
      <trkpt lat="49.36781" lon="6.19781">
        <ele>148.7998</ele>
        <time>2026-05-20T10:15:50+02:00</time>
      </trkpt>
      <trkpt lat="49.36779" lon="6.19773">
        <ele>149</ele>
        <time>2026-05-20T10:15:51+02:00</time>
      </trkpt>
      <trkpt lat="49.36778" lon="6.19766">
        <ele>148.40039</ele>
        <time>2026-05-20T10:15:52+02:00</time>
      </trkpt>
      <trkpt lat="49.36776" lon="6.19759">
        <ele>148.40039</ele>
        <time>2026-05-20T10:15:53+02:00</time>
      </trkpt>
      <trkpt lat="49.36775" lon="6.19751">
        <ele>148.5</ele>
        <time>2026-05-20T10:15:54+02:00</time>
      </trkpt>
      <trkpt lat="49.36773" lon="6.19744">
        <ele>147.7998</ele>
        <time>2026-05-20T10:15:55+02:00</time>
      </trkpt>
      <trkpt lat="49.36772" lon="6.19736">
        <ele>147.7998</ele>
        <time>2026-05-20T10:15:56+02:00</time>
      </trkpt>
      <trkpt lat="49.3677" lon="6.19728">
        <ele>147.7998</ele>
        <time>2026-05-20T10:15:57+02:00</time>
      </trkpt>
      <trkpt lat="49.36769" lon="6.19721">
        <ele>147.90039</ele>
        <time>2026-05-20T10:15:58+02:00</time>
      </trkpt>
      <trkpt lat="49.36768" lon="6.19713">
        <ele>147.90039</ele>
        <time>2026-05-20T10:15:59+02:00</time>
      </trkpt>
      <trkpt lat="49.36767" lon="6.19706">
        <ele>147.2002</ele>
        <time>2026-05-20T10:16:00+02:00</time>
      </trkpt>
      <trkpt lat="49.36765" lon="6.19698">
        <ele>147.2002</ele>
        <time>2026-05-20T10:16:01+02:00</time>
      </trkpt>
      <trkpt lat="49.36764" lon="6.19691">
        <ele>147.2002</ele>
        <time>2026-05-20T10:16:02+02:00</time>
      </trkpt>
      <trkpt lat="49.36762" lon="6.19683">
        <ele>146.90039</ele>
        <time>2026-05-20T10:16:03+02:00</time>
      </trkpt>
      <trkpt lat="49.3676" lon="6.19675">
        <ele>147.10059</ele>
        <time>2026-05-20T10:16:04+02:00</time>
      </trkpt>
      <trkpt lat="49.36759" lon="6.19667">
        <ele>147.60059</ele>
        <time>2026-05-20T10:16:05+02:00</time>
      </trkpt>
      <trkpt lat="49.36758" lon="6.1966">
        <ele>148.2998</ele>
        <time>2026-05-20T10:16:06+02:00</time>
      </trkpt>
      <trkpt lat="49.36757" lon="6.19652">
        <ele>149</ele>
        <time>2026-05-20T10:16:07+02:00</time>
      </trkpt>
      <trkpt lat="49.36755" lon="6.19644">
        <ele>148.7998</ele>
        <time>2026-05-20T10:16:08+02:00</time>
      </trkpt>
      <trkpt lat="49.36754" lon="6.19636">
        <ele>149</ele>
        <time>2026-05-20T10:16:09+02:00</time>
      </trkpt>
      <trkpt lat="49.36752" lon="6.19628">
        <ele>149.2002</ele>
        <time>2026-05-20T10:16:10+02:00</time>
      </trkpt>
      <trkpt lat="49.36751" lon="6.1962">
        <ele>149.40039</ele>
        <time>2026-05-20T10:16:11+02:00</time>
      </trkpt>
      <trkpt lat="49.3675" lon="6.19612">
        <ele>148.5</ele>
        <time>2026-05-20T10:16:12+02:00</time>
      </trkpt>
      <trkpt lat="49.36748" lon="6.19604">
        <ele>148.60059</ele>
        <time>2026-05-20T10:16:13+02:00</time>
      </trkpt>
      <trkpt lat="49.36747" lon="6.19596">
        <ele>148.7002</ele>
        <time>2026-05-20T10:16:14+02:00</time>
      </trkpt>
      <trkpt lat="49.36746" lon="6.19588">
        <ele>148.7998</ele>
        <time>2026-05-20T10:16:15+02:00</time>
      </trkpt>
      <trkpt lat="49.36744" lon="6.1958">
        <ele>147.90039</ele>
        <time>2026-05-20T10:16:16+02:00</time>
      </trkpt>
      <trkpt lat="49.36743" lon="6.19572">
        <ele>148</ele>
        <time>2026-05-20T10:16:17+02:00</time>
      </trkpt>
      <trkpt lat="49.36741" lon="6.19564">
        <ele>148.10059</ele>
        <time>2026-05-20T10:16:18+02:00</time>
      </trkpt>
      <trkpt lat="49.3674" lon="6.19556">
        <ele>148.2002</ele>
        <time>2026-05-20T10:16:19+02:00</time>
      </trkpt>
      <trkpt lat="49.36739" lon="6.19548">
        <ele>147.2998</ele>
        <time>2026-05-20T10:16:20+02:00</time>
      </trkpt>
      <trkpt lat="49.36739" lon="6.1954">
        <ele>147.60059</ele>
        <time>2026-05-20T10:16:21+02:00</time>
      </trkpt>
      <trkpt lat="49.36738" lon="6.19532">
        <ele>148.40039</ele>
        <time>2026-05-20T10:16:22+02:00</time>
      </trkpt>
      <trkpt lat="49.36738" lon="6.19524">
        <ele>149.10059</ele>
        <time>2026-05-20T10:16:23+02:00</time>
      </trkpt>
      <trkpt lat="49.36738" lon="6.19516">
        <ele>149.7998</ele>
        <time>2026-05-20T10:16:24+02:00</time>
      </trkpt>
      <trkpt lat="49.36737" lon="6.19508">
        <ele>150.10059</ele>
        <time>2026-05-20T10:16:25+02:00</time>
      </trkpt>
      <trkpt lat="49.36736" lon="6.19499">
        <ele>150.5</ele>
        <time>2026-05-20T10:16:26+02:00</time>
      </trkpt>
      <trkpt lat="49.36735" lon="6.19491">
        <ele>150.7998</ele>
        <time>2026-05-20T10:16:27+02:00</time>
      </trkpt>
      <trkpt lat="49.36735" lon="6.19483">
        <ele>150.7998</ele>
        <time>2026-05-20T10:16:28+02:00</time>
      </trkpt>
      <trkpt lat="49.36733" lon="6.19475">
        <ele>150.2002</ele>
        <time>2026-05-20T10:16:29+02:00</time>
      </trkpt>
      <trkpt lat="49.36732" lon="6.19467">
        <ele>150.2998</ele>
        <time>2026-05-20T10:16:30+02:00</time>
      </trkpt>
      <trkpt lat="49.36731" lon="6.19459">
        <ele>150.40039</ele>
        <time>2026-05-20T10:16:31+02:00</time>
      </trkpt>
      <trkpt lat="49.3673" lon="6.19451">
        <ele>150.5</ele>
        <time>2026-05-20T10:16:32+02:00</time>
      </trkpt>
      <trkpt lat="49.36729" lon="6.19443">
        <ele>150.7002</ele>
        <time>2026-05-20T10:16:33+02:00</time>
      </trkpt>
      <trkpt lat="49.36728" lon="6.19435">
        <ele>150.10059</ele>
        <time>2026-05-20T10:16:34+02:00</time>
      </trkpt>
      <trkpt lat="49.36727" lon="6.19428">
        <ele>150.2998</ele>
        <time>2026-05-20T10:16:35+02:00</time>
      </trkpt>
      <trkpt lat="49.36725" lon="6.1942">
        <ele>150.60059</ele>
        <time>2026-05-20T10:16:36+02:00</time>
      </trkpt>
      <trkpt lat="49.36724" lon="6.19412">
        <ele>150.90039</ele>
        <time>2026-05-20T10:16:37+02:00</time>
      </trkpt>
      <trkpt lat="49.36723" lon="6.19404">
        <ele>151.10059</ele>
        <time>2026-05-20T10:16:38+02:00</time>
      </trkpt>
      <trkpt lat="49.36722" lon="6.19397">
        <ele>150.7998</ele>
        <time>2026-05-20T10:16:39+02:00</time>
      </trkpt>
      <trkpt lat="49.36721" lon="6.1939">
        <ele>150.7998</ele>
        <time>2026-05-20T10:16:40+02:00</time>
      </trkpt>
      <trkpt lat="49.3672" lon="6.19382">
        <ele>151.2002</ele>
        <time>2026-05-20T10:16:41+02:00</time>
      </trkpt>
      <trkpt lat="49.36719" lon="6.19375">
        <ele>151.60059</ele>
        <time>2026-05-20T10:16:42+02:00</time>
      </trkpt>
      <trkpt lat="49.36718" lon="6.19368">
        <ele>151.90039</ele>
        <time>2026-05-20T10:16:43+02:00</time>
      </trkpt>
      <trkpt lat="49.36717" lon="6.19361">
        <ele>151.7002</ele>
        <time>2026-05-20T10:16:44+02:00</time>
      </trkpt>
      <trkpt lat="49.36715" lon="6.19354">
        <ele>152.10059</ele>
        <time>2026-05-20T10:16:45+02:00</time>
      </trkpt>
      <trkpt lat="49.36715" lon="6.19346">
        <ele>152.10059</ele>
        <time>2026-05-20T10:16:46+02:00</time>
      </trkpt>
      <trkpt lat="49.36714" lon="6.19339">
        <ele>152.40039</ele>
        <time>2026-05-20T10:16:47+02:00</time>
      </trkpt>
      <trkpt lat="49.36712" lon="6.19331">
        <ele>152.5</ele>
        <time>2026-05-20T10:16:48+02:00</time>
      </trkpt>
      <trkpt lat="49.36711" lon="6.19324">
        <ele>151.7002</ele>
        <time>2026-05-20T10:16:49+02:00</time>
      </trkpt>
      <trkpt lat="49.3671" lon="6.19316">
        <ele>151.7002</ele>
        <time>2026-05-20T10:16:50+02:00</time>
      </trkpt>
      <trkpt lat="49.36709" lon="6.19308">
        <ele>151.7998</ele>
        <time>2026-05-20T10:16:51+02:00</time>
      </trkpt>
      <trkpt lat="49.36707" lon="6.193">
        <ele>151.90039</ele>
        <time>2026-05-20T10:16:52+02:00</time>
      </trkpt>
      <trkpt lat="49.36707" lon="6.19292">
        <ele>152</ele>
        <time>2026-05-20T10:16:53+02:00</time>
      </trkpt>
      <trkpt lat="49.36706" lon="6.19284">
        <ele>152.10059</ele>
        <time>2026-05-20T10:16:54+02:00</time>
      </trkpt>
      <trkpt lat="49.36704" lon="6.19276">
        <ele>151.2002</ele>
        <time>2026-05-20T10:16:55+02:00</time>
      </trkpt>
      <trkpt lat="49.36703" lon="6.19268">
        <ele>151.2002</ele>
        <time>2026-05-20T10:16:56+02:00</time>
      </trkpt>
      <trkpt lat="49.36702" lon="6.1926">
        <ele>151.2002</ele>
        <time>2026-05-20T10:16:57+02:00</time>
      </trkpt>
      <trkpt lat="49.36701" lon="6.19252">
        <ele>151.2002</ele>
        <time>2026-05-20T10:16:58+02:00</time>
      </trkpt>
      <trkpt lat="49.367" lon="6.19244">
        <ele>150.60059</ele>
        <time>2026-05-20T10:16:59+02:00</time>
      </trkpt>
      <trkpt lat="49.36699" lon="6.19237">
        <ele>150.60059</ele>
        <time>2026-05-20T10:17:00+02:00</time>
      </trkpt>
      <trkpt lat="49.36698" lon="6.19229">
        <ele>150.7002</ele>
        <time>2026-05-20T10:17:01+02:00</time>
      </trkpt>
      <trkpt lat="49.36696" lon="6.19221">
        <ele>150.60059</ele>
        <time>2026-05-20T10:17:02+02:00</time>
      </trkpt>
      <trkpt lat="49.36695" lon="6.19214">
        <ele>150.60059</ele>
        <time>2026-05-20T10:17:03+02:00</time>
      </trkpt>
      <trkpt lat="49.36694" lon="6.19206">
        <ele>150.2998</ele>
        <time>2026-05-20T10:17:04+02:00</time>
      </trkpt>
      <trkpt lat="49.36693" lon="6.19198">
        <ele>150.40039</ele>
        <time>2026-05-20T10:17:05+02:00</time>
      </trkpt>
      <trkpt lat="49.36692" lon="6.1919">
        <ele>150.7002</ele>
        <time>2026-05-20T10:17:06+02:00</time>
      </trkpt>
      <trkpt lat="49.36691" lon="6.19182">
        <ele>150.90039</ele>
        <time>2026-05-20T10:17:07+02:00</time>
      </trkpt>
      <trkpt lat="49.3669" lon="6.19174">
        <ele>151.10059</ele>
        <time>2026-05-20T10:17:08+02:00</time>
      </trkpt>
      <trkpt lat="49.36688" lon="6.19166">
        <ele>150.60059</ele>
        <time>2026-05-20T10:17:09+02:00</time>
      </trkpt>
      <trkpt lat="49.36687" lon="6.19157">
        <ele>150.7002</ele>
        <time>2026-05-20T10:17:10+02:00</time>
      </trkpt>
      <trkpt lat="49.36686" lon="6.19149">
        <ele>150.7002</ele>
        <time>2026-05-20T10:17:11+02:00</time>
      </trkpt>
      <trkpt lat="49.36685" lon="6.19141">
        <ele>150.7998</ele>
        <time>2026-05-20T10:17:12+02:00</time>
      </trkpt>
      <trkpt lat="49.36683" lon="6.19133">
        <ele>150.2998</ele>
        <time>2026-05-20T10:17:13+02:00</time>
      </trkpt>
      <trkpt lat="49.36682" lon="6.19125">
        <ele>150.40039</ele>
        <time>2026-05-20T10:17:14+02:00</time>
      </trkpt>
      <trkpt lat="49.36681" lon="6.19116">
        <ele>150.60059</ele>
        <time>2026-05-20T10:17:15+02:00</time>
      </trkpt>
      <trkpt lat="49.3668" lon="6.19108">
        <ele>150.7002</ele>
        <time>2026-05-20T10:17:16+02:00</time>
      </trkpt>
      <trkpt lat="49.36679" lon="6.191">
        <ele>150.7998</ele>
        <time>2026-05-20T10:17:17+02:00</time>
      </trkpt>
      <trkpt lat="49.36678" lon="6.19092">
        <ele>150.2998</ele>
        <time>2026-05-20T10:17:18+02:00</time>
      </trkpt>
      <trkpt lat="49.36676" lon="6.19083">
        <ele>150.2998</ele>
        <time>2026-05-20T10:17:19+02:00</time>
      </trkpt>
      <trkpt lat="49.36675" lon="6.19075">
        <ele>150.2998</ele>
        <time>2026-05-20T10:17:20+02:00</time>
      </trkpt>
      <trkpt lat="49.36674" lon="6.19067">
        <ele>150.2998</ele>
        <time>2026-05-20T10:17:21+02:00</time>
      </trkpt>
      <trkpt lat="49.36673" lon="6.19059">
        <ele>150.2002</ele>
        <time>2026-05-20T10:17:22+02:00</time>
      </trkpt>
      <trkpt lat="49.36672" lon="6.19051">
        <ele>149.60059</ele>
        <time>2026-05-20T10:17:23+02:00</time>
      </trkpt>
      <trkpt lat="49.3667" lon="6.19043">
        <ele>149.5</ele>
        <time>2026-05-20T10:17:24+02:00</time>
      </trkpt>
      <trkpt lat="49.36669" lon="6.19035">
        <ele>149.5</ele>
        <time>2026-05-20T10:17:25+02:00</time>
      </trkpt>
      <trkpt lat="49.36668" lon="6.19027">
        <ele>149.5</ele>
        <time>2026-05-20T10:17:26+02:00</time>
      </trkpt>
      <trkpt lat="49.36667" lon="6.19019">
        <ele>149.10059</ele>
        <time>2026-05-20T10:17:27+02:00</time>
      </trkpt>
      <trkpt lat="49.36665" lon="6.19012">
        <ele>149.10059</ele>
        <time>2026-05-20T10:17:28+02:00</time>
      </trkpt>
      <trkpt lat="49.36664" lon="6.19004">
        <ele>149.10059</ele>
        <time>2026-05-20T10:17:29+02:00</time>
      </trkpt>
      <trkpt lat="49.36663" lon="6.18996">
        <ele>149.10059</ele>
        <time>2026-05-20T10:17:30+02:00</time>
      </trkpt>
      <trkpt lat="49.36662" lon="6.18988">
        <ele>149.10059</ele>
        <time>2026-05-20T10:17:31+02:00</time>
      </trkpt>
      <trkpt lat="49.36661" lon="6.18979">
        <ele>148.90039</ele>
        <time>2026-05-20T10:17:32+02:00</time>
      </trkpt>
      <trkpt lat="49.3666" lon="6.18971">
        <ele>149</ele>
        <time>2026-05-20T10:17:33+02:00</time>
      </trkpt>
      <trkpt lat="49.36659" lon="6.18963">
        <ele>149.10059</ele>
        <time>2026-05-20T10:17:34+02:00</time>
      </trkpt>
      <trkpt lat="49.36657" lon="6.18955">
        <ele>149.2002</ele>
        <time>2026-05-20T10:17:35+02:00</time>
      </trkpt>
      <trkpt lat="49.36656" lon="6.18947">
        <ele>149.40039</ele>
        <time>2026-05-20T10:17:36+02:00</time>
      </trkpt>
      <trkpt lat="49.36655" lon="6.18939">
        <ele>149.2998</ele>
        <time>2026-05-20T10:17:37+02:00</time>
      </trkpt>
      <trkpt lat="49.36654" lon="6.18931">
        <ele>149.5</ele>
        <time>2026-05-20T10:17:38+02:00</time>
      </trkpt>
      <trkpt lat="49.36653" lon="6.18923">
        <ele>149.60059</ele>
        <time>2026-05-20T10:17:39+02:00</time>
      </trkpt>
      <trkpt lat="49.36652" lon="6.18916">
        <ele>149.7002</ele>
        <time>2026-05-20T10:17:40+02:00</time>
      </trkpt>
      <trkpt lat="49.36651" lon="6.18908">
        <ele>149.7002</ele>
        <time>2026-05-20T10:17:41+02:00</time>
      </trkpt>
      <trkpt lat="49.36649" lon="6.189">
        <ele>149.40039</ele>
        <time>2026-05-20T10:17:42+02:00</time>
      </trkpt>
      <trkpt lat="49.36648" lon="6.18893">
        <ele>149.60059</ele>
        <time>2026-05-20T10:17:43+02:00</time>
      </trkpt>
      <trkpt lat="49.36646" lon="6.18885">
        <ele>149.7002</ele>
        <time>2026-05-20T10:17:44+02:00</time>
      </trkpt>
      <trkpt lat="49.36644" lon="6.18877">
        <ele>149.5</ele>
        <time>2026-05-20T10:17:45+02:00</time>
      </trkpt>
      <trkpt lat="49.36643" lon="6.18869">
        <ele>149.60059</ele>
        <time>2026-05-20T10:17:46+02:00</time>
      </trkpt>
      <trkpt lat="49.3664" lon="6.18861">
        <ele>149.7002</ele>
        <time>2026-05-20T10:17:47+02:00</time>
      </trkpt>
      <trkpt lat="49.36638" lon="6.18854">
        <ele>149.40039</ele>
        <time>2026-05-20T10:17:48+02:00</time>
      </trkpt>
      <trkpt lat="49.36636" lon="6.18846">
        <ele>149.5</ele>
        <time>2026-05-20T10:17:49+02:00</time>
      </trkpt>
      <trkpt lat="49.36634" lon="6.18838">
        <ele>149.60059</ele>
        <time>2026-05-20T10:17:50+02:00</time>
      </trkpt>
      <trkpt lat="49.36632" lon="6.18831">
        <ele>149</ele>
        <time>2026-05-20T10:17:51+02:00</time>
      </trkpt>
      <trkpt lat="49.3663" lon="6.18823">
        <ele>149.10059</ele>
        <time>2026-05-20T10:17:52+02:00</time>
      </trkpt>
      <trkpt lat="49.36628" lon="6.18816">
        <ele>149.10059</ele>
        <time>2026-05-20T10:17:53+02:00</time>
      </trkpt>
      <trkpt lat="49.36625" lon="6.18808">
        <ele>148.60059</ele>
        <time>2026-05-20T10:17:54+02:00</time>
      </trkpt>
      <trkpt lat="49.36623" lon="6.18801">
        <ele>148.60059</ele>
        <time>2026-05-20T10:17:55+02:00</time>
      </trkpt>
      <trkpt lat="49.36621" lon="6.18793">
        <ele>148.2002</ele>
        <time>2026-05-20T10:17:56+02:00</time>
      </trkpt>
      <trkpt lat="49.36619" lon="6.18786">
        <ele>148.2998</ele>
        <time>2026-05-20T10:17:57+02:00</time>
      </trkpt>
      <trkpt lat="49.36616" lon="6.18778">
        <ele>148.2002</ele>
        <time>2026-05-20T10:17:58+02:00</time>
      </trkpt>
      <trkpt lat="49.36614" lon="6.18771">
        <ele>148.2002</ele>
        <time>2026-05-20T10:17:59+02:00</time>
      </trkpt>
      <trkpt lat="49.36611" lon="6.18763">
        <ele>148.5</ele>
        <time>2026-05-20T10:18:00+02:00</time>
      </trkpt>
      <trkpt lat="49.36609" lon="6.18755">
        <ele>148.60059</ele>
        <time>2026-05-20T10:18:01+02:00</time>
      </trkpt>
      <trkpt lat="49.36606" lon="6.18747">
        <ele>148.90039</ele>
        <time>2026-05-20T10:18:02+02:00</time>
      </trkpt>
      <trkpt lat="49.36604" lon="6.18739">
        <ele>148.90039</ele>
        <time>2026-05-20T10:18:03+02:00</time>
      </trkpt>
      <trkpt lat="49.36601" lon="6.18731">
        <ele>149</ele>
        <time>2026-05-20T10:18:04+02:00</time>
      </trkpt>
      <trkpt lat="49.36599" lon="6.18723">
        <ele>148.90039</ele>
        <time>2026-05-20T10:18:05+02:00</time>
      </trkpt>
      <trkpt lat="49.36596" lon="6.18715">
        <ele>148.90039</ele>
        <time>2026-05-20T10:18:06+02:00</time>
      </trkpt>
      <trkpt lat="49.36594" lon="6.18707">
        <ele>148.7002</ele>
        <time>2026-05-20T10:18:07+02:00</time>
      </trkpt>
      <trkpt lat="49.36591" lon="6.18699">
        <ele>148.7002</ele>
        <time>2026-05-20T10:18:08+02:00</time>
      </trkpt>
      <trkpt lat="49.36589" lon="6.18691">
        <ele>148.7002</ele>
        <time>2026-05-20T10:18:09+02:00</time>
      </trkpt>
      <trkpt lat="49.36587" lon="6.18683">
        <ele>148.60059</ele>
        <time>2026-05-20T10:18:10+02:00</time>
      </trkpt>
      <trkpt lat="49.36584" lon="6.18675">
        <ele>148.5</ele>
        <time>2026-05-20T10:18:11+02:00</time>
      </trkpt>
      <trkpt lat="49.36582" lon="6.18667">
        <ele>148.60059</ele>
        <time>2026-05-20T10:18:12+02:00</time>
      </trkpt>
      <trkpt lat="49.36579" lon="6.1866">
        <ele>148.60059</ele>
        <time>2026-05-20T10:18:13+02:00</time>
      </trkpt>
      <trkpt lat="49.36577" lon="6.18652">
        <ele>148.7002</ele>
        <time>2026-05-20T10:18:14+02:00</time>
      </trkpt>
      <trkpt lat="49.36574" lon="6.18644">
        <ele>148.7002</ele>
        <time>2026-05-20T10:18:15+02:00</time>
      </trkpt>
      <trkpt lat="49.36572" lon="6.18636">
        <ele>148.7998</ele>
        <time>2026-05-20T10:18:16+02:00</time>
      </trkpt>
      <trkpt lat="49.3657" lon="6.18629">
        <ele>148.7998</ele>
        <time>2026-05-20T10:18:17+02:00</time>
      </trkpt>
      <trkpt lat="49.36567" lon="6.18621">
        <ele>148.7998</ele>
        <time>2026-05-20T10:18:18+02:00</time>
      </trkpt>
      <trkpt lat="49.36565" lon="6.18614">
        <ele>148.60059</ele>
        <time>2026-05-20T10:18:19+02:00</time>
      </trkpt>
      <trkpt lat="49.36562" lon="6.18607">
        <ele>148.60059</ele>
        <time>2026-05-20T10:18:20+02:00</time>
      </trkpt>
      <trkpt lat="49.36559" lon="6.18601">
        <ele>148.60059</ele>
        <time>2026-05-20T10:18:21+02:00</time>
      </trkpt>
      <trkpt lat="49.36556" lon="6.18595">
        <ele>148.60059</ele>
        <time>2026-05-20T10:18:22+02:00</time>
      </trkpt>
      <trkpt lat="49.36552" lon="6.1859">
        <ele>148.7002</ele>
        <time>2026-05-20T10:18:23+02:00</time>
      </trkpt>
      <trkpt lat="49.36548" lon="6.18586">
        <ele>148.7002</ele>
        <time>2026-05-20T10:18:24+02:00</time>
      </trkpt>
      <trkpt lat="49.36543" lon="6.18581">
        <ele>148.7002</ele>
        <time>2026-05-20T10:18:25+02:00</time>
      </trkpt>
      <trkpt lat="49.36538" lon="6.18576">
        <ele>148.7002</ele>
        <time>2026-05-20T10:18:26+02:00</time>
      </trkpt>
      <trkpt lat="49.36534" lon="6.18569">
        <ele>148.7002</ele>
        <time>2026-05-20T10:18:27+02:00</time>
      </trkpt>
      <trkpt lat="49.3653" lon="6.18563">
        <ele>148.7002</ele>
        <time>2026-05-20T10:18:28+02:00</time>
      </trkpt>
      <trkpt lat="49.36527" lon="6.18556">
        <ele>148.7002</ele>
        <time>2026-05-20T10:18:29+02:00</time>
      </trkpt>
      <trkpt lat="49.36523" lon="6.18549">
        <ele>148.7002</ele>
        <time>2026-05-20T10:18:30+02:00</time>
      </trkpt>
      <trkpt lat="49.3652" lon="6.18542">
        <ele>148.7998</ele>
        <time>2026-05-20T10:18:31+02:00</time>
      </trkpt>
      <trkpt lat="49.36516" lon="6.18534">
        <ele>148.7998</ele>
        <time>2026-05-20T10:18:32+02:00</time>
      </trkpt>
      <trkpt lat="49.36513" lon="6.18527">
        <ele>148.7998</ele>
        <time>2026-05-20T10:18:33+02:00</time>
      </trkpt>
      <trkpt lat="49.36509" lon="6.18519">
        <ele>148.7002</ele>
        <time>2026-05-20T10:18:34+02:00</time>
      </trkpt>
      <trkpt lat="49.36505" lon="6.18511">
        <ele>148.7002</ele>
        <time>2026-05-20T10:18:35+02:00</time>
      </trkpt>
      <trkpt lat="49.36502" lon="6.18503">
        <ele>148.7002</ele>
        <time>2026-05-20T10:18:36+02:00</time>
      </trkpt>
      <trkpt lat="49.36498" lon="6.18495">
        <ele>148.7998</ele>
        <time>2026-05-20T10:18:37+02:00</time>
      </trkpt>
      <trkpt lat="49.36495" lon="6.18487">
        <ele>148.7998</ele>
        <time>2026-05-20T10:18:38+02:00</time>
      </trkpt>
      <trkpt lat="49.36491" lon="6.1848">
        <ele>148.7998</ele>
        <time>2026-05-20T10:18:39+02:00</time>
      </trkpt>
      <trkpt lat="49.36488" lon="6.18471">
        <ele>148.7002</ele>
        <time>2026-05-20T10:18:40+02:00</time>
      </trkpt>
      <trkpt lat="49.36485" lon="6.18463">
        <ele>148.7002</ele>
        <time>2026-05-20T10:18:41+02:00</time>
      </trkpt>
      <trkpt lat="49.36482" lon="6.18455">
        <ele>148.7002</ele>
        <time>2026-05-20T10:18:42+02:00</time>
      </trkpt>
      <trkpt lat="49.36479" lon="6.18447">
        <ele>148.7002</ele>
        <time>2026-05-20T10:18:43+02:00</time>
      </trkpt>
      <trkpt lat="49.36476" lon="6.1844">
        <ele>148.7998</ele>
        <time>2026-05-20T10:18:44+02:00</time>
      </trkpt>
      <trkpt lat="49.36473" lon="6.18432">
        <ele>148.7998</ele>
        <time>2026-05-20T10:18:45+02:00</time>
      </trkpt>
      <trkpt lat="49.36469" lon="6.18425">
        <ele>148.7998</ele>
        <time>2026-05-20T10:18:46+02:00</time>
      </trkpt>
      <trkpt lat="49.36466" lon="6.18418">
        <ele>148.7998</ele>
        <time>2026-05-20T10:18:47+02:00</time>
      </trkpt>
      <trkpt lat="49.36463" lon="6.18411">
        <ele>148.7002</ele>
        <time>2026-05-20T10:18:48+02:00</time>
      </trkpt>
      <trkpt lat="49.3646" lon="6.18403">
        <ele>148.7002</ele>
        <time>2026-05-20T10:18:49+02:00</time>
      </trkpt>
      <trkpt lat="49.36457" lon="6.18396">
        <ele>148.7002</ele>
        <time>2026-05-20T10:18:50+02:00</time>
      </trkpt>
      <trkpt lat="49.36454" lon="6.18389">
        <ele>148.7998</ele>
        <time>2026-05-20T10:18:51+02:00</time>
      </trkpt>
      <trkpt lat="49.36451" lon="6.18382">
        <ele>148.7998</ele>
        <time>2026-05-20T10:18:52+02:00</time>
      </trkpt>
      <trkpt lat="49.36448" lon="6.18375">
        <ele>148.7998</ele>
        <time>2026-05-20T10:18:53+02:00</time>
      </trkpt>
      <trkpt lat="49.36445" lon="6.18368">
        <ele>148.7998</ele>
        <time>2026-05-20T10:18:54+02:00</time>
      </trkpt>
      <trkpt lat="49.36442" lon="6.18362">
        <ele>148.7998</ele>
        <time>2026-05-20T10:18:55+02:00</time>
      </trkpt>
      <trkpt lat="49.36439" lon="6.18355">
        <ele>148.7998</ele>
        <time>2026-05-20T10:18:56+02:00</time>
      </trkpt>
      <trkpt lat="49.36436" lon="6.18348">
        <ele>148.90039</ele>
        <time>2026-05-20T10:18:57+02:00</time>
      </trkpt>
      <trkpt lat="49.36433" lon="6.18342">
        <ele>148.90039</ele>
        <time>2026-05-20T10:18:58+02:00</time>
      </trkpt>
      <trkpt lat="49.3643" lon="6.18335">
        <ele>148.90039</ele>
        <time>2026-05-20T10:18:59+02:00</time>
      </trkpt>
      <trkpt lat="49.36426" lon="6.18329">
        <ele>148.90039</ele>
        <time>2026-05-20T10:19:00+02:00</time>
      </trkpt>
      <trkpt lat="49.36423" lon="6.18322">
        <ele>149</ele>
        <time>2026-05-20T10:19:01+02:00</time>
      </trkpt>
      <trkpt lat="49.36421" lon="6.18315">
        <ele>149</ele>
        <time>2026-05-20T10:19:02+02:00</time>
      </trkpt>
      <trkpt lat="49.36418" lon="6.18309">
        <ele>149</ele>
        <time>2026-05-20T10:19:03+02:00</time>
      </trkpt>
      <trkpt lat="49.36415" lon="6.18302">
        <ele>149.10059</ele>
        <time>2026-05-20T10:19:04+02:00</time>
      </trkpt>
      <trkpt lat="49.36412" lon="6.18295">
        <ele>149.2998</ele>
        <time>2026-05-20T10:19:05+02:00</time>
      </trkpt>
      <trkpt lat="49.36409" lon="6.18288">
        <ele>149.10059</ele>
        <time>2026-05-20T10:19:06+02:00</time>
      </trkpt>
      <trkpt lat="49.36406" lon="6.18281">
        <ele>149.2998</ele>
        <time>2026-05-20T10:19:07+02:00</time>
      </trkpt>
      <trkpt lat="49.36403" lon="6.18274">
        <ele>148.90039</ele>
        <time>2026-05-20T10:19:08+02:00</time>
      </trkpt>
      <trkpt lat="49.364" lon="6.18267">
        <ele>149</ele>
        <time>2026-05-20T10:19:09+02:00</time>
      </trkpt>
      <trkpt lat="49.36397" lon="6.1826">
        <ele>148.90039</ele>
        <time>2026-05-20T10:19:10+02:00</time>
      </trkpt>
      <trkpt lat="49.36394" lon="6.18253">
        <ele>149.10059</ele>
        <time>2026-05-20T10:19:11+02:00</time>
      </trkpt>
      <trkpt lat="49.36392" lon="6.18246">
        <ele>149.2998</ele>
        <time>2026-05-20T10:19:12+02:00</time>
      </trkpt>
      <trkpt lat="49.36389" lon="6.18239">
        <ele>149.2998</ele>
        <time>2026-05-20T10:19:13+02:00</time>
      </trkpt>
      <trkpt lat="49.36387" lon="6.18232">
        <ele>149.40039</ele>
        <time>2026-05-20T10:19:14+02:00</time>
      </trkpt>
      <trkpt lat="49.36384" lon="6.18225">
        <ele>149.7998</ele>
        <time>2026-05-20T10:19:15+02:00</time>
      </trkpt>
      <trkpt lat="49.36381" lon="6.18218">
        <ele>149.40039</ele>
        <time>2026-05-20T10:19:16+02:00</time>
      </trkpt>
      <trkpt lat="49.36377" lon="6.18211">
        <ele>149.40039</ele>
        <time>2026-05-20T10:19:17+02:00</time>
      </trkpt>
      <trkpt lat="49.36374" lon="6.18204">
        <ele>148.90039</ele>
        <time>2026-05-20T10:19:18+02:00</time>
      </trkpt>
      <trkpt lat="49.36372" lon="6.18197">
        <ele>148.90039</ele>
        <time>2026-05-20T10:19:19+02:00</time>
      </trkpt>
      <trkpt lat="49.36369" lon="6.1819">
        <ele>148.90039</ele>
        <time>2026-05-20T10:19:20+02:00</time>
      </trkpt>
      <trkpt lat="49.36366" lon="6.18183">
        <ele>149.2998</ele>
        <time>2026-05-20T10:19:21+02:00</time>
      </trkpt>
      <trkpt lat="49.36363" lon="6.18177">
        <ele>149.7002</ele>
        <time>2026-05-20T10:19:22+02:00</time>
      </trkpt>
      <trkpt lat="49.3636" lon="6.1817">
        <ele>149.7002</ele>
        <time>2026-05-20T10:19:23+02:00</time>
      </trkpt>
      <trkpt lat="49.36357" lon="6.18164">
        <ele>149.7998</ele>
        <time>2026-05-20T10:19:24+02:00</time>
      </trkpt>
      <trkpt lat="49.36355" lon="6.18158">
        <ele>150.10059</ele>
        <time>2026-05-20T10:19:25+02:00</time>
      </trkpt>
      <trkpt lat="49.36352" lon="6.18152">
        <ele>149.5</ele>
        <time>2026-05-20T10:19:26+02:00</time>
      </trkpt>
      <trkpt lat="49.3635" lon="6.18146">
        <ele>149.5</ele>
        <time>2026-05-20T10:19:27+02:00</time>
      </trkpt>
      <trkpt lat="49.36347" lon="6.18141">
        <ele>149.2002</ele>
        <time>2026-05-20T10:19:28+02:00</time>
      </trkpt>
      <trkpt lat="49.36345" lon="6.18136">
        <ele>149.2002</ele>
        <time>2026-05-20T10:19:29+02:00</time>
      </trkpt>
      <trkpt lat="49.36343" lon="6.1813">
        <ele>149.2998</ele>
        <time>2026-05-20T10:19:30+02:00</time>
      </trkpt>
      <trkpt lat="49.3634" lon="6.18125">
        <ele>149.2002</ele>
        <time>2026-05-20T10:19:31+02:00</time>
      </trkpt>
      <trkpt lat="49.36337" lon="6.1812">
        <ele>149.2002</ele>
        <time>2026-05-20T10:19:32+02:00</time>
      </trkpt>
      <trkpt lat="49.36335" lon="6.18114">
        <ele>149.40039</ele>
        <time>2026-05-20T10:19:33+02:00</time>
      </trkpt>
      <trkpt lat="49.36333" lon="6.18109">
        <ele>149.7998</ele>
        <time>2026-05-20T10:19:34+02:00</time>
      </trkpt>
      <trkpt lat="49.36331" lon="6.18103">
        <ele>149.5</ele>
        <time>2026-05-20T10:19:35+02:00</time>
      </trkpt>
      <trkpt lat="49.36329" lon="6.18097">
        <ele>149.60059</ele>
        <time>2026-05-20T10:19:36+02:00</time>
      </trkpt>
      <trkpt lat="49.36327" lon="6.18092">
        <ele>149.7002</ele>
        <time>2026-05-20T10:19:37+02:00</time>
      </trkpt>
      <trkpt lat="49.36324" lon="6.18086">
        <ele>149.40039</ele>
        <time>2026-05-20T10:19:38+02:00</time>
      </trkpt>
      <trkpt lat="49.36322" lon="6.18081">
        <ele>149.40039</ele>
        <time>2026-05-20T10:19:39+02:00</time>
      </trkpt>
      <trkpt lat="49.36319" lon="6.18076">
        <ele>149.2002</ele>
        <time>2026-05-20T10:19:40+02:00</time>
      </trkpt>
      <trkpt lat="49.36316" lon="6.1807">
        <ele>149.2002</ele>
        <time>2026-05-20T10:19:41+02:00</time>
      </trkpt>
      <trkpt lat="49.36313" lon="6.18064">
        <ele>149.2002</ele>
        <time>2026-05-20T10:19:42+02:00</time>
      </trkpt>
      <trkpt lat="49.36311" lon="6.18059">
        <ele>149.2002</ele>
        <time>2026-05-20T10:19:43+02:00</time>
      </trkpt>
      <trkpt lat="49.36308" lon="6.18053">
        <ele>149.2002</ele>
        <time>2026-05-20T10:19:44+02:00</time>
      </trkpt>
      <trkpt lat="49.36306" lon="6.18047">
        <ele>149.2002</ele>
        <time>2026-05-20T10:19:45+02:00</time>
      </trkpt>
      <trkpt lat="49.36303" lon="6.18041">
        <ele>149.2998</ele>
        <time>2026-05-20T10:19:46+02:00</time>
      </trkpt>
      <trkpt lat="49.36302" lon="6.18036">
        <ele>149.2998</ele>
        <time>2026-05-20T10:19:47+02:00</time>
      </trkpt>
      <trkpt lat="49.363" lon="6.18031">
        <ele>149.2998</ele>
        <time>2026-05-20T10:19:48+02:00</time>
      </trkpt>
      <trkpt lat="49.36297" lon="6.18026">
        <ele>149.40039</ele>
        <time>2026-05-20T10:19:49+02:00</time>
      </trkpt>
      <trkpt lat="49.36294" lon="6.18021">
        <ele>149.40039</ele>
        <time>2026-05-20T10:19:50+02:00</time>
      </trkpt>
      <trkpt lat="49.36291" lon="6.18016">
        <ele>149.40039</ele>
        <time>2026-05-20T10:19:51+02:00</time>
      </trkpt>
      <trkpt lat="49.36287" lon="6.18011">
        <ele>149.40039</ele>
        <time>2026-05-20T10:19:52+02:00</time>
      </trkpt>
      <trkpt lat="49.36284" lon="6.18007">
        <ele>149.40039</ele>
        <time>2026-05-20T10:19:53+02:00</time>
      </trkpt>
      <trkpt lat="49.3628" lon="6.18002">
        <ele>149.5</ele>
        <time>2026-05-20T10:19:54+02:00</time>
      </trkpt>
      <trkpt lat="49.36276" lon="6.17999">
        <ele>149.5</ele>
        <time>2026-05-20T10:19:55+02:00</time>
      </trkpt>
      <trkpt lat="49.36273" lon="6.17995">
        <ele>149.5</ele>
        <time>2026-05-20T10:19:56+02:00</time>
      </trkpt>
      <trkpt lat="49.36271" lon="6.1799">
        <ele>149.5</ele>
        <time>2026-05-20T10:19:57+02:00</time>
      </trkpt>
      <trkpt lat="49.36269" lon="6.17985">
        <ele>149.5</ele>
        <time>2026-05-20T10:19:58+02:00</time>
      </trkpt>
      <trkpt lat="49.36267" lon="6.1798">
        <ele>149.5</ele>
        <time>2026-05-20T10:19:59+02:00</time>
      </trkpt>
      <trkpt lat="49.36266" lon="6.17973">
        <ele>149.5</ele>
        <time>2026-05-20T10:20:00+02:00</time>
      </trkpt>
      <trkpt lat="49.36264" lon="6.17966">
        <ele>149.5</ele>
        <time>2026-05-20T10:20:01+02:00</time>
      </trkpt>
      <trkpt lat="49.36262" lon="6.17959">
        <ele>149.5</ele>
        <time>2026-05-20T10:20:02+02:00</time>
      </trkpt>
      <trkpt lat="49.3626" lon="6.17953">
        <ele>149.5</ele>
        <time>2026-05-20T10:20:03+02:00</time>
      </trkpt>
      <trkpt lat="49.36257" lon="6.17946">
        <ele>149.5</ele>
        <time>2026-05-20T10:20:04+02:00</time>
      </trkpt>
      <trkpt lat="49.36254" lon="6.1794">
        <ele>149.5</ele>
        <time>2026-05-20T10:20:05+02:00</time>
      </trkpt>
      <trkpt lat="49.36251" lon="6.17934">
        <ele>149.5</ele>
        <time>2026-05-20T10:20:06+02:00</time>
      </trkpt>
      <trkpt lat="49.36248" lon="6.17927">
        <ele>149.5</ele>
        <time>2026-05-20T10:20:07+02:00</time>
      </trkpt>
      <trkpt lat="49.36245" lon="6.17921">
        <ele>149.5</ele>
        <time>2026-05-20T10:20:08+02:00</time>
      </trkpt>
      <trkpt lat="49.36242" lon="6.17915">
        <ele>149.60059</ele>
        <time>2026-05-20T10:20:09+02:00</time>
      </trkpt>
      <trkpt lat="49.3624" lon="6.17909">
        <ele>149.60059</ele>
        <time>2026-05-20T10:20:10+02:00</time>
      </trkpt>
      <trkpt lat="49.36237" lon="6.17903">
        <ele>149.60059</ele>
        <time>2026-05-20T10:20:11+02:00</time>
      </trkpt>
      <trkpt lat="49.36234" lon="6.17896">
        <ele>149.60059</ele>
        <time>2026-05-20T10:20:12+02:00</time>
      </trkpt>
      <trkpt lat="49.36231" lon="6.1789">
        <ele>149.60059</ele>
        <time>2026-05-20T10:20:13+02:00</time>
      </trkpt>
      <trkpt lat="49.36228" lon="6.17883">
        <ele>149.60059</ele>
        <time>2026-05-20T10:20:14+02:00</time>
      </trkpt>
      <trkpt lat="49.36226" lon="6.17877">
        <ele>149.60059</ele>
        <time>2026-05-20T10:20:15+02:00</time>
      </trkpt>
      <trkpt lat="49.36223" lon="6.17871">
        <ele>149.7002</ele>
        <time>2026-05-20T10:20:16+02:00</time>
      </trkpt>
      <trkpt lat="49.3622" lon="6.17864">
        <ele>149.7002</ele>
        <time>2026-05-20T10:20:17+02:00</time>
      </trkpt>
      <trkpt lat="49.36217" lon="6.17858">
        <ele>149.7002</ele>
        <time>2026-05-20T10:20:18+02:00</time>
      </trkpt>
      <trkpt lat="49.36215" lon="6.17852">
        <ele>149.7002</ele>
        <time>2026-05-20T10:20:19+02:00</time>
      </trkpt>
      <trkpt lat="49.36213" lon="6.17846">
        <ele>149.7002</ele>
        <time>2026-05-20T10:20:20+02:00</time>
      </trkpt>
      <trkpt lat="49.3621" lon="6.1784">
        <ele>149.60059</ele>
        <time>2026-05-20T10:20:21+02:00</time>
      </trkpt>
      <trkpt lat="49.36208" lon="6.17835">
        <ele>149.7002</ele>
        <time>2026-05-20T10:20:22+02:00</time>
      </trkpt>
      <trkpt lat="49.36205" lon="6.1783">
        <ele>149.7002</ele>
        <time>2026-05-20T10:20:23+02:00</time>
      </trkpt>
      <trkpt lat="49.36203" lon="6.17825">
        <ele>149.7002</ele>
        <time>2026-05-20T10:20:24+02:00</time>
      </trkpt>
      <trkpt lat="49.362" lon="6.1782">
        <ele>149.7998</ele>
        <time>2026-05-20T10:20:25+02:00</time>
      </trkpt>
      <trkpt lat="49.36198" lon="6.17815">
        <ele>149.7998</ele>
        <time>2026-05-20T10:20:26+02:00</time>
      </trkpt>
      <trkpt lat="49.36196" lon="6.1781">
        <ele>149.7998</ele>
        <time>2026-05-20T10:20:27+02:00</time>
      </trkpt>
      <trkpt lat="49.36194" lon="6.17804">
        <ele>149.7998</ele>
        <time>2026-05-20T10:20:28+02:00</time>
      </trkpt>
      <trkpt lat="49.36192" lon="6.17799">
        <ele>149.7998</ele>
        <time>2026-05-20T10:20:29+02:00</time>
      </trkpt>
      <trkpt lat="49.36189" lon="6.17793">
        <ele>149.7998</ele>
        <time>2026-05-20T10:20:30+02:00</time>
      </trkpt>
      <trkpt lat="49.36187" lon="6.17788">
        <ele>149.7998</ele>
        <time>2026-05-20T10:20:31+02:00</time>
      </trkpt>
      <trkpt lat="49.36184" lon="6.17782">
        <ele>149.7002</ele>
        <time>2026-05-20T10:20:32+02:00</time>
      </trkpt>
      <trkpt lat="49.36182" lon="6.17776">
        <ele>149.7002</ele>
        <time>2026-05-20T10:20:33+02:00</time>
      </trkpt>
      <trkpt lat="49.36179" lon="6.1777">
        <ele>149.7998</ele>
        <time>2026-05-20T10:20:34+02:00</time>
      </trkpt>
      <trkpt lat="49.36176" lon="6.17764">
        <ele>149.7998</ele>
        <time>2026-05-20T10:20:35+02:00</time>
      </trkpt>
      <trkpt lat="49.36174" lon="6.17758">
        <ele>149.7998</ele>
        <time>2026-05-20T10:20:36+02:00</time>
      </trkpt>
      <trkpt lat="49.36171" lon="6.17752">
        <ele>149.7998</ele>
        <time>2026-05-20T10:20:37+02:00</time>
      </trkpt>
      <trkpt lat="49.36168" lon="6.17747">
        <ele>149.7002</ele>
        <time>2026-05-20T10:20:38+02:00</time>
      </trkpt>
      <trkpt lat="49.36167" lon="6.17741">
        <ele>149.7002</ele>
        <time>2026-05-20T10:20:39+02:00</time>
      </trkpt>
      <trkpt lat="49.36165" lon="6.17735">
        <ele>149.7002</ele>
        <time>2026-05-20T10:20:40+02:00</time>
      </trkpt>
      <trkpt lat="49.36162" lon="6.17729">
        <ele>149.7002</ele>
        <time>2026-05-20T10:20:41+02:00</time>
      </trkpt>
      <trkpt lat="49.36159" lon="6.17722">
        <ele>149.7002</ele>
        <time>2026-05-20T10:20:42+02:00</time>
      </trkpt>
      <trkpt lat="49.36156" lon="6.17715">
        <ele>149.7998</ele>
        <time>2026-05-20T10:20:43+02:00</time>
      </trkpt>
      <trkpt lat="49.36153" lon="6.17708">
        <ele>149.7998</ele>
        <time>2026-05-20T10:20:44+02:00</time>
      </trkpt>
      <trkpt lat="49.3615" lon="6.17701">
        <ele>149.90039</ele>
        <time>2026-05-20T10:20:45+02:00</time>
      </trkpt>
      <trkpt lat="49.36147" lon="6.17695">
        <ele>149.90039</ele>
        <time>2026-05-20T10:20:46+02:00</time>
      </trkpt>
      <trkpt lat="49.36144" lon="6.1769">
        <ele>149.90039</ele>
        <time>2026-05-20T10:20:47+02:00</time>
      </trkpt>
      <trkpt lat="49.36141" lon="6.17684">
        <ele>149.90039</ele>
        <time>2026-05-20T10:20:48+02:00</time>
      </trkpt>
      <trkpt lat="49.36138" lon="6.17679">
        <ele>149.7998</ele>
        <time>2026-05-20T10:20:49+02:00</time>
      </trkpt>
      <trkpt lat="49.36135" lon="6.17674">
        <ele>149.90039</ele>
        <time>2026-05-20T10:20:50+02:00</time>
      </trkpt>
      <trkpt lat="49.36133" lon="6.17668">
        <ele>149.7998</ele>
        <time>2026-05-20T10:20:51+02:00</time>
      </trkpt>
      <trkpt lat="49.3613" lon="6.17662">
        <ele>149.90039</ele>
        <time>2026-05-20T10:20:52+02:00</time>
      </trkpt>
      <trkpt lat="49.36127" lon="6.17657">
        <ele>149.90039</ele>
        <time>2026-05-20T10:20:53+02:00</time>
      </trkpt>
      <trkpt lat="49.36124" lon="6.17651">
        <ele>149.7998</ele>
        <time>2026-05-20T10:20:54+02:00</time>
      </trkpt>
      <trkpt lat="49.36121" lon="6.17646">
        <ele>149.7002</ele>
        <time>2026-05-20T10:20:55+02:00</time>
      </trkpt>
      <trkpt lat="49.36118" lon="6.1764">
        <ele>149.7002</ele>
        <time>2026-05-20T10:20:56+02:00</time>
      </trkpt>
      <trkpt lat="49.36114" lon="6.17635">
        <ele>149.7002</ele>
        <time>2026-05-20T10:20:57+02:00</time>
      </trkpt>
      <trkpt lat="49.36112" lon="6.17629">
        <ele>149.7998</ele>
        <time>2026-05-20T10:20:58+02:00</time>
      </trkpt>
      <trkpt lat="49.36109" lon="6.17624">
        <ele>149.7998</ele>
        <time>2026-05-20T10:20:59+02:00</time>
      </trkpt>
      <trkpt lat="49.36105" lon="6.17618">
        <ele>149.90039</ele>
        <time>2026-05-20T10:21:00+02:00</time>
      </trkpt>
      <trkpt lat="49.36103" lon="6.17614">
        <ele>149.90039</ele>
        <time>2026-05-20T10:21:01+02:00</time>
      </trkpt>
      <trkpt lat="49.361" lon="6.17609">
        <ele>149.90039</ele>
        <time>2026-05-20T10:21:02+02:00</time>
      </trkpt>
      <trkpt lat="49.36098" lon="6.17604">
        <ele>149.90039</ele>
        <time>2026-05-20T10:21:03+02:00</time>
      </trkpt>
      <trkpt lat="49.36096" lon="6.17599">
        <ele>150.10059</ele>
        <time>2026-05-20T10:21:04+02:00</time>
      </trkpt>
      <trkpt lat="49.36094" lon="6.17594">
        <ele>150</ele>
        <time>2026-05-20T10:21:05+02:00</time>
      </trkpt>
      <trkpt lat="49.36091" lon="6.17589">
        <ele>150.2998</ele>
        <time>2026-05-20T10:21:06+02:00</time>
      </trkpt>
      <trkpt lat="49.36088" lon="6.17584">
        <ele>150.2002</ele>
        <time>2026-05-20T10:21:07+02:00</time>
      </trkpt>
      <trkpt lat="49.36085" lon="6.17579">
        <ele>150.60059</ele>
        <time>2026-05-20T10:21:08+02:00</time>
      </trkpt>
      <trkpt lat="49.36082" lon="6.17574">
        <ele>150.60059</ele>
        <time>2026-05-20T10:21:09+02:00</time>
      </trkpt>
      <trkpt lat="49.3608" lon="6.17568">
        <ele>150.5</ele>
        <time>2026-05-20T10:21:10+02:00</time>
      </trkpt>
      <trkpt lat="49.36076" lon="6.17562">
        <ele>150.7002</ele>
        <time>2026-05-20T10:21:11+02:00</time>
      </trkpt>
      <trkpt lat="49.36074" lon="6.17557">
        <ele>150.7002</ele>
        <time>2026-05-20T10:21:12+02:00</time>
      </trkpt>
      <trkpt lat="49.36072" lon="6.17551">
        <ele>150.5</ele>
        <time>2026-05-20T10:21:13+02:00</time>
      </trkpt>
      <trkpt lat="49.36069" lon="6.17545">
        <ele>150.5</ele>
        <time>2026-05-20T10:21:14+02:00</time>
      </trkpt>
      <trkpt lat="49.36066" lon="6.17539">
        <ele>150.5</ele>
        <time>2026-05-20T10:21:15+02:00</time>
      </trkpt>
      <trkpt lat="49.36063" lon="6.17534">
        <ele>150.60059</ele>
        <time>2026-05-20T10:21:16+02:00</time>
      </trkpt>
      <trkpt lat="49.36061" lon="6.17528">
        <ele>150.60059</ele>
        <time>2026-05-20T10:21:17+02:00</time>
      </trkpt>
      <trkpt lat="49.36058" lon="6.17522">
        <ele>150.60059</ele>
        <time>2026-05-20T10:21:18+02:00</time>
      </trkpt>
      <trkpt lat="49.36056" lon="6.17516">
        <ele>150.7002</ele>
        <time>2026-05-20T10:21:19+02:00</time>
      </trkpt>
      <trkpt lat="49.36053" lon="6.1751">
        <ele>150.7002</ele>
        <time>2026-05-20T10:21:20+02:00</time>
      </trkpt>
      <trkpt lat="49.3605" lon="6.17505">
        <ele>150.60059</ele>
        <time>2026-05-20T10:21:21+02:00</time>
      </trkpt>
      <trkpt lat="49.36047" lon="6.17499">
        <ele>150.60059</ele>
        <time>2026-05-20T10:21:22+02:00</time>
      </trkpt>
      <trkpt lat="49.36045" lon="6.17493">
        <ele>150.60059</ele>
        <time>2026-05-20T10:21:23+02:00</time>
      </trkpt>
      <trkpt lat="49.36043" lon="6.17487">
        <ele>150.5</ele>
        <time>2026-05-20T10:21:24+02:00</time>
      </trkpt>
      <trkpt lat="49.3604" lon="6.17481">
        <ele>150.60059</ele>
        <time>2026-05-20T10:21:25+02:00</time>
      </trkpt>
      <trkpt lat="49.36038" lon="6.17476">
        <ele>150.60059</ele>
        <time>2026-05-20T10:21:26+02:00</time>
      </trkpt>
      <trkpt lat="49.36035" lon="6.1747">
        <ele>150.7002</ele>
        <time>2026-05-20T10:21:27+02:00</time>
      </trkpt>
      <trkpt lat="49.36032" lon="6.17464">
        <ele>150.7002</ele>
        <time>2026-05-20T10:21:28+02:00</time>
      </trkpt>
      <trkpt lat="49.36029" lon="6.17459">
        <ele>150.7998</ele>
        <time>2026-05-20T10:21:29+02:00</time>
      </trkpt>
      <trkpt lat="49.36026" lon="6.17453">
        <ele>150.7002</ele>
        <time>2026-05-20T10:21:30+02:00</time>
      </trkpt>
      <trkpt lat="49.36024" lon="6.17447">
        <ele>150.5</ele>
        <time>2026-05-20T10:21:31+02:00</time>
      </trkpt>
      <trkpt lat="49.36021" lon="6.17441">
        <ele>150.5</ele>
        <time>2026-05-20T10:21:32+02:00</time>
      </trkpt>
      <trkpt lat="49.36018" lon="6.17435">
        <ele>150.60059</ele>
        <time>2026-05-20T10:21:33+02:00</time>
      </trkpt>
      <trkpt lat="49.36015" lon="6.1743">
        <ele>150.60059</ele>
        <time>2026-05-20T10:21:34+02:00</time>
      </trkpt>
      <trkpt lat="49.36012" lon="6.17424">
        <ele>150.7998</ele>
        <time>2026-05-20T10:21:35+02:00</time>
      </trkpt>
      <trkpt lat="49.3601" lon="6.17418">
        <ele>150.7998</ele>
        <time>2026-05-20T10:21:36+02:00</time>
      </trkpt>
      <trkpt lat="49.36007" lon="6.17412">
        <ele>150.7998</ele>
        <time>2026-05-20T10:21:37+02:00</time>
      </trkpt>
      <trkpt lat="49.36005" lon="6.17406">
        <ele>150.7998</ele>
        <time>2026-05-20T10:21:38+02:00</time>
      </trkpt>
      <trkpt lat="49.36002" lon="6.174">
        <ele>150.7002</ele>
        <time>2026-05-20T10:21:39+02:00</time>
      </trkpt>
      <trkpt lat="49.35999" lon="6.17395">
        <ele>150.60059</ele>
        <time>2026-05-20T10:21:40+02:00</time>
      </trkpt>
      <trkpt lat="49.35996" lon="6.17389">
        <ele>150.7002</ele>
        <time>2026-05-20T10:21:41+02:00</time>
      </trkpt>
      <trkpt lat="49.35994" lon="6.17383">
        <ele>150.60059</ele>
        <time>2026-05-20T10:21:42+02:00</time>
      </trkpt>
      <trkpt lat="49.35991" lon="6.17377">
        <ele>150.5</ele>
        <time>2026-05-20T10:21:43+02:00</time>
      </trkpt>
      <trkpt lat="49.35988" lon="6.17371">
        <ele>150.7998</ele>
        <time>2026-05-20T10:21:44+02:00</time>
      </trkpt>
      <trkpt lat="49.35985" lon="6.17366">
        <ele>150.7998</ele>
        <time>2026-05-20T10:21:45+02:00</time>
      </trkpt>
      <trkpt lat="49.35982" lon="6.17361">
        <ele>150.90039</ele>
        <time>2026-05-20T10:21:46+02:00</time>
      </trkpt>
      <trkpt lat="49.35979" lon="6.17355">
        <ele>150.90039</ele>
        <time>2026-05-20T10:21:47+02:00</time>
      </trkpt>
      <trkpt lat="49.35976" lon="6.1735">
        <ele>150.90039</ele>
        <time>2026-05-20T10:21:48+02:00</time>
      </trkpt>
      <trkpt lat="49.35974" lon="6.17344">
        <ele>150.7998</ele>
        <time>2026-05-20T10:21:49+02:00</time>
      </trkpt>
      <trkpt lat="49.35972" lon="6.17338">
        <ele>150.7998</ele>
        <time>2026-05-20T10:21:50+02:00</time>
      </trkpt>
      <trkpt lat="49.35969" lon="6.17332">
        <ele>150.7002</ele>
        <time>2026-05-20T10:21:51+02:00</time>
      </trkpt>
      <trkpt lat="49.35966" lon="6.17326">
        <ele>150.7998</ele>
        <time>2026-05-20T10:21:52+02:00</time>
      </trkpt>
      <trkpt lat="49.35964" lon="6.17321">
        <ele>150.7998</ele>
        <time>2026-05-20T10:21:53+02:00</time>
      </trkpt>
      <trkpt lat="49.3596" lon="6.17315">
        <ele>150.90039</ele>
        <time>2026-05-20T10:21:54+02:00</time>
      </trkpt>
      <trkpt lat="49.35957" lon="6.1731">
        <ele>150.90039</ele>
        <time>2026-05-20T10:21:55+02:00</time>
      </trkpt>
      <trkpt lat="49.35954" lon="6.17304">
        <ele>150.90039</ele>
        <time>2026-05-20T10:21:56+02:00</time>
      </trkpt>
      <trkpt lat="49.35951" lon="6.17299">
        <ele>150.90039</ele>
        <time>2026-05-20T10:21:57+02:00</time>
      </trkpt>
      <trkpt lat="49.35948" lon="6.17294">
        <ele>150.7998</ele>
        <time>2026-05-20T10:21:58+02:00</time>
      </trkpt>
      <trkpt lat="49.35944" lon="6.17288">
        <ele>150.90039</ele>
        <time>2026-05-20T10:21:59+02:00</time>
      </trkpt>
      <trkpt lat="49.35941" lon="6.17283">
        <ele>150.7998</ele>
        <time>2026-05-20T10:22:00+02:00</time>
      </trkpt>
      <trkpt lat="49.35938" lon="6.17277">
        <ele>150.90039</ele>
        <time>2026-05-20T10:22:01+02:00</time>
      </trkpt>
      <trkpt lat="49.35935" lon="6.17272">
        <ele>150.90039</ele>
        <time>2026-05-20T10:22:02+02:00</time>
      </trkpt>
      <trkpt lat="49.35932" lon="6.17266">
        <ele>150.90039</ele>
        <time>2026-05-20T10:22:03+02:00</time>
      </trkpt>
      <trkpt lat="49.3593" lon="6.17261">
        <ele>150.90039</ele>
        <time>2026-05-20T10:22:04+02:00</time>
      </trkpt>
      <trkpt lat="49.35927" lon="6.17255">
        <ele>150.90039</ele>
        <time>2026-05-20T10:22:05+02:00</time>
      </trkpt>
      <trkpt lat="49.35924" lon="6.1725">
        <ele>150.7998</ele>
        <time>2026-05-20T10:22:06+02:00</time>
      </trkpt>
      <trkpt lat="49.35921" lon="6.17245">
        <ele>150.7998</ele>
        <time>2026-05-20T10:22:07+02:00</time>
      </trkpt>
      <trkpt lat="49.35918" lon="6.17239">
        <ele>150.7998</ele>
        <time>2026-05-20T10:22:08+02:00</time>
      </trkpt>
      <trkpt lat="49.35916" lon="6.17233">
        <ele>150.90039</ele>
        <time>2026-05-20T10:22:09+02:00</time>
      </trkpt>
      <trkpt lat="49.35913" lon="6.17228">
        <ele>150.90039</ele>
        <time>2026-05-20T10:22:10+02:00</time>
      </trkpt>
      <trkpt lat="49.3591" lon="6.17222">
        <ele>150.90039</ele>
        <time>2026-05-20T10:22:11+02:00</time>
      </trkpt>
      <trkpt lat="49.35907" lon="6.17216">
        <ele>150.90039</ele>
        <time>2026-05-20T10:22:12+02:00</time>
      </trkpt>
      <trkpt lat="49.35904" lon="6.17211">
        <ele>150.90039</ele>
        <time>2026-05-20T10:22:13+02:00</time>
      </trkpt>
      <trkpt lat="49.35901" lon="6.17205">
        <ele>150.90039</ele>
        <time>2026-05-20T10:22:14+02:00</time>
      </trkpt>
      <trkpt lat="49.35898" lon="6.172">
        <ele>150.90039</ele>
        <time>2026-05-20T10:22:15+02:00</time>
      </trkpt>
      <trkpt lat="49.35895" lon="6.17194">
        <ele>150.90039</ele>
        <time>2026-05-20T10:22:16+02:00</time>
      </trkpt>
      <trkpt lat="49.35892" lon="6.17189">
        <ele>150.90039</ele>
        <time>2026-05-20T10:22:17+02:00</time>
      </trkpt>
      <trkpt lat="49.35889" lon="6.17183">
        <ele>150.90039</ele>
        <time>2026-05-20T10:22:18+02:00</time>
      </trkpt>
      <trkpt lat="49.35886" lon="6.17177">
        <ele>150.90039</ele>
        <time>2026-05-20T10:22:19+02:00</time>
      </trkpt>
      <trkpt lat="49.35883" lon="6.17171">
        <ele>150.90039</ele>
        <time>2026-05-20T10:22:20+02:00</time>
      </trkpt>
      <trkpt lat="49.35879" lon="6.17166">
        <ele>150.90039</ele>
        <time>2026-05-20T10:22:21+02:00</time>
      </trkpt>
      <trkpt lat="49.35876" lon="6.17161">
        <ele>150.90039</ele>
        <time>2026-05-20T10:22:22+02:00</time>
      </trkpt>
      <trkpt lat="49.35872" lon="6.17155">
        <ele>150.7998</ele>
        <time>2026-05-20T10:22:23+02:00</time>
      </trkpt>
      <trkpt lat="49.3587" lon="6.1715">
        <ele>150.7998</ele>
        <time>2026-05-20T10:22:24+02:00</time>
      </trkpt>
      <trkpt lat="49.35867" lon="6.17144">
        <ele>150.90039</ele>
        <time>2026-05-20T10:22:25+02:00</time>
      </trkpt>
      <trkpt lat="49.35865" lon="6.17138">
        <ele>150.90039</ele>
        <time>2026-05-20T10:22:26+02:00</time>
      </trkpt>
      <trkpt lat="49.35862" lon="6.17133">
        <ele>150.90039</ele>
        <time>2026-05-20T10:22:27+02:00</time>
      </trkpt>
      <trkpt lat="49.35859" lon="6.17127">
        <ele>150.90039</ele>
        <time>2026-05-20T10:22:28+02:00</time>
      </trkpt>
      <trkpt lat="49.35856" lon="6.17122">
        <ele>150.7002</ele>
        <time>2026-05-20T10:22:29+02:00</time>
      </trkpt>
      <trkpt lat="49.35853" lon="6.17117">
        <ele>150.7002</ele>
        <time>2026-05-20T10:22:30+02:00</time>
      </trkpt>
      <trkpt lat="49.3585" lon="6.17112">
        <ele>150.7002</ele>
        <time>2026-05-20T10:22:31+02:00</time>
      </trkpt>
      <trkpt lat="49.35847" lon="6.17106">
        <ele>150.7002</ele>
        <time>2026-05-20T10:22:32+02:00</time>
      </trkpt>
      <trkpt lat="49.35845" lon="6.17101">
        <ele>150.7998</ele>
        <time>2026-05-20T10:22:33+02:00</time>
      </trkpt>
      <trkpt lat="49.35842" lon="6.17095">
        <ele>150.90039</ele>
        <time>2026-05-20T10:22:34+02:00</time>
      </trkpt>
      <trkpt lat="49.35838" lon="6.1709">
        <ele>150.90039</ele>
        <time>2026-05-20T10:22:35+02:00</time>
      </trkpt>
      <trkpt lat="49.35835" lon="6.17084">
        <ele>150.90039</ele>
        <time>2026-05-20T10:22:36+02:00</time>
      </trkpt>
      <trkpt lat="49.35832" lon="6.17079">
        <ele>150.7998</ele>
        <time>2026-05-20T10:22:37+02:00</time>
      </trkpt>
      <trkpt lat="49.35829" lon="6.17074">
        <ele>150.7998</ele>
        <time>2026-05-20T10:22:38+02:00</time>
      </trkpt>
      <trkpt lat="49.35826" lon="6.17069">
        <ele>150.7002</ele>
        <time>2026-05-20T10:22:39+02:00</time>
      </trkpt>
      <trkpt lat="49.35823" lon="6.17064">
        <ele>150.7002</ele>
        <time>2026-05-20T10:22:40+02:00</time>
      </trkpt>
      <trkpt lat="49.3582" lon="6.17059">
        <ele>150.7998</ele>
        <time>2026-05-20T10:22:41+02:00</time>
      </trkpt>
      <trkpt lat="49.35817" lon="6.17053">
        <ele>150.90039</ele>
        <time>2026-05-20T10:22:42+02:00</time>
      </trkpt>
      <trkpt lat="49.35814" lon="6.17048">
        <ele>150.90039</ele>
        <time>2026-05-20T10:22:43+02:00</time>
      </trkpt>
      <trkpt lat="49.35811" lon="6.17042">
        <ele>150.90039</ele>
        <time>2026-05-20T10:22:44+02:00</time>
      </trkpt>
      <trkpt lat="49.35808" lon="6.17037">
        <ele>150.90039</ele>
        <time>2026-05-20T10:22:45+02:00</time>
      </trkpt>
      <trkpt lat="49.35806" lon="6.17032">
        <ele>150.90039</ele>
        <time>2026-05-20T10:22:46+02:00</time>
      </trkpt>
      <trkpt lat="49.35803" lon="6.17026">
        <ele>150.7998</ele>
        <time>2026-05-20T10:22:47+02:00</time>
      </trkpt>
      <trkpt lat="49.358" lon="6.1702">
        <ele>150.90039</ele>
        <time>2026-05-20T10:22:48+02:00</time>
      </trkpt>
      <trkpt lat="49.35796" lon="6.17015">
        <ele>150.7002</ele>
        <time>2026-05-20T10:22:49+02:00</time>
      </trkpt>
      <trkpt lat="49.35794" lon="6.17008">
        <ele>150.90039</ele>
        <time>2026-05-20T10:22:50+02:00</time>
      </trkpt>
      <trkpt lat="49.35791" lon="6.17003">
        <ele>150.90039</ele>
        <time>2026-05-20T10:22:51+02:00</time>
      </trkpt>
      <trkpt lat="49.35788" lon="6.16997">
        <ele>150.90039</ele>
        <time>2026-05-20T10:22:52+02:00</time>
      </trkpt>
      <trkpt lat="49.35784" lon="6.16992">
        <ele>150.7002</ele>
        <time>2026-05-20T10:22:53+02:00</time>
      </trkpt>
      <trkpt lat="49.3578" lon="6.16987">
        <ele>150.7002</ele>
        <time>2026-05-20T10:22:54+02:00</time>
      </trkpt>
      <trkpt lat="49.35777" lon="6.16982">
        <ele>150.7002</ele>
        <time>2026-05-20T10:22:55+02:00</time>
      </trkpt>
      <trkpt lat="49.35773" lon="6.16977">
        <ele>150.7002</ele>
        <time>2026-05-20T10:22:56+02:00</time>
      </trkpt>
      <trkpt lat="49.35769" lon="6.16972">
        <ele>150.90039</ele>
        <time>2026-05-20T10:22:57+02:00</time>
      </trkpt>
      <trkpt lat="49.35765" lon="6.16968">
        <ele>150.90039</ele>
        <time>2026-05-20T10:22:58+02:00</time>
      </trkpt>
      <trkpt lat="49.35762" lon="6.16963">
        <ele>150.90039</ele>
        <time>2026-05-20T10:22:59+02:00</time>
      </trkpt>
      <trkpt lat="49.35758" lon="6.16959">
        <ele>150.7002</ele>
        <time>2026-05-20T10:23:00+02:00</time>
      </trkpt>
      <trkpt lat="49.35754" lon="6.16955">
        <ele>150.7998</ele>
        <time>2026-05-20T10:23:01+02:00</time>
      </trkpt>
      <trkpt lat="49.3575" lon="6.1695">
        <ele>150.7998</ele>
        <time>2026-05-20T10:23:02+02:00</time>
      </trkpt>
      <trkpt lat="49.35746" lon="6.16946">
        <ele>150.7998</ele>
        <time>2026-05-20T10:23:03+02:00</time>
      </trkpt>
      <trkpt lat="49.35742" lon="6.16942">
        <ele>150.90039</ele>
        <time>2026-05-20T10:23:04+02:00</time>
      </trkpt>
      <trkpt lat="49.35738" lon="6.16938">
        <ele>150.90039</ele>
        <time>2026-05-20T10:23:05+02:00</time>
      </trkpt>
      <trkpt lat="49.35734" lon="6.16933">
        <ele>150.7998</ele>
        <time>2026-05-20T10:23:06+02:00</time>
      </trkpt>
      <trkpt lat="49.3573" lon="6.16929">
        <ele>150.7998</ele>
        <time>2026-05-20T10:23:07+02:00</time>
      </trkpt>
      <trkpt lat="49.35727" lon="6.16926">
        <ele>150.90039</ele>
        <time>2026-05-20T10:23:08+02:00</time>
      </trkpt>
      <trkpt lat="49.35723" lon="6.16922">
        <ele>150.7002</ele>
        <time>2026-05-20T10:23:09+02:00</time>
      </trkpt>
      <trkpt lat="49.3572" lon="6.16918">
        <ele>150.7998</ele>
        <time>2026-05-20T10:23:10+02:00</time>
      </trkpt>
      <trkpt lat="49.35716" lon="6.16915">
        <ele>150.7998</ele>
        <time>2026-05-20T10:23:11+02:00</time>
      </trkpt>
      <trkpt lat="49.35713" lon="6.16911">
        <ele>150.7998</ele>
        <time>2026-05-20T10:23:12+02:00</time>
      </trkpt>
      <trkpt lat="49.35709" lon="6.16907">
        <ele>151</ele>
        <time>2026-05-20T10:23:13+02:00</time>
      </trkpt>
      <trkpt lat="49.35706" lon="6.16903">
        <ele>151</ele>
        <time>2026-05-20T10:23:14+02:00</time>
      </trkpt>
      <trkpt lat="49.35702" lon="6.169">
        <ele>151</ele>
        <time>2026-05-20T10:23:15+02:00</time>
      </trkpt>
      <trkpt lat="49.35698" lon="6.16897">
        <ele>151.10059</ele>
        <time>2026-05-20T10:23:16+02:00</time>
      </trkpt>
      <trkpt lat="49.35695" lon="6.16892">
        <ele>151.10059</ele>
        <time>2026-05-20T10:23:17+02:00</time>
      </trkpt>
      <trkpt lat="49.35692" lon="6.16887">
        <ele>151</ele>
        <time>2026-05-20T10:23:18+02:00</time>
      </trkpt>
      <trkpt lat="49.35689" lon="6.16882">
        <ele>151</ele>
        <time>2026-05-20T10:23:19+02:00</time>
      </trkpt>
      <trkpt lat="49.35686" lon="6.16877">
        <ele>151</ele>
        <time>2026-05-20T10:23:20+02:00</time>
      </trkpt>
      <trkpt lat="49.35683" lon="6.16872">
        <ele>151</ele>
        <time>2026-05-20T10:23:21+02:00</time>
      </trkpt>
      <trkpt lat="49.3568" lon="6.16867">
        <ele>151</ele>
        <time>2026-05-20T10:23:22+02:00</time>
      </trkpt>
      <trkpt lat="49.35677" lon="6.16862">
        <ele>151.10059</ele>
        <time>2026-05-20T10:23:23+02:00</time>
      </trkpt>
      <trkpt lat="49.35674" lon="6.16857">
        <ele>151.10059</ele>
        <time>2026-05-20T10:23:24+02:00</time>
      </trkpt>
      <trkpt lat="49.35671" lon="6.16852">
        <ele>151.10059</ele>
        <time>2026-05-20T10:23:25+02:00</time>
      </trkpt>
      <trkpt lat="49.35668" lon="6.16847">
        <ele>151.10059</ele>
        <time>2026-05-20T10:23:26+02:00</time>
      </trkpt>
      <trkpt lat="49.35666" lon="6.16841">
        <ele>151.10059</ele>
        <time>2026-05-20T10:23:27+02:00</time>
      </trkpt>
      <trkpt lat="49.35663" lon="6.16836">
        <ele>151.10059</ele>
        <time>2026-05-20T10:23:28+02:00</time>
      </trkpt>
      <trkpt lat="49.3566" lon="6.16831">
        <ele>151.10059</ele>
        <time>2026-05-20T10:23:29+02:00</time>
      </trkpt>
      <trkpt lat="49.35658" lon="6.16825">
        <ele>151</ele>
        <time>2026-05-20T10:23:30+02:00</time>
      </trkpt>
      <trkpt lat="49.35655" lon="6.1682">
        <ele>151.10059</ele>
        <time>2026-05-20T10:23:31+02:00</time>
      </trkpt>
      <trkpt lat="49.35652" lon="6.16814">
        <ele>151.10059</ele>
        <time>2026-05-20T10:23:32+02:00</time>
      </trkpt>
      <trkpt lat="49.35649" lon="6.16808">
        <ele>151.10059</ele>
        <time>2026-05-20T10:23:33+02:00</time>
      </trkpt>
      <trkpt lat="49.35647" lon="6.16803">
        <ele>151.10059</ele>
        <time>2026-05-20T10:23:34+02:00</time>
      </trkpt>
      <trkpt lat="49.35644" lon="6.16798">
        <ele>151.10059</ele>
        <time>2026-05-20T10:23:35+02:00</time>
      </trkpt>
      <trkpt lat="49.35641" lon="6.16793">
        <ele>151.10059</ele>
        <time>2026-05-20T10:23:36+02:00</time>
      </trkpt>
      <trkpt lat="49.35639" lon="6.16788">
        <ele>151.10059</ele>
        <time>2026-05-20T10:23:37+02:00</time>
      </trkpt>
      <trkpt lat="49.35636" lon="6.16783">
        <ele>151</ele>
        <time>2026-05-20T10:23:38+02:00</time>
      </trkpt>
      <trkpt lat="49.35633" lon="6.16778">
        <ele>150.90039</ele>
        <time>2026-05-20T10:23:39+02:00</time>
      </trkpt>
      <trkpt lat="49.35631" lon="6.16773">
        <ele>151.10059</ele>
        <time>2026-05-20T10:23:40+02:00</time>
      </trkpt>
      <trkpt lat="49.35628" lon="6.16768">
        <ele>151</ele>
        <time>2026-05-20T10:23:41+02:00</time>
      </trkpt>
      <trkpt lat="49.35626" lon="6.16763">
        <ele>151.10059</ele>
        <time>2026-05-20T10:23:42+02:00</time>
      </trkpt>
      <trkpt lat="49.35623" lon="6.16758">
        <ele>151.10059</ele>
        <time>2026-05-20T10:23:43+02:00</time>
      </trkpt>
      <trkpt lat="49.3562" lon="6.16753">
        <ele>151.2002</ele>
        <time>2026-05-20T10:23:44+02:00</time>
      </trkpt>
      <trkpt lat="49.35618" lon="6.16748">
        <ele>151.2002</ele>
        <time>2026-05-20T10:23:45+02:00</time>
      </trkpt>
      <trkpt lat="49.35615" lon="6.16743">
        <ele>151.2002</ele>
        <time>2026-05-20T10:23:46+02:00</time>
      </trkpt>
      <trkpt lat="49.35613" lon="6.16739">
        <ele>151.2002</ele>
        <time>2026-05-20T10:23:47+02:00</time>
      </trkpt>
      <trkpt lat="49.35611" lon="6.16735">
        <ele>151.10059</ele>
        <time>2026-05-20T10:23:48+02:00</time>
      </trkpt>
      <trkpt lat="49.35608" lon="6.16731">
        <ele>151.10059</ele>
        <time>2026-05-20T10:23:49+02:00</time>
      </trkpt>
      <trkpt lat="49.35607" lon="6.16727">
        <ele>151</ele>
        <time>2026-05-20T10:23:50+02:00</time>
      </trkpt>
      <trkpt lat="49.35604" lon="6.16723">
        <ele>151.10059</ele>
        <time>2026-05-20T10:23:51+02:00</time>
      </trkpt>
      <trkpt lat="49.35602" lon="6.16719">
        <ele>151.10059</ele>
        <time>2026-05-20T10:23:52+02:00</time>
      </trkpt>
      <trkpt lat="49.35599" lon="6.16715">
        <ele>151.2002</ele>
        <time>2026-05-20T10:23:53+02:00</time>
      </trkpt>
      <trkpt lat="49.35597" lon="6.16712">
        <ele>151.2002</ele>
        <time>2026-05-20T10:23:54+02:00</time>
      </trkpt>
      <trkpt lat="49.35595" lon="6.16709">
        <ele>151.2002</ele>
        <time>2026-05-20T10:23:55+02:00</time>
      </trkpt>
      <trkpt lat="49.35592" lon="6.16706">
        <ele>151.2002</ele>
        <time>2026-05-20T10:23:56+02:00</time>
      </trkpt>
      <trkpt lat="49.3559" lon="6.16702">
        <ele>151.10059</ele>
        <time>2026-05-20T10:23:57+02:00</time>
      </trkpt>
      <trkpt lat="49.35587" lon="6.16699">
        <ele>151.10059</ele>
        <time>2026-05-20T10:23:58+02:00</time>
      </trkpt>
      <trkpt lat="49.35585" lon="6.16695">
        <ele>151.10059</ele>
        <time>2026-05-20T10:23:59+02:00</time>
      </trkpt>
      <trkpt lat="49.35582" lon="6.16691">
        <ele>151.10059</ele>
        <time>2026-05-20T10:24:00+02:00</time>
      </trkpt>
      <trkpt lat="49.3558" lon="6.16686">
        <ele>151.10059</ele>
        <time>2026-05-20T10:24:01+02:00</time>
      </trkpt>
      <trkpt lat="49.35578" lon="6.16682">
        <ele>151.10059</ele>
        <time>2026-05-20T10:24:02+02:00</time>
      </trkpt>
      <trkpt lat="49.35577" lon="6.16676">
        <ele>151.10059</ele>
        <time>2026-05-20T10:24:03+02:00</time>
      </trkpt>
      <trkpt lat="49.35577" lon="6.1667">
        <ele>151.10059</ele>
        <time>2026-05-20T10:24:04+02:00</time>
      </trkpt>
      <trkpt lat="49.35577" lon="6.16664">
        <ele>151</ele>
        <time>2026-05-20T10:24:05+02:00</time>
      </trkpt>
      <trkpt lat="49.35577" lon="6.16659">
        <ele>151</ele>
        <time>2026-05-20T10:24:06+02:00</time>
      </trkpt>
      <trkpt lat="49.35577" lon="6.16654">
        <ele>151</ele>
        <time>2026-05-20T10:24:07+02:00</time>
      </trkpt>
      <trkpt lat="49.35578" lon="6.1665">
        <ele>151.60059</ele>
        <time>2026-05-20T10:24:08+02:00</time>
      </trkpt>
      <trkpt lat="49.35579" lon="6.16648">
        <ele>151.60059</ele>
        <time>2026-05-20T10:24:09+02:00</time>
      </trkpt>
      <trkpt lat="49.35581" lon="6.16646">
        <ele>151.60059</ele>
        <time>2026-05-20T10:24:10+02:00</time>
      </trkpt>
      <trkpt lat="49.35582" lon="6.16646">
        <ele>151.60059</ele>
        <time>2026-05-20T10:24:11+02:00</time>
      </trkpt>
      <trkpt lat="49.35584" lon="6.16647">
        <ele>152.2998</ele>
        <time>2026-05-20T10:24:12+02:00</time>
      </trkpt>
      <trkpt lat="49.35585" lon="6.16649">
        <ele>152.2998</ele>
        <time>2026-05-20T10:24:13+02:00</time>
      </trkpt>
      <trkpt lat="49.35587" lon="6.16651">
        <ele>151.40039</ele>
        <time>2026-05-20T10:24:14+02:00</time>
      </trkpt>
      <trkpt lat="49.35589" lon="6.16654">
        <ele>151.90039</ele>
        <time>2026-05-20T10:24:15+02:00</time>
      </trkpt>
      <trkpt lat="49.35591" lon="6.16657">
        <ele>151.90039</ele>
        <time>2026-05-20T10:24:16+02:00</time>
      </trkpt>
      <trkpt lat="49.35593" lon="6.16661">
        <ele>151.10059</ele>
        <time>2026-05-20T10:24:17+02:00</time>
      </trkpt>
      <trkpt lat="49.35596" lon="6.16664">
        <ele>151.40039</ele>
        <time>2026-05-20T10:24:18+02:00</time>
      </trkpt>
      <trkpt lat="49.35598" lon="6.16667">
        <ele>151.40039</ele>
        <time>2026-05-20T10:24:19+02:00</time>
      </trkpt>
      <trkpt lat="49.356" lon="6.16671">
        <ele>151.2998</ele>
        <time>2026-05-20T10:24:20+02:00</time>
      </trkpt>
      <trkpt lat="49.35602" lon="6.16674">
        <ele>151.2998</ele>
        <time>2026-05-20T10:24:21+02:00</time>
      </trkpt>
      <trkpt lat="49.35605" lon="6.16678">
        <ele>151.7998</ele>
        <time>2026-05-20T10:24:22+02:00</time>
      </trkpt>
      <trkpt lat="49.35607" lon="6.16683">
        <ele>151.7998</ele>
        <time>2026-05-20T10:24:23+02:00</time>
      </trkpt>
      <trkpt lat="49.35609" lon="6.16687">
        <ele>151.2002</ele>
        <time>2026-05-20T10:24:24+02:00</time>
      </trkpt>
      <trkpt lat="49.35612" lon="6.16692">
        <ele>151.60059</ele>
        <time>2026-05-20T10:24:25+02:00</time>
      </trkpt>
      <trkpt lat="49.35615" lon="6.16697">
        <ele>150.90039</ele>
        <time>2026-05-20T10:24:26+02:00</time>
      </trkpt>
      <trkpt lat="49.35617" lon="6.16701">
        <ele>151.10059</ele>
        <time>2026-05-20T10:24:27+02:00</time>
      </trkpt>
      <trkpt lat="49.3562" lon="6.16705">
        <ele>150.7998</ele>
        <time>2026-05-20T10:24:28+02:00</time>
      </trkpt>
      <trkpt lat="49.35622" lon="6.16709">
        <ele>151.10059</ele>
        <time>2026-05-20T10:24:29+02:00</time>
      </trkpt>
      <trkpt lat="49.35624" lon="6.16714">
        <ele>150.90039</ele>
        <time>2026-05-20T10:24:30+02:00</time>
      </trkpt>
      <trkpt lat="49.35626" lon="6.16718">
        <ele>150.90039</ele>
        <time>2026-05-20T10:24:31+02:00</time>
      </trkpt>
      <trkpt lat="49.35628" lon="6.16721">
        <ele>151</ele>
        <time>2026-05-20T10:24:32+02:00</time>
      </trkpt>
      <trkpt lat="49.35631" lon="6.16725">
        <ele>151</ele>
        <time>2026-05-20T10:24:33+02:00</time>
      </trkpt>
      <trkpt lat="49.35633" lon="6.16728">
        <ele>150.7998</ele>
        <time>2026-05-20T10:24:34+02:00</time>
      </trkpt>
      <trkpt lat="49.35636" lon="6.1673">
        <ele>150.7998</ele>
        <time>2026-05-20T10:24:35+02:00</time>
      </trkpt>
      <trkpt lat="49.35639" lon="6.16733">
        <ele>150.90039</ele>
        <time>2026-05-20T10:24:36+02:00</time>
      </trkpt>
      <trkpt lat="49.3564" lon="6.16737">
        <ele>150.60059</ele>
        <time>2026-05-20T10:24:37+02:00</time>
      </trkpt>
      <trkpt lat="49.3564" lon="6.1674">
        <ele>150.60059</ele>
        <time>2026-05-20T10:24:38+02:00</time>
      </trkpt>
      <trkpt lat="49.35639" lon="6.1674">
        <ele>150.60059</ele>
        <time>2026-05-20T10:24:39+02:00</time>
      </trkpt>
      <trkpt lat="49.35637" lon="6.16738">
        <ele>150.60059</ele>
        <time>2026-05-20T10:24:40+02:00</time>
      </trkpt>
      <trkpt lat="49.35635" lon="6.16736">
        <ele>150.7998</ele>
        <time>2026-05-20T10:24:41+02:00</time>
      </trkpt>
      <trkpt lat="49.35633" lon="6.16733">
        <ele>150.7998</ele>
        <time>2026-05-20T10:24:42+02:00</time>
      </trkpt>
      <trkpt lat="49.35631" lon="6.1673">
        <ele>150.90039</ele>
        <time>2026-05-20T10:24:43+02:00</time>
      </trkpt>
      <trkpt lat="49.35629" lon="6.16726">
        <ele>151</ele>
        <time>2026-05-20T10:24:44+02:00</time>
      </trkpt>
      <trkpt lat="49.35627" lon="6.16723">
        <ele>150.90039</ele>
        <time>2026-05-20T10:24:45+02:00</time>
      </trkpt>
      <trkpt lat="49.35624" lon="6.16719">
        <ele>150.90039</ele>
        <time>2026-05-20T10:24:46+02:00</time>
      </trkpt>
      <trkpt lat="49.35622" lon="6.16716">
        <ele>150.90039</ele>
        <time>2026-05-20T10:24:47+02:00</time>
      </trkpt>
      <trkpt lat="49.35619" lon="6.16712">
        <ele>150.7002</ele>
        <time>2026-05-20T10:24:48+02:00</time>
      </trkpt>
      <trkpt lat="49.35617" lon="6.16709">
        <ele>150.7998</ele>
        <time>2026-05-20T10:24:49+02:00</time>
      </trkpt>
      <trkpt lat="49.35615" lon="6.16705">
        <ele>150.7002</ele>
        <time>2026-05-20T10:24:50+02:00</time>
      </trkpt>
      <trkpt lat="49.35612" lon="6.16701">
        <ele>150.90039</ele>
        <time>2026-05-20T10:24:51+02:00</time>
      </trkpt>
      <trkpt lat="49.3561" lon="6.16697">
        <ele>151</ele>
        <time>2026-05-20T10:24:52+02:00</time>
      </trkpt>
      <trkpt lat="49.35608" lon="6.16695">
        <ele>151</ele>
        <time>2026-05-20T10:24:53+02:00</time>
      </trkpt>
      <trkpt lat="49.35605" lon="6.16694">
        <ele>151</ele>
        <time>2026-05-20T10:24:54+02:00</time>
      </trkpt>
      <trkpt lat="49.35603" lon="6.16695">
        <ele>151.10059</ele>
        <time>2026-05-20T10:24:55+02:00</time>
      </trkpt>
      <trkpt lat="49.356" lon="6.16698">
        <ele>151.10059</ele>
        <time>2026-05-20T10:24:56+02:00</time>
      </trkpt>
      <trkpt lat="49.35598" lon="6.16702">
        <ele>151.10059</ele>
        <time>2026-05-20T10:24:57+02:00</time>
      </trkpt>
      <trkpt lat="49.35596" lon="6.16705">
        <ele>151.2002</ele>
        <time>2026-05-20T10:24:58+02:00</time>
      </trkpt>
      <trkpt lat="49.35594" lon="6.16709">
        <ele>151.2002</ele>
        <time>2026-05-20T10:24:59+02:00</time>
      </trkpt>
      <trkpt lat="49.35591" lon="6.16713">
        <ele>151.2002</ele>
        <time>2026-05-20T10:25:00+02:00</time>
      </trkpt>
      <trkpt lat="49.35589" lon="6.16717">
        <ele>151.2002</ele>
        <time>2026-05-20T10:25:01+02:00</time>
      </trkpt>
      <trkpt lat="49.35587" lon="6.1672">
        <ele>151.2002</ele>
        <time>2026-05-20T10:25:02+02:00</time>
      </trkpt>
      <trkpt lat="49.35584" lon="6.16724">
        <ele>151.2002</ele>
        <time>2026-05-20T10:25:03+02:00</time>
      </trkpt>
      <trkpt lat="49.35582" lon="6.16727">
        <ele>151.2002</ele>
        <time>2026-05-20T10:25:04+02:00</time>
      </trkpt>
      <trkpt lat="49.35579" lon="6.1673">
        <ele>151.2002</ele>
        <time>2026-05-20T10:25:05+02:00</time>
      </trkpt>
      <trkpt lat="49.35577" lon="6.16733">
        <ele>151.2002</ele>
        <time>2026-05-20T10:25:06+02:00</time>
      </trkpt>
      <trkpt lat="49.35574" lon="6.16737">
        <ele>151.2002</ele>
        <time>2026-05-20T10:25:07+02:00</time>
      </trkpt>
      <trkpt lat="49.35572" lon="6.1674">
        <ele>151.2002</ele>
        <time>2026-05-20T10:25:08+02:00</time>
      </trkpt>
      <trkpt lat="49.35569" lon="6.16744">
        <ele>151.2002</ele>
        <time>2026-05-20T10:25:09+02:00</time>
      </trkpt>
      <trkpt lat="49.35567" lon="6.16747">
        <ele>151.2002</ele>
        <time>2026-05-20T10:25:10+02:00</time>
      </trkpt>
      <trkpt lat="49.35565" lon="6.16751">
        <ele>151.2002</ele>
        <time>2026-05-20T10:25:11+02:00</time>
      </trkpt>
      <trkpt lat="49.35562" lon="6.16754">
        <ele>151.2002</ele>
        <time>2026-05-20T10:25:12+02:00</time>
      </trkpt>
      <trkpt lat="49.3556" lon="6.16758">
        <ele>151.2002</ele>
        <time>2026-05-20T10:25:13+02:00</time>
      </trkpt>
      <trkpt lat="49.35557" lon="6.16761">
        <ele>151.2002</ele>
        <time>2026-05-20T10:25:14+02:00</time>
      </trkpt>
      <trkpt lat="49.35555" lon="6.16765">
        <ele>151.2002</ele>
        <time>2026-05-20T10:25:15+02:00</time>
      </trkpt>
      <trkpt lat="49.35552" lon="6.16768">
        <ele>151.2002</ele>
        <time>2026-05-20T10:25:16+02:00</time>
      </trkpt>
      <trkpt lat="49.3555" lon="6.16771">
        <ele>151.2002</ele>
        <time>2026-05-20T10:25:17+02:00</time>
      </trkpt>
      <trkpt lat="49.35548" lon="6.16774">
        <ele>151.2002</ele>
        <time>2026-05-20T10:25:18+02:00</time>
      </trkpt>
      <trkpt lat="49.35545" lon="6.16776">
        <ele>151.2002</ele>
        <time>2026-05-20T10:25:19+02:00</time>
      </trkpt>
      <trkpt lat="49.35542" lon="6.1678">
        <ele>151.2002</ele>
        <time>2026-05-20T10:25:20+02:00</time>
      </trkpt>
      <trkpt lat="49.3554" lon="6.16783">
        <ele>151.2002</ele>
        <time>2026-05-20T10:25:21+02:00</time>
      </trkpt>
      <trkpt lat="49.35537" lon="6.16787">
        <ele>151.2002</ele>
        <time>2026-05-20T10:25:22+02:00</time>
      </trkpt>
      <trkpt lat="49.35534" lon="6.16791">
        <ele>151.2998</ele>
        <time>2026-05-20T10:25:23+02:00</time>
      </trkpt>
      <trkpt lat="49.35531" lon="6.16795">
        <ele>151.40039</ele>
        <time>2026-05-20T10:25:24+02:00</time>
      </trkpt>
      <trkpt lat="49.35528" lon="6.168">
        <ele>151.5</ele>
        <time>2026-05-20T10:25:25+02:00</time>
      </trkpt>
      <trkpt lat="49.35525" lon="6.16805">
        <ele>151.7002</ele>
        <time>2026-05-20T10:25:26+02:00</time>
      </trkpt>
      <trkpt lat="49.35522" lon="6.1681">
        <ele>151.7998</ele>
        <time>2026-05-20T10:25:27+02:00</time>
      </trkpt>
      <trkpt lat="49.35518" lon="6.16815">
        <ele>152.10059</ele>
        <time>2026-05-20T10:25:28+02:00</time>
      </trkpt>
      <trkpt lat="49.35516" lon="6.1682">
        <ele>152.10059</ele>
        <time>2026-05-20T10:25:29+02:00</time>
      </trkpt>
      <trkpt lat="49.35513" lon="6.16825">
        <ele>152.40039</ele>
        <time>2026-05-20T10:25:30+02:00</time>
      </trkpt>
      <trkpt lat="49.35509" lon="6.16831">
        <ele>152.7998</ele>
        <time>2026-05-20T10:25:31+02:00</time>
      </trkpt>
      <trkpt lat="49.35505" lon="6.16836">
        <ele>152.7998</ele>
        <time>2026-05-20T10:25:32+02:00</time>
      </trkpt>
      <trkpt lat="49.35502" lon="6.16841">
        <ele>153.7002</ele>
        <time>2026-05-20T10:25:33+02:00</time>
      </trkpt>
      <trkpt lat="49.35497" lon="6.16847">
        <ele>154.2998</ele>
        <time>2026-05-20T10:25:34+02:00</time>
      </trkpt>
      <trkpt lat="49.35494" lon="6.16853">
        <ele>154.7002</ele>
        <time>2026-05-20T10:25:35+02:00</time>
      </trkpt>
      <trkpt lat="49.35489" lon="6.16859">
        <ele>155.2002</ele>
        <time>2026-05-20T10:25:36+02:00</time>
      </trkpt>
      <trkpt lat="49.35486" lon="6.16865">
        <ele>155.40039</ele>
        <time>2026-05-20T10:25:37+02:00</time>
      </trkpt>
      <trkpt lat="49.35482" lon="6.1687">
        <ele>155.60059</ele>
        <time>2026-05-20T10:25:38+02:00</time>
      </trkpt>
      <trkpt lat="49.35478" lon="6.16875">
        <ele>155.90039</ele>
        <time>2026-05-20T10:25:39+02:00</time>
      </trkpt>
      <trkpt lat="49.35476" lon="6.16878">
        <ele>155.90039</ele>
        <time>2026-05-20T10:25:40+02:00</time>
      </trkpt>
      <trkpt lat="49.35473" lon="6.1688">
        <ele>155.90039</ele>
        <time>2026-05-20T10:25:41+02:00</time>
      </trkpt>
      <trkpt lat="49.35471" lon="6.16881">
        <ele>155.90039</ele>
        <time>2026-05-20T10:25:42+02:00</time>
      </trkpt>
      <trkpt lat="49.35469" lon="6.16879">
        <ele>155.90039</ele>
        <time>2026-05-20T10:25:43+02:00</time>
      </trkpt>
      <trkpt lat="49.35467" lon="6.16876">
        <ele>155.90039</ele>
        <time>2026-05-20T10:25:44+02:00</time>
      </trkpt>
      <trkpt lat="49.35465" lon="6.16873">
        <ele>155.7002</ele>
        <time>2026-05-20T10:25:45+02:00</time>
      </trkpt>
      <trkpt lat="49.35462" lon="6.16872">
        <ele>155.7002</ele>
        <time>2026-05-20T10:25:46+02:00</time>
      </trkpt>
      <trkpt lat="49.35459" lon="6.16872">
        <ele>155.7998</ele>
        <time>2026-05-20T10:25:47+02:00</time>
      </trkpt>
      <trkpt lat="49.35457" lon="6.16874">
        <ele>155.90039</ele>
        <time>2026-05-20T10:25:48+02:00</time>
      </trkpt>
      <trkpt lat="49.35455" lon="6.16877">
        <ele>155.90039</ele>
        <time>2026-05-20T10:25:49+02:00</time>
      </trkpt>
      <trkpt lat="49.35454" lon="6.16881">
        <ele>155.90039</ele>
        <time>2026-05-20T10:25:50+02:00</time>
      </trkpt>
      <trkpt lat="49.35452" lon="6.16883">
        <ele>156</ele>
        <time>2026-05-20T10:25:51+02:00</time>
      </trkpt>
      <trkpt lat="49.3545" lon="6.16886">
        <ele>156</ele>
        <time>2026-05-20T10:25:52+02:00</time>
      </trkpt>
      <trkpt lat="49.35447" lon="6.16889">
        <ele>155.90039</ele>
        <time>2026-05-20T10:25:53+02:00</time>
      </trkpt>
      <trkpt lat="49.35446" lon="6.16891">
        <ele>156</ele>
        <time>2026-05-20T10:25:54+02:00</time>
      </trkpt>
      <trkpt lat="49.35445" lon="6.16894">
        <ele>156</ele>
        <time>2026-05-20T10:25:55+02:00</time>
      </trkpt>
      <trkpt lat="49.35443" lon="6.16897">
        <ele>156</ele>
        <time>2026-05-20T10:25:56+02:00</time>
      </trkpt>
      <trkpt lat="49.35442" lon="6.169">
        <ele>156.10059</ele>
        <time>2026-05-20T10:25:57+02:00</time>
      </trkpt>
      <trkpt lat="49.3544" lon="6.16902">
        <ele>156.10059</ele>
        <time>2026-05-20T10:25:58+02:00</time>
      </trkpt>
      <trkpt lat="49.35438" lon="6.16904">
        <ele>156.10059</ele>
        <time>2026-05-20T10:25:59+02:00</time>
      </trkpt>
      <trkpt lat="49.35437" lon="6.16906">
        <ele>156</ele>
        <time>2026-05-20T10:26:00+02:00</time>
      </trkpt>
      <trkpt lat="49.35435" lon="6.16908">
        <ele>156</ele>
        <time>2026-05-20T10:26:01+02:00</time>
      </trkpt>
      <trkpt lat="49.35434" lon="6.1691">
        <ele>156.10059</ele>
        <time>2026-05-20T10:26:02+02:00</time>
      </trkpt>
      <trkpt lat="49.35433" lon="6.16913">
        <ele>156.10059</ele>
        <time>2026-05-20T10:26:03+02:00</time>
      </trkpt>
      <trkpt lat="49.35431" lon="6.16916">
        <ele>156.10059</ele>
        <time>2026-05-20T10:26:04+02:00</time>
      </trkpt>
      <trkpt lat="49.3543" lon="6.16918">
        <ele>156.10059</ele>
        <time>2026-05-20T10:26:05+02:00</time>
      </trkpt>
      <trkpt lat="49.35428" lon="6.16921">
        <ele>156.10059</ele>
        <time>2026-05-20T10:26:06+02:00</time>
      </trkpt>
      <trkpt lat="49.35427" lon="6.16924">
        <ele>156.10059</ele>
        <time>2026-05-20T10:26:07+02:00</time>
      </trkpt>
      <trkpt lat="49.35426" lon="6.16926">
        <ele>156.2002</ele>
        <time>2026-05-20T10:26:08+02:00</time>
      </trkpt>
      <trkpt lat="49.35425" lon="6.16929">
        <ele>156.10059</ele>
        <time>2026-05-20T10:26:09+02:00</time>
      </trkpt>
      <trkpt lat="49.35423" lon="6.16931">
        <ele>156.10059</ele>
        <time>2026-05-20T10:26:10+02:00</time>
      </trkpt>
      <trkpt lat="49.35421" lon="6.16933">
        <ele>156.10059</ele>
        <time>2026-05-20T10:26:11+02:00</time>
      </trkpt>
      <trkpt lat="49.35419" lon="6.16936">
        <ele>156.10059</ele>
        <time>2026-05-20T10:26:12+02:00</time>
      </trkpt>
      <trkpt lat="49.35417" lon="6.16938">
        <ele>156.10059</ele>
        <time>2026-05-20T10:26:13+02:00</time>
      </trkpt>
      <trkpt lat="49.35416" lon="6.16941">
        <ele>156.10059</ele>
        <time>2026-05-20T10:26:14+02:00</time>
      </trkpt>
      <trkpt lat="49.35414" lon="6.16943">
        <ele>156.10059</ele>
        <time>2026-05-20T10:26:15+02:00</time>
      </trkpt>
      <trkpt lat="49.35412" lon="6.16945">
        <ele>156.10059</ele>
        <time>2026-05-20T10:26:16+02:00</time>
      </trkpt>
      <trkpt lat="49.3541" lon="6.16945">
        <ele>156.10059</ele>
        <time>2026-05-20T10:26:17+02:00</time>
      </trkpt>
      <trkpt lat="49.35408" lon="6.16945">
        <ele>156</ele>
        <time>2026-05-20T10:26:18+02:00</time>
      </trkpt>
      <trkpt lat="49.35406" lon="6.16944">
        <ele>156</ele>
        <time>2026-05-20T10:26:19+02:00</time>
      </trkpt>
      <trkpt lat="49.35404" lon="6.16942">
        <ele>156</ele>
        <time>2026-05-20T10:26:20+02:00</time>
      </trkpt>
      <trkpt lat="49.35402" lon="6.16939">
        <ele>156</ele>
        <time>2026-05-20T10:26:21+02:00</time>
      </trkpt>
      <trkpt lat="49.354" lon="6.16936">
        <ele>156</ele>
        <time>2026-05-20T10:26:22+02:00</time>
      </trkpt>
      <trkpt lat="49.35399" lon="6.16934">
        <ele>156</ele>
        <time>2026-05-20T10:26:23+02:00</time>
      </trkpt>
      <trkpt lat="49.35398" lon="6.16932">
        <ele>156</ele>
        <time>2026-05-20T10:26:24+02:00</time>
      </trkpt>
      <trkpt lat="49.35396" lon="6.16932">
        <ele>156</ele>
        <time>2026-05-20T10:26:25+02:00</time>
      </trkpt>
      <trkpt lat="49.35395" lon="6.16934">
        <ele>156</ele>
        <time>2026-05-20T10:26:26+02:00</time>
      </trkpt>
      <trkpt lat="49.35395" lon="6.16936">
        <ele>156</ele>
        <time>2026-05-20T10:26:27+02:00</time>
      </trkpt>
      <trkpt lat="49.35395" lon="6.16937">
        <ele>156</ele>
        <time>2026-05-20T10:26:28+02:00</time>
      </trkpt>
      <trkpt lat="49.35396" lon="6.16937">
        <ele>156</ele>
        <time>2026-05-20T10:26:29+02:00</time>
      </trkpt>
      <trkpt lat="49.35396" lon="6.16938">
        <ele>156</ele>
        <time>2026-05-20T10:26:30+02:00</time>
      </trkpt>
    </trkseg>
  </trk>
</gpx>